<?xml version='1.0' encoding='UTF-8'?><gpx version="1.1" creator="JPX - https://github.com/jenetics/jpx" xmlns="http://www.topografix.com/GPX/1/1"><trk><trkseg><trkpt lat="42.3627944" lon="13.3846857"><ele>668.4000000000001</ele><time>2026-04-08T14:07:52.969Z</time></trkpt><trkpt lat="42.3628883" lon="13.3845492"><ele>667.8</ele><time>2026-04-08T14:07:54.97Z</time></trkpt><trkpt lat="42.3629488" lon="13.3844326"><ele>667.2</ele><time>2026-04-08T14:07:55.97Z</time></trkpt><trkpt lat="42.3630031" lon="13.3843139"><ele>666.5999999999999</ele><time>2026-04-08T14:07:56.97Z</time></trkpt><trkpt lat="42.3630504" lon="13.3842049"><ele>666.0</ele><time>2026-04-08T14:07:57.97Z</time></trkpt><trkpt lat="42.3630928" lon="13.3841079"><ele>666.5</ele><time>2026-04-08T14:07:58.969Z</time></trkpt><trkpt lat="42.363135" lon="13.3840309"><ele>667.0</ele><time>2026-04-08T14:07:59.97Z</time></trkpt><trkpt lat="42.3631777" lon="13.3839576"><ele>667.5</ele><time>2026-04-08T14:08:00.97Z</time></trkpt><trkpt lat="42.3632414" lon="13.3838172"><ele>668.0</ele><time>2026-04-08T14:08:02.969Z</time></trkpt><trkpt lat="42.3632689" lon="13.3837119"><ele>668.5</ele><time>2026-04-08T14:08:03.969Z</time></trkpt><trkpt lat="42.3632721" lon="13.383592"><ele>669.0</ele><time>2026-04-08T14:08:04.969Z</time></trkpt><trkpt lat="42.3632414" lon="13.383476"><ele>669.0</ele><time>2026-04-08T14:08:05.97Z</time></trkpt><trkpt lat="42.3631862" lon="13.3833784"><ele>669.0</ele><time>2026-04-08T14:08:06.969Z</time></trkpt><trkpt lat="42.3631201" lon="13.3832953"><ele>669.0</ele><time>2026-04-08T14:08:07.97Z</time></trkpt><trkpt lat="42.3630452" lon="13.3832151"><ele>669.0</ele><time>2026-04-08T14:08:08.969Z</time></trkpt><trkpt lat="42.3629656" lon="13.3831173"><ele>669.0</ele><time>2026-04-08T14:08:09.97Z</time></trkpt><trkpt lat="42.362878" lon="13.383016"><ele>667.25</ele><time>2026-04-08T14:08:10.97Z</time></trkpt><trkpt lat="42.3627808" lon="13.3829111"><ele>665.5</ele><time>2026-04-08T14:08:11.969Z</time></trkpt><trkpt lat="42.3626788" lon="13.3827911"><ele>663.75</ele><time>2026-04-08T14:08:12.969Z</time></trkpt><trkpt lat="42.3625758" lon="13.3826709"><ele>662.0</ele><time>2026-04-08T14:08:13.97Z</time></trkpt><trkpt lat="42.3624701" lon="13.3825436"><ele>662.0</ele><time>2026-04-08T14:08:14.969Z</time></trkpt><trkpt lat="42.3623657" lon="13.382413"><ele>662.0</ele><time>2026-04-08T14:08:15.969Z</time></trkpt><trkpt lat="42.362253" lon="13.3822765"><ele>662.0</ele><time>2026-04-08T14:08:16.969Z</time></trkpt><trkpt lat="42.3621449" lon="13.3821391"><ele>662.0</ele><time>2026-04-08T14:08:17.97Z</time></trkpt><trkpt lat="42.3620316" lon="13.381988"><ele>661.3333333333333</ele><time>2026-04-08T14:08:18.969Z</time></trkpt><trkpt lat="42.3619219" lon="13.3818281"><ele>660.6666666666666</ele><time>2026-04-08T14:08:19.969Z</time></trkpt><trkpt lat="42.3618151" lon="13.3816584"><ele>660.0</ele><time>2026-04-08T14:08:20.969Z</time></trkpt><trkpt lat="42.3617115" lon="13.3814796"><ele>660.0</ele><time>2026-04-08T14:08:21.969Z</time></trkpt><trkpt lat="42.3616067" lon="13.3813079"><ele>660.0</ele><time>2026-04-08T14:08:22.97Z</time></trkpt><trkpt lat="42.3615038" lon="13.3811407"><ele>660.0</ele><time>2026-04-08T14:08:23.969Z</time></trkpt><trkpt lat="42.3614037" lon="13.380976"><ele>659.5</ele><time>2026-04-08T14:08:24.97Z</time></trkpt><trkpt lat="42.361306" lon="13.3808207"><ele>659.0</ele><time>2026-04-08T14:08:25.969Z</time></trkpt><trkpt lat="42.3612116" lon="13.3806716"><ele>658.5</ele><time>2026-04-08T14:08:26.969Z</time></trkpt><trkpt lat="42.3611112" lon="13.380528"><ele>658.0</ele><time>2026-04-08T14:08:27.97Z</time></trkpt><trkpt lat="42.361011" lon="13.3804002"><ele>658.0</ele><time>2026-04-08T14:08:28.969Z</time></trkpt><trkpt lat="42.3609071" lon="13.3802899"><ele>658.0</ele><time>2026-04-08T14:08:29.97Z</time></trkpt><trkpt lat="42.360814" lon="13.3801959"><ele>658.0</ele><time>2026-04-08T14:08:30.969Z</time></trkpt><trkpt lat="42.3607243" lon="13.3801158"><ele>658.0</ele><time>2026-04-08T14:08:31.969Z</time></trkpt><trkpt lat="42.3606457" lon="13.3800412"><ele>658.0</ele><time>2026-04-08T14:08:32.969Z</time></trkpt><trkpt lat="42.360581" lon="13.3799774"><ele>658.0</ele><time>2026-04-08T14:08:33.969Z</time></trkpt><trkpt lat="42.3605286" lon="13.3799293"><ele>658.0</ele><time>2026-04-08T14:08:34.969Z</time></trkpt><trkpt lat="42.3604757" lon="13.3798761"><ele>658.0</ele><time>2026-04-08T14:08:36.969Z</time></trkpt><trkpt lat="42.3604191" lon="13.3798186"><ele>658.0</ele><time>2026-04-08T14:08:40.969Z</time></trkpt><trkpt lat="42.3603659" lon="13.3797702"><ele>658.0</ele><time>2026-04-08T14:08:43.969Z</time></trkpt><trkpt lat="42.3602907" lon="13.3797037"><ele>658.0</ele><time>2026-04-08T14:08:46.969Z</time></trkpt><trkpt lat="42.3602111" lon="13.3796081"><ele>656.5</ele><time>2026-04-08T14:08:56.969Z</time></trkpt><trkpt lat="42.3601891" lon="13.3794371"><ele>655.0</ele><time>2026-04-08T14:08:58.97Z</time></trkpt><trkpt lat="42.3602099" lon="13.3792945"><ele>653.5</ele><time>2026-04-08T14:08:59.969Z</time></trkpt><trkpt lat="42.3602512" lon="13.3791178"><ele>652.0</ele><time>2026-04-08T14:09:00.969Z</time></trkpt><trkpt lat="42.360317" lon="13.3789288"><ele>651.75</ele><time>2026-04-08T14:09:01.97Z</time></trkpt><trkpt lat="42.3603837" lon="13.3787468"><ele>651.5</ele><time>2026-04-08T14:09:02.969Z</time></trkpt><trkpt lat="42.3604413" lon="13.378574"><ele>651.25</ele><time>2026-04-08T14:09:03.969Z</time></trkpt><trkpt lat="42.3604996" lon="13.3784136"><ele>651.0</ele><time>2026-04-08T14:09:04.969Z</time></trkpt><trkpt lat="42.3605519" lon="13.3782664"><ele>651.4</ele><time>2026-04-08T14:09:05.969Z</time></trkpt><trkpt lat="42.3606" lon="13.3781304"><ele>651.8</ele><time>2026-04-08T14:09:06.969Z</time></trkpt><trkpt lat="42.3606438" lon="13.3780126"><ele>652.1999999999999</ele><time>2026-04-08T14:09:07.969Z</time></trkpt><trkpt lat="42.3606784" lon="13.3779003"><ele>652.5999999999999</ele><time>2026-04-08T14:09:08.969Z</time></trkpt><trkpt lat="42.360712" lon="13.3777883"><ele>653.0</ele><time>2026-04-08T14:09:09.97Z</time></trkpt><trkpt lat="42.3607491" lon="13.3776715"><ele>653.0</ele><time>2026-04-08T14:09:10.969Z</time></trkpt><trkpt lat="42.3607932" lon="13.3775551"><ele>653.0</ele><time>2026-04-08T14:09:11.969Z</time></trkpt><trkpt lat="42.3608345" lon="13.3774377"><ele>653.0</ele><time>2026-04-08T14:09:12.969Z</time></trkpt><trkpt lat="42.3608754" lon="13.3773212"><ele>653.0</ele><time>2026-04-08T14:09:13.97Z</time></trkpt><trkpt lat="42.360919" lon="13.3772014"><ele>653.0</ele><time>2026-04-08T14:09:14.969Z</time></trkpt><trkpt lat="42.3609615" lon="13.377082"><ele>652.4</ele><time>2026-04-08T14:09:15.969Z</time></trkpt><trkpt lat="42.3610009" lon="13.3769592"><ele>651.8</ele><time>2026-04-08T14:09:16.969Z</time></trkpt><trkpt lat="42.361042" lon="13.3768277"><ele>651.2</ele><time>2026-04-08T14:09:17.969Z</time></trkpt><trkpt lat="42.3610852" lon="13.3766891"><ele>650.6</ele><time>2026-04-08T14:09:18.969Z</time></trkpt><trkpt lat="42.361134" lon="13.3765498"><ele>650.0</ele><time>2026-04-08T14:09:19.969Z</time></trkpt><trkpt lat="42.3611855" lon="13.3764109"><ele>649.8</ele><time>2026-04-08T14:09:20.969Z</time></trkpt><trkpt lat="42.3612323" lon="13.3762703"><ele>649.6</ele><time>2026-04-08T14:09:21.969Z</time></trkpt><trkpt lat="42.3612789" lon="13.3761365"><ele>649.4000000000001</ele><time>2026-04-08T14:09:22.97Z</time></trkpt><trkpt lat="42.3613237" lon="13.3760052"><ele>649.2</ele><time>2026-04-08T14:09:23.969Z</time></trkpt><trkpt lat="42.361367" lon="13.3758628"><ele>649.0</ele><time>2026-04-08T14:09:24.969Z</time></trkpt><trkpt lat="42.3614146" lon="13.3757112"><ele>649.0</ele><time>2026-04-08T14:09:25.969Z</time></trkpt><trkpt lat="42.3614673" lon="13.3755456"><ele>649.0</ele><time>2026-04-08T14:09:26.969Z</time></trkpt><trkpt lat="42.3615224" lon="13.3753796"><ele>649.0</ele><time>2026-04-08T14:09:27.969Z</time></trkpt><trkpt lat="42.3615769" lon="13.3752081"><ele>649.0</ele><time>2026-04-08T14:09:28.969Z</time></trkpt><trkpt lat="42.3616347" lon="13.3750355"><ele>648.75</ele><time>2026-04-08T14:09:29.969Z</time></trkpt><trkpt lat="42.3616903" lon="13.3748675"><ele>648.5</ele><time>2026-04-08T14:09:30.97Z</time></trkpt><trkpt lat="42.3617459" lon="13.3747101"><ele>648.25</ele><time>2026-04-08T14:09:31.969Z</time></trkpt><trkpt lat="42.3617982" lon="13.3745519"><ele>648.0</ele><time>2026-04-08T14:09:32.969Z</time></trkpt><trkpt lat="42.3618537" lon="13.3743885"><ele>648.0</ele><time>2026-04-08T14:09:33.969Z</time></trkpt><trkpt lat="42.3619143" lon="13.3742142"><ele>648.0</ele><time>2026-04-08T14:09:34.969Z</time></trkpt><trkpt lat="42.3619864" lon="13.3740163"><ele>648.0</ele><time>2026-04-08T14:09:35.969Z</time></trkpt><trkpt lat="42.362061" lon="13.3738027"><ele>647.3333333333334</ele><time>2026-04-08T14:09:36.969Z</time></trkpt><trkpt lat="42.3621327" lon="13.373598"><ele>646.6666666666667</ele><time>2026-04-08T14:09:37.97Z</time></trkpt><trkpt lat="42.3621986" lon="13.3734007"><ele>646.0</ele><time>2026-04-08T14:09:38.969Z</time></trkpt><trkpt lat="42.3622541" lon="13.3732086"><ele>646.0</ele><time>2026-04-08T14:09:39.969Z</time></trkpt><trkpt lat="42.3622916" lon="13.3730238"><ele>646.0</ele><time>2026-04-08T14:09:40.969Z</time></trkpt><trkpt lat="42.3622981" lon="13.372851"><ele>646.0</ele><time>2026-04-08T14:09:41.969Z</time></trkpt><trkpt lat="42.3622715" lon="13.3726976"><ele>646.0</ele><time>2026-04-08T14:09:42.969Z</time></trkpt><trkpt lat="42.3622115" lon="13.37257"><ele>645.0</ele><time>2026-04-08T14:09:43.97Z</time></trkpt><trkpt lat="42.3621297" lon="13.3724827"><ele>644.0</ele><time>2026-04-08T14:09:44.969Z</time></trkpt><trkpt lat="42.3620418" lon="13.3724229"><ele>643.0</ele><time>2026-04-08T14:09:45.97Z</time></trkpt><trkpt lat="42.3619425" lon="13.3723665"><ele>642.0</ele><time>2026-04-08T14:09:46.969Z</time></trkpt><trkpt lat="42.3618305" lon="13.3723215"><ele>641.0</ele><time>2026-04-08T14:09:47.969Z</time></trkpt><trkpt lat="42.3617069" lon="13.3722887"><ele>641.0</ele><time>2026-04-08T14:09:48.97Z</time></trkpt><trkpt lat="42.3615775" lon="13.3722624"><ele>641.0</ele><time>2026-04-08T14:09:49.97Z</time></trkpt><trkpt lat="42.3614313" lon="13.3722434"><ele>641.0</ele><time>2026-04-08T14:09:50.969Z</time></trkpt><trkpt lat="42.361272" lon="13.3722416"><ele>641.0</ele><time>2026-04-08T14:09:51.969Z</time></trkpt><trkpt lat="42.361107" lon="13.3722571"><ele>641.5</ele><time>2026-04-08T14:09:52.969Z</time></trkpt><trkpt lat="42.3609487" lon="13.3722875"><ele>642.0</ele><time>2026-04-08T14:09:53.97Z</time></trkpt><trkpt lat="42.3608043" lon="13.3723258"><ele>642.5</ele><time>2026-04-08T14:09:54.969Z</time></trkpt><trkpt lat="42.3606688" lon="13.3723598"><ele>643.0</ele><time>2026-04-08T14:09:55.969Z</time></trkpt><trkpt lat="42.3605367" lon="13.372402"><ele>642.5999999999999</ele><time>2026-04-08T14:09:56.969Z</time></trkpt><trkpt lat="42.3604181" lon="13.3724494"><ele>642.1999999999999</ele><time>2026-04-08T14:09:57.969Z</time></trkpt><trkpt lat="42.3603093" lon="13.3725107"><ele>641.8</ele><time>2026-04-08T14:09:58.97Z</time></trkpt><trkpt lat="42.3602158" lon="13.372567"><ele>641.4</ele><time>2026-04-08T14:09:59.969Z</time></trkpt><trkpt lat="42.3601397" lon="13.3726162"><ele>641.0</ele><time>2026-04-08T14:10:00.969Z</time></trkpt><trkpt lat="42.3600742" lon="13.3726513"><ele>641.0</ele><time>2026-04-08T14:10:01.969Z</time></trkpt><trkpt lat="42.3599587" lon="13.3726698"><ele>641.0</ele><time>2026-04-08T14:10:03.97Z</time></trkpt><trkpt lat="42.3598614" lon="13.3725905"><ele>641.0</ele><time>2026-04-08T14:10:05.97Z</time></trkpt><trkpt lat="42.3598133" lon="13.3725106"><ele>641.0</ele><time>2026-04-08T14:10:06.969Z</time></trkpt><trkpt lat="42.3597748" lon="13.3724216"><ele>641.0</ele><time>2026-04-08T14:10:07.969Z</time></trkpt><trkpt lat="42.359745" lon="13.3723148"><ele>641.0</ele><time>2026-04-08T14:10:08.969Z</time></trkpt><trkpt lat="42.3597249" lon="13.3721899"><ele>641.0</ele><time>2026-04-08T14:10:09.969Z</time></trkpt><trkpt lat="42.359707" lon="13.3720557"><ele>641.0</ele><time>2026-04-08T14:10:10.969Z</time></trkpt><trkpt lat="42.3596859" lon="13.3719208"><ele>641.0</ele><time>2026-04-08T14:10:11.969Z</time></trkpt><trkpt lat="42.3596595" lon="13.3717679"><ele>641.0</ele><time>2026-04-08T14:10:12.969Z</time></trkpt><trkpt lat="42.3596204" lon="13.371582"><ele>640.0</ele><time>2026-04-08T14:10:13.969Z</time></trkpt><trkpt lat="42.3595887" lon="13.3713774"><ele>639.0</ele><time>2026-04-08T14:10:14.969Z</time></trkpt><trkpt lat="42.3595634" lon="13.3711667"><ele>638.0</ele><time>2026-04-08T14:10:15.969Z</time></trkpt><trkpt lat="42.3595333" lon="13.370955"><ele>637.6666666666666</ele><time>2026-04-08T14:10:16.969Z</time></trkpt><trkpt lat="42.3595014" lon="13.3707343"><ele>637.3333333333334</ele><time>2026-04-08T14:10:17.969Z</time></trkpt><trkpt lat="42.3594689" lon="13.3705116"><ele>637.0</ele><time>2026-04-08T14:10:18.969Z</time></trkpt><trkpt lat="42.3594344" lon="13.370299"><ele>635.3333333333334</ele><time>2026-04-08T14:10:19.969Z</time></trkpt><trkpt lat="42.3594058" lon="13.3700837"><ele>633.6666666666666</ele><time>2026-04-08T14:10:20.969Z</time></trkpt><trkpt lat="42.3593767" lon="13.3698678"><ele>632.0</ele><time>2026-04-08T14:10:21.969Z</time></trkpt><trkpt lat="42.3593436" lon="13.3696585"><ele>631.5</ele><time>2026-04-08T14:10:22.97Z</time></trkpt><trkpt lat="42.3593134" lon="13.369447"><ele>631.0</ele><time>2026-04-08T14:10:23.969Z</time></trkpt><trkpt lat="42.3592833" lon="13.3692474"><ele>630.5</ele><time>2026-04-08T14:10:24.969Z</time></trkpt><trkpt lat="42.3592565" lon="13.369071"><ele>630.0</ele><time>2026-04-08T14:10:25.969Z</time></trkpt><trkpt lat="42.3592306" lon="13.3689198"><ele>629.8333333333334</ele><time>2026-04-08T14:10:26.969Z</time></trkpt><trkpt lat="42.3592061" lon="13.3687947"><ele>629.6666666666666</ele><time>2026-04-08T14:10:27.969Z</time></trkpt><trkpt lat="42.3591869" lon="13.3687038"><ele>629.5</ele><time>2026-04-08T14:10:28.969Z</time></trkpt><trkpt lat="42.3591702" lon="13.3685781"><ele>629.3333333333333</ele><time>2026-04-08T14:10:30.97Z</time></trkpt><trkpt lat="42.3591687" lon="13.3684747"><ele>629.1666666666666</ele><time>2026-04-08T14:10:33.969Z</time></trkpt><trkpt lat="42.3591692" lon="13.3683753"><ele>629.0</ele><time>2026-04-08T14:10:37.97Z</time></trkpt><trkpt lat="42.359174" lon="13.3682816"><ele>629.0</ele><time>2026-04-08T14:10:40.969Z</time></trkpt><trkpt lat="42.3592062" lon="13.3681772"><ele>629.0</ele><time>2026-04-08T14:10:42.969Z</time></trkpt><trkpt lat="42.3592398" lon="13.3680573"><ele>629.0</ele><time>2026-04-08T14:10:44.969Z</time></trkpt><trkpt lat="42.359217" lon="13.3679307"><ele>629.0</ele><time>2026-04-08T14:10:46.97Z</time></trkpt><trkpt lat="42.3591505" lon="13.3678519"><ele>629.0</ele><time>2026-04-08T14:10:48.969Z</time></trkpt><trkpt lat="42.3590853" lon="13.3677991"><ele>629.0</ele><time>2026-04-08T14:10:50.969Z</time></trkpt><trkpt lat="42.3590361" lon="13.3677341"><ele>629.0</ele><time>2026-04-08T14:10:52.969Z</time></trkpt><trkpt lat="42.3589776" lon="13.3676219"><ele>629.0</ele><time>2026-04-08T14:10:54.969Z</time></trkpt><trkpt lat="42.3589405" lon="13.367539"><ele>629.0</ele><time>2026-04-08T14:10:55.97Z</time></trkpt><trkpt lat="42.3589091" lon="13.3674438"><ele>629.0</ele><time>2026-04-08T14:10:56.969Z</time></trkpt><trkpt lat="42.3588702" lon="13.3673381"><ele>629.0</ele><time>2026-04-08T14:10:57.969Z</time></trkpt><trkpt lat="42.3588278" lon="13.3672364"><ele>629.0</ele><time>2026-04-08T14:10:58.969Z</time></trkpt><trkpt lat="42.3587852" lon="13.3671338"><ele>628.8333333333333</ele><time>2026-04-08T14:10:59.97Z</time></trkpt><trkpt lat="42.3587439" lon="13.3670346"><ele>628.6666666666666</ele><time>2026-04-08T14:11:00.969Z</time></trkpt><trkpt lat="42.3587018" lon="13.3669341"><ele>628.5</ele><time>2026-04-08T14:11:01.97Z</time></trkpt><trkpt lat="42.3586588" lon="13.366842"><ele>628.3333333333334</ele><time>2026-04-08T14:11:02.969Z</time></trkpt><trkpt lat="42.3586186" lon="13.3667511"><ele>628.1666666666667</ele><time>2026-04-08T14:11:03.97Z</time></trkpt><trkpt lat="42.3585748" lon="13.3666603"><ele>628.0</ele><time>2026-04-08T14:11:04.969Z</time></trkpt><trkpt lat="42.3585298" lon="13.3665708"><ele>628.0</ele><time>2026-04-08T14:11:05.97Z</time></trkpt><trkpt lat="42.35849" lon="13.3664761"><ele>628.0</ele><time>2026-04-08T14:11:06.97Z</time></trkpt><trkpt lat="42.3584506" lon="13.3663812"><ele>628.0</ele><time>2026-04-08T14:11:07.969Z</time></trkpt><trkpt lat="42.3584132" lon="13.3662879"><ele>628.0</ele><time>2026-04-08T14:11:08.969Z</time></trkpt><trkpt lat="42.3583826" lon="13.3661877"><ele>628.0</ele><time>2026-04-08T14:11:09.969Z</time></trkpt><trkpt lat="42.3583517" lon="13.3660795"><ele>628.0</ele><time>2026-04-08T14:11:10.969Z</time></trkpt><trkpt lat="42.3583221" lon="13.3659637"><ele>627.8571428571428</ele><time>2026-04-08T14:11:11.969Z</time></trkpt><trkpt lat="42.3582955" lon="13.3658527"><ele>627.7142857142857</ele><time>2026-04-08T14:11:12.969Z</time></trkpt><trkpt lat="42.3582771" lon="13.3657528"><ele>627.5714285714286</ele><time>2026-04-08T14:11:13.969Z</time></trkpt><trkpt lat="42.3582625" lon="13.3656601"><ele>627.4285714285713</ele><time>2026-04-08T14:11:14.969Z</time></trkpt><trkpt lat="42.3582535" lon="13.3655657"><ele>627.2857142857142</ele><time>2026-04-08T14:11:15.969Z</time></trkpt><trkpt lat="42.3582499" lon="13.3654731"><ele>627.1428571428571</ele><time>2026-04-08T14:11:16.969Z</time></trkpt><trkpt lat="42.3582461" lon="13.3653725"><ele>627.0</ele><time>2026-04-08T14:11:17.969Z</time></trkpt><trkpt lat="42.3582431" lon="13.3652655"><ele>627.2857142857143</ele><time>2026-04-08T14:11:18.969Z</time></trkpt><trkpt lat="42.3582427" lon="13.3651551"><ele>627.5714285714286</ele><time>2026-04-08T14:11:19.969Z</time></trkpt><trkpt lat="42.3582476" lon="13.365053"><ele>627.8571428571429</ele><time>2026-04-08T14:11:20.97Z</time></trkpt><trkpt lat="42.358257" lon="13.3649554"><ele>628.1428571428571</ele><time>2026-04-08T14:11:21.97Z</time></trkpt><trkpt lat="42.3582667" lon="13.3648554"><ele>628.4285714285714</ele><time>2026-04-08T14:11:22.969Z</time></trkpt><trkpt lat="42.3582815" lon="13.3647555"><ele>628.7142857142857</ele><time>2026-04-08T14:11:23.969Z</time></trkpt><trkpt lat="42.3582951" lon="13.364663"><ele>629.0</ele><time>2026-04-08T14:11:24.97Z</time></trkpt><trkpt lat="42.3583089" lon="13.3645651"><ele>629.2</ele><time>2026-04-08T14:11:25.969Z</time></trkpt><trkpt lat="42.358325" lon="13.3644359"><ele>629.4</ele><time>2026-04-08T14:11:26.969Z</time></trkpt><trkpt lat="42.3583463" lon="13.3642969"><ele>629.6</ele><time>2026-04-08T14:11:27.969Z</time></trkpt><trkpt lat="42.3583867" lon="13.3641339"><ele>629.8</ele><time>2026-04-08T14:11:28.969Z</time></trkpt><trkpt lat="42.3584264" lon="13.3639904"><ele>630.0</ele><time>2026-04-08T14:11:29.969Z</time></trkpt><trkpt lat="42.3584585" lon="13.3638594"><ele>629.6</ele><time>2026-04-08T14:11:30.969Z</time></trkpt><trkpt lat="42.3584888" lon="13.3637227"><ele>629.2</ele><time>2026-04-08T14:11:31.969Z</time></trkpt><trkpt lat="42.3585246" lon="13.3635891"><ele>628.8</ele><time>2026-04-08T14:11:32.969Z</time></trkpt><trkpt lat="42.3585619" lon="13.3634694"><ele>628.4</ele><time>2026-04-08T14:11:33.969Z</time></trkpt><trkpt lat="42.3585937" lon="13.3633539"><ele>628.0</ele><time>2026-04-08T14:11:34.969Z</time></trkpt><trkpt lat="42.3586236" lon="13.3632502"><ele>628.0</ele><time>2026-04-08T14:11:35.969Z</time></trkpt><trkpt lat="42.3586509" lon="13.3631496"><ele>628.0</ele><time>2026-04-08T14:11:36.97Z</time></trkpt><trkpt lat="42.3586799" lon="13.3630537"><ele>628.0</ele><time>2026-04-08T14:11:37.969Z</time></trkpt><trkpt lat="42.3587036" lon="13.3629743"><ele>628.0</ele><time>2026-04-08T14:11:38.969Z</time></trkpt><trkpt lat="42.3587502" lon="13.3628084"><ele>628.0</ele><time>2026-04-08T14:11:40.969Z</time></trkpt><trkpt lat="42.3587869" lon="13.3626867"><ele>628.0</ele><time>2026-04-08T14:11:41.969Z</time></trkpt><trkpt lat="42.3588402" lon="13.3625461"><ele>629.5</ele><time>2026-04-08T14:11:42.969Z</time></trkpt><trkpt lat="42.3588925" lon="13.3623921"><ele>631.0</ele><time>2026-04-08T14:11:43.969Z</time></trkpt><trkpt lat="42.3589403" lon="13.3622329"><ele>632.5</ele><time>2026-04-08T14:11:44.969Z</time></trkpt><trkpt lat="42.3589884" lon="13.3620634"><ele>634.0</ele><time>2026-04-08T14:11:45.969Z</time></trkpt><trkpt lat="42.3590361" lon="13.3618864"><ele>634.0</ele><time>2026-04-08T14:11:46.969Z</time></trkpt><trkpt lat="42.3590913" lon="13.3616869"><ele>634.0</ele><time>2026-04-08T14:11:47.969Z</time></trkpt><trkpt lat="42.3591471" lon="13.3614966"><ele>634.0</ele><time>2026-04-08T14:11:48.969Z</time></trkpt><trkpt lat="42.3592031" lon="13.361302"><ele>632.0</ele><time>2026-04-08T14:11:49.969Z</time></trkpt><trkpt lat="42.3592597" lon="13.3611017"><ele>630.0</ele><time>2026-04-08T14:11:50.969Z</time></trkpt><trkpt lat="42.3593209" lon="13.3609012"><ele>628.0</ele><time>2026-04-08T14:11:51.969Z</time></trkpt><trkpt lat="42.359382" lon="13.3607037"><ele>627.6666666666667</ele><time>2026-04-08T14:11:52.97Z</time></trkpt><trkpt lat="42.359444" lon="13.3604846"><ele>627.3333333333334</ele><time>2026-04-08T14:11:53.969Z</time></trkpt><trkpt lat="42.3595112" lon="13.3602493"><ele>627.0</ele><time>2026-04-08T14:11:54.969Z</time></trkpt><trkpt lat="42.3595831" lon="13.3600231"><ele>627.0</ele><time>2026-04-08T14:11:55.97Z</time></trkpt><trkpt lat="42.3596551" lon="13.3597936"><ele>627.0</ele><time>2026-04-08T14:11:56.969Z</time></trkpt><trkpt lat="42.3597208" lon="13.3595655"><ele>627.0</ele><time>2026-04-08T14:11:57.969Z</time></trkpt><trkpt lat="42.359787" lon="13.3593194"><ele>626.6666666666666</ele><time>2026-04-08T14:11:58.969Z</time></trkpt><trkpt lat="42.3598582" lon="13.3590485"><ele>626.3333333333333</ele><time>2026-04-08T14:11:59.969Z</time></trkpt><trkpt lat="42.3599325" lon="13.3587731"><ele>626.0</ele><time>2026-04-08T14:12:00.969Z</time></trkpt><trkpt lat="42.3600011" lon="13.3584996"><ele>626.0</ele><time>2026-04-08T14:12:01.969Z</time></trkpt><trkpt lat="42.3600598" lon="13.358224"><ele>626.0</ele><time>2026-04-08T14:12:02.97Z</time></trkpt><trkpt lat="42.3600979" lon="13.3579435"><ele>626.0</ele><time>2026-04-08T14:12:03.969Z</time></trkpt><trkpt lat="42.3601204" lon="13.3576619"><ele>626.0</ele><time>2026-04-08T14:12:04.969Z</time></trkpt><trkpt lat="42.3601219" lon="13.3573783"><ele>626.0</ele><time>2026-04-08T14:12:05.969Z</time></trkpt><trkpt lat="42.3601016" lon="13.3571011"><ele>626.0</ele><time>2026-04-08T14:12:06.969Z</time></trkpt><trkpt lat="42.3600652" lon="13.3568273"><ele>626.0</ele><time>2026-04-08T14:12:07.969Z</time></trkpt><trkpt lat="42.3600071" lon="13.3565619"><ele>626.0</ele><time>2026-04-08T14:12:08.969Z</time></trkpt><trkpt lat="42.3599307" lon="13.3563062"><ele>626.0</ele><time>2026-04-08T14:12:09.969Z</time></trkpt><trkpt lat="42.3598495" lon="13.3560589"><ele>626.0</ele><time>2026-04-08T14:12:10.969Z</time></trkpt><trkpt lat="42.3597714" lon="13.3558133"><ele>626.0</ele><time>2026-04-08T14:12:11.969Z</time></trkpt><trkpt lat="42.3596984" lon="13.355566"><ele>626.0</ele><time>2026-04-08T14:12:12.969Z</time></trkpt><trkpt lat="42.3596284" lon="13.3553142"><ele>626.6666666666666</ele><time>2026-04-08T14:12:13.969Z</time></trkpt><trkpt lat="42.3595634" lon="13.3550563"><ele>627.3333333333334</ele><time>2026-04-08T14:12:14.969Z</time></trkpt><trkpt lat="42.3594987" lon="13.3548162"><ele>628.0</ele><time>2026-04-08T14:12:15.969Z</time></trkpt><trkpt lat="42.3594382" lon="13.3545891"><ele>628.0</ele><time>2026-04-08T14:12:16.969Z</time></trkpt><trkpt lat="42.3593822" lon="13.3543771"><ele>628.0</ele><time>2026-04-08T14:12:17.969Z</time></trkpt><trkpt lat="42.3593239" lon="13.3541822"><ele>628.0</ele><time>2026-04-08T14:12:18.969Z</time></trkpt><trkpt lat="42.3592737" lon="13.3539965"><ele>628.5</ele><time>2026-04-08T14:12:19.969Z</time></trkpt><trkpt lat="42.3592261" lon="13.3538285"><ele>629.0</ele><time>2026-04-08T14:12:20.969Z</time></trkpt><trkpt lat="42.3591841" lon="13.3536763"><ele>629.5</ele><time>2026-04-08T14:12:21.969Z</time></trkpt><trkpt lat="42.3591445" lon="13.3535389"><ele>630.0</ele><time>2026-04-08T14:12:22.969Z</time></trkpt><trkpt lat="42.3591104" lon="13.3534134"><ele>630.0</ele><time>2026-04-08T14:12:23.969Z</time></trkpt><trkpt lat="42.3590805" lon="13.3533"><ele>630.0</ele><time>2026-04-08T14:12:24.969Z</time></trkpt><trkpt lat="42.3590564" lon="13.3532019"><ele>630.0</ele><time>2026-04-08T14:12:25.97Z</time></trkpt><trkpt lat="42.3590392" lon="13.3531132"><ele>630.0</ele><time>2026-04-08T14:12:26.969Z</time></trkpt><trkpt lat="42.3590267" lon="13.3529632"><ele>630.0</ele><time>2026-04-08T14:12:28.969Z</time></trkpt><trkpt lat="42.3590558" lon="13.3528036"><ele>630.2</ele><time>2026-04-08T14:12:30.97Z</time></trkpt><trkpt lat="42.3590878" lon="13.3527294"><ele>630.4</ele><time>2026-04-08T14:12:31.969Z</time></trkpt><trkpt lat="42.3591382" lon="13.3526056"><ele>630.6</ele><time>2026-04-08T14:12:33.97Z</time></trkpt><trkpt lat="42.3591617" lon="13.3524626"><ele>630.8</ele><time>2026-04-08T14:12:35.97Z</time></trkpt><trkpt lat="42.3591372" lon="13.3523052"><ele>631.0</ele><time>2026-04-08T14:12:37.97Z</time></trkpt><trkpt lat="42.3591007" lon="13.3522303"><ele>630.8571428571429</ele><time>2026-04-08T14:12:38.969Z</time></trkpt><trkpt lat="42.3590486" lon="13.3521715"><ele>630.7142857142857</ele><time>2026-04-08T14:12:39.969Z</time></trkpt><trkpt lat="42.3589907" lon="13.352132"><ele>630.5714285714286</ele><time>2026-04-08T14:12:40.969Z</time></trkpt><trkpt lat="42.3589225" lon="13.3520992"><ele>630.4285714285714</ele><time>2026-04-08T14:12:41.969Z</time></trkpt><trkpt lat="42.3588609" lon="13.3520609"><ele>630.2857142857142</ele><time>2026-04-08T14:12:42.97Z</time></trkpt><trkpt lat="42.3587994" lon="13.3520081"><ele>630.1428571428571</ele><time>2026-04-08T14:12:43.969Z</time></trkpt><trkpt lat="42.3587396" lon="13.3519333"><ele>630.0</ele><time>2026-04-08T14:12:44.969Z</time></trkpt><trkpt lat="42.3586904" lon="13.3518512"><ele>629.8333333333334</ele><time>2026-04-08T14:12:45.969Z</time></trkpt><trkpt lat="42.3586469" lon="13.3517698"><ele>629.6666666666666</ele><time>2026-04-08T14:12:46.969Z</time></trkpt><trkpt lat="42.3586022" lon="13.3516899"><ele>629.5</ele><time>2026-04-08T14:12:47.97Z</time></trkpt><trkpt lat="42.358555" lon="13.3516019"><ele>629.3333333333333</ele><time>2026-04-08T14:12:48.97Z</time></trkpt><trkpt lat="42.358512" lon="13.3515141"><ele>629.1666666666666</ele><time>2026-04-08T14:12:49.969Z</time></trkpt><trkpt lat="42.3584643" lon="13.3514207"><ele>629.0</ele><time>2026-04-08T14:12:50.969Z</time></trkpt><trkpt lat="42.35841" lon="13.3513274"><ele>629.0</ele><time>2026-04-08T14:12:51.969Z</time></trkpt><trkpt lat="42.358354" lon="13.35123"><ele>629.0</ele><time>2026-04-08T14:12:52.969Z</time></trkpt><trkpt lat="42.3583049" lon="13.351141"><ele>629.0</ele><time>2026-04-08T14:12:53.969Z</time></trkpt><trkpt lat="42.3582537" lon="13.3510498"><ele>629.0</ele><time>2026-04-08T14:12:54.969Z</time></trkpt><trkpt lat="42.3582004" lon="13.3509472"><ele>629.0</ele><time>2026-04-08T14:12:55.969Z</time></trkpt><trkpt lat="42.3581303" lon="13.3508265"><ele>629.0</ele><time>2026-04-08T14:12:56.969Z</time></trkpt><trkpt lat="42.3580539" lon="13.3507084"><ele>629.0</ele><time>2026-04-08T14:12:57.969Z</time></trkpt><trkpt lat="42.3579754" lon="13.3505906"><ele>629.0</ele><time>2026-04-08T14:12:58.969Z</time></trkpt><trkpt lat="42.3578942" lon="13.3504804"><ele>629.0</ele><time>2026-04-08T14:12:59.969Z</time></trkpt><trkpt lat="42.3578141" lon="13.3503771"><ele>629.8333333333333</ele><time>2026-04-08T14:13:00.969Z</time></trkpt><trkpt lat="42.3577434" lon="13.3502825"><ele>630.6666666666666</ele><time>2026-04-08T14:13:01.97Z</time></trkpt><trkpt lat="42.3576884" lon="13.3501992"><ele>631.5</ele><time>2026-04-08T14:13:02.969Z</time></trkpt><trkpt lat="42.3576442" lon="13.3501288"><ele>632.3333333333334</ele><time>2026-04-08T14:13:03.969Z</time></trkpt><trkpt lat="42.3576064" lon="13.3500527"><ele>633.1666666666667</ele><time>2026-04-08T14:13:04.97Z</time></trkpt><trkpt lat="42.3575838" lon="13.3499429"><ele>634.0</ele><time>2026-04-08T14:13:05.969Z</time></trkpt><trkpt lat="42.3575722" lon="13.3498079"><ele>634.5</ele><time>2026-04-08T14:13:06.969Z</time></trkpt><trkpt lat="42.3575445" lon="13.3496837"><ele>635.0</ele><time>2026-04-08T14:13:07.969Z</time></trkpt><trkpt lat="42.3575009" lon="13.3495823"><ele>635.5</ele><time>2026-04-08T14:13:08.969Z</time></trkpt><trkpt lat="42.3574426" lon="13.3494957"><ele>636.0</ele><time>2026-04-08T14:13:09.969Z</time></trkpt><trkpt lat="42.3573742" lon="13.3494412"><ele>636.5</ele><time>2026-04-08T14:13:10.969Z</time></trkpt><trkpt lat="42.3572966" lon="13.3493969"><ele>637.0</ele><time>2026-04-08T14:13:11.97Z</time></trkpt><trkpt lat="42.3572073" lon="13.3493242"><ele>636.25</ele><time>2026-04-08T14:13:12.969Z</time></trkpt><trkpt lat="42.3571288" lon="13.3492153"><ele>635.5</ele><time>2026-04-08T14:13:13.969Z</time></trkpt><trkpt lat="42.3570627" lon="13.3490765"><ele>634.75</ele><time>2026-04-08T14:13:14.969Z</time></trkpt><trkpt lat="42.3569994" lon="13.3489142"><ele>634.0</ele><time>2026-04-08T14:13:15.969Z</time></trkpt><trkpt lat="42.356936" lon="13.3487207"><ele>634.0</ele><time>2026-04-08T14:13:16.969Z</time></trkpt><trkpt lat="42.3568761" lon="13.3484977"><ele>634.0</ele><time>2026-04-08T14:13:17.969Z</time></trkpt><trkpt lat="42.3568128" lon="13.3482462"><ele>634.0</ele><time>2026-04-08T14:13:18.97Z</time></trkpt><trkpt lat="42.3567515" lon="13.3479672"><ele>635.0</ele><time>2026-04-08T14:13:19.969Z</time></trkpt><trkpt lat="42.3566835" lon="13.3476801"><ele>636.0</ele><time>2026-04-08T14:13:20.969Z</time></trkpt><trkpt lat="42.3566122" lon="13.3473948"><ele>637.0</ele><time>2026-04-08T14:13:21.969Z</time></trkpt><trkpt lat="42.3565389" lon="13.3471098"><ele>638.0</ele><time>2026-04-08T14:13:22.969Z</time></trkpt><trkpt lat="42.3564688" lon="13.3468267"><ele>639.0</ele><time>2026-04-08T14:13:23.969Z</time></trkpt><trkpt lat="42.3564076" lon="13.3465468"><ele>640.0</ele><time>2026-04-08T14:13:24.969Z</time></trkpt><trkpt lat="42.3563465" lon="13.3462746"><ele>637.3333333333334</ele><time>2026-04-08T14:13:25.969Z</time></trkpt><trkpt lat="42.3562838" lon="13.3460095"><ele>634.6666666666666</ele><time>2026-04-08T14:13:26.969Z</time></trkpt><trkpt lat="42.3562217" lon="13.3457458"><ele>632.0</ele><time>2026-04-08T14:13:27.969Z</time></trkpt><trkpt lat="42.3561602" lon="13.3454819"><ele>632.0</ele><time>2026-04-08T14:13:28.969Z</time></trkpt><trkpt lat="42.3560978" lon="13.3452235"><ele>632.0</ele><time>2026-04-08T14:13:29.97Z</time></trkpt><trkpt lat="42.3560355" lon="13.3449643"><ele>632.0</ele><time>2026-04-08T14:13:30.969Z</time></trkpt><trkpt lat="42.3559763" lon="13.3447046"><ele>633.0</ele><time>2026-04-08T14:13:31.969Z</time></trkpt><trkpt lat="42.3559208" lon="13.3444447"><ele>634.0</ele><time>2026-04-08T14:13:32.969Z</time></trkpt><trkpt lat="42.3558662" lon="13.344183"><ele>635.0</ele><time>2026-04-08T14:13:33.969Z</time></trkpt><trkpt lat="42.3558237" lon="13.3439175"><ele>636.0</ele><time>2026-04-08T14:13:34.969Z</time></trkpt><trkpt lat="42.3558039" lon="13.3436484"><ele>637.0</ele><time>2026-04-08T14:13:35.969Z</time></trkpt><trkpt lat="42.3558071" lon="13.3433829"><ele>638.0</ele><time>2026-04-08T14:13:36.969Z</time></trkpt><trkpt lat="42.3558384" lon="13.343111"><ele>637.6666666666666</ele><time>2026-04-08T14:13:37.969Z</time></trkpt><trkpt lat="42.3558873" lon="13.342839"><ele>637.3333333333334</ele><time>2026-04-08T14:13:38.969Z</time></trkpt><trkpt lat="42.3559386" lon="13.3425598"><ele>637.0</ele><time>2026-04-08T14:13:39.97Z</time></trkpt><trkpt lat="42.3559916" lon="13.3422801"><ele>637.6666666666667</ele><time>2026-04-08T14:13:40.969Z</time></trkpt><trkpt lat="42.3560445" lon="13.3420054"><ele>638.3333333333334</ele><time>2026-04-08T14:13:41.969Z</time></trkpt><trkpt lat="42.3560974" lon="13.3417247"><ele>639.0</ele><time>2026-04-08T14:13:42.969Z</time></trkpt><trkpt lat="42.3561496" lon="13.3414451"><ele>639.0</ele><time>2026-04-08T14:13:43.97Z</time></trkpt><trkpt lat="42.3562025" lon="13.3411792"><ele>639.0</ele><time>2026-04-08T14:13:44.97Z</time></trkpt><trkpt lat="42.3562543" lon="13.3409111"><ele>639.0</ele><time>2026-04-08T14:13:45.969Z</time></trkpt><trkpt lat="42.3563046" lon="13.3406506"><ele>638.6666666666666</ele><time>2026-04-08T14:13:46.97Z</time></trkpt><trkpt lat="42.3563525" lon="13.3403993"><ele>638.3333333333333</ele><time>2026-04-08T14:13:47.97Z</time></trkpt><trkpt lat="42.3563996" lon="13.3401478"><ele>638.0</ele><time>2026-04-08T14:13:48.97Z</time></trkpt><trkpt lat="42.3564485" lon="13.3398959"><ele>639.6666666666666</ele><time>2026-04-08T14:13:49.969Z</time></trkpt><trkpt lat="42.3564976" lon="13.339646"><ele>641.3333333333334</ele><time>2026-04-08T14:13:50.969Z</time></trkpt><trkpt lat="42.3565563" lon="13.3393992"><ele>643.0</ele><time>2026-04-08T14:13:51.97Z</time></trkpt><trkpt lat="42.3566174" lon="13.3391561"><ele>643.0</ele><time>2026-04-08T14:13:52.969Z</time></trkpt><trkpt lat="42.3566774" lon="13.3389141"><ele>643.0</ele><time>2026-04-08T14:13:53.97Z</time></trkpt><trkpt lat="42.3567437" lon="13.3386673"><ele>643.0</ele><time>2026-04-08T14:13:54.97Z</time></trkpt><trkpt lat="42.3568077" lon="13.3384078"><ele>643.3333333333334</ele><time>2026-04-08T14:13:55.969Z</time></trkpt><trkpt lat="42.3568659" lon="13.3381409"><ele>643.6666666666666</ele><time>2026-04-08T14:13:56.97Z</time></trkpt><trkpt lat="42.356925" lon="13.337877"><ele>644.0</ele><time>2026-04-08T14:13:57.969Z</time></trkpt><trkpt lat="42.3569855" lon="13.3376163"><ele>643.3333333333333</ele><time>2026-04-08T14:13:58.969Z</time></trkpt><trkpt lat="42.3570486" lon="13.3373562"><ele>642.6666666666666</ele><time>2026-04-08T14:13:59.969Z</time></trkpt><trkpt lat="42.3571171" lon="13.3370999"><ele>642.0</ele><time>2026-04-08T14:14:00.97Z</time></trkpt><trkpt lat="42.3571908" lon="13.336845"><ele>643.3333333333334</ele><time>2026-04-08T14:14:01.969Z</time></trkpt><trkpt lat="42.3572689" lon="13.3365948"><ele>644.6666666666667</ele><time>2026-04-08T14:14:02.97Z</time></trkpt><trkpt lat="42.3573551" lon="13.336346"><ele>646.0</ele><time>2026-04-08T14:14:03.969Z</time></trkpt><trkpt lat="42.357454" lon="13.3361067"><ele>646.0</ele><time>2026-04-08T14:14:04.97Z</time></trkpt><trkpt lat="42.3575673" lon="13.335876"><ele>646.0</ele><time>2026-04-08T14:14:05.969Z</time></trkpt><trkpt lat="42.3576916" lon="13.3356524"><ele>646.0</ele><time>2026-04-08T14:14:06.97Z</time></trkpt><trkpt lat="42.357828" lon="13.3354374"><ele>646.3333333333334</ele><time>2026-04-08T14:14:07.969Z</time></trkpt><trkpt lat="42.3579744" lon="13.3352405"><ele>646.6666666666666</ele><time>2026-04-08T14:14:08.969Z</time></trkpt><trkpt lat="42.3581389" lon="13.3350707"><ele>647.0</ele><time>2026-04-08T14:14:09.969Z</time></trkpt><trkpt lat="42.3583176" lon="13.3349336"><ele>647.0</ele><time>2026-04-08T14:14:10.969Z</time></trkpt><trkpt lat="42.358505" lon="13.3348249"><ele>647.0</ele><time>2026-04-08T14:14:11.969Z</time></trkpt><trkpt lat="42.3587015" lon="13.3347273"><ele>647.0</ele><time>2026-04-08T14:14:12.969Z</time></trkpt><trkpt lat="42.3589041" lon="13.3346472"><ele>646.3333333333333</ele><time>2026-04-08T14:14:13.969Z</time></trkpt><trkpt lat="42.3591097" lon="13.3345659"><ele>645.6666666666666</ele><time>2026-04-08T14:14:14.969Z</time></trkpt><trkpt lat="42.3593189" lon="13.3344928"><ele>645.0</ele><time>2026-04-08T14:14:15.97Z</time></trkpt><trkpt lat="42.3595263" lon="13.3344185"><ele>646.0</ele><time>2026-04-08T14:14:16.969Z</time></trkpt><trkpt lat="42.3597259" lon="13.3343253"><ele>647.0</ele><time>2026-04-08T14:14:17.97Z</time></trkpt><trkpt lat="42.3599136" lon="13.334208"><ele>648.0</ele><time>2026-04-08T14:14:18.969Z</time></trkpt><trkpt lat="42.360094" lon="13.334067"><ele>648.0</ele><time>2026-04-08T14:14:19.969Z</time></trkpt><trkpt lat="42.3602624" lon="13.3339073"><ele>648.0</ele><time>2026-04-08T14:14:20.969Z</time></trkpt><trkpt lat="42.3604205" lon="13.333738"><ele>648.0</ele><time>2026-04-08T14:14:21.97Z</time></trkpt><trkpt lat="42.3605734" lon="13.3335567"><ele>651.3333333333334</ele><time>2026-04-08T14:14:22.969Z</time></trkpt><trkpt lat="42.3606875" lon="13.3333402"><ele>654.6666666666667</ele><time>2026-04-08T14:14:23.969Z</time></trkpt><trkpt lat="42.3607767" lon="13.3331082"><ele>658.0</ele><time>2026-04-08T14:14:24.969Z</time></trkpt><trkpt lat="42.3608329" lon="13.3328586"><ele>658.0</ele><time>2026-04-08T14:14:25.969Z</time></trkpt><trkpt lat="42.3608643" lon="13.3325915"><ele>658.0</ele><time>2026-04-08T14:14:26.97Z</time></trkpt><trkpt lat="42.3608807" lon="13.3323176"><ele>658.0</ele><time>2026-04-08T14:14:27.969Z</time></trkpt><trkpt lat="42.3608864" lon="13.3320439"><ele>657.6666666666667</ele><time>2026-04-08T14:14:28.969Z</time></trkpt><trkpt lat="42.3608679" lon="13.331762"><ele>657.3333333333334</ele><time>2026-04-08T14:14:29.97Z</time></trkpt><trkpt lat="42.3608205" lon="13.3314887"><ele>657.0</ele><time>2026-04-08T14:14:30.97Z</time></trkpt><trkpt lat="42.3607475" lon="13.331231"><ele>655.0</ele><time>2026-04-08T14:14:31.969Z</time></trkpt><trkpt lat="42.3606611" lon="13.3309883"><ele>653.0</ele><time>2026-04-08T14:14:32.97Z</time></trkpt><trkpt lat="42.3605813" lon="13.3307494"><ele>651.0</ele><time>2026-04-08T14:14:33.969Z</time></trkpt><trkpt lat="42.3605077" lon="13.3305008"><ele>651.0</ele><time>2026-04-08T14:14:34.969Z</time></trkpt><trkpt lat="42.3604445" lon="13.3302515"><ele>651.0</ele><time>2026-04-08T14:14:35.969Z</time></trkpt><trkpt lat="42.3603924" lon="13.3299885"><ele>651.0</ele><time>2026-04-08T14:14:36.969Z</time></trkpt><trkpt lat="42.3603498" lon="13.3297259"><ele>652.3333333333334</ele><time>2026-04-08T14:14:37.969Z</time></trkpt><trkpt lat="42.3603077" lon="13.3294594"><ele>653.6666666666667</ele><time>2026-04-08T14:14:38.969Z</time></trkpt><trkpt lat="42.3602621" lon="13.3292015"><ele>655.0</ele><time>2026-04-08T14:14:39.969Z</time></trkpt><trkpt lat="42.3602053" lon="13.3289536"><ele>657.0</ele><time>2026-04-08T14:14:40.969Z</time></trkpt><trkpt lat="42.3601502" lon="13.3287195"><ele>659.0</ele><time>2026-04-08T14:14:41.97Z</time></trkpt><trkpt lat="42.3601072" lon="13.3284931"><ele>661.0</ele><time>2026-04-08T14:14:42.969Z</time></trkpt><trkpt lat="42.3600754" lon="13.3282637"><ele>660.6666666666667</ele><time>2026-04-08T14:14:43.969Z</time></trkpt><trkpt lat="42.3600619" lon="13.3280355"><ele>660.3333333333334</ele><time>2026-04-08T14:14:44.969Z</time></trkpt><trkpt lat="42.3600773" lon="13.3277963"><ele>660.0</ele><time>2026-04-08T14:14:45.969Z</time></trkpt><trkpt lat="42.360108" lon="13.3275531"><ele>660.0</ele><time>2026-04-08T14:14:46.97Z</time></trkpt><trkpt lat="42.3601457" lon="13.3273156"><ele>660.0</ele><time>2026-04-08T14:14:47.969Z</time></trkpt><trkpt lat="42.3601941" lon="13.3270891"><ele>660.0</ele><time>2026-04-08T14:14:48.969Z</time></trkpt><trkpt lat="42.3602568" lon="13.3268801"><ele>661.3333333333334</ele><time>2026-04-08T14:14:49.97Z</time></trkpt><trkpt lat="42.3603467" lon="13.3266985"><ele>662.6666666666667</ele><time>2026-04-08T14:14:50.969Z</time></trkpt><trkpt lat="42.3604572" lon="13.3265373"><ele>664.0</ele><time>2026-04-08T14:14:51.97Z</time></trkpt><trkpt lat="42.3605845" lon="13.3264017"><ele>663.0</ele><time>2026-04-08T14:14:52.969Z</time></trkpt><trkpt lat="42.360731" lon="13.3263013"><ele>662.0</ele><time>2026-04-08T14:14:53.969Z</time></trkpt><trkpt lat="42.3608969" lon="13.3262437"><ele>661.0</ele><time>2026-04-08T14:14:54.97Z</time></trkpt><trkpt lat="42.3610773" lon="13.3262209"><ele>661.0</ele><time>2026-04-08T14:14:55.969Z</time></trkpt><trkpt lat="42.3612813" lon="13.3262154"><ele>661.0</ele><time>2026-04-08T14:14:56.97Z</time></trkpt><trkpt lat="42.3614926" lon="13.3262118"><ele>661.0</ele><time>2026-04-08T14:14:57.969Z</time></trkpt><trkpt lat="42.3617121" lon="13.3261786"><ele>660.3333333333334</ele><time>2026-04-08T14:14:58.969Z</time></trkpt><trkpt lat="42.3619262" lon="13.3260927"><ele>659.6666666666666</ele><time>2026-04-08T14:14:59.969Z</time></trkpt><trkpt lat="42.3621272" lon="13.325979"><ele>659.0</ele><time>2026-04-08T14:15:00.969Z</time></trkpt><trkpt lat="42.3623256" lon="13.3258433"><ele>658.0</ele><time>2026-04-08T14:15:01.97Z</time></trkpt><trkpt lat="42.3625166" lon="13.3256835"><ele>657.0</ele><time>2026-04-08T14:15:02.969Z</time></trkpt><trkpt lat="42.3627076" lon="13.3255065"><ele>657.0</ele><time>2026-04-08T14:15:03.969Z</time></trkpt><trkpt lat="42.3629091" lon="13.3253137"><ele>657.0</ele><time>2026-04-08T14:15:04.97Z</time></trkpt><trkpt lat="42.3630898" lon="13.325089"><ele>657.5</ele><time>2026-04-08T14:15:05.97Z</time></trkpt><trkpt lat="42.3632487" lon="13.3248348"><ele>658.0</ele><time>2026-04-08T14:15:06.97Z</time></trkpt><trkpt lat="42.3633967" lon="13.3245704"><ele>658.0</ele><time>2026-04-08T14:15:07.97Z</time></trkpt><trkpt lat="42.3635441" lon="13.324301"><ele>658.0</ele><time>2026-04-08T14:15:08.969Z</time></trkpt><trkpt lat="42.3636912" lon="13.3240295"><ele>659.0</ele><time>2026-04-08T14:15:09.969Z</time></trkpt><trkpt lat="42.3638373" lon="13.3237637"><ele>660.0</ele><time>2026-04-08T14:15:10.969Z</time></trkpt><trkpt lat="42.3639847" lon="13.3235095"><ele>660.0</ele><time>2026-04-08T14:15:11.97Z</time></trkpt><trkpt lat="42.3641345" lon="13.3232781"><ele>660.0</ele><time>2026-04-08T14:15:12.969Z</time></trkpt><trkpt lat="42.3642942" lon="13.3230599"><ele>658.0</ele><time>2026-04-08T14:15:13.969Z</time></trkpt><trkpt lat="42.3644687" lon="13.3228597"><ele>656.0</ele><time>2026-04-08T14:15:14.969Z</time></trkpt><trkpt lat="42.3646462" lon="13.3226661"><ele>656.0</ele><time>2026-04-08T14:15:15.97Z</time></trkpt><trkpt lat="42.3648177" lon="13.3224771"><ele>656.0</ele><time>2026-04-08T14:15:16.969Z</time></trkpt><trkpt lat="42.3649743" lon="13.3222793"><ele>656.0</ele><time>2026-04-08T14:15:17.97Z</time></trkpt><trkpt lat="42.365111" lon="13.3220582"><ele>656.0</ele><time>2026-04-08T14:15:18.969Z</time></trkpt><trkpt lat="42.365216" lon="13.321821"><ele>656.0</ele><time>2026-04-08T14:15:19.969Z</time></trkpt><trkpt lat="42.3653033" lon="13.3215736"><ele>656.0</ele><time>2026-04-08T14:15:20.969Z</time></trkpt><trkpt lat="42.3653618" lon="13.3213102"><ele>655.6666666666666</ele><time>2026-04-08T14:15:21.969Z</time></trkpt><trkpt lat="42.3653926" lon="13.3210338"><ele>655.3333333333334</ele><time>2026-04-08T14:15:22.969Z</time></trkpt><trkpt lat="42.3653946" lon="13.3207568"><ele>655.0</ele><time>2026-04-08T14:15:23.969Z</time></trkpt><trkpt lat="42.3653716" lon="13.3204633"><ele>655.0</ele><time>2026-04-08T14:15:24.969Z</time></trkpt><trkpt lat="42.365328" lon="13.3201715"><ele>655.0</ele><time>2026-04-08T14:15:25.969Z</time></trkpt><trkpt lat="42.3652768" lon="13.319873"><ele>655.0</ele><time>2026-04-08T14:15:26.97Z</time></trkpt><trkpt lat="42.3652224" lon="13.3195776"><ele>655.0</ele><time>2026-04-08T14:15:27.969Z</time></trkpt><trkpt lat="42.3651683" lon="13.3192753"><ele>655.0</ele><time>2026-04-08T14:15:28.969Z</time></trkpt><trkpt lat="42.3651166" lon="13.3189774"><ele>654.3333333333334</ele><time>2026-04-08T14:15:29.969Z</time></trkpt><trkpt lat="42.3650602" lon="13.3186825"><ele>653.6666666666666</ele><time>2026-04-08T14:15:30.969Z</time></trkpt><trkpt lat="42.3650084" lon="13.3183878"><ele>653.0</ele><time>2026-04-08T14:15:31.97Z</time></trkpt><trkpt lat="42.3649544" lon="13.3180945"><ele>653.3333333333333</ele><time>2026-04-08T14:15:32.969Z</time></trkpt><trkpt lat="42.3649046" lon="13.3178067"><ele>653.6666666666666</ele><time>2026-04-08T14:15:33.969Z</time></trkpt><trkpt lat="42.3648524" lon="13.3175151"><ele>654.0</ele><time>2026-04-08T14:15:34.969Z</time></trkpt><trkpt lat="42.3648028" lon="13.3172288"><ele>654.6666666666666</ele><time>2026-04-08T14:15:35.969Z</time></trkpt><trkpt lat="42.3647543" lon="13.3169425"><ele>655.3333333333333</ele><time>2026-04-08T14:15:36.97Z</time></trkpt><trkpt lat="42.3647035" lon="13.3166592"><ele>656.0</ele><time>2026-04-08T14:15:37.969Z</time></trkpt><trkpt lat="42.3646544" lon="13.3163802"><ele>656.0</ele><time>2026-04-08T14:15:38.969Z</time></trkpt><trkpt lat="42.3646058" lon="13.3161006"><ele>656.0</ele><time>2026-04-08T14:15:39.97Z</time></trkpt><trkpt lat="42.3645553" lon="13.3158262"><ele>656.0</ele><time>2026-04-08T14:15:40.969Z</time></trkpt><trkpt lat="42.3645035" lon="13.3155494"><ele>656.0</ele><time>2026-04-08T14:15:41.969Z</time></trkpt><trkpt lat="42.3644556" lon="13.3152676"><ele>656.0</ele><time>2026-04-08T14:15:42.969Z</time></trkpt><trkpt lat="42.364407" lon="13.3149846"><ele>656.0</ele><time>2026-04-08T14:15:43.969Z</time></trkpt><trkpt lat="42.3643584" lon="13.3146987"><ele>656.3333333333333</ele><time>2026-04-08T14:15:44.969Z</time></trkpt><trkpt lat="42.3643086" lon="13.314414"><ele>656.6666666666666</ele><time>2026-04-08T14:15:45.97Z</time></trkpt><trkpt lat="42.364258" lon="13.3141295"><ele>657.0</ele><time>2026-04-08T14:15:46.969Z</time></trkpt><trkpt lat="42.3642039" lon="13.3138453"><ele>656.3333333333334</ele><time>2026-04-08T14:15:47.97Z</time></trkpt><trkpt lat="42.3641567" lon="13.3135607"><ele>655.6666666666667</ele><time>2026-04-08T14:15:48.969Z</time></trkpt><trkpt lat="42.3641064" lon="13.3132767"><ele>655.0</ele><time>2026-04-08T14:15:49.97Z</time></trkpt><trkpt lat="42.3640579" lon="13.3129947"><ele>655.0</ele><time>2026-04-08T14:15:50.969Z</time></trkpt><trkpt lat="42.3640106" lon="13.3127136"><ele>655.0</ele><time>2026-04-08T14:15:51.969Z</time></trkpt><trkpt lat="42.3639566" lon="13.3124411"><ele>655.0</ele><time>2026-04-08T14:15:52.97Z</time></trkpt><trkpt lat="42.3639053" lon="13.3121674"><ele>655.0</ele><time>2026-04-08T14:15:53.969Z</time></trkpt><trkpt lat="42.3638571" lon="13.3119016"><ele>655.0</ele><time>2026-04-08T14:15:54.969Z</time></trkpt><trkpt lat="42.3638134" lon="13.3116389"><ele>655.0</ele><time>2026-04-08T14:15:55.969Z</time></trkpt><trkpt lat="42.3637714" lon="13.3113837"><ele>655.0</ele><time>2026-04-08T14:15:56.97Z</time></trkpt><trkpt lat="42.3637321" lon="13.3111482"><ele>655.0</ele><time>2026-04-08T14:15:57.969Z</time></trkpt><trkpt lat="42.363691" lon="13.3109203"><ele>655.0</ele><time>2026-04-08T14:15:58.97Z</time></trkpt><trkpt lat="42.3636517" lon="13.3106968"><ele>655.3333333333334</ele><time>2026-04-08T14:15:59.97Z</time></trkpt><trkpt lat="42.3636151" lon="13.3104756"><ele>655.6666666666666</ele><time>2026-04-08T14:16:00.969Z</time></trkpt><trkpt lat="42.3635787" lon="13.3102549"><ele>656.0</ele><time>2026-04-08T14:16:01.969Z</time></trkpt><trkpt lat="42.3635438" lon="13.3100365"><ele>656.0</ele><time>2026-04-08T14:16:02.969Z</time></trkpt><trkpt lat="42.3635093" lon="13.3098166"><ele>656.0</ele><time>2026-04-08T14:16:03.969Z</time></trkpt><trkpt lat="42.3634783" lon="13.309605"><ele>656.0</ele><time>2026-04-08T14:16:04.969Z</time></trkpt><trkpt lat="42.3634508" lon="13.3093991"><ele>656.4</ele><time>2026-04-08T14:16:05.969Z</time></trkpt><trkpt lat="42.3634314" lon="13.3092109"><ele>656.8</ele><time>2026-04-08T14:16:06.969Z</time></trkpt><trkpt lat="42.3634188" lon="13.3090497"><ele>657.1999999999999</ele><time>2026-04-08T14:16:07.969Z</time></trkpt><trkpt lat="42.3634143" lon="13.3089118"><ele>657.5999999999999</ele><time>2026-04-08T14:16:08.97Z</time></trkpt><trkpt lat="42.3634218" lon="13.3087956"><ele>658.0</ele><time>2026-04-08T14:16:09.969Z</time></trkpt><trkpt lat="42.3634498" lon="13.3086937"><ele>658.2</ele><time>2026-04-08T14:16:10.969Z</time></trkpt><trkpt lat="42.3634819" lon="13.3085938"><ele>658.4</ele><time>2026-04-08T14:16:11.969Z</time></trkpt><trkpt lat="42.3634814" lon="13.3084232"><ele>658.6</ele><time>2026-04-08T14:16:13.969Z</time></trkpt><trkpt lat="42.3634406" lon="13.3083266"><ele>658.8000000000001</ele><time>2026-04-08T14:16:14.969Z</time></trkpt><trkpt lat="42.3633726" lon="13.3082106"><ele>659.0</ele><time>2026-04-08T14:16:15.969Z</time></trkpt><trkpt lat="42.3632981" lon="13.3080647"><ele>658.3333333333333</ele><time>2026-04-08T14:16:16.969Z</time></trkpt><trkpt lat="42.3632284" lon="13.3078779"><ele>657.6666666666666</ele><time>2026-04-08T14:16:17.969Z</time></trkpt><trkpt lat="42.3631558" lon="13.3076594"><ele>657.0</ele><time>2026-04-08T14:16:18.969Z</time></trkpt><trkpt lat="42.3630737" lon="13.3073899"><ele>658.0</ele><time>2026-04-08T14:16:19.969Z</time></trkpt><trkpt lat="42.3630099" lon="13.3070965"><ele>659.0</ele><time>2026-04-08T14:16:20.969Z</time></trkpt><trkpt lat="42.3629599" lon="13.3067901"><ele>659.0</ele><time>2026-04-08T14:16:21.97Z</time></trkpt><trkpt lat="42.3629087" lon="13.3064788"><ele>659.0</ele><time>2026-04-08T14:16:22.97Z</time></trkpt><trkpt lat="42.3628562" lon="13.3061697"><ele>658.5</ele><time>2026-04-08T14:16:23.969Z</time></trkpt><trkpt lat="42.3628046" lon="13.3058609"><ele>658.0</ele><time>2026-04-08T14:16:24.97Z</time></trkpt><trkpt lat="42.362756" lon="13.3055566"><ele>657.5</ele><time>2026-04-08T14:16:25.969Z</time></trkpt><trkpt lat="42.3627008" lon="13.3052541"><ele>657.0</ele><time>2026-04-08T14:16:26.97Z</time></trkpt><trkpt lat="42.3626504" lon="13.3049497"><ele>657.0</ele><time>2026-04-08T14:16:27.969Z</time></trkpt><trkpt lat="42.3625972" lon="13.3046516"><ele>657.0</ele><time>2026-04-08T14:16:28.97Z</time></trkpt><trkpt lat="42.3625467" lon="13.3043524"><ele>657.0</ele><time>2026-04-08T14:16:29.97Z</time></trkpt><trkpt lat="42.3624925" lon="13.3040631"><ele>657.0</ele><time>2026-04-08T14:16:30.969Z</time></trkpt><trkpt lat="42.3624427" lon="13.3037802"><ele>657.0</ele><time>2026-04-08T14:16:31.969Z</time></trkpt><trkpt lat="42.3623939" lon="13.303506"><ele>657.6666666666666</ele><time>2026-04-08T14:16:32.969Z</time></trkpt><trkpt lat="42.3623418" lon="13.3032349"><ele>658.3333333333333</ele><time>2026-04-08T14:16:33.969Z</time></trkpt><trkpt lat="42.3622955" lon="13.302969"><ele>659.0</ele><time>2026-04-08T14:16:34.969Z</time></trkpt><trkpt lat="42.3622484" lon="13.3027146"><ele>659.0</ele><time>2026-04-08T14:16:35.969Z</time></trkpt><trkpt lat="42.3622056" lon="13.3024673"><ele>659.0</ele><time>2026-04-08T14:16:36.969Z</time></trkpt><trkpt lat="42.3621632" lon="13.3022312"><ele>659.0</ele><time>2026-04-08T14:16:37.969Z</time></trkpt><trkpt lat="42.3621173" lon="13.3019919"><ele>659.0</ele><time>2026-04-08T14:16:38.97Z</time></trkpt><trkpt lat="42.3620772" lon="13.3017559"><ele>659.0</ele><time>2026-04-08T14:16:39.969Z</time></trkpt><trkpt lat="42.3620392" lon="13.3015178"><ele>659.0</ele><time>2026-04-08T14:16:40.97Z</time></trkpt><trkpt lat="42.3619998" lon="13.301274"><ele>659.0</ele><time>2026-04-08T14:16:41.969Z</time></trkpt><trkpt lat="42.3619569" lon="13.3010284"><ele>659.0</ele><time>2026-04-08T14:16:42.969Z</time></trkpt><trkpt lat="42.3619172" lon="13.30078"><ele>659.0</ele><time>2026-04-08T14:16:43.969Z</time></trkpt><trkpt lat="42.3618734" lon="13.3005357"><ele>659.6666666666666</ele><time>2026-04-08T14:16:44.969Z</time></trkpt><trkpt lat="42.3618335" lon="13.300304"><ele>660.3333333333334</ele><time>2026-04-08T14:16:45.969Z</time></trkpt><trkpt lat="42.3617955" lon="13.3000895"><ele>661.0</ele><time>2026-04-08T14:16:46.97Z</time></trkpt><trkpt lat="42.3617648" lon="13.2999029"><ele>661.4</ele><time>2026-04-08T14:16:47.969Z</time></trkpt><trkpt lat="42.3617485" lon="13.2997373"><ele>661.8</ele><time>2026-04-08T14:16:48.969Z</time></trkpt><trkpt lat="42.3617559" lon="13.2995978"><ele>662.1999999999999</ele><time>2026-04-08T14:16:49.969Z</time></trkpt><trkpt lat="42.3617515" lon="13.2994898"><ele>662.5999999999999</ele><time>2026-04-08T14:16:50.969Z</time></trkpt><trkpt lat="42.3617211" lon="13.2993894"><ele>663.0</ele><time>2026-04-08T14:16:51.969Z</time></trkpt><trkpt lat="42.3616693" lon="13.2992783"><ele>663.0</ele><time>2026-04-08T14:16:52.969Z</time></trkpt><trkpt lat="42.3616147" lon="13.2991447"><ele>663.0</ele><time>2026-04-08T14:16:53.969Z</time></trkpt><trkpt lat="42.3615755" lon="13.2989362"><ele>663.0</ele><time>2026-04-08T14:16:54.969Z</time></trkpt><trkpt lat="42.3615364" lon="13.2987182"><ele>663.0</ele><time>2026-04-08T14:16:55.97Z</time></trkpt><trkpt lat="42.3614886" lon="13.2984758"><ele>663.0</ele><time>2026-04-08T14:16:56.969Z</time></trkpt><trkpt lat="42.361445" lon="13.2982148"><ele>663.0</ele><time>2026-04-08T14:16:57.969Z</time></trkpt><trkpt lat="42.3613955" lon="13.2979415"><ele>663.0</ele><time>2026-04-08T14:16:58.969Z</time></trkpt><trkpt lat="42.361346" lon="13.2976704"><ele>663.3333333333334</ele><time>2026-04-08T14:16:59.969Z</time></trkpt><trkpt lat="42.3612961" lon="13.2973898"><ele>663.6666666666667</ele><time>2026-04-08T14:17:00.969Z</time></trkpt><trkpt lat="42.3612467" lon="13.2971106"><ele>664.0</ele><time>2026-04-08T14:17:01.97Z</time></trkpt><trkpt lat="42.3611963" lon="13.2968311"><ele>664.0</ele><time>2026-04-08T14:17:02.969Z</time></trkpt><trkpt lat="42.3611453" lon="13.2965531"><ele>664.0</ele><time>2026-04-08T14:17:03.969Z</time></trkpt><trkpt lat="42.3610994" lon="13.2962827"><ele>664.0</ele><time>2026-04-08T14:17:04.969Z</time></trkpt><trkpt lat="42.3610533" lon="13.2960259"><ele>665.0</ele><time>2026-04-08T14:17:05.969Z</time></trkpt><trkpt lat="42.3610157" lon="13.2957856"><ele>666.0</ele><time>2026-04-08T14:17:06.969Z</time></trkpt><trkpt lat="42.3609751" lon="13.295562"><ele>667.0</ele><time>2026-04-08T14:17:07.969Z</time></trkpt><trkpt lat="42.3609345" lon="13.2953424"><ele>667.3333333333334</ele><time>2026-04-08T14:17:08.969Z</time></trkpt><trkpt lat="42.3608916" lon="13.2951261"><ele>667.6666666666666</ele><time>2026-04-08T14:17:09.969Z</time></trkpt><trkpt lat="42.3608525" lon="13.2948978"><ele>668.0</ele><time>2026-04-08T14:17:10.97Z</time></trkpt><trkpt lat="42.3608121" lon="13.2946619"><ele>668.0</ele><time>2026-04-08T14:17:11.97Z</time></trkpt><trkpt lat="42.3607685" lon="13.2944276"><ele>668.0</ele><time>2026-04-08T14:17:12.969Z</time></trkpt><trkpt lat="42.3607245" lon="13.2941897"><ele>668.0</ele><time>2026-04-08T14:17:13.969Z</time></trkpt><trkpt lat="42.3606834" lon="13.2939504"><ele>668.3333333333333</ele><time>2026-04-08T14:17:14.969Z</time></trkpt><trkpt lat="42.3606408" lon="13.2937093"><ele>668.6666666666666</ele><time>2026-04-08T14:17:15.969Z</time></trkpt><trkpt lat="42.3605995" lon="13.2934722"><ele>669.0</ele><time>2026-04-08T14:17:16.969Z</time></trkpt><trkpt lat="42.3605569" lon="13.2932364"><ele>669.0</ele><time>2026-04-08T14:17:17.969Z</time></trkpt><trkpt lat="42.3605159" lon="13.2929969"><ele>669.0</ele><time>2026-04-08T14:17:18.97Z</time></trkpt><trkpt lat="42.3604731" lon="13.2927593"><ele>669.0</ele><time>2026-04-08T14:17:19.969Z</time></trkpt><trkpt lat="42.3604331" lon="13.2925214"><ele>669.0</ele><time>2026-04-08T14:17:20.969Z</time></trkpt><trkpt lat="42.3603897" lon="13.2922847"><ele>669.0</ele><time>2026-04-08T14:17:21.969Z</time></trkpt><trkpt lat="42.3603431" lon="13.2920495"><ele>669.0</ele><time>2026-04-08T14:17:22.969Z</time></trkpt><trkpt lat="42.3603017" lon="13.2918122"><ele>669.3333333333334</ele><time>2026-04-08T14:17:23.969Z</time></trkpt><trkpt lat="42.3602602" lon="13.2915761"><ele>669.6666666666667</ele><time>2026-04-08T14:17:24.969Z</time></trkpt><trkpt lat="42.3602176" lon="13.2913447"><ele>670.0</ele><time>2026-04-08T14:17:25.969Z</time></trkpt><trkpt lat="42.360179" lon="13.2911173"><ele>670.3333333333334</ele><time>2026-04-08T14:17:26.969Z</time></trkpt><trkpt lat="42.3601399" lon="13.2909001"><ele>670.6666666666666</ele><time>2026-04-08T14:17:27.969Z</time></trkpt><trkpt lat="42.3601115" lon="13.2906926"><ele>671.0</ele><time>2026-04-08T14:17:28.969Z</time></trkpt><trkpt lat="42.3600796" lon="13.2905032"><ele>671.1999999999999</ele><time>2026-04-08T14:17:29.969Z</time></trkpt><trkpt lat="42.3600478" lon="13.2903396"><ele>671.4</ele><time>2026-04-08T14:17:30.97Z</time></trkpt><trkpt lat="42.3600212" lon="13.2901992"><ele>671.6</ele><time>2026-04-08T14:17:31.969Z</time></trkpt><trkpt lat="42.3599985" lon="13.290075"><ele>671.8</ele><time>2026-04-08T14:17:32.97Z</time></trkpt><trkpt lat="42.3599778" lon="13.2899691"><ele>672.0</ele><time>2026-04-08T14:17:33.97Z</time></trkpt><trkpt lat="42.3599633" lon="13.2898745"><ele>672.0</ele><time>2026-04-08T14:17:34.969Z</time></trkpt><trkpt lat="42.3599466" lon="13.2897911"><ele>672.0</ele><time>2026-04-08T14:17:35.97Z</time></trkpt><trkpt lat="42.3599232" lon="13.2896975"><ele>672.0</ele><time>2026-04-08T14:17:36.969Z</time></trkpt><trkpt lat="42.3598928" lon="13.2895551"><ele>672.0</ele><time>2026-04-08T14:17:37.969Z</time></trkpt><trkpt lat="42.3598593" lon="13.2893878"><ele>672.0</ele><time>2026-04-08T14:17:38.969Z</time></trkpt><trkpt lat="42.359834" lon="13.2892201"><ele>672.2</ele><time>2026-04-08T14:17:39.969Z</time></trkpt><trkpt lat="42.3598015" lon="13.289057"><ele>672.4000000000001</ele><time>2026-04-08T14:17:40.969Z</time></trkpt><trkpt lat="42.359767" lon="13.2889031"><ele>672.5999999999999</ele><time>2026-04-08T14:17:41.969Z</time></trkpt><trkpt lat="42.3597274" lon="13.2887659"><ele>672.8</ele><time>2026-04-08T14:17:42.969Z</time></trkpt><trkpt lat="42.3596918" lon="13.2886464"><ele>673.0</ele><time>2026-04-08T14:17:43.97Z</time></trkpt><trkpt lat="42.3596548" lon="13.2885408"><ele>673.1428571428572</ele><time>2026-04-08T14:17:44.97Z</time></trkpt><trkpt lat="42.3596124" lon="13.2884635"><ele>673.2857142857142</ele><time>2026-04-08T14:17:45.969Z</time></trkpt><trkpt lat="42.359554" lon="13.2884206"><ele>673.4285714285714</ele><time>2026-04-08T14:17:46.969Z</time></trkpt><trkpt lat="42.3594891" lon="13.2884223"><ele>673.5714285714287</ele><time>2026-04-08T14:17:47.97Z</time></trkpt><trkpt lat="42.3594218" lon="13.2884384"><ele>673.7142857142858</ele><time>2026-04-08T14:17:48.969Z</time></trkpt><trkpt lat="42.359354" lon="13.288423"><ele>673.8571428571429</ele><time>2026-04-08T14:17:49.969Z</time></trkpt><trkpt lat="42.3593029" lon="13.2883677"><ele>674.0</ele><time>2026-04-08T14:17:50.97Z</time></trkpt><trkpt lat="42.359276" lon="13.2882806"><ele>674.0</ele><time>2026-04-08T14:17:51.969Z</time></trkpt><trkpt lat="42.3592783" lon="13.2881584"><ele>674.0</ele><time>2026-04-08T14:17:52.969Z</time></trkpt><trkpt lat="42.3592911" lon="13.2880044"><ele>674.0</ele><time>2026-04-08T14:17:53.969Z</time></trkpt><trkpt lat="42.3593124" lon="13.2878346"><ele>674.0</ele><time>2026-04-08T14:17:54.969Z</time></trkpt><trkpt lat="42.3593315" lon="13.2876536"><ele>674.5</ele><time>2026-04-08T14:17:55.969Z</time></trkpt><trkpt lat="42.359341" lon="13.2874691"><ele>675.0</ele><time>2026-04-08T14:17:56.97Z</time></trkpt><trkpt lat="42.3593412" lon="13.2872778"><ele>675.5</ele><time>2026-04-08T14:17:57.97Z</time></trkpt><trkpt lat="42.3593102" lon="13.2870912"><ele>676.0</ele><time>2026-04-08T14:17:58.969Z</time></trkpt><trkpt lat="42.3592554" lon="13.2869086"><ele>676.3333333333334</ele><time>2026-04-08T14:17:59.969Z</time></trkpt><trkpt lat="42.3591797" lon="13.2867328"><ele>676.6666666666666</ele><time>2026-04-08T14:18:00.97Z</time></trkpt><trkpt lat="42.3590884" lon="13.2865577"><ele>677.0</ele><time>2026-04-08T14:18:01.969Z</time></trkpt><trkpt lat="42.3589887" lon="13.2863822"><ele>677.0</ele><time>2026-04-08T14:18:02.969Z</time></trkpt><trkpt lat="42.3588794" lon="13.2862245"><ele>677.0</ele><time>2026-04-08T14:18:03.969Z</time></trkpt><trkpt lat="42.3587746" lon="13.2860908"><ele>677.0</ele><time>2026-04-08T14:18:04.969Z</time></trkpt><trkpt lat="42.3586774" lon="13.2859772"><ele>677.0</ele><time>2026-04-08T14:18:05.969Z</time></trkpt><trkpt lat="42.3585952" lon="13.2858701"><ele>677.0</ele><time>2026-04-08T14:18:06.97Z</time></trkpt><trkpt lat="42.3585301" lon="13.285749"><ele>677.0</ele><time>2026-04-08T14:18:07.969Z</time></trkpt><trkpt lat="42.3584894" lon="13.285607"><ele>677.0</ele><time>2026-04-08T14:18:08.969Z</time></trkpt><trkpt lat="42.3584675" lon="13.2854395"><ele>677.0</ele><time>2026-04-08T14:18:09.97Z</time></trkpt><trkpt lat="42.3584585" lon="13.2852528"><ele>677.6666666666666</ele><time>2026-04-08T14:18:10.969Z</time></trkpt><trkpt lat="42.3584593" lon="13.2850532"><ele>678.3333333333334</ele><time>2026-04-08T14:18:11.969Z</time></trkpt><trkpt lat="42.3584605" lon="13.2848479"><ele>679.0</ele><time>2026-04-08T14:18:12.969Z</time></trkpt><trkpt lat="42.358479" lon="13.2846333"><ele>679.0</ele><time>2026-04-08T14:18:13.969Z</time></trkpt><trkpt lat="42.3585063" lon="13.2844085"><ele>679.0</ele><time>2026-04-08T14:18:14.97Z</time></trkpt><trkpt lat="42.3585356" lon="13.2841753"><ele>679.0</ele><time>2026-04-08T14:18:15.969Z</time></trkpt><trkpt lat="42.3585639" lon="13.2839364"><ele>678.6666666666667</ele><time>2026-04-08T14:18:16.97Z</time></trkpt><trkpt lat="42.3585946" lon="13.2836963"><ele>678.3333333333334</ele><time>2026-04-08T14:18:17.97Z</time></trkpt><trkpt lat="42.3586263" lon="13.2834601"><ele>678.0</ele><time>2026-04-08T14:18:18.97Z</time></trkpt><trkpt lat="42.3586702" lon="13.2832257"><ele>679.0</ele><time>2026-04-08T14:18:19.969Z</time></trkpt><trkpt lat="42.3587339" lon="13.2829986"><ele>680.0</ele><time>2026-04-08T14:18:20.97Z</time></trkpt><trkpt lat="42.3588132" lon="13.2827769"><ele>681.0</ele><time>2026-04-08T14:18:21.969Z</time></trkpt><trkpt lat="42.3589161" lon="13.282564"><ele>681.6666666666666</ele><time>2026-04-08T14:18:22.969Z</time></trkpt><trkpt lat="42.359012" lon="13.2823466"><ele>682.3333333333333</ele><time>2026-04-08T14:18:23.969Z</time></trkpt><trkpt lat="42.3590883" lon="13.2821084"><ele>683.0</ele><time>2026-04-08T14:18:24.97Z</time></trkpt><trkpt lat="42.3591339" lon="13.2818568"><ele>683.0</ele><time>2026-04-08T14:18:25.969Z</time></trkpt><trkpt lat="42.3591491" lon="13.2815946"><ele>683.0</ele><time>2026-04-08T14:18:26.969Z</time></trkpt><trkpt lat="42.3591531" lon="13.2813257"><ele>683.0</ele><time>2026-04-08T14:18:27.969Z</time></trkpt><trkpt lat="42.3591612" lon="13.2810511"><ele>683.0</ele><time>2026-04-08T14:18:28.97Z</time></trkpt><trkpt lat="42.3591781" lon="13.280771"><ele>683.0</ele><time>2026-04-08T14:18:29.97Z</time></trkpt><trkpt lat="42.3592072" lon="13.2804933"><ele>683.0</ele><time>2026-04-08T14:18:30.969Z</time></trkpt><trkpt lat="42.3592411" lon="13.2802082"><ele>683.0</ele><time>2026-04-08T14:18:31.969Z</time></trkpt><trkpt lat="42.3592753" lon="13.2799234"><ele>683.0</ele><time>2026-04-08T14:18:32.969Z</time></trkpt><trkpt lat="42.3593036" lon="13.279641"><ele>683.0</ele><time>2026-04-08T14:18:33.969Z</time></trkpt><trkpt lat="42.3593216" lon="13.2793688"><ele>683.3333333333333</ele><time>2026-04-08T14:18:34.969Z</time></trkpt><trkpt lat="42.3593105" lon="13.2790967"><ele>683.6666666666666</ele><time>2026-04-08T14:18:35.969Z</time></trkpt><trkpt lat="42.3592833" lon="13.2788272"><ele>684.0</ele><time>2026-04-08T14:18:36.969Z</time></trkpt><trkpt lat="42.3592355" lon="13.2785581"><ele>684.0</ele><time>2026-04-08T14:18:37.97Z</time></trkpt><trkpt lat="42.3591812" lon="13.278292"><ele>684.0</ele><time>2026-04-08T14:18:38.969Z</time></trkpt><trkpt lat="42.3591251" lon="13.2780263"><ele>684.0</ele><time>2026-04-08T14:18:39.97Z</time></trkpt><trkpt lat="42.3590682" lon="13.2777736"><ele>684.3333333333334</ele><time>2026-04-08T14:18:40.969Z</time></trkpt><trkpt lat="42.3590148" lon="13.2775323"><ele>684.6666666666667</ele><time>2026-04-08T14:18:41.969Z</time></trkpt><trkpt lat="42.3589673" lon="13.2773069"><ele>685.0</ele><time>2026-04-08T14:18:42.969Z</time></trkpt><trkpt lat="42.358923" lon="13.2770913"><ele>685.5</ele><time>2026-04-08T14:18:43.97Z</time></trkpt><trkpt lat="42.3588835" lon="13.2768986"><ele>686.0</ele><time>2026-04-08T14:18:44.97Z</time></trkpt><trkpt lat="42.3588519" lon="13.2767323"><ele>686.5</ele><time>2026-04-08T14:18:45.969Z</time></trkpt><trkpt lat="42.3588278" lon="13.2765922"><ele>687.0</ele><time>2026-04-08T14:18:46.97Z</time></trkpt><trkpt lat="42.358817" lon="13.2764831"><ele>687.0</ele><time>2026-04-08T14:18:47.969Z</time></trkpt><trkpt lat="42.3587527" lon="13.2763695"><ele>687.0</ele><time>2026-04-08T14:18:49.969Z</time></trkpt><trkpt lat="42.3586596" lon="13.2763952"><ele>687.0</ele><time>2026-04-08T14:18:51.969Z</time></trkpt><trkpt lat="42.3585347" lon="13.2764706"><ele>687.0</ele><time>2026-04-08T14:18:53.969Z</time></trkpt><trkpt lat="42.3584654" lon="13.2764884"><ele>687.0</ele><time>2026-04-08T14:18:54.969Z</time></trkpt><trkpt lat="42.3583691" lon="13.2765065"><ele>687.0</ele><time>2026-04-08T14:18:56.969Z</time></trkpt><trkpt lat="42.3582877" lon="13.2764639"><ele>687.0</ele><time>2026-04-08T14:18:58.969Z</time></trkpt><trkpt lat="42.3582366" lon="13.276408"><ele>687.0</ele><time>2026-04-08T14:18:59.969Z</time></trkpt><trkpt lat="42.3581758" lon="13.2763357"><ele>687.0</ele><time>2026-04-08T14:19:00.97Z</time></trkpt><trkpt lat="42.3581043" lon="13.2762532"><ele>687.0</ele><time>2026-04-08T14:19:01.969Z</time></trkpt><trkpt lat="42.3580198" lon="13.2761683"><ele>687.0</ele><time>2026-04-08T14:19:02.969Z</time></trkpt><trkpt lat="42.3579449" lon="13.2761006"><ele>687.25</ele><time>2026-04-08T14:19:03.97Z</time></trkpt><trkpt lat="42.3578533" lon="13.2760224"><ele>687.5</ele><time>2026-04-08T14:19:04.969Z</time></trkpt><trkpt lat="42.3577646" lon="13.2759435"><ele>687.75</ele><time>2026-04-08T14:19:05.969Z</time></trkpt><trkpt lat="42.3576592" lon="13.27588"><ele>688.0</ele><time>2026-04-08T14:19:06.969Z</time></trkpt><trkpt lat="42.3575478" lon="13.2758073"><ele>688.0</ele><time>2026-04-08T14:19:07.969Z</time></trkpt><trkpt lat="42.3574394" lon="13.2757403"><ele>688.0</ele><time>2026-04-08T14:19:08.969Z</time></trkpt><trkpt lat="42.3573252" lon="13.2756831"><ele>688.0</ele><time>2026-04-08T14:19:09.97Z</time></trkpt><trkpt lat="42.3572107" lon="13.2756251"><ele>688.0</ele><time>2026-04-08T14:19:10.97Z</time></trkpt><trkpt lat="42.3570954" lon="13.2755635"><ele>688.5999999999999</ele><time>2026-04-08T14:19:11.969Z</time></trkpt><trkpt lat="42.356989" lon="13.2755102"><ele>689.1999999999999</ele><time>2026-04-08T14:19:12.969Z</time></trkpt><trkpt lat="42.3568864" lon="13.2754557"><ele>689.8</ele><time>2026-04-08T14:19:13.969Z</time></trkpt><trkpt lat="42.3567958" lon="13.2753956"><ele>690.4</ele><time>2026-04-08T14:19:14.969Z</time></trkpt><trkpt lat="42.3567012" lon="13.2753275"><ele>691.0</ele><time>2026-04-08T14:19:15.969Z</time></trkpt><trkpt lat="42.3566052" lon="13.2752549"><ele>691.0</ele><time>2026-04-08T14:19:16.97Z</time></trkpt><trkpt lat="42.3565034" lon="13.2751715"><ele>691.0</ele><time>2026-04-08T14:19:17.97Z</time></trkpt><trkpt lat="42.3563893" lon="13.27507"><ele>691.0</ele><time>2026-04-08T14:19:18.969Z</time></trkpt><trkpt lat="42.3562723" lon="13.2749637"><ele>691.0</ele><time>2026-04-08T14:19:19.97Z</time></trkpt><trkpt lat="42.3561665" lon="13.2748518"><ele>691.5</ele><time>2026-04-08T14:19:20.969Z</time></trkpt><trkpt lat="42.356079" lon="13.274757"><ele>692.0</ele><time>2026-04-08T14:19:21.969Z</time></trkpt><trkpt lat="42.3559847" lon="13.2746442"><ele>692.5</ele><time>2026-04-08T14:19:22.969Z</time></trkpt><trkpt lat="42.355898" lon="13.2745193"><ele>693.0</ele><time>2026-04-08T14:19:23.969Z</time></trkpt><trkpt lat="42.3558132" lon="13.2743874"><ele>693.0</ele><time>2026-04-08T14:19:24.97Z</time></trkpt><trkpt lat="42.3557285" lon="13.2742497"><ele>693.0</ele><time>2026-04-08T14:19:25.97Z</time></trkpt><trkpt lat="42.3556516" lon="13.2740999"><ele>693.0</ele><time>2026-04-08T14:19:26.969Z</time></trkpt><trkpt lat="42.355579" lon="13.27395"><ele>693.0</ele><time>2026-04-08T14:19:27.97Z</time></trkpt><trkpt lat="42.3555086" lon="13.273794"><ele>695.5</ele><time>2026-04-08T14:19:28.969Z</time></trkpt><trkpt lat="42.3554462" lon="13.273637"><ele>698.0</ele><time>2026-04-08T14:19:29.969Z</time></trkpt><trkpt lat="42.3553915" lon="13.2734741"><ele>700.5</ele><time>2026-04-08T14:19:30.969Z</time></trkpt><trkpt lat="42.3553417" lon="13.2733051"><ele>703.0</ele><time>2026-04-08T14:19:31.969Z</time></trkpt><trkpt lat="42.3553082" lon="13.2731225"><ele>703.25</ele><time>2026-04-08T14:19:32.969Z</time></trkpt><trkpt lat="42.3552713" lon="13.2729346"><ele>703.5</ele><time>2026-04-08T14:19:33.97Z</time></trkpt><trkpt lat="42.3552355" lon="13.2727433"><ele>703.75</ele><time>2026-04-08T14:19:34.969Z</time></trkpt><trkpt lat="42.3551974" lon="13.2725538"><ele>704.0</ele><time>2026-04-08T14:19:35.969Z</time></trkpt><trkpt lat="42.3551569" lon="13.2723562"><ele>704.0</ele><time>2026-04-08T14:19:36.969Z</time></trkpt><trkpt lat="42.3551306" lon="13.2721598"><ele>704.0</ele><time>2026-04-08T14:19:37.969Z</time></trkpt><trkpt lat="42.3551017" lon="13.2719616"><ele>704.0</ele><time>2026-04-08T14:19:38.97Z</time></trkpt><trkpt lat="42.3550662" lon="13.2717598"><ele>704.0</ele><time>2026-04-08T14:19:39.969Z</time></trkpt><trkpt lat="42.3550205" lon="13.2715667"><ele>704.0</ele><time>2026-04-08T14:19:40.969Z</time></trkpt><trkpt lat="42.3549772" lon="13.2713812"><ele>704.0</ele><time>2026-04-08T14:19:41.969Z</time></trkpt><trkpt lat="42.3549279" lon="13.2712035"><ele>704.0</ele><time>2026-04-08T14:19:42.969Z</time></trkpt><trkpt lat="42.3548769" lon="13.2710457"><ele>703.8333333333333</ele><time>2026-04-08T14:19:43.969Z</time></trkpt><trkpt lat="42.3548298" lon="13.2709005"><ele>703.6666666666666</ele><time>2026-04-08T14:19:44.969Z</time></trkpt><trkpt lat="42.3547872" lon="13.2707769"><ele>703.5</ele><time>2026-04-08T14:19:45.97Z</time></trkpt><trkpt lat="42.3547606" lon="13.2706752"><ele>703.3333333333334</ele><time>2026-04-08T14:19:46.969Z</time></trkpt><trkpt lat="42.354735" lon="13.2705827"><ele>703.1666666666667</ele><time>2026-04-08T14:19:47.969Z</time></trkpt><trkpt lat="42.3547099" lon="13.2704922"><ele>703.0</ele><time>2026-04-08T14:19:48.969Z</time></trkpt><trkpt lat="42.354684" lon="13.2703985"><ele>705.0</ele><time>2026-04-08T14:19:49.969Z</time></trkpt><trkpt lat="42.3546523" lon="13.2703027"><ele>707.0</ele><time>2026-04-08T14:19:50.969Z</time></trkpt><trkpt lat="42.3546144" lon="13.2701931"><ele>709.0</ele><time>2026-04-08T14:19:51.969Z</time></trkpt><trkpt lat="42.3545733" lon="13.2700865"><ele>711.0</ele><time>2026-04-08T14:19:52.969Z</time></trkpt><trkpt lat="42.3545295" lon="13.2699845"><ele>713.0</ele><time>2026-04-08T14:19:53.969Z</time></trkpt><trkpt lat="42.3544949" lon="13.2698877"><ele>715.0</ele><time>2026-04-08T14:19:54.97Z</time></trkpt><trkpt lat="42.3544668" lon="13.2697886"><ele>714.8333333333334</ele><time>2026-04-08T14:19:55.97Z</time></trkpt><trkpt lat="42.3544355" lon="13.2696823"><ele>714.6666666666667</ele><time>2026-04-08T14:19:56.969Z</time></trkpt><trkpt lat="42.3544187" lon="13.2695777"><ele>714.5</ele><time>2026-04-08T14:19:57.969Z</time></trkpt><trkpt lat="42.3544015" lon="13.269469"><ele>714.3333333333334</ele><time>2026-04-08T14:19:58.969Z</time></trkpt><trkpt lat="42.3543921" lon="13.2693444"><ele>714.1666666666666</ele><time>2026-04-08T14:19:59.969Z</time></trkpt><trkpt lat="42.3543786" lon="13.2692147"><ele>714.0</ele><time>2026-04-08T14:20:00.969Z</time></trkpt><trkpt lat="42.3543612" lon="13.2690753"><ele>713.6666666666666</ele><time>2026-04-08T14:20:01.97Z</time></trkpt><trkpt lat="42.3543464" lon="13.2689342"><ele>713.3333333333334</ele><time>2026-04-08T14:20:02.969Z</time></trkpt><trkpt lat="42.3543363" lon="13.2688142"><ele>713.0</ele><time>2026-04-08T14:20:03.97Z</time></trkpt><trkpt lat="42.3543348" lon="13.2687002"><ele>712.6666666666667</ele><time>2026-04-08T14:20:04.97Z</time></trkpt><trkpt lat="42.3543312" lon="13.2685959"><ele>712.3333333333334</ele><time>2026-04-08T14:20:05.969Z</time></trkpt><trkpt lat="42.3543486" lon="13.2684927"><ele>712.0</ele><time>2026-04-08T14:20:06.969Z</time></trkpt><trkpt lat="42.3543515" lon="13.2683705"><ele>712.0</ele><time>2026-04-08T14:20:07.969Z</time></trkpt><trkpt lat="42.3543643" lon="13.2682434"><ele>712.0</ele><time>2026-04-08T14:20:08.969Z</time></trkpt><trkpt lat="42.3543845" lon="13.2680997"><ele>712.0</ele><time>2026-04-08T14:20:09.969Z</time></trkpt><trkpt lat="42.3544164" lon="13.2679412"><ele>712.0</ele><time>2026-04-08T14:20:10.969Z</time></trkpt><trkpt lat="42.3544496" lon="13.2677569"><ele>712.6666666666667</ele><time>2026-04-08T14:20:11.969Z</time></trkpt><trkpt lat="42.354481" lon="13.2675571"><ele>713.3333333333334</ele><time>2026-04-08T14:20:12.969Z</time></trkpt><trkpt lat="42.354512" lon="13.2673632"><ele>714.0</ele><time>2026-04-08T14:20:13.969Z</time></trkpt><trkpt lat="42.3545456" lon="13.2671582"><ele>714.6666666666666</ele><time>2026-04-08T14:20:14.969Z</time></trkpt><trkpt lat="42.3545754" lon="13.2669474"><ele>715.3333333333333</ele><time>2026-04-08T14:20:15.969Z</time></trkpt><trkpt lat="42.3546017" lon="13.2667362"><ele>716.0</ele><time>2026-04-08T14:20:16.969Z</time></trkpt><trkpt lat="42.3546333" lon="13.266535"><ele>716.4</ele><time>2026-04-08T14:20:17.97Z</time></trkpt><trkpt lat="42.3546481" lon="13.2663426"><ele>716.8</ele><time>2026-04-08T14:20:18.969Z</time></trkpt><trkpt lat="42.3546522" lon="13.2661813"><ele>717.1999999999999</ele><time>2026-04-08T14:20:19.97Z</time></trkpt><trkpt lat="42.3546421" lon="13.26604"><ele>717.5999999999999</ele><time>2026-04-08T14:20:20.969Z</time></trkpt><trkpt lat="42.3546174" lon="13.265934"><ele>718.0</ele><time>2026-04-08T14:20:21.969Z</time></trkpt><trkpt lat="42.3545942" lon="13.2658458"><ele>718.0</ele><time>2026-04-08T14:20:22.969Z</time></trkpt><trkpt lat="42.3545653" lon="13.2657477"><ele>718.0</ele><time>2026-04-08T14:20:24.969Z</time></trkpt><trkpt lat="42.3545482" lon="13.2656556"><ele>718.0</ele><time>2026-04-08T14:20:26.97Z</time></trkpt><trkpt lat="42.3545588" lon="13.2655585"><ele>718.0</ele><time>2026-04-08T14:23:17.969Z</time></trkpt><trkpt lat="42.354582" lon="13.2654086"><ele>718.0</ele><time>2026-04-08T14:23:19.969Z</time></trkpt><trkpt lat="42.3546095" lon="13.2653235"><ele>718.0</ele><time>2026-04-08T14:23:20.97Z</time></trkpt><trkpt lat="42.3546414" lon="13.2652286"><ele>718.0</ele><time>2026-04-08T14:23:21.969Z</time></trkpt><trkpt lat="42.3546676" lon="13.2651251"><ele>718.0</ele><time>2026-04-08T14:23:22.97Z</time></trkpt><trkpt lat="42.3546935" lon="13.2650075"><ele>718.0</ele><time>2026-04-08T14:23:23.969Z</time></trkpt><trkpt lat="42.354716" lon="13.2648833"><ele>718.0</ele><time>2026-04-08T14:23:24.97Z</time></trkpt><trkpt lat="42.3547395" lon="13.2647592"><ele>718.0</ele><time>2026-04-08T14:23:25.969Z</time></trkpt><trkpt lat="42.3547604" lon="13.2646356"><ele>718.2</ele><time>2026-04-08T14:23:26.969Z</time></trkpt><trkpt lat="42.3547844" lon="13.264506"><ele>718.4</ele><time>2026-04-08T14:23:27.969Z</time></trkpt><trkpt lat="42.354805" lon="13.2643633"><ele>718.6</ele><time>2026-04-08T14:23:28.969Z</time></trkpt><trkpt lat="42.354825" lon="13.2642235"><ele>718.8000000000001</ele><time>2026-04-08T14:23:29.969Z</time></trkpt><trkpt lat="42.3548408" lon="13.2640631"><ele>719.0</ele><time>2026-04-08T14:23:30.969Z</time></trkpt><trkpt lat="42.354864" lon="13.2638826"><ele>720.0</ele><time>2026-04-08T14:23:31.97Z</time></trkpt><trkpt lat="42.3548997" lon="13.2636848"><ele>721.0</ele><time>2026-04-08T14:23:32.97Z</time></trkpt><trkpt lat="42.3549604" lon="13.2634673"><ele>722.0</ele><time>2026-04-08T14:23:33.969Z</time></trkpt><trkpt lat="42.3550213" lon="13.2632354"><ele>723.3333333333333</ele><time>2026-04-08T14:23:34.969Z</time></trkpt><trkpt lat="42.3550801" lon="13.2629863"><ele>724.6666666666666</ele><time>2026-04-08T14:23:35.969Z</time></trkpt><trkpt lat="42.3551474" lon="13.2627204"><ele>726.0</ele><time>2026-04-08T14:23:36.969Z</time></trkpt><trkpt lat="42.3552144" lon="13.2624706"><ele>727.0</ele><time>2026-04-08T14:23:37.969Z</time></trkpt><trkpt lat="42.3552643" lon="13.262249"><ele>728.0</ele><time>2026-04-08T14:23:38.969Z</time></trkpt><trkpt lat="42.3552985" lon="13.2620334"><ele>729.0</ele><time>2026-04-08T14:23:39.969Z</time></trkpt><trkpt lat="42.3553197" lon="13.2617967"><ele>729.0</ele><time>2026-04-08T14:23:40.969Z</time></trkpt><trkpt lat="42.355332" lon="13.2615412"><ele>729.0</ele><time>2026-04-08T14:23:41.969Z</time></trkpt><trkpt lat="42.3553403" lon="13.2613174"><ele>729.0</ele><time>2026-04-08T14:23:42.969Z</time></trkpt><trkpt lat="42.3553449" lon="13.2611505"><ele>729.25</ele><time>2026-04-08T14:23:43.97Z</time></trkpt><trkpt lat="42.3553271" lon="13.2609855"><ele>729.5</ele><time>2026-04-08T14:23:44.969Z</time></trkpt><trkpt lat="42.3552993" lon="13.2608164"><ele>729.75</ele><time>2026-04-08T14:23:45.969Z</time></trkpt><trkpt lat="42.3552675" lon="13.2606778"><ele>730.0</ele><time>2026-04-08T14:23:46.969Z</time></trkpt><trkpt lat="42.3552362" lon="13.260517"><ele>731.0</ele><time>2026-04-08T14:23:47.969Z</time></trkpt><trkpt lat="42.3552108" lon="13.260325"><ele>732.0</ele><time>2026-04-08T14:23:48.969Z</time></trkpt><trkpt lat="42.3551966" lon="13.2601176"><ele>733.0</ele><time>2026-04-08T14:23:49.969Z</time></trkpt><trkpt lat="42.3551949" lon="13.2599044"><ele>734.0</ele><time>2026-04-08T14:23:50.969Z</time></trkpt><trkpt lat="42.3552064" lon="13.2596773"><ele>735.0</ele><time>2026-04-08T14:23:51.969Z</time></trkpt><trkpt lat="42.3552348" lon="13.2594357"><ele>736.0</ele><time>2026-04-08T14:23:52.969Z</time></trkpt><trkpt lat="42.3552602" lon="13.2592014"><ele>736.0</ele><time>2026-04-08T14:23:53.969Z</time></trkpt><trkpt lat="42.3552731" lon="13.2589957"><ele>736.0</ele><time>2026-04-08T14:23:54.969Z</time></trkpt><trkpt lat="42.3553054" lon="13.2588134"><ele>736.0</ele><time>2026-04-08T14:23:55.969Z</time></trkpt><trkpt lat="42.3553555" lon="13.2586345"><ele>736.0</ele><time>2026-04-08T14:23:56.969Z</time></trkpt><trkpt lat="42.3554032" lon="13.2584467"><ele>736.5</ele><time>2026-04-08T14:23:57.969Z</time></trkpt><trkpt lat="42.3554349" lon="13.2582755"><ele>737.0</ele><time>2026-04-08T14:23:58.969Z</time></trkpt><trkpt lat="42.3554757" lon="13.2581443"><ele>737.5</ele><time>2026-04-08T14:23:59.969Z</time></trkpt><trkpt lat="42.3555431" lon="13.2580001"><ele>738.0</ele><time>2026-04-08T14:24:00.969Z</time></trkpt><trkpt lat="42.3556243" lon="13.257836"><ele>738.25</ele><time>2026-04-08T14:24:01.969Z</time></trkpt><trkpt lat="42.3557114" lon="13.2576562"><ele>738.5</ele><time>2026-04-08T14:24:02.97Z</time></trkpt><trkpt lat="42.3557984" lon="13.2574749"><ele>738.75</ele><time>2026-04-08T14:24:03.969Z</time></trkpt><trkpt lat="42.3558714" lon="13.2573446"><ele>739.0</ele><time>2026-04-08T14:24:04.969Z</time></trkpt><trkpt lat="42.3559617" lon="13.2571937"><ele>740.0</ele><time>2026-04-08T14:24:05.969Z</time></trkpt><trkpt lat="42.3560509" lon="13.257028"><ele>741.0</ele><time>2026-04-08T14:24:06.97Z</time></trkpt><trkpt lat="42.3561411" lon="13.2568486"><ele>742.0</ele><time>2026-04-08T14:24:07.969Z</time></trkpt><trkpt lat="42.3562315" lon="13.2566896"><ele>742.0</ele><time>2026-04-08T14:24:08.969Z</time></trkpt><trkpt lat="42.356314" lon="13.2565162"><ele>742.0</ele><time>2026-04-08T14:24:09.969Z</time></trkpt><trkpt lat="42.3564001" lon="13.2563319"><ele>742.0</ele><time>2026-04-08T14:24:10.969Z</time></trkpt><trkpt lat="42.3564945" lon="13.2561645"><ele>741.5</ele><time>2026-04-08T14:24:11.969Z</time></trkpt><trkpt lat="42.3565642" lon="13.2560136"><ele>741.0</ele><time>2026-04-08T14:24:12.969Z</time></trkpt><trkpt lat="42.3566257" lon="13.2558768"><ele>740.5</ele><time>2026-04-08T14:24:13.969Z</time></trkpt><trkpt lat="42.3566764" lon="13.2557229"><ele>740.0</ele><time>2026-04-08T14:24:14.969Z</time></trkpt><trkpt lat="42.3567247" lon="13.2555777"><ele>741.1666666666666</ele><time>2026-04-08T14:24:15.97Z</time></trkpt><trkpt lat="42.3567684" lon="13.2554518"><ele>742.3333333333333</ele><time>2026-04-08T14:24:16.969Z</time></trkpt><trkpt lat="42.3568059" lon="13.2553484"><ele>743.5</ele><time>2026-04-08T14:24:17.97Z</time></trkpt><trkpt lat="42.3568394" lon="13.2552612"><ele>744.6666666666666</ele><time>2026-04-08T14:24:18.969Z</time></trkpt><trkpt lat="42.3568808" lon="13.2551419"><ele>745.8333333333334</ele><time>2026-04-08T14:24:20.969Z</time></trkpt><trkpt lat="42.3568795" lon="13.2550357"><ele>747.0</ele><time>2026-04-08T14:24:30.969Z</time></trkpt><trkpt lat="42.3567841" lon="13.2549598"><ele>747.0</ele><time>2026-04-08T14:24:32.97Z</time></trkpt><trkpt lat="42.3567142" lon="13.254925"><ele>747.0</ele><time>2026-04-08T14:24:33.97Z</time></trkpt><trkpt lat="42.356666" lon="13.2548135"><ele>747.0</ele><time>2026-04-08T14:24:35.969Z</time></trkpt><trkpt lat="42.3567176" lon="13.2546983"><ele>747.0</ele><time>2026-04-08T14:24:37.969Z</time></trkpt><trkpt lat="42.3567631" lon="13.2546096"><ele>747.0</ele><time>2026-04-08T14:24:38.969Z</time></trkpt><trkpt lat="42.3568166" lon="13.2544973"><ele>747.0</ele><time>2026-04-08T14:24:39.969Z</time></trkpt><trkpt lat="42.3568542" lon="13.2543678"><ele>748.4000000000001</ele><time>2026-04-08T14:24:40.969Z</time></trkpt><trkpt lat="42.3568792" lon="13.2542347"><ele>749.8000000000001</ele><time>2026-04-08T14:24:41.969Z</time></trkpt><trkpt lat="42.3569013" lon="13.2541073"><ele>751.2</ele><time>2026-04-08T14:24:42.969Z</time></trkpt><trkpt lat="42.3569052" lon="13.2539832"><ele>752.6</ele><time>2026-04-08T14:24:43.969Z</time></trkpt><trkpt lat="42.3569093" lon="13.2538709"><ele>754.0</ele><time>2026-04-08T14:24:44.969Z</time></trkpt><trkpt lat="42.3569111" lon="13.2537623"><ele>754.3333333333334</ele><time>2026-04-08T14:24:45.969Z</time></trkpt><trkpt lat="42.3569086" lon="13.2536556"><ele>754.6666666666667</ele><time>2026-04-08T14:24:46.969Z</time></trkpt><trkpt lat="42.3569087" lon="13.2535494"><ele>755.0</ele><time>2026-04-08T14:24:47.969Z</time></trkpt><trkpt lat="42.3569046" lon="13.2534338"><ele>755.3333333333334</ele><time>2026-04-08T14:24:48.97Z</time></trkpt><trkpt lat="42.3569063" lon="13.2533037"><ele>755.6666666666666</ele><time>2026-04-08T14:24:49.969Z</time></trkpt><trkpt lat="42.3569058" lon="13.2531611"><ele>756.0</ele><time>2026-04-08T14:24:50.969Z</time></trkpt><trkpt lat="42.3569084" lon="13.2530287"><ele>756.4</ele><time>2026-04-08T14:24:51.969Z</time></trkpt><trkpt lat="42.3569175" lon="13.2529195"><ele>756.8</ele><time>2026-04-08T14:24:52.969Z</time></trkpt><trkpt lat="42.3569495" lon="13.2527994"><ele>757.1999999999999</ele><time>2026-04-08T14:24:54.97Z</time></trkpt><trkpt lat="42.3570433" lon="13.2527305"><ele>757.5999999999999</ele><time>2026-04-08T14:24:56.969Z</time></trkpt><trkpt lat="42.3571229" lon="13.2526954"><ele>758.0</ele><time>2026-04-08T14:24:57.969Z</time></trkpt><trkpt lat="42.3572046" lon="13.2526527"><ele>758.8</ele><time>2026-04-08T14:24:58.97Z</time></trkpt><trkpt lat="42.3572733" lon="13.2525852"><ele>759.5999999999999</ele><time>2026-04-08T14:24:59.969Z</time></trkpt><trkpt lat="42.3573252" lon="13.2524862"><ele>760.4000000000001</ele><time>2026-04-08T14:25:00.969Z</time></trkpt><trkpt lat="42.3573793" lon="13.2523579"><ele>761.2</ele><time>2026-04-08T14:25:01.969Z</time></trkpt><trkpt lat="42.3574225" lon="13.2522181"><ele>762.0</ele><time>2026-04-08T14:25:02.969Z</time></trkpt><trkpt lat="42.3574694" lon="13.2520577"><ele>763.25</ele><time>2026-04-08T14:25:03.969Z</time></trkpt><trkpt lat="42.3575186" lon="13.2518945"><ele>764.5</ele><time>2026-04-08T14:25:04.969Z</time></trkpt><trkpt lat="42.3575624" lon="13.2517237"><ele>765.75</ele><time>2026-04-08T14:25:05.969Z</time></trkpt><trkpt lat="42.3576119" lon="13.2515474"><ele>767.0</ele><time>2026-04-08T14:25:06.969Z</time></trkpt><trkpt lat="42.3576701" lon="13.2513771"><ele>767.75</ele><time>2026-04-08T14:25:07.969Z</time></trkpt><trkpt lat="42.3577415" lon="13.2512201"><ele>768.5</ele><time>2026-04-08T14:25:08.969Z</time></trkpt><trkpt lat="42.357812" lon="13.2510642"><ele>769.25</ele><time>2026-04-08T14:25:09.969Z</time></trkpt><trkpt lat="42.3578875" lon="13.2509113"><ele>770.0</ele><time>2026-04-08T14:25:10.969Z</time></trkpt><trkpt lat="42.3579687" lon="13.2507719"><ele>770.2</ele><time>2026-04-08T14:25:11.969Z</time></trkpt><trkpt lat="42.3580514" lon="13.250645"><ele>770.4</ele><time>2026-04-08T14:25:12.969Z</time></trkpt><trkpt lat="42.3581421" lon="13.2505145"><ele>770.5999999999999</ele><time>2026-04-08T14:25:13.969Z</time></trkpt><trkpt lat="42.358206" lon="13.2504253"><ele>770.8</ele><time>2026-04-08T14:25:14.969Z</time></trkpt><trkpt lat="42.3582615" lon="13.250331"><ele>771.0</ele><time>2026-04-08T14:25:15.969Z</time></trkpt><trkpt lat="42.3582915" lon="13.2502436"><ele>772.8</ele><time>2026-04-08T14:25:16.969Z</time></trkpt><trkpt lat="42.3583065" lon="13.2501484"><ele>774.5999999999999</ele><time>2026-04-08T14:25:17.969Z</time></trkpt><trkpt lat="42.3582946" lon="13.2500301"><ele>776.4</ele><time>2026-04-08T14:25:18.969Z</time></trkpt><trkpt lat="42.3582736" lon="13.249905"><ele>778.2</ele><time>2026-04-08T14:25:19.969Z</time></trkpt><trkpt lat="42.3582536" lon="13.2497713"><ele>780.0</ele><time>2026-04-08T14:25:20.969Z</time></trkpt><trkpt lat="42.3582484" lon="13.2496343"><ele>781.2</ele><time>2026-04-08T14:25:21.969Z</time></trkpt><trkpt lat="42.3582651" lon="13.2494897"><ele>782.4</ele><time>2026-04-08T14:25:22.97Z</time></trkpt><trkpt lat="42.358294" lon="13.2493475"><ele>783.5999999999999</ele><time>2026-04-08T14:25:23.97Z</time></trkpt><trkpt lat="42.3583315" lon="13.2492044"><ele>784.8</ele><time>2026-04-08T14:25:24.97Z</time></trkpt><trkpt lat="42.3583609" lon="13.2490688"><ele>786.0</ele><time>2026-04-08T14:25:25.97Z</time></trkpt><trkpt lat="42.3583919" lon="13.24895"><ele>787.0</ele><time>2026-04-08T14:25:26.969Z</time></trkpt><trkpt lat="42.358425" lon="13.2488488"><ele>788.0</ele><time>2026-04-08T14:25:27.969Z</time></trkpt><trkpt lat="42.3585073" lon="13.2487217"><ele>789.0</ele><time>2026-04-08T14:25:29.969Z</time></trkpt><trkpt lat="42.3586641" lon="13.2486772"><ele>790.0</ele><time>2026-04-08T14:25:31.969Z</time></trkpt><trkpt lat="42.3587593" lon="13.2486358"><ele>790.0</ele><time>2026-04-08T14:25:32.969Z</time></trkpt><trkpt lat="42.3588501" lon="13.2485645"><ele>790.0</ele><time>2026-04-08T14:25:33.969Z</time></trkpt><trkpt lat="42.3589395" lon="13.2485121"><ele>790.0</ele><time>2026-04-08T14:25:34.969Z</time></trkpt><trkpt lat="42.3590409" lon="13.2484405"><ele>790.0</ele><time>2026-04-08T14:25:35.969Z</time></trkpt><trkpt lat="42.3591363" lon="13.2484084"><ele>790.0</ele><time>2026-04-08T14:25:36.969Z</time></trkpt><trkpt lat="42.3592422" lon="13.248404"><ele>791.8</ele><time>2026-04-08T14:25:37.969Z</time></trkpt><trkpt lat="42.3593485" lon="13.2484244"><ele>793.6</ele><time>2026-04-08T14:25:38.969Z</time></trkpt><trkpt lat="42.3594582" lon="13.2484367"><ele>795.4000000000001</ele><time>2026-04-08T14:25:39.969Z</time></trkpt><trkpt lat="42.3595651" lon="13.2484449"><ele>797.2</ele><time>2026-04-08T14:25:40.969Z</time></trkpt><trkpt lat="42.3596804" lon="13.2484355"><ele>799.0</ele><time>2026-04-08T14:25:41.969Z</time></trkpt><trkpt lat="42.3598001" lon="13.2484159"><ele>800.75</ele><time>2026-04-08T14:25:42.969Z</time></trkpt><trkpt lat="42.3599233" lon="13.2484026"><ele>802.5</ele><time>2026-04-08T14:25:43.97Z</time></trkpt><trkpt lat="42.3600452" lon="13.2484092"><ele>804.25</ele><time>2026-04-08T14:25:44.969Z</time></trkpt><trkpt lat="42.3601625" lon="13.2484518"><ele>806.0</ele><time>2026-04-08T14:25:45.969Z</time></trkpt><trkpt lat="42.3602671" lon="13.2485216"><ele>806.0</ele><time>2026-04-08T14:25:46.969Z</time></trkpt><trkpt lat="42.3603526" lon="13.2486304"><ele>806.0</ele><time>2026-04-08T14:25:47.969Z</time></trkpt><trkpt lat="42.3604243" lon="13.2487423"><ele>806.0</ele><time>2026-04-08T14:25:48.969Z</time></trkpt><trkpt lat="42.3605025" lon="13.2488404"><ele>806.0</ele><time>2026-04-08T14:25:49.969Z</time></trkpt><trkpt lat="42.3605855" lon="13.2489207"><ele>806.0</ele><time>2026-04-08T14:25:50.97Z</time></trkpt><trkpt lat="42.360667" lon="13.248987"><ele>806.3333333333334</ele><time>2026-04-08T14:25:51.969Z</time></trkpt><trkpt lat="42.3607591" lon="13.2490524"><ele>806.6666666666667</ele><time>2026-04-08T14:25:52.969Z</time></trkpt><trkpt lat="42.3608538" lon="13.2491088"><ele>807.0</ele><time>2026-04-08T14:25:53.97Z</time></trkpt><trkpt lat="42.3609375" lon="13.2491358"><ele>807.3333333333333</ele><time>2026-04-08T14:25:54.969Z</time></trkpt><trkpt lat="42.3610099" lon="13.2491583"><ele>807.6666666666666</ele><time>2026-04-08T14:25:55.969Z</time></trkpt><trkpt lat="42.3610769" lon="13.249171"><ele>808.0</ele><time>2026-04-08T14:25:56.97Z</time></trkpt><trkpt lat="42.3611433" lon="13.2491798"><ele>808.0</ele><time>2026-04-08T14:25:57.969Z</time></trkpt><trkpt lat="42.3612717" lon="13.2491825"><ele>808.0</ele><time>2026-04-08T14:25:59.969Z</time></trkpt><trkpt lat="42.3613521" lon="13.2491501"><ele>808.0</ele><time>2026-04-08T14:26:01.97Z</time></trkpt><trkpt lat="42.3613066" lon="13.2490454"><ele>808.0</ele><time>2026-04-08T14:26:04.97Z</time></trkpt><trkpt lat="42.3611862" lon="13.2489806"><ele>808.0</ele><time>2026-04-08T14:26:06.969Z</time></trkpt><trkpt lat="42.3611272" lon="13.2489156"><ele>810.8</ele><time>2026-04-08T14:26:07.969Z</time></trkpt><trkpt lat="42.3610723" lon="13.2488351"><ele>813.5999999999999</ele><time>2026-04-08T14:26:08.969Z</time></trkpt><trkpt lat="42.3610195" lon="13.248737"><ele>816.4000000000001</ele><time>2026-04-08T14:26:09.969Z</time></trkpt><trkpt lat="42.3609617" lon="13.2485963"><ele>819.2</ele><time>2026-04-08T14:26:10.969Z</time></trkpt><trkpt lat="42.3609107" lon="13.2484436"><ele>822.0</ele><time>2026-04-08T14:26:11.969Z</time></trkpt><trkpt lat="42.3608528" lon="13.2482635"><ele>828.0</ele><time>2026-04-08T14:26:12.969Z</time></trkpt><trkpt lat="42.3607943" lon="13.2480728"><ele>834.0</ele><time>2026-04-08T14:26:13.969Z</time></trkpt><trkpt lat="42.3607291" lon="13.2478844"><ele>840.0</ele><time>2026-04-08T14:26:14.969Z</time></trkpt><trkpt lat="42.360661" lon="13.2476894"><ele>840.0</ele><time>2026-04-08T14:26:15.969Z</time></trkpt><trkpt lat="42.360581" lon="13.2475072"><ele>840.0</ele><time>2026-04-08T14:26:16.969Z</time></trkpt><trkpt lat="42.3605055" lon="13.2473483"><ele>840.0</ele><time>2026-04-08T14:26:17.97Z</time></trkpt><trkpt lat="42.3604448" lon="13.2472213"><ele>840.0</ele><time>2026-04-08T14:26:18.969Z</time></trkpt><trkpt lat="42.3603899" lon="13.2471071"><ele>839.2</ele><time>2026-04-08T14:26:19.97Z</time></trkpt><trkpt lat="42.3603236" lon="13.247015"><ele>838.4</ele><time>2026-04-08T14:26:20.969Z</time></trkpt><trkpt lat="42.3602383" lon="13.2469624"><ele>837.5999999999999</ele><time>2026-04-08T14:26:21.969Z</time></trkpt><trkpt lat="42.3601444" lon="13.246941"><ele>836.8</ele><time>2026-04-08T14:26:22.969Z</time></trkpt><trkpt lat="42.3600312" lon="13.2469439"><ele>836.0</ele><time>2026-04-08T14:26:23.969Z</time></trkpt><trkpt lat="42.3599281" lon="13.2469421"><ele>836.0000000000001</ele><time>2026-04-08T14:26:24.969Z</time></trkpt><trkpt lat="42.3598382" lon="13.2469212"><ele>836.0</ele><time>2026-04-08T14:26:25.97Z</time></trkpt><trkpt lat="42.3597754" lon="13.2468616"><ele>836.0</ele><time>2026-04-08T14:26:26.97Z</time></trkpt><trkpt lat="42.3597417" lon="13.2467762"><ele>836.0</ele><time>2026-04-08T14:26:27.969Z</time></trkpt><trkpt lat="42.359748" lon="13.2466837"><ele>836.0000000000001</ele><time>2026-04-08T14:26:28.97Z</time></trkpt><trkpt lat="42.3597896" lon="13.2466058"><ele>836.0</ele><time>2026-04-08T14:26:29.969Z</time></trkpt><trkpt lat="42.3598579" lon="13.2465415"><ele>836.0</ele><time>2026-04-08T14:26:30.969Z</time></trkpt><trkpt lat="42.3599412" lon="13.2464835"><ele>836.0</ele><time>2026-04-08T14:26:31.969Z</time></trkpt><trkpt lat="42.3600401" lon="13.2464262"><ele>836.0</ele><time>2026-04-08T14:26:32.97Z</time></trkpt><trkpt lat="42.3601469" lon="13.246376"><ele>836.0</ele><time>2026-04-08T14:26:33.969Z</time></trkpt><trkpt lat="42.3602611" lon="13.2463385"><ele>836.0</ele><time>2026-04-08T14:26:34.969Z</time></trkpt><trkpt lat="42.3603854" lon="13.2463132"><ele>833.5</ele><time>2026-04-08T14:26:35.969Z</time></trkpt><trkpt lat="42.3605135" lon="13.2462859"><ele>831.0</ele><time>2026-04-08T14:26:36.969Z</time></trkpt><trkpt lat="42.360639" lon="13.2462523"><ele>828.5</ele><time>2026-04-08T14:26:37.969Z</time></trkpt><trkpt lat="42.3607635" lon="13.2462185"><ele>826.0</ele><time>2026-04-08T14:26:38.97Z</time></trkpt><trkpt lat="42.3608846" lon="13.2461845"><ele>831.25</ele><time>2026-04-08T14:26:39.969Z</time></trkpt><trkpt lat="42.3609935" lon="13.2461202"><ele>836.5</ele><time>2026-04-08T14:26:40.969Z</time></trkpt><trkpt lat="42.3611086" lon="13.2460378"><ele>841.75</ele><time>2026-04-08T14:26:41.969Z</time></trkpt><trkpt lat="42.3612144" lon="13.2459639"><ele>847.0</ele><time>2026-04-08T14:26:42.969Z</time></trkpt><trkpt lat="42.3613245" lon="13.2458763"><ele>848.75</ele><time>2026-04-08T14:26:43.969Z</time></trkpt><trkpt lat="42.3614391" lon="13.2457969"><ele>850.5</ele><time>2026-04-08T14:26:44.969Z</time></trkpt><trkpt lat="42.3615547" lon="13.2457102"><ele>852.25</ele><time>2026-04-08T14:26:45.969Z</time></trkpt><trkpt lat="42.3616638" lon="13.245624"><ele>854.0</ele><time>2026-04-08T14:26:46.969Z</time></trkpt><trkpt lat="42.3617764" lon="13.2455166"><ele>854.0</ele><time>2026-04-08T14:26:47.969Z</time></trkpt><trkpt lat="42.3618711" lon="13.2454046"><ele>854.0000000000001</ele><time>2026-04-08T14:26:48.969Z</time></trkpt><trkpt lat="42.3619524" lon="13.2453"><ele>854.0000000000001</ele><time>2026-04-08T14:26:49.969Z</time></trkpt><trkpt lat="42.3620223" lon="13.2452082"><ele>854.0</ele><time>2026-04-08T14:26:50.969Z</time></trkpt><trkpt lat="42.3620884" lon="13.2451349"><ele>854.0</ele><time>2026-04-08T14:26:51.969Z</time></trkpt><trkpt lat="42.3621543" lon="13.2451132"><ele>854.0</ele><time>2026-04-08T14:26:52.97Z</time></trkpt><trkpt lat="42.3622195" lon="13.2452225"><ele>854.0</ele><time>2026-04-08T14:26:54.97Z</time></trkpt><trkpt lat="42.3621665" lon="13.2453868"><ele>854.0</ele><time>2026-04-08T14:26:56.97Z</time></trkpt><trkpt lat="42.3620945" lon="13.2454914"><ele>854.0</ele><time>2026-04-08T14:26:57.969Z</time></trkpt><trkpt lat="42.3620229" lon="13.245602"><ele>856.0</ele><time>2026-04-08T14:26:58.969Z</time></trkpt><trkpt lat="42.3619503" lon="13.2457118"><ele>858.0000000000001</ele><time>2026-04-08T14:26:59.97Z</time></trkpt><trkpt lat="42.3619036" lon="13.2458263"><ele>860.0000000000001</ele><time>2026-04-08T14:27:00.969Z</time></trkpt><trkpt lat="42.3618572" lon="13.2459284"><ele>862.0</ele><time>2026-04-08T14:27:01.969Z</time></trkpt><trkpt lat="42.3618397" lon="13.2460339"><ele>864.0</ele><time>2026-04-08T14:27:02.969Z</time></trkpt><trkpt lat="42.3618763" lon="13.2461803"><ele>864.0</ele><time>2026-04-08T14:27:04.97Z</time></trkpt><trkpt lat="42.3619805" lon="13.2462291"><ele>864.0</ele><time>2026-04-08T14:27:06.969Z</time></trkpt><trkpt lat="42.3620695" lon="13.2461807"><ele>864.0</ele><time>2026-04-08T14:27:08.969Z</time></trkpt><trkpt lat="42.3621012" lon="13.2460951"><ele>864.0</ele><time>2026-04-08T14:27:11.97Z</time></trkpt><trkpt lat="42.3621491" lon="13.2460171"><ele>864.0</ele><time>2026-04-08T14:27:13.969Z</time></trkpt><trkpt lat="42.3622044" lon="13.2459575"><ele>864.0</ele><time>2026-04-08T14:27:14.969Z</time></trkpt><trkpt lat="42.3622671" lon="13.2458847"><ele>864.4000000000001</ele><time>2026-04-08T14:27:15.969Z</time></trkpt><trkpt lat="42.3623322" lon="13.2457978"><ele>864.8000000000001</ele><time>2026-04-08T14:27:16.969Z</time></trkpt><trkpt lat="42.3624076" lon="13.245704"><ele>865.1999999999999</ele><time>2026-04-08T14:27:17.97Z</time></trkpt><trkpt lat="42.3624819" lon="13.2456153"><ele>865.5999999999999</ele><time>2026-04-08T14:27:18.969Z</time></trkpt><trkpt lat="42.3625663" lon="13.2455253"><ele>866.0</ele><time>2026-04-08T14:27:19.97Z</time></trkpt><trkpt lat="42.3626537" lon="13.245446"><ele>868.25</ele><time>2026-04-08T14:27:20.969Z</time></trkpt><trkpt lat="42.3627511" lon="13.2453623"><ele>870.5</ele><time>2026-04-08T14:27:21.969Z</time></trkpt><trkpt lat="42.3628537" lon="13.245278"><ele>872.75</ele><time>2026-04-08T14:27:22.969Z</time></trkpt><trkpt lat="42.3629597" lon="13.2451892"><ele>875.0</ele><time>2026-04-08T14:27:23.969Z</time></trkpt><trkpt lat="42.3630706" lon="13.2451007"><ele>876.75</ele><time>2026-04-08T14:27:24.969Z</time></trkpt><trkpt lat="42.3631816" lon="13.2450098"><ele>878.5</ele><time>2026-04-08T14:27:25.969Z</time></trkpt><trkpt lat="42.3632939" lon="13.2449073"><ele>880.25</ele><time>2026-04-08T14:27:26.969Z</time></trkpt><trkpt lat="42.363409" lon="13.2448116"><ele>882.0</ele><time>2026-04-08T14:27:27.969Z</time></trkpt><trkpt lat="42.3635255" lon="13.2447249"><ele>886.75</ele><time>2026-04-08T14:27:28.969Z</time></trkpt><trkpt lat="42.3636402" lon="13.2446471"><ele>891.5</ele><time>2026-04-08T14:27:29.969Z</time></trkpt><trkpt lat="42.3637552" lon="13.2445702"><ele>896.25</ele><time>2026-04-08T14:27:30.969Z</time></trkpt><trkpt lat="42.3638689" lon="13.2444958"><ele>901.0</ele><time>2026-04-08T14:27:31.97Z</time></trkpt><trkpt lat="42.3639761" lon="13.2444173"><ele>901.0</ele><time>2026-04-08T14:27:32.969Z</time></trkpt><trkpt lat="42.3640818" lon="13.24433"><ele>901.0</ele><time>2026-04-08T14:27:33.969Z</time></trkpt><trkpt lat="42.3641942" lon="13.2442589"><ele>901.0</ele><time>2026-04-08T14:27:34.969Z</time></trkpt><trkpt lat="42.3643101" lon="13.2442098"><ele>901.0</ele><time>2026-04-08T14:27:35.97Z</time></trkpt><trkpt lat="42.3644272" lon="13.2441786"><ele>901.0</ele><time>2026-04-08T14:27:36.969Z</time></trkpt><trkpt lat="42.3645476" lon="13.2441648"><ele>901.0</ele><time>2026-04-08T14:27:37.969Z</time></trkpt><trkpt lat="42.364665" lon="13.2441836"><ele>901.0</ele><time>2026-04-08T14:27:38.969Z</time></trkpt><trkpt lat="42.3647773" lon="13.2442003"><ele>901.0</ele><time>2026-04-08T14:27:39.969Z</time></trkpt><trkpt lat="42.3648758" lon="13.2442588"><ele>900.8</ele><time>2026-04-08T14:27:40.969Z</time></trkpt><trkpt lat="42.3649509" lon="13.2443539"><ele>900.5999999999999</ele><time>2026-04-08T14:27:41.969Z</time></trkpt><trkpt lat="42.3650149" lon="13.2444612"><ele>900.4</ele><time>2026-04-08T14:27:42.969Z</time></trkpt><trkpt lat="42.3650724" lon="13.2445792"><ele>900.2</ele><time>2026-04-08T14:27:43.969Z</time></trkpt><trkpt lat="42.3651301" lon="13.2447014"><ele>900.0</ele><time>2026-04-08T14:27:44.969Z</time></trkpt><trkpt lat="42.3651812" lon="13.2448186"><ele>897.6</ele><time>2026-04-08T14:27:45.969Z</time></trkpt><trkpt lat="42.3652367" lon="13.2449303"><ele>895.2</ele><time>2026-04-08T14:27:46.969Z</time></trkpt><trkpt lat="42.3652952" lon="13.2450332"><ele>892.8</ele><time>2026-04-08T14:27:47.97Z</time></trkpt><trkpt lat="42.3653538" lon="13.2451245"><ele>890.4</ele><time>2026-04-08T14:27:48.969Z</time></trkpt><trkpt lat="42.3653988" lon="13.2452167"><ele>888.0</ele><time>2026-04-08T14:27:49.969Z</time></trkpt><trkpt lat="42.3654633" lon="13.2453172"><ele>890.0</ele><time>2026-04-08T14:27:51.969Z</time></trkpt><trkpt lat="42.3655477" lon="13.2453277"><ele>892.0</ele><time>2026-04-08T14:27:54.969Z</time></trkpt><trkpt lat="42.3656454" lon="13.2452838"><ele>894.0</ele><time>2026-04-08T14:27:56.969Z</time></trkpt><trkpt lat="42.3657039" lon="13.2452269"><ele>896.0</ele><time>2026-04-08T14:27:57.97Z</time></trkpt><trkpt lat="42.3657654" lon="13.2451644"><ele>898.0</ele><time>2026-04-08T14:27:58.969Z</time></trkpt><trkpt lat="42.3658325" lon="13.2451069"><ele>900.0</ele><time>2026-04-08T14:27:59.969Z</time></trkpt><trkpt lat="42.36589" lon="13.2450474"><ele>900.0</ele><time>2026-04-08T14:28:00.969Z</time></trkpt><trkpt lat="42.3659624" lon="13.245"><ele>900.0</ele><time>2026-04-08T14:28:01.969Z</time></trkpt><trkpt lat="42.3660199" lon="13.2449266"><ele>900.0</ele><time>2026-04-08T14:28:02.969Z</time></trkpt><trkpt lat="42.3660816" lon="13.2448377"><ele>900.0</ele><time>2026-04-08T14:28:03.97Z</time></trkpt><trkpt lat="42.3661366" lon="13.244743"><ele>900.0</ele><time>2026-04-08T14:28:04.969Z</time></trkpt><trkpt lat="42.3661897" lon="13.2446393"><ele>900.0</ele><time>2026-04-08T14:28:05.97Z</time></trkpt><trkpt lat="42.3662462" lon="13.244534"><ele>901.8333333333334</ele><time>2026-04-08T14:28:06.969Z</time></trkpt><trkpt lat="42.3663117" lon="13.2444324"><ele>903.6666666666667</ele><time>2026-04-08T14:28:07.969Z</time></trkpt><trkpt lat="42.3663835" lon="13.2443514"><ele>905.5</ele><time>2026-04-08T14:28:08.969Z</time></trkpt><trkpt lat="42.3664584" lon="13.2442942"><ele>907.3333333333334</ele><time>2026-04-08T14:28:09.97Z</time></trkpt><trkpt lat="42.3665311" lon="13.2442627"><ele>909.1666666666667</ele><time>2026-04-08T14:28:10.97Z</time></trkpt><trkpt lat="42.3666072" lon="13.2442758"><ele>911.0</ele><time>2026-04-08T14:28:11.969Z</time></trkpt><trkpt lat="42.3666829" lon="13.2443172"><ele>911.0</ele><time>2026-04-08T14:28:12.969Z</time></trkpt><trkpt lat="42.3667616" lon="13.2443937"><ele>911.0</ele><time>2026-04-08T14:28:13.969Z</time></trkpt><trkpt lat="42.3668423" lon="13.244499"><ele>911.0</ele><time>2026-04-08T14:28:14.969Z</time></trkpt><trkpt lat="42.3669167" lon="13.2446141"><ele>911.0</ele><time>2026-04-08T14:28:15.969Z</time></trkpt><trkpt lat="42.3669971" lon="13.2447526"><ele>910.75</ele><time>2026-04-08T14:28:16.97Z</time></trkpt><trkpt lat="42.3670709" lon="13.2449033"><ele>910.5</ele><time>2026-04-08T14:28:17.97Z</time></trkpt><trkpt lat="42.3671397" lon="13.245059"><ele>910.25</ele><time>2026-04-08T14:28:18.969Z</time></trkpt><trkpt lat="42.3672057" lon="13.2452273"><ele>910.0</ele><time>2026-04-08T14:28:19.969Z</time></trkpt><trkpt lat="42.3672632" lon="13.2453927"><ele>910.0</ele><time>2026-04-08T14:28:20.969Z</time></trkpt><trkpt lat="42.3673247" lon="13.2455531"><ele>910.0</ele><time>2026-04-08T14:28:21.969Z</time></trkpt><trkpt lat="42.367379" lon="13.2456917"><ele>910.0</ele><time>2026-04-08T14:28:22.969Z</time></trkpt><trkpt lat="42.36744" lon="13.2458176"><ele>910.0</ele><time>2026-04-08T14:28:23.969Z</time></trkpt><trkpt lat="42.3674979" lon="13.2459227"><ele>909.9999999999999</ele><time>2026-04-08T14:28:24.97Z</time></trkpt><trkpt lat="42.3675572" lon="13.2459985"><ele>910.0</ele><time>2026-04-08T14:28:25.969Z</time></trkpt><trkpt lat="42.3676399" lon="13.2460414"><ele>910.0</ele><time>2026-04-08T14:28:27.969Z</time></trkpt><trkpt lat="42.3676469" lon="13.2459111"><ele>910.0</ele><time>2026-04-08T14:28:30.97Z</time></trkpt><trkpt lat="42.367623" lon="13.2458277"><ele>909.9999999999999</ele><time>2026-04-08T14:28:31.969Z</time></trkpt><trkpt lat="42.3675954" lon="13.2457216"><ele>910.0</ele><time>2026-04-08T14:28:32.97Z</time></trkpt><trkpt lat="42.3675722" lon="13.2456057"><ele>910.0</ele><time>2026-04-08T14:28:33.969Z</time></trkpt><trkpt lat="42.3675483" lon="13.2454694"><ele>910.0</ele><time>2026-04-08T14:28:34.969Z</time></trkpt><trkpt lat="42.3675205" lon="13.2453183"><ele>910.0</ele><time>2026-04-08T14:28:35.97Z</time></trkpt><trkpt lat="42.3674904" lon="13.2451565"><ele>910.0</ele><time>2026-04-08T14:28:36.969Z</time></trkpt><trkpt lat="42.3674635" lon="13.2449851"><ele>910.0</ele><time>2026-04-08T14:28:37.97Z</time></trkpt><trkpt lat="42.3674328" lon="13.2448137"><ele>910.0</ele><time>2026-04-08T14:28:38.97Z</time></trkpt><trkpt lat="42.367387" lon="13.2446418"><ele>910.0</ele><time>2026-04-08T14:28:39.97Z</time></trkpt><trkpt lat="42.3673317" lon="13.2444706"><ele>910.0</ele><time>2026-04-08T14:28:40.969Z</time></trkpt><trkpt lat="42.3672692" lon="13.2443047"><ele>910.25</ele><time>2026-04-08T14:28:41.969Z</time></trkpt><trkpt lat="42.3672016" lon="13.2441388"><ele>910.5</ele><time>2026-04-08T14:28:42.97Z</time></trkpt><trkpt lat="42.3671367" lon="13.2439684"><ele>910.75</ele><time>2026-04-08T14:28:43.969Z</time></trkpt><trkpt lat="42.3670732" lon="13.2438018"><ele>911.0</ele><time>2026-04-08T14:28:44.969Z</time></trkpt><trkpt lat="42.3670093" lon="13.243636"><ele>914.5999999999999</ele><time>2026-04-08T14:28:45.97Z</time></trkpt><trkpt lat="42.366938" lon="13.2434882"><ele>918.1999999999999</ele><time>2026-04-08T14:28:46.969Z</time></trkpt><trkpt lat="42.3668802" lon="13.2433573"><ele>921.8000000000001</ele><time>2026-04-08T14:28:47.97Z</time></trkpt><trkpt lat="42.3668163" lon="13.2432418"><ele>925.4000000000001</ele><time>2026-04-08T14:28:48.97Z</time></trkpt><trkpt lat="42.366747" lon="13.2431585"><ele>929.0</ele><time>2026-04-08T14:28:49.969Z</time></trkpt><trkpt lat="42.3666694" lon="13.2430955"><ele>928.6</ele><time>2026-04-08T14:28:50.969Z</time></trkpt><trkpt lat="42.3665823" lon="13.2430648"><ele>928.2</ele><time>2026-04-08T14:28:51.969Z</time></trkpt><trkpt lat="42.3665004" lon="13.2430667"><ele>927.8000000000001</ele><time>2026-04-08T14:28:52.969Z</time></trkpt><trkpt lat="42.3664127" lon="13.2430962"><ele>927.4000000000001</ele><time>2026-04-08T14:28:53.969Z</time></trkpt><trkpt lat="42.3663292" lon="13.2431601"><ele>927.0</ele><time>2026-04-08T14:28:54.969Z</time></trkpt><trkpt lat="42.3662531" lon="13.2432549"><ele>927.0</ele><time>2026-04-08T14:28:55.969Z</time></trkpt><trkpt lat="42.3661766" lon="13.2433596"><ele>927.0</ele><time>2026-04-08T14:28:56.969Z</time></trkpt><trkpt lat="42.3661221" lon="13.2434361"><ele>927.0</ele><time>2026-04-08T14:28:57.969Z</time></trkpt><trkpt lat="42.366035" lon="13.2434924"><ele>927.0</ele><time>2026-04-08T14:28:59.969Z</time></trkpt><trkpt lat="42.3659695" lon="13.243436"><ele>927.0</ele><time>2026-04-08T14:29:01.97Z</time></trkpt><trkpt lat="42.3659778" lon="13.2432998"><ele>927.0</ele><time>2026-04-08T14:29:03.969Z</time></trkpt><trkpt lat="42.3660102" lon="13.2432115"><ele>927.0</ele><time>2026-04-08T14:29:04.969Z</time></trkpt><trkpt lat="42.3660592" lon="13.2430906"><ele>927.0</ele><time>2026-04-08T14:29:05.97Z</time></trkpt><trkpt lat="42.3661022" lon="13.2429513"><ele>927.0</ele><time>2026-04-08T14:29:06.969Z</time></trkpt><trkpt lat="42.3661461" lon="13.2427952"><ele>927.0</ele><time>2026-04-08T14:29:07.969Z</time></trkpt><trkpt lat="42.3661864" lon="13.2426383"><ele>930.5</ele><time>2026-04-08T14:29:08.969Z</time></trkpt><trkpt lat="42.3662322" lon="13.2424866"><ele>934.0</ele><time>2026-04-08T14:29:09.969Z</time></trkpt><trkpt lat="42.3662764" lon="13.2423379"><ele>937.5</ele><time>2026-04-08T14:29:10.969Z</time></trkpt><trkpt lat="42.3663387" lon="13.2422049"><ele>941.0</ele><time>2026-04-08T14:29:11.969Z</time></trkpt><trkpt lat="42.3664043" lon="13.2420717"><ele>943.0</ele><time>2026-04-08T14:29:12.969Z</time></trkpt><trkpt lat="42.3664706" lon="13.2419466"><ele>944.9999999999999</ele><time>2026-04-08T14:29:13.969Z</time></trkpt><trkpt lat="42.3665409" lon="13.2418404"><ele>946.9999999999999</ele><time>2026-04-08T14:29:14.97Z</time></trkpt><trkpt lat="42.3666147" lon="13.2417416"><ele>949.0</ele><time>2026-04-08T14:29:15.969Z</time></trkpt><trkpt lat="42.3666948" lon="13.2416593"><ele>951.0</ele><time>2026-04-08T14:29:16.969Z</time></trkpt><trkpt lat="42.3667756" lon="13.2415851"><ele>951.0</ele><time>2026-04-08T14:29:17.969Z</time></trkpt><trkpt lat="42.3668514" lon="13.2415395"><ele>950.9999999999999</ele><time>2026-04-08T14:29:18.969Z</time></trkpt><trkpt lat="42.366939" lon="13.2415047"><ele>950.9999999999999</ele><time>2026-04-08T14:29:19.969Z</time></trkpt><trkpt lat="42.3670258" lon="13.2414683"><ele>951.0</ele><time>2026-04-08T14:29:20.97Z</time></trkpt><trkpt lat="42.3671548" lon="13.2414715"><ele>951.0</ele><time>2026-04-08T14:29:21.969Z</time></trkpt><trkpt lat="42.3672831" lon="13.2414713"><ele>952.75</ele><time>2026-04-08T14:29:22.969Z</time></trkpt><trkpt lat="42.3674211" lon="13.24148"><ele>954.5</ele><time>2026-04-08T14:29:23.969Z</time></trkpt><trkpt lat="42.3675662" lon="13.2414919"><ele>956.25</ele><time>2026-04-08T14:29:24.969Z</time></trkpt><trkpt lat="42.3677189" lon="13.2415078"><ele>958.0</ele><time>2026-04-08T14:29:25.969Z</time></trkpt><trkpt lat="42.3678763" lon="13.2415268"><ele>958.0</ele><time>2026-04-08T14:29:26.969Z</time></trkpt><trkpt lat="42.3680287" lon="13.2415421"><ele>958.0</ele><time>2026-04-08T14:29:27.969Z</time></trkpt><trkpt lat="42.3681766" lon="13.2415519"><ele>958.0</ele><time>2026-04-08T14:29:28.969Z</time></trkpt><trkpt lat="42.3683079" lon="13.2415599"><ele>958.0</ele><time>2026-04-08T14:29:29.969Z</time></trkpt><trkpt lat="42.3684292" lon="13.2415634"><ele>958.0</ele><time>2026-04-08T14:29:30.969Z</time></trkpt><trkpt lat="42.3685374" lon="13.2415653"><ele>958.0</ele><time>2026-04-08T14:29:31.969Z</time></trkpt><trkpt lat="42.3686376" lon="13.2415608"><ele>958.0</ele><time>2026-04-08T14:29:32.969Z</time></trkpt><trkpt lat="42.3687261" lon="13.2415463"><ele>958.0</ele><time>2026-04-08T14:29:33.969Z</time></trkpt><trkpt lat="42.3688035" lon="13.2415137"><ele>958.0</ele><time>2026-04-08T14:29:34.97Z</time></trkpt><trkpt lat="42.36888" lon="13.2414781"><ele>959.4999999999999</ele><time>2026-04-08T14:29:35.969Z</time></trkpt><trkpt lat="42.3689494" lon="13.2414314"><ele>961.0</ele><time>2026-04-08T14:29:36.969Z</time></trkpt><trkpt lat="42.3690192" lon="13.2413723"><ele>962.5</ele><time>2026-04-08T14:29:37.969Z</time></trkpt><trkpt lat="42.3690846" lon="13.2413126"><ele>964.0</ele><time>2026-04-08T14:29:38.97Z</time></trkpt><trkpt lat="42.3691578" lon="13.2412493"><ele>965.4999999999999</ele><time>2026-04-08T14:29:39.969Z</time></trkpt><trkpt lat="42.3692236" lon="13.2411833"><ele>967.0</ele><time>2026-04-08T14:29:40.969Z</time></trkpt><trkpt lat="42.3692924" lon="13.241115"><ele>967.0</ele><time>2026-04-08T14:29:41.97Z</time></trkpt><trkpt lat="42.3693635" lon="13.2410445"><ele>967.0</ele><time>2026-04-08T14:29:42.97Z</time></trkpt><trkpt lat="42.3694395" lon="13.2409666"><ele>967.0</ele><time>2026-04-08T14:29:43.969Z</time></trkpt><trkpt lat="42.3695263" lon="13.2408827"><ele>967.0</ele><time>2026-04-08T14:29:44.969Z</time></trkpt><trkpt lat="42.3696237" lon="13.2407999"><ele>967.0</ele><time>2026-04-08T14:29:45.969Z</time></trkpt><trkpt lat="42.3697297" lon="13.2407176"><ele>968.75</ele><time>2026-04-08T14:29:46.97Z</time></trkpt><trkpt lat="42.3698457" lon="13.2406376"><ele>970.5</ele><time>2026-04-08T14:29:47.969Z</time></trkpt><trkpt lat="42.3699748" lon="13.2405711"><ele>972.25</ele><time>2026-04-08T14:29:48.969Z</time></trkpt><trkpt lat="42.3701141" lon="13.2405116"><ele>974.0</ele><time>2026-04-08T14:29:49.969Z</time></trkpt><trkpt lat="42.3702631" lon="13.2404614"><ele>974.0</ele><time>2026-04-08T14:29:50.969Z</time></trkpt><trkpt lat="42.3704134" lon="13.2404082"><ele>974.0</ele><time>2026-04-08T14:29:51.969Z</time></trkpt><trkpt lat="42.3705402" lon="13.2403523"><ele>974.0</ele><time>2026-04-08T14:29:52.969Z</time></trkpt><trkpt lat="42.3706527" lon="13.2403048"><ele>974.0</ele><time>2026-04-08T14:29:53.969Z</time></trkpt><trkpt lat="42.370752" lon="13.2402784"><ele>977.75</ele><time>2026-04-08T14:29:54.969Z</time></trkpt><trkpt lat="42.3708602" lon="13.2402645"><ele>981.5</ele><time>2026-04-08T14:29:55.969Z</time></trkpt><trkpt lat="42.3709741" lon="13.2402726"><ele>985.25</ele><time>2026-04-08T14:29:56.969Z</time></trkpt><trkpt lat="42.3710971" lon="13.2402913"><ele>989.0</ele><time>2026-04-08T14:29:57.969Z</time></trkpt><trkpt lat="42.3712281" lon="13.2403128"><ele>992.5</ele><time>2026-04-08T14:29:58.969Z</time></trkpt><trkpt lat="42.3713609" lon="13.2403512"><ele>996.0</ele><time>2026-04-08T14:29:59.969Z</time></trkpt><trkpt lat="42.3714829" lon="13.2403919"><ele>999.5</ele><time>2026-04-08T14:30:00.97Z</time></trkpt><trkpt lat="42.3715897" lon="13.2404452"><ele>1003.0</ele><time>2026-04-08T14:30:01.969Z</time></trkpt><trkpt lat="42.371706" lon="13.2404859"><ele>1003.0</ele><time>2026-04-08T14:30:02.969Z</time></trkpt><trkpt lat="42.3718275" lon="13.2405022"><ele>1003.0</ele><time>2026-04-08T14:30:03.969Z</time></trkpt><trkpt lat="42.3719476" lon="13.2404949"><ele>1003.0</ele><time>2026-04-08T14:30:04.969Z</time></trkpt><trkpt lat="42.3720786" lon="13.2404612"><ele>1003.0</ele><time>2026-04-08T14:30:05.969Z</time></trkpt><trkpt lat="42.3722161" lon="13.2404113"><ele>1004.25</ele><time>2026-04-08T14:30:06.969Z</time></trkpt><trkpt lat="42.3723533" lon="13.2403755"><ele>1005.5</ele><time>2026-04-08T14:30:07.97Z</time></trkpt><trkpt lat="42.3724979" lon="13.2403564"><ele>1006.75</ele><time>2026-04-08T14:30:08.969Z</time></trkpt><trkpt lat="42.3726522" lon="13.2403384"><ele>1008.0</ele><time>2026-04-08T14:30:09.97Z</time></trkpt><trkpt lat="42.3728156" lon="13.2403033"><ele>1008.0</ele><time>2026-04-08T14:30:10.969Z</time></trkpt><trkpt lat="42.3729689" lon="13.2402523"><ele>1008.0</ele><time>2026-04-08T14:30:11.969Z</time></trkpt><trkpt lat="42.3731255" lon="13.2401792"><ele>1008.0</ele><time>2026-04-08T14:30:12.97Z</time></trkpt><trkpt lat="42.3732844" lon="13.2400912"><ele>1007.3333333333333</ele><time>2026-04-08T14:30:13.969Z</time></trkpt><trkpt lat="42.3734455" lon="13.2399882"><ele>1006.6666666666666</ele><time>2026-04-08T14:30:14.969Z</time></trkpt><trkpt lat="42.373614" lon="13.2398566"><ele>1006.0</ele><time>2026-04-08T14:30:15.969Z</time></trkpt><trkpt lat="42.37379" lon="13.2397075"><ele>1006.6666666666666</ele><time>2026-04-08T14:30:16.969Z</time></trkpt><trkpt lat="42.3739753" lon="13.2395636"><ele>1007.3333333333333</ele><time>2026-04-08T14:30:17.969Z</time></trkpt><trkpt lat="42.3741679" lon="13.2394165"><ele>1008.0</ele><time>2026-04-08T14:30:18.97Z</time></trkpt><trkpt lat="42.374334" lon="13.239285"><ele>1008.0</ele><time>2026-04-08T14:30:19.969Z</time></trkpt><trkpt lat="42.3744849" lon="13.2391806"><ele>1008.0</ele><time>2026-04-08T14:30:20.969Z</time></trkpt><trkpt lat="42.374608" lon="13.2390726"><ele>1008.0</ele><time>2026-04-08T14:30:21.969Z</time></trkpt><trkpt lat="42.3747094" lon="13.2389598"><ele>1008.0</ele><time>2026-04-08T14:30:22.969Z</time></trkpt><trkpt lat="42.3747957" lon="13.2388375"><ele>1008.5</ele><time>2026-04-08T14:30:23.969Z</time></trkpt><trkpt lat="42.3748699" lon="13.2387085"><ele>1009.0</ele><time>2026-04-08T14:30:24.969Z</time></trkpt><trkpt lat="42.3749266" lon="13.2385456"><ele>1009.5</ele><time>2026-04-08T14:30:25.969Z</time></trkpt><trkpt lat="42.3749852" lon="13.2383791"><ele>1010.0</ele><time>2026-04-08T14:30:26.969Z</time></trkpt><trkpt lat="42.3750472" lon="13.2382255"><ele>1012.0</ele><time>2026-04-08T14:30:27.969Z</time></trkpt><trkpt lat="42.375115" lon="13.2380798"><ele>1014.0</ele><time>2026-04-08T14:30:28.969Z</time></trkpt><trkpt lat="42.3751923" lon="13.237943"><ele>1016.0</ele><time>2026-04-08T14:30:29.969Z</time></trkpt><trkpt lat="42.3752809" lon="13.2378085"><ele>1018.0</ele><time>2026-04-08T14:30:30.969Z</time></trkpt><trkpt lat="42.3753729" lon="13.2376796"><ele>1018.0</ele><time>2026-04-08T14:30:31.97Z</time></trkpt><trkpt lat="42.3754743" lon="13.2375597"><ele>1018.0</ele><time>2026-04-08T14:30:32.969Z</time></trkpt><trkpt lat="42.3755789" lon="13.2374428"><ele>1018.0</ele><time>2026-04-08T14:30:33.969Z</time></trkpt><trkpt lat="42.3756827" lon="13.2373292"><ele>1018.0</ele><time>2026-04-08T14:30:34.969Z</time></trkpt><trkpt lat="42.3757867" lon="13.2372062"><ele>1019.25</ele><time>2026-04-08T14:30:35.97Z</time></trkpt><trkpt lat="42.3758953" lon="13.2370842"><ele>1020.5</ele><time>2026-04-08T14:30:36.969Z</time></trkpt><trkpt lat="42.3760053" lon="13.2369488"><ele>1021.75</ele><time>2026-04-08T14:30:37.969Z</time></trkpt><trkpt lat="42.3761147" lon="13.2368097"><ele>1023.0</ele><time>2026-04-08T14:30:38.969Z</time></trkpt><trkpt lat="42.3762075" lon="13.2366672"><ele>1023.0</ele><time>2026-04-08T14:30:39.97Z</time></trkpt><trkpt lat="42.3762877" lon="13.2365138"><ele>1023.0</ele><time>2026-04-08T14:30:40.969Z</time></trkpt><trkpt lat="42.3763596" lon="13.2363879"><ele>1023.0</ele><time>2026-04-08T14:30:41.97Z</time></trkpt><trkpt lat="42.3764271" lon="13.2362754"><ele>1023.0</ele><time>2026-04-08T14:30:42.969Z</time></trkpt><trkpt lat="42.3764952" lon="13.2361493"><ele>1024.0</ele><time>2026-04-08T14:30:43.969Z</time></trkpt><trkpt lat="42.3765769" lon="13.2360264"><ele>1025.0</ele><time>2026-04-08T14:30:44.97Z</time></trkpt><trkpt lat="42.3766631" lon="13.2358669"><ele>1026.0</ele><time>2026-04-08T14:30:45.969Z</time></trkpt><trkpt lat="42.3767655" lon="13.235712"><ele>1027.0</ele><time>2026-04-08T14:30:46.97Z</time></trkpt><trkpt lat="42.3768675" lon="13.2355436"><ele>1027.0</ele><time>2026-04-08T14:30:47.97Z</time></trkpt><trkpt lat="42.3769765" lon="13.2353598"><ele>1027.0</ele><time>2026-04-08T14:30:48.97Z</time></trkpt><trkpt lat="42.37708" lon="13.2351666"><ele>1027.0</ele><time>2026-04-08T14:30:49.969Z</time></trkpt><trkpt lat="42.3771668" lon="13.2350002"><ele>1030.75</ele><time>2026-04-08T14:30:50.969Z</time></trkpt><trkpt lat="42.3772356" lon="13.2348475"><ele>1034.5</ele><time>2026-04-08T14:30:51.969Z</time></trkpt><trkpt lat="42.3772749" lon="13.2347139"><ele>1038.25</ele><time>2026-04-08T14:30:52.969Z</time></trkpt><trkpt lat="42.3772921" lon="13.2345777"><ele>1042.0</ele><time>2026-04-08T14:30:53.969Z</time></trkpt><trkpt lat="42.3773049" lon="13.234425"><ele>1045.25</ele><time>2026-04-08T14:30:54.969Z</time></trkpt><trkpt lat="42.3773238" lon="13.2342647"><ele>1048.5</ele><time>2026-04-08T14:30:55.969Z</time></trkpt><trkpt lat="42.3773519" lon="13.2340974"><ele>1051.75</ele><time>2026-04-08T14:30:56.969Z</time></trkpt><trkpt lat="42.3773805" lon="13.2339197"><ele>1055.0</ele><time>2026-04-08T14:30:57.969Z</time></trkpt><trkpt lat="42.3774177" lon="13.2337489"><ele>1055.0</ele><time>2026-04-08T14:30:58.969Z</time></trkpt><trkpt lat="42.3774715" lon="13.233586"><ele>1055.0</ele><time>2026-04-08T14:30:59.969Z</time></trkpt><trkpt lat="42.3775516" lon="13.2334111"><ele>1055.0</ele><time>2026-04-08T14:31:00.969Z</time></trkpt><trkpt lat="42.3776313" lon="13.2332405"><ele>1055.0</ele><time>2026-04-08T14:31:01.969Z</time></trkpt><trkpt lat="42.3777134" lon="13.2330989"><ele>1053.6</ele><time>2026-04-08T14:31:02.969Z</time></trkpt><trkpt lat="42.3777956" lon="13.232979"><ele>1052.2</ele><time>2026-04-08T14:31:03.969Z</time></trkpt><trkpt lat="42.3778686" lon="13.2328656"><ele>1050.8</ele><time>2026-04-08T14:31:04.969Z</time></trkpt><trkpt lat="42.3779327" lon="13.2327491"><ele>1049.4</ele><time>2026-04-08T14:31:05.969Z</time></trkpt><trkpt lat="42.3779782" lon="13.2326259"><ele>1048.0</ele><time>2026-04-08T14:31:06.969Z</time></trkpt><trkpt lat="42.3780161" lon="13.2325019"><ele>1048.8</ele><time>2026-04-08T14:31:07.969Z</time></trkpt><trkpt lat="42.3780353" lon="13.2323839"><ele>1049.6</ele><time>2026-04-08T14:31:08.969Z</time></trkpt><trkpt lat="42.3780394" lon="13.2322744"><ele>1050.4</ele><time>2026-04-08T14:31:09.969Z</time></trkpt><trkpt lat="42.3780348" lon="13.2321548"><ele>1051.2</ele><time>2026-04-08T14:31:10.969Z</time></trkpt><trkpt lat="42.3780234" lon="13.2320317"><ele>1052.0</ele><time>2026-04-08T14:31:11.969Z</time></trkpt><trkpt lat="42.3779992" lon="13.2318992"><ele>1052.0</ele><time>2026-04-08T14:31:12.97Z</time></trkpt><trkpt lat="42.3779813" lon="13.2317576"><ele>1052.0</ele><time>2026-04-08T14:31:13.969Z</time></trkpt><trkpt lat="42.3779723" lon="13.2316031"><ele>1052.0</ele><time>2026-04-08T14:31:14.969Z</time></trkpt><trkpt lat="42.3779577" lon="13.2314538"><ele>1052.0</ele><time>2026-04-08T14:31:15.969Z</time></trkpt><trkpt lat="42.3779519" lon="13.2312971"><ele>1052.0</ele><time>2026-04-08T14:31:16.969Z</time></trkpt><trkpt lat="42.3779473" lon="13.2311449"><ele>1052.2</ele><time>2026-04-08T14:31:17.969Z</time></trkpt><trkpt lat="42.3779475" lon="13.2309827"><ele>1052.4</ele><time>2026-04-08T14:31:18.97Z</time></trkpt><trkpt lat="42.3779621" lon="13.2308567"><ele>1052.6</ele><time>2026-04-08T14:31:19.969Z</time></trkpt><trkpt lat="42.3779846" lon="13.2307171"><ele>1052.8</ele><time>2026-04-08T14:31:20.969Z</time></trkpt><trkpt lat="42.3780068" lon="13.2305777"><ele>1053.0</ele><time>2026-04-08T14:31:21.969Z</time></trkpt><trkpt lat="42.3780469" lon="13.2304434"><ele>1060.4</ele><time>2026-04-08T14:31:22.97Z</time></trkpt><trkpt lat="42.378088" lon="13.2303237"><ele>1067.8</ele><time>2026-04-08T14:31:23.969Z</time></trkpt><trkpt lat="42.3781259" lon="13.2301898"><ele>1075.2</ele><time>2026-04-08T14:31:24.969Z</time></trkpt><trkpt lat="42.3781462" lon="13.2300723"><ele>1082.6</ele><time>2026-04-08T14:31:25.969Z</time></trkpt><trkpt lat="42.378149" lon="13.229948"><ele>1090.0</ele><time>2026-04-08T14:31:26.97Z</time></trkpt><trkpt lat="42.3781392" lon="13.2297976"><ele>1090.0</ele><time>2026-04-08T14:31:27.969Z</time></trkpt><trkpt lat="42.3781303" lon="13.2296464"><ele>1090.0</ele><time>2026-04-08T14:31:28.969Z</time></trkpt><trkpt lat="42.3781425" lon="13.2295008"><ele>1090.0</ele><time>2026-04-08T14:31:29.969Z</time></trkpt><trkpt lat="42.3781715" lon="13.2293591"><ele>1090.0</ele><time>2026-04-08T14:31:30.969Z</time></trkpt><trkpt lat="42.3782178" lon="13.2292176"><ele>1090.0</ele><time>2026-04-08T14:31:31.969Z</time></trkpt><trkpt lat="42.3782785" lon="13.2290857"><ele>1085.75</ele><time>2026-04-08T14:31:32.97Z</time></trkpt><trkpt lat="42.378356" lon="13.2289582"><ele>1081.5</ele><time>2026-04-08T14:31:33.969Z</time></trkpt><trkpt lat="42.3784577" lon="13.2288179"><ele>1077.25</ele><time>2026-04-08T14:31:34.969Z</time></trkpt><trkpt lat="42.3785867" lon="13.2286719"><ele>1073.0</ele><time>2026-04-08T14:31:35.969Z</time></trkpt><trkpt lat="42.3787446" lon="13.2285171"><ele>1076.0</ele><time>2026-04-08T14:31:36.969Z</time></trkpt><trkpt lat="42.3789204" lon="13.2283576"><ele>1079.0</ele><time>2026-04-08T14:31:37.969Z</time></trkpt><trkpt lat="42.3791097" lon="13.2281917"><ele>1082.0</ele><time>2026-04-08T14:31:38.969Z</time></trkpt><trkpt lat="42.3792759" lon="13.2280217"><ele>1082.0</ele><time>2026-04-08T14:31:39.97Z</time></trkpt><trkpt lat="42.3794237" lon="13.2278628"><ele>1082.0</ele><time>2026-04-08T14:31:40.97Z</time></trkpt><trkpt lat="42.3795485" lon="13.2276932"><ele>1082.0</ele><time>2026-04-08T14:31:41.969Z</time></trkpt><trkpt lat="42.3796828" lon="13.2275004"><ele>1085.6666666666667</ele><time>2026-04-08T14:31:42.969Z</time></trkpt><trkpt lat="42.3798108" lon="13.2273041"><ele>1089.3333333333333</ele><time>2026-04-08T14:31:43.969Z</time></trkpt><trkpt lat="42.3799384" lon="13.2271136"><ele>1093.0</ele><time>2026-04-08T14:31:44.969Z</time></trkpt><trkpt lat="42.3800516" lon="13.2269256"><ele>1093.0</ele><time>2026-04-08T14:31:45.969Z</time></trkpt><trkpt lat="42.3801586" lon="13.2267355"><ele>1093.0</ele><time>2026-04-08T14:31:46.969Z</time></trkpt><trkpt lat="42.3802636" lon="13.2265164"><ele>1093.0</ele><time>2026-04-08T14:31:47.969Z</time></trkpt><trkpt lat="42.3803858" lon="13.2262791"><ele>1103.5</ele><time>2026-04-08T14:31:48.969Z</time></trkpt><trkpt lat="42.3805267" lon="13.2260384"><ele>1114.0</ele><time>2026-04-08T14:31:49.97Z</time></trkpt><trkpt lat="42.3806665" lon="13.2257958"><ele>1112.6666666666665</ele><time>2026-04-08T14:31:50.969Z</time></trkpt><trkpt lat="42.3807946" lon="13.2255856"><ele>1111.3333333333333</ele><time>2026-04-08T14:31:51.969Z</time></trkpt><trkpt lat="42.3809008" lon="13.225408"><ele>1110.0</ele><time>2026-04-08T14:31:52.969Z</time></trkpt><trkpt lat="42.3809809" lon="13.2252668"><ele>1110.0</ele><time>2026-04-08T14:31:53.97Z</time></trkpt><trkpt lat="42.3810451" lon="13.225154"><ele>1110.0</ele><time>2026-04-08T14:31:54.969Z</time></trkpt><trkpt lat="42.3810941" lon="13.2250613"><ele>1110.0</ele><time>2026-04-08T14:31:55.969Z</time></trkpt><trkpt lat="42.3811515" lon="13.2249492"><ele>1110.0</ele><time>2026-04-08T14:31:57.97Z</time></trkpt><trkpt lat="42.3812081" lon="13.2248672"><ele>1110.0</ele><time>2026-04-08T14:32:18.969Z</time></trkpt><trkpt lat="42.3811516" lon="13.2247577"><ele>1113.3333333333333</ele><time>2026-04-08T14:32:23.97Z</time></trkpt><trkpt lat="42.3811138" lon="13.2246498"><ele>1116.6666666666667</ele><time>2026-04-08T14:32:25.97Z</time></trkpt><trkpt lat="42.381105" lon="13.2245244"><ele>1120.0</ele><time>2026-04-08T14:32:27.969Z</time></trkpt><trkpt lat="42.381111" lon="13.224412"><ele>1123.3333333333335</ele><time>2026-04-08T14:32:29.969Z</time></trkpt><trkpt lat="42.3811746" lon="13.2243888"><ele>1126.6666666666667</ele><time>2026-04-08T14:32:46.969Z</time></trkpt><trkpt lat="42.3812302" lon="13.2244393"><ele>1130.0</ele><time>2026-04-08T14:32:47.969Z</time></trkpt><trkpt lat="42.3813016" lon="13.2244671"><ele>1130.0</ele><time>2026-04-08T14:32:48.97Z</time></trkpt><trkpt lat="42.3813792" lon="13.2244624"><ele>1130.0</ele><time>2026-04-08T14:32:49.969Z</time></trkpt><trkpt lat="42.3814677" lon="13.2244105"><ele>1130.0</ele><time>2026-04-08T14:32:50.97Z</time></trkpt><trkpt lat="42.3815659" lon="13.2243741"><ele>1130.0</ele><time>2026-04-08T14:32:51.969Z</time></trkpt><trkpt lat="42.3816561" lon="13.224309"><ele>1130.0</ele><time>2026-04-08T14:32:52.969Z</time></trkpt><trkpt lat="42.381723" lon="13.2242281"><ele>1130.0</ele><time>2026-04-08T14:32:53.969Z</time></trkpt><trkpt lat="42.3817751" lon="13.224139"><ele>1130.0</ele><time>2026-04-08T14:32:54.969Z</time></trkpt><trkpt lat="42.3817925" lon="13.224026"><ele>1130.0</ele><time>2026-04-08T14:32:56.969Z</time></trkpt><trkpt lat="42.3817282" lon="13.2239829"><ele>1130.0</ele><time>2026-04-08T14:32:58.969Z</time></trkpt><trkpt lat="42.3816475" lon="13.2240393"><ele>1130.0</ele><time>2026-04-08T14:33:00.969Z</time></trkpt><trkpt lat="42.3815255" lon="13.2239863"><ele>1133.8333333333335</ele><time>2026-04-08T14:33:02.969Z</time></trkpt><trkpt lat="42.3814766" lon="13.2239115"><ele>1137.6666666666667</ele><time>2026-04-08T14:33:03.969Z</time></trkpt><trkpt lat="42.3814352" lon="13.223822"><ele>1141.5</ele><time>2026-04-08T14:33:04.969Z</time></trkpt><trkpt lat="42.3814" lon="13.223721"><ele>1145.3333333333333</ele><time>2026-04-08T14:33:05.969Z</time></trkpt><trkpt lat="42.3813589" lon="13.2236031"><ele>1149.1666666666665</ele><time>2026-04-08T14:33:06.969Z</time></trkpt><trkpt lat="42.3813423" lon="13.2235"><ele>1153.0</ele><time>2026-04-08T14:33:07.969Z</time></trkpt><trkpt lat="42.3813229" lon="13.2234009"><ele>1153.0</ele><time>2026-04-08T14:33:08.969Z</time></trkpt><trkpt lat="42.3813078" lon="13.2233035"><ele>1153.0</ele><time>2026-04-08T14:33:09.969Z</time></trkpt><trkpt lat="42.3812884" lon="13.2232066"><ele>1153.0</ele><time>2026-04-08T14:33:10.97Z</time></trkpt><trkpt lat="42.3812734" lon="13.2231147"><ele>1153.0</ele><time>2026-04-08T14:33:11.97Z</time></trkpt><trkpt lat="42.381257" lon="13.2230295"><ele>1153.0</ele><time>2026-04-08T14:33:12.969Z</time></trkpt><trkpt lat="42.3812282" lon="13.2228726"><ele>1153.0</ele><time>2026-04-08T14:33:14.969Z</time></trkpt><trkpt lat="42.3812119" lon="13.222759"><ele>1155.6666666666665</ele><time>2026-04-08T14:33:16.97Z</time></trkpt><trkpt lat="42.3811993" lon="13.22262"><ele>1158.3333333333333</ele><time>2026-04-08T14:33:18.969Z</time></trkpt><trkpt lat="42.3812109" lon="13.2225271"><ele>1161.0</ele><time>2026-04-08T14:33:20.97Z</time></trkpt><trkpt lat="42.3812189" lon="13.2224208"><ele>1163.6666666666667</ele><time>2026-04-08T14:33:22.969Z</time></trkpt><trkpt lat="42.3812236" lon="13.2223191"><ele>1166.3333333333335</ele><time>2026-04-08T14:33:24.969Z</time></trkpt><trkpt lat="42.381236" lon="13.2222185"><ele>1169.0</ele><time>2026-04-08T14:33:26.969Z</time></trkpt><trkpt lat="42.3812459" lon="13.2221227"><ele>1171.6666666666667</ele><time>2026-04-08T14:33:28.97Z</time></trkpt><trkpt lat="42.3812657" lon="13.2220341"><ele>1174.3333333333335</ele><time>2026-04-08T14:33:30.969Z</time></trkpt><trkpt lat="42.381327" lon="13.2219384"><ele>1177.0</ele><time>2026-04-08T14:33:33.969Z</time></trkpt><trkpt lat="42.3813564" lon="13.2218397"><ele>1179.6666666666667</ele><time>2026-04-08T14:33:35.97Z</time></trkpt><trkpt lat="42.3813838" lon="13.2217286"><ele>1182.3333333333333</ele><time>2026-04-08T14:33:37.97Z</time></trkpt><trkpt lat="42.3813897" lon="13.2216082"><ele>1185.0</ele><time>2026-04-08T14:33:39.97Z</time></trkpt><trkpt lat="42.381398" lon="13.2214829"><ele>1189.0</ele><time>2026-04-08T14:33:41.969Z</time></trkpt><trkpt lat="42.381416" lon="13.2213602"><ele>1193.0</ele><time>2026-04-08T14:33:43.969Z</time></trkpt><trkpt lat="42.3814012" lon="13.2212104"><ele>1197.0</ele><time>2026-04-08T14:33:45.97Z</time></trkpt><trkpt lat="42.3813753" lon="13.221077"><ele>1201.0</ele><time>2026-04-08T14:33:47.97Z</time></trkpt><trkpt lat="42.3813401" lon="13.2209408"><ele>1205.0</ele><time>2026-04-08T14:33:49.969Z</time></trkpt><trkpt lat="42.3813095" lon="13.2208056"><ele>1205.0</ele><time>2026-04-08T14:33:51.969Z</time></trkpt><trkpt lat="42.3812839" lon="13.2206622"><ele>1205.0</ele><time>2026-04-08T14:33:53.969Z</time></trkpt><trkpt lat="42.3812502" lon="13.2204948"><ele>1205.0</ele><time>2026-04-08T14:33:55.969Z</time></trkpt><trkpt lat="42.3812367" lon="13.2204109"><ele>1205.0</ele><time>2026-04-08T14:33:56.969Z</time></trkpt><trkpt lat="42.381224" lon="13.2203245"><ele>1205.0</ele><time>2026-04-08T14:33:57.969Z</time></trkpt><trkpt lat="42.3811918" lon="13.2201918"><ele>1206.3333333333335</ele><time>2026-04-08T14:33:59.969Z</time></trkpt><trkpt lat="42.381188" lon="13.2201023"><ele>1207.6666666666667</ele><time>2026-04-08T14:34:01.969Z</time></trkpt><trkpt lat="42.3812553" lon="13.2200641"><ele>1209.0</ele><time>2026-04-08T14:34:04.97Z</time></trkpt><trkpt lat="42.3813123" lon="13.2201559"><ele>1210.3333333333333</ele><time>2026-04-08T14:34:06.969Z</time></trkpt><trkpt lat="42.3813489" lon="13.2202729"><ele>1211.6666666666665</ele><time>2026-04-08T14:34:08.969Z</time></trkpt><trkpt lat="42.3813922" lon="13.2203844"><ele>1213.0</ele><time>2026-04-08T14:34:10.97Z</time></trkpt><trkpt lat="42.3814526" lon="13.2205126"><ele>1213.8333333333333</ele><time>2026-04-08T14:34:12.969Z</time></trkpt><trkpt lat="42.3815184" lon="13.2206423"><ele>1214.6666666666665</ele><time>2026-04-08T14:34:14.969Z</time></trkpt><trkpt lat="42.3815601" lon="13.2207068"><ele>1215.5</ele><time>2026-04-08T14:34:15.969Z</time></trkpt><trkpt lat="42.381623" lon="13.220829"><ele>1216.3333333333333</ele><time>2026-04-08T14:34:17.97Z</time></trkpt><trkpt lat="42.3816878" lon="13.2208587"><ele>1217.1666666666667</ele><time>2026-04-08T14:34:20.969Z</time></trkpt><trkpt lat="42.3816944" lon="13.2207647"><ele>1218.0</ele><time>2026-04-08T14:34:23.969Z</time></trkpt><trkpt lat="42.3816793" lon="13.2206801"><ele>1218.0</ele><time>2026-04-08T14:34:25.969Z</time></trkpt><trkpt lat="42.381663" lon="13.2205822"><ele>1218.0</ele><time>2026-04-08T14:34:27.969Z</time></trkpt><trkpt lat="42.3816432" lon="13.220455"><ele>1218.0</ele><time>2026-04-08T14:34:30.969Z</time></trkpt><trkpt lat="42.3816416" lon="13.2203184"><ele>1218.0</ele><time>2026-04-08T14:34:32.97Z</time></trkpt><trkpt lat="42.3816471" lon="13.2201654"><ele>1218.0</ele><time>2026-04-08T14:34:34.969Z</time></trkpt><trkpt lat="42.3816455" lon="13.2200787"><ele>1218.0</ele><time>2026-04-08T14:34:35.969Z</time></trkpt><trkpt lat="42.3816459" lon="13.219978"><ele>1218.0</ele><time>2026-04-08T14:34:36.969Z</time></trkpt><trkpt lat="42.3816469" lon="13.219875"><ele>1218.0</ele><time>2026-04-08T14:34:37.969Z</time></trkpt><trkpt lat="42.3816443" lon="13.2197624"><ele>1218.0</ele><time>2026-04-08T14:34:38.969Z</time></trkpt><trkpt lat="42.3816458" lon="13.2196523"><ele>1218.0</ele><time>2026-04-08T14:34:39.969Z</time></trkpt><trkpt lat="42.3816533" lon="13.2195558"><ele>1218.0</ele><time>2026-04-08T14:34:40.969Z</time></trkpt><trkpt lat="42.3816399" lon="13.2194047"><ele>1218.0</ele><time>2026-04-08T14:34:42.97Z</time></trkpt><trkpt lat="42.3815811" lon="13.2193414"><ele>1218.2</ele><time>2026-04-08T14:34:44.969Z</time></trkpt><trkpt lat="42.3814796" lon="13.2193207"><ele>1218.4</ele><time>2026-04-08T14:34:46.97Z</time></trkpt><trkpt lat="42.3813656" lon="13.2192675"><ele>1218.6000000000001</ele><time>2026-04-08T14:34:48.969Z</time></trkpt><trkpt lat="42.3812858" lon="13.2191985"><ele>1218.8</ele><time>2026-04-08T14:34:50.969Z</time></trkpt><trkpt lat="42.3812409" lon="13.2191194"><ele>1219.0</ele><time>2026-04-08T14:34:52.969Z</time></trkpt><trkpt lat="42.3812068" lon="13.2190134"><ele>1222.4</ele><time>2026-04-08T14:34:54.969Z</time></trkpt><trkpt lat="42.3812312" lon="13.2188978"><ele>1225.8000000000002</ele><time>2026-04-08T14:34:56.97Z</time></trkpt><trkpt lat="42.3812474" lon="13.218773"><ele>1229.1999999999998</ele><time>2026-04-08T14:34:58.97Z</time></trkpt><trkpt lat="42.3812709" lon="13.2186652"><ele>1232.6</ele><time>2026-04-08T14:35:00.969Z</time></trkpt><trkpt lat="42.3813061" lon="13.2185312"><ele>1236.0</ele><time>2026-04-08T14:35:02.969Z</time></trkpt><trkpt lat="42.3813346" lon="13.2183937"><ele>1238.6</ele><time>2026-04-08T14:35:04.969Z</time></trkpt><trkpt lat="42.3813505" lon="13.2182468"><ele>1241.1999999999998</ele><time>2026-04-08T14:35:06.969Z</time></trkpt><trkpt lat="42.3813622" lon="13.2181599"><ele>1243.8000000000002</ele><time>2026-04-08T14:35:07.969Z</time></trkpt><trkpt lat="42.3813811" lon="13.2179883"><ele>1246.4</ele><time>2026-04-08T14:35:09.969Z</time></trkpt><trkpt lat="42.3813876" lon="13.2178292"><ele>1249.0</ele><time>2026-04-08T14:35:11.969Z</time></trkpt><trkpt lat="42.3813838" lon="13.2176761"><ele>1251.8</ele><time>2026-04-08T14:35:13.969Z</time></trkpt><trkpt lat="42.3813981" lon="13.2175522"><ele>1254.6000000000001</ele><time>2026-04-08T14:35:15.969Z</time></trkpt><trkpt lat="42.3814884" lon="13.2175974"><ele>1257.4</ele><time>2026-04-08T14:35:17.969Z</time></trkpt><trkpt lat="42.3815249" lon="13.2177048"><ele>1260.2</ele><time>2026-04-08T14:35:19.969Z</time></trkpt><trkpt lat="42.3815504" lon="13.2178539"><ele>1263.0</ele><time>2026-04-08T14:35:21.969Z</time></trkpt><trkpt lat="42.3815876" lon="13.2180025"><ele>1263.0</ele><time>2026-04-08T14:35:23.969Z</time></trkpt><trkpt lat="42.3816452" lon="13.218127"><ele>1263.0</ele><time>2026-04-08T14:35:25.969Z</time></trkpt><trkpt lat="42.381705" lon="13.2181652"><ele>1263.0</ele><time>2026-04-08T14:35:27.969Z</time></trkpt><trkpt lat="42.381767" lon="13.2181841"><ele>1263.0</ele><time>2026-04-08T14:35:44.969Z</time></trkpt><trkpt lat="42.3818452" lon="13.2181616"><ele>1263.0</ele><time>2026-04-08T14:35:46.969Z</time></trkpt><trkpt lat="42.3818897" lon="13.2180539"><ele>1263.0</ele><time>2026-04-08T14:35:48.969Z</time></trkpt><trkpt lat="42.3818744" lon="13.2179712"><ele>1263.0</ele><time>2026-04-08T14:35:49.969Z</time></trkpt><trkpt lat="42.3818263" lon="13.2178372"><ele>1263.0</ele><time>2026-04-08T14:35:51.969Z</time></trkpt><trkpt lat="42.3818013" lon="13.2177049"><ele>1263.0</ele><time>2026-04-08T14:35:53.97Z</time></trkpt><trkpt lat="42.3817938" lon="13.2175608"><ele>1263.0</ele><time>2026-04-08T14:35:55.969Z</time></trkpt><trkpt lat="42.381779" lon="13.2174103"><ele>1263.0</ele><time>2026-04-08T14:35:57.97Z</time></trkpt><trkpt lat="42.3817682" lon="13.217249"><ele>1265.4</ele><time>2026-04-08T14:35:59.969Z</time></trkpt><trkpt lat="42.3817517" lon="13.2170907"><ele>1267.8</ele><time>2026-04-08T14:36:01.97Z</time></trkpt><trkpt lat="42.3817495" lon="13.2169199"><ele>1270.2</ele><time>2026-04-08T14:36:03.969Z</time></trkpt><trkpt lat="42.3817505" lon="13.2168308"><ele>1272.6</ele><time>2026-04-08T14:36:04.969Z</time></trkpt><trkpt lat="42.3817377" lon="13.2167433"><ele>1275.0</ele><time>2026-04-08T14:36:05.969Z</time></trkpt><trkpt lat="42.3816795" lon="13.2165924"><ele>1275.0</ele><time>2026-04-08T14:36:07.969Z</time></trkpt><trkpt lat="42.381645" lon="13.2165197"><ele>1275.0</ele><time>2026-04-08T14:36:08.97Z</time></trkpt><trkpt lat="42.3815563" lon="13.2164212"><ele>1275.0</ele><time>2026-04-08T14:36:10.97Z</time></trkpt><trkpt lat="42.3814502" lon="13.2163915"><ele>1275.0</ele><time>2026-04-08T14:36:12.969Z</time></trkpt><trkpt lat="42.3813843" lon="13.2163853"><ele>1275.0</ele><time>2026-04-08T14:36:13.969Z</time></trkpt><trkpt lat="42.381313" lon="13.2163931"><ele>1275.0</ele><time>2026-04-08T14:36:14.969Z</time></trkpt><trkpt lat="42.3812444" lon="13.2163985"><ele>1277.1666666666667</ele><time>2026-04-08T14:36:15.969Z</time></trkpt><trkpt lat="42.3811712" lon="13.2164158"><ele>1279.3333333333333</ele><time>2026-04-08T14:36:16.97Z</time></trkpt><trkpt lat="42.3811" lon="13.2164355"><ele>1281.5</ele><time>2026-04-08T14:36:17.969Z</time></trkpt><trkpt lat="42.3810327" lon="13.2164461"><ele>1283.6666666666665</ele><time>2026-04-08T14:36:18.969Z</time></trkpt><trkpt lat="42.3809694" lon="13.2164508"><ele>1285.8333333333333</ele><time>2026-04-08T14:36:19.97Z</time></trkpt><trkpt lat="42.3808552" lon="13.2163938"><ele>1288.0</ele><time>2026-04-08T14:36:21.969Z</time></trkpt><trkpt lat="42.3807761" lon="13.2162635"><ele>1288.0</ele><time>2026-04-08T14:36:23.97Z</time></trkpt><trkpt lat="42.3807463" lon="13.2161737"><ele>1288.0</ele><time>2026-04-08T14:36:24.969Z</time></trkpt><trkpt lat="42.3807131" lon="13.2160773"><ele>1288.0</ele><time>2026-04-08T14:36:25.969Z</time></trkpt><trkpt lat="42.3806812" lon="13.2159907"><ele>1288.0</ele><time>2026-04-08T14:36:26.969Z</time></trkpt><trkpt lat="42.3806134" lon="13.2159041"><ele>1288.0</ele><time>2026-04-08T14:36:28.969Z</time></trkpt><trkpt lat="42.3805192" lon="13.2158922"><ele>1288.0</ele><time>2026-04-08T14:36:30.969Z</time></trkpt><trkpt lat="42.3804487" lon="13.2159068"><ele>1286.6000000000001</ele><time>2026-04-08T14:36:31.969Z</time></trkpt><trkpt lat="42.3803698" lon="13.2159318"><ele>1285.2</ele><time>2026-04-08T14:36:32.969Z</time></trkpt><trkpt lat="42.3802995" lon="13.2159514"><ele>1283.8</ele><time>2026-04-08T14:36:33.97Z</time></trkpt><trkpt lat="42.3802318" lon="13.2159613"><ele>1282.4</ele><time>2026-04-08T14:36:34.97Z</time></trkpt><trkpt lat="42.3801194" lon="13.215923"><ele>1281.0</ele><time>2026-04-08T14:36:36.969Z</time></trkpt><trkpt lat="42.380024" lon="13.2158224"><ele>1281.0</ele><time>2026-04-08T14:36:38.969Z</time></trkpt><trkpt lat="42.3799773" lon="13.2157526"><ele>1281.0</ele><time>2026-04-08T14:36:39.969Z</time></trkpt><trkpt lat="42.3799348" lon="13.2156882"><ele>1281.0</ele><time>2026-04-08T14:36:40.969Z</time></trkpt><trkpt lat="42.3798496" lon="13.2155982"><ele>1281.0</ele><time>2026-04-08T14:36:42.969Z</time></trkpt><trkpt lat="42.3797674" lon="13.2154717"><ele>1281.0</ele><time>2026-04-08T14:36:44.969Z</time></trkpt><trkpt lat="42.3797238" lon="13.2154038"><ele>1281.0</ele><time>2026-04-08T14:36:45.969Z</time></trkpt><trkpt lat="42.3796698" lon="13.2153439"><ele>1281.5</ele><time>2026-04-08T14:36:46.969Z</time></trkpt><trkpt lat="42.3796204" lon="13.2152882"><ele>1282.0</ele><time>2026-04-08T14:36:47.969Z</time></trkpt><trkpt lat="42.3795673" lon="13.2152357"><ele>1282.5</ele><time>2026-04-08T14:36:48.969Z</time></trkpt><trkpt lat="42.3794903" lon="13.2151503"><ele>1283.0</ele><time>2026-04-08T14:36:50.969Z</time></trkpt><trkpt lat="42.3794673" lon="13.2150492"><ele>1283.5</ele><time>2026-04-08T14:36:52.969Z</time></trkpt><trkpt lat="42.3794763" lon="13.2149477"><ele>1284.0</ele><time>2026-04-08T14:37:10.969Z</time></trkpt><trkpt lat="42.3795088" lon="13.2147892"><ele>1287.0</ele><time>2026-04-08T14:37:12.969Z</time></trkpt><trkpt lat="42.3795306" lon="13.214701"><ele>1290.0</ele><time>2026-04-08T14:37:13.969Z</time></trkpt><trkpt lat="42.3795567" lon="13.2146042"><ele>1293.0</ele><time>2026-04-08T14:37:14.969Z</time></trkpt><trkpt lat="42.379586" lon="13.214488"><ele>1296.0</ele><time>2026-04-08T14:37:15.97Z</time></trkpt><trkpt lat="42.3796273" lon="13.2143483"><ele>1299.0</ele><time>2026-04-08T14:37:16.969Z</time></trkpt><trkpt lat="42.3796764" lon="13.2142227"><ele>1300.6666666666667</ele><time>2026-04-08T14:37:17.97Z</time></trkpt><trkpt lat="42.3797192" lon="13.2141141"><ele>1302.3333333333333</ele><time>2026-04-08T14:37:18.969Z</time></trkpt><trkpt lat="42.3797343" lon="13.214026"><ele>1304.0</ele><time>2026-04-08T14:37:19.97Z</time></trkpt><trkpt lat="42.3797118" lon="13.2139092"><ele>1305.6666666666665</ele><time>2026-04-08T14:37:21.969Z</time></trkpt><trkpt lat="42.3796363" lon="13.2138377"><ele>1307.3333333333333</ele><time>2026-04-08T14:37:23.969Z</time></trkpt><trkpt lat="42.3795661" lon="13.2138255"><ele>1309.0</ele><time>2026-04-08T14:37:24.969Z</time></trkpt><trkpt lat="42.3794941" lon="13.2138116"><ele>1313.2</ele><time>2026-04-08T14:37:25.97Z</time></trkpt><trkpt lat="42.3793924" lon="13.2138033"><ele>1317.4</ele><time>2026-04-08T14:37:26.969Z</time></trkpt><trkpt lat="42.3792933" lon="13.2138199"><ele>1321.6</ele><time>2026-04-08T14:37:27.969Z</time></trkpt><trkpt lat="42.3792038" lon="13.2137965"><ele>1325.8</ele><time>2026-04-08T14:37:28.97Z</time></trkpt><trkpt lat="42.3791238" lon="13.2137503"><ele>1330.0</ele><time>2026-04-08T14:37:29.969Z</time></trkpt><trkpt lat="42.3790259" lon="13.2137019"><ele>1330.0</ele><time>2026-04-08T14:37:30.969Z</time></trkpt><trkpt lat="42.3789265" lon="13.2136476"><ele>1330.0</ele><time>2026-04-08T14:37:31.969Z</time></trkpt><trkpt lat="42.3788166" lon="13.2135865"><ele>1330.0</ele><time>2026-04-08T14:37:32.969Z</time></trkpt><trkpt lat="42.3786937" lon="13.213503"><ele>1330.0</ele><time>2026-04-08T14:37:33.969Z</time></trkpt><trkpt lat="42.3785764" lon="13.213457"><ele>1331.5</ele><time>2026-04-08T14:37:34.97Z</time></trkpt><trkpt lat="42.3784506" lon="13.213436"><ele>1333.0</ele><time>2026-04-08T14:37:35.97Z</time></trkpt><trkpt lat="42.3783191" lon="13.2134335"><ele>1334.5</ele><time>2026-04-08T14:37:36.969Z</time></trkpt><trkpt lat="42.3781784" lon="13.2134357"><ele>1336.0</ele><time>2026-04-08T14:37:37.969Z</time></trkpt><trkpt lat="42.378047" lon="13.2134438"><ele>1336.75</ele><time>2026-04-08T14:37:38.969Z</time></trkpt><trkpt lat="42.3779077" lon="13.2134593"><ele>1337.5</ele><time>2026-04-08T14:37:39.969Z</time></trkpt><trkpt lat="42.3777709" lon="13.2134792"><ele>1338.25</ele><time>2026-04-08T14:37:40.969Z</time></trkpt><trkpt lat="42.3776678" lon="13.2134906"><ele>1339.0</ele><time>2026-04-08T14:37:41.969Z</time></trkpt><trkpt lat="42.3775603" lon="13.2134697"><ele>1339.0</ele><time>2026-04-08T14:37:42.969Z</time></trkpt><trkpt lat="42.3774734" lon="13.2134514"><ele>1339.0</ele><time>2026-04-08T14:37:43.969Z</time></trkpt><trkpt lat="42.3773806" lon="13.2134276"><ele>1339.0</ele><time>2026-04-08T14:37:44.969Z</time></trkpt><trkpt lat="42.3773016" lon="13.2134185"><ele>1339.0</ele><time>2026-04-08T14:37:45.969Z</time></trkpt><trkpt lat="42.3772195" lon="13.2134193"><ele>1339.0</ele><time>2026-04-08T14:37:46.969Z</time></trkpt><trkpt lat="42.3771526" lon="13.2134313"><ele>1339.0</ele><time>2026-04-08T14:37:47.969Z</time></trkpt><trkpt lat="42.37703" lon="13.2134427"><ele>1339.2</ele><time>2026-04-08T14:37:49.969Z</time></trkpt><trkpt lat="42.3769377" lon="13.2134632"><ele>1339.4</ele><time>2026-04-08T14:37:51.969Z</time></trkpt><trkpt lat="42.376856" lon="13.2134663"><ele>1339.6</ele><time>2026-04-08T14:37:53.969Z</time></trkpt><trkpt lat="42.3767657" lon="13.213449"><ele>1339.8</ele><time>2026-04-08T14:37:55.969Z</time></trkpt><trkpt lat="42.3766424" lon="13.2133834"><ele>1340.0</ele><time>2026-04-08T14:37:57.969Z</time></trkpt><trkpt lat="42.376571" lon="13.2133201"><ele>1340.0</ele><time>2026-04-08T14:37:58.97Z</time></trkpt><trkpt lat="42.3764885" lon="13.2132348"><ele>1340.0</ele><time>2026-04-08T14:37:59.97Z</time></trkpt><trkpt lat="42.3764013" lon="13.2131395"><ele>1340.0</ele><time>2026-04-08T14:38:00.969Z</time></trkpt><trkpt lat="42.376304" lon="13.2130419"><ele>1340.0</ele><time>2026-04-08T14:38:01.97Z</time></trkpt><trkpt lat="42.3761989" lon="13.2129402"><ele>1338.5</ele><time>2026-04-08T14:38:02.97Z</time></trkpt><trkpt lat="42.3760872" lon="13.2128393"><ele>1337.0</ele><time>2026-04-08T14:38:03.969Z</time></trkpt><trkpt lat="42.3759706" lon="13.2127195"><ele>1335.5</ele><time>2026-04-08T14:38:04.969Z</time></trkpt><trkpt lat="42.3758417" lon="13.212594"><ele>1334.0</ele><time>2026-04-08T14:38:05.97Z</time></trkpt><trkpt lat="42.3757259" lon="13.2124739"><ele>1334.0</ele><time>2026-04-08T14:38:06.969Z</time></trkpt><trkpt lat="42.3756122" lon="13.2123413"><ele>1334.0</ele><time>2026-04-08T14:38:07.969Z</time></trkpt><trkpt lat="42.3755027" lon="13.2122132"><ele>1334.0</ele><time>2026-04-08T14:38:08.969Z</time></trkpt><trkpt lat="42.3753937" lon="13.2121078"><ele>1334.0</ele><time>2026-04-08T14:38:09.97Z</time></trkpt><trkpt lat="42.3752905" lon="13.2120006"><ele>1334.0</ele><time>2026-04-08T14:38:10.969Z</time></trkpt><trkpt lat="42.3751947" lon="13.2118961"><ele>1334.0</ele><time>2026-04-08T14:38:11.969Z</time></trkpt><trkpt lat="42.3750867" lon="13.2117911"><ele>1334.0</ele><time>2026-04-08T14:38:12.969Z</time></trkpt><trkpt lat="42.3749792" lon="13.2116706"><ele>1334.0</ele><time>2026-04-08T14:38:13.969Z</time></trkpt><trkpt lat="42.3748827" lon="13.2115592"><ele>1333.25</ele><time>2026-04-08T14:38:14.97Z</time></trkpt><trkpt lat="42.3747927" lon="13.2114469"><ele>1332.5</ele><time>2026-04-08T14:38:15.97Z</time></trkpt><trkpt lat="42.3747057" lon="13.2113368"><ele>1331.75</ele><time>2026-04-08T14:38:16.97Z</time></trkpt><trkpt lat="42.3746288" lon="13.2112306"><ele>1331.0</ele><time>2026-04-08T14:38:17.969Z</time></trkpt><trkpt lat="42.3745669" lon="13.2111256"><ele>1330.8</ele><time>2026-04-08T14:38:18.97Z</time></trkpt><trkpt lat="42.3745191" lon="13.2110217"><ele>1330.6</ele><time>2026-04-08T14:38:19.969Z</time></trkpt><trkpt lat="42.3744601" lon="13.2109072"><ele>1330.4</ele><time>2026-04-08T14:38:20.97Z</time></trkpt><trkpt lat="42.3744005" lon="13.2107833"><ele>1330.2</ele><time>2026-04-08T14:38:21.969Z</time></trkpt><trkpt lat="42.3743382" lon="13.2106685"><ele>1330.0</ele><time>2026-04-08T14:38:22.97Z</time></trkpt><trkpt lat="42.374261" lon="13.2105765"><ele>1331.8</ele><time>2026-04-08T14:38:23.969Z</time></trkpt><trkpt lat="42.3741742" lon="13.2104834"><ele>1333.6</ele><time>2026-04-08T14:38:24.969Z</time></trkpt><trkpt lat="42.3740887" lon="13.2103896"><ele>1335.4</ele><time>2026-04-08T14:38:25.969Z</time></trkpt><trkpt lat="42.374008" lon="13.2103"><ele>1337.2</ele><time>2026-04-08T14:38:26.969Z</time></trkpt><trkpt lat="42.3739475" lon="13.2102086"><ele>1339.0</ele><time>2026-04-08T14:38:27.969Z</time></trkpt><trkpt lat="42.3738973" lon="13.2101192"><ele>1336.2</ele><time>2026-04-08T14:38:28.969Z</time></trkpt><trkpt lat="42.3738503" lon="13.2100297"><ele>1333.4</ele><time>2026-04-08T14:38:29.97Z</time></trkpt><trkpt lat="42.3737859" lon="13.2099487"><ele>1330.6</ele><time>2026-04-08T14:38:30.969Z</time></trkpt><trkpt lat="42.3737257" lon="13.2099011"><ele>1327.8</ele><time>2026-04-08T14:38:31.969Z</time></trkpt><trkpt lat="42.3735814" lon="13.209881"><ele>1325.0</ele><time>2026-04-08T14:38:33.97Z</time></trkpt><trkpt lat="42.3734756" lon="13.2098665"><ele>1325.0</ele><time>2026-04-08T14:38:34.969Z</time></trkpt><trkpt lat="42.3733778" lon="13.2098292"><ele>1325.0</ele><time>2026-04-08T14:38:35.969Z</time></trkpt><trkpt lat="42.3732781" lon="13.2097633"><ele>1325.0</ele><time>2026-04-08T14:38:36.969Z</time></trkpt><trkpt lat="42.3731729" lon="13.2096637"><ele>1325.0</ele><time>2026-04-08T14:38:37.969Z</time></trkpt><trkpt lat="42.3730718" lon="13.2095511"><ele>1325.0</ele><time>2026-04-08T14:38:38.969Z</time></trkpt><trkpt lat="42.3729975" lon="13.2094486"><ele>1325.0</ele><time>2026-04-08T14:38:39.97Z</time></trkpt><trkpt lat="42.3729439" lon="13.2093455"><ele>1325.0</ele><time>2026-04-08T14:38:40.97Z</time></trkpt><trkpt lat="42.3729054" lon="13.2092289"><ele>1325.0</ele><time>2026-04-08T14:38:41.969Z</time></trkpt><trkpt lat="42.3728864" lon="13.2090972"><ele>1325.0</ele><time>2026-04-08T14:38:42.969Z</time></trkpt><trkpt lat="42.3728797" lon="13.2089415"><ele>1325.0</ele><time>2026-04-08T14:38:43.969Z</time></trkpt><trkpt lat="42.3728785" lon="13.2087702"><ele>1325.0</ele><time>2026-04-08T14:38:44.969Z</time></trkpt><trkpt lat="42.3728775" lon="13.2086399"><ele>1325.0</ele><time>2026-04-08T14:38:45.969Z</time></trkpt><trkpt lat="42.3728684" lon="13.2085401"><ele>1325.0</ele><time>2026-04-08T14:38:46.97Z</time></trkpt><trkpt lat="42.3728415" lon="13.2084589"><ele>1325.0</ele><time>2026-04-08T14:38:47.969Z</time></trkpt><trkpt lat="42.372792" lon="13.2083901"><ele>1325.0</ele><time>2026-04-08T14:38:48.969Z</time></trkpt><trkpt lat="42.3727307" lon="13.2083396"><ele>1325.0</ele><time>2026-04-08T14:38:49.969Z</time></trkpt><trkpt lat="42.3726553" lon="13.2083122"><ele>1325.0</ele><time>2026-04-08T14:38:50.969Z</time></trkpt><trkpt lat="42.372579" lon="13.2082688"><ele>1325.0</ele><time>2026-04-08T14:38:51.97Z</time></trkpt><trkpt lat="42.3725102" lon="13.2082129"><ele>1325.0</ele><time>2026-04-08T14:38:52.969Z</time></trkpt><trkpt lat="42.3724461" lon="13.2081293"><ele>1325.0</ele><time>2026-04-08T14:38:53.969Z</time></trkpt><trkpt lat="42.3724017" lon="13.2080352"><ele>1325.0</ele><time>2026-04-08T14:38:54.969Z</time></trkpt><trkpt lat="42.3723803" lon="13.2079514"><ele>1325.8</ele><time>2026-04-08T14:38:55.969Z</time></trkpt><trkpt lat="42.3723678" lon="13.2078674"><ele>1326.6</ele><time>2026-04-08T14:38:56.969Z</time></trkpt><trkpt lat="42.3723922" lon="13.2077218"><ele>1327.4</ele><time>2026-04-08T14:38:58.969Z</time></trkpt><trkpt lat="42.3724302" lon="13.2076287"><ele>1328.2</ele><time>2026-04-08T14:38:59.969Z</time></trkpt><trkpt lat="42.3724834" lon="13.2075106"><ele>1329.0</ele><time>2026-04-08T14:39:00.969Z</time></trkpt><trkpt lat="42.3725641" lon="13.207378"><ele>1326.5</ele><time>2026-04-08T14:39:01.97Z</time></trkpt><trkpt lat="42.3726653" lon="13.2072457"><ele>1324.0</ele><time>2026-04-08T14:39:02.969Z</time></trkpt><trkpt lat="42.3727626" lon="13.2071218"><ele>1321.5</ele><time>2026-04-08T14:39:03.969Z</time></trkpt><trkpt lat="42.3728375" lon="13.2069954"><ele>1319.0</ele><time>2026-04-08T14:39:04.97Z</time></trkpt><trkpt lat="42.372908" lon="13.2068804"><ele>1319.0</ele><time>2026-04-08T14:39:05.969Z</time></trkpt><trkpt lat="42.3729856" lon="13.2068033"><ele>1319.0</ele><time>2026-04-08T14:39:06.969Z</time></trkpt><trkpt lat="42.3730607" lon="13.2067416"><ele>1319.0</ele><time>2026-04-08T14:39:07.97Z</time></trkpt><trkpt lat="42.3731323" lon="13.2066866"><ele>1319.0</ele><time>2026-04-08T14:39:08.969Z</time></trkpt><trkpt lat="42.3731928" lon="13.2066622"><ele>1319.0</ele><time>2026-04-08T14:39:09.97Z</time></trkpt><trkpt lat="42.3732522" lon="13.206558"><ele>1319.0</ele><time>2026-04-08T14:39:11.969Z</time></trkpt><trkpt lat="42.3732008" lon="13.2064006"><ele>1321.0</ele><time>2026-04-08T14:39:13.969Z</time></trkpt><trkpt lat="42.3731344" lon="13.2063167"><ele>1323.0</ele><time>2026-04-08T14:39:14.97Z</time></trkpt><trkpt lat="42.3730406" lon="13.2062299"><ele>1325.0</ele><time>2026-04-08T14:39:15.969Z</time></trkpt><trkpt lat="42.3729482" lon="13.2061708"><ele>1327.0</ele><time>2026-04-08T14:39:16.969Z</time></trkpt><trkpt lat="42.3728384" lon="13.2061369"><ele>1329.0</ele><time>2026-04-08T14:39:17.969Z</time></trkpt><trkpt lat="42.372737" lon="13.2060928"><ele>1329.0</ele><time>2026-04-08T14:39:18.969Z</time></trkpt><trkpt lat="42.3726465" lon="13.2060419"><ele>1329.0</ele><time>2026-04-08T14:39:19.969Z</time></trkpt><trkpt lat="42.3725679" lon="13.205966"><ele>1329.0</ele><time>2026-04-08T14:39:20.969Z</time></trkpt><trkpt lat="42.3725016" lon="13.2058635"><ele>1329.0</ele><time>2026-04-08T14:39:21.969Z</time></trkpt><trkpt lat="42.3724425" lon="13.2057444"><ele>1329.0</ele><time>2026-04-08T14:39:22.969Z</time></trkpt><trkpt lat="42.372386" lon="13.2055946"><ele>1332.25</ele><time>2026-04-08T14:39:23.969Z</time></trkpt><trkpt lat="42.3723321" lon="13.2054193"><ele>1335.5</ele><time>2026-04-08T14:39:24.969Z</time></trkpt><trkpt lat="42.3722871" lon="13.205244"><ele>1338.75</ele><time>2026-04-08T14:39:25.97Z</time></trkpt><trkpt lat="42.3722538" lon="13.2050852"><ele>1342.0</ele><time>2026-04-08T14:39:26.969Z</time></trkpt><trkpt lat="42.3722334" lon="13.2049262"><ele>1342.5</ele><time>2026-04-08T14:39:27.97Z</time></trkpt><trkpt lat="42.3722247" lon="13.204758"><ele>1343.0</ele><time>2026-04-08T14:39:28.97Z</time></trkpt><trkpt lat="42.3722383" lon="13.204585"><ele>1343.5</ele><time>2026-04-08T14:39:29.97Z</time></trkpt><trkpt lat="42.372249" lon="13.2044149"><ele>1344.0</ele><time>2026-04-08T14:39:30.969Z</time></trkpt><trkpt lat="42.3722412" lon="13.2042654"><ele>1344.0</ele><time>2026-04-08T14:39:31.969Z</time></trkpt><trkpt lat="42.3722328" lon="13.2041178"><ele>1344.0</ele><time>2026-04-08T14:39:32.969Z</time></trkpt><trkpt lat="42.37223" lon="13.2039942"><ele>1344.0</ele><time>2026-04-08T14:39:33.97Z</time></trkpt><trkpt lat="42.3722486" lon="13.2038898"><ele>1344.0</ele><time>2026-04-08T14:39:34.969Z</time></trkpt><trkpt lat="42.3722888" lon="13.2038124"><ele>1344.0</ele><time>2026-04-08T14:39:35.97Z</time></trkpt><trkpt lat="42.3723248" lon="13.2037253"><ele>1344.0</ele><time>2026-04-08T14:39:36.97Z</time></trkpt><trkpt lat="42.3723651" lon="13.2036346"><ele>1345.6</ele><time>2026-04-08T14:39:38.969Z</time></trkpt><trkpt lat="42.3723406" lon="13.2035354"><ele>1347.2</ele><time>2026-04-08T14:39:40.969Z</time></trkpt><trkpt lat="42.3722347" lon="13.2034886"><ele>1348.8</ele><time>2026-04-08T14:39:41.969Z</time></trkpt><trkpt lat="42.3721186" lon="13.2034598"><ele>1350.3999999999999</ele><time>2026-04-08T14:39:42.97Z</time></trkpt><trkpt lat="42.3720271" lon="13.2034342"><ele>1352.0</ele><time>2026-04-08T14:39:43.969Z</time></trkpt><trkpt lat="42.3719313" lon="13.2034028"><ele>1351.3333333333335</ele><time>2026-04-08T14:39:44.969Z</time></trkpt><trkpt lat="42.3718559" lon="13.2033584"><ele>1350.6666666666667</ele><time>2026-04-08T14:39:45.969Z</time></trkpt><trkpt lat="42.3717891" lon="13.2032832"><ele>1350.0</ele><time>2026-04-08T14:39:46.969Z</time></trkpt><trkpt lat="42.3717252" lon="13.2031978"><ele>1349.3333333333333</ele><time>2026-04-08T14:39:47.969Z</time></trkpt><trkpt lat="42.3716794" lon="13.2031022"><ele>1348.6666666666665</ele><time>2026-04-08T14:39:48.969Z</time></trkpt><trkpt lat="42.3716427" lon="13.2030008"><ele>1348.0</ele><time>2026-04-08T14:39:49.969Z</time></trkpt><trkpt lat="42.3716064" lon="13.2028907"><ele>1348.0</ele><time>2026-04-08T14:39:50.97Z</time></trkpt><trkpt lat="42.3715795" lon="13.2027824"><ele>1348.0</ele><time>2026-04-08T14:39:51.969Z</time></trkpt><trkpt lat="42.3715548" lon="13.202688"><ele>1348.0</ele><time>2026-04-08T14:39:52.969Z</time></trkpt><trkpt lat="42.3715263" lon="13.2025982"><ele>1348.0</ele><time>2026-04-08T14:39:53.969Z</time></trkpt><trkpt lat="42.3714917" lon="13.2024933"><ele>1348.0</ele><time>2026-04-08T14:39:54.97Z</time></trkpt><trkpt lat="42.3714507" lon="13.2023874"><ele>1348.0</ele><time>2026-04-08T14:39:55.97Z</time></trkpt><trkpt lat="42.3714051" lon="13.2022759"><ele>1345.2</ele><time>2026-04-08T14:39:56.969Z</time></trkpt><trkpt lat="42.3713529" lon="13.2021503"><ele>1342.4</ele><time>2026-04-08T14:39:57.969Z</time></trkpt><trkpt lat="42.3713053" lon="13.2020596"><ele>1339.6000000000001</ele><time>2026-04-08T14:39:58.969Z</time></trkpt><trkpt lat="42.3712478" lon="13.2019947"><ele>1336.8000000000002</ele><time>2026-04-08T14:39:59.969Z</time></trkpt><trkpt lat="42.3711623" lon="13.2019351"><ele>1334.0</ele><time>2026-04-08T14:40:00.969Z</time></trkpt><trkpt lat="42.3710755" lon="13.2018851"><ele>1334.0</ele><time>2026-04-08T14:40:01.969Z</time></trkpt><trkpt lat="42.3709971" lon="13.2018229"><ele>1334.0</ele><time>2026-04-08T14:40:02.97Z</time></trkpt><trkpt lat="42.3709103" lon="13.2017394"><ele>1334.0</ele><time>2026-04-08T14:40:03.969Z</time></trkpt><trkpt lat="42.3708106" lon="13.2016263"><ele>1334.0</ele><time>2026-04-08T14:40:04.97Z</time></trkpt><trkpt lat="42.3707158" lon="13.2015299"><ele>1334.0</ele><time>2026-04-08T14:40:05.969Z</time></trkpt><trkpt lat="42.3706156" lon="13.2014427"><ele>1335.0</ele><time>2026-04-08T14:40:06.969Z</time></trkpt><trkpt lat="42.3705301" lon="13.201369"><ele>1336.0</ele><time>2026-04-08T14:40:07.969Z</time></trkpt><trkpt lat="42.3704577" lon="13.2013025"><ele>1337.0</ele><time>2026-04-08T14:40:08.97Z</time></trkpt><trkpt lat="42.3704003" lon="13.2012455"><ele>1338.0</ele><time>2026-04-08T14:40:09.969Z</time></trkpt><trkpt lat="42.3703246" lon="13.2011626"><ele>1339.0</ele><time>2026-04-08T14:40:11.969Z</time></trkpt><trkpt lat="42.3702455" lon="13.2010906"><ele>1333.5</ele><time>2026-04-08T14:40:19.969Z</time></trkpt><trkpt lat="42.3701699" lon="13.201026"><ele>1328.0</ele><time>2026-04-08T14:40:20.97Z</time></trkpt><trkpt lat="42.3700717" lon="13.2009131"><ele>1322.5</ele><time>2026-04-08T14:40:21.969Z</time></trkpt><trkpt lat="42.3699564" lon="13.200769"><ele>1317.0</ele><time>2026-04-08T14:40:22.969Z</time></trkpt><trkpt lat="42.3698212" lon="13.2005909"><ele>1314.6666666666667</ele><time>2026-04-08T14:40:23.97Z</time></trkpt><trkpt lat="42.3696787" lon="13.2004064"><ele>1312.3333333333335</ele><time>2026-04-08T14:40:24.969Z</time></trkpt><trkpt lat="42.3695478" lon="13.2002369"><ele>1310.0</ele><time>2026-04-08T14:40:25.969Z</time></trkpt><trkpt lat="42.3694376" lon="13.2000887"><ele>1310.0</ele><time>2026-04-08T14:40:26.969Z</time></trkpt><trkpt lat="42.3693439" lon="13.1999595"><ele>1310.0</ele><time>2026-04-08T14:40:27.969Z</time></trkpt><trkpt lat="42.3692448" lon="13.1998648"><ele>1310.0</ele><time>2026-04-08T14:40:28.969Z</time></trkpt><trkpt lat="42.3691441" lon="13.1998153"><ele>1310.0</ele><time>2026-04-08T14:40:29.969Z</time></trkpt><trkpt lat="42.3690298" lon="13.1998073"><ele>1310.0</ele><time>2026-04-08T14:40:30.969Z</time></trkpt><trkpt lat="42.3689018" lon="13.1998405"><ele>1310.0</ele><time>2026-04-08T14:40:31.969Z</time></trkpt><trkpt lat="42.3687803" lon="13.1998856"><ele>1310.0</ele><time>2026-04-08T14:40:32.97Z</time></trkpt><trkpt lat="42.36868" lon="13.199935"><ele>1310.0</ele><time>2026-04-08T14:40:33.97Z</time></trkpt><trkpt lat="42.3686016" lon="13.2000101"><ele>1311.2</ele><time>2026-04-08T14:40:34.969Z</time></trkpt><trkpt lat="42.3685367" lon="13.2001076"><ele>1312.4</ele><time>2026-04-08T14:40:35.969Z</time></trkpt><trkpt lat="42.3684852" lon="13.2002141"><ele>1313.6</ele><time>2026-04-08T14:40:36.969Z</time></trkpt><trkpt lat="42.368449" lon="13.2003314"><ele>1314.8</ele><time>2026-04-08T14:40:37.969Z</time></trkpt><trkpt lat="42.3684071" lon="13.2004379"><ele>1316.0</ele><time>2026-04-08T14:40:38.97Z</time></trkpt><trkpt lat="42.3683559" lon="13.2005275"><ele>1316.0</ele><time>2026-04-08T14:40:39.969Z</time></trkpt><trkpt lat="42.3682976" lon="13.2005841"><ele>1316.0</ele><time>2026-04-08T14:40:40.969Z</time></trkpt><trkpt lat="42.3682311" lon="13.2006327"><ele>1316.0</ele><time>2026-04-08T14:40:41.969Z</time></trkpt><trkpt lat="42.3681504" lon="13.2006581"><ele>1316.0</ele><time>2026-04-08T14:40:42.97Z</time></trkpt><trkpt lat="42.3680608" lon="13.200671"><ele>1316.0</ele><time>2026-04-08T14:40:43.969Z</time></trkpt><trkpt lat="42.3679586" lon="13.2006753"><ele>1316.0</ele><time>2026-04-08T14:40:44.969Z</time></trkpt><trkpt lat="42.3678467" lon="13.2006683"><ele>1316.1999999999998</ele><time>2026-04-08T14:40:45.969Z</time></trkpt><trkpt lat="42.3677332" lon="13.2006572"><ele>1316.3999999999999</ele><time>2026-04-08T14:40:46.97Z</time></trkpt><trkpt lat="42.3676184" lon="13.2006343"><ele>1316.6</ele><time>2026-04-08T14:40:47.969Z</time></trkpt><trkpt lat="42.3675092" lon="13.2006189"><ele>1316.8</ele><time>2026-04-08T14:40:48.97Z</time></trkpt><trkpt lat="42.3674074" lon="13.2005937"><ele>1317.0</ele><time>2026-04-08T14:40:49.97Z</time></trkpt><trkpt lat="42.3673142" lon="13.2005615"><ele>1317.0</ele><time>2026-04-08T14:40:50.969Z</time></trkpt><trkpt lat="42.3672176" lon="13.2005241"><ele>1317.0</ele><time>2026-04-08T14:40:51.969Z</time></trkpt><trkpt lat="42.3671279" lon="13.200479"><ele>1317.0</ele><time>2026-04-08T14:40:52.969Z</time></trkpt><trkpt lat="42.3670453" lon="13.2004328"><ele>1317.0</ele><time>2026-04-08T14:40:53.969Z</time></trkpt><trkpt lat="42.3669633" lon="13.2003783"><ele>1317.0</ele><time>2026-04-08T14:40:54.969Z</time></trkpt><trkpt lat="42.3668785" lon="13.2003246"><ele>1313.8</ele><time>2026-04-08T14:40:55.97Z</time></trkpt><trkpt lat="42.3667876" lon="13.2002668"><ele>1310.6</ele><time>2026-04-08T14:40:56.969Z</time></trkpt><trkpt lat="42.3666983" lon="13.2002139"><ele>1307.3999999999999</ele><time>2026-04-08T14:40:57.969Z</time></trkpt><trkpt lat="42.366616" lon="13.2001624"><ele>1304.1999999999998</ele><time>2026-04-08T14:40:58.969Z</time></trkpt><trkpt lat="42.3665262" lon="13.2001082"><ele>1301.0</ele><time>2026-04-08T14:40:59.969Z</time></trkpt><trkpt lat="42.3664436" lon="13.200065"><ele>1295.8</ele><time>2026-04-08T14:41:00.969Z</time></trkpt><trkpt lat="42.3663506" lon="13.2000204"><ele>1290.6</ele><time>2026-04-08T14:41:01.969Z</time></trkpt><trkpt lat="42.3662411" lon="13.1999812"><ele>1285.4</ele><time>2026-04-08T14:41:02.969Z</time></trkpt><trkpt lat="42.3661325" lon="13.1999365"><ele>1280.2</ele><time>2026-04-08T14:41:03.969Z</time></trkpt><trkpt lat="42.3660203" lon="13.1998916"><ele>1275.0</ele><time>2026-04-08T14:41:04.97Z</time></trkpt><trkpt lat="42.3659118" lon="13.1998573"><ele>1278.2</ele><time>2026-04-08T14:41:05.97Z</time></trkpt><trkpt lat="42.3658162" lon="13.1998187"><ele>1281.4</ele><time>2026-04-08T14:41:06.97Z</time></trkpt><trkpt lat="42.3657345" lon="13.199782"><ele>1284.6</ele><time>2026-04-08T14:41:07.969Z</time></trkpt><trkpt lat="42.365648" lon="13.199735"><ele>1287.8</ele><time>2026-04-08T14:41:08.969Z</time></trkpt><trkpt lat="42.365568" lon="13.1996777"><ele>1291.0</ele><time>2026-04-08T14:41:09.97Z</time></trkpt><trkpt lat="42.3654922" lon="13.1996157"><ele>1285.0</ele><time>2026-04-08T14:41:10.97Z</time></trkpt><trkpt lat="42.3654203" lon="13.199542"><ele>1279.0</ele><time>2026-04-08T14:41:11.969Z</time></trkpt><trkpt lat="42.3653631" lon="13.1994534"><ele>1273.0</ele><time>2026-04-08T14:41:12.97Z</time></trkpt><trkpt lat="42.3653038" lon="13.19936"><ele>1267.0</ele><time>2026-04-08T14:41:13.969Z</time></trkpt><trkpt lat="42.3652651" lon="13.1992555"><ele>1261.0</ele><time>2026-04-08T14:41:14.97Z</time></trkpt><trkpt lat="42.3652303" lon="13.1991493"><ele>1255.0</ele><time>2026-04-08T14:41:15.969Z</time></trkpt><trkpt lat="42.3652009" lon="13.1990425"><ele>1255.4</ele><time>2026-04-08T14:41:16.969Z</time></trkpt><trkpt lat="42.3651684" lon="13.198933"><ele>1255.8</ele><time>2026-04-08T14:41:17.969Z</time></trkpt><trkpt lat="42.3651364" lon="13.1988229"><ele>1256.2</ele><time>2026-04-08T14:41:18.969Z</time></trkpt><trkpt lat="42.3651063" lon="13.1987089"><ele>1256.6</ele><time>2026-04-08T14:41:19.969Z</time></trkpt><trkpt lat="42.3650729" lon="13.1985946"><ele>1257.0</ele><time>2026-04-08T14:41:20.97Z</time></trkpt><trkpt lat="42.3650371" lon="13.1984748"><ele>1257.0</ele><time>2026-04-08T14:41:21.969Z</time></trkpt><trkpt lat="42.365004" lon="13.1983622"><ele>1257.0</ele><time>2026-04-08T14:41:22.97Z</time></trkpt><trkpt lat="42.364983" lon="13.198252"><ele>1257.0</ele><time>2026-04-08T14:41:23.969Z</time></trkpt><trkpt lat="42.364975" lon="13.198159"><ele>1257.0</ele><time>2026-04-08T14:41:24.969Z</time></trkpt><trkpt lat="42.3650204" lon="13.1980088"><ele>1257.0</ele><time>2026-04-08T14:41:26.969Z</time></trkpt><trkpt lat="42.3651253" lon="13.1979089"><ele>1256.4</ele><time>2026-04-08T14:41:28.969Z</time></trkpt><trkpt lat="42.3651949" lon="13.1978615"><ele>1255.8000000000002</ele><time>2026-04-08T14:41:29.969Z</time></trkpt><trkpt lat="42.365282" lon="13.1978116"><ele>1255.2</ele><time>2026-04-08T14:41:30.969Z</time></trkpt><trkpt lat="42.3653731" lon="13.1977553"><ele>1254.6000000000001</ele><time>2026-04-08T14:41:31.97Z</time></trkpt><trkpt lat="42.3654654" lon="13.1976797"><ele>1254.0</ele><time>2026-04-08T14:41:32.969Z</time></trkpt><trkpt lat="42.3655617" lon="13.197605"><ele>1254.0</ele><time>2026-04-08T14:41:33.969Z</time></trkpt><trkpt lat="42.3656646" lon="13.1975304"><ele>1254.0</ele><time>2026-04-08T14:41:34.969Z</time></trkpt><trkpt lat="42.3657639" lon="13.1974555"><ele>1254.0</ele><time>2026-04-08T14:41:35.969Z</time></trkpt><trkpt lat="42.3658622" lon="13.1973833"><ele>1254.0</ele><time>2026-04-08T14:41:36.969Z</time></trkpt><trkpt lat="42.365961" lon="13.1973088"><ele>1253.0</ele><time>2026-04-08T14:41:37.97Z</time></trkpt><trkpt lat="42.3660532" lon="13.1972479"><ele>1252.0</ele><time>2026-04-08T14:41:38.97Z</time></trkpt><trkpt lat="42.3661428" lon="13.1971789"><ele>1251.0</ele><time>2026-04-08T14:41:39.969Z</time></trkpt><trkpt lat="42.3662333" lon="13.1971073"><ele>1250.0</ele><time>2026-04-08T14:41:40.969Z</time></trkpt><trkpt lat="42.3663192" lon="13.1970402"><ele>1249.0</ele><time>2026-04-08T14:41:41.969Z</time></trkpt><trkpt lat="42.3663945" lon="13.1969761"><ele>1249.0</ele><time>2026-04-08T14:41:42.969Z</time></trkpt><trkpt lat="42.3664593" lon="13.1969312"><ele>1249.0</ele><time>2026-04-08T14:41:43.969Z</time></trkpt><trkpt lat="42.3665299" lon="13.1968192"><ele>1249.0</ele><time>2026-04-08T14:41:45.969Z</time></trkpt><trkpt lat="42.3665083" lon="13.1966927"><ele>1249.0</ele><time>2026-04-08T14:41:47.969Z</time></trkpt><trkpt lat="42.3664845" lon="13.1965319"><ele>1249.0</ele><time>2026-04-08T14:41:49.969Z</time></trkpt><trkpt lat="42.3664703" lon="13.1964295"><ele>1245.4</ele><time>2026-04-08T14:41:50.969Z</time></trkpt><trkpt lat="42.3664571" lon="13.1963218"><ele>1241.8000000000002</ele><time>2026-04-08T14:41:51.969Z</time></trkpt><trkpt lat="42.3664402" lon="13.1962069"><ele>1238.1999999999998</ele><time>2026-04-08T14:41:52.969Z</time></trkpt><trkpt lat="42.3664243" lon="13.1960852"><ele>1234.6</ele><time>2026-04-08T14:41:53.97Z</time></trkpt><trkpt lat="42.366416" lon="13.1959568"><ele>1231.0</ele><time>2026-04-08T14:41:54.969Z</time></trkpt><trkpt lat="42.3664211" lon="13.1958222"><ele>1231.0</ele><time>2026-04-08T14:41:55.97Z</time></trkpt><trkpt lat="42.3664336" lon="13.1957025"><ele>1231.0</ele><time>2026-04-08T14:41:56.97Z</time></trkpt><trkpt lat="42.3664621" lon="13.1955958"><ele>1231.0</ele><time>2026-04-08T14:41:57.97Z</time></trkpt><trkpt lat="42.3665081" lon="13.1954979"><ele>1231.0</ele><time>2026-04-08T14:41:58.969Z</time></trkpt><trkpt lat="42.3665685" lon="13.1954134"><ele>1231.0</ele><time>2026-04-08T14:41:59.97Z</time></trkpt><trkpt lat="42.3666467" lon="13.1953464"><ele>1231.0</ele><time>2026-04-08T14:42:00.97Z</time></trkpt><trkpt lat="42.3667457" lon="13.1952802"><ele>1226.6</ele><time>2026-04-08T14:42:01.969Z</time></trkpt><trkpt lat="42.3668502" lon="13.1952285"><ele>1222.1999999999998</ele><time>2026-04-08T14:42:02.969Z</time></trkpt><trkpt lat="42.3669524" lon="13.1951793"><ele>1217.8000000000002</ele><time>2026-04-08T14:42:03.969Z</time></trkpt><trkpt lat="42.3670511" lon="13.1951215"><ele>1213.4</ele><time>2026-04-08T14:42:04.969Z</time></trkpt><trkpt lat="42.3671697" lon="13.1950903"><ele>1209.0</ele><time>2026-04-08T14:42:05.969Z</time></trkpt><trkpt lat="42.3672772" lon="13.1950648"><ele>1209.0</ele><time>2026-04-08T14:42:06.97Z</time></trkpt><trkpt lat="42.367383" lon="13.1950511"><ele>1209.0</ele><time>2026-04-08T14:42:07.969Z</time></trkpt><trkpt lat="42.3674852" lon="13.1950306"><ele>1209.0</ele><time>2026-04-08T14:42:08.97Z</time></trkpt><trkpt lat="42.3675847" lon="13.1950158"><ele>1209.0</ele><time>2026-04-08T14:42:09.969Z</time></trkpt><trkpt lat="42.3676856" lon="13.1950095"><ele>1209.0</ele><time>2026-04-08T14:42:10.97Z</time></trkpt><trkpt lat="42.3677776" lon="13.1950094"><ele>1209.0</ele><time>2026-04-08T14:42:11.969Z</time></trkpt><trkpt lat="42.3678671" lon="13.1950251"><ele>1209.0</ele><time>2026-04-08T14:42:12.969Z</time></trkpt><trkpt lat="42.3679528" lon="13.1950512"><ele>1209.0</ele><time>2026-04-08T14:42:13.969Z</time></trkpt><trkpt lat="42.3680283" lon="13.1950919"><ele>1209.0</ele><time>2026-04-08T14:42:14.969Z</time></trkpt><trkpt lat="42.368091" lon="13.1951116"><ele>1209.0</ele><time>2026-04-08T14:42:15.969Z</time></trkpt><trkpt lat="42.3681763" lon="13.1950626"><ele>1209.0</ele><time>2026-04-08T14:42:17.969Z</time></trkpt><trkpt lat="42.3681505" lon="13.1949514"><ele>1206.25</ele><time>2026-04-08T14:42:19.969Z</time></trkpt><trkpt lat="42.3680334" lon="13.194873"><ele>1203.5</ele><time>2026-04-08T14:42:21.968Z</time></trkpt><trkpt lat="42.3679447" lon="13.1948265"><ele>1200.75</ele><time>2026-04-08T14:42:22.969Z</time></trkpt><trkpt lat="42.3678423" lon="13.1947661"><ele>1198.0</ele><time>2026-04-08T14:42:23.969Z</time></trkpt><trkpt lat="42.3677284" lon="13.1946963"><ele>1192.25</ele><time>2026-04-08T14:42:24.969Z</time></trkpt><trkpt lat="42.3675954" lon="13.1946217"><ele>1186.5</ele><time>2026-04-08T14:42:25.969Z</time></trkpt><trkpt lat="42.3674556" lon="13.1945431"><ele>1180.75</ele><time>2026-04-08T14:42:26.969Z</time></trkpt><trkpt lat="42.3673196" lon="13.1944689"><ele>1175.0</ele><time>2026-04-08T14:42:27.969Z</time></trkpt><trkpt lat="42.3671895" lon="13.1944137"><ele>1175.0</ele><time>2026-04-08T14:42:28.969Z</time></trkpt><trkpt lat="42.3670451" lon="13.194343"><ele>1175.0</ele><time>2026-04-08T14:42:29.97Z</time></trkpt><trkpt lat="42.3669177" lon="13.1942836"><ele>1175.0</ele><time>2026-04-08T14:42:30.969Z</time></trkpt><trkpt lat="42.3667897" lon="13.1942486"><ele>1175.0</ele><time>2026-04-08T14:42:31.969Z</time></trkpt><trkpt lat="42.3666566" lon="13.1942163"><ele>1175.0</ele><time>2026-04-08T14:42:32.969Z</time></trkpt><trkpt lat="42.3665298" lon="13.1941962"><ele>1175.0</ele><time>2026-04-08T14:42:33.97Z</time></trkpt><trkpt lat="42.3664021" lon="13.1941728"><ele>1175.0</ele><time>2026-04-08T14:42:34.969Z</time></trkpt><trkpt lat="42.3662684" lon="13.1941593"><ele>1175.0</ele><time>2026-04-08T14:42:35.969Z</time></trkpt><trkpt lat="42.3661394" lon="13.1941676"><ele>1172.0</ele><time>2026-04-08T14:42:36.969Z</time></trkpt><trkpt lat="42.366024" lon="13.194187"><ele>1169.0</ele><time>2026-04-08T14:42:37.969Z</time></trkpt><trkpt lat="42.3659259" lon="13.1942224"><ele>1166.0</ele><time>2026-04-08T14:42:38.969Z</time></trkpt><trkpt lat="42.3658411" lon="13.19429"><ele>1163.0</ele><time>2026-04-08T14:42:39.969Z</time></trkpt><trkpt lat="42.3657805" lon="13.1943802"><ele>1160.0</ele><time>2026-04-08T14:42:40.969Z</time></trkpt><trkpt lat="42.3657395" lon="13.1945033"><ele>1160.0</ele><time>2026-04-08T14:42:41.969Z</time></trkpt><trkpt lat="42.3656951" lon="13.1946507"><ele>1160.0</ele><time>2026-04-08T14:42:42.969Z</time></trkpt><trkpt lat="42.3656386" lon="13.1948037"><ele>1160.0</ele><time>2026-04-08T14:42:43.969Z</time></trkpt><trkpt lat="42.3655722" lon="13.1949505"><ele>1160.0</ele><time>2026-04-08T14:42:44.969Z</time></trkpt><trkpt lat="42.3655203" lon="13.195088"><ele>1158.8</ele><time>2026-04-08T14:42:45.97Z</time></trkpt><trkpt lat="42.365481" lon="13.1952206"><ele>1157.6</ele><time>2026-04-08T14:42:46.969Z</time></trkpt><trkpt lat="42.3654507" lon="13.1953424"><ele>1156.4</ele><time>2026-04-08T14:42:47.97Z</time></trkpt><trkpt lat="42.3654241" lon="13.1954397"><ele>1155.2</ele><time>2026-04-08T14:42:48.969Z</time></trkpt><trkpt lat="42.3653502" lon="13.1955485"><ele>1154.0</ele><time>2026-04-08T14:42:50.969Z</time></trkpt><trkpt lat="42.3652394" lon="13.195528"><ele>1154.0</ele><time>2026-04-08T14:42:52.969Z</time></trkpt><trkpt lat="42.3651646" lon="13.1954884"><ele>1154.0</ele><time>2026-04-08T14:42:53.969Z</time></trkpt><trkpt lat="42.3650619" lon="13.1953741"><ele>1154.0</ele><time>2026-04-08T14:42:54.969Z</time></trkpt><trkpt lat="42.3649477" lon="13.195258"><ele>1154.0</ele><time>2026-04-08T14:42:55.969Z</time></trkpt><trkpt lat="42.3648456" lon="13.1951564"><ele>1154.0</ele><time>2026-04-08T14:42:56.969Z</time></trkpt><trkpt lat="42.3647094" lon="13.195039"><ele>1154.0</ele><time>2026-04-08T14:42:57.969Z</time></trkpt><trkpt lat="42.3645722" lon="13.1949121"><ele>1154.0</ele><time>2026-04-08T14:42:58.969Z</time></trkpt><trkpt lat="42.3644305" lon="13.1948176"><ele>1147.75</ele><time>2026-04-08T14:42:59.969Z</time></trkpt><trkpt lat="42.3643081" lon="13.1946997"><ele>1141.5</ele><time>2026-04-08T14:43:00.969Z</time></trkpt><trkpt lat="42.3641975" lon="13.1946233"><ele>1135.25</ele><time>2026-04-08T14:43:01.969Z</time></trkpt><trkpt lat="42.3640819" lon="13.19455"><ele>1129.0</ele><time>2026-04-08T14:43:02.969Z</time></trkpt><trkpt lat="42.3639922" lon="13.1945062"><ele>1129.0</ele><time>2026-04-08T14:43:03.969Z</time></trkpt><trkpt lat="42.3638833" lon="13.1944768"><ele>1129.0</ele><time>2026-04-08T14:43:04.969Z</time></trkpt><trkpt lat="42.3637759" lon="13.1944774"><ele>1129.0</ele><time>2026-04-08T14:43:05.969Z</time></trkpt><trkpt lat="42.3636639" lon="13.1945192"><ele>1129.0</ele><time>2026-04-08T14:43:06.969Z</time></trkpt><trkpt lat="42.3635495" lon="13.1945711"><ele>1132.0</ele><time>2026-04-08T14:43:07.969Z</time></trkpt><trkpt lat="42.3634353" lon="13.194646"><ele>1135.0</ele><time>2026-04-08T14:43:08.969Z</time></trkpt><trkpt lat="42.3633227" lon="13.1947418"><ele>1138.0</ele><time>2026-04-08T14:43:09.969Z</time></trkpt><trkpt lat="42.3632108" lon="13.194836"><ele>1141.0</ele><time>2026-04-08T14:43:10.97Z</time></trkpt><trkpt lat="42.3631068" lon="13.1949215"><ele>1137.6</ele><time>2026-04-08T14:43:11.969Z</time></trkpt><trkpt lat="42.3630118" lon="13.1949966"><ele>1134.1999999999998</ele><time>2026-04-08T14:43:12.97Z</time></trkpt><trkpt lat="42.3629202" lon="13.1950608"><ele>1130.8000000000002</ele><time>2026-04-08T14:43:13.969Z</time></trkpt><trkpt lat="42.3628326" lon="13.1950813"><ele>1127.4</ele><time>2026-04-08T14:43:14.97Z</time></trkpt><trkpt lat="42.3627511" lon="13.1950729"><ele>1124.0</ele><time>2026-04-08T14:43:15.969Z</time></trkpt><trkpt lat="42.3626577" lon="13.1949705"><ele>1124.0</ele><time>2026-04-08T14:43:16.969Z</time></trkpt><trkpt lat="42.3625666" lon="13.1949191"><ele>1124.0</ele><time>2026-04-08T14:43:17.969Z</time></trkpt><trkpt lat="42.3624676" lon="13.1948833"><ele>1124.0</ele><time>2026-04-08T14:43:18.969Z</time></trkpt><trkpt lat="42.3623777" lon="13.1948596"><ele>1124.0</ele><time>2026-04-08T14:43:19.97Z</time></trkpt><trkpt lat="42.3622826" lon="13.1948263"><ele>1124.0</ele><time>2026-04-08T14:43:20.969Z</time></trkpt><trkpt lat="42.3621857" lon="13.1948133"><ele>1120.3333333333335</ele><time>2026-04-08T14:43:21.97Z</time></trkpt><trkpt lat="42.3621037" lon="13.194837"><ele>1116.6666666666667</ele><time>2026-04-08T14:43:22.969Z</time></trkpt><trkpt lat="42.3620241" lon="13.1948712"><ele>1113.0</ele><time>2026-04-08T14:43:23.969Z</time></trkpt><trkpt lat="42.3619431" lon="13.1949241"><ele>1109.3333333333333</ele><time>2026-04-08T14:43:24.969Z</time></trkpt><trkpt lat="42.3618751" lon="13.195"><ele>1105.6666666666665</ele><time>2026-04-08T14:43:25.97Z</time></trkpt><trkpt lat="42.3617909" lon="13.1950506"><ele>1102.0</ele><time>2026-04-08T14:43:26.97Z</time></trkpt><trkpt lat="42.3617006" lon="13.1951038"><ele>1102.0</ele><time>2026-04-08T14:43:27.969Z</time></trkpt><trkpt lat="42.3616115" lon="13.1951593"><ele>1102.0</ele><time>2026-04-08T14:43:28.97Z</time></trkpt><trkpt lat="42.3615219" lon="13.195217"><ele>1102.0</ele><time>2026-04-08T14:43:29.97Z</time></trkpt><trkpt lat="42.3614472" lon="13.195284"><ele>1102.0</ele><time>2026-04-08T14:43:30.969Z</time></trkpt><trkpt lat="42.3613909" lon="13.1953563"><ele>1102.0</ele><time>2026-04-08T14:43:31.969Z</time></trkpt><trkpt lat="42.361347" lon="13.1954308"><ele>1102.0</ele><time>2026-04-08T14:43:32.969Z</time></trkpt><trkpt lat="42.3613324" lon="13.1955288"><ele>1103.8</ele><time>2026-04-08T14:43:33.969Z</time></trkpt><trkpt lat="42.3613292" lon="13.1956322"><ele>1105.6</ele><time>2026-04-08T14:43:34.969Z</time></trkpt><trkpt lat="42.3613431" lon="13.1957553"><ele>1107.3999999999999</ele><time>2026-04-08T14:43:35.969Z</time></trkpt><trkpt lat="42.3613632" lon="13.1958881"><ele>1109.2</ele><time>2026-04-08T14:43:36.969Z</time></trkpt><trkpt lat="42.3613962" lon="13.1960277"><ele>1111.0</ele><time>2026-04-08T14:43:37.97Z</time></trkpt><trkpt lat="42.361442" lon="13.1961661"><ele>1111.0</ele><time>2026-04-08T14:43:38.969Z</time></trkpt><trkpt lat="42.361487" lon="13.1963047"><ele>1111.0</ele><time>2026-04-08T14:43:39.969Z</time></trkpt><trkpt lat="42.3615293" lon="13.1964412"><ele>1111.0</ele><time>2026-04-08T14:43:40.969Z</time></trkpt><trkpt lat="42.3615747" lon="13.1965761"><ele>1111.0</ele><time>2026-04-08T14:43:41.969Z</time></trkpt><trkpt lat="42.361615" lon="13.1967094"><ele>1111.0</ele><time>2026-04-08T14:43:42.969Z</time></trkpt><trkpt lat="42.3616344" lon="13.1968195"><ele>1108.6666666666665</ele><time>2026-04-08T14:43:43.969Z</time></trkpt><trkpt lat="42.3616444" lon="13.1969333"><ele>1106.3333333333333</ele><time>2026-04-08T14:43:44.969Z</time></trkpt><trkpt lat="42.3616287" lon="13.1970429"><ele>1104.0</ele><time>2026-04-08T14:43:45.969Z</time></trkpt><trkpt lat="42.3616081" lon="13.1971533"><ele>1101.6666666666667</ele><time>2026-04-08T14:43:46.969Z</time></trkpt><trkpt lat="42.3615775" lon="13.1972621"><ele>1099.3333333333335</ele><time>2026-04-08T14:43:47.97Z</time></trkpt><trkpt lat="42.3615061" lon="13.1973762"><ele>1097.0</ele><time>2026-04-08T14:43:48.969Z</time></trkpt><trkpt lat="42.361444" lon="13.197492"><ele>1095.8333333333335</ele><time>2026-04-08T14:43:49.969Z</time></trkpt><trkpt lat="42.3614021" lon="13.1975716"><ele>1094.6666666666667</ele><time>2026-04-08T14:43:50.969Z</time></trkpt><trkpt lat="42.3613715" lon="13.197657"><ele>1093.5</ele><time>2026-04-08T14:43:58.969Z</time></trkpt><trkpt lat="42.3613151" lon="13.1977717"><ele>1092.3333333333333</ele><time>2026-04-08T14:44:00.969Z</time></trkpt><trkpt lat="42.3612935" lon="13.1978794"><ele>1091.1666666666665</ele><time>2026-04-08T14:44:01.97Z</time></trkpt><trkpt lat="42.3612791" lon="13.1980028"><ele>1090.0</ele><time>2026-04-08T14:44:02.969Z</time></trkpt><trkpt lat="42.3612898" lon="13.1981521"><ele>1088.75</ele><time>2026-04-08T14:44:03.969Z</time></trkpt><trkpt lat="42.3613167" lon="13.1983083"><ele>1087.5</ele><time>2026-04-08T14:44:04.969Z</time></trkpt><trkpt lat="42.3613565" lon="13.1984683"><ele>1086.25</ele><time>2026-04-08T14:44:05.969Z</time></trkpt><trkpt lat="42.3613925" lon="13.1986229"><ele>1085.0</ele><time>2026-04-08T14:44:06.969Z</time></trkpt><trkpt lat="42.3614377" lon="13.198766"><ele>1085.0</ele><time>2026-04-08T14:44:07.969Z</time></trkpt><trkpt lat="42.361492" lon="13.1989008"><ele>1085.0</ele><time>2026-04-08T14:44:08.969Z</time></trkpt><trkpt lat="42.3615465" lon="13.1990301"><ele>1085.0</ele><time>2026-04-08T14:44:09.97Z</time></trkpt><trkpt lat="42.3615957" lon="13.1991536"><ele>1085.0</ele><time>2026-04-08T14:44:10.97Z</time></trkpt><trkpt lat="42.3616342" lon="13.1992811"><ele>1085.0</ele><time>2026-04-08T14:44:11.969Z</time></trkpt><trkpt lat="42.36166" lon="13.1994128"><ele>1083.1666666666667</ele><time>2026-04-08T14:44:12.97Z</time></trkpt><trkpt lat="42.3616837" lon="13.1995447"><ele>1081.3333333333335</ele><time>2026-04-08T14:44:13.969Z</time></trkpt><trkpt lat="42.3617101" lon="13.199672"><ele>1079.5</ele><time>2026-04-08T14:44:14.969Z</time></trkpt><trkpt lat="42.3617356" lon="13.1997855"><ele>1077.6666666666667</ele><time>2026-04-08T14:44:15.969Z</time></trkpt><trkpt lat="42.3617421" lon="13.1998763"><ele>1075.8333333333333</ele><time>2026-04-08T14:44:16.97Z</time></trkpt><trkpt lat="42.3617016" lon="13.1999564"><ele>1074.0</ele><time>2026-04-08T14:44:18.97Z</time></trkpt><trkpt lat="42.3616095" lon="13.1998832"><ele>1074.0</ele><time>2026-04-08T14:44:20.969Z</time></trkpt><trkpt lat="42.3615329" lon="13.1998137"><ele>1074.0</ele><time>2026-04-08T14:44:21.969Z</time></trkpt><trkpt lat="42.361442" lon="13.1997069"><ele>1074.0</ele><time>2026-04-08T14:44:22.97Z</time></trkpt><trkpt lat="42.3613527" lon="13.199578"><ele>1074.0</ele><time>2026-04-08T14:44:23.969Z</time></trkpt><trkpt lat="42.3612496" lon="13.1994433"><ele>1064.0</ele><time>2026-04-08T14:44:24.97Z</time></trkpt><trkpt lat="42.3611356" lon="13.1993031"><ele>1054.0</ele><time>2026-04-08T14:44:25.969Z</time></trkpt><trkpt lat="42.3610211" lon="13.1991558"><ele>1044.0</ele><time>2026-04-08T14:44:26.969Z</time></trkpt><trkpt lat="42.360914" lon="13.1990152"><ele>1045.5</ele><time>2026-04-08T14:44:27.969Z</time></trkpt><trkpt lat="42.3608017" lon="13.1988742"><ele>1047.0</ele><time>2026-04-08T14:44:28.969Z</time></trkpt><trkpt lat="42.3606981" lon="13.1987512"><ele>1048.5</ele><time>2026-04-08T14:44:29.969Z</time></trkpt><trkpt lat="42.3606031" lon="13.1986447"><ele>1050.0</ele><time>2026-04-08T14:44:30.969Z</time></trkpt><trkpt lat="42.3605207" lon="13.1985442"><ele>1045.6666666666667</ele><time>2026-04-08T14:44:31.969Z</time></trkpt><trkpt lat="42.3604394" lon="13.1984541"><ele>1041.3333333333333</ele><time>2026-04-08T14:44:32.969Z</time></trkpt><trkpt lat="42.3603802" lon="13.1983634"><ele>1037.0</ele><time>2026-04-08T14:44:33.97Z</time></trkpt><trkpt lat="42.360327" lon="13.1982795"><ele>1032.6666666666665</ele><time>2026-04-08T14:44:34.969Z</time></trkpt><trkpt lat="42.3602939" lon="13.1981882"><ele>1028.3333333333333</ele><time>2026-04-08T14:44:35.969Z</time></trkpt><trkpt lat="42.360278" lon="13.1980765"><ele>1024.0</ele><time>2026-04-08T14:44:36.969Z</time></trkpt><trkpt lat="42.3602657" lon="13.1979403"><ele>1023.75</ele><time>2026-04-08T14:44:37.969Z</time></trkpt><trkpt lat="42.3602633" lon="13.19779"><ele>1023.5</ele><time>2026-04-08T14:44:38.969Z</time></trkpt><trkpt lat="42.3602682" lon="13.1976276"><ele>1023.25</ele><time>2026-04-08T14:44:39.969Z</time></trkpt><trkpt lat="42.3602729" lon="13.1974615"><ele>1023.0</ele><time>2026-04-08T14:44:40.969Z</time></trkpt><trkpt lat="42.3602764" lon="13.1972923"><ele>1022.25</ele><time>2026-04-08T14:44:41.97Z</time></trkpt><trkpt lat="42.3602866" lon="13.197131"><ele>1021.5</ele><time>2026-04-08T14:44:42.969Z</time></trkpt><trkpt lat="42.3602853" lon="13.196968"><ele>1020.75</ele><time>2026-04-08T14:44:43.969Z</time></trkpt><trkpt lat="42.3602762" lon="13.1968112"><ele>1020.0</ele><time>2026-04-08T14:44:44.97Z</time></trkpt><trkpt lat="42.3602586" lon="13.1966722"><ele>1020.0</ele><time>2026-04-08T14:44:45.969Z</time></trkpt><trkpt lat="42.360229" lon="13.1965461"><ele>1020.0</ele><time>2026-04-08T14:44:46.969Z</time></trkpt><trkpt lat="42.3601819" lon="13.1964167"><ele>1020.0</ele><time>2026-04-08T14:44:47.969Z</time></trkpt><trkpt lat="42.3601144" lon="13.1962766"><ele>1020.0</ele><time>2026-04-08T14:44:48.969Z</time></trkpt><trkpt lat="42.3600438" lon="13.1961342"><ele>1021.25</ele><time>2026-04-08T14:44:49.969Z</time></trkpt><trkpt lat="42.3599784" lon="13.1959994"><ele>1022.5</ele><time>2026-04-08T14:44:50.969Z</time></trkpt><trkpt lat="42.3598985" lon="13.1958673"><ele>1023.75</ele><time>2026-04-08T14:44:51.969Z</time></trkpt><trkpt lat="42.3598172" lon="13.195737"><ele>1025.0</ele><time>2026-04-08T14:44:52.97Z</time></trkpt><trkpt lat="42.3597483" lon="13.1956148"><ele>1018.5</ele><time>2026-04-08T14:44:53.97Z</time></trkpt><trkpt lat="42.3596987" lon="13.1954973"><ele>1012.0</ele><time>2026-04-08T14:44:54.969Z</time></trkpt><trkpt lat="42.3596607" lon="13.1953729"><ele>1005.5</ele><time>2026-04-08T14:44:55.969Z</time></trkpt><trkpt lat="42.359624" lon="13.1952147"><ele>999.0</ele><time>2026-04-08T14:44:56.969Z</time></trkpt><trkpt lat="42.3595938" lon="13.1950443"><ele>999.0</ele><time>2026-04-08T14:44:57.97Z</time></trkpt><trkpt lat="42.3595629" lon="13.1948685"><ele>999.0</ele><time>2026-04-08T14:44:58.969Z</time></trkpt><trkpt lat="42.3595313" lon="13.1946879"><ele>999.0</ele><time>2026-04-08T14:44:59.969Z</time></trkpt><trkpt lat="42.3595112" lon="13.1945062"><ele>999.0</ele><time>2026-04-08T14:45:00.969Z</time></trkpt><trkpt lat="42.3594975" lon="13.1943254"><ele>998.25</ele><time>2026-04-08T14:45:01.97Z</time></trkpt><trkpt lat="42.3594896" lon="13.1941516"><ele>997.5</ele><time>2026-04-08T14:45:02.97Z</time></trkpt><trkpt lat="42.3594838" lon="13.1939801"><ele>996.75</ele><time>2026-04-08T14:45:03.97Z</time></trkpt><trkpt lat="42.3594776" lon="13.1938119"><ele>996.0</ele><time>2026-04-08T14:45:04.969Z</time></trkpt><trkpt lat="42.3594765" lon="13.1936485"><ele>995.5999999999999</ele><time>2026-04-08T14:45:05.969Z</time></trkpt><trkpt lat="42.3594765" lon="13.1934955"><ele>995.1999999999999</ele><time>2026-04-08T14:45:06.969Z</time></trkpt><trkpt lat="42.359484" lon="13.1933459"><ele>994.8000000000001</ele><time>2026-04-08T14:45:07.969Z</time></trkpt><trkpt lat="42.3594925" lon="13.1932056"><ele>994.4000000000001</ele><time>2026-04-08T14:45:08.969Z</time></trkpt><trkpt lat="42.3595033" lon="13.1930701"><ele>994.0</ele><time>2026-04-08T14:45:09.969Z</time></trkpt><trkpt lat="42.3595222" lon="13.1929421"><ele>993.9999999999999</ele><time>2026-04-08T14:45:10.97Z</time></trkpt><trkpt lat="42.359544" lon="13.1928162"><ele>994.0</ele><time>2026-04-08T14:45:11.97Z</time></trkpt><trkpt lat="42.3595661" lon="13.1926937"><ele>994.0</ele><time>2026-04-08T14:45:12.969Z</time></trkpt><trkpt lat="42.3595931" lon="13.1925717"><ele>994.0</ele><time>2026-04-08T14:45:13.969Z</time></trkpt><trkpt lat="42.3596121" lon="13.192481"><ele>993.9999999999999</ele><time>2026-04-08T14:45:14.969Z</time></trkpt><trkpt lat="42.359657" lon="13.1923886"><ele>994.0</ele><time>2026-04-08T14:45:16.969Z</time></trkpt><trkpt lat="42.3597142" lon="13.1923342"><ele>994.2</ele><time>2026-04-08T14:46:13.969Z</time></trkpt><trkpt lat="42.359703" lon="13.192236"><ele>994.4000000000001</ele><time>2026-04-08T14:46:15.969Z</time></trkpt><trkpt lat="42.3597167" lon="13.1920919"><ele>994.6</ele><time>2026-04-08T14:46:18.969Z</time></trkpt><trkpt lat="42.3597458" lon="13.192005"><ele>994.8</ele><time>2026-04-08T14:46:19.969Z</time></trkpt><trkpt lat="42.3598023" lon="13.1919055"><ele>995.0</ele><time>2026-04-08T14:46:20.969Z</time></trkpt><trkpt lat="42.3598699" lon="13.1917753"><ele>995.0</ele><time>2026-04-08T14:46:21.969Z</time></trkpt><trkpt lat="42.359939" lon="13.1916291"><ele>995.0</ele><time>2026-04-08T14:46:22.97Z</time></trkpt><trkpt lat="42.3600143" lon="13.1914683"><ele>995.0</ele><time>2026-04-08T14:46:23.969Z</time></trkpt><trkpt lat="42.3601007" lon="13.1912844"><ele>995.0</ele><time>2026-04-08T14:46:24.969Z</time></trkpt><trkpt lat="42.3601961" lon="13.1910884"><ele>994.3333333333334</ele><time>2026-04-08T14:46:25.969Z</time></trkpt><trkpt lat="42.3602977" lon="13.1908733"><ele>993.6666666666667</ele><time>2026-04-08T14:46:26.969Z</time></trkpt><trkpt lat="42.3604099" lon="13.1906422"><ele>993.0</ele><time>2026-04-08T14:46:27.97Z</time></trkpt><trkpt lat="42.360522" lon="13.1904019"><ele>993.0</ele><time>2026-04-08T14:46:28.969Z</time></trkpt><trkpt lat="42.3606441" lon="13.1901529"><ele>993.0</ele><time>2026-04-08T14:46:29.969Z</time></trkpt><trkpt lat="42.3607704" lon="13.1898938"><ele>991.5</ele><time>2026-04-08T14:46:30.969Z</time></trkpt><trkpt lat="42.3608995" lon="13.1896272"><ele>990.0</ele><time>2026-04-08T14:46:31.969Z</time></trkpt><trkpt lat="42.361026" lon="13.1893569"><ele>990.0</ele><time>2026-04-08T14:46:32.969Z</time></trkpt><trkpt lat="42.3611525" lon="13.1890825"><ele>990.0</ele><time>2026-04-08T14:46:33.97Z</time></trkpt><trkpt lat="42.3612823" lon="13.188812"><ele>991.0</ele><time>2026-04-08T14:46:34.969Z</time></trkpt><trkpt lat="42.3614055" lon="13.188543"><ele>992.0</ele><time>2026-04-08T14:46:35.969Z</time></trkpt><trkpt lat="42.3615328" lon="13.188273"><ele>991.0</ele><time>2026-04-08T14:46:36.969Z</time></trkpt><trkpt lat="42.3616585" lon="13.1880032"><ele>990.0</ele><time>2026-04-08T14:46:37.969Z</time></trkpt><trkpt lat="42.361787" lon="13.1877298"><ele>990.0</ele><time>2026-04-08T14:46:38.969Z</time></trkpt><trkpt lat="42.361921" lon="13.1874547"><ele>990.0</ele><time>2026-04-08T14:46:39.97Z</time></trkpt><trkpt lat="42.3620592" lon="13.1871817"><ele>989.0</ele><time>2026-04-08T14:46:40.97Z</time></trkpt><trkpt lat="42.3621968" lon="13.1869034"><ele>988.0</ele><time>2026-04-08T14:46:41.969Z</time></trkpt><trkpt lat="42.3623333" lon="13.1866247"><ele>988.0</ele><time>2026-04-08T14:46:42.969Z</time></trkpt><trkpt lat="42.3624647" lon="13.1863425"><ele>988.0</ele><time>2026-04-08T14:46:43.969Z</time></trkpt><trkpt lat="42.3625971" lon="13.1860627"><ele>988.0</ele><time>2026-04-08T14:46:44.969Z</time></trkpt><trkpt lat="42.3627261" lon="13.1857857"><ele>988.0</ele><time>2026-04-08T14:46:45.969Z</time></trkpt><trkpt lat="42.3628561" lon="13.1855085"><ele>989.0</ele><time>2026-04-08T14:46:46.969Z</time></trkpt><trkpt lat="42.3629832" lon="13.1852323"><ele>990.0</ele><time>2026-04-08T14:46:47.969Z</time></trkpt><trkpt lat="42.3630953" lon="13.1849536"><ele>989.5</ele><time>2026-04-08T14:46:48.969Z</time></trkpt><trkpt lat="42.3631955" lon="13.1846739"><ele>989.0</ele><time>2026-04-08T14:46:49.969Z</time></trkpt><trkpt lat="42.3632801" lon="13.1843947"><ele>989.0</ele><time>2026-04-08T14:46:50.969Z</time></trkpt><trkpt lat="42.3633709" lon="13.184118"><ele>989.0</ele><time>2026-04-08T14:46:51.969Z</time></trkpt><trkpt lat="42.3634657" lon="13.1838268"><ele>986.0</ele><time>2026-04-08T14:46:52.969Z</time></trkpt><trkpt lat="42.3635573" lon="13.1835212"><ele>983.0</ele><time>2026-04-08T14:46:53.969Z</time></trkpt><trkpt lat="42.363657" lon="13.1832154"><ele>980.0</ele><time>2026-04-08T14:46:54.969Z</time></trkpt><trkpt lat="42.3637557" lon="13.1828912"><ele>977.0</ele><time>2026-04-08T14:46:55.969Z</time></trkpt><trkpt lat="42.3638586" lon="13.1825727"><ele>979.5</ele><time>2026-04-08T14:46:56.969Z</time></trkpt><trkpt lat="42.3639664" lon="13.1822464"><ele>982.0</ele><time>2026-04-08T14:46:57.969Z</time></trkpt><trkpt lat="42.3640753" lon="13.1819218"><ele>982.0</ele><time>2026-04-08T14:46:58.969Z</time></trkpt><trkpt lat="42.3641838" lon="13.1815995"><ele>982.0</ele><time>2026-04-08T14:46:59.969Z</time></trkpt><trkpt lat="42.3642961" lon="13.181279"><ele>979.5</ele><time>2026-04-08T14:47:00.969Z</time></trkpt><trkpt lat="42.3644198" lon="13.1809637"><ele>977.0</ele><time>2026-04-08T14:47:01.969Z</time></trkpt><trkpt lat="42.364563" lon="13.1806635"><ele>978.5</ele><time>2026-04-08T14:47:02.97Z</time></trkpt><trkpt lat="42.3647173" lon="13.1803773"><ele>980.0</ele><time>2026-04-08T14:47:03.969Z</time></trkpt><trkpt lat="42.3648859" lon="13.1801098"><ele>978.5</ele><time>2026-04-08T14:47:04.97Z</time></trkpt><trkpt lat="42.3650612" lon="13.1798488"><ele>977.0</ele><time>2026-04-08T14:47:05.969Z</time></trkpt><trkpt lat="42.3652433" lon="13.1795975"><ele>977.0</ele><time>2026-04-08T14:47:06.969Z</time></trkpt><trkpt lat="42.3654323" lon="13.1793519"><ele>977.0</ele><time>2026-04-08T14:47:07.969Z</time></trkpt><trkpt lat="42.3656224" lon="13.1791137"><ele>976.5</ele><time>2026-04-08T14:47:08.969Z</time></trkpt><trkpt lat="42.3658175" lon="13.1788857"><ele>976.0</ele><time>2026-04-08T14:47:09.969Z</time></trkpt><trkpt lat="42.3660182" lon="13.178657"><ele>976.0</ele><time>2026-04-08T14:47:10.969Z</time></trkpt><trkpt lat="42.3662148" lon="13.1784347"><ele>976.0</ele><time>2026-04-08T14:47:11.969Z</time></trkpt><trkpt lat="42.3664188" lon="13.1782153"><ele>976.0</ele><time>2026-04-08T14:47:12.969Z</time></trkpt><trkpt lat="42.3666186" lon="13.1780004"><ele>976.0</ele><time>2026-04-08T14:47:13.969Z</time></trkpt><trkpt lat="42.3668195" lon="13.1777896"><ele>976.0</ele><time>2026-04-08T14:47:14.969Z</time></trkpt><trkpt lat="42.3670238" lon="13.1775884"><ele>976.0</ele><time>2026-04-08T14:47:15.97Z</time></trkpt><trkpt lat="42.3672312" lon="13.1774038"><ele>975.5</ele><time>2026-04-08T14:47:16.969Z</time></trkpt><trkpt lat="42.3674319" lon="13.1772091"><ele>975.0</ele><time>2026-04-08T14:47:17.969Z</time></trkpt><trkpt lat="42.3676295" lon="13.1770019"><ele>975.0</ele><time>2026-04-08T14:47:18.969Z</time></trkpt><trkpt lat="42.3678133" lon="13.176784"><ele>975.0</ele><time>2026-04-08T14:47:19.969Z</time></trkpt><trkpt lat="42.3679809" lon="13.1765578"><ele>975.0</ele><time>2026-04-08T14:47:20.969Z</time></trkpt><trkpt lat="42.3681422" lon="13.1763151"><ele>975.0</ele><time>2026-04-08T14:47:21.969Z</time></trkpt><trkpt lat="42.3682921" lon="13.1760586"><ele>975.0</ele><time>2026-04-08T14:47:22.969Z</time></trkpt><trkpt lat="42.368437" lon="13.175792"><ele>975.0</ele><time>2026-04-08T14:47:23.969Z</time></trkpt><trkpt lat="42.3685655" lon="13.1755163"><ele>972.0</ele><time>2026-04-08T14:47:24.97Z</time></trkpt><trkpt lat="42.3686771" lon="13.1752306"><ele>969.0</ele><time>2026-04-08T14:47:25.969Z</time></trkpt><trkpt lat="42.3687659" lon="13.1749345"><ele>966.0</ele><time>2026-04-08T14:47:26.97Z</time></trkpt><trkpt lat="42.3688492" lon="13.1746377"><ele>963.0</ele><time>2026-04-08T14:47:27.969Z</time></trkpt><trkpt lat="42.368917" lon="13.1743347"><ele>966.6666666666667</ele><time>2026-04-08T14:47:28.97Z</time></trkpt><trkpt lat="42.3689532" lon="13.1740314"><ele>970.3333333333334</ele><time>2026-04-08T14:47:29.969Z</time></trkpt><trkpt lat="42.3689621" lon="13.1737391"><ele>974.0</ele><time>2026-04-08T14:47:30.969Z</time></trkpt><trkpt lat="42.3689466" lon="13.1734432"><ele>974.3333333333334</ele><time>2026-04-08T14:47:31.969Z</time></trkpt><trkpt lat="42.3689125" lon="13.1731617"><ele>974.6666666666667</ele><time>2026-04-08T14:47:32.969Z</time></trkpt><trkpt lat="42.3688847" lon="13.1728926"><ele>975.0</ele><time>2026-04-08T14:47:33.969Z</time></trkpt><trkpt lat="42.3688633" lon="13.17263"><ele>972.0</ele><time>2026-04-08T14:47:34.969Z</time></trkpt><trkpt lat="42.3688455" lon="13.1723708"><ele>969.0</ele><time>2026-04-08T14:47:35.969Z</time></trkpt><trkpt lat="42.3688383" lon="13.1721093"><ele>966.0</ele><time>2026-04-08T14:47:36.97Z</time></trkpt><trkpt lat="42.3688409" lon="13.1718442"><ele>965.6666666666667</ele><time>2026-04-08T14:47:37.969Z</time></trkpt><trkpt lat="42.3688501" lon="13.1715742"><ele>965.3333333333334</ele><time>2026-04-08T14:47:38.969Z</time></trkpt><trkpt lat="42.3688764" lon="13.1713081"><ele>965.0</ele><time>2026-04-08T14:47:39.969Z</time></trkpt><trkpt lat="42.3689204" lon="13.1710389"><ele>965.3333333333334</ele><time>2026-04-08T14:47:40.969Z</time></trkpt><trkpt lat="42.368967" lon="13.1707681"><ele>965.6666666666667</ele><time>2026-04-08T14:47:41.97Z</time></trkpt><trkpt lat="42.3690224" lon="13.1704945"><ele>966.0</ele><time>2026-04-08T14:47:42.969Z</time></trkpt><trkpt lat="42.3690849" lon="13.1702188"><ele>966.0</ele><time>2026-04-08T14:47:43.97Z</time></trkpt><trkpt lat="42.3691386" lon="13.1699519"><ele>966.0</ele><time>2026-04-08T14:47:44.969Z</time></trkpt><trkpt lat="42.369198" lon="13.1696981"><ele>966.0</ele><time>2026-04-08T14:47:45.969Z</time></trkpt><trkpt lat="42.3692738" lon="13.1694536"><ele>965.3333333333333</ele><time>2026-04-08T14:47:46.969Z</time></trkpt><trkpt lat="42.3693717" lon="13.1692309"><ele>964.6666666666666</ele><time>2026-04-08T14:47:47.97Z</time></trkpt><trkpt lat="42.3694875" lon="13.1690254"><ele>964.0</ele><time>2026-04-08T14:47:48.969Z</time></trkpt><trkpt lat="42.3696291" lon="13.1688493"><ele>963.6666666666666</ele><time>2026-04-08T14:47:49.97Z</time></trkpt><trkpt lat="42.3697927" lon="13.1686896"><ele>963.3333333333333</ele><time>2026-04-08T14:47:50.969Z</time></trkpt><trkpt lat="42.3699631" lon="13.1685326"><ele>963.0</ele><time>2026-04-08T14:47:51.969Z</time></trkpt><trkpt lat="42.3701343" lon="13.1683648"><ele>963.0</ele><time>2026-04-08T14:47:52.969Z</time></trkpt><trkpt lat="42.3703105" lon="13.1682001"><ele>963.0</ele><time>2026-04-08T14:47:53.97Z</time></trkpt><trkpt lat="42.3704917" lon="13.168046"><ele>963.0</ele><time>2026-04-08T14:47:54.969Z</time></trkpt><trkpt lat="42.3706862" lon="13.1679072"><ele>961.6666666666667</ele><time>2026-04-08T14:47:55.969Z</time></trkpt><trkpt lat="42.3708808" lon="13.1677808"><ele>960.3333333333334</ele><time>2026-04-08T14:47:56.969Z</time></trkpt><trkpt lat="42.3710893" lon="13.1676621"><ele>959.0</ele><time>2026-04-08T14:47:57.969Z</time></trkpt><trkpt lat="42.3712887" lon="13.1675402"><ele>960.5</ele><time>2026-04-08T14:47:58.969Z</time></trkpt><trkpt lat="42.3714894" lon="13.1673947"><ele>962.0</ele><time>2026-04-08T14:47:59.969Z</time></trkpt><trkpt lat="42.3716807" lon="13.1672354"><ele>961.0</ele><time>2026-04-08T14:48:00.969Z</time></trkpt><trkpt lat="42.3718622" lon="13.1670711"><ele>960.0</ele><time>2026-04-08T14:48:01.969Z</time></trkpt><trkpt lat="42.37204" lon="13.1668887"><ele>959.0</ele><time>2026-04-08T14:48:02.969Z</time></trkpt><trkpt lat="42.3722097" lon="13.1666996"><ele>956.6666666666667</ele><time>2026-04-08T14:48:03.97Z</time></trkpt><trkpt lat="42.3723696" lon="13.1664882"><ele>954.3333333333333</ele><time>2026-04-08T14:48:04.969Z</time></trkpt><trkpt lat="42.3725184" lon="13.1662718"><ele>952.0</ele><time>2026-04-08T14:48:05.97Z</time></trkpt><trkpt lat="42.3726586" lon="13.1660548"><ele>952.0</ele><time>2026-04-08T14:48:06.97Z</time></trkpt><trkpt lat="42.3728084" lon="13.1658275"><ele>952.0</ele><time>2026-04-08T14:48:07.969Z</time></trkpt><trkpt lat="42.3729598" lon="13.1656037"><ele>952.0</ele><time>2026-04-08T14:48:08.97Z</time></trkpt><trkpt lat="42.3731162" lon="13.1653732"><ele>952.5</ele><time>2026-04-08T14:48:09.969Z</time></trkpt><trkpt lat="42.3732676" lon="13.1651438"><ele>953.0</ele><time>2026-04-08T14:48:10.97Z</time></trkpt><trkpt lat="42.373427" lon="13.1649064"><ele>950.5</ele><time>2026-04-08T14:48:11.969Z</time></trkpt><trkpt lat="42.373577" lon="13.1646749"><ele>948.0</ele><time>2026-04-08T14:48:12.969Z</time></trkpt><trkpt lat="42.373733" lon="13.164445"><ele>948.5</ele><time>2026-04-08T14:48:13.97Z</time></trkpt><trkpt lat="42.373891" lon="13.1642128"><ele>949.0</ele><time>2026-04-08T14:48:14.969Z</time></trkpt><trkpt lat="42.374053" lon="13.1639731"><ele>949.0</ele><time>2026-04-08T14:48:15.969Z</time></trkpt><trkpt lat="42.3742154" lon="13.1637475"><ele>949.0</ele><time>2026-04-08T14:48:16.97Z</time></trkpt><trkpt lat="42.3743808" lon="13.1635265"><ele>949.0</ele><time>2026-04-08T14:48:17.969Z</time></trkpt><trkpt lat="42.3745562" lon="13.1633124"><ele>949.0</ele><time>2026-04-08T14:48:18.969Z</time></trkpt><trkpt lat="42.3747346" lon="13.1631087"><ele>947.5</ele><time>2026-04-08T14:48:19.97Z</time></trkpt><trkpt lat="42.3749164" lon="13.1628998"><ele>946.0</ele><time>2026-04-08T14:48:20.97Z</time></trkpt><trkpt lat="42.375076" lon="13.1626804"><ele>946.0</ele><time>2026-04-08T14:48:21.969Z</time></trkpt><trkpt lat="42.3752154" lon="13.1624499"><ele>946.0</ele><time>2026-04-08T14:48:22.969Z</time></trkpt><trkpt lat="42.3753481" lon="13.162197"><ele>946.0</ele><time>2026-04-08T14:48:23.97Z</time></trkpt><trkpt lat="42.3754511" lon="13.1619204"><ele>945.5</ele><time>2026-04-08T14:48:24.97Z</time></trkpt><trkpt lat="42.375552" lon="13.1616384"><ele>945.0</ele><time>2026-04-08T14:48:25.969Z</time></trkpt><trkpt lat="42.3756586" lon="13.1613457"><ele>942.5</ele><time>2026-04-08T14:48:26.969Z</time></trkpt><trkpt lat="42.3757675" lon="13.1610456"><ele>940.0</ele><time>2026-04-08T14:48:27.969Z</time></trkpt><trkpt lat="42.3758741" lon="13.1607565"><ele>938.5</ele><time>2026-04-08T14:48:28.969Z</time></trkpt><trkpt lat="42.3759793" lon="13.1604609"><ele>937.0</ele><time>2026-04-08T14:48:29.97Z</time></trkpt><trkpt lat="42.3760906" lon="13.1601637"><ele>937.0</ele><time>2026-04-08T14:48:30.969Z</time></trkpt><trkpt lat="42.3762029" lon="13.1598855"><ele>937.0</ele><time>2026-04-08T14:48:31.969Z</time></trkpt><trkpt lat="42.3763311" lon="13.1595946"><ele>938.0</ele><time>2026-04-08T14:48:32.969Z</time></trkpt><trkpt lat="42.3764603" lon="13.1593094"><ele>939.0</ele><time>2026-04-08T14:48:33.97Z</time></trkpt><trkpt lat="42.3765945" lon="13.1590333"><ele>936.0</ele><time>2026-04-08T14:48:34.97Z</time></trkpt><trkpt lat="42.3767271" lon="13.158753"><ele>933.0</ele><time>2026-04-08T14:48:35.969Z</time></trkpt><trkpt lat="42.3768591" lon="13.1584802"><ele>933.0</ele><time>2026-04-08T14:48:36.969Z</time></trkpt><trkpt lat="42.376984" lon="13.158219"><ele>933.0</ele><time>2026-04-08T14:48:37.969Z</time></trkpt><trkpt lat="42.377095" lon="13.1579529"><ele>931.3333333333333</ele><time>2026-04-08T14:48:38.969Z</time></trkpt><trkpt lat="42.3771813" lon="13.1576771"><ele>929.6666666666666</ele><time>2026-04-08T14:48:39.969Z</time></trkpt><trkpt lat="42.3772439" lon="13.1573933"><ele>928.0</ele><time>2026-04-08T14:48:40.969Z</time></trkpt><trkpt lat="42.3772963" lon="13.1571052"><ele>930.6666666666666</ele><time>2026-04-08T14:48:41.97Z</time></trkpt><trkpt lat="42.3773197" lon="13.1568123"><ele>933.3333333333333</ele><time>2026-04-08T14:48:42.969Z</time></trkpt><trkpt lat="42.3773505" lon="13.1565157"><ele>936.0</ele><time>2026-04-08T14:48:43.969Z</time></trkpt><trkpt lat="42.3773851" lon="13.1562273"><ele>936.0</ele><time>2026-04-08T14:48:44.969Z</time></trkpt><trkpt lat="42.3774224" lon="13.1559597"><ele>936.0</ele><time>2026-04-08T14:48:45.969Z</time></trkpt><trkpt lat="42.3774686" lon="13.1557205"><ele>936.0</ele><time>2026-04-08T14:48:46.969Z</time></trkpt><trkpt lat="42.3775352" lon="13.1554994"><ele>933.6666666666667</ele><time>2026-04-08T14:48:47.969Z</time></trkpt><trkpt lat="42.377621" lon="13.1553021"><ele>931.3333333333334</ele><time>2026-04-08T14:48:48.969Z</time></trkpt><trkpt lat="42.3777397" lon="13.1551275"><ele>929.0</ele><time>2026-04-08T14:48:49.969Z</time></trkpt><trkpt lat="42.3778848" lon="13.1549706"><ele>929.3333333333334</ele><time>2026-04-08T14:48:50.969Z</time></trkpt><trkpt lat="42.3780448" lon="13.1548148"><ele>929.6666666666667</ele><time>2026-04-08T14:48:51.969Z</time></trkpt><trkpt lat="42.3782113" lon="13.1546498"><ele>930.0</ele><time>2026-04-08T14:48:52.969Z</time></trkpt><trkpt lat="42.3783828" lon="13.1544812"><ele>930.0</ele><time>2026-04-08T14:48:53.969Z</time></trkpt><trkpt lat="42.3785601" lon="13.1543109"><ele>930.0</ele><time>2026-04-08T14:48:54.969Z</time></trkpt><trkpt lat="42.3787471" lon="13.154131"><ele>930.0</ele><time>2026-04-08T14:48:55.969Z</time></trkpt><trkpt lat="42.3789371" lon="13.1539507"><ele>928.0</ele><time>2026-04-08T14:48:56.969Z</time></trkpt><trkpt lat="42.3791231" lon="13.1537715"><ele>926.0</ele><time>2026-04-08T14:48:57.969Z</time></trkpt><trkpt lat="42.3793045" lon="13.1535965"><ele>926.0</ele><time>2026-04-08T14:48:58.97Z</time></trkpt><trkpt lat="42.3794772" lon="13.1534361"><ele>926.0</ele><time>2026-04-08T14:48:59.969Z</time></trkpt><trkpt lat="42.3796479" lon="13.1532894"><ele>926.0</ele><time>2026-04-08T14:49:00.969Z</time></trkpt><trkpt lat="42.3798219" lon="13.153179"><ele>924.0</ele><time>2026-04-08T14:49:01.969Z</time></trkpt><trkpt lat="42.3800038" lon="13.1530913"><ele>922.0</ele><time>2026-04-08T14:49:02.969Z</time></trkpt><trkpt lat="42.3802001" lon="13.1530159"><ele>920.0</ele><time>2026-04-08T14:49:03.969Z</time></trkpt><trkpt lat="42.3804006" lon="13.1529515"><ele>920.6666666666667</ele><time>2026-04-08T14:49:04.969Z</time></trkpt><trkpt lat="42.3806009" lon="13.1528921"><ele>921.3333333333333</ele><time>2026-04-08T14:49:05.969Z</time></trkpt><trkpt lat="42.3807927" lon="13.1528414"><ele>922.0</ele><time>2026-04-08T14:49:06.97Z</time></trkpt><trkpt lat="42.3809708" lon="13.1527883"><ele>922.0</ele><time>2026-04-08T14:49:07.97Z</time></trkpt><trkpt lat="42.3811315" lon="13.1527348"><ele>922.0</ele><time>2026-04-08T14:49:08.97Z</time></trkpt><trkpt lat="42.3812767" lon="13.1526508"><ele>922.0</ele><time>2026-04-08T14:49:09.97Z</time></trkpt><trkpt lat="42.3814046" lon="13.1525264"><ele>922.0</ele><time>2026-04-08T14:49:10.969Z</time></trkpt><trkpt lat="42.3815025" lon="13.1523569"><ele>922.0</ele><time>2026-04-08T14:49:11.969Z</time></trkpt><trkpt lat="42.3815695" lon="13.1521611"><ele>922.0</ele><time>2026-04-08T14:49:12.969Z</time></trkpt><trkpt lat="42.381612" lon="13.151946"><ele>922.0</ele><time>2026-04-08T14:49:13.969Z</time></trkpt><trkpt lat="42.3816529" lon="13.1517313"><ele>922.0</ele><time>2026-04-08T14:49:14.97Z</time></trkpt><trkpt lat="42.3817075" lon="13.151524"><ele>922.0</ele><time>2026-04-08T14:49:15.969Z</time></trkpt><trkpt lat="42.3817875" lon="13.1513238"><ele>918.3333333333333</ele><time>2026-04-08T14:49:16.969Z</time></trkpt><trkpt lat="42.3818892" lon="13.1511348"><ele>914.6666666666667</ele><time>2026-04-08T14:49:17.969Z</time></trkpt><trkpt lat="42.3820226" lon="13.1509553"><ele>911.0</ele><time>2026-04-08T14:49:18.969Z</time></trkpt><trkpt lat="42.3821757" lon="13.1507825"><ele>910.6666666666667</ele><time>2026-04-08T14:49:19.969Z</time></trkpt><trkpt lat="42.3823405" lon="13.1506247"><ele>910.3333333333333</ele><time>2026-04-08T14:49:20.97Z</time></trkpt><trkpt lat="42.3824994" lon="13.1504937"><ele>910.0</ele><time>2026-04-08T14:49:21.969Z</time></trkpt><trkpt lat="42.3826631" lon="13.1504061"><ele>910.0</ele><time>2026-04-08T14:49:22.969Z</time></trkpt><trkpt lat="42.3828404" lon="13.1503493"><ele>910.0</ele><time>2026-04-08T14:49:23.969Z</time></trkpt><trkpt lat="42.3830251" lon="13.15034"><ele>910.0</ele><time>2026-04-08T14:49:24.969Z</time></trkpt><trkpt lat="42.3832163" lon="13.1503528"><ele>911.0</ele><time>2026-04-08T14:49:25.969Z</time></trkpt><trkpt lat="42.3834048" lon="13.1503698"><ele>912.0</ele><time>2026-04-08T14:49:26.969Z</time></trkpt><trkpt lat="42.3835925" lon="13.1503571"><ele>913.0</ele><time>2026-04-08T14:49:27.969Z</time></trkpt><trkpt lat="42.3837708" lon="13.1502836"><ele>913.6666666666666</ele><time>2026-04-08T14:49:28.969Z</time></trkpt><trkpt lat="42.3839456" lon="13.1501722"><ele>914.3333333333333</ele><time>2026-04-08T14:49:29.969Z</time></trkpt><trkpt lat="42.3841226" lon="13.1500422"><ele>915.0</ele><time>2026-04-08T14:49:30.969Z</time></trkpt><trkpt lat="42.3843036" lon="13.1499063"><ele>912.3333333333333</ele><time>2026-04-08T14:49:31.969Z</time></trkpt><trkpt lat="42.3844866" lon="13.1497581"><ele>909.6666666666666</ele><time>2026-04-08T14:49:32.969Z</time></trkpt><trkpt lat="42.3846683" lon="13.1496027"><ele>907.0</ele><time>2026-04-08T14:49:33.97Z</time></trkpt><trkpt lat="42.3848463" lon="13.149439"><ele>907.0</ele><time>2026-04-08T14:49:34.97Z</time></trkpt><trkpt lat="42.3850247" lon="13.1492655"><ele>907.0</ele><time>2026-04-08T14:49:35.969Z</time></trkpt><trkpt lat="42.3852013" lon="13.1490871"><ele>907.0</ele><time>2026-04-08T14:49:36.969Z</time></trkpt><trkpt lat="42.3853798" lon="13.1489002"><ele>906.3333333333333</ele><time>2026-04-08T14:49:37.969Z</time></trkpt><trkpt lat="42.3855491" lon="13.148721"><ele>905.6666666666667</ele><time>2026-04-08T14:49:38.97Z</time></trkpt><trkpt lat="42.3857165" lon="13.1485442"><ele>905.0</ele><time>2026-04-08T14:49:39.969Z</time></trkpt><trkpt lat="42.3858827" lon="13.1483879"><ele>905.0</ele><time>2026-04-08T14:49:40.969Z</time></trkpt><trkpt lat="42.3860611" lon="13.1482608"><ele>905.0</ele><time>2026-04-08T14:49:41.97Z</time></trkpt><trkpt lat="42.386248" lon="13.1481638"><ele>905.0</ele><time>2026-04-08T14:49:42.97Z</time></trkpt><trkpt lat="42.3864463" lon="13.1480996"><ele>903.3333333333334</ele><time>2026-04-08T14:49:43.969Z</time></trkpt><trkpt lat="42.3866421" lon="13.1480375"><ele>901.6666666666667</ele><time>2026-04-08T14:49:44.969Z</time></trkpt><trkpt lat="42.3868354" lon="13.1479865"><ele>900.0</ele><time>2026-04-08T14:49:45.97Z</time></trkpt><trkpt lat="42.3870161" lon="13.147918"><ele>900.3333333333333</ele><time>2026-04-08T14:49:46.969Z</time></trkpt><trkpt lat="42.387183" lon="13.1478331"><ele>900.6666666666666</ele><time>2026-04-08T14:49:47.969Z</time></trkpt><trkpt lat="42.3873377" lon="13.147719"><ele>901.0</ele><time>2026-04-08T14:49:48.969Z</time></trkpt><trkpt lat="42.3874802" lon="13.1475627"><ele>901.0</ele><time>2026-04-08T14:49:49.969Z</time></trkpt><trkpt lat="42.3876132" lon="13.1473863"><ele>901.0</ele><time>2026-04-08T14:49:50.969Z</time></trkpt><trkpt lat="42.3877462" lon="13.1471903"><ele>901.0</ele><time>2026-04-08T14:49:51.969Z</time></trkpt><trkpt lat="42.3878733" lon="13.1469806"><ele>898.0</ele><time>2026-04-08T14:49:52.97Z</time></trkpt><trkpt lat="42.3880015" lon="13.1467592"><ele>895.0</ele><time>2026-04-08T14:49:53.97Z</time></trkpt><trkpt lat="42.3881162" lon="13.1465206"><ele>892.0</ele><time>2026-04-08T14:49:54.969Z</time></trkpt><trkpt lat="42.388221" lon="13.146279"><ele>892.0</ele><time>2026-04-08T14:49:55.97Z</time></trkpt><trkpt lat="42.3883043" lon="13.1460217"><ele>892.0</ele><time>2026-04-08T14:49:56.969Z</time></trkpt><trkpt lat="42.3883643" lon="13.1457591"><ele>892.0</ele><time>2026-04-08T14:49:57.969Z</time></trkpt><trkpt lat="42.3884021" lon="13.1454851"><ele>891.0</ele><time>2026-04-08T14:49:58.969Z</time></trkpt><trkpt lat="42.3884304" lon="13.1452138"><ele>890.0</ele><time>2026-04-08T14:49:59.969Z</time></trkpt><trkpt lat="42.3884531" lon="13.1449467"><ele>889.0</ele><time>2026-04-08T14:50:00.97Z</time></trkpt><trkpt lat="42.3884781" lon="13.1446869"><ele>887.3333333333333</ele><time>2026-04-08T14:50:01.969Z</time></trkpt><trkpt lat="42.3885109" lon="13.1444383"><ele>885.6666666666667</ele><time>2026-04-08T14:50:02.97Z</time></trkpt><trkpt lat="42.3885597" lon="13.1441934"><ele>884.0</ele><time>2026-04-08T14:50:03.97Z</time></trkpt><trkpt lat="42.3886336" lon="13.1439532"><ele>883.3333333333334</ele><time>2026-04-08T14:50:04.969Z</time></trkpt><trkpt lat="42.3887271" lon="13.1437291"><ele>882.6666666666667</ele><time>2026-04-08T14:50:05.97Z</time></trkpt><trkpt lat="42.3888471" lon="13.1435297"><ele>882.0</ele><time>2026-04-08T14:50:06.969Z</time></trkpt><trkpt lat="42.3889768" lon="13.143343"><ele>881.6666666666667</ele><time>2026-04-08T14:50:07.97Z</time></trkpt><trkpt lat="42.3891186" lon="13.1431586"><ele>881.3333333333334</ele><time>2026-04-08T14:50:08.969Z</time></trkpt><trkpt lat="42.3892655" lon="13.1429808"><ele>881.0</ele><time>2026-04-08T14:50:09.97Z</time></trkpt><trkpt lat="42.3894143" lon="13.1427951"><ele>881.0</ele><time>2026-04-08T14:50:10.969Z</time></trkpt><trkpt lat="42.3895652" lon="13.1426056"><ele>881.0</ele><time>2026-04-08T14:50:11.969Z</time></trkpt><trkpt lat="42.3897151" lon="13.1424161"><ele>881.0</ele><time>2026-04-08T14:50:12.969Z</time></trkpt><trkpt lat="42.3898569" lon="13.1422171"><ele>882.0</ele><time>2026-04-08T14:50:13.97Z</time></trkpt><trkpt lat="42.3899743" lon="13.1419909"><ele>883.0</ele><time>2026-04-08T14:50:14.969Z</time></trkpt><trkpt lat="42.3900771" lon="13.1417505"><ele>884.0</ele><time>2026-04-08T14:50:15.97Z</time></trkpt><trkpt lat="42.3901786" lon="13.1415126"><ele>886.6666666666667</ele><time>2026-04-08T14:50:16.969Z</time></trkpt><trkpt lat="42.390286" lon="13.1412887"><ele>889.3333333333333</ele><time>2026-04-08T14:50:17.97Z</time></trkpt><trkpt lat="42.3904123" lon="13.1410803"><ele>892.0</ele><time>2026-04-08T14:50:18.969Z</time></trkpt><trkpt lat="42.3905495" lon="13.1408838"><ele>885.6666666666666</ele><time>2026-04-08T14:50:19.969Z</time></trkpt><trkpt lat="42.3906985" lon="13.1407066"><ele>879.3333333333333</ele><time>2026-04-08T14:50:20.97Z</time></trkpt><trkpt lat="42.3908504" lon="13.1405499"><ele>873.0</ele><time>2026-04-08T14:50:21.969Z</time></trkpt><trkpt lat="42.3910436" lon="13.1404393"><ele>873.0</ele><time>2026-04-08T14:50:22.969Z</time></trkpt><trkpt lat="42.3912353" lon="13.1403128"><ele>873.0</ele><time>2026-04-08T14:50:23.97Z</time></trkpt><trkpt lat="42.391419" lon="13.1401904"><ele>873.0</ele><time>2026-04-08T14:50:24.97Z</time></trkpt><trkpt lat="42.3915983" lon="13.1400518"><ele>872.0</ele><time>2026-04-08T14:50:25.969Z</time></trkpt><trkpt lat="42.391766" lon="13.1399066"><ele>871.0</ele><time>2026-04-08T14:50:26.969Z</time></trkpt><trkpt lat="42.3919249" lon="13.1397552"><ele>870.0</ele><time>2026-04-08T14:50:27.97Z</time></trkpt><trkpt lat="42.3920921" lon="13.1396242"><ele>871.0</ele><time>2026-04-08T14:50:28.969Z</time></trkpt><trkpt lat="42.3922636" lon="13.1395108"><ele>872.0</ele><time>2026-04-08T14:50:29.969Z</time></trkpt><trkpt lat="42.3924432" lon="13.1394252"><ele>873.0</ele><time>2026-04-08T14:50:30.969Z</time></trkpt><trkpt lat="42.3926221" lon="13.1393526"><ele>873.0</ele><time>2026-04-08T14:50:31.969Z</time></trkpt><trkpt lat="42.3928172" lon="13.1393067"><ele>873.0</ele><time>2026-04-08T14:50:32.969Z</time></trkpt><trkpt lat="42.3930097" lon="13.139262"><ele>873.0</ele><time>2026-04-08T14:50:33.97Z</time></trkpt><trkpt lat="42.3931979" lon="13.139223"><ele>873.6666666666667</ele><time>2026-04-08T14:50:34.97Z</time></trkpt><trkpt lat="42.3933917" lon="13.1391964"><ele>874.3333333333334</ele><time>2026-04-08T14:50:35.969Z</time></trkpt><trkpt lat="42.3935884" lon="13.1391864"><ele>875.0</ele><time>2026-04-08T14:50:36.969Z</time></trkpt><trkpt lat="42.393786" lon="13.1391898"><ele>875.0</ele><time>2026-04-08T14:50:37.969Z</time></trkpt><trkpt lat="42.3939849" lon="13.1391966"><ele>875.0</ele><time>2026-04-08T14:50:38.969Z</time></trkpt><trkpt lat="42.3941818" lon="13.1392002"><ele>875.0</ele><time>2026-04-08T14:50:39.969Z</time></trkpt><trkpt lat="42.3943832" lon="13.1392007"><ele>875.0</ele><time>2026-04-08T14:50:40.969Z</time></trkpt><trkpt lat="42.3945819" lon="13.1392037"><ele>875.0</ele><time>2026-04-08T14:50:41.969Z</time></trkpt><trkpt lat="42.3947834" lon="13.1392071"><ele>875.0</ele><time>2026-04-08T14:50:42.969Z</time></trkpt><trkpt lat="42.3949867" lon="13.1392112"><ele>875.3333333333334</ele><time>2026-04-08T14:50:43.969Z</time></trkpt><trkpt lat="42.3951913" lon="13.1392065"><ele>875.6666666666667</ele><time>2026-04-08T14:50:44.97Z</time></trkpt><trkpt lat="42.3953965" lon="13.1391967"><ele>876.0</ele><time>2026-04-08T14:50:45.969Z</time></trkpt><trkpt lat="42.3955988" lon="13.1391658"><ele>876.0</ele><time>2026-04-08T14:50:46.969Z</time></trkpt><trkpt lat="42.3957951" lon="13.1391123"><ele>876.0</ele><time>2026-04-08T14:50:47.969Z</time></trkpt><trkpt lat="42.3959956" lon="13.1390379"><ele>876.0</ele><time>2026-04-08T14:50:48.97Z</time></trkpt><trkpt lat="42.3961868" lon="13.1389392"><ele>871.3333333333333</ele><time>2026-04-08T14:50:49.97Z</time></trkpt><trkpt lat="42.3963702" lon="13.1388192"><ele>866.6666666666666</ele><time>2026-04-08T14:50:50.969Z</time></trkpt><trkpt lat="42.3965531" lon="13.1386864"><ele>862.0</ele><time>2026-04-08T14:50:51.969Z</time></trkpt><trkpt lat="42.3967348" lon="13.1385562"><ele>862.0</ele><time>2026-04-08T14:50:52.969Z</time></trkpt><trkpt lat="42.3969124" lon="13.1384248"><ele>862.0</ele><time>2026-04-08T14:50:53.97Z</time></trkpt><trkpt lat="42.3970935" lon="13.1382867"><ele>862.0</ele><time>2026-04-08T14:50:54.969Z</time></trkpt><trkpt lat="42.3972783" lon="13.1381545"><ele>859.6666666666666</ele><time>2026-04-08T14:50:55.969Z</time></trkpt><trkpt lat="42.3974645" lon="13.1380233"><ele>857.3333333333333</ele><time>2026-04-08T14:50:56.97Z</time></trkpt><trkpt lat="42.3976485" lon="13.1378934"><ele>855.0</ele><time>2026-04-08T14:50:57.969Z</time></trkpt><trkpt lat="42.3978338" lon="13.1377576"><ele>853.6666666666667</ele><time>2026-04-08T14:50:58.969Z</time></trkpt><trkpt lat="42.3980173" lon="13.1376303"><ele>852.3333333333334</ele><time>2026-04-08T14:50:59.969Z</time></trkpt><trkpt lat="42.3981903" lon="13.1374893"><ele>851.0</ele><time>2026-04-08T14:51:00.969Z</time></trkpt><trkpt lat="42.3983571" lon="13.1373373"><ele>851.0</ele><time>2026-04-08T14:51:01.969Z</time></trkpt><trkpt lat="42.398513" lon="13.1371683"><ele>851.0</ele><time>2026-04-08T14:51:02.969Z</time></trkpt><trkpt lat="42.3986544" lon="13.13698"><ele>851.0</ele><time>2026-04-08T14:51:03.969Z</time></trkpt><trkpt lat="42.3987958" lon="13.1367855"><ele>852.0</ele><time>2026-04-08T14:51:04.969Z</time></trkpt><trkpt lat="42.3989323" lon="13.136593"><ele>853.0</ele><time>2026-04-08T14:51:05.97Z</time></trkpt><trkpt lat="42.3990716" lon="13.1364005"><ele>854.0</ele><time>2026-04-08T14:51:06.969Z</time></trkpt><trkpt lat="42.3992084" lon="13.1362088"><ele>850.0</ele><time>2026-04-08T14:51:07.969Z</time></trkpt><trkpt lat="42.3993436" lon="13.1360284"><ele>846.0</ele><time>2026-04-08T14:51:08.97Z</time></trkpt><trkpt lat="42.3994717" lon="13.1358508"><ele>842.0</ele><time>2026-04-08T14:51:09.97Z</time></trkpt><trkpt lat="42.3995942" lon="13.1356726"><ele>840.6666666666667</ele><time>2026-04-08T14:51:10.969Z</time></trkpt><trkpt lat="42.3997194" lon="13.1355052"><ele>839.3333333333333</ele><time>2026-04-08T14:51:11.969Z</time></trkpt><trkpt lat="42.3998486" lon="13.135353"><ele>838.0</ele><time>2026-04-08T14:51:12.969Z</time></trkpt><trkpt lat="42.399979" lon="13.1352083"><ele>838.0</ele><time>2026-04-08T14:51:13.969Z</time></trkpt><trkpt lat="42.4001117" lon="13.135069"><ele>838.0</ele><time>2026-04-08T14:51:14.969Z</time></trkpt><trkpt lat="42.4002489" lon="13.1349264"><ele>838.0</ele><time>2026-04-08T14:51:15.969Z</time></trkpt><trkpt lat="42.4003795" lon="13.1347851"><ele>837.5</ele><time>2026-04-08T14:51:16.969Z</time></trkpt><trkpt lat="42.4005084" lon="13.1346507"><ele>837.0</ele><time>2026-04-08T14:51:17.969Z</time></trkpt><trkpt lat="42.4006237" lon="13.1345307"><ele>836.5</ele><time>2026-04-08T14:51:18.97Z</time></trkpt><trkpt lat="42.4007161" lon="13.134439"><ele>836.0</ele><time>2026-04-08T14:51:19.969Z</time></trkpt><trkpt lat="42.4007891" lon="13.1343628"><ele>836.0000000000001</ele><time>2026-04-08T14:51:20.969Z</time></trkpt><trkpt lat="42.400837" lon="13.1343006"><ele>836.0</ele><time>2026-04-08T14:51:21.969Z</time></trkpt><trkpt lat="42.4008531" lon="13.1342143"><ele>836.0</ele><time>2026-04-08T14:51:28.969Z</time></trkpt><trkpt lat="42.4008167" lon="13.1341044"><ele>836.0</ele><time>2026-04-08T14:51:36.969Z</time></trkpt><trkpt lat="42.4007593" lon="13.1339856"><ele>836.0000000000001</ele><time>2026-04-08T14:51:38.969Z</time></trkpt><trkpt lat="42.4006979" lon="13.1338807"><ele>836.0</ele><time>2026-04-08T14:51:40.969Z</time></trkpt><trkpt lat="42.4006377" lon="13.1337858"><ele>833.8333333333334</ele><time>2026-04-08T14:51:42.969Z</time></trkpt><trkpt lat="42.4005971" lon="13.1336996"><ele>831.6666666666667</ele><time>2026-04-08T14:51:44.97Z</time></trkpt><trkpt lat="42.400555" lon="13.1336002"><ele>829.5</ele><time>2026-04-08T14:51:46.969Z</time></trkpt><trkpt lat="42.4005137" lon="13.1335108"><ele>827.3333333333333</ele><time>2026-04-08T14:51:48.97Z</time></trkpt><trkpt lat="42.4004756" lon="13.1334349"><ele>825.1666666666666</ele><time>2026-04-08T14:51:51.969Z</time></trkpt><trkpt lat="42.4004341" lon="13.1333309"><ele>823.0</ele><time>2026-04-08T14:51:54.969Z</time></trkpt><trkpt lat="42.4003706" lon="13.1332504"><ele>820.0</ele><time>2026-04-08T14:51:56.969Z</time></trkpt><trkpt lat="42.4002648" lon="13.1332064"><ele>817.0</ele><time>2026-04-08T14:51:58.969Z</time></trkpt><trkpt lat="42.4001756" lon="13.1331585"><ele>814.0</ele><time>2026-04-08T14:52:00.969Z</time></trkpt><trkpt lat="42.4001072" lon="13.1330602"><ele>811.0</ele><time>2026-04-08T14:52:02.969Z</time></trkpt><trkpt lat="42.4000614" lon="13.1329182"><ele>808.0</ele><time>2026-04-08T14:52:04.969Z</time></trkpt><trkpt lat="42.4000296" lon="13.1327705"><ele>808.0</ele><time>2026-04-08T14:52:06.969Z</time></trkpt><trkpt lat="42.4000338" lon="13.1326121"><ele>808.0</ele><time>2026-04-08T14:52:08.969Z</time></trkpt><trkpt lat="42.4000241" lon="13.1324327"><ele>808.0</ele><time>2026-04-08T14:52:10.969Z</time></trkpt><trkpt lat="42.4000014" lon="13.1323333"><ele>808.0</ele><time>2026-04-08T14:52:11.969Z</time></trkpt><trkpt lat="42.3999729" lon="13.1322437"><ele>808.0</ele><time>2026-04-08T14:52:12.969Z</time></trkpt><trkpt lat="42.3999405" lon="13.1321503"><ele>806.8333333333333</ele><time>2026-04-08T14:52:13.969Z</time></trkpt><trkpt lat="42.3999116" lon="13.13207"><ele>805.6666666666666</ele><time>2026-04-08T14:52:14.97Z</time></trkpt><trkpt lat="42.3998857" lon="13.1319875"><ele>804.5</ele><time>2026-04-08T14:52:15.969Z</time></trkpt><trkpt lat="42.3998678" lon="13.1318261"><ele>803.3333333333333</ele><time>2026-04-08T14:52:17.97Z</time></trkpt><trkpt lat="42.3998655" lon="13.1317049"><ele>802.1666666666666</ele><time>2026-04-08T14:52:19.969Z</time></trkpt><trkpt lat="42.3999019" lon="13.1316171"><ele>801.0</ele><time>2026-04-08T14:52:21.969Z</time></trkpt><trkpt lat="42.4000241" lon="13.1315235"><ele>799.1999999999999</ele><time>2026-04-08T14:52:23.969Z</time></trkpt><trkpt lat="42.4001147" lon="13.1314635"><ele>797.4</ele><time>2026-04-08T14:52:24.969Z</time></trkpt><trkpt lat="42.4002158" lon="13.1313919"><ele>795.6</ele><time>2026-04-08T14:52:25.97Z</time></trkpt><trkpt lat="42.4003158" lon="13.131307"><ele>793.8</ele><time>2026-04-08T14:52:26.969Z</time></trkpt><trkpt lat="42.4004096" lon="13.1312265"><ele>792.0</ele><time>2026-04-08T14:52:27.97Z</time></trkpt><trkpt lat="42.4004955" lon="13.131134"><ele>791.8</ele><time>2026-04-08T14:52:28.969Z</time></trkpt><trkpt lat="42.4005661" lon="13.1310306"><ele>791.6</ele><time>2026-04-08T14:52:29.969Z</time></trkpt><trkpt lat="42.4006303" lon="13.1309241"><ele>791.4</ele><time>2026-04-08T14:52:30.97Z</time></trkpt><trkpt lat="42.4006913" lon="13.1307956"><ele>791.1999999999999</ele><time>2026-04-08T14:52:31.97Z</time></trkpt><trkpt lat="42.4007686" lon="13.1306538"><ele>791.0</ele><time>2026-04-08T14:52:32.969Z</time></trkpt><trkpt lat="42.4008653" lon="13.1304962"><ele>791.0</ele><time>2026-04-08T14:52:33.969Z</time></trkpt><trkpt lat="42.4009833" lon="13.1303354"><ele>791.0</ele><time>2026-04-08T14:52:34.969Z</time></trkpt><trkpt lat="42.4010998" lon="13.1301858"><ele>791.0</ele><time>2026-04-08T14:52:35.97Z</time></trkpt><trkpt lat="42.4012152" lon="13.1300252"><ele>789.3333333333334</ele><time>2026-04-08T14:52:36.969Z</time></trkpt><trkpt lat="42.4013244" lon="13.1298602"><ele>787.6666666666667</ele><time>2026-04-08T14:52:37.97Z</time></trkpt><trkpt lat="42.4014431" lon="13.1297172"><ele>786.0</ele><time>2026-04-08T14:52:38.969Z</time></trkpt><trkpt lat="42.4015638" lon="13.1295898"><ele>786.0</ele><time>2026-04-08T14:52:39.969Z</time></trkpt><trkpt lat="42.4016832" lon="13.1294856"><ele>786.0</ele><time>2026-04-08T14:52:40.969Z</time></trkpt><trkpt lat="42.4018134" lon="13.129398"><ele>786.0</ele><time>2026-04-08T14:52:41.969Z</time></trkpt><trkpt lat="42.4019348" lon="13.129319"><ele>786.0</ele><time>2026-04-08T14:52:42.969Z</time></trkpt><trkpt lat="42.4020451" lon="13.1292261"><ele>786.0</ele><time>2026-04-08T14:52:43.969Z</time></trkpt><trkpt lat="42.4021432" lon="13.1291224"><ele>786.0</ele><time>2026-04-08T14:52:44.97Z</time></trkpt><trkpt lat="42.4022368" lon="13.1290366"><ele>786.0</ele><time>2026-04-08T14:52:45.969Z</time></trkpt><trkpt lat="42.4023388" lon="13.1289719"><ele>786.0</ele><time>2026-04-08T14:52:46.97Z</time></trkpt><trkpt lat="42.4024603" lon="13.1289373"><ele>785.25</ele><time>2026-04-08T14:52:47.969Z</time></trkpt><trkpt lat="42.4026058" lon="13.1289058"><ele>784.5</ele><time>2026-04-08T14:52:48.969Z</time></trkpt><trkpt lat="42.4027598" lon="13.1288751"><ele>783.75</ele><time>2026-04-08T14:52:49.969Z</time></trkpt><trkpt lat="42.4028879" lon="13.1288329"><ele>783.0</ele><time>2026-04-08T14:52:50.969Z</time></trkpt><trkpt lat="42.4030019" lon="13.1287758"><ele>783.0</ele><time>2026-04-08T14:52:51.969Z</time></trkpt><trkpt lat="42.4031138" lon="13.1286987"><ele>783.0</ele><time>2026-04-08T14:52:52.969Z</time></trkpt><trkpt lat="42.4032221" lon="13.1286176"><ele>783.0</ele><time>2026-04-08T14:52:53.969Z</time></trkpt><trkpt lat="42.4033209" lon="13.1285443"><ele>783.0</ele><time>2026-04-08T14:52:54.969Z</time></trkpt><trkpt lat="42.4033974" lon="13.1284778"><ele>783.0</ele><time>2026-04-08T14:52:55.97Z</time></trkpt><trkpt lat="42.4034613" lon="13.1284029"><ele>783.0</ele><time>2026-04-08T14:52:56.969Z</time></trkpt><trkpt lat="42.4035304" lon="13.1283059"><ele>783.0</ele><time>2026-04-08T14:52:57.969Z</time></trkpt><trkpt lat="42.4035885" lon="13.128194"><ele>783.0</ele><time>2026-04-08T14:52:58.97Z</time></trkpt><trkpt lat="42.4036479" lon="13.1280886"><ele>783.0</ele><time>2026-04-08T14:52:59.97Z</time></trkpt><trkpt lat="42.4037048" lon="13.1279806"><ele>783.2</ele><time>2026-04-08T14:53:00.97Z</time></trkpt><trkpt lat="42.403761" lon="13.1278774"><ele>783.4</ele><time>2026-04-08T14:53:01.969Z</time></trkpt><trkpt lat="42.4038138" lon="13.127763"><ele>783.6</ele><time>2026-04-08T14:53:02.969Z</time></trkpt><trkpt lat="42.4038809" lon="13.1276564"><ele>783.8000000000001</ele><time>2026-04-08T14:53:03.969Z</time></trkpt><trkpt lat="42.4039525" lon="13.1275628"><ele>784.0</ele><time>2026-04-08T14:53:04.969Z</time></trkpt><trkpt lat="42.4040274" lon="13.1274623"><ele>782.0</ele><time>2026-04-08T14:53:05.969Z</time></trkpt><trkpt lat="42.4041165" lon="13.1273814"><ele>780.0</ele><time>2026-04-08T14:53:06.969Z</time></trkpt><trkpt lat="42.4042003" lon="13.1273138"><ele>778.0</ele><time>2026-04-08T14:53:07.969Z</time></trkpt><trkpt lat="42.4042806" lon="13.1272551"><ele>776.0</ele><time>2026-04-08T14:53:08.97Z</time></trkpt><trkpt lat="42.4043501" lon="13.1271843"><ele>774.0</ele><time>2026-04-08T14:53:09.969Z</time></trkpt><trkpt lat="42.4044142" lon="13.1271079"><ele>774.0</ele><time>2026-04-08T14:53:10.969Z</time></trkpt><trkpt lat="42.4044715" lon="13.1270307"><ele>774.0</ele><time>2026-04-08T14:53:11.97Z</time></trkpt><trkpt lat="42.4045262" lon="13.1269522"><ele>774.0</ele><time>2026-04-08T14:53:12.969Z</time></trkpt><trkpt lat="42.4045796" lon="13.1268635"><ele>774.0</ele><time>2026-04-08T14:53:13.969Z</time></trkpt><trkpt lat="42.4046416" lon="13.1267636"><ele>774.0</ele><time>2026-04-08T14:53:14.969Z</time></trkpt><trkpt lat="42.4046981" lon="13.1266475"><ele>774.0</ele><time>2026-04-08T14:53:15.969Z</time></trkpt><trkpt lat="42.4047448" lon="13.1265284"><ele>774.0</ele><time>2026-04-08T14:53:16.969Z</time></trkpt><trkpt lat="42.404791" lon="13.1263967"><ele>774.0</ele><time>2026-04-08T14:53:17.969Z</time></trkpt><trkpt lat="42.4048311" lon="13.126266"><ele>774.0</ele><time>2026-04-08T14:53:18.969Z</time></trkpt><trkpt lat="42.4048651" lon="13.1261327"><ele>774.0</ele><time>2026-04-08T14:53:19.969Z</time></trkpt><trkpt lat="42.4049064" lon="13.1260011"><ele>774.0</ele><time>2026-04-08T14:53:20.969Z</time></trkpt><trkpt lat="42.4049388" lon="13.1258608"><ele>773.4000000000001</ele><time>2026-04-08T14:53:21.969Z</time></trkpt><trkpt lat="42.404969" lon="13.1257145"><ele>772.8</ele><time>2026-04-08T14:53:22.969Z</time></trkpt><trkpt lat="42.4050076" lon="13.1255767"><ele>772.2</ele><time>2026-04-08T14:53:23.969Z</time></trkpt><trkpt lat="42.4050378" lon="13.1254451"><ele>771.5999999999999</ele><time>2026-04-08T14:53:24.969Z</time></trkpt><trkpt lat="42.40507" lon="13.125317"><ele>771.0</ele><time>2026-04-08T14:53:25.97Z</time></trkpt><trkpt lat="42.4050996" lon="13.1252004"><ele>771.0</ele><time>2026-04-08T14:53:26.969Z</time></trkpt><trkpt lat="42.40513" lon="13.1251068"><ele>771.0</ele><time>2026-04-08T14:53:27.969Z</time></trkpt><trkpt lat="42.405161" lon="13.1250191"><ele>771.0</ele><time>2026-04-08T14:53:28.969Z</time></trkpt><trkpt lat="42.4052069" lon="13.1249163"><ele>771.0</ele><time>2026-04-08T14:53:29.969Z</time></trkpt><trkpt lat="42.4052514" lon="13.1248318"><ele>771.0</ele><time>2026-04-08T14:53:30.969Z</time></trkpt><trkpt lat="42.4052963" lon="13.1247448"><ele>771.0</ele><time>2026-04-08T14:53:31.969Z</time></trkpt><trkpt lat="42.4053446" lon="13.1246671"><ele>771.3333333333334</ele><time>2026-04-08T14:53:32.969Z</time></trkpt><trkpt lat="42.4053947" lon="13.1245941"><ele>771.6666666666667</ele><time>2026-04-08T14:53:33.969Z</time></trkpt><trkpt lat="42.4054454" lon="13.1245256"><ele>772.0</ele><time>2026-04-08T14:53:34.969Z</time></trkpt><trkpt lat="42.4055046" lon="13.1244427"><ele>772.3333333333334</ele><time>2026-04-08T14:53:35.969Z</time></trkpt><trkpt lat="42.4055635" lon="13.1243594"><ele>772.6666666666667</ele><time>2026-04-08T14:53:36.969Z</time></trkpt><trkpt lat="42.4056262" lon="13.1242834"><ele>773.0</ele><time>2026-04-08T14:53:37.969Z</time></trkpt><trkpt lat="42.4056884" lon="13.1241959"><ele>773.0000000000001</ele><time>2026-04-08T14:53:38.97Z</time></trkpt><trkpt lat="42.4057556" lon="13.1240967"><ele>773.0</ele><time>2026-04-08T14:53:39.97Z</time></trkpt><trkpt lat="42.4058274" lon="13.1240004"><ele>773.0</ele><time>2026-04-08T14:53:40.97Z</time></trkpt><trkpt lat="42.4058947" lon="13.1239159"><ele>773.0</ele><time>2026-04-08T14:53:41.97Z</time></trkpt><trkpt lat="42.40596" lon="13.1238418"><ele>773.0000000000001</ele><time>2026-04-08T14:53:42.969Z</time></trkpt><trkpt lat="42.4060101" lon="13.1237795"><ele>773.0</ele><time>2026-04-08T14:53:43.969Z</time></trkpt><trkpt lat="42.4060976" lon="13.1236858"><ele>773.1666666666667</ele><time>2026-04-08T14:53:45.97Z</time></trkpt><trkpt lat="42.4061472" lon="13.1236274"><ele>773.3333333333334</ele><time>2026-04-08T14:53:46.969Z</time></trkpt><trkpt lat="42.4062142" lon="13.1235615"><ele>773.5</ele><time>2026-04-08T14:53:47.969Z</time></trkpt><trkpt lat="42.4062874" lon="13.1234882"><ele>773.6666666666667</ele><time>2026-04-08T14:53:48.97Z</time></trkpt><trkpt lat="42.4063699" lon="13.1234188"><ele>773.8333333333334</ele><time>2026-04-08T14:53:49.97Z</time></trkpt><trkpt lat="42.406461" lon="13.1233518"><ele>774.0</ele><time>2026-04-08T14:53:50.969Z</time></trkpt><trkpt lat="42.4065497" lon="13.1232989"><ele>774.0</ele><time>2026-04-08T14:53:51.97Z</time></trkpt><trkpt lat="42.4066377" lon="13.1232502"><ele>774.0</ele><time>2026-04-08T14:53:52.969Z</time></trkpt><trkpt lat="42.4067281" lon="13.123214"><ele>774.0</ele><time>2026-04-08T14:53:53.97Z</time></trkpt><trkpt lat="42.4068114" lon="13.1231947"><ele>774.0</ele><time>2026-04-08T14:53:54.969Z</time></trkpt><trkpt lat="42.4068921" lon="13.1231895"><ele>774.0</ele><time>2026-04-08T14:53:55.969Z</time></trkpt><trkpt lat="42.4069808" lon="13.1232034"><ele>774.0</ele><time>2026-04-08T14:53:56.969Z</time></trkpt><trkpt lat="42.4070669" lon="13.123229"><ele>774.0</ele><time>2026-04-08T14:53:57.97Z</time></trkpt><trkpt lat="42.4071339" lon="13.1232558"><ele>774.0</ele><time>2026-04-08T14:53:58.969Z</time></trkpt><trkpt lat="42.4072076" lon="13.1232804"><ele>774.0</ele><time>2026-04-08T14:54:02.969Z</time></trkpt><trkpt lat="42.4072813" lon="13.1232448"><ele>774.0</ele><time>2026-04-08T14:54:12.969Z</time></trkpt><trkpt lat="42.407358" lon="13.1231796"><ele>774.0</ele><time>2026-04-08T14:54:13.969Z</time></trkpt><trkpt lat="42.4074594" lon="13.1230776"><ele>774.0</ele><time>2026-04-08T14:54:14.969Z</time></trkpt><trkpt lat="42.4075824" lon="13.1229233"><ele>771.0</ele><time>2026-04-08T14:54:15.969Z</time></trkpt><trkpt lat="42.4077255" lon="13.1227419"><ele>768.0</ele><time>2026-04-08T14:54:16.969Z</time></trkpt><trkpt lat="42.4078836" lon="13.1225444"><ele>765.0</ele><time>2026-04-08T14:54:17.969Z</time></trkpt><trkpt lat="42.4080523" lon="13.1223361"><ele>765.0</ele><time>2026-04-08T14:54:18.969Z</time></trkpt><trkpt lat="42.4082176" lon="13.1221242"><ele>765.0</ele><time>2026-04-08T14:54:19.97Z</time></trkpt><trkpt lat="42.4083743" lon="13.1219168"><ele>765.0</ele><time>2026-04-08T14:54:20.969Z</time></trkpt><trkpt lat="42.4085157" lon="13.1216962"><ele>766.0</ele><time>2026-04-08T14:54:21.969Z</time></trkpt><trkpt lat="42.4086383" lon="13.1214694"><ele>767.0</ele><time>2026-04-08T14:54:22.969Z</time></trkpt><trkpt lat="42.4087389" lon="13.1212383"><ele>768.0</ele><time>2026-04-08T14:54:23.97Z</time></trkpt><trkpt lat="42.4088347" lon="13.121003"><ele>768.0</ele><time>2026-04-08T14:54:24.97Z</time></trkpt><trkpt lat="42.4089288" lon="13.1207711"><ele>768.0</ele><time>2026-04-08T14:54:25.969Z</time></trkpt><trkpt lat="42.4090292" lon="13.120539"><ele>768.0</ele><time>2026-04-08T14:54:26.969Z</time></trkpt><trkpt lat="42.4091279" lon="13.1203073"><ele>765.6666666666666</ele><time>2026-04-08T14:54:27.969Z</time></trkpt><trkpt lat="42.4092291" lon="13.1200713"><ele>763.3333333333333</ele><time>2026-04-08T14:54:28.969Z</time></trkpt><trkpt lat="42.4093247" lon="13.1198369"><ele>761.0</ele><time>2026-04-08T14:54:29.969Z</time></trkpt><trkpt lat="42.4094199" lon="13.1196041"><ele>760.0</ele><time>2026-04-08T14:54:30.969Z</time></trkpt><trkpt lat="42.4095153" lon="13.119375"><ele>759.0</ele><time>2026-04-08T14:54:31.969Z</time></trkpt><trkpt lat="42.4096126" lon="13.1191419"><ele>758.0</ele><time>2026-04-08T14:54:32.969Z</time></trkpt><trkpt lat="42.409709" lon="13.1189074"><ele>758.0</ele><time>2026-04-08T14:54:33.969Z</time></trkpt><trkpt lat="42.4098029" lon="13.1186848"><ele>758.0</ele><time>2026-04-08T14:54:34.969Z</time></trkpt><trkpt lat="42.4098974" lon="13.1184643"><ele>758.0</ele><time>2026-04-08T14:54:35.969Z</time></trkpt><trkpt lat="42.4099894" lon="13.1182475"><ele>755.3333333333333</ele><time>2026-04-08T14:54:36.97Z</time></trkpt><trkpt lat="42.4100799" lon="13.1180411"><ele>752.6666666666666</ele><time>2026-04-08T14:54:37.969Z</time></trkpt><trkpt lat="42.4101643" lon="13.1178375"><ele>750.0</ele><time>2026-04-08T14:54:38.969Z</time></trkpt><trkpt lat="42.4102507" lon="13.117639"><ele>750.0</ele><time>2026-04-08T14:54:39.969Z</time></trkpt><trkpt lat="42.4103393" lon="13.1174396"><ele>750.0</ele><time>2026-04-08T14:54:40.97Z</time></trkpt><trkpt lat="42.4104175" lon="13.1172339"><ele>750.0</ele><time>2026-04-08T14:54:41.97Z</time></trkpt><trkpt lat="42.4104836" lon="13.1170204"><ele>750.0</ele><time>2026-04-08T14:54:42.969Z</time></trkpt><trkpt lat="42.4105288" lon="13.1167962"><ele>750.0</ele><time>2026-04-08T14:54:43.969Z</time></trkpt><trkpt lat="42.4105574" lon="13.1165672"><ele>750.0</ele><time>2026-04-08T14:54:44.969Z</time></trkpt><trkpt lat="42.4105685" lon="13.1163306"><ele>750.6666666666666</ele><time>2026-04-08T14:54:45.969Z</time></trkpt><trkpt lat="42.4105616" lon="13.1160903"><ele>751.3333333333333</ele><time>2026-04-08T14:54:46.969Z</time></trkpt><trkpt lat="42.4105402" lon="13.1158482"><ele>752.0</ele><time>2026-04-08T14:54:47.969Z</time></trkpt><trkpt lat="42.4105103" lon="13.1156038"><ele>757.0</ele><time>2026-04-08T14:54:48.969Z</time></trkpt><trkpt lat="42.410483" lon="13.1153598"><ele>762.0</ele><time>2026-04-08T14:54:49.969Z</time></trkpt><trkpt lat="42.4104539" lon="13.1151266"><ele>767.0</ele><time>2026-04-08T14:54:50.969Z</time></trkpt><trkpt lat="42.4104318" lon="13.1149014"><ele>767.0</ele><time>2026-04-08T14:54:51.969Z</time></trkpt><trkpt lat="42.4104214" lon="13.1146823"><ele>767.0</ele><time>2026-04-08T14:54:52.969Z</time></trkpt><trkpt lat="42.410429" lon="13.114466"><ele>767.0</ele><time>2026-04-08T14:54:53.969Z</time></trkpt><trkpt lat="42.4104401" lon="13.1142501"><ele>760.6666666666666</ele><time>2026-04-08T14:54:54.969Z</time></trkpt><trkpt lat="42.4104516" lon="13.1140284"><ele>754.3333333333334</ele><time>2026-04-08T14:54:55.969Z</time></trkpt><trkpt lat="42.4104614" lon="13.1137991"><ele>748.0</ele><time>2026-04-08T14:54:56.969Z</time></trkpt><trkpt lat="42.4104651" lon="13.1135685"><ele>748.0</ele><time>2026-04-08T14:54:57.97Z</time></trkpt><trkpt lat="42.4104665" lon="13.1133429"><ele>748.0</ele><time>2026-04-08T14:54:58.969Z</time></trkpt><trkpt lat="42.4104637" lon="13.1131173"><ele>748.0</ele><time>2026-04-08T14:54:59.969Z</time></trkpt><trkpt lat="42.4104681" lon="13.112912"><ele>743.5</ele><time>2026-04-08T14:55:00.969Z</time></trkpt><trkpt lat="42.410457" lon="13.1126982"><ele>739.0</ele><time>2026-04-08T14:55:01.969Z</time></trkpt><trkpt lat="42.4104339" lon="13.1124815"><ele>734.5</ele><time>2026-04-08T14:55:02.969Z</time></trkpt><trkpt lat="42.4104041" lon="13.1123413"><ele>730.0</ele><time>2026-04-08T14:55:03.97Z</time></trkpt><trkpt lat="42.4103714" lon="13.1122349"><ele>728.3333333333334</ele><time>2026-04-08T14:55:04.969Z</time></trkpt><trkpt lat="42.4103376" lon="13.1121522"><ele>726.6666666666667</ele><time>2026-04-08T14:55:05.969Z</time></trkpt><trkpt lat="42.4102587" lon="13.1121013"><ele>725.0</ele><time>2026-04-08T14:55:08.969Z</time></trkpt><trkpt lat="42.4101753" lon="13.1120475"><ele>723.3333333333334</ele><time>2026-04-08T14:55:10.969Z</time></trkpt><trkpt lat="42.4101169" lon="13.1119744"><ele>721.6666666666666</ele><time>2026-04-08T14:55:30.969Z</time></trkpt><trkpt lat="42.4100527" lon="13.1118609"><ele>720.0</ele><time>2026-04-08T14:55:33.969Z</time></trkpt><trkpt lat="42.4100423" lon="13.1117056"><ele>720.5</ele><time>2026-04-08T14:55:35.969Z</time></trkpt><trkpt lat="42.410083" lon="13.1115448"><ele>721.0</ele><time>2026-04-08T14:55:37.969Z</time></trkpt><trkpt lat="42.4100713" lon="13.1114582"><ele>721.5</ele><time>2026-04-08T14:55:38.969Z</time></trkpt><trkpt lat="42.4100473" lon="13.1113687"><ele>722.0</ele><time>2026-04-08T14:55:39.969Z</time></trkpt><trkpt lat="42.4100103" lon="13.1112709"><ele>722.5</ele><time>2026-04-08T14:55:40.969Z</time></trkpt><trkpt lat="42.4099534" lon="13.1111713"><ele>723.0</ele><time>2026-04-08T14:55:41.97Z</time></trkpt><trkpt lat="42.4099015" lon="13.1110573"><ele>723.0</ele><time>2026-04-08T14:55:42.969Z</time></trkpt><trkpt lat="42.4098487" lon="13.1109397"><ele>723.0</ele><time>2026-04-08T14:55:43.97Z</time></trkpt><trkpt lat="42.4097893" lon="13.1108187"><ele>723.0</ele><time>2026-04-08T14:55:44.969Z</time></trkpt><trkpt lat="42.4097275" lon="13.1107"><ele>723.0</ele><time>2026-04-08T14:55:45.969Z</time></trkpt><trkpt lat="42.4096701" lon="13.1105892"><ele>723.0</ele><time>2026-04-08T14:55:46.97Z</time></trkpt><trkpt lat="42.4096227" lon="13.110484"><ele>720.8333333333334</ele><time>2026-04-08T14:55:47.969Z</time></trkpt><trkpt lat="42.4095787" lon="13.1103742"><ele>718.6666666666666</ele><time>2026-04-08T14:55:48.969Z</time></trkpt><trkpt lat="42.4095303" lon="13.1102662"><ele>716.5</ele><time>2026-04-08T14:55:49.969Z</time></trkpt><trkpt lat="42.4094826" lon="13.1101801"><ele>714.3333333333333</ele><time>2026-04-08T14:55:50.969Z</time></trkpt><trkpt lat="42.4094501" lon="13.1100903"><ele>712.1666666666666</ele><time>2026-04-08T14:55:51.969Z</time></trkpt><trkpt lat="42.4094331" lon="13.109987"><ele>710.0</ele><time>2026-04-08T14:55:52.969Z</time></trkpt><trkpt lat="42.4094302" lon="13.1098478"><ele>706.75</ele><time>2026-04-08T14:55:53.97Z</time></trkpt><trkpt lat="42.409438" lon="13.1096758"><ele>703.5</ele><time>2026-04-08T14:55:54.97Z</time></trkpt><trkpt lat="42.4094454" lon="13.1094893"><ele>700.25</ele><time>2026-04-08T14:55:55.969Z</time></trkpt><trkpt lat="42.40945" lon="13.1092905"><ele>697.0</ele><time>2026-04-08T14:55:56.97Z</time></trkpt><trkpt lat="42.4094493" lon="13.1090873"><ele>697.0</ele><time>2026-04-08T14:55:57.969Z</time></trkpt><trkpt lat="42.4094437" lon="13.1088942"><ele>697.0</ele><time>2026-04-08T14:55:58.969Z</time></trkpt><trkpt lat="42.4094372" lon="13.1087123"><ele>697.0</ele><time>2026-04-08T14:55:59.97Z</time></trkpt><trkpt lat="42.4094327" lon="13.1085372"><ele>697.0</ele><time>2026-04-08T14:56:00.97Z</time></trkpt><trkpt lat="42.4094334" lon="13.1083714"><ele>695.0</ele><time>2026-04-08T14:56:01.97Z</time></trkpt><trkpt lat="42.4094476" lon="13.1082119"><ele>693.0</ele><time>2026-04-08T14:56:02.969Z</time></trkpt><trkpt lat="42.4094639" lon="13.1080551"><ele>691.0</ele><time>2026-04-08T14:56:03.969Z</time></trkpt><trkpt lat="42.4094731" lon="13.1079007"><ele>689.0</ele><time>2026-04-08T14:56:04.969Z</time></trkpt><trkpt lat="42.4094753" lon="13.1077577"><ele>689.0</ele><time>2026-04-08T14:56:05.969Z</time></trkpt><trkpt lat="42.4094641" lon="13.1076288"><ele>689.0</ele><time>2026-04-08T14:56:06.969Z</time></trkpt><trkpt lat="42.4094522" lon="13.1075233"><ele>689.0</ele><time>2026-04-08T14:56:07.97Z</time></trkpt><trkpt lat="42.4094387" lon="13.1074356"><ele>689.0</ele><time>2026-04-08T14:56:08.969Z</time></trkpt><trkpt lat="42.4093563" lon="13.1072949"><ele>689.0</ele><time>2026-04-08T14:56:10.969Z</time></trkpt><trkpt lat="42.4092925" lon="13.1072313"><ele>688.4000000000001</ele><time>2026-04-08T14:56:11.969Z</time></trkpt><trkpt lat="42.4092182" lon="13.1071637"><ele>687.8</ele><time>2026-04-08T14:56:12.969Z</time></trkpt><trkpt lat="42.4091625" lon="13.1070774"><ele>687.2</ele><time>2026-04-08T14:56:13.97Z</time></trkpt><trkpt lat="42.40913" lon="13.1069754"><ele>686.5999999999999</ele><time>2026-04-08T14:56:14.969Z</time></trkpt><trkpt lat="42.4091034" lon="13.1068364"><ele>686.0</ele><time>2026-04-08T14:56:15.97Z</time></trkpt><trkpt lat="42.4090886" lon="13.1066874"><ele>687.1999999999999</ele><time>2026-04-08T14:56:16.97Z</time></trkpt><trkpt lat="42.4090587" lon="13.106548"><ele>688.4</ele><time>2026-04-08T14:56:17.969Z</time></trkpt><trkpt lat="42.4090241" lon="13.106418"><ele>689.6</ele><time>2026-04-08T14:56:18.97Z</time></trkpt><trkpt lat="42.4089751" lon="13.1062777"><ele>690.8</ele><time>2026-04-08T14:56:19.969Z</time></trkpt><trkpt lat="42.4089126" lon="13.1061602"><ele>692.0</ele><time>2026-04-08T14:56:20.97Z</time></trkpt><trkpt lat="42.4088434" lon="13.1060539"><ele>689.1428571428571</ele><time>2026-04-08T14:56:21.97Z</time></trkpt><trkpt lat="42.408789" lon="13.1059677"><ele>686.2857142857143</ele><time>2026-04-08T14:56:22.969Z</time></trkpt><trkpt lat="42.4087587" lon="13.1058911"><ele>683.4285714285714</ele><time>2026-04-08T14:56:23.969Z</time></trkpt><trkpt lat="42.4087486" lon="13.1057971"><ele>680.5714285714286</ele><time>2026-04-08T14:56:24.969Z</time></trkpt><trkpt lat="42.408744" lon="13.1056974"><ele>677.7142857142858</ele><time>2026-04-08T14:56:25.97Z</time></trkpt><trkpt lat="42.4087313" lon="13.1056011"><ele>674.8571428571429</ele><time>2026-04-08T14:56:26.97Z</time></trkpt><trkpt lat="42.4086906" lon="13.1055138"><ele>672.0</ele><time>2026-04-08T14:56:27.969Z</time></trkpt><trkpt lat="42.4086348" lon="13.1054106"><ele>670.1666666666666</ele><time>2026-04-08T14:56:28.97Z</time></trkpt><trkpt lat="42.408584" lon="13.1053079"><ele>668.3333333333334</ele><time>2026-04-08T14:56:29.969Z</time></trkpt><trkpt lat="42.4085263" lon="13.10521"><ele>666.5</ele><time>2026-04-08T14:56:30.969Z</time></trkpt><trkpt lat="42.4084919" lon="13.105117"><ele>664.6666666666667</ele><time>2026-04-08T14:56:31.969Z</time></trkpt><trkpt lat="42.4084654" lon="13.1050169"><ele>662.8333333333334</ele><time>2026-04-08T14:56:32.969Z</time></trkpt><trkpt lat="42.408464" lon="13.1049154"><ele>661.0</ele><time>2026-04-08T14:56:33.97Z</time></trkpt><trkpt lat="42.408469" lon="13.1048042"><ele>660.0</ele><time>2026-04-08T14:56:34.969Z</time></trkpt><trkpt lat="42.4084678" lon="13.104675"><ele>659.0</ele><time>2026-04-08T14:56:35.97Z</time></trkpt><trkpt lat="42.4084615" lon="13.1045324"><ele>658.0</ele><time>2026-04-08T14:56:36.97Z</time></trkpt><trkpt lat="42.4084557" lon="13.1043821"><ele>657.0</ele><time>2026-04-08T14:56:37.97Z</time></trkpt><trkpt lat="42.4084506" lon="13.1042359"><ele>656.0</ele><time>2026-04-08T14:56:38.969Z</time></trkpt><trkpt lat="42.4084305" lon="13.1040953"><ele>657.0</ele><time>2026-04-08T14:56:39.969Z</time></trkpt><trkpt lat="42.4084052" lon="13.1039592"><ele>658.0</ele><time>2026-04-08T14:56:40.969Z</time></trkpt><trkpt lat="42.4083757" lon="13.1038336"><ele>659.0</ele><time>2026-04-08T14:56:41.969Z</time></trkpt><trkpt lat="42.4083346" lon="13.1037062"><ele>660.0</ele><time>2026-04-08T14:56:42.969Z</time></trkpt><trkpt lat="42.4082895" lon="13.1035698"><ele>661.0</ele><time>2026-04-08T14:56:43.969Z</time></trkpt><trkpt lat="42.4082517" lon="13.1034448"><ele>661.0</ele><time>2026-04-08T14:56:44.97Z</time></trkpt><trkpt lat="42.4082132" lon="13.1033206"><ele>661.0</ele><time>2026-04-08T14:56:45.969Z</time></trkpt><trkpt lat="42.4081612" lon="13.1031999"><ele>661.0</ele><time>2026-04-08T14:56:46.97Z</time></trkpt><trkpt lat="42.4080986" lon="13.103092"><ele>661.0</ele><time>2026-04-08T14:56:47.97Z</time></trkpt><trkpt lat="42.4080316" lon="13.1029814"><ele>661.0</ele><time>2026-04-08T14:56:48.969Z</time></trkpt><trkpt lat="42.4079758" lon="13.102882"><ele>655.4</ele><time>2026-04-08T14:56:49.969Z</time></trkpt><trkpt lat="42.4079303" lon="13.1027848"><ele>649.8</ele><time>2026-04-08T14:56:50.969Z</time></trkpt><trkpt lat="42.4078985" lon="13.1026628"><ele>644.1999999999999</ele><time>2026-04-08T14:56:51.97Z</time></trkpt><trkpt lat="42.4078633" lon="13.1025216"><ele>638.5999999999999</ele><time>2026-04-08T14:56:52.969Z</time></trkpt><trkpt lat="42.4078291" lon="13.102383"><ele>633.0</ele><time>2026-04-08T14:56:53.97Z</time></trkpt><trkpt lat="42.4077939" lon="13.1022348"><ele>631.6</ele><time>2026-04-08T14:56:54.97Z</time></trkpt><trkpt lat="42.4077616" lon="13.1020876"><ele>630.1999999999999</ele><time>2026-04-08T14:56:55.969Z</time></trkpt><trkpt lat="42.4077335" lon="13.1019414"><ele>628.8</ele><time>2026-04-08T14:56:56.969Z</time></trkpt><trkpt lat="42.4077188" lon="13.1018138"><ele>627.4</ele><time>2026-04-08T14:56:57.969Z</time></trkpt><trkpt lat="42.4077208" lon="13.1016994"><ele>626.0</ele><time>2026-04-08T14:56:58.969Z</time></trkpt><trkpt lat="42.4077247" lon="13.1015922"><ele>625.1666666666666</ele><time>2026-04-08T14:56:59.97Z</time></trkpt><trkpt lat="42.407736" lon="13.1014959"><ele>624.3333333333333</ele><time>2026-04-08T14:57:00.97Z</time></trkpt><trkpt lat="42.4077568" lon="13.1013925"><ele>623.5</ele><time>2026-04-08T14:57:01.969Z</time></trkpt><trkpt lat="42.407781" lon="13.1012863"><ele>622.6666666666666</ele><time>2026-04-08T14:57:02.969Z</time></trkpt><trkpt lat="42.4078067" lon="13.1011781"><ele>621.8333333333334</ele><time>2026-04-08T14:57:03.969Z</time></trkpt><trkpt lat="42.4078221" lon="13.101064"><ele>621.0</ele><time>2026-04-08T14:57:04.969Z</time></trkpt><trkpt lat="42.4078324" lon="13.1009508"><ele>621.0</ele><time>2026-04-08T14:57:05.97Z</time></trkpt><trkpt lat="42.4078285" lon="13.100838"><ele>621.0</ele><time>2026-04-08T14:57:06.969Z</time></trkpt><trkpt lat="42.4078212" lon="13.1007316"><ele>621.0</ele><time>2026-04-08T14:57:07.969Z</time></trkpt><trkpt lat="42.407806" lon="13.1006274"><ele>621.0</ele><time>2026-04-08T14:57:08.969Z</time></trkpt><trkpt lat="42.407786" lon="13.1005267"><ele>621.0</ele><time>2026-04-08T14:57:09.969Z</time></trkpt><trkpt lat="42.4077526" lon="13.1004272"><ele>621.0</ele><time>2026-04-08T14:57:10.97Z</time></trkpt><trkpt lat="42.4077197" lon="13.1003103"><ele>620.2</ele><time>2026-04-08T14:57:11.97Z</time></trkpt><trkpt lat="42.4076885" lon="13.100198"><ele>619.4000000000001</ele><time>2026-04-08T14:57:12.97Z</time></trkpt><trkpt lat="42.4076429" lon="13.1000817"><ele>618.6</ele><time>2026-04-08T14:57:13.969Z</time></trkpt><trkpt lat="42.4075838" lon="13.099962"><ele>617.8000000000001</ele><time>2026-04-08T14:57:14.969Z</time></trkpt><trkpt lat="42.4075234" lon="13.0998418"><ele>617.0</ele><time>2026-04-08T14:57:15.969Z</time></trkpt><trkpt lat="42.4074631" lon="13.0997255"><ele>618.6</ele><time>2026-04-08T14:57:16.97Z</time></trkpt><trkpt lat="42.4074159" lon="13.0996061"><ele>620.2</ele><time>2026-04-08T14:57:17.97Z</time></trkpt><trkpt lat="42.4073685" lon="13.0994736"><ele>621.8</ele><time>2026-04-08T14:57:18.969Z</time></trkpt><trkpt lat="42.4073188" lon="13.0993378"><ele>623.4</ele><time>2026-04-08T14:57:19.969Z</time></trkpt><trkpt lat="42.4072732" lon="13.0992134"><ele>625.0</ele><time>2026-04-08T14:57:20.969Z</time></trkpt><trkpt lat="42.4072298" lon="13.0990847"><ele>622.2</ele><time>2026-04-08T14:57:21.969Z</time></trkpt><trkpt lat="42.4071902" lon="13.0989585"><ele>619.4</ele><time>2026-04-08T14:57:22.97Z</time></trkpt><trkpt lat="42.4071546" lon="13.0988276"><ele>616.6</ele><time>2026-04-08T14:57:23.969Z</time></trkpt><trkpt lat="42.4071198" lon="13.0987018"><ele>613.8</ele><time>2026-04-08T14:57:24.969Z</time></trkpt><trkpt lat="42.4070794" lon="13.098577"><ele>611.0</ele><time>2026-04-08T14:57:25.969Z</time></trkpt><trkpt lat="42.4070296" lon="13.0984562"><ele>611.0</ele><time>2026-04-08T14:57:26.969Z</time></trkpt><trkpt lat="42.4069753" lon="13.0983327"><ele>611.0</ele><time>2026-04-08T14:57:27.969Z</time></trkpt><trkpt lat="42.4069147" lon="13.0982067"><ele>611.0</ele><time>2026-04-08T14:57:28.969Z</time></trkpt><trkpt lat="42.4068577" lon="13.0980829"><ele>611.0</ele><time>2026-04-08T14:57:29.969Z</time></trkpt><trkpt lat="42.4068081" lon="13.0979538"><ele>611.0</ele><time>2026-04-08T14:57:30.969Z</time></trkpt><trkpt lat="42.4067724" lon="13.0978575"><ele>610.8</ele><time>2026-04-08T14:57:31.969Z</time></trkpt><trkpt lat="42.4067409" lon="13.0977467"><ele>610.6</ele><time>2026-04-08T14:57:32.97Z</time></trkpt><trkpt lat="42.4067013" lon="13.0976208"><ele>610.4</ele><time>2026-04-08T14:57:33.969Z</time></trkpt><trkpt lat="42.4066591" lon="13.0974787"><ele>610.2</ele><time>2026-04-08T14:57:34.969Z</time></trkpt><trkpt lat="42.4066176" lon="13.097321"><ele>610.0</ele><time>2026-04-08T14:57:35.969Z</time></trkpt><trkpt lat="42.4065707" lon="13.0971575"><ele>609.25</ele><time>2026-04-08T14:57:36.969Z</time></trkpt><trkpt lat="42.4065186" lon="13.0969905"><ele>608.5</ele><time>2026-04-08T14:57:37.97Z</time></trkpt><trkpt lat="42.4064662" lon="13.0968285"><ele>607.75</ele><time>2026-04-08T14:57:38.969Z</time></trkpt><trkpt lat="42.406413" lon="13.0966715"><ele>607.0</ele><time>2026-04-08T14:57:39.969Z</time></trkpt><trkpt lat="42.4063671" lon="13.0965239"><ele>604.0</ele><time>2026-04-08T14:57:40.969Z</time></trkpt><trkpt lat="42.4063276" lon="13.0963854"><ele>601.0</ele><time>2026-04-08T14:57:41.969Z</time></trkpt><trkpt lat="42.4062995" lon="13.0962647"><ele>598.0</ele><time>2026-04-08T14:57:42.969Z</time></trkpt><trkpt lat="42.4062801" lon="13.0961629"><ele>595.0</ele><time>2026-04-08T14:57:43.969Z</time></trkpt><trkpt lat="42.4062655" lon="13.0960332"><ele>592.0</ele><time>2026-04-08T14:57:45.969Z</time></trkpt><trkpt lat="42.4062779" lon="13.0958856"><ele>592.0</ele><time>2026-04-08T14:57:47.969Z</time></trkpt><trkpt lat="42.4063029" lon="13.0957713"><ele>592.0</ele><time>2026-04-08T14:57:48.969Z</time></trkpt><trkpt lat="42.4063391" lon="13.0956359"><ele>592.0</ele><time>2026-04-08T14:57:49.969Z</time></trkpt><trkpt lat="42.4063747" lon="13.0954905"><ele>592.0</ele><time>2026-04-08T14:57:50.969Z</time></trkpt><trkpt lat="42.406423" lon="13.0953422"><ele>592.0</ele><time>2026-04-08T14:57:51.97Z</time></trkpt><trkpt lat="42.406478" lon="13.0951988"><ele>591.5</ele><time>2026-04-08T14:57:52.969Z</time></trkpt><trkpt lat="42.406545" lon="13.0950644"><ele>591.0</ele><time>2026-04-08T14:57:53.969Z</time></trkpt><trkpt lat="42.4066243" lon="13.0949286"><ele>590.5</ele><time>2026-04-08T14:57:54.969Z</time></trkpt><trkpt lat="42.4067212" lon="13.0948129"><ele>590.0</ele><time>2026-04-08T14:57:55.969Z</time></trkpt><trkpt lat="42.4068064" lon="13.0946951"><ele>588.2</ele><time>2026-04-08T14:57:56.969Z</time></trkpt><trkpt lat="42.4068686" lon="13.0945722"><ele>586.4</ele><time>2026-04-08T14:57:57.969Z</time></trkpt><trkpt lat="42.4069204" lon="13.0944519"><ele>584.6</ele><time>2026-04-08T14:57:58.969Z</time></trkpt><trkpt lat="42.4069568" lon="13.0943382"><ele>582.8</ele><time>2026-04-08T14:57:59.969Z</time></trkpt><trkpt lat="42.4069886" lon="13.0942406"><ele>581.0</ele><time>2026-04-08T14:58:00.97Z</time></trkpt><trkpt lat="42.4070175" lon="13.0941538"><ele>581.5</ele><time>2026-04-08T14:58:01.97Z</time></trkpt><trkpt lat="42.407036" lon="13.0940708"><ele>582.0</ele><time>2026-04-08T14:58:02.969Z</time></trkpt><trkpt lat="42.4070849" lon="13.0939158"><ele>582.5</ele><time>2026-04-08T14:58:04.969Z</time></trkpt><trkpt lat="42.407112" lon="13.0938266"><ele>583.0</ele><time>2026-04-08T14:58:05.97Z</time></trkpt><trkpt lat="42.4071409" lon="13.0937276"><ele>583.5</ele><time>2026-04-08T14:58:06.97Z</time></trkpt><trkpt lat="42.4071782" lon="13.0936185"><ele>584.0</ele><time>2026-04-08T14:58:07.969Z</time></trkpt><trkpt lat="42.4072294" lon="13.093503"><ele>584.0</ele><time>2026-04-08T14:58:08.969Z</time></trkpt><trkpt lat="42.4072902" lon="13.0933883"><ele>584.0</ele><time>2026-04-08T14:58:09.969Z</time></trkpt><trkpt lat="42.407343" lon="13.0932732"><ele>584.0</ele><time>2026-04-08T14:58:10.969Z</time></trkpt><trkpt lat="42.4074002" lon="13.0931584"><ele>584.0</ele><time>2026-04-08T14:58:11.969Z</time></trkpt><trkpt lat="42.4074586" lon="13.093035"><ele>584.0</ele><time>2026-04-08T14:58:12.969Z</time></trkpt><trkpt lat="42.407521" lon="13.0929039"><ele>582.75</ele><time>2026-04-08T14:58:13.97Z</time></trkpt><trkpt lat="42.4075878" lon="13.0927679"><ele>581.5</ele><time>2026-04-08T14:58:14.97Z</time></trkpt><trkpt lat="42.4076527" lon="13.0926281"><ele>580.25</ele><time>2026-04-08T14:58:15.969Z</time></trkpt><trkpt lat="42.407717" lon="13.0924851"><ele>579.0</ele><time>2026-04-08T14:58:16.969Z</time></trkpt><trkpt lat="42.4077771" lon="13.0923336"><ele>577.75</ele><time>2026-04-08T14:58:17.969Z</time></trkpt><trkpt lat="42.407842" lon="13.092186"><ele>576.5</ele><time>2026-04-08T14:58:18.969Z</time></trkpt><trkpt lat="42.4078978" lon="13.0920351"><ele>575.25</ele><time>2026-04-08T14:58:19.969Z</time></trkpt><trkpt lat="42.4079463" lon="13.0918815"><ele>574.0</ele><time>2026-04-08T14:58:20.969Z</time></trkpt><trkpt lat="42.4079928" lon="13.0917355"><ele>573.8</ele><time>2026-04-08T14:58:21.969Z</time></trkpt><trkpt lat="42.4080363" lon="13.0915914"><ele>573.5999999999999</ele><time>2026-04-08T14:58:22.97Z</time></trkpt><trkpt lat="42.4080838" lon="13.0914551"><ele>573.4</ele><time>2026-04-08T14:58:23.969Z</time></trkpt><trkpt lat="42.4081372" lon="13.0913316"><ele>573.1999999999999</ele><time>2026-04-08T14:58:24.97Z</time></trkpt><trkpt lat="42.4081991" lon="13.0912263"><ele>573.0</ele><time>2026-04-08T14:58:25.969Z</time></trkpt><trkpt lat="42.4082794" lon="13.0911413"><ele>573.0</ele><time>2026-04-08T14:58:26.97Z</time></trkpt><trkpt lat="42.4083864" lon="13.0910747"><ele>573.0</ele><time>2026-04-08T14:58:27.969Z</time></trkpt><trkpt lat="42.4085038" lon="13.0910179"><ele>573.0</ele><time>2026-04-08T14:58:28.97Z</time></trkpt><trkpt lat="42.4086266" lon="13.0909665"><ele>573.0</ele><time>2026-04-08T14:58:29.969Z</time></trkpt><trkpt lat="42.40874" lon="13.0909115"><ele>573.5</ele><time>2026-04-08T14:58:30.969Z</time></trkpt><trkpt lat="42.4088518" lon="13.090843"><ele>574.0</ele><time>2026-04-08T14:58:31.969Z</time></trkpt><trkpt lat="42.4089596" lon="13.0907498"><ele>574.5</ele><time>2026-04-08T14:58:32.969Z</time></trkpt><trkpt lat="42.4090536" lon="13.0906349"><ele>575.0</ele><time>2026-04-08T14:58:33.969Z</time></trkpt><trkpt lat="42.409135" lon="13.0905107"><ele>575.0</ele><time>2026-04-08T14:58:34.969Z</time></trkpt><trkpt lat="42.4091977" lon="13.0903648"><ele>575.0</ele><time>2026-04-08T14:58:35.97Z</time></trkpt><trkpt lat="42.4092491" lon="13.0902174"><ele>575.0</ele><time>2026-04-08T14:58:36.969Z</time></trkpt><trkpt lat="42.4092984" lon="13.09008"><ele>575.0</ele><time>2026-04-08T14:58:37.969Z</time></trkpt><trkpt lat="42.4093553" lon="13.0899468"><ele>577.0</ele><time>2026-04-08T14:58:38.969Z</time></trkpt><trkpt lat="42.4094293" lon="13.0898268"><ele>579.0</ele><time>2026-04-08T14:58:39.969Z</time></trkpt><trkpt lat="42.4095221" lon="13.0897264"><ele>581.0</ele><time>2026-04-08T14:58:40.969Z</time></trkpt><trkpt lat="42.4096208" lon="13.089628"><ele>583.0</ele><time>2026-04-08T14:58:41.969Z</time></trkpt><trkpt lat="42.4097113" lon="13.0895324"><ele>581.4</ele><time>2026-04-08T14:58:42.97Z</time></trkpt><trkpt lat="42.4097777" lon="13.0894124"><ele>579.8</ele><time>2026-04-08T14:58:43.97Z</time></trkpt><trkpt lat="42.4098446" lon="13.0893138"><ele>578.2</ele><time>2026-04-08T14:58:44.97Z</time></trkpt><trkpt lat="42.4099028" lon="13.0891976"><ele>576.6</ele><time>2026-04-08T14:58:45.969Z</time></trkpt><trkpt lat="42.4099825" lon="13.089106"><ele>575.0</ele><time>2026-04-08T14:58:46.969Z</time></trkpt><trkpt lat="42.4100666" lon="13.0890252"><ele>575.0</ele><time>2026-04-08T14:58:47.97Z</time></trkpt><trkpt lat="42.4101754" lon="13.0889577"><ele>575.0</ele><time>2026-04-08T14:58:48.969Z</time></trkpt><trkpt lat="42.4103059" lon="13.0889392"><ele>575.0</ele><time>2026-04-08T14:58:49.969Z</time></trkpt><trkpt lat="42.4104212" lon="13.0889133"><ele>575.0</ele><time>2026-04-08T14:58:50.97Z</time></trkpt><trkpt lat="42.4105053" lon="13.0888613"><ele>572.0</ele><time>2026-04-08T14:58:51.969Z</time></trkpt><trkpt lat="42.4105904" lon="13.0887825"><ele>569.0</ele><time>2026-04-08T14:58:52.97Z</time></trkpt><trkpt lat="42.4106593" lon="13.0886825"><ele>566.0</ele><time>2026-04-08T14:58:53.97Z</time></trkpt><trkpt lat="42.4107314" lon="13.0885513"><ele>563.0</ele><time>2026-04-08T14:58:54.97Z</time></trkpt><trkpt lat="42.4107901" lon="13.0884072"><ele>560.0</ele><time>2026-04-08T14:58:55.969Z</time></trkpt><trkpt lat="42.4108409" lon="13.0882522"><ele>560.0</ele><time>2026-04-08T14:58:56.969Z</time></trkpt><trkpt lat="42.4108883" lon="13.088105"><ele>560.0</ele><time>2026-04-08T14:58:57.969Z</time></trkpt><trkpt lat="42.4109335" lon="13.0879666"><ele>560.0</ele><time>2026-04-08T14:58:58.969Z</time></trkpt><trkpt lat="42.4109816" lon="13.0878435"><ele>560.0</ele><time>2026-04-08T14:58:59.969Z</time></trkpt><trkpt lat="42.4110333" lon="13.0877373"><ele>560.0</ele><time>2026-04-08T14:59:00.97Z</time></trkpt><trkpt lat="42.4111081" lon="13.0876654"><ele>560.0</ele><time>2026-04-08T14:59:01.97Z</time></trkpt><trkpt lat="42.4111844" lon="13.087612"><ele>560.0</ele><time>2026-04-08T14:59:02.969Z</time></trkpt><trkpt lat="42.4112931" lon="13.0875965"><ele>560.0</ele><time>2026-04-08T14:59:03.969Z</time></trkpt><trkpt lat="42.4114148" lon="13.0875784"><ele>560.0</ele><time>2026-04-08T14:59:04.97Z</time></trkpt><trkpt lat="42.4115373" lon="13.0875608"><ele>560.0</ele><time>2026-04-08T14:59:05.969Z</time></trkpt><trkpt lat="42.4116505" lon="13.0875375"><ele>559.8</ele><time>2026-04-08T14:59:06.97Z</time></trkpt><trkpt lat="42.4117525" lon="13.0875174"><ele>559.6</ele><time>2026-04-08T14:59:07.969Z</time></trkpt><trkpt lat="42.41185" lon="13.0874616"><ele>559.4</ele><time>2026-04-08T14:59:08.97Z</time></trkpt><trkpt lat="42.4119452" lon="13.0873775"><ele>559.2</ele><time>2026-04-08T14:59:09.969Z</time></trkpt><trkpt lat="42.4120316" lon="13.0872587"><ele>559.0</ele><time>2026-04-08T14:59:10.969Z</time></trkpt><trkpt lat="42.4121063" lon="13.0871312"><ele>553.6</ele><time>2026-04-08T14:59:11.969Z</time></trkpt><trkpt lat="42.4121783" lon="13.0870029"><ele>548.2</ele><time>2026-04-08T14:59:12.969Z</time></trkpt><trkpt lat="42.4122348" lon="13.086883"><ele>542.8000000000001</ele><time>2026-04-08T14:59:13.969Z</time></trkpt><trkpt lat="42.4122776" lon="13.0867511"><ele>537.4</ele><time>2026-04-08T14:59:14.969Z</time></trkpt><trkpt lat="42.4122918" lon="13.0865992"><ele>532.0</ele><time>2026-04-08T14:59:15.969Z</time></trkpt><trkpt lat="42.4122984" lon="13.0864292"><ele>530.75</ele><time>2026-04-08T14:59:16.969Z</time></trkpt><trkpt lat="42.4123027" lon="13.0862653"><ele>529.5</ele><time>2026-04-08T14:59:17.969Z</time></trkpt><trkpt lat="42.4123077" lon="13.0861065"><ele>528.25</ele><time>2026-04-08T14:59:18.969Z</time></trkpt><trkpt lat="42.4123262" lon="13.0859436"><ele>527.0</ele><time>2026-04-08T14:59:19.97Z</time></trkpt><trkpt lat="42.4123532" lon="13.085797"><ele>527.6</ele><time>2026-04-08T14:59:20.969Z</time></trkpt><trkpt lat="42.4123845" lon="13.0856493"><ele>528.2</ele><time>2026-04-08T14:59:21.969Z</time></trkpt><trkpt lat="42.4124176" lon="13.0855017"><ele>528.8</ele><time>2026-04-08T14:59:22.969Z</time></trkpt><trkpt lat="42.4124474" lon="13.0853589"><ele>529.4</ele><time>2026-04-08T14:59:23.969Z</time></trkpt><trkpt lat="42.4124843" lon="13.0852156"><ele>530.0</ele><time>2026-04-08T14:59:24.97Z</time></trkpt><trkpt lat="42.4125284" lon="13.0850839"><ele>530.0</ele><time>2026-04-08T14:59:25.97Z</time></trkpt><trkpt lat="42.412578" lon="13.0849546"><ele>530.0</ele><time>2026-04-08T14:59:26.969Z</time></trkpt><trkpt lat="42.4126307" lon="13.0848364"><ele>530.0</ele><time>2026-04-08T14:59:27.97Z</time></trkpt><trkpt lat="42.4126859" lon="13.0847142"><ele>530.0</ele><time>2026-04-08T14:59:28.969Z</time></trkpt><trkpt lat="42.4127387" lon="13.0845944"><ele>530.0</ele><time>2026-04-08T14:59:29.969Z</time></trkpt><trkpt lat="42.4127902" lon="13.0844824"><ele>533.0</ele><time>2026-04-08T14:59:30.97Z</time></trkpt><trkpt lat="42.4128401" lon="13.0843908"><ele>536.0</ele><time>2026-04-08T14:59:31.969Z</time></trkpt><trkpt lat="42.4128851" lon="13.0843195"><ele>539.0</ele><time>2026-04-08T14:59:32.969Z</time></trkpt><trkpt lat="42.4129366" lon="13.0842665"><ele>542.0</ele><time>2026-04-08T14:59:33.97Z</time></trkpt><trkpt lat="42.4130022" lon="13.0842529"><ele>545.0</ele><time>2026-04-08T14:59:34.969Z</time></trkpt><trkpt lat="42.4130792" lon="13.0843712"><ele>548.0</ele><time>2026-04-08T14:59:36.969Z</time></trkpt><trkpt lat="42.413071" lon="13.0844633"><ele>548.0</ele><time>2026-04-08T14:59:37.97Z</time></trkpt><trkpt lat="42.4130314" lon="13.0845502"><ele>548.0</ele><time>2026-04-08T14:59:38.969Z</time></trkpt><trkpt lat="42.4129779" lon="13.0846384"><ele>548.0</ele><time>2026-04-08T14:59:39.97Z</time></trkpt><trkpt lat="42.4129152" lon="13.0847357"><ele>548.0</ele><time>2026-04-08T14:59:40.97Z</time></trkpt><trkpt lat="42.4128578" lon="13.0848358"><ele>548.0</ele><time>2026-04-08T14:59:41.969Z</time></trkpt><trkpt lat="42.4127995" lon="13.0849282"><ele>548.0</ele><time>2026-04-08T14:59:42.969Z</time></trkpt><trkpt lat="42.4127409" lon="13.0850238"><ele>545.0</ele><time>2026-04-08T14:59:43.969Z</time></trkpt><trkpt lat="42.4127035" lon="13.0851154"><ele>542.0</ele><time>2026-04-08T14:59:44.97Z</time></trkpt><trkpt lat="42.41269" lon="13.0852183"><ele>539.0</ele><time>2026-04-08T14:59:45.969Z</time></trkpt><trkpt lat="42.4126831" lon="13.0853089"><ele>536.0</ele><time>2026-04-08T14:59:46.969Z</time></trkpt><trkpt lat="42.4127087" lon="13.0853943"><ele>533.0</ele><time>2026-04-08T14:59:47.969Z</time></trkpt><trkpt lat="42.4127865" lon="13.0854666"><ele>530.0</ele><time>2026-04-08T14:59:48.969Z</time></trkpt><trkpt lat="42.4128636" lon="13.0854976"><ele>530.0</ele><time>2026-04-08T14:59:49.969Z</time></trkpt><trkpt lat="42.4129501" lon="13.0854788"><ele>530.0</ele><time>2026-04-08T14:59:50.97Z</time></trkpt><trkpt lat="42.4130306" lon="13.0854124"><ele>530.0</ele><time>2026-04-08T14:59:51.97Z</time></trkpt><trkpt lat="42.4131198" lon="13.0853239"><ele>530.0</ele><time>2026-04-08T14:59:52.969Z</time></trkpt><trkpt lat="42.413205" lon="13.0852332"><ele>530.0</ele><time>2026-04-08T14:59:53.969Z</time></trkpt><trkpt lat="42.4132832" lon="13.0851352"><ele>525.6</ele><time>2026-04-08T14:59:54.969Z</time></trkpt><trkpt lat="42.4133544" lon="13.0850308"><ele>521.2</ele><time>2026-04-08T14:59:55.97Z</time></trkpt><trkpt lat="42.4134248" lon="13.0849265"><ele>516.8</ele><time>2026-04-08T14:59:56.969Z</time></trkpt><trkpt lat="42.4134986" lon="13.084837"><ele>512.4</ele><time>2026-04-08T14:59:57.969Z</time></trkpt><trkpt lat="42.4135731" lon="13.0847511"><ele>508.0</ele><time>2026-04-08T14:59:58.969Z</time></trkpt><trkpt lat="42.4136386" lon="13.0846769"><ele>508.00000000000006</ele><time>2026-04-08T14:59:59.969Z</time></trkpt><trkpt lat="42.4136969" lon="13.0846115"><ele>508.0</ele><time>2026-04-08T15:00:00.969Z</time></trkpt><trkpt lat="42.4137564" lon="13.0845564"><ele>508.0</ele><time>2026-04-08T15:00:01.969Z</time></trkpt><trkpt lat="42.4138501" lon="13.0844758"><ele>508.0</ele><time>2026-04-08T15:00:03.969Z</time></trkpt><trkpt lat="42.4139206" lon="13.0844293"><ele>508.00000000000006</ele><time>2026-04-08T15:00:05.969Z</time></trkpt><trkpt lat="42.4139376" lon="13.0842906"><ele>508.0</ele><time>2026-04-08T15:00:08.97Z</time></trkpt><trkpt lat="42.4139148" lon="13.0841475"><ele>506.0</ele><time>2026-04-08T15:00:10.969Z</time></trkpt><trkpt lat="42.413955" lon="13.0840724"><ele>504.0</ele><time>2026-04-08T15:00:12.97Z</time></trkpt><trkpt lat="42.414041" lon="13.0839805"><ele>502.0</ele><time>2026-04-08T15:00:14.97Z</time></trkpt><trkpt lat="42.4140951" lon="13.0839254"><ele>500.0</ele><time>2026-04-08T15:00:15.969Z</time></trkpt><trkpt lat="42.414146" lon="13.0838749"><ele>498.0</ele><time>2026-04-08T15:00:16.969Z</time></trkpt><trkpt lat="42.4142042" lon="13.0838235"><ele>496.0</ele><time>2026-04-08T15:00:17.969Z</time></trkpt><trkpt lat="42.4142615" lon="13.0837756"><ele>494.0</ele><time>2026-04-08T15:00:18.969Z</time></trkpt><trkpt lat="42.414368" lon="13.0836787"><ele>493.99999999999994</ele><time>2026-04-08T15:00:20.969Z</time></trkpt><trkpt lat="42.4144369" lon="13.0836239"><ele>494.0</ele><time>2026-04-08T15:00:21.969Z</time></trkpt><trkpt lat="42.4145096" lon="13.0835725"><ele>494.0</ele><time>2026-04-08T15:00:22.969Z</time></trkpt><trkpt lat="42.4145869" lon="13.0835257"><ele>494.0</ele><time>2026-04-08T15:00:23.969Z</time></trkpt><trkpt lat="42.4146611" lon="13.0834522"><ele>493.99999999999994</ele><time>2026-04-08T15:00:24.969Z</time></trkpt><trkpt lat="42.4147361" lon="13.0833849"><ele>494.0</ele><time>2026-04-08T15:00:25.969Z</time></trkpt><trkpt lat="42.4148114" lon="13.0833147"><ele>492.66666666666663</ele><time>2026-04-08T15:00:26.969Z</time></trkpt><trkpt lat="42.4148861" lon="13.0832463"><ele>491.3333333333333</ele><time>2026-04-08T15:00:27.969Z</time></trkpt><trkpt lat="42.4149624" lon="13.0831795"><ele>490.0</ele><time>2026-04-08T15:00:28.969Z</time></trkpt><trkpt lat="42.4150406" lon="13.0831229"><ele>488.66666666666663</ele><time>2026-04-08T15:00:29.97Z</time></trkpt><trkpt lat="42.4151165" lon="13.0830562"><ele>487.3333333333333</ele><time>2026-04-08T15:00:30.97Z</time></trkpt><trkpt lat="42.4151956" lon="13.0830001"><ele>486.0</ele><time>2026-04-08T15:00:31.969Z</time></trkpt><trkpt lat="42.4152731" lon="13.0829366"><ele>486.0</ele><time>2026-04-08T15:00:32.969Z</time></trkpt><trkpt lat="42.4153442" lon="13.0828673"><ele>486.0</ele><time>2026-04-08T15:00:33.969Z</time></trkpt><trkpt lat="42.4154204" lon="13.0828097"><ele>486.0</ele><time>2026-04-08T15:00:34.969Z</time></trkpt><trkpt lat="42.4154944" lon="13.0827501"><ele>486.0</ele><time>2026-04-08T15:00:35.97Z</time></trkpt><trkpt lat="42.4155669" lon="13.0826907"><ele>486.0</ele><time>2026-04-08T15:00:36.97Z</time></trkpt><trkpt lat="42.4156333" lon="13.0826241"><ele>486.0</ele><time>2026-04-08T15:00:37.969Z</time></trkpt><trkpt lat="42.4157049" lon="13.0825651"><ele>485.6666666666667</ele><time>2026-04-08T15:00:38.969Z</time></trkpt><trkpt lat="42.4157783" lon="13.0825198"><ele>485.33333333333337</ele><time>2026-04-08T15:00:39.97Z</time></trkpt><trkpt lat="42.4158442" lon="13.0824672"><ele>485.0</ele><time>2026-04-08T15:00:40.97Z</time></trkpt><trkpt lat="42.4159009" lon="13.0824215"><ele>484.6666666666667</ele><time>2026-04-08T15:00:41.969Z</time></trkpt><trkpt lat="42.4159883" lon="13.0823244"><ele>484.33333333333337</ele><time>2026-04-08T15:00:43.969Z</time></trkpt><trkpt lat="42.4160463" lon="13.0822359"><ele>484.0</ele><time>2026-04-08T15:00:45.969Z</time></trkpt><trkpt lat="42.4160257" lon="13.0821374"><ele>484.0</ele><time>2026-04-08T15:00:47.97Z</time></trkpt><trkpt lat="42.4159512" lon="13.0820744"><ele>484.0</ele><time>2026-04-08T15:00:48.969Z</time></trkpt><trkpt lat="42.4158389" lon="13.0820393"><ele>484.0</ele><time>2026-04-08T15:00:50.969Z</time></trkpt><trkpt lat="42.4157911" lon="13.0819553"><ele>484.0</ele><time>2026-04-08T15:00:52.969Z</time></trkpt><trkpt lat="42.4158248" lon="13.0818135"><ele>484.0</ele><time>2026-04-08T15:00:54.969Z</time></trkpt><trkpt lat="42.4158472" lon="13.0817309"><ele>483.2</ele><time>2026-04-08T15:00:55.97Z</time></trkpt><trkpt lat="42.4158953" lon="13.0815608"><ele>482.4</ele><time>2026-04-08T15:00:57.969Z</time></trkpt><trkpt lat="42.4159192" lon="13.0814591"><ele>481.6</ele><time>2026-04-08T15:00:58.97Z</time></trkpt><trkpt lat="42.4159469" lon="13.0813693"><ele>480.8</ele><time>2026-04-08T15:00:59.97Z</time></trkpt><trkpt lat="42.4159692" lon="13.0812806"><ele>480.0</ele><time>2026-04-08T15:01:00.97Z</time></trkpt><trkpt lat="42.4160155" lon="13.081147"><ele>480.0</ele><time>2026-04-08T15:01:02.969Z</time></trkpt><trkpt lat="42.4160147" lon="13.0810289"><ele>480.0</ele><time>2026-04-08T15:01:07.969Z</time></trkpt><trkpt lat="42.4159585" lon="13.0809719"><ele>480.0</ele><time>2026-04-08T15:01:08.969Z</time></trkpt><trkpt lat="42.415895" lon="13.0809176"><ele>480.0</ele><time>2026-04-08T15:01:09.969Z</time></trkpt><trkpt lat="42.4158159" lon="13.0808566"><ele>480.0</ele><time>2026-04-08T15:01:10.97Z</time></trkpt><trkpt lat="42.4157374" lon="13.080795"><ele>480.0</ele><time>2026-04-08T15:01:11.969Z</time></trkpt><trkpt lat="42.4156454" lon="13.0807249"><ele>479.75</ele><time>2026-04-08T15:01:12.969Z</time></trkpt><trkpt lat="42.4155428" lon="13.0806404"><ele>479.5</ele><time>2026-04-08T15:01:13.969Z</time></trkpt><trkpt lat="42.4154301" lon="13.080554"><ele>479.25</ele><time>2026-04-08T15:01:14.969Z</time></trkpt><trkpt lat="42.415314" lon="13.0804633"><ele>479.0</ele><time>2026-04-08T15:01:15.969Z</time></trkpt><trkpt lat="42.4151979" lon="13.0803632"><ele>479.0</ele><time>2026-04-08T15:01:16.969Z</time></trkpt><trkpt lat="42.4150859" lon="13.0802621"><ele>479.0</ele><time>2026-04-08T15:01:17.969Z</time></trkpt><trkpt lat="42.414979" lon="13.0801689"><ele>479.0</ele><time>2026-04-08T15:01:18.969Z</time></trkpt><trkpt lat="42.4148787" lon="13.0800727"><ele>479.0</ele><time>2026-04-08T15:01:19.969Z</time></trkpt><trkpt lat="42.4147829" lon="13.0799671"><ele>478.5</ele><time>2026-04-08T15:01:20.969Z</time></trkpt><trkpt lat="42.4146946" lon="13.0798546"><ele>478.0</ele><time>2026-04-08T15:01:21.969Z</time></trkpt><trkpt lat="42.4146152" lon="13.0797282"><ele>477.5</ele><time>2026-04-08T15:01:22.969Z</time></trkpt><trkpt lat="42.4145527" lon="13.0795883"><ele>477.0</ele><time>2026-04-08T15:01:23.97Z</time></trkpt><trkpt lat="42.4144974" lon="13.0794309"><ele>486.75</ele><time>2026-04-08T15:01:24.969Z</time></trkpt><trkpt lat="42.4144617" lon="13.0792609"><ele>496.5</ele><time>2026-04-08T15:01:25.969Z</time></trkpt><trkpt lat="42.414444" lon="13.0790816"><ele>506.25</ele><time>2026-04-08T15:01:26.97Z</time></trkpt><trkpt lat="42.4144387" lon="13.0788943"><ele>516.0</ele><time>2026-04-08T15:01:27.97Z</time></trkpt><trkpt lat="42.4144414" lon="13.0787042"><ele>516.0</ele><time>2026-04-08T15:01:28.969Z</time></trkpt><trkpt lat="42.4144453" lon="13.0785201"><ele>516.0</ele><time>2026-04-08T15:01:29.969Z</time></trkpt><trkpt lat="42.4144463" lon="13.0783418"><ele>516.0</ele><time>2026-04-08T15:01:30.969Z</time></trkpt><trkpt lat="42.4144504" lon="13.0781698"><ele>516.0</ele><time>2026-04-08T15:01:31.969Z</time></trkpt><trkpt lat="42.4144573" lon="13.078008"><ele>514.6</ele><time>2026-04-08T15:01:32.969Z</time></trkpt><trkpt lat="42.4144664" lon="13.0778557"><ele>513.2</ele><time>2026-04-08T15:01:33.97Z</time></trkpt><trkpt lat="42.4144766" lon="13.0777066"><ele>511.79999999999995</ele><time>2026-04-08T15:01:34.969Z</time></trkpt><trkpt lat="42.4144883" lon="13.0775566"><ele>510.4</ele><time>2026-04-08T15:01:35.969Z</time></trkpt><trkpt lat="42.4144998" lon="13.0774042"><ele>509.0</ele><time>2026-04-08T15:01:36.969Z</time></trkpt><trkpt lat="42.4145097" lon="13.0772519"><ele>506.75</ele><time>2026-04-08T15:01:37.97Z</time></trkpt><trkpt lat="42.4145195" lon="13.0770947"><ele>504.5</ele><time>2026-04-08T15:01:38.97Z</time></trkpt><trkpt lat="42.4145303" lon="13.0769358"><ele>502.25</ele><time>2026-04-08T15:01:39.969Z</time></trkpt><trkpt lat="42.4145392" lon="13.0767851"><ele>500.0</ele><time>2026-04-08T15:01:40.969Z</time></trkpt><trkpt lat="42.4145328" lon="13.0766338"><ele>496.5</ele><time>2026-04-08T15:01:41.969Z</time></trkpt><trkpt lat="42.4145069" lon="13.0764892"><ele>493.0</ele><time>2026-04-08T15:01:42.97Z</time></trkpt><trkpt lat="42.4144706" lon="13.0763427"><ele>489.5</ele><time>2026-04-08T15:01:43.969Z</time></trkpt><trkpt lat="42.4144221" lon="13.0761992"><ele>486.0</ele><time>2026-04-08T15:01:44.969Z</time></trkpt><trkpt lat="42.4143654" lon="13.0760561"><ele>486.0</ele><time>2026-04-08T15:01:45.969Z</time></trkpt><trkpt lat="42.4142938" lon="13.075921"><ele>486.0</ele><time>2026-04-08T15:01:46.969Z</time></trkpt><trkpt lat="42.4142128" lon="13.0757793"><ele>486.0</ele><time>2026-04-08T15:01:47.97Z</time></trkpt><trkpt lat="42.4141217" lon="13.0756421"><ele>486.0</ele><time>2026-04-08T15:01:48.969Z</time></trkpt><trkpt lat="42.4140187" lon="13.0755102"><ele>485.0</ele><time>2026-04-08T15:01:49.969Z</time></trkpt><trkpt lat="42.4139042" lon="13.0753899"><ele>484.0</ele><time>2026-04-08T15:01:50.969Z</time></trkpt><trkpt lat="42.413779" lon="13.0752845"><ele>483.0</ele><time>2026-04-08T15:01:51.969Z</time></trkpt><trkpt lat="42.4136491" lon="13.0751911"><ele>482.0</ele><time>2026-04-08T15:01:52.969Z</time></trkpt><trkpt lat="42.4135151" lon="13.075113"><ele>482.0</ele><time>2026-04-08T15:01:53.969Z</time></trkpt><trkpt lat="42.4133895" lon="13.0750396"><ele>482.0</ele><time>2026-04-08T15:01:54.969Z</time></trkpt><trkpt lat="42.4132624" lon="13.0749654"><ele>482.0</ele><time>2026-04-08T15:01:55.97Z</time></trkpt><trkpt lat="42.4131398" lon="13.0748963"><ele>482.0</ele><time>2026-04-08T15:01:56.969Z</time></trkpt><trkpt lat="42.4130233" lon="13.0748302"><ele>480.25</ele><time>2026-04-08T15:01:57.97Z</time></trkpt><trkpt lat="42.4129136" lon="13.0747598"><ele>478.5</ele><time>2026-04-08T15:01:58.97Z</time></trkpt><trkpt lat="42.412796" lon="13.074692"><ele>476.75</ele><time>2026-04-08T15:01:59.969Z</time></trkpt><trkpt lat="42.4126827" lon="13.0746186"><ele>475.0</ele><time>2026-04-08T15:02:00.969Z</time></trkpt><trkpt lat="42.412566" lon="13.0745433"><ele>475.0</ele><time>2026-04-08T15:02:01.97Z</time></trkpt><trkpt lat="42.4124483" lon="13.0744688"><ele>475.0</ele><time>2026-04-08T15:02:02.969Z</time></trkpt><trkpt lat="42.4123199" lon="13.0743887"><ele>475.0</ele><time>2026-04-08T15:02:03.97Z</time></trkpt><trkpt lat="42.4121992" lon="13.074306"><ele>475.0</ele><time>2026-04-08T15:02:04.969Z</time></trkpt><trkpt lat="42.4120756" lon="13.0742304"><ele>474.75</ele><time>2026-04-08T15:02:05.969Z</time></trkpt><trkpt lat="42.4119495" lon="13.0741519"><ele>474.5</ele><time>2026-04-08T15:02:06.969Z</time></trkpt><trkpt lat="42.4118309" lon="13.0740755"><ele>474.25</ele><time>2026-04-08T15:02:07.969Z</time></trkpt><trkpt lat="42.4117139" lon="13.0740081"><ele>474.0</ele><time>2026-04-08T15:02:08.97Z</time></trkpt><trkpt lat="42.4115975" lon="13.0739433"><ele>474.0</ele><time>2026-04-08T15:02:09.969Z</time></trkpt><trkpt lat="42.411484" lon="13.0738763"><ele>474.0</ele><time>2026-04-08T15:02:10.969Z</time></trkpt><trkpt lat="42.4113728" lon="13.073811"><ele>474.0</ele><time>2026-04-08T15:02:11.97Z</time></trkpt><trkpt lat="42.4112588" lon="13.0737548"><ele>474.0</ele><time>2026-04-08T15:02:12.969Z</time></trkpt><trkpt lat="42.4111436" lon="13.0736951"><ele>474.75</ele><time>2026-04-08T15:02:13.969Z</time></trkpt><trkpt lat="42.4110275" lon="13.0736316"><ele>475.5</ele><time>2026-04-08T15:02:14.969Z</time></trkpt><trkpt lat="42.4109112" lon="13.0735639"><ele>476.25</ele><time>2026-04-08T15:02:15.969Z</time></trkpt><trkpt lat="42.4107974" lon="13.0734989"><ele>477.0</ele><time>2026-04-08T15:02:16.969Z</time></trkpt><trkpt lat="42.4106853" lon="13.0734374"><ele>477.0</ele><time>2026-04-08T15:02:17.97Z</time></trkpt><trkpt lat="42.4105752" lon="13.0733683"><ele>477.0</ele><time>2026-04-08T15:02:18.97Z</time></trkpt><trkpt lat="42.4104739" lon="13.0732915"><ele>477.0</ele><time>2026-04-08T15:02:19.969Z</time></trkpt><trkpt lat="42.4103702" lon="13.0731992"><ele>477.0</ele><time>2026-04-08T15:02:20.969Z</time></trkpt><trkpt lat="42.410273" lon="13.0730961"><ele>477.75</ele><time>2026-04-08T15:02:21.97Z</time></trkpt><trkpt lat="42.4101818" lon="13.0729778"><ele>478.5</ele><time>2026-04-08T15:02:22.969Z</time></trkpt><trkpt lat="42.4100944" lon="13.0728513"><ele>479.25</ele><time>2026-04-08T15:02:23.97Z</time></trkpt><trkpt lat="42.4100123" lon="13.0727137"><ele>480.0</ele><time>2026-04-08T15:02:24.969Z</time></trkpt><trkpt lat="42.4099301" lon="13.0725736"><ele>478.75</ele><time>2026-04-08T15:02:25.969Z</time></trkpt><trkpt lat="42.4098467" lon="13.0724233"><ele>477.5</ele><time>2026-04-08T15:02:26.97Z</time></trkpt><trkpt lat="42.4097668" lon="13.0722695"><ele>476.25</ele><time>2026-04-08T15:02:27.97Z</time></trkpt><trkpt lat="42.4096859" lon="13.0721106"><ele>475.0</ele><time>2026-04-08T15:02:28.969Z</time></trkpt><trkpt lat="42.4096042" lon="13.071941"><ele>478.0</ele><time>2026-04-08T15:02:29.969Z</time></trkpt><trkpt lat="42.4095151" lon="13.0717613"><ele>481.0</ele><time>2026-04-08T15:02:30.969Z</time></trkpt><trkpt lat="42.4094267" lon="13.071576"><ele>484.0</ele><time>2026-04-08T15:02:31.97Z</time></trkpt><trkpt lat="42.40935" lon="13.0713848"><ele>484.0</ele><time>2026-04-08T15:02:32.969Z</time></trkpt><trkpt lat="42.409287" lon="13.0711841"><ele>484.0</ele><time>2026-04-08T15:02:33.969Z</time></trkpt><trkpt lat="42.4092307" lon="13.0709824"><ele>484.0</ele><time>2026-04-08T15:02:34.969Z</time></trkpt><trkpt lat="42.4091718" lon="13.0707725"><ele>482.6666666666667</ele><time>2026-04-08T15:02:35.97Z</time></trkpt><trkpt lat="42.4091092" lon="13.0705582"><ele>481.33333333333337</ele><time>2026-04-08T15:02:36.97Z</time></trkpt><trkpt lat="42.4090466" lon="13.070352"><ele>480.0</ele><time>2026-04-08T15:02:37.97Z</time></trkpt><trkpt lat="42.4089863" lon="13.0701457"><ele>479.33333333333337</ele><time>2026-04-08T15:02:38.97Z</time></trkpt><trkpt lat="42.4089244" lon="13.0699351"><ele>478.6666666666667</ele><time>2026-04-08T15:02:39.969Z</time></trkpt><trkpt lat="42.4088666" lon="13.0697257"><ele>478.0</ele><time>2026-04-08T15:02:40.969Z</time></trkpt><trkpt lat="42.4088058" lon="13.0695215"><ele>479.0</ele><time>2026-04-08T15:02:41.969Z</time></trkpt><trkpt lat="42.4087446" lon="13.0693237"><ele>480.0</ele><time>2026-04-08T15:02:42.969Z</time></trkpt><trkpt lat="42.4086858" lon="13.0691319"><ele>481.0</ele><time>2026-04-08T15:02:43.969Z</time></trkpt><trkpt lat="42.4086269" lon="13.0689383"><ele>481.0</ele><time>2026-04-08T15:02:44.969Z</time></trkpt><trkpt lat="42.4085676" lon="13.0687372"><ele>481.0</ele><time>2026-04-08T15:02:45.969Z</time></trkpt><trkpt lat="42.4085003" lon="13.0685345"><ele>481.0</ele><time>2026-04-08T15:02:46.969Z</time></trkpt><trkpt lat="42.4084247" lon="13.0683272"><ele>479.0</ele><time>2026-04-08T15:02:47.969Z</time></trkpt><trkpt lat="42.4083415" lon="13.0681157"><ele>477.0</ele><time>2026-04-08T15:02:48.969Z</time></trkpt><trkpt lat="42.4082471" lon="13.0679004"><ele>475.0</ele><time>2026-04-08T15:02:49.969Z</time></trkpt><trkpt lat="42.4081528" lon="13.0676912"><ele>475.0</ele><time>2026-04-08T15:02:50.969Z</time></trkpt><trkpt lat="42.4080636" lon="13.0674861"><ele>475.0</ele><time>2026-04-08T15:02:51.969Z</time></trkpt><trkpt lat="42.4079718" lon="13.067287"><ele>475.0</ele><time>2026-04-08T15:02:52.969Z</time></trkpt><trkpt lat="42.4078814" lon="13.0670858"><ele>474.6666666666667</ele><time>2026-04-08T15:02:53.97Z</time></trkpt><trkpt lat="42.4077922" lon="13.0668843"><ele>474.33333333333337</ele><time>2026-04-08T15:02:54.969Z</time></trkpt><trkpt lat="42.4077049" lon="13.0666829"><ele>474.0</ele><time>2026-04-08T15:02:55.969Z</time></trkpt><trkpt lat="42.4076162" lon="13.0664781"><ele>474.0</ele><time>2026-04-08T15:02:56.969Z</time></trkpt><trkpt lat="42.4075287" lon="13.0662765"><ele>474.0</ele><time>2026-04-08T15:02:57.969Z</time></trkpt><trkpt lat="42.4074425" lon="13.0660764"><ele>474.0</ele><time>2026-04-08T15:02:58.97Z</time></trkpt><trkpt lat="42.4073546" lon="13.0658825"><ele>473.33333333333337</ele><time>2026-04-08T15:02:59.969Z</time></trkpt><trkpt lat="42.4072663" lon="13.0656949"><ele>472.6666666666667</ele><time>2026-04-08T15:03:00.97Z</time></trkpt><trkpt lat="42.4071807" lon="13.065505"><ele>472.0</ele><time>2026-04-08T15:03:01.969Z</time></trkpt><trkpt lat="42.4070945" lon="13.0653154"><ele>473.33333333333337</ele><time>2026-04-08T15:03:02.969Z</time></trkpt><trkpt lat="42.4070077" lon="13.0651234"><ele>474.66666666666663</ele><time>2026-04-08T15:03:03.97Z</time></trkpt><trkpt lat="42.4069227" lon="13.0649352"><ele>476.0</ele><time>2026-04-08T15:03:04.969Z</time></trkpt><trkpt lat="42.4068385" lon="13.0647475"><ele>476.0</ele><time>2026-04-08T15:03:05.969Z</time></trkpt><trkpt lat="42.4067508" lon="13.0645552"><ele>476.0</ele><time>2026-04-08T15:03:06.969Z</time></trkpt><trkpt lat="42.4066636" lon="13.0643638"><ele>476.0</ele><time>2026-04-08T15:03:07.97Z</time></trkpt><trkpt lat="42.4065803" lon="13.0641718"><ele>475.0</ele><time>2026-04-08T15:03:08.97Z</time></trkpt><trkpt lat="42.4064976" lon="13.0639852"><ele>474.0</ele><time>2026-04-08T15:03:09.969Z</time></trkpt><trkpt lat="42.4064229" lon="13.0637993"><ele>473.0</ele><time>2026-04-08T15:03:10.969Z</time></trkpt><trkpt lat="42.4063507" lon="13.0636174"><ele>474.0</ele><time>2026-04-08T15:03:11.969Z</time></trkpt><trkpt lat="42.4062814" lon="13.063431"><ele>475.0</ele><time>2026-04-08T15:03:12.969Z</time></trkpt><trkpt lat="42.4062198" lon="13.0632389"><ele>476.0</ele><time>2026-04-08T15:03:13.969Z</time></trkpt><trkpt lat="42.4061598" lon="13.0630369"><ele>476.0</ele><time>2026-04-08T15:03:14.97Z</time></trkpt><trkpt lat="42.4061064" lon="13.0628231"><ele>476.0</ele><time>2026-04-08T15:03:15.969Z</time></trkpt><trkpt lat="42.4060503" lon="13.0626035"><ele>476.0</ele><time>2026-04-08T15:03:16.969Z</time></trkpt><trkpt lat="42.4059959" lon="13.0623737"><ele>473.66666666666663</ele><time>2026-04-08T15:03:17.969Z</time></trkpt><trkpt lat="42.4059314" lon="13.0621463"><ele>471.33333333333337</ele><time>2026-04-08T15:03:18.969Z</time></trkpt><trkpt lat="42.4058661" lon="13.061918"><ele>469.0</ele><time>2026-04-08T15:03:19.969Z</time></trkpt><trkpt lat="42.4057954" lon="13.0616999"><ele>468.0</ele><time>2026-04-08T15:03:20.97Z</time></trkpt><trkpt lat="42.4057207" lon="13.0614816"><ele>467.0</ele><time>2026-04-08T15:03:21.969Z</time></trkpt><trkpt lat="42.4056454" lon="13.0612668"><ele>466.0</ele><time>2026-04-08T15:03:22.969Z</time></trkpt><trkpt lat="42.4055671" lon="13.0610522"><ele>468.6666666666667</ele><time>2026-04-08T15:03:23.97Z</time></trkpt><trkpt lat="42.4054904" lon="13.0608427"><ele>471.33333333333337</ele><time>2026-04-08T15:03:24.969Z</time></trkpt><trkpt lat="42.4054143" lon="13.0606279"><ele>474.0</ele><time>2026-04-08T15:03:25.97Z</time></trkpt><trkpt lat="42.4053343" lon="13.0604173"><ele>474.0</ele><time>2026-04-08T15:03:26.969Z</time></trkpt><trkpt lat="42.4052585" lon="13.0602071"><ele>474.0</ele><time>2026-04-08T15:03:27.969Z</time></trkpt><trkpt lat="42.4051847" lon="13.0600029"><ele>474.0</ele><time>2026-04-08T15:03:28.969Z</time></trkpt><trkpt lat="42.4051113" lon="13.059797"><ele>472.66666666666663</ele><time>2026-04-08T15:03:29.969Z</time></trkpt><trkpt lat="42.4050355" lon="13.0595967"><ele>471.3333333333333</ele><time>2026-04-08T15:03:30.969Z</time></trkpt><trkpt lat="42.4049607" lon="13.0593944"><ele>470.0</ele><time>2026-04-08T15:03:31.969Z</time></trkpt><trkpt lat="42.4048846" lon="13.0591969"><ele>469.0</ele><time>2026-04-08T15:03:32.97Z</time></trkpt><trkpt lat="42.4048121" lon="13.0589992"><ele>468.0</ele><time>2026-04-08T15:03:33.969Z</time></trkpt><trkpt lat="42.404732" lon="13.0587972"><ele>467.0</ele><time>2026-04-08T15:03:34.969Z</time></trkpt><trkpt lat="42.4046497" lon="13.0585883"><ele>470.0</ele><time>2026-04-08T15:03:35.97Z</time></trkpt><trkpt lat="42.4045623" lon="13.0583774"><ele>473.0</ele><time>2026-04-08T15:03:36.97Z</time></trkpt><trkpt lat="42.4044713" lon="13.0581704"><ele>476.0</ele><time>2026-04-08T15:03:37.969Z</time></trkpt><trkpt lat="42.4043794" lon="13.057966"><ele>476.0</ele><time>2026-04-08T15:03:38.969Z</time></trkpt><trkpt lat="42.4042849" lon="13.0577606"><ele>476.0</ele><time>2026-04-08T15:03:39.97Z</time></trkpt><trkpt lat="42.4041926" lon="13.0575512"><ele>476.0</ele><time>2026-04-08T15:03:40.969Z</time></trkpt><trkpt lat="42.4041109" lon="13.0573337"><ele>473.0</ele><time>2026-04-08T15:03:41.969Z</time></trkpt><trkpt lat="42.404038" lon="13.0571065"><ele>470.0</ele><time>2026-04-08T15:03:42.969Z</time></trkpt><trkpt lat="42.4039644" lon="13.0568701"><ele>467.0</ele><time>2026-04-08T15:03:43.969Z</time></trkpt><trkpt lat="42.4038986" lon="13.0566302"><ele>467.66666666666663</ele><time>2026-04-08T15:03:44.97Z</time></trkpt><trkpt lat="42.4038343" lon="13.0563871"><ele>468.33333333333337</ele><time>2026-04-08T15:03:45.969Z</time></trkpt><trkpt lat="42.4037744" lon="13.0561536"><ele>469.0</ele><time>2026-04-08T15:03:46.97Z</time></trkpt><trkpt lat="42.4037132" lon="13.0559223"><ele>467.6666666666667</ele><time>2026-04-08T15:03:47.969Z</time></trkpt><trkpt lat="42.4036526" lon="13.0556938"><ele>466.33333333333337</ele><time>2026-04-08T15:03:48.969Z</time></trkpt><trkpt lat="42.4035922" lon="13.0554638"><ele>465.0</ele><time>2026-04-08T15:03:49.969Z</time></trkpt><trkpt lat="42.4035308" lon="13.0552326"><ele>465.0</ele><time>2026-04-08T15:03:50.969Z</time></trkpt><trkpt lat="42.4034668" lon="13.0549943"><ele>465.0</ele><time>2026-04-08T15:03:51.969Z</time></trkpt><trkpt lat="42.4034057" lon="13.054752"><ele>465.0</ele><time>2026-04-08T15:03:52.969Z</time></trkpt><trkpt lat="42.4033432" lon="13.0545003"><ele>463.66666666666663</ele><time>2026-04-08T15:03:53.969Z</time></trkpt><trkpt lat="42.4032778" lon="13.0542465"><ele>462.3333333333333</ele><time>2026-04-08T15:03:54.97Z</time></trkpt><trkpt lat="42.4032081" lon="13.0539849"><ele>461.0</ele><time>2026-04-08T15:03:55.969Z</time></trkpt><trkpt lat="42.4031359" lon="13.0537223"><ele>460.3333333333333</ele><time>2026-04-08T15:03:56.97Z</time></trkpt><trkpt lat="42.4030591" lon="13.0534652"><ele>459.66666666666663</ele><time>2026-04-08T15:03:57.97Z</time></trkpt><trkpt lat="42.4029777" lon="13.0532138"><ele>459.0</ele><time>2026-04-08T15:03:58.97Z</time></trkpt><trkpt lat="42.4028911" lon="13.0529658"><ele>459.0</ele><time>2026-04-08T15:03:59.969Z</time></trkpt><trkpt lat="42.4027943" lon="13.0527281"><ele>459.0</ele><time>2026-04-08T15:04:00.969Z</time></trkpt><trkpt lat="42.4026937" lon="13.0524985"><ele>459.0</ele><time>2026-04-08T15:04:01.969Z</time></trkpt><trkpt lat="42.4025866" lon="13.0522706"><ele>458.33333333333337</ele><time>2026-04-08T15:04:02.969Z</time></trkpt><trkpt lat="42.4024757" lon="13.0520494"><ele>457.6666666666667</ele><time>2026-04-08T15:04:03.97Z</time></trkpt><trkpt lat="42.4023715" lon="13.0518401"><ele>457.0</ele><time>2026-04-08T15:04:04.969Z</time></trkpt><trkpt lat="42.4022702" lon="13.051639"><ele>456.33333333333337</ele><time>2026-04-08T15:04:05.969Z</time></trkpt><trkpt lat="42.4021701" lon="13.0514332"><ele>455.66666666666663</ele><time>2026-04-08T15:04:06.969Z</time></trkpt><trkpt lat="42.4020695" lon="13.0512267"><ele>455.0</ele><time>2026-04-08T15:04:07.969Z</time></trkpt><trkpt lat="42.4019656" lon="13.0510136"><ele>455.0</ele><time>2026-04-08T15:04:08.969Z</time></trkpt><trkpt lat="42.4018638" lon="13.0508008"><ele>455.0</ele><time>2026-04-08T15:04:09.969Z</time></trkpt><trkpt lat="42.4017641" lon="13.0505833"><ele>455.0</ele><time>2026-04-08T15:04:10.969Z</time></trkpt><trkpt lat="42.4016608" lon="13.0503678"><ele>454.66666666666663</ele><time>2026-04-08T15:04:11.969Z</time></trkpt><trkpt lat="42.4015587" lon="13.0501569"><ele>454.33333333333337</ele><time>2026-04-08T15:04:12.969Z</time></trkpt><trkpt lat="42.4014533" lon="13.0499462"><ele>454.0</ele><time>2026-04-08T15:04:13.969Z</time></trkpt><trkpt lat="42.4013481" lon="13.0497356"><ele>454.33333333333337</ele><time>2026-04-08T15:04:14.969Z</time></trkpt><trkpt lat="42.401244" lon="13.0495316"><ele>454.66666666666663</ele><time>2026-04-08T15:04:15.969Z</time></trkpt><trkpt lat="42.4011457" lon="13.0493287"><ele>455.0</ele><time>2026-04-08T15:04:16.969Z</time></trkpt><trkpt lat="42.4010508" lon="13.0491245"><ele>455.0</ele><time>2026-04-08T15:04:17.969Z</time></trkpt><trkpt lat="42.4009506" lon="13.0489228"><ele>455.0</ele><time>2026-04-08T15:04:18.969Z</time></trkpt><trkpt lat="42.4008541" lon="13.0487209"><ele>455.0</ele><time>2026-04-08T15:04:19.969Z</time></trkpt><trkpt lat="42.4007564" lon="13.0485233"><ele>455.0</ele><time>2026-04-08T15:04:20.97Z</time></trkpt><trkpt lat="42.4006622" lon="13.0483215"><ele>455.0</ele><time>2026-04-08T15:04:21.969Z</time></trkpt><trkpt lat="42.400564" lon="13.0481252"><ele>455.0</ele><time>2026-04-08T15:04:22.969Z</time></trkpt><trkpt lat="42.4004694" lon="13.047931"><ele>456.66666666666663</ele><time>2026-04-08T15:04:23.969Z</time></trkpt><trkpt lat="42.4003742" lon="13.0477432"><ele>458.33333333333337</ele><time>2026-04-08T15:04:24.969Z</time></trkpt><trkpt lat="42.400274" lon="13.0475629"><ele>460.0</ele><time>2026-04-08T15:04:25.969Z</time></trkpt><trkpt lat="42.4001719" lon="13.0474022"><ele>456.33333333333337</ele><time>2026-04-08T15:04:26.969Z</time></trkpt><trkpt lat="42.4000673" lon="13.0472489"><ele>452.66666666666663</ele><time>2026-04-08T15:04:27.969Z</time></trkpt><trkpt lat="42.3999629" lon="13.0471004"><ele>449.0</ele><time>2026-04-08T15:04:28.969Z</time></trkpt><trkpt lat="42.3998524" lon="13.0469573"><ele>449.0</ele><time>2026-04-08T15:04:29.97Z</time></trkpt><trkpt lat="42.3997388" lon="13.0468152"><ele>449.0</ele><time>2026-04-08T15:04:30.969Z</time></trkpt><trkpt lat="42.3996304" lon="13.046682"><ele>449.0</ele><time>2026-04-08T15:04:31.969Z</time></trkpt><trkpt lat="42.3995325" lon="13.0465576"><ele>449.0</ele><time>2026-04-08T15:04:32.969Z</time></trkpt><trkpt lat="42.3994523" lon="13.0464435"><ele>449.2</ele><time>2026-04-08T15:04:33.97Z</time></trkpt><trkpt lat="42.3993874" lon="13.0463182"><ele>449.4</ele><time>2026-04-08T15:04:34.97Z</time></trkpt><trkpt lat="42.3993412" lon="13.0461848"><ele>449.6</ele><time>2026-04-08T15:04:35.969Z</time></trkpt><trkpt lat="42.3993114" lon="13.046038"><ele>449.8</ele><time>2026-04-08T15:04:36.97Z</time></trkpt><trkpt lat="42.3992985" lon="13.0458835"><ele>450.0</ele><time>2026-04-08T15:04:37.97Z</time></trkpt><trkpt lat="42.3993004" lon="13.0457178"><ele>450.0</ele><time>2026-04-08T15:04:38.969Z</time></trkpt><trkpt lat="42.3993282" lon="13.0455483"><ele>450.0</ele><time>2026-04-08T15:04:39.97Z</time></trkpt><trkpt lat="42.3993708" lon="13.045377"><ele>450.0</ele><time>2026-04-08T15:04:40.969Z</time></trkpt><trkpt lat="42.3994131" lon="13.0451976"><ele>450.0</ele><time>2026-04-08T15:04:41.969Z</time></trkpt><trkpt lat="42.3994574" lon="13.0450227"><ele>449.25</ele><time>2026-04-08T15:04:42.97Z</time></trkpt><trkpt lat="42.3994984" lon="13.0448477"><ele>448.5</ele><time>2026-04-08T15:04:43.969Z</time></trkpt><trkpt lat="42.399539" lon="13.0446773"><ele>447.75</ele><time>2026-04-08T15:04:44.969Z</time></trkpt><trkpt lat="42.3995734" lon="13.0445175"><ele>447.0</ele><time>2026-04-08T15:04:45.969Z</time></trkpt><trkpt lat="42.3995824" lon="13.044368"><ele>447.0</ele><time>2026-04-08T15:04:46.969Z</time></trkpt><trkpt lat="42.399556" lon="13.0442207"><ele>447.00000000000006</ele><time>2026-04-08T15:04:47.97Z</time></trkpt><trkpt lat="42.3995072" lon="13.0440904"><ele>447.00000000000006</ele><time>2026-04-08T15:04:48.969Z</time></trkpt><trkpt lat="42.3994382" lon="13.0439719"><ele>447.0</ele><time>2026-04-08T15:04:49.969Z</time></trkpt><trkpt lat="42.3993622" lon="13.0438493"><ele>447.0</ele><time>2026-04-08T15:04:50.969Z</time></trkpt><trkpt lat="42.3992968" lon="13.0437093"><ele>447.0</ele><time>2026-04-08T15:04:51.969Z</time></trkpt><trkpt lat="42.3992353" lon="13.0435428"><ele>447.0</ele><time>2026-04-08T15:04:52.969Z</time></trkpt><trkpt lat="42.3991697" lon="13.0433618"><ele>447.0</ele><time>2026-04-08T15:04:53.969Z</time></trkpt><trkpt lat="42.3990997" lon="13.043158"><ele>446.66666666666663</ele><time>2026-04-08T15:04:54.969Z</time></trkpt><trkpt lat="42.3990264" lon="13.0429508"><ele>446.3333333333333</ele><time>2026-04-08T15:04:55.969Z</time></trkpt><trkpt lat="42.3989524" lon="13.0427456"><ele>446.0</ele><time>2026-04-08T15:04:56.969Z</time></trkpt><trkpt lat="42.3988785" lon="13.042538"><ele>445.66666666666663</ele><time>2026-04-08T15:04:57.969Z</time></trkpt><trkpt lat="42.3988002" lon="13.0423263"><ele>445.33333333333337</ele><time>2026-04-08T15:04:58.969Z</time></trkpt><trkpt lat="42.3987279" lon="13.0421192"><ele>445.0</ele><time>2026-04-08T15:04:59.969Z</time></trkpt><trkpt lat="42.3986547" lon="13.0419156"><ele>445.0</ele><time>2026-04-08T15:05:00.969Z</time></trkpt><trkpt lat="42.3985807" lon="13.0417121"><ele>445.0</ele><time>2026-04-08T15:05:01.97Z</time></trkpt><trkpt lat="42.3985068" lon="13.0415033"><ele>445.0</ele><time>2026-04-08T15:05:02.969Z</time></trkpt><trkpt lat="42.3984312" lon="13.0413002"><ele>444.6666666666667</ele><time>2026-04-08T15:05:03.969Z</time></trkpt><trkpt lat="42.3983564" lon="13.0410961"><ele>444.33333333333337</ele><time>2026-04-08T15:05:04.97Z</time></trkpt><trkpt lat="42.3982833" lon="13.0408987"><ele>444.0</ele><time>2026-04-08T15:05:05.97Z</time></trkpt><trkpt lat="42.3982075" lon="13.0407126"><ele>449.0</ele><time>2026-04-08T15:05:06.969Z</time></trkpt><trkpt lat="42.3981071" lon="13.0405524"><ele>454.0</ele><time>2026-04-08T15:05:07.969Z</time></trkpt><trkpt lat="42.3979815" lon="13.0404223"><ele>459.0</ele><time>2026-04-08T15:05:08.969Z</time></trkpt><trkpt lat="42.3978276" lon="13.0403196"><ele>459.0</ele><time>2026-04-08T15:05:09.969Z</time></trkpt><trkpt lat="42.3976628" lon="13.0402444"><ele>459.0</ele><time>2026-04-08T15:05:10.969Z</time></trkpt><trkpt lat="42.3974911" lon="13.0401897"><ele>459.0</ele><time>2026-04-08T15:05:11.969Z</time></trkpt><trkpt lat="42.3973206" lon="13.0401679"><ele>456.33333333333337</ele><time>2026-04-08T15:05:12.969Z</time></trkpt><trkpt lat="42.3971577" lon="13.0401709"><ele>453.6666666666667</ele><time>2026-04-08T15:05:13.969Z</time></trkpt><trkpt lat="42.3970041" lon="13.0401676"><ele>451.0</ele><time>2026-04-08T15:05:14.969Z</time></trkpt><trkpt lat="42.3968589" lon="13.040131"><ele>451.0</ele><time>2026-04-08T15:05:15.969Z</time></trkpt><trkpt lat="42.3967381" lon="13.0400323"><ele>451.0</ele><time>2026-04-08T15:05:16.97Z</time></trkpt><trkpt lat="42.3966409" lon="13.0399037"><ele>451.0</ele><time>2026-04-08T15:05:17.969Z</time></trkpt><trkpt lat="42.3965665" lon="13.0397386"><ele>451.0</ele><time>2026-04-08T15:05:18.969Z</time></trkpt><trkpt lat="42.3965" lon="13.039548"><ele>450.33333333333337</ele><time>2026-04-08T15:05:19.969Z</time></trkpt><trkpt lat="42.3964363" lon="13.0393543"><ele>449.66666666666663</ele><time>2026-04-08T15:05:20.969Z</time></trkpt><trkpt lat="42.396371" lon="13.0391594"><ele>449.0</ele><time>2026-04-08T15:05:21.969Z</time></trkpt><trkpt lat="42.3963035" lon="13.0389624"><ele>448.0</ele><time>2026-04-08T15:05:22.969Z</time></trkpt><trkpt lat="42.396236" lon="13.0387615"><ele>447.0</ele><time>2026-04-08T15:05:23.969Z</time></trkpt><trkpt lat="42.3961655" lon="13.0385617"><ele>446.0</ele><time>2026-04-08T15:05:24.969Z</time></trkpt><trkpt lat="42.3960861" lon="13.0383572"><ele>451.3333333333333</ele><time>2026-04-08T15:05:25.97Z</time></trkpt><trkpt lat="42.3959901" lon="13.038163"><ele>456.66666666666663</ele><time>2026-04-08T15:05:26.969Z</time></trkpt><trkpt lat="42.3958714" lon="13.037982"><ele>462.0</ele><time>2026-04-08T15:05:27.969Z</time></trkpt><trkpt lat="42.3957336" lon="13.0378209"><ele>462.0</ele><time>2026-04-08T15:05:28.97Z</time></trkpt><trkpt lat="42.3955961" lon="13.0376542"><ele>462.0</ele><time>2026-04-08T15:05:29.969Z</time></trkpt><trkpt lat="42.3954591" lon="13.0374983"><ele>462.0</ele><time>2026-04-08T15:05:30.969Z</time></trkpt><trkpt lat="42.3953256" lon="13.0373415"><ele>464.0</ele><time>2026-04-08T15:05:31.969Z</time></trkpt><trkpt lat="42.3951919" lon="13.0371914"><ele>466.0</ele><time>2026-04-08T15:05:32.969Z</time></trkpt><trkpt lat="42.3950565" lon="13.0370434"><ele>468.0</ele><time>2026-04-08T15:05:33.969Z</time></trkpt><trkpt lat="42.394918" lon="13.0369041"><ele>468.0</ele><time>2026-04-08T15:05:34.969Z</time></trkpt><trkpt lat="42.3947853" lon="13.0367747"><ele>468.0</ele><time>2026-04-08T15:05:35.969Z</time></trkpt><trkpt lat="42.3946537" lon="13.0366614"><ele>468.0</ele><time>2026-04-08T15:05:36.97Z</time></trkpt><trkpt lat="42.3945243" lon="13.0365782"><ele>469.0</ele><time>2026-04-08T15:05:37.97Z</time></trkpt><trkpt lat="42.3943953" lon="13.0365543"><ele>470.0</ele><time>2026-04-08T15:05:38.97Z</time></trkpt><trkpt lat="42.3942748" lon="13.0365612"><ele>471.0</ele><time>2026-04-08T15:05:39.969Z</time></trkpt><trkpt lat="42.3941539" lon="13.0365909"><ele>472.0</ele><time>2026-04-08T15:05:40.97Z</time></trkpt><trkpt lat="42.3940392" lon="13.0366084"><ele>472.0</ele><time>2026-04-08T15:05:41.969Z</time></trkpt><trkpt lat="42.3939342" lon="13.0365935"><ele>472.00000000000006</ele><time>2026-04-08T15:05:42.97Z</time></trkpt><trkpt lat="42.3938446" lon="13.0365382"><ele>472.00000000000006</ele><time>2026-04-08T15:05:43.97Z</time></trkpt><trkpt lat="42.3937723" lon="13.0364548"><ele>472.0</ele><time>2026-04-08T15:05:44.97Z</time></trkpt><trkpt lat="42.3937295" lon="13.0363504"><ele>472.0</ele><time>2026-04-08T15:05:45.97Z</time></trkpt><trkpt lat="42.3937119" lon="13.0362283"><ele>465.0</ele><time>2026-04-08T15:05:46.969Z</time></trkpt><trkpt lat="42.3937141" lon="13.0360745"><ele>458.0</ele><time>2026-04-08T15:05:47.97Z</time></trkpt><trkpt lat="42.3937273" lon="13.0358978"><ele>451.0</ele><time>2026-04-08T15:05:48.97Z</time></trkpt><trkpt lat="42.3937331" lon="13.035709"><ele>444.0</ele><time>2026-04-08T15:05:49.969Z</time></trkpt><trkpt lat="42.39372" lon="13.0355039"><ele>444.0</ele><time>2026-04-08T15:05:50.97Z</time></trkpt><trkpt lat="42.3936928" lon="13.0352939"><ele>444.0</ele><time>2026-04-08T15:05:51.969Z</time></trkpt><trkpt lat="42.3936643" lon="13.0350831"><ele>444.0</ele><time>2026-04-08T15:05:52.969Z</time></trkpt><trkpt lat="42.3936375" lon="13.0348777"><ele>445.0</ele><time>2026-04-08T15:05:53.969Z</time></trkpt><trkpt lat="42.3936095" lon="13.0346734"><ele>446.0</ele><time>2026-04-08T15:05:54.969Z</time></trkpt><trkpt lat="42.3935671" lon="13.0344713"><ele>447.0</ele><time>2026-04-08T15:05:55.969Z</time></trkpt><trkpt lat="42.3935075" lon="13.0342764"><ele>446.66666666666663</ele><time>2026-04-08T15:05:56.969Z</time></trkpt><trkpt lat="42.3934414" lon="13.03409"><ele>446.3333333333333</ele><time>2026-04-08T15:05:57.969Z</time></trkpt><trkpt lat="42.3933861" lon="13.0338958"><ele>446.0</ele><time>2026-04-08T15:05:58.969Z</time></trkpt><trkpt lat="42.3933502" lon="13.0336795"><ele>446.0</ele><time>2026-04-08T15:05:59.969Z</time></trkpt><trkpt lat="42.3933407" lon="13.0334723"><ele>446.0</ele><time>2026-04-08T15:06:00.969Z</time></trkpt><trkpt lat="42.3933566" lon="13.033264"><ele>446.0</ele><time>2026-04-08T15:06:01.969Z</time></trkpt><trkpt lat="42.3933872" lon="13.0330437"><ele>444.66666666666663</ele><time>2026-04-08T15:06:02.969Z</time></trkpt><trkpt lat="42.3934247" lon="13.0328273"><ele>443.33333333333337</ele><time>2026-04-08T15:06:03.969Z</time></trkpt><trkpt lat="42.3934644" lon="13.0326289"><ele>442.0</ele><time>2026-04-08T15:06:04.969Z</time></trkpt><trkpt lat="42.3934958" lon="13.0324282"><ele>441.75</ele><time>2026-04-08T15:06:05.969Z</time></trkpt><trkpt lat="42.393531" lon="13.0322387"><ele>441.5</ele><time>2026-04-08T15:06:06.969Z</time></trkpt><trkpt lat="42.3935729" lon="13.0320578"><ele>441.25</ele><time>2026-04-08T15:06:07.969Z</time></trkpt><trkpt lat="42.3936077" lon="13.0318824"><ele>441.0</ele><time>2026-04-08T15:06:08.969Z</time></trkpt><trkpt lat="42.3936518" lon="13.0317252"><ele>440.75</ele><time>2026-04-08T15:06:09.97Z</time></trkpt><trkpt lat="42.3937119" lon="13.0315894"><ele>440.5</ele><time>2026-04-08T15:06:10.969Z</time></trkpt><trkpt lat="42.3937975" lon="13.0314847"><ele>440.25</ele><time>2026-04-08T15:06:11.969Z</time></trkpt><trkpt lat="42.3939017" lon="13.0314008"><ele>440.0</ele><time>2026-04-08T15:06:12.969Z</time></trkpt><trkpt lat="42.3940161" lon="13.031313"><ele>440.5</ele><time>2026-04-08T15:06:13.969Z</time></trkpt><trkpt lat="42.39414" lon="13.0312332"><ele>441.0</ele><time>2026-04-08T15:06:14.969Z</time></trkpt><trkpt lat="42.3942603" lon="13.0311433"><ele>441.5</ele><time>2026-04-08T15:06:15.969Z</time></trkpt><trkpt lat="42.3943823" lon="13.0310622"><ele>442.0</ele><time>2026-04-08T15:06:16.969Z</time></trkpt><trkpt lat="42.3945054" lon="13.0309814"><ele>442.0</ele><time>2026-04-08T15:06:17.97Z</time></trkpt><trkpt lat="42.3946235" lon="13.0308942"><ele>442.0</ele><time>2026-04-08T15:06:18.969Z</time></trkpt><trkpt lat="42.3947337" lon="13.0307882"><ele>442.0</ele><time>2026-04-08T15:06:19.969Z</time></trkpt><trkpt lat="42.394816" lon="13.0306612"><ele>442.0</ele><time>2026-04-08T15:06:20.969Z</time></trkpt><trkpt lat="42.3948765" lon="13.0305235"><ele>442.5</ele><time>2026-04-08T15:06:21.969Z</time></trkpt><trkpt lat="42.3949138" lon="13.0303809"><ele>443.0</ele><time>2026-04-08T15:06:22.969Z</time></trkpt><trkpt lat="42.3949089" lon="13.0302374"><ele>443.5</ele><time>2026-04-08T15:06:23.969Z</time></trkpt><trkpt lat="42.3948696" lon="13.0300894"><ele>444.0</ele><time>2026-04-08T15:06:24.97Z</time></trkpt><trkpt lat="42.3948013" lon="13.0299473"><ele>444.0</ele><time>2026-04-08T15:06:25.97Z</time></trkpt><trkpt lat="42.3947112" lon="13.0298144"><ele>444.0</ele><time>2026-04-08T15:06:26.97Z</time></trkpt><trkpt lat="42.394618" lon="13.0296681"><ele>444.0</ele><time>2026-04-08T15:06:27.97Z</time></trkpt><trkpt lat="42.3945252" lon="13.029522"><ele>444.0</ele><time>2026-04-08T15:06:28.97Z</time></trkpt><trkpt lat="42.3944261" lon="13.0293782"><ele>443.66666666666663</ele><time>2026-04-08T15:06:29.97Z</time></trkpt><trkpt lat="42.394329" lon="13.0292302"><ele>443.3333333333333</ele><time>2026-04-08T15:06:30.969Z</time></trkpt><trkpt lat="42.3942266" lon="13.0290853"><ele>443.0</ele><time>2026-04-08T15:06:31.97Z</time></trkpt><trkpt lat="42.3941262" lon="13.0289225"><ele>443.0</ele><time>2026-04-08T15:06:32.97Z</time></trkpt><trkpt lat="42.3940189" lon="13.0287569"><ele>443.0</ele><time>2026-04-08T15:06:33.969Z</time></trkpt><trkpt lat="42.3939128" lon="13.0285924"><ele>443.0</ele><time>2026-04-08T15:06:34.969Z</time></trkpt><trkpt lat="42.3938035" lon="13.0284341"><ele>443.0</ele><time>2026-04-08T15:06:35.969Z</time></trkpt><trkpt lat="42.3937064" lon="13.0282868"><ele>443.0</ele><time>2026-04-08T15:06:36.969Z</time></trkpt><trkpt lat="42.3936133" lon="13.0281445"><ele>443.0</ele><time>2026-04-08T15:06:37.97Z</time></trkpt><trkpt lat="42.3935225" lon="13.0280119"><ele>443.0</ele><time>2026-04-08T15:06:38.969Z</time></trkpt><trkpt lat="42.3934187" lon="13.027905"><ele>443.0</ele><time>2026-04-08T15:06:39.97Z</time></trkpt><trkpt lat="42.3933019" lon="13.0278287"><ele>443.0</ele><time>2026-04-08T15:06:40.969Z</time></trkpt><trkpt lat="42.3931677" lon="13.0277863"><ele>443.0</ele><time>2026-04-08T15:06:41.969Z</time></trkpt><trkpt lat="42.3930224" lon="13.0277682"><ele>443.0</ele><time>2026-04-08T15:06:42.969Z</time></trkpt><trkpt lat="42.3928624" lon="13.0277623"><ele>441.66666666666663</ele><time>2026-04-08T15:06:43.969Z</time></trkpt><trkpt lat="42.3926983" lon="13.0277631"><ele>440.33333333333337</ele><time>2026-04-08T15:06:44.969Z</time></trkpt><trkpt lat="42.3925211" lon="13.0277671"><ele>439.0</ele><time>2026-04-08T15:06:45.97Z</time></trkpt><trkpt lat="42.3923361" lon="13.0277688"><ele>437.0</ele><time>2026-04-08T15:06:46.969Z</time></trkpt><trkpt lat="42.3921511" lon="13.0277725"><ele>435.0</ele><time>2026-04-08T15:06:47.969Z</time></trkpt><trkpt lat="42.3919599" lon="13.0277734"><ele>433.0</ele><time>2026-04-08T15:06:48.969Z</time></trkpt><trkpt lat="42.3917627" lon="13.0277726"><ele>433.0</ele><time>2026-04-08T15:06:49.969Z</time></trkpt><trkpt lat="42.3915631" lon="13.0277804"><ele>433.0</ele><time>2026-04-08T15:06:50.969Z</time></trkpt><trkpt lat="42.3913596" lon="13.0277813"><ele>433.0</ele><time>2026-04-08T15:06:51.969Z</time></trkpt><trkpt lat="42.3911576" lon="13.0277809"><ele>432.33333333333337</ele><time>2026-04-08T15:06:52.969Z</time></trkpt><trkpt lat="42.3909582" lon="13.0277823"><ele>431.66666666666663</ele><time>2026-04-08T15:06:53.969Z</time></trkpt><trkpt lat="42.3907575" lon="13.0277837"><ele>431.0</ele><time>2026-04-08T15:06:54.97Z</time></trkpt><trkpt lat="42.3905577" lon="13.0277838"><ele>431.3333333333333</ele><time>2026-04-08T15:06:55.969Z</time></trkpt><trkpt lat="42.3903588" lon="13.0277863"><ele>431.66666666666663</ele><time>2026-04-08T15:06:56.969Z</time></trkpt><trkpt lat="42.3901584" lon="13.0277933"><ele>432.0</ele><time>2026-04-08T15:06:57.969Z</time></trkpt><trkpt lat="42.3899618" lon="13.0277991"><ele>432.0</ele><time>2026-04-08T15:06:58.969Z</time></trkpt><trkpt lat="42.3897617" lon="13.0278013"><ele>432.0</ele><time>2026-04-08T15:06:59.97Z</time></trkpt><trkpt lat="42.3895591" lon="13.0278055"><ele>432.0</ele><time>2026-04-08T15:07:00.97Z</time></trkpt><trkpt lat="42.3893591" lon="13.0278237"><ele>432.66666666666663</ele><time>2026-04-08T15:07:01.969Z</time></trkpt><trkpt lat="42.3891731" lon="13.0278569"><ele>433.3333333333333</ele><time>2026-04-08T15:07:02.969Z</time></trkpt><trkpt lat="42.3889936" lon="13.0278829"><ele>434.0</ele><time>2026-04-08T15:07:03.969Z</time></trkpt><trkpt lat="42.3888354" lon="13.0278728"><ele>434.0</ele><time>2026-04-08T15:07:04.97Z</time></trkpt><trkpt lat="42.3886924" lon="13.027827"><ele>434.0</ele><time>2026-04-08T15:07:05.969Z</time></trkpt><trkpt lat="42.3885772" lon="13.0277396"><ele>434.0</ele><time>2026-04-08T15:07:06.969Z</time></trkpt><trkpt lat="42.3884863" lon="13.0276008"><ele>434.0</ele><time>2026-04-08T15:07:07.969Z</time></trkpt><trkpt lat="42.3883953" lon="13.0274333"><ele>435.66666666666663</ele><time>2026-04-08T15:07:08.97Z</time></trkpt><trkpt lat="42.3883084" lon="13.0272512"><ele>437.33333333333337</ele><time>2026-04-08T15:07:09.969Z</time></trkpt><trkpt lat="42.3882149" lon="13.027063"><ele>439.0</ele><time>2026-04-08T15:07:10.97Z</time></trkpt><trkpt lat="42.388108" lon="13.0268838"><ele>436.6666666666667</ele><time>2026-04-08T15:07:11.969Z</time></trkpt><trkpt lat="42.3879869" lon="13.0267059"><ele>434.33333333333337</ele><time>2026-04-08T15:07:12.969Z</time></trkpt><trkpt lat="42.3878574" lon="13.0265478"><ele>432.0</ele><time>2026-04-08T15:07:13.969Z</time></trkpt><trkpt lat="42.3877295" lon="13.0263974"><ele>437.33333333333337</ele><time>2026-04-08T15:07:14.969Z</time></trkpt><trkpt lat="42.3875879" lon="13.0262671"><ele>442.6666666666667</ele><time>2026-04-08T15:07:15.969Z</time></trkpt><trkpt lat="42.3874394" lon="13.0261465"><ele>448.0</ele><time>2026-04-08T15:07:16.969Z</time></trkpt><trkpt lat="42.3872837" lon="13.026052"><ele>445.0</ele><time>2026-04-08T15:07:17.97Z</time></trkpt><trkpt lat="42.387123" lon="13.0259848"><ele>442.0</ele><time>2026-04-08T15:07:18.969Z</time></trkpt><trkpt lat="42.3869602" lon="13.0259493"><ele>439.0</ele><time>2026-04-08T15:07:19.969Z</time></trkpt><trkpt lat="42.3868009" lon="13.0259239"><ele>439.0</ele><time>2026-04-08T15:07:20.969Z</time></trkpt><trkpt lat="42.3866519" lon="13.0259058"><ele>439.0</ele><time>2026-04-08T15:07:21.969Z</time></trkpt><trkpt lat="42.3864976" lon="13.0258874"><ele>439.0</ele><time>2026-04-08T15:07:22.969Z</time></trkpt><trkpt lat="42.3863382" lon="13.0258676"><ele>436.6666666666667</ele><time>2026-04-08T15:07:23.97Z</time></trkpt><trkpt lat="42.3861742" lon="13.0258447"><ele>434.33333333333337</ele><time>2026-04-08T15:07:24.969Z</time></trkpt><trkpt lat="42.3860173" lon="13.025792"><ele>432.0</ele><time>2026-04-08T15:07:25.969Z</time></trkpt><trkpt lat="42.3858655" lon="13.0257071"><ele>432.0</ele><time>2026-04-08T15:07:26.969Z</time></trkpt><trkpt lat="42.3857174" lon="13.0255943"><ele>432.0</ele><time>2026-04-08T15:07:27.97Z</time></trkpt><trkpt lat="42.3855715" lon="13.0254527"><ele>432.0</ele><time>2026-04-08T15:07:28.969Z</time></trkpt><trkpt lat="42.38542" lon="13.0252997"><ele>432.0</ele><time>2026-04-08T15:07:29.97Z</time></trkpt><trkpt lat="42.3852589" lon="13.0251395"><ele>432.0</ele><time>2026-04-08T15:07:30.969Z</time></trkpt><trkpt lat="42.3850946" lon="13.0249729"><ele>432.0</ele><time>2026-04-08T15:07:31.97Z</time></trkpt><trkpt lat="42.3849278" lon="13.0248101"><ele>431.0</ele><time>2026-04-08T15:07:32.969Z</time></trkpt><trkpt lat="42.3847587" lon="13.0246364"><ele>430.0</ele><time>2026-04-08T15:07:33.969Z</time></trkpt><trkpt lat="42.3845944" lon="13.0244561"><ele>429.0</ele><time>2026-04-08T15:07:34.969Z</time></trkpt><trkpt lat="42.3844341" lon="13.0242729"><ele>431.0</ele><time>2026-04-08T15:07:35.97Z</time></trkpt><trkpt lat="42.3842804" lon="13.024097"><ele>433.0</ele><time>2026-04-08T15:07:36.97Z</time></trkpt><trkpt lat="42.3841289" lon="13.0239286"><ele>435.0</ele><time>2026-04-08T15:07:37.97Z</time></trkpt><trkpt lat="42.3839867" lon="13.0237613"><ele>434.0</ele><time>2026-04-08T15:07:38.969Z</time></trkpt><trkpt lat="42.3838411" lon="13.0235908"><ele>433.0</ele><time>2026-04-08T15:07:39.969Z</time></trkpt><trkpt lat="42.3836969" lon="13.0234239"><ele>432.0</ele><time>2026-04-08T15:07:40.97Z</time></trkpt><trkpt lat="42.3835494" lon="13.0232596"><ele>432.0</ele><time>2026-04-08T15:07:41.969Z</time></trkpt><trkpt lat="42.3834009" lon="13.0230882"><ele>432.0</ele><time>2026-04-08T15:07:42.969Z</time></trkpt><trkpt lat="42.3832599" lon="13.0229122"><ele>432.0</ele><time>2026-04-08T15:07:43.97Z</time></trkpt><trkpt lat="42.38312" lon="13.0227439"><ele>432.0</ele><time>2026-04-08T15:07:44.969Z</time></trkpt><trkpt lat="42.3829941" lon="13.0225693"><ele>432.0</ele><time>2026-04-08T15:07:45.969Z</time></trkpt><trkpt lat="42.3828803" lon="13.0223791"><ele>432.0</ele><time>2026-04-08T15:07:46.969Z</time></trkpt><trkpt lat="42.3827834" lon="13.0221711"><ele>432.0</ele><time>2026-04-08T15:07:47.969Z</time></trkpt><trkpt lat="42.382692" lon="13.0219498"><ele>432.0</ele><time>2026-04-08T15:07:48.969Z</time></trkpt><trkpt lat="42.3826068" lon="13.021727"><ele>432.0</ele><time>2026-04-08T15:07:49.969Z</time></trkpt><trkpt lat="42.3825115" lon="13.0215022"><ele>435.66666666666663</ele><time>2026-04-08T15:07:50.969Z</time></trkpt><trkpt lat="42.3824208" lon="13.0212736"><ele>439.3333333333333</ele><time>2026-04-08T15:07:51.97Z</time></trkpt><trkpt lat="42.3823271" lon="13.0210399"><ele>443.0</ele><time>2026-04-08T15:07:52.969Z</time></trkpt><trkpt lat="42.3822306" lon="13.0208073"><ele>437.3333333333333</ele><time>2026-04-08T15:07:53.969Z</time></trkpt><trkpt lat="42.3821341" lon="13.0205771"><ele>431.66666666666663</ele><time>2026-04-08T15:07:54.97Z</time></trkpt><trkpt lat="42.3820456" lon="13.0203334"><ele>426.0</ele><time>2026-04-08T15:07:55.97Z</time></trkpt><trkpt lat="42.3819455" lon="13.0200984"><ele>426.66666666666663</ele><time>2026-04-08T15:07:56.969Z</time></trkpt><trkpt lat="42.381841" lon="13.0198773"><ele>427.3333333333333</ele><time>2026-04-08T15:07:57.969Z</time></trkpt><trkpt lat="42.3817312" lon="13.0196668"><ele>428.0</ele><time>2026-04-08T15:07:58.969Z</time></trkpt><trkpt lat="42.3816127" lon="13.0194595"><ele>428.0</ele><time>2026-04-08T15:07:59.97Z</time></trkpt><trkpt lat="42.3814881" lon="13.0192643"><ele>428.0</ele><time>2026-04-08T15:08:00.969Z</time></trkpt><trkpt lat="42.3813642" lon="13.0190686"><ele>428.0</ele><time>2026-04-08T15:08:01.97Z</time></trkpt><trkpt lat="42.3812389" lon="13.0188757"><ele>426.66666666666663</ele><time>2026-04-08T15:08:02.969Z</time></trkpt><trkpt lat="42.3811175" lon="13.0186889"><ele>425.33333333333337</ele><time>2026-04-08T15:08:03.969Z</time></trkpt><trkpt lat="42.3809998" lon="13.0185123"><ele>424.0</ele><time>2026-04-08T15:08:04.969Z</time></trkpt><trkpt lat="42.3808894" lon="13.0183413"><ele>424.6666666666667</ele><time>2026-04-08T15:08:05.969Z</time></trkpt><trkpt lat="42.3807778" lon="13.0181781"><ele>425.33333333333337</ele><time>2026-04-08T15:08:06.97Z</time></trkpt><trkpt lat="42.3806761" lon="13.0180183"><ele>426.0</ele><time>2026-04-08T15:08:07.969Z</time></trkpt><trkpt lat="42.3805798" lon="13.0178667"><ele>425.25</ele><time>2026-04-08T15:08:08.97Z</time></trkpt><trkpt lat="42.3804838" lon="13.017722"><ele>424.5</ele><time>2026-04-08T15:08:09.969Z</time></trkpt><trkpt lat="42.3803898" lon="13.0175856"><ele>423.75</ele><time>2026-04-08T15:08:10.969Z</time></trkpt><trkpt lat="42.3802997" lon="13.0174509"><ele>423.0</ele><time>2026-04-08T15:08:11.969Z</time></trkpt><trkpt lat="42.3802091" lon="13.0173109"><ele>422.75</ele><time>2026-04-08T15:08:12.969Z</time></trkpt><trkpt lat="42.3801217" lon="13.0171626"><ele>422.5</ele><time>2026-04-08T15:08:13.969Z</time></trkpt><trkpt lat="42.3800382" lon="13.0170054"><ele>422.25</ele><time>2026-04-08T15:08:14.969Z</time></trkpt><trkpt lat="42.3799524" lon="13.0168412"><ele>422.0</ele><time>2026-04-08T15:08:15.97Z</time></trkpt><trkpt lat="42.3798686" lon="13.0166757"><ele>422.3333333333333</ele><time>2026-04-08T15:08:16.97Z</time></trkpt><trkpt lat="42.3797755" lon="13.0165126"><ele>422.66666666666663</ele><time>2026-04-08T15:08:17.969Z</time></trkpt><trkpt lat="42.3796847" lon="13.0163451"><ele>423.0</ele><time>2026-04-08T15:08:18.969Z</time></trkpt><trkpt lat="42.3795948" lon="13.0161698"><ele>422.0</ele><time>2026-04-08T15:08:19.969Z</time></trkpt><trkpt lat="42.379501" lon="13.0159953"><ele>421.0</ele><time>2026-04-08T15:08:20.97Z</time></trkpt><trkpt lat="42.3794127" lon="13.0158233"><ele>420.0</ele><time>2026-04-08T15:08:21.969Z</time></trkpt><trkpt lat="42.37932" lon="13.0156428"><ele>420.0</ele><time>2026-04-08T15:08:22.969Z</time></trkpt><trkpt lat="42.3792218" lon="13.0154655"><ele>420.0</ele><time>2026-04-08T15:08:23.969Z</time></trkpt><trkpt lat="42.3791276" lon="13.0152774"><ele>420.0</ele><time>2026-04-08T15:08:24.97Z</time></trkpt><trkpt lat="42.3790403" lon="13.0150835"><ele>419.33333333333337</ele><time>2026-04-08T15:08:25.969Z</time></trkpt><trkpt lat="42.3789702" lon="13.0148816"><ele>418.6666666666667</ele><time>2026-04-08T15:08:26.969Z</time></trkpt><trkpt lat="42.3789115" lon="13.014665"><ele>418.0</ele><time>2026-04-08T15:08:27.969Z</time></trkpt><trkpt lat="42.3788806" lon="13.0144411"><ele>418.0</ele><time>2026-04-08T15:08:28.969Z</time></trkpt><trkpt lat="42.3788659" lon="13.0142032"><ele>418.0</ele><time>2026-04-08T15:08:29.969Z</time></trkpt><trkpt lat="42.3788625" lon="13.0139565"><ele>418.0</ele><time>2026-04-08T15:08:30.97Z</time></trkpt><trkpt lat="42.3788634" lon="13.0137021"><ele>418.0</ele><time>2026-04-08T15:08:31.969Z</time></trkpt><trkpt lat="42.3788626" lon="13.0134443"><ele>418.0</ele><time>2026-04-08T15:08:32.969Z</time></trkpt><trkpt lat="42.3788674" lon="13.0131843"><ele>418.0</ele><time>2026-04-08T15:08:33.969Z</time></trkpt><trkpt lat="42.3788694" lon="13.0129202"><ele>418.33333333333337</ele><time>2026-04-08T15:08:34.969Z</time></trkpt><trkpt lat="42.3788685" lon="13.0126569"><ele>418.66666666666663</ele><time>2026-04-08T15:08:35.969Z</time></trkpt><trkpt lat="42.378867" lon="13.0123867"><ele>419.0</ele><time>2026-04-08T15:08:36.969Z</time></trkpt><trkpt lat="42.3788722" lon="13.0121135"><ele>419.0</ele><time>2026-04-08T15:08:37.969Z</time></trkpt><trkpt lat="42.3788748" lon="13.0118363"><ele>419.0</ele><time>2026-04-08T15:08:38.969Z</time></trkpt><trkpt lat="42.3788764" lon="13.0115596"><ele>419.0</ele><time>2026-04-08T15:08:39.969Z</time></trkpt><trkpt lat="42.3788768" lon="13.0112868"><ele>419.0</ele><time>2026-04-08T15:08:40.969Z</time></trkpt><trkpt lat="42.3788762" lon="13.0110163"><ele>419.0</ele><time>2026-04-08T15:08:41.969Z</time></trkpt><trkpt lat="42.3788782" lon="13.0107537"><ele>419.0</ele><time>2026-04-08T15:08:42.97Z</time></trkpt><trkpt lat="42.37888" lon="13.0104953"><ele>418.66666666666663</ele><time>2026-04-08T15:08:43.97Z</time></trkpt><trkpt lat="42.3788804" lon="13.0102398"><ele>418.33333333333337</ele><time>2026-04-08T15:08:44.969Z</time></trkpt><trkpt lat="42.3788845" lon="13.0099895"><ele>418.0</ele><time>2026-04-08T15:08:45.969Z</time></trkpt><trkpt lat="42.378887" lon="13.0097338"><ele>417.6666666666667</ele><time>2026-04-08T15:08:46.97Z</time></trkpt><trkpt lat="42.3788921" lon="13.0094765"><ele>417.33333333333337</ele><time>2026-04-08T15:08:47.969Z</time></trkpt><trkpt lat="42.3788911" lon="13.0092139"><ele>417.0</ele><time>2026-04-08T15:08:48.969Z</time></trkpt><trkpt lat="42.3788899" lon="13.0089481"><ele>417.0</ele><time>2026-04-08T15:08:49.969Z</time></trkpt><trkpt lat="42.3788914" lon="13.0086786"><ele>417.0</ele><time>2026-04-08T15:08:50.969Z</time></trkpt><trkpt lat="42.3788946" lon="13.0084117"><ele>417.0</ele><time>2026-04-08T15:08:51.97Z</time></trkpt><trkpt lat="42.3789005" lon="13.0081562"><ele>417.66666666666663</ele><time>2026-04-08T15:08:52.969Z</time></trkpt><trkpt lat="42.3789064" lon="13.0079106"><ele>418.3333333333333</ele><time>2026-04-08T15:08:53.969Z</time></trkpt><trkpt lat="42.3789076" lon="13.0076666"><ele>419.0</ele><time>2026-04-08T15:08:54.969Z</time></trkpt><trkpt lat="42.3789111" lon="13.0074299"><ele>419.0</ele><time>2026-04-08T15:08:55.969Z</time></trkpt><trkpt lat="42.3789115" lon="13.007192"><ele>419.0</ele><time>2026-04-08T15:08:56.969Z</time></trkpt><trkpt lat="42.3789038" lon="13.0069595"><ele>419.0</ele><time>2026-04-08T15:08:57.97Z</time></trkpt><trkpt lat="42.3788824" lon="13.0067446"><ele>418.3333333333333</ele><time>2026-04-08T15:08:58.97Z</time></trkpt><trkpt lat="42.3788231" lon="13.0065464"><ele>417.66666666666663</ele><time>2026-04-08T15:08:59.969Z</time></trkpt><trkpt lat="42.3787425" lon="13.0063447"><ele>417.0</ele><time>2026-04-08T15:09:00.969Z</time></trkpt><trkpt lat="42.3786534" lon="13.0061469"><ele>417.0</ele><time>2026-04-08T15:09:01.969Z</time></trkpt><trkpt lat="42.3785566" lon="13.0059352"><ele>417.0</ele><time>2026-04-08T15:09:02.969Z</time></trkpt><trkpt lat="42.3784583" lon="13.0057209"><ele>417.0</ele><time>2026-04-08T15:09:03.969Z</time></trkpt><trkpt lat="42.3783622" lon="13.005503"><ele>417.66666666666663</ele><time>2026-04-08T15:09:04.97Z</time></trkpt><trkpt lat="42.3782591" lon="13.0052812"><ele>418.3333333333333</ele><time>2026-04-08T15:09:05.969Z</time></trkpt><trkpt lat="42.3781657" lon="13.0050649"><ele>419.0</ele><time>2026-04-08T15:09:06.969Z</time></trkpt><trkpt lat="42.3780698" lon="13.0048479"><ele>417.66666666666663</ele><time>2026-04-08T15:09:07.969Z</time></trkpt><trkpt lat="42.3779736" lon="13.004634"><ele>416.33333333333337</ele><time>2026-04-08T15:09:08.969Z</time></trkpt><trkpt lat="42.3778809" lon="13.0044194"><ele>415.0</ele><time>2026-04-08T15:09:09.969Z</time></trkpt><trkpt lat="42.3777892" lon="13.0042117"><ele>416.33333333333337</ele><time>2026-04-08T15:09:10.969Z</time></trkpt><trkpt lat="42.3776983" lon="13.0040058"><ele>417.66666666666663</ele><time>2026-04-08T15:09:11.969Z</time></trkpt><trkpt lat="42.3776104" lon="13.0038067"><ele>419.0</ele><time>2026-04-08T15:09:12.97Z</time></trkpt><trkpt lat="42.3775251" lon="13.0036166"><ele>419.0</ele><time>2026-04-08T15:09:13.969Z</time></trkpt><trkpt lat="42.3774394" lon="13.0034369"><ele>419.0</ele><time>2026-04-08T15:09:14.969Z</time></trkpt><trkpt lat="42.3773595" lon="13.0032572"><ele>419.0</ele><time>2026-04-08T15:09:15.969Z</time></trkpt><trkpt lat="42.3772774" lon="13.003078"><ele>416.66666666666663</ele><time>2026-04-08T15:09:16.969Z</time></trkpt><trkpt lat="42.3771956" lon="13.0028919"><ele>414.33333333333337</ele><time>2026-04-08T15:09:17.969Z</time></trkpt><trkpt lat="42.3771068" lon="13.0026987"><ele>412.0</ele><time>2026-04-08T15:09:18.969Z</time></trkpt><trkpt lat="42.377023" lon="13.0025059"><ele>412.33333333333337</ele><time>2026-04-08T15:09:19.969Z</time></trkpt><trkpt lat="42.3769404" lon="13.0023146"><ele>412.66666666666663</ele><time>2026-04-08T15:09:20.969Z</time></trkpt><trkpt lat="42.3768715" lon="13.002131"><ele>413.0</ele><time>2026-04-08T15:09:21.97Z</time></trkpt><trkpt lat="42.3768217" lon="13.001947"><ele>413.0</ele><time>2026-04-08T15:09:22.97Z</time></trkpt><trkpt lat="42.3767952" lon="13.0017599"><ele>413.0</ele><time>2026-04-08T15:09:23.969Z</time></trkpt><trkpt lat="42.3767807" lon="13.0015811"><ele>413.0</ele><time>2026-04-08T15:09:24.969Z</time></trkpt><trkpt lat="42.376773" lon="13.0014157"><ele>413.0</ele><time>2026-04-08T15:09:25.969Z</time></trkpt><trkpt lat="42.376768" lon="13.0012569"><ele>413.75</ele><time>2026-04-08T15:09:26.969Z</time></trkpt><trkpt lat="42.3767663" lon="13.0011014"><ele>414.5</ele><time>2026-04-08T15:09:27.969Z</time></trkpt><trkpt lat="42.3767663" lon="13.0009389"><ele>415.25</ele><time>2026-04-08T15:09:28.969Z</time></trkpt><trkpt lat="42.3767715" lon="13.0007743"><ele>416.0</ele><time>2026-04-08T15:09:29.969Z</time></trkpt><trkpt lat="42.3767742" lon="13.0006061"><ele>415.99999999999994</ele><time>2026-04-08T15:09:30.969Z</time></trkpt><trkpt lat="42.3767785" lon="13.0004609"><ele>416.0</ele><time>2026-04-08T15:09:31.97Z</time></trkpt><trkpt lat="42.376783" lon="13.0003335"><ele>416.0</ele><time>2026-04-08T15:09:32.969Z</time></trkpt><trkpt lat="42.3767852" lon="13.0002159"><ele>416.0</ele><time>2026-04-08T15:09:33.969Z</time></trkpt><trkpt lat="42.3767823" lon="13.0001057"><ele>415.99999999999994</ele><time>2026-04-08T15:09:34.97Z</time></trkpt><trkpt lat="42.3767824" lon="13.0000031"><ele>416.0</ele><time>2026-04-08T15:09:35.969Z</time></trkpt><trkpt lat="42.3767805" lon="12.9999017"><ele>415.99999999999994</ele><time>2026-04-08T15:09:36.969Z</time></trkpt><trkpt lat="42.3767781" lon="12.9998004"><ele>416.0</ele><time>2026-04-08T15:09:37.969Z</time></trkpt><trkpt lat="42.3767724" lon="12.9996888"><ele>416.0</ele><time>2026-04-08T15:09:38.969Z</time></trkpt><trkpt lat="42.3767606" lon="12.9995683"><ele>416.0</ele><time>2026-04-08T15:09:39.97Z</time></trkpt><trkpt lat="42.3767494" lon="12.9994526"><ele>415.99999999999994</ele><time>2026-04-08T15:09:40.969Z</time></trkpt><trkpt lat="42.3767434" lon="12.9993385"><ele>416.0</ele><time>2026-04-08T15:09:41.969Z</time></trkpt><trkpt lat="42.3767482" lon="12.9992314"><ele>415.8333333333333</ele><time>2026-04-08T15:09:42.969Z</time></trkpt><trkpt lat="42.3767623" lon="12.99914"><ele>415.66666666666663</ele><time>2026-04-08T15:09:43.969Z</time></trkpt><trkpt lat="42.3767574" lon="12.9990166"><ele>415.5</ele><time>2026-04-08T15:09:45.969Z</time></trkpt><trkpt lat="42.3767149" lon="12.9989436"><ele>415.33333333333337</ele><time>2026-04-08T15:09:55.969Z</time></trkpt><trkpt lat="42.3766681" lon="12.9988653"><ele>415.1666666666667</ele><time>2026-04-08T15:09:57.969Z</time></trkpt><trkpt lat="42.3766544" lon="12.9987765"><ele>415.0</ele><time>2026-04-08T15:09:58.969Z</time></trkpt><trkpt lat="42.3766404" lon="12.9986182"><ele>415.0</ele><time>2026-04-08T15:10:00.969Z</time></trkpt><trkpt lat="42.37662" lon="12.9985056"><ele>415.0</ele><time>2026-04-08T15:10:01.97Z</time></trkpt><trkpt lat="42.3766041" lon="12.99837"><ele>415.0</ele><time>2026-04-08T15:10:02.969Z</time></trkpt><trkpt lat="42.3765928" lon="12.998232"><ele>415.0</ele><time>2026-04-08T15:10:03.969Z</time></trkpt><trkpt lat="42.3765824" lon="12.9980866"><ele>415.0</ele><time>2026-04-08T15:10:04.97Z</time></trkpt><trkpt lat="42.3765689" lon="12.9979417"><ele>414.5</ele><time>2026-04-08T15:10:05.969Z</time></trkpt><trkpt lat="42.3765564" lon="12.9977817"><ele>414.0</ele><time>2026-04-08T15:10:06.969Z</time></trkpt><trkpt lat="42.3765432" lon="12.9976198"><ele>413.5</ele><time>2026-04-08T15:10:07.969Z</time></trkpt><trkpt lat="42.3765443" lon="12.997457"><ele>413.0</ele><time>2026-04-08T15:10:08.969Z</time></trkpt><trkpt lat="42.3765588" lon="12.9972878"><ele>414.5</ele><time>2026-04-08T15:10:09.969Z</time></trkpt><trkpt lat="42.376584" lon="12.9971125"><ele>416.0</ele><time>2026-04-08T15:10:10.97Z</time></trkpt><trkpt lat="42.3766262" lon="12.9969294"><ele>417.5</ele><time>2026-04-08T15:10:11.969Z</time></trkpt><trkpt lat="42.3766822" lon="12.996751"><ele>419.0</ele><time>2026-04-08T15:10:12.97Z</time></trkpt><trkpt lat="42.3767494" lon="12.9965819"><ele>419.25</ele><time>2026-04-08T15:10:13.969Z</time></trkpt><trkpt lat="42.3768222" lon="12.9964238"><ele>419.5</ele><time>2026-04-08T15:10:14.969Z</time></trkpt><trkpt lat="42.3768876" lon="12.9962799"><ele>419.75</ele><time>2026-04-08T15:10:15.97Z</time></trkpt><trkpt lat="42.3769494" lon="12.9961524"><ele>420.0</ele><time>2026-04-08T15:10:16.969Z</time></trkpt><trkpt lat="42.3770016" lon="12.9960207"><ele>420.0</ele><time>2026-04-08T15:10:17.97Z</time></trkpt><trkpt lat="42.3770273" lon="12.9958814"><ele>420.0</ele><time>2026-04-08T15:10:18.97Z</time></trkpt><trkpt lat="42.3770294" lon="12.9957309"><ele>420.0</ele><time>2026-04-08T15:10:19.969Z</time></trkpt><trkpt lat="42.3769954" lon="12.9955927"><ele>420.0</ele><time>2026-04-08T15:10:20.969Z</time></trkpt><trkpt lat="42.3769273" lon="12.9954465"><ele>419.0</ele><time>2026-04-08T15:10:21.969Z</time></trkpt><trkpt lat="42.3768274" lon="12.9952829"><ele>418.0</ele><time>2026-04-08T15:10:22.969Z</time></trkpt><trkpt lat="42.376707" lon="12.9951071"><ele>417.0</ele><time>2026-04-08T15:10:23.969Z</time></trkpt><trkpt lat="42.3766043" lon="12.9949086"><ele>417.0</ele><time>2026-04-08T15:10:24.969Z</time></trkpt><trkpt lat="42.3764975" lon="12.9947167"><ele>417.0</ele><time>2026-04-08T15:10:25.97Z</time></trkpt><trkpt lat="42.3764029" lon="12.9945365"><ele>417.0</ele><time>2026-04-08T15:10:26.97Z</time></trkpt><trkpt lat="42.376313" lon="12.9943398"><ele>415.33333333333337</ele><time>2026-04-08T15:10:27.969Z</time></trkpt><trkpt lat="42.3762309" lon="12.9941137"><ele>413.6666666666667</ele><time>2026-04-08T15:10:28.969Z</time></trkpt><trkpt lat="42.376157" lon="12.9938768"><ele>412.0</ele><time>2026-04-08T15:10:29.969Z</time></trkpt><trkpt lat="42.3760868" lon="12.9936478"><ele>412.0</ele><time>2026-04-08T15:10:30.969Z</time></trkpt><trkpt lat="42.3760191" lon="12.9934111"><ele>412.0</ele><time>2026-04-08T15:10:31.97Z</time></trkpt><trkpt lat="42.3759467" lon="12.9931682"><ele>412.0</ele><time>2026-04-08T15:10:32.969Z</time></trkpt><trkpt lat="42.3758704" lon="12.9929156"><ele>412.6666666666667</ele><time>2026-04-08T15:10:33.969Z</time></trkpt><trkpt lat="42.3757926" lon="12.9926792"><ele>413.33333333333337</ele><time>2026-04-08T15:10:34.969Z</time></trkpt><trkpt lat="42.3757295" lon="12.9924475"><ele>414.0</ele><time>2026-04-08T15:10:35.969Z</time></trkpt><trkpt lat="42.3756896" lon="12.9922226"><ele>414.33333333333337</ele><time>2026-04-08T15:10:36.969Z</time></trkpt><trkpt lat="42.3756662" lon="12.9919997"><ele>414.6666666666667</ele><time>2026-04-08T15:10:37.969Z</time></trkpt><trkpt lat="42.3756597" lon="12.9917695"><ele>415.0</ele><time>2026-04-08T15:10:38.97Z</time></trkpt><trkpt lat="42.3756755" lon="12.9915413"><ele>415.6666666666667</ele><time>2026-04-08T15:10:39.969Z</time></trkpt><trkpt lat="42.3757131" lon="12.9913223"><ele>416.33333333333337</ele><time>2026-04-08T15:10:40.97Z</time></trkpt><trkpt lat="42.3757699" lon="12.9911087"><ele>417.0</ele><time>2026-04-08T15:10:41.969Z</time></trkpt><trkpt lat="42.3758385" lon="12.9908987"><ele>416.0</ele><time>2026-04-08T15:10:42.969Z</time></trkpt><trkpt lat="42.3759179" lon="12.9906923"><ele>415.0</ele><time>2026-04-08T15:10:43.969Z</time></trkpt><trkpt lat="42.3760096" lon="12.9904919"><ele>414.0</ele><time>2026-04-08T15:10:44.97Z</time></trkpt><trkpt lat="42.3761119" lon="12.9903014"><ele>414.0</ele><time>2026-04-08T15:10:45.969Z</time></trkpt><trkpt lat="42.3762213" lon="12.990129"><ele>414.0</ele><time>2026-04-08T15:10:46.969Z</time></trkpt><trkpt lat="42.376333" lon="12.9899662"><ele>414.0</ele><time>2026-04-08T15:10:47.969Z</time></trkpt><trkpt lat="42.3764211" lon="12.9897913"><ele>418.0</ele><time>2026-04-08T15:10:48.969Z</time></trkpt><trkpt lat="42.3764912" lon="12.9895912"><ele>422.0</ele><time>2026-04-08T15:10:49.969Z</time></trkpt><trkpt lat="42.3765455" lon="12.9893914"><ele>426.0</ele><time>2026-04-08T15:10:50.97Z</time></trkpt><trkpt lat="42.3765824" lon="12.9891843"><ele>426.0</ele><time>2026-04-08T15:10:51.97Z</time></trkpt><trkpt lat="42.3765956" lon="12.9889721"><ele>426.0</ele><time>2026-04-08T15:10:52.969Z</time></trkpt><trkpt lat="42.3765788" lon="12.9887651"><ele>426.0</ele><time>2026-04-08T15:10:53.969Z</time></trkpt><trkpt lat="42.3765394" lon="12.9885687"><ele>426.0</ele><time>2026-04-08T15:10:54.969Z</time></trkpt><trkpt lat="42.3764898" lon="12.9883693"><ele>426.0</ele><time>2026-04-08T15:10:55.969Z</time></trkpt><trkpt lat="42.376441" lon="12.9881657"><ele>426.0</ele><time>2026-04-08T15:10:56.969Z</time></trkpt><trkpt lat="42.3763993" lon="12.9879609"><ele>421.0</ele><time>2026-04-08T15:10:57.969Z</time></trkpt><trkpt lat="42.3763374" lon="12.9877454"><ele>416.0</ele><time>2026-04-08T15:10:58.969Z</time></trkpt><trkpt lat="42.3762896" lon="12.9875319"><ele>411.0</ele><time>2026-04-08T15:10:59.969Z</time></trkpt><trkpt lat="42.3762367" lon="12.9873115"><ele>411.0</ele><time>2026-04-08T15:11:00.969Z</time></trkpt><trkpt lat="42.3761758" lon="12.9870931"><ele>411.0</ele><time>2026-04-08T15:11:01.969Z</time></trkpt><trkpt lat="42.3761147" lon="12.9868935"><ele>411.0</ele><time>2026-04-08T15:11:02.969Z</time></trkpt><trkpt lat="42.3760488" lon="12.9866972"><ele>413.0</ele><time>2026-04-08T15:11:03.969Z</time></trkpt><trkpt lat="42.3759837" lon="12.9865016"><ele>415.0</ele><time>2026-04-08T15:11:04.969Z</time></trkpt><trkpt lat="42.375918" lon="12.9863048"><ele>417.0</ele><time>2026-04-08T15:11:05.969Z</time></trkpt><trkpt lat="42.3758483" lon="12.9860979"><ele>417.0</ele><time>2026-04-08T15:11:06.97Z</time></trkpt><trkpt lat="42.3757796" lon="12.9858973"><ele>417.0</ele><time>2026-04-08T15:11:07.97Z</time></trkpt><trkpt lat="42.3757112" lon="12.9857026"><ele>417.0</ele><time>2026-04-08T15:11:08.969Z</time></trkpt><trkpt lat="42.3756379" lon="12.9855024"><ele>416.0</ele><time>2026-04-08T15:11:09.97Z</time></trkpt><trkpt lat="42.3755552" lon="12.985301"><ele>415.0</ele><time>2026-04-08T15:11:10.97Z</time></trkpt><trkpt lat="42.3754784" lon="12.9851"><ele>414.0</ele><time>2026-04-08T15:11:11.969Z</time></trkpt><trkpt lat="42.3753981" lon="12.9849012"><ele>414.0</ele><time>2026-04-08T15:11:12.969Z</time></trkpt><trkpt lat="42.3753188" lon="12.984713"><ele>414.0</ele><time>2026-04-08T15:11:13.969Z</time></trkpt><trkpt lat="42.3752475" lon="12.98453"><ele>414.0</ele><time>2026-04-08T15:11:14.969Z</time></trkpt><trkpt lat="42.375196" lon="12.9843503"><ele>415.25</ele><time>2026-04-08T15:11:15.969Z</time></trkpt><trkpt lat="42.3751633" lon="12.9841729"><ele>416.5</ele><time>2026-04-08T15:11:16.969Z</time></trkpt><trkpt lat="42.3751437" lon="12.9839955"><ele>417.75</ele><time>2026-04-08T15:11:17.969Z</time></trkpt><trkpt lat="42.3751319" lon="12.9838109"><ele>419.0</ele><time>2026-04-08T15:11:18.969Z</time></trkpt><trkpt lat="42.3751227" lon="12.9836181"><ele>419.0</ele><time>2026-04-08T15:11:19.969Z</time></trkpt><trkpt lat="42.3751222" lon="12.9834284"><ele>419.0</ele><time>2026-04-08T15:11:20.969Z</time></trkpt><trkpt lat="42.3751132" lon="12.9832207"><ele>419.0</ele><time>2026-04-08T15:11:21.97Z</time></trkpt><trkpt lat="42.3751063" lon="12.9830115"><ele>419.0</ele><time>2026-04-08T15:11:22.97Z</time></trkpt><trkpt lat="42.3750987" lon="12.9827995"><ele>419.0</ele><time>2026-04-08T15:11:23.969Z</time></trkpt><trkpt lat="42.3750881" lon="12.982586"><ele>419.0</ele><time>2026-04-08T15:11:24.97Z</time></trkpt><trkpt lat="42.3750836" lon="12.9823743"><ele>419.0</ele><time>2026-04-08T15:11:25.969Z</time></trkpt><trkpt lat="42.3750756" lon="12.9821672"><ele>419.75</ele><time>2026-04-08T15:11:26.97Z</time></trkpt><trkpt lat="42.3750681" lon="12.9819705"><ele>420.5</ele><time>2026-04-08T15:11:27.969Z</time></trkpt><trkpt lat="42.3750653" lon="12.981773"><ele>421.25</ele><time>2026-04-08T15:11:28.969Z</time></trkpt><trkpt lat="42.3750656" lon="12.9815748"><ele>422.0</ele><time>2026-04-08T15:11:29.969Z</time></trkpt><trkpt lat="42.3750705" lon="12.9813742"><ele>423.0</ele><time>2026-04-08T15:11:30.969Z</time></trkpt><trkpt lat="42.3750811" lon="12.9811707"><ele>424.0</ele><time>2026-04-08T15:11:31.969Z</time></trkpt><trkpt lat="42.3750977" lon="12.9809712"><ele>425.0</ele><time>2026-04-08T15:11:32.969Z</time></trkpt><trkpt lat="42.3751183" lon="12.9807685"><ele>425.25</ele><time>2026-04-08T15:11:33.969Z</time></trkpt><trkpt lat="42.37515" lon="12.9805675"><ele>425.5</ele><time>2026-04-08T15:11:34.969Z</time></trkpt><trkpt lat="42.3751842" lon="12.9803712"><ele>425.75</ele><time>2026-04-08T15:11:35.969Z</time></trkpt><trkpt lat="42.3752216" lon="12.980184"><ele>426.0</ele><time>2026-04-08T15:11:36.969Z</time></trkpt><trkpt lat="42.3752658" lon="12.9800006"><ele>426.0</ele><time>2026-04-08T15:11:37.969Z</time></trkpt><trkpt lat="42.3753198" lon="12.9798233"><ele>426.0</ele><time>2026-04-08T15:11:38.969Z</time></trkpt><trkpt lat="42.375381" lon="12.9796524"><ele>426.0</ele><time>2026-04-08T15:11:39.969Z</time></trkpt><trkpt lat="42.3754402" lon="12.9794819"><ele>426.0</ele><time>2026-04-08T15:11:40.969Z</time></trkpt><trkpt lat="42.3755008" lon="12.9793085"><ele>428.0</ele><time>2026-04-08T15:11:41.969Z</time></trkpt><trkpt lat="42.3755584" lon="12.9791537"><ele>430.0</ele><time>2026-04-08T15:11:42.969Z</time></trkpt><trkpt lat="42.3756135" lon="12.9789875"><ele>432.0</ele><time>2026-04-08T15:11:43.97Z</time></trkpt><trkpt lat="42.3756717" lon="12.9788204"><ele>434.0</ele><time>2026-04-08T15:11:44.969Z</time></trkpt><trkpt lat="42.3757293" lon="12.9786571"><ele>434.0</ele><time>2026-04-08T15:11:45.969Z</time></trkpt><trkpt lat="42.375788" lon="12.9784855"><ele>434.0</ele><time>2026-04-08T15:11:46.97Z</time></trkpt><trkpt lat="42.3758463" lon="12.978307"><ele>434.0</ele><time>2026-04-08T15:11:47.97Z</time></trkpt><trkpt lat="42.3759101" lon="12.9781299"><ele>434.0</ele><time>2026-04-08T15:11:48.97Z</time></trkpt><trkpt lat="42.3759785" lon="12.9779543"><ele>434.0</ele><time>2026-04-08T15:11:49.969Z</time></trkpt><trkpt lat="42.3760473" lon="12.9777696"><ele>434.0</ele><time>2026-04-08T15:11:50.969Z</time></trkpt><trkpt lat="42.3761137" lon="12.9775829"><ele>434.0</ele><time>2026-04-08T15:11:51.969Z</time></trkpt><trkpt lat="42.3761781" lon="12.9773978"><ele>433.75</ele><time>2026-04-08T15:11:52.97Z</time></trkpt><trkpt lat="42.37624" lon="12.9772153"><ele>433.5</ele><time>2026-04-08T15:11:53.969Z</time></trkpt><trkpt lat="42.376305" lon="12.9770371"><ele>433.25</ele><time>2026-04-08T15:11:54.969Z</time></trkpt><trkpt lat="42.3763665" lon="12.9768608"><ele>433.0</ele><time>2026-04-08T15:11:55.97Z</time></trkpt><trkpt lat="42.3764282" lon="12.9766842"><ele>434.25</ele><time>2026-04-08T15:11:56.969Z</time></trkpt><trkpt lat="42.3764878" lon="12.9765115"><ele>435.5</ele><time>2026-04-08T15:11:57.97Z</time></trkpt><trkpt lat="42.3765512" lon="12.9763425"><ele>436.75</ele><time>2026-04-08T15:11:58.969Z</time></trkpt><trkpt lat="42.3766117" lon="12.9761769"><ele>438.0</ele><time>2026-04-08T15:11:59.969Z</time></trkpt><trkpt lat="42.3766703" lon="12.9760179"><ele>438.0</ele><time>2026-04-08T15:12:00.969Z</time></trkpt><trkpt lat="42.3767318" lon="12.9758551"><ele>438.0</ele><time>2026-04-08T15:12:01.969Z</time></trkpt><trkpt lat="42.3767933" lon="12.9756843"><ele>438.0</ele><time>2026-04-08T15:12:02.969Z</time></trkpt><trkpt lat="42.3768525" lon="12.9755101"><ele>438.0</ele><time>2026-04-08T15:12:03.97Z</time></trkpt><trkpt lat="42.3769133" lon="12.9753286"><ele>436.66666666666663</ele><time>2026-04-08T15:12:04.969Z</time></trkpt><trkpt lat="42.3769826" lon="12.9751413"><ele>435.3333333333333</ele><time>2026-04-08T15:12:05.969Z</time></trkpt><trkpt lat="42.3770509" lon="12.9749468"><ele>434.0</ele><time>2026-04-08T15:12:06.97Z</time></trkpt><trkpt lat="42.3771224" lon="12.9747519"><ele>435.0</ele><time>2026-04-08T15:12:07.969Z</time></trkpt><trkpt lat="42.3771857" lon="12.9745532"><ele>436.0</ele><time>2026-04-08T15:12:08.969Z</time></trkpt><trkpt lat="42.3772508" lon="12.974367"><ele>437.0</ele><time>2026-04-08T15:12:09.97Z</time></trkpt><trkpt lat="42.3773196" lon="12.9741888"><ele>435.75</ele><time>2026-04-08T15:12:10.969Z</time></trkpt><trkpt lat="42.377389" lon="12.9740136"><ele>434.5</ele><time>2026-04-08T15:12:11.97Z</time></trkpt><trkpt lat="42.3774548" lon="12.9738419"><ele>433.25</ele><time>2026-04-08T15:12:12.969Z</time></trkpt><trkpt lat="42.377521" lon="12.9736764"><ele>432.0</ele><time>2026-04-08T15:12:13.969Z</time></trkpt><trkpt lat="42.3775833" lon="12.9735071"><ele>431.25</ele><time>2026-04-08T15:12:14.969Z</time></trkpt><trkpt lat="42.3776444" lon="12.973337"><ele>430.5</ele><time>2026-04-08T15:12:15.969Z</time></trkpt><trkpt lat="42.3777084" lon="12.9731627"><ele>429.75</ele><time>2026-04-08T15:12:16.969Z</time></trkpt><trkpt lat="42.3777679" lon="12.9730012"><ele>429.0</ele><time>2026-04-08T15:12:17.97Z</time></trkpt><trkpt lat="42.3778266" lon="12.9728521"><ele>429.0</ele><time>2026-04-08T15:12:18.969Z</time></trkpt><trkpt lat="42.3778805" lon="12.972713"><ele>429.0</ele><time>2026-04-08T15:12:19.969Z</time></trkpt><trkpt lat="42.3779364" lon="12.9725709"><ele>429.0</ele><time>2026-04-08T15:12:20.969Z</time></trkpt><trkpt lat="42.3779862" lon="12.9724263"><ele>429.0</ele><time>2026-04-08T15:12:21.969Z</time></trkpt><trkpt lat="42.3780364" lon="12.9722753"><ele>430.25</ele><time>2026-04-08T15:12:22.969Z</time></trkpt><trkpt lat="42.3780951" lon="12.9721181"><ele>431.5</ele><time>2026-04-08T15:12:23.97Z</time></trkpt><trkpt lat="42.378151" lon="12.9719522"><ele>432.75</ele><time>2026-04-08T15:12:24.969Z</time></trkpt><trkpt lat="42.3782181" lon="12.9717887"><ele>434.0</ele><time>2026-04-08T15:12:25.969Z</time></trkpt><trkpt lat="42.3782821" lon="12.971616"><ele>434.25</ele><time>2026-04-08T15:12:26.969Z</time></trkpt><trkpt lat="42.3783457" lon="12.9714417"><ele>434.5</ele><time>2026-04-08T15:12:27.97Z</time></trkpt><trkpt lat="42.3784108" lon="12.9712591"><ele>434.75</ele><time>2026-04-08T15:12:28.969Z</time></trkpt><trkpt lat="42.3784783" lon="12.9710756"><ele>435.0</ele><time>2026-04-08T15:12:29.969Z</time></trkpt><trkpt lat="42.3785421" lon="12.9708896"><ele>433.66666666666663</ele><time>2026-04-08T15:12:30.969Z</time></trkpt><trkpt lat="42.3786085" lon="12.9706986"><ele>432.3333333333333</ele><time>2026-04-08T15:12:31.97Z</time></trkpt><trkpt lat="42.3786828" lon="12.970512"><ele>431.0</ele><time>2026-04-08T15:12:32.97Z</time></trkpt><trkpt lat="42.3787593" lon="12.9703229"><ele>431.0</ele><time>2026-04-08T15:12:33.969Z</time></trkpt><trkpt lat="42.3788414" lon="12.9701376"><ele>431.0</ele><time>2026-04-08T15:12:34.969Z</time></trkpt><trkpt lat="42.3789217" lon="12.9699509"><ele>431.0</ele><time>2026-04-08T15:12:35.969Z</time></trkpt><trkpt lat="42.3790063" lon="12.9697587"><ele>432.66666666666663</ele><time>2026-04-08T15:12:36.969Z</time></trkpt><trkpt lat="42.379096" lon="12.9695708"><ele>434.33333333333337</ele><time>2026-04-08T15:12:37.969Z</time></trkpt><trkpt lat="42.3791877" lon="12.9693868"><ele>436.0</ele><time>2026-04-08T15:12:38.969Z</time></trkpt><trkpt lat="42.3792781" lon="12.9691972"><ele>434.6666666666667</ele><time>2026-04-08T15:12:39.969Z</time></trkpt><trkpt lat="42.3793707" lon="12.9689993"><ele>433.33333333333337</ele><time>2026-04-08T15:12:40.969Z</time></trkpt><trkpt lat="42.3794714" lon="12.9687944"><ele>432.0</ele><time>2026-04-08T15:12:41.969Z</time></trkpt><trkpt lat="42.379582" lon="12.9685859"><ele>436.0</ele><time>2026-04-08T15:12:42.97Z</time></trkpt><trkpt lat="42.3797052" lon="12.9683808"><ele>440.0</ele><time>2026-04-08T15:12:43.969Z</time></trkpt><trkpt lat="42.3798415" lon="12.9681732"><ele>444.0</ele><time>2026-04-08T15:12:44.969Z</time></trkpt><trkpt lat="42.3799862" lon="12.9679615"><ele>444.0</ele><time>2026-04-08T15:12:45.969Z</time></trkpt><trkpt lat="42.3801288" lon="12.9677495"><ele>444.0</ele><time>2026-04-08T15:12:46.969Z</time></trkpt><trkpt lat="42.38027" lon="12.9675359"><ele>444.0</ele><time>2026-04-08T15:12:47.969Z</time></trkpt><trkpt lat="42.3803955" lon="12.9673078"><ele>441.33333333333337</ele><time>2026-04-08T15:12:48.969Z</time></trkpt><trkpt lat="42.3804998" lon="12.9670494"><ele>438.6666666666667</ele><time>2026-04-08T15:12:49.97Z</time></trkpt><trkpt lat="42.3805934" lon="12.966776"><ele>436.0</ele><time>2026-04-08T15:12:50.969Z</time></trkpt><trkpt lat="42.3806871" lon="12.9664877"><ele>444.0</ele><time>2026-04-08T15:12:51.969Z</time></trkpt><trkpt lat="42.3807904" lon="12.966197"><ele>452.0</ele><time>2026-04-08T15:12:52.969Z</time></trkpt><trkpt lat="42.380896" lon="12.9659014"><ele>448.5</ele><time>2026-04-08T15:12:53.969Z</time></trkpt><trkpt lat="42.3810142" lon="12.9656078"><ele>445.0</ele><time>2026-04-08T15:12:54.969Z</time></trkpt><trkpt lat="42.3811348" lon="12.965312"><ele>437.0</ele><time>2026-04-08T15:12:55.969Z</time></trkpt><trkpt lat="42.3812582" lon="12.9650097"><ele>429.0</ele><time>2026-04-08T15:12:56.969Z</time></trkpt><trkpt lat="42.3813831" lon="12.9647123"><ele>442.5</ele><time>2026-04-08T15:12:57.969Z</time></trkpt><trkpt lat="42.3815033" lon="12.9644195"><ele>456.0</ele><time>2026-04-08T15:12:58.969Z</time></trkpt><trkpt lat="42.3816239" lon="12.964141"><ele>456.0</ele><time>2026-04-08T15:12:59.969Z</time></trkpt><trkpt lat="42.3817441" lon="12.9638525"><ele>456.0</ele><time>2026-04-08T15:13:00.969Z</time></trkpt><trkpt lat="42.3818646" lon="12.9635817"><ele>451.0</ele><time>2026-04-08T15:13:01.97Z</time></trkpt><trkpt lat="42.3819649" lon="12.9633176"><ele>446.0</ele><time>2026-04-08T15:13:02.97Z</time></trkpt><trkpt lat="42.3820548" lon="12.9630742"><ele>441.0</ele><time>2026-04-08T15:13:03.969Z</time></trkpt><trkpt lat="42.3821219" lon="12.962829"><ele>441.0</ele><time>2026-04-08T15:13:04.97Z</time></trkpt><trkpt lat="42.3821765" lon="12.9625821"><ele>441.0</ele><time>2026-04-08T15:13:05.969Z</time></trkpt><trkpt lat="42.3822424" lon="12.9623576"><ele>441.0</ele><time>2026-04-08T15:13:06.969Z</time></trkpt><trkpt lat="42.3823159" lon="12.9621576"><ele>453.66666666666663</ele><time>2026-04-08T15:13:07.969Z</time></trkpt><trkpt lat="42.382402" lon="12.9619691"><ele>466.3333333333333</ele><time>2026-04-08T15:13:08.969Z</time></trkpt><trkpt lat="42.3825268" lon="12.9618338"><ele>479.0</ele><time>2026-04-08T15:13:09.969Z</time></trkpt><trkpt lat="42.3826424" lon="12.9617087"><ele>475.75</ele><time>2026-04-08T15:13:10.969Z</time></trkpt><trkpt lat="42.3827272" lon="12.9615757"><ele>472.5</ele><time>2026-04-08T15:13:11.97Z</time></trkpt><trkpt lat="42.3827865" lon="12.9614273"><ele>469.25</ele><time>2026-04-08T15:13:12.97Z</time></trkpt><trkpt lat="42.3827968" lon="12.9612749"><ele>466.0</ele><time>2026-04-08T15:13:13.97Z</time></trkpt><trkpt lat="42.3827649" lon="12.9611403"><ele>466.0</ele><time>2026-04-08T15:13:14.969Z</time></trkpt><trkpt lat="42.3827053" lon="12.961005"><ele>466.0</ele><time>2026-04-08T15:13:15.969Z</time></trkpt><trkpt lat="42.3826519" lon="12.9608723"><ele>466.0</ele><time>2026-04-08T15:13:16.969Z</time></trkpt><trkpt lat="42.3825985" lon="12.9607295"><ele>466.0</ele><time>2026-04-08T15:13:17.969Z</time></trkpt><trkpt lat="42.382557" lon="12.9605732"><ele>467.0</ele><time>2026-04-08T15:13:18.969Z</time></trkpt><trkpt lat="42.3825307" lon="12.9604015"><ele>468.0</ele><time>2026-04-08T15:13:19.969Z</time></trkpt><trkpt lat="42.382528" lon="12.9602231"><ele>469.0</ele><time>2026-04-08T15:13:20.969Z</time></trkpt><trkpt lat="42.3825406" lon="12.9600363"><ele>470.0</ele><time>2026-04-08T15:13:21.969Z</time></trkpt><trkpt lat="42.3825667" lon="12.9598527"><ele>471.0</ele><time>2026-04-08T15:13:22.969Z</time></trkpt><trkpt lat="42.382612" lon="12.9596898"><ele>472.0</ele><time>2026-04-08T15:13:23.97Z</time></trkpt><trkpt lat="42.3826868" lon="12.9595551"><ele>473.0</ele><time>2026-04-08T15:13:24.969Z</time></trkpt><trkpt lat="42.3827567" lon="12.959437"><ele>474.0</ele><time>2026-04-08T15:13:25.969Z</time></trkpt><trkpt lat="42.3828332" lon="12.9593357"><ele>474.0</ele><time>2026-04-08T15:13:26.97Z</time></trkpt><trkpt lat="42.3828965" lon="12.9592259"><ele>474.0</ele><time>2026-04-08T15:13:27.97Z</time></trkpt><trkpt lat="42.3829493" lon="12.9591122"><ele>474.0</ele><time>2026-04-08T15:13:28.969Z</time></trkpt><trkpt lat="42.3829851" lon="12.9589919"><ele>474.0</ele><time>2026-04-08T15:13:29.97Z</time></trkpt><trkpt lat="42.3830005" lon="12.9588768"><ele>474.0</ele><time>2026-04-08T15:13:30.97Z</time></trkpt><trkpt lat="42.3830068" lon="12.9587569"><ele>473.79999999999995</ele><time>2026-04-08T15:13:31.969Z</time></trkpt><trkpt lat="42.3830106" lon="12.9586214"><ele>473.59999999999997</ele><time>2026-04-08T15:13:32.969Z</time></trkpt><trkpt lat="42.3830203" lon="12.9584768"><ele>473.4</ele><time>2026-04-08T15:13:33.969Z</time></trkpt><trkpt lat="42.3830589" lon="12.9583332"><ele>473.2</ele><time>2026-04-08T15:13:34.969Z</time></trkpt><trkpt lat="42.3831481" lon="12.9582096"><ele>473.0</ele><time>2026-04-08T15:13:35.969Z</time></trkpt><trkpt lat="42.3832564" lon="12.9581073"><ele>476.75</ele><time>2026-04-08T15:13:36.969Z</time></trkpt><trkpt lat="42.3833809" lon="12.9580061"><ele>480.5</ele><time>2026-04-08T15:13:37.97Z</time></trkpt><trkpt lat="42.3835046" lon="12.957896"><ele>484.25</ele><time>2026-04-08T15:13:38.97Z</time></trkpt><trkpt lat="42.3836097" lon="12.9577724"><ele>488.0</ele><time>2026-04-08T15:13:39.969Z</time></trkpt><trkpt lat="42.3836984" lon="12.9576147"><ele>485.66666666666663</ele><time>2026-04-08T15:13:40.969Z</time></trkpt><trkpt lat="42.3837769" lon="12.9574438"><ele>483.33333333333337</ele><time>2026-04-08T15:13:41.969Z</time></trkpt><trkpt lat="42.3838531" lon="12.9572638"><ele>481.0</ele><time>2026-04-08T15:13:42.969Z</time></trkpt><trkpt lat="42.3839238" lon="12.9570794"><ele>484.6666666666667</ele><time>2026-04-08T15:13:43.969Z</time></trkpt><trkpt lat="42.3839995" lon="12.9568941"><ele>488.33333333333337</ele><time>2026-04-08T15:13:44.969Z</time></trkpt><trkpt lat="42.3840735" lon="12.9567079"><ele>492.0</ele><time>2026-04-08T15:13:45.969Z</time></trkpt><trkpt lat="42.3841364" lon="12.9565248"><ele>492.0</ele><time>2026-04-08T15:13:46.969Z</time></trkpt><trkpt lat="42.3841701" lon="12.9563319"><ele>492.0</ele><time>2026-04-08T15:13:47.969Z</time></trkpt><trkpt lat="42.3841732" lon="12.9561312"><ele>492.0</ele><time>2026-04-08T15:13:48.969Z</time></trkpt><trkpt lat="42.3841458" lon="12.9559388"><ele>492.0</ele><time>2026-04-08T15:13:49.969Z</time></trkpt><trkpt lat="42.3841065" lon="12.9557509"><ele>492.5</ele><time>2026-04-08T15:13:50.969Z</time></trkpt><trkpt lat="42.3840714" lon="12.9555778"><ele>493.0</ele><time>2026-04-08T15:13:51.969Z</time></trkpt><trkpt lat="42.3840509" lon="12.9554106"><ele>493.5</ele><time>2026-04-08T15:13:52.969Z</time></trkpt><trkpt lat="42.3840396" lon="12.9552567"><ele>494.0</ele><time>2026-04-08T15:13:53.969Z</time></trkpt><trkpt lat="42.3840594" lon="12.9551239"><ele>494.5</ele><time>2026-04-08T15:13:54.969Z</time></trkpt><trkpt lat="42.3841136" lon="12.9550124"><ele>495.0</ele><time>2026-04-08T15:13:55.969Z</time></trkpt><trkpt lat="42.3841997" lon="12.9549208"><ele>495.5</ele><time>2026-04-08T15:13:56.969Z</time></trkpt><trkpt lat="42.3843146" lon="12.9548348"><ele>496.0</ele><time>2026-04-08T15:13:57.97Z</time></trkpt><trkpt lat="42.3844441" lon="12.9547493"><ele>496.0</ele><time>2026-04-08T15:13:58.969Z</time></trkpt><trkpt lat="42.3845779" lon="12.9546494"><ele>496.0</ele><time>2026-04-08T15:13:59.97Z</time></trkpt><trkpt lat="42.3847198" lon="12.9545497"><ele>496.0</ele><time>2026-04-08T15:14:00.969Z</time></trkpt><trkpt lat="42.3848668" lon="12.9544536"><ele>495.33333333333337</ele><time>2026-04-08T15:14:01.97Z</time></trkpt><trkpt lat="42.3850221" lon="12.9543556"><ele>494.66666666666663</ele><time>2026-04-08T15:14:02.969Z</time></trkpt><trkpt lat="42.3851779" lon="12.9542521"><ele>494.0</ele><time>2026-04-08T15:14:03.969Z</time></trkpt><trkpt lat="42.3853343" lon="12.954147"><ele>494.0</ele><time>2026-04-08T15:14:04.969Z</time></trkpt><trkpt lat="42.3854882" lon="12.9540429"><ele>494.0</ele><time>2026-04-08T15:14:05.969Z</time></trkpt><trkpt lat="42.385629" lon="12.95395"><ele>494.0</ele><time>2026-04-08T15:14:06.969Z</time></trkpt><trkpt lat="42.3857682" lon="12.9538686"><ele>494.5</ele><time>2026-04-08T15:14:07.97Z</time></trkpt><trkpt lat="42.3859027" lon="12.9538238"><ele>495.0</ele><time>2026-04-08T15:14:08.969Z</time></trkpt><trkpt lat="42.3860374" lon="12.9538082"><ele>495.5</ele><time>2026-04-08T15:14:09.969Z</time></trkpt><trkpt lat="42.3861737" lon="12.9538551"><ele>496.0</ele><time>2026-04-08T15:14:10.97Z</time></trkpt><trkpt lat="42.3863043" lon="12.9539214"><ele>496.25</ele><time>2026-04-08T15:14:11.969Z</time></trkpt><trkpt lat="42.3864444" lon="12.9539971"><ele>496.5</ele><time>2026-04-08T15:14:12.969Z</time></trkpt><trkpt lat="42.3865827" lon="12.9540737"><ele>496.75</ele><time>2026-04-08T15:14:13.969Z</time></trkpt><trkpt lat="42.386716" lon="12.9541413"><ele>497.0</ele><time>2026-04-08T15:14:14.97Z</time></trkpt><trkpt lat="42.3868394" lon="12.9542044"><ele>498.25</ele><time>2026-04-08T15:14:15.969Z</time></trkpt><trkpt lat="42.3869586" lon="12.9542636"><ele>499.5</ele><time>2026-04-08T15:14:16.969Z</time></trkpt><trkpt lat="42.3870751" lon="12.9543279"><ele>500.75</ele><time>2026-04-08T15:14:17.969Z</time></trkpt><trkpt lat="42.3871943" lon="12.9544012"><ele>502.0</ele><time>2026-04-08T15:14:18.969Z</time></trkpt><trkpt lat="42.3873108" lon="12.9544734"><ele>502.0</ele><time>2026-04-08T15:14:19.969Z</time></trkpt><trkpt lat="42.387415" lon="12.9545384"><ele>502.00000000000006</ele><time>2026-04-08T15:14:20.969Z</time></trkpt><trkpt lat="42.3875161" lon="12.9545963"><ele>502.00000000000006</ele><time>2026-04-08T15:14:21.969Z</time></trkpt><trkpt lat="42.3876075" lon="12.9546568"><ele>502.0</ele><time>2026-04-08T15:14:22.969Z</time></trkpt><trkpt lat="42.387687" lon="12.9547394"><ele>502.0</ele><time>2026-04-08T15:14:23.97Z</time></trkpt><trkpt lat="42.3877597" lon="12.9548402"><ele>502.0</ele><time>2026-04-08T15:14:24.969Z</time></trkpt><trkpt lat="42.3878278" lon="12.9549499"><ele>502.0</ele><time>2026-04-08T15:14:25.969Z</time></trkpt><trkpt lat="42.3879021" lon="12.9550701"><ele>502.0</ele><time>2026-04-08T15:14:26.97Z</time></trkpt><trkpt lat="42.3879741" lon="12.9552037"><ele>502.0</ele><time>2026-04-08T15:14:27.969Z</time></trkpt><trkpt lat="42.3880506" lon="12.9553465"><ele>502.25</ele><time>2026-04-08T15:14:28.969Z</time></trkpt><trkpt lat="42.388129" lon="12.9554973"><ele>502.5</ele><time>2026-04-08T15:14:29.969Z</time></trkpt><trkpt lat="42.3882089" lon="12.9556524"><ele>502.75</ele><time>2026-04-08T15:14:30.969Z</time></trkpt><trkpt lat="42.3882787" lon="12.9558075"><ele>503.0</ele><time>2026-04-08T15:14:31.969Z</time></trkpt><trkpt lat="42.3883402" lon="12.9559411"><ele>504.4</ele><time>2026-04-08T15:14:32.969Z</time></trkpt><trkpt lat="42.3883928" lon="12.9560706"><ele>505.79999999999995</ele><time>2026-04-08T15:14:33.969Z</time></trkpt><trkpt lat="42.3884381" lon="12.9562038"><ele>507.2</ele><time>2026-04-08T15:14:34.969Z</time></trkpt><trkpt lat="42.3884876" lon="12.9563318"><ele>508.6</ele><time>2026-04-08T15:14:35.969Z</time></trkpt><trkpt lat="42.3885288" lon="12.9564422"><ele>510.0</ele><time>2026-04-08T15:14:36.969Z</time></trkpt><trkpt lat="42.3885634" lon="12.9565414"><ele>510.0</ele><time>2026-04-08T15:14:37.969Z</time></trkpt><trkpt lat="42.3885759" lon="12.9566387"><ele>510.0</ele><time>2026-04-08T15:14:38.969Z</time></trkpt><trkpt lat="42.3885883" lon="12.9567331"><ele>510.0</ele><time>2026-04-08T15:14:39.969Z</time></trkpt><trkpt lat="42.3886601" lon="12.9568464"><ele>510.0</ele><time>2026-04-08T15:14:41.969Z</time></trkpt><trkpt lat="42.3887411" lon="12.9568579"><ele>510.0</ele><time>2026-04-08T15:14:43.969Z</time></trkpt><trkpt lat="42.3888052" lon="12.9568399"><ele>510.0</ele><time>2026-04-08T15:14:45.969Z</time></trkpt><trkpt lat="42.3888903" lon="12.9567962"><ele>510.0</ele><time>2026-04-08T15:14:47.969Z</time></trkpt><trkpt lat="42.3889586" lon="12.9567594"><ele>510.0</ele><time>2026-04-08T15:14:48.969Z</time></trkpt><trkpt lat="42.3890389" lon="12.9567185"><ele>510.0</ele><time>2026-04-08T15:14:49.97Z</time></trkpt><trkpt lat="42.3891265" lon="12.95667"><ele>510.0</ele><time>2026-04-08T15:14:50.97Z</time></trkpt><trkpt lat="42.3892188" lon="12.9566207"><ele>510.0</ele><time>2026-04-08T15:14:51.969Z</time></trkpt><trkpt lat="42.389304" lon="12.9565689"><ele>510.0</ele><time>2026-04-08T15:14:52.969Z</time></trkpt><trkpt lat="42.3893813" lon="12.9565258"><ele>510.0</ele><time>2026-04-08T15:14:53.97Z</time></trkpt><trkpt lat="42.3894877" lon="12.9565083"><ele>510.0</ele><time>2026-04-08T15:14:55.97Z</time></trkpt><trkpt lat="42.3895599" lon="12.9565697"><ele>510.0</ele><time>2026-04-08T15:14:58.969Z</time></trkpt><trkpt lat="42.3896037" lon="12.9567167"><ele>510.0</ele><time>2026-04-08T15:15:00.97Z</time></trkpt><trkpt lat="42.3896289" lon="12.9568231"><ele>510.0</ele><time>2026-04-08T15:15:01.969Z</time></trkpt><trkpt lat="42.3896573" lon="12.9569263"><ele>511.0</ele><time>2026-04-08T15:15:02.969Z</time></trkpt><trkpt lat="42.3896851" lon="12.9570384"><ele>512.0</ele><time>2026-04-08T15:15:03.969Z</time></trkpt><trkpt lat="42.3897161" lon="12.9571526"><ele>513.0</ele><time>2026-04-08T15:15:04.969Z</time></trkpt><trkpt lat="42.3897494" lon="12.9572892"><ele>514.0</ele><time>2026-04-08T15:15:05.969Z</time></trkpt><trkpt lat="42.3897908" lon="12.9574208"><ele>515.0</ele><time>2026-04-08T15:15:06.97Z</time></trkpt><trkpt lat="42.3898255" lon="12.9575555"><ele>515.1666666666666</ele><time>2026-04-08T15:15:07.969Z</time></trkpt><trkpt lat="42.3898581" lon="12.9576811"><ele>515.3333333333333</ele><time>2026-04-08T15:15:08.969Z</time></trkpt><trkpt lat="42.3898891" lon="12.9578066"><ele>515.5</ele><time>2026-04-08T15:15:09.969Z</time></trkpt><trkpt lat="42.3899121" lon="12.9579201"><ele>515.6666666666666</ele><time>2026-04-08T15:15:10.969Z</time></trkpt><trkpt lat="42.3899227" lon="12.9580263"><ele>515.8333333333334</ele><time>2026-04-08T15:15:11.97Z</time></trkpt><trkpt lat="42.3899232" lon="12.9581187"><ele>516.0</ele><time>2026-04-08T15:15:12.969Z</time></trkpt><trkpt lat="42.3899153" lon="12.9582139"><ele>516.0</ele><time>2026-04-08T15:15:13.969Z</time></trkpt><trkpt lat="42.3899056" lon="12.9583226"><ele>516.0</ele><time>2026-04-08T15:15:14.969Z</time></trkpt><trkpt lat="42.3899024" lon="12.9584361"><ele>516.0</ele><time>2026-04-08T15:15:15.969Z</time></trkpt><trkpt lat="42.3898987" lon="12.9585619"><ele>516.0</ele><time>2026-04-08T15:15:16.969Z</time></trkpt><trkpt lat="42.389892" lon="12.9586942"><ele>516.0</ele><time>2026-04-08T15:15:17.969Z</time></trkpt><trkpt lat="42.3898853" lon="12.9588228"><ele>516.2</ele><time>2026-04-08T15:15:18.969Z</time></trkpt><trkpt lat="42.389873" lon="12.958957"><ele>516.4000000000001</ele><time>2026-04-08T15:15:19.969Z</time></trkpt><trkpt lat="42.3898539" lon="12.9590902"><ele>516.6</ele><time>2026-04-08T15:15:20.969Z</time></trkpt><trkpt lat="42.3898346" lon="12.9592277"><ele>516.8000000000001</ele><time>2026-04-08T15:15:21.969Z</time></trkpt><trkpt lat="42.3898144" lon="12.9593608"><ele>517.0</ele><time>2026-04-08T15:15:22.97Z</time></trkpt><trkpt lat="42.3897973" lon="12.9594988"><ele>517.0</ele><time>2026-04-08T15:15:23.969Z</time></trkpt><trkpt lat="42.389771" lon="12.959629"><ele>517.0</ele><time>2026-04-08T15:15:24.969Z</time></trkpt><trkpt lat="42.3897519" lon="12.9597498"><ele>517.0</ele><time>2026-04-08T15:15:25.969Z</time></trkpt><trkpt lat="42.3897253" lon="12.9598726"><ele>517.0</ele><time>2026-04-08T15:15:26.969Z</time></trkpt><trkpt lat="42.3897052" lon="12.9600084"><ele>517.0</ele><time>2026-04-08T15:15:27.969Z</time></trkpt><trkpt lat="42.3897085" lon="12.9601502"><ele>519.0</ele><time>2026-04-08T15:15:28.97Z</time></trkpt><trkpt lat="42.3897202" lon="12.9602878"><ele>521.0</ele><time>2026-04-08T15:15:29.97Z</time></trkpt><trkpt lat="42.3897448" lon="12.9604173"><ele>523.0</ele><time>2026-04-08T15:15:30.97Z</time></trkpt><trkpt lat="42.3897809" lon="12.9605448"><ele>525.0</ele><time>2026-04-08T15:15:31.968Z</time></trkpt><trkpt lat="42.3898213" lon="12.9606619"><ele>527.0</ele><time>2026-04-08T15:15:32.969Z</time></trkpt><trkpt lat="42.3898696" lon="12.960755"><ele>527.0</ele><time>2026-04-08T15:15:33.97Z</time></trkpt><trkpt lat="42.3899302" lon="12.960823"><ele>527.0</ele><time>2026-04-08T15:15:34.969Z</time></trkpt><trkpt lat="42.3900076" lon="12.9608564"><ele>527.0</ele><time>2026-04-08T15:15:35.969Z</time></trkpt><trkpt lat="42.3900957" lon="12.9608603"><ele>527.0</ele><time>2026-04-08T15:15:36.97Z</time></trkpt><trkpt lat="42.3901926" lon="12.9608545"><ele>527.0</ele><time>2026-04-08T15:15:37.969Z</time></trkpt><trkpt lat="42.3902911" lon="12.9608625"><ele>527.0</ele><time>2026-04-08T15:15:38.969Z</time></trkpt><trkpt lat="42.3903828" lon="12.9608884"><ele>529.0</ele><time>2026-04-08T15:15:39.969Z</time></trkpt><trkpt lat="42.3904641" lon="12.9609306"><ele>531.0</ele><time>2026-04-08T15:15:40.969Z</time></trkpt><trkpt lat="42.3905551" lon="12.9610798"><ele>533.0</ele><time>2026-04-08T15:15:42.969Z</time></trkpt><trkpt lat="42.3905995" lon="12.9611875"><ele>535.0</ele><time>2026-04-08T15:15:43.969Z</time></trkpt><trkpt lat="42.3906364" lon="12.9613111"><ele>537.0</ele><time>2026-04-08T15:15:44.969Z</time></trkpt><trkpt lat="42.3906708" lon="12.9614382"><ele>537.0</ele><time>2026-04-08T15:15:45.969Z</time></trkpt><trkpt lat="42.390695" lon="12.9615664"><ele>537.0</ele><time>2026-04-08T15:15:46.969Z</time></trkpt><trkpt lat="42.390718" lon="12.961694"><ele>537.0</ele><time>2026-04-08T15:15:47.97Z</time></trkpt><trkpt lat="42.3907381" lon="12.9618113"><ele>537.0</ele><time>2026-04-08T15:15:48.97Z</time></trkpt><trkpt lat="42.3907799" lon="12.9619117"><ele>537.0</ele><time>2026-04-08T15:15:49.97Z</time></trkpt><trkpt lat="42.3908433" lon="12.9619895"><ele>538.0</ele><time>2026-04-08T15:15:50.969Z</time></trkpt><trkpt lat="42.3909175" lon="12.9620557"><ele>539.0</ele><time>2026-04-08T15:15:51.969Z</time></trkpt><trkpt lat="42.3909951" lon="12.9621132"><ele>540.0</ele><time>2026-04-08T15:15:52.969Z</time></trkpt><trkpt lat="42.3910679" lon="12.9621729"><ele>541.0</ele><time>2026-04-08T15:15:53.969Z</time></trkpt><trkpt lat="42.391133" lon="12.9622378"><ele>542.0</ele><time>2026-04-08T15:15:54.97Z</time></trkpt><trkpt lat="42.3911794" lon="12.9623043"><ele>543.0</ele><time>2026-04-08T15:15:55.969Z</time></trkpt><trkpt lat="42.3912071" lon="12.9623818"><ele>543.0</ele><time>2026-04-08T15:15:56.969Z</time></trkpt><trkpt lat="42.3912213" lon="12.9624671"><ele>543.0</ele><time>2026-04-08T15:15:57.969Z</time></trkpt><trkpt lat="42.3912309" lon="12.9625636"><ele>543.0</ele><time>2026-04-08T15:15:58.969Z</time></trkpt><trkpt lat="42.3912356" lon="12.9626684"><ele>543.0</ele><time>2026-04-08T15:15:59.969Z</time></trkpt><trkpt lat="42.3912496" lon="12.9627668"><ele>543.0</ele><time>2026-04-08T15:16:00.969Z</time></trkpt><trkpt lat="42.3912735" lon="12.9628655"><ele>543.0</ele><time>2026-04-08T15:16:01.969Z</time></trkpt><trkpt lat="42.3912977" lon="12.9629527"><ele>543.0</ele><time>2026-04-08T15:16:02.969Z</time></trkpt><trkpt lat="42.3913899" lon="12.9630398"><ele>545.1999999999999</ele><time>2026-04-08T15:16:04.969Z</time></trkpt><trkpt lat="42.3914551" lon="12.9630499"><ele>547.4</ele><time>2026-04-08T15:16:05.969Z</time></trkpt><trkpt lat="42.3915337" lon="12.9630459"><ele>549.5999999999999</ele><time>2026-04-08T15:16:06.969Z</time></trkpt><trkpt lat="42.3916331" lon="12.9630431"><ele>551.8</ele><time>2026-04-08T15:16:07.969Z</time></trkpt><trkpt lat="42.3917363" lon="12.9630365"><ele>554.0</ele><time>2026-04-08T15:16:08.97Z</time></trkpt><trkpt lat="42.3918456" lon="12.96302"><ele>554.0</ele><time>2026-04-08T15:16:09.969Z</time></trkpt><trkpt lat="42.3919611" lon="12.9630064"><ele>554.0</ele><time>2026-04-08T15:16:10.969Z</time></trkpt><trkpt lat="42.3920871" lon="12.9629851"><ele>554.0</ele><time>2026-04-08T15:16:11.969Z</time></trkpt><trkpt lat="42.3922142" lon="12.9629506"><ele>554.0</ele><time>2026-04-08T15:16:12.97Z</time></trkpt><trkpt lat="42.3923383" lon="12.9629156"><ele>556.0</ele><time>2026-04-08T15:16:13.969Z</time></trkpt><trkpt lat="42.3924684" lon="12.9628713"><ele>558.0</ele><time>2026-04-08T15:16:14.969Z</time></trkpt><trkpt lat="42.3926019" lon="12.9628429"><ele>560.0</ele><time>2026-04-08T15:16:15.969Z</time></trkpt><trkpt lat="42.3927328" lon="12.9628163"><ele>562.0</ele><time>2026-04-08T15:16:16.969Z</time></trkpt><trkpt lat="42.3928522" lon="12.9627902"><ele>562.0</ele><time>2026-04-08T15:16:17.969Z</time></trkpt><trkpt lat="42.3929542" lon="12.9627629"><ele>562.0</ele><time>2026-04-08T15:16:18.97Z</time></trkpt><trkpt lat="42.3930479" lon="12.9627493"><ele>562.0</ele><time>2026-04-08T15:16:19.97Z</time></trkpt><trkpt lat="42.3931379" lon="12.9627619"><ele>562.0</ele><time>2026-04-08T15:16:20.97Z</time></trkpt><trkpt lat="42.3932388" lon="12.9627852"><ele>562.0</ele><time>2026-04-08T15:16:21.97Z</time></trkpt><trkpt lat="42.3933346" lon="12.962822"><ele>563.2</ele><time>2026-04-08T15:16:22.969Z</time></trkpt><trkpt lat="42.3934315" lon="12.962867"><ele>564.4000000000001</ele><time>2026-04-08T15:16:23.97Z</time></trkpt><trkpt lat="42.393528" lon="12.9628926"><ele>565.5999999999999</ele><time>2026-04-08T15:16:24.969Z</time></trkpt><trkpt lat="42.3936233" lon="12.9628935"><ele>566.8</ele><time>2026-04-08T15:16:25.969Z</time></trkpt><trkpt lat="42.3937171" lon="12.9628621"><ele>568.0</ele><time>2026-04-08T15:16:26.969Z</time></trkpt><trkpt lat="42.3938111" lon="12.962806"><ele>568.8</ele><time>2026-04-08T15:16:27.969Z</time></trkpt><trkpt lat="42.3939004" lon="12.9627292"><ele>569.5999999999999</ele><time>2026-04-08T15:16:28.97Z</time></trkpt><trkpt lat="42.3939898" lon="12.9626369"><ele>570.4000000000001</ele><time>2026-04-08T15:16:29.97Z</time></trkpt><trkpt lat="42.3940719" lon="12.9625344"><ele>571.2</ele><time>2026-04-08T15:16:30.969Z</time></trkpt><trkpt lat="42.3941528" lon="12.9624165"><ele>572.0</ele><time>2026-04-08T15:16:31.969Z</time></trkpt><trkpt lat="42.39423" lon="12.9622956"><ele>572.0</ele><time>2026-04-08T15:16:32.969Z</time></trkpt><trkpt lat="42.3943009" lon="12.9621665"><ele>572.0</ele><time>2026-04-08T15:16:33.969Z</time></trkpt><trkpt lat="42.3943717" lon="12.9620362"><ele>572.0</ele><time>2026-04-08T15:16:34.97Z</time></trkpt><trkpt lat="42.3944535" lon="12.9619112"><ele>572.0</ele><time>2026-04-08T15:16:35.969Z</time></trkpt><trkpt lat="42.39454" lon="12.9617915"><ele>569.25</ele><time>2026-04-08T15:16:36.969Z</time></trkpt><trkpt lat="42.3946303" lon="12.961688"><ele>566.5</ele><time>2026-04-08T15:16:37.97Z</time></trkpt><trkpt lat="42.3947276" lon="12.9616015"><ele>563.75</ele><time>2026-04-08T15:16:38.969Z</time></trkpt><trkpt lat="42.3948293" lon="12.9615258"><ele>561.0</ele><time>2026-04-08T15:16:39.969Z</time></trkpt><trkpt lat="42.3949349" lon="12.9614532"><ele>567.75</ele><time>2026-04-08T15:16:40.969Z</time></trkpt><trkpt lat="42.3950434" lon="12.9613919"><ele>574.5</ele><time>2026-04-08T15:16:41.97Z</time></trkpt><trkpt lat="42.3951661" lon="12.9613407"><ele>581.25</ele><time>2026-04-08T15:16:42.969Z</time></trkpt><trkpt lat="42.3952799" lon="12.9612968"><ele>588.0</ele><time>2026-04-08T15:16:43.969Z</time></trkpt><trkpt lat="42.3953914" lon="12.961269"><ele>588.0</ele><time>2026-04-08T15:16:44.969Z</time></trkpt><trkpt lat="42.3955005" lon="12.9612596"><ele>588.0</ele><time>2026-04-08T15:16:45.969Z</time></trkpt><trkpt lat="42.3956021" lon="12.9612705"><ele>588.0</ele><time>2026-04-08T15:16:46.969Z</time></trkpt><trkpt lat="42.3956975" lon="12.9612843"><ele>588.0</ele><time>2026-04-08T15:16:47.969Z</time></trkpt><trkpt lat="42.395799" lon="12.9612863"><ele>588.0</ele><time>2026-04-08T15:16:48.969Z</time></trkpt><trkpt lat="42.3958958" lon="12.9612815"><ele>589.1999999999999</ele><time>2026-04-08T15:16:49.97Z</time></trkpt><trkpt lat="42.3959934" lon="12.9612607"><ele>590.4</ele><time>2026-04-08T15:16:50.969Z</time></trkpt><trkpt lat="42.3960901" lon="12.9612222"><ele>591.5999999999999</ele><time>2026-04-08T15:16:51.969Z</time></trkpt><trkpt lat="42.3961847" lon="12.9611499"><ele>592.8</ele><time>2026-04-08T15:16:52.969Z</time></trkpt><trkpt lat="42.3962845" lon="12.9610659"><ele>594.0</ele><time>2026-04-08T15:16:53.969Z</time></trkpt><trkpt lat="42.3963841" lon="12.9609765"><ele>594.8</ele><time>2026-04-08T15:16:54.969Z</time></trkpt><trkpt lat="42.3964788" lon="12.9608989"><ele>595.5999999999999</ele><time>2026-04-08T15:16:55.969Z</time></trkpt><trkpt lat="42.3965629" lon="12.9608517"><ele>596.4</ele><time>2026-04-08T15:16:56.969Z</time></trkpt><trkpt lat="42.3966559" lon="12.9608616"><ele>597.1999999999999</ele><time>2026-04-08T15:16:57.969Z</time></trkpt><trkpt lat="42.3967624" lon="12.9608671"><ele>598.0</ele><time>2026-04-08T15:16:58.969Z</time></trkpt><trkpt lat="42.3968541" lon="12.9608961"><ele>598.0</ele><time>2026-04-08T15:16:59.969Z</time></trkpt><trkpt lat="42.3969728" lon="12.9609669"><ele>598.0</ele><time>2026-04-08T15:17:00.969Z</time></trkpt><trkpt lat="42.3970866" lon="12.9610257"><ele>598.0</ele><time>2026-04-08T15:17:01.97Z</time></trkpt><trkpt lat="42.397211" lon="12.9611103"><ele>598.0</ele><time>2026-04-08T15:17:02.97Z</time></trkpt><trkpt lat="42.3973263" lon="12.9611884"><ele>599.0</ele><time>2026-04-08T15:17:03.969Z</time></trkpt><trkpt lat="42.3974336" lon="12.9612537"><ele>600.0</ele><time>2026-04-08T15:17:04.97Z</time></trkpt><trkpt lat="42.3975468" lon="12.9613166"><ele>601.0</ele><time>2026-04-08T15:17:05.969Z</time></trkpt><trkpt lat="42.3976153" lon="12.9613754"><ele>602.0</ele><time>2026-04-08T15:17:06.97Z</time></trkpt><trkpt lat="42.3976955" lon="12.9614656"><ele>603.0</ele><time>2026-04-08T15:17:07.97Z</time></trkpt><trkpt lat="42.3977746" lon="12.9615765"><ele>603.0</ele><time>2026-04-08T15:17:08.969Z</time></trkpt><trkpt lat="42.3978505" lon="12.961694"><ele>603.0</ele><time>2026-04-08T15:17:09.969Z</time></trkpt><trkpt lat="42.3979399" lon="12.9618108"><ele>603.0</ele><time>2026-04-08T15:17:10.969Z</time></trkpt><trkpt lat="42.3980341" lon="12.9619326"><ele>603.0</ele><time>2026-04-08T15:17:11.969Z</time></trkpt><trkpt lat="42.3981531" lon="12.9620302"><ele>606.75</ele><time>2026-04-08T15:17:12.969Z</time></trkpt><trkpt lat="42.3982749" lon="12.9621145"><ele>610.5</ele><time>2026-04-08T15:17:13.969Z</time></trkpt><trkpt lat="42.3983965" lon="12.9621967"><ele>614.25</ele><time>2026-04-08T15:17:14.969Z</time></trkpt><trkpt lat="42.3985236" lon="12.9622679"><ele>618.0</ele><time>2026-04-08T15:17:15.969Z</time></trkpt><trkpt lat="42.3986519" lon="12.9623437"><ele>618.0</ele><time>2026-04-08T15:17:16.969Z</time></trkpt><trkpt lat="42.3987846" lon="12.9624185"><ele>618.0</ele><time>2026-04-08T15:17:17.97Z</time></trkpt><trkpt lat="42.398912" lon="12.9624936"><ele>618.0</ele><time>2026-04-08T15:17:18.969Z</time></trkpt><trkpt lat="42.3990377" lon="12.9625641"><ele>618.0</ele><time>2026-04-08T15:17:19.969Z</time></trkpt><trkpt lat="42.3991589" lon="12.9626174"><ele>623.5</ele><time>2026-04-08T15:17:20.97Z</time></trkpt><trkpt lat="42.3992813" lon="12.9626483"><ele>629.0</ele><time>2026-04-08T15:17:21.969Z</time></trkpt><trkpt lat="42.3993972" lon="12.9626648"><ele>634.5</ele><time>2026-04-08T15:17:22.969Z</time></trkpt><trkpt lat="42.399517" lon="12.9626834"><ele>640.0</ele><time>2026-04-08T15:17:23.969Z</time></trkpt><trkpt lat="42.399629" lon="12.9627218"><ele>633.6</ele><time>2026-04-08T15:17:24.97Z</time></trkpt><trkpt lat="42.3997354" lon="12.9627725"><ele>627.2</ele><time>2026-04-08T15:17:25.969Z</time></trkpt><trkpt lat="42.3998379" lon="12.9628136"><ele>620.8</ele><time>2026-04-08T15:17:26.969Z</time></trkpt><trkpt lat="42.3999233" lon="12.962851"><ele>614.4</ele><time>2026-04-08T15:17:27.969Z</time></trkpt><trkpt lat="42.3999872" lon="12.9629015"><ele>608.0</ele><time>2026-04-08T15:17:28.969Z</time></trkpt><trkpt lat="42.4000452" lon="12.9629563"><ele>608.0</ele><time>2026-04-08T15:17:29.969Z</time></trkpt><trkpt lat="42.4000869" lon="12.9630364"><ele>608.0</ele><time>2026-04-08T15:17:30.969Z</time></trkpt><trkpt lat="42.4001218" lon="12.963133"><ele>608.0</ele><time>2026-04-08T15:17:31.969Z</time></trkpt><trkpt lat="42.4001513" lon="12.9632331"><ele>608.0</ele><time>2026-04-08T15:17:32.97Z</time></trkpt><trkpt lat="42.40018" lon="12.9633352"><ele>608.0</ele><time>2026-04-08T15:17:33.97Z</time></trkpt><trkpt lat="42.4002027" lon="12.9634405"><ele>608.0</ele><time>2026-04-08T15:17:34.97Z</time></trkpt><trkpt lat="42.4002177" lon="12.9635497"><ele>612.0</ele><time>2026-04-08T15:17:35.969Z</time></trkpt><trkpt lat="42.4002302" lon="12.9636637"><ele>616.0</ele><time>2026-04-08T15:17:36.969Z</time></trkpt><trkpt lat="42.400236" lon="12.9637841"><ele>620.0</ele><time>2026-04-08T15:17:37.97Z</time></trkpt><trkpt lat="42.4002492" lon="12.9639165"><ele>624.0</ele><time>2026-04-08T15:17:38.969Z</time></trkpt><trkpt lat="42.4002599" lon="12.9640547"><ele>628.0</ele><time>2026-04-08T15:17:39.969Z</time></trkpt><trkpt lat="42.4002836" lon="12.9641997"><ele>631.25</ele><time>2026-04-08T15:17:40.969Z</time></trkpt><trkpt lat="42.4002983" lon="12.9643447"><ele>634.5</ele><time>2026-04-08T15:17:41.97Z</time></trkpt><trkpt lat="42.400315" lon="12.9644864"><ele>637.75</ele><time>2026-04-08T15:17:42.969Z</time></trkpt><trkpt lat="42.4003321" lon="12.9646368"><ele>641.0</ele><time>2026-04-08T15:17:43.969Z</time></trkpt><trkpt lat="42.4003778" lon="12.9647945"><ele>641.0</ele><time>2026-04-08T15:17:44.969Z</time></trkpt><trkpt lat="42.4004136" lon="12.9649473"><ele>641.0</ele><time>2026-04-08T15:17:45.969Z</time></trkpt><trkpt lat="42.4004545" lon="12.9650876"><ele>641.0</ele><time>2026-04-08T15:17:46.969Z</time></trkpt><trkpt lat="42.4005056" lon="12.9652333"><ele>641.0</ele><time>2026-04-08T15:17:47.969Z</time></trkpt><trkpt lat="42.4005579" lon="12.9653669"><ele>635.5</ele><time>2026-04-08T15:17:48.969Z</time></trkpt><trkpt lat="42.4006189" lon="12.9655082"><ele>630.0</ele><time>2026-04-08T15:17:49.969Z</time></trkpt><trkpt lat="42.4006859" lon="12.9656387"><ele>624.5</ele><time>2026-04-08T15:17:50.969Z</time></trkpt><trkpt lat="42.4007457" lon="12.965775"><ele>619.0</ele><time>2026-04-08T15:17:51.969Z</time></trkpt><trkpt lat="42.4007911" lon="12.9659179"><ele>619.0</ele><time>2026-04-08T15:17:52.969Z</time></trkpt><trkpt lat="42.400838" lon="12.9660704"><ele>619.0</ele><time>2026-04-08T15:17:53.969Z</time></trkpt><trkpt lat="42.4008937" lon="12.9662584"><ele>619.0</ele><time>2026-04-08T15:17:54.97Z</time></trkpt><trkpt lat="42.4009414" lon="12.9664288"><ele>619.0</ele><time>2026-04-08T15:17:55.969Z</time></trkpt><trkpt lat="42.4009953" lon="12.9665775"><ele>619.8</ele><time>2026-04-08T15:17:56.97Z</time></trkpt><trkpt lat="42.4010275" lon="12.9667078"><ele>620.5999999999999</ele><time>2026-04-08T15:17:57.969Z</time></trkpt><trkpt lat="42.4010528" lon="12.966844"><ele>621.4</ele><time>2026-04-08T15:17:58.969Z</time></trkpt><trkpt lat="42.4010319" lon="12.9669916"><ele>622.1999999999999</ele><time>2026-04-08T15:17:59.969Z</time></trkpt><trkpt lat="42.4010264" lon="12.96714"><ele>623.0</ele><time>2026-04-08T15:18:00.969Z</time></trkpt><trkpt lat="42.401032" lon="12.9672823"><ele>623.0</ele><time>2026-04-08T15:18:01.969Z</time></trkpt><trkpt lat="42.4010358" lon="12.9674188"><ele>623.0</ele><time>2026-04-08T15:18:02.97Z</time></trkpt><trkpt lat="42.4010704" lon="12.9675544"><ele>623.0</ele><time>2026-04-08T15:18:03.969Z</time></trkpt><trkpt lat="42.4011065" lon="12.9676927"><ele>623.0</ele><time>2026-04-08T15:18:04.97Z</time></trkpt><trkpt lat="42.4011713" lon="12.9678183"><ele>623.0</ele><time>2026-04-08T15:18:05.97Z</time></trkpt><trkpt lat="42.401232" lon="12.9679389"><ele>624.0</ele><time>2026-04-08T15:18:06.969Z</time></trkpt><trkpt lat="42.4012933" lon="12.9680331"><ele>625.0</ele><time>2026-04-08T15:18:07.969Z</time></trkpt><trkpt lat="42.401348" lon="12.9681066"><ele>626.0</ele><time>2026-04-08T15:18:08.969Z</time></trkpt><trkpt lat="42.4014053" lon="12.9681579"><ele>627.0</ele><time>2026-04-08T15:18:09.969Z</time></trkpt><trkpt lat="42.4015518" lon="12.9681407"><ele>628.0</ele><time>2026-04-08T15:18:11.969Z</time></trkpt><trkpt lat="42.4016314" lon="12.9680941"><ele>626.0</ele><time>2026-04-08T15:18:12.969Z</time></trkpt><trkpt lat="42.4017055" lon="12.9680151"><ele>624.0</ele><time>2026-04-08T15:18:13.969Z</time></trkpt><trkpt lat="42.4017703" lon="12.9679037"><ele>622.0</ele><time>2026-04-08T15:18:14.969Z</time></trkpt><trkpt lat="42.4018121" lon="12.9677681"><ele>620.0</ele><time>2026-04-08T15:18:15.969Z</time></trkpt><trkpt lat="42.4018342" lon="12.9676103"><ele>618.0</ele><time>2026-04-08T15:18:16.969Z</time></trkpt><trkpt lat="42.4018615" lon="12.967424"><ele>617.3333333333334</ele><time>2026-04-08T15:18:17.97Z</time></trkpt><trkpt lat="42.4018805" lon="12.9672283"><ele>616.6666666666667</ele><time>2026-04-08T15:18:18.969Z</time></trkpt><trkpt lat="42.4018913" lon="12.9670272"><ele>616.0</ele><time>2026-04-08T15:18:19.969Z</time></trkpt><trkpt lat="42.4018826" lon="12.9668031"><ele>615.6666666666667</ele><time>2026-04-08T15:18:20.969Z</time></trkpt><trkpt lat="42.4018564" lon="12.9665683"><ele>615.3333333333334</ele><time>2026-04-08T15:18:21.969Z</time></trkpt><trkpt lat="42.4018249" lon="12.9663247"><ele>615.0</ele><time>2026-04-08T15:18:22.97Z</time></trkpt><trkpt lat="42.4018014" lon="12.9660723"><ele>615.3333333333334</ele><time>2026-04-08T15:18:23.969Z</time></trkpt><trkpt lat="42.4017982" lon="12.965827"><ele>615.6666666666667</ele><time>2026-04-08T15:18:24.969Z</time></trkpt><trkpt lat="42.401781" lon="12.9655799"><ele>616.0</ele><time>2026-04-08T15:18:25.969Z</time></trkpt><trkpt lat="42.4017543" lon="12.9653341"><ele>616.0</ele><time>2026-04-08T15:18:26.969Z</time></trkpt><trkpt lat="42.4017343" lon="12.965086"><ele>616.0</ele><time>2026-04-08T15:18:27.969Z</time></trkpt><trkpt lat="42.4017162" lon="12.9648472"><ele>616.0</ele><time>2026-04-08T15:18:28.969Z</time></trkpt><trkpt lat="42.4016976" lon="12.9646248"><ele>617.25</ele><time>2026-04-08T15:18:29.969Z</time></trkpt><trkpt lat="42.4016837" lon="12.9644269"><ele>618.5</ele><time>2026-04-08T15:18:30.969Z</time></trkpt><trkpt lat="42.4016804" lon="12.964245"><ele>619.75</ele><time>2026-04-08T15:18:31.969Z</time></trkpt><trkpt lat="42.4016855" lon="12.9640607"><ele>621.0</ele><time>2026-04-08T15:18:32.969Z</time></trkpt><trkpt lat="42.401702" lon="12.9638689"><ele>623.6666666666666</ele><time>2026-04-08T15:18:33.97Z</time></trkpt><trkpt lat="42.4017231" lon="12.9636574"><ele>626.3333333333333</ele><time>2026-04-08T15:18:34.97Z</time></trkpt><trkpt lat="42.4017429" lon="12.9634565"><ele>629.0</ele><time>2026-04-08T15:18:35.969Z</time></trkpt><trkpt lat="42.4017684" lon="12.9632597"><ele>629.0</ele><time>2026-04-08T15:18:36.97Z</time></trkpt><trkpt lat="42.4017961" lon="12.9630818"><ele>629.0</ele><time>2026-04-08T15:18:37.97Z</time></trkpt><trkpt lat="42.4018263" lon="12.9629193"><ele>629.0</ele><time>2026-04-08T15:18:38.969Z</time></trkpt><trkpt lat="42.4018554" lon="12.9627776"><ele>629.0</ele><time>2026-04-08T15:18:39.969Z</time></trkpt><trkpt lat="42.4018745" lon="12.9626454"><ele>629.0</ele><time>2026-04-08T15:18:40.97Z</time></trkpt><trkpt lat="42.4018874" lon="12.9625063"><ele>629.0</ele><time>2026-04-08T15:18:41.969Z</time></trkpt><trkpt lat="42.4018975" lon="12.9623653"><ele>629.0</ele><time>2026-04-08T15:18:42.969Z</time></trkpt><trkpt lat="42.4018945" lon="12.9622135"><ele>629.0</ele><time>2026-04-08T15:18:43.97Z</time></trkpt><trkpt lat="42.4018975" lon="12.9620608"><ele>629.0</ele><time>2026-04-08T15:18:44.969Z</time></trkpt><trkpt lat="42.4019067" lon="12.9619094"><ele>629.0</ele><time>2026-04-08T15:18:45.969Z</time></trkpt><trkpt lat="42.4018984" lon="12.9617378"><ele>629.0</ele><time>2026-04-08T15:18:46.97Z</time></trkpt><trkpt lat="42.4018986" lon="12.9615694"><ele>629.0</ele><time>2026-04-08T15:18:47.969Z</time></trkpt><trkpt lat="42.4019021" lon="12.9613886"><ele>629.0</ele><time>2026-04-08T15:18:48.969Z</time></trkpt><trkpt lat="42.4018851" lon="12.9611885"><ele>630.5</ele><time>2026-04-08T15:18:49.969Z</time></trkpt><trkpt lat="42.4018722" lon="12.9609906"><ele>632.0</ele><time>2026-04-08T15:18:50.97Z</time></trkpt><trkpt lat="42.4018724" lon="12.9607988"><ele>633.5</ele><time>2026-04-08T15:18:51.97Z</time></trkpt><trkpt lat="42.4018772" lon="12.9606076"><ele>635.0</ele><time>2026-04-08T15:18:52.97Z</time></trkpt><trkpt lat="42.4018892" lon="12.9604358"><ele>636.0</ele><time>2026-04-08T15:18:53.969Z</time></trkpt><trkpt lat="42.4018913" lon="12.9602462"><ele>637.0</ele><time>2026-04-08T15:18:54.97Z</time></trkpt><trkpt lat="42.4018846" lon="12.9600442"><ele>638.0</ele><time>2026-04-08T15:18:55.969Z</time></trkpt><trkpt lat="42.401862" lon="12.959849"><ele>639.0</ele><time>2026-04-08T15:18:56.969Z</time></trkpt><trkpt lat="42.4018244" lon="12.959644"><ele>642.3333333333334</ele><time>2026-04-08T15:18:57.97Z</time></trkpt><trkpt lat="42.4017938" lon="12.9594339"><ele>645.6666666666667</ele><time>2026-04-08T15:18:58.969Z</time></trkpt><trkpt lat="42.4017505" lon="12.9592428"><ele>649.0</ele><time>2026-04-08T15:18:59.969Z</time></trkpt><trkpt lat="42.401696" lon="12.9590519"><ele>651.25</ele><time>2026-04-08T15:19:00.969Z</time></trkpt><trkpt lat="42.4016338" lon="12.9588719"><ele>653.5</ele><time>2026-04-08T15:19:01.969Z</time></trkpt><trkpt lat="42.4015599" lon="12.9587149"><ele>655.75</ele><time>2026-04-08T15:19:02.969Z</time></trkpt><trkpt lat="42.4014915" lon="12.9585721"><ele>658.0</ele><time>2026-04-08T15:19:03.969Z</time></trkpt><trkpt lat="42.4014198" lon="12.9584373"><ele>660.1666666666667</ele><time>2026-04-08T15:19:04.969Z</time></trkpt><trkpt lat="42.4013686" lon="12.9583237"><ele>662.3333333333334</ele><time>2026-04-08T15:19:05.969Z</time></trkpt><trkpt lat="42.4013399" lon="12.9582394"><ele>664.5</ele><time>2026-04-08T15:19:06.969Z</time></trkpt><trkpt lat="42.4013482" lon="12.9580939"><ele>666.6666666666666</ele><time>2026-04-08T15:19:08.969Z</time></trkpt><trkpt lat="42.4014245" lon="12.958053"><ele>668.8333333333333</ele><time>2026-04-08T15:19:10.969Z</time></trkpt><trkpt lat="42.4014827" lon="12.9580904"><ele>671.0</ele><time>2026-04-08T15:19:11.97Z</time></trkpt><trkpt lat="42.4015271" lon="12.9581553"><ele>671.0</ele><time>2026-04-08T15:19:12.969Z</time></trkpt><trkpt lat="42.4015689" lon="12.958241"><ele>671.0</ele><time>2026-04-08T15:19:13.969Z</time></trkpt><trkpt lat="42.4016147" lon="12.9583417"><ele>671.0</ele><time>2026-04-08T15:19:14.969Z</time></trkpt><trkpt lat="42.4016637" lon="12.9584405"><ele>671.0</ele><time>2026-04-08T15:19:15.969Z</time></trkpt><trkpt lat="42.4017159" lon="12.9585369"><ele>671.0</ele><time>2026-04-08T15:19:16.97Z</time></trkpt><trkpt lat="42.4017702" lon="12.9586347"><ele>671.0</ele><time>2026-04-08T15:19:17.97Z</time></trkpt><trkpt lat="42.401821" lon="12.9587241"><ele>668.8333333333333</ele><time>2026-04-08T15:19:18.969Z</time></trkpt><trkpt lat="42.4018722" lon="12.9588105"><ele>666.6666666666666</ele><time>2026-04-08T15:19:19.969Z</time></trkpt><trkpt lat="42.4019277" lon="12.9588952"><ele>664.5</ele><time>2026-04-08T15:19:20.969Z</time></trkpt><trkpt lat="42.4019851" lon="12.958988"><ele>662.3333333333334</ele><time>2026-04-08T15:19:21.969Z</time></trkpt><trkpt lat="42.4020434" lon="12.9590897"><ele>660.1666666666667</ele><time>2026-04-08T15:19:22.97Z</time></trkpt><trkpt lat="42.4020992" lon="12.9591964"><ele>658.0</ele><time>2026-04-08T15:19:23.969Z</time></trkpt><trkpt lat="42.4021527" lon="12.9593113"><ele>664.0</ele><time>2026-04-08T15:19:24.969Z</time></trkpt><trkpt lat="42.4022096" lon="12.9594294"><ele>670.0</ele><time>2026-04-08T15:19:25.969Z</time></trkpt><trkpt lat="42.4022621" lon="12.9595483"><ele>676.0</ele><time>2026-04-08T15:19:26.969Z</time></trkpt><trkpt lat="42.402308" lon="12.9596777"><ele>682.0</ele><time>2026-04-08T15:19:27.969Z</time></trkpt><trkpt lat="42.4023478" lon="12.9598191"><ele>688.0</ele><time>2026-04-08T15:19:28.97Z</time></trkpt><trkpt lat="42.4023863" lon="12.9599698"><ele>686.25</ele><time>2026-04-08T15:19:29.97Z</time></trkpt><trkpt lat="42.4024315" lon="12.9601272"><ele>684.5</ele><time>2026-04-08T15:19:30.969Z</time></trkpt><trkpt lat="42.4024798" lon="12.9602869"><ele>682.75</ele><time>2026-04-08T15:19:31.969Z</time></trkpt><trkpt lat="42.4025342" lon="12.9604447"><ele>681.0</ele><time>2026-04-08T15:19:32.97Z</time></trkpt><trkpt lat="42.4025839" lon="12.9606072"><ele>681.0</ele><time>2026-04-08T15:19:33.969Z</time></trkpt><trkpt lat="42.4026283" lon="12.960767"><ele>681.0</ele><time>2026-04-08T15:19:34.969Z</time></trkpt><trkpt lat="42.4026707" lon="12.9609187"><ele>681.0</ele><time>2026-04-08T15:19:35.969Z</time></trkpt><trkpt lat="42.4027102" lon="12.9610601"><ele>681.0</ele><time>2026-04-08T15:19:36.969Z</time></trkpt><trkpt lat="42.4027509" lon="12.9611944"><ele>680.1999999999999</ele><time>2026-04-08T15:19:37.969Z</time></trkpt><trkpt lat="42.4027842" lon="12.9613246"><ele>679.4</ele><time>2026-04-08T15:19:38.969Z</time></trkpt><trkpt lat="42.4028094" lon="12.9614614"><ele>678.6</ele><time>2026-04-08T15:19:39.969Z</time></trkpt><trkpt lat="42.4028266" lon="12.9616036"><ele>677.8</ele><time>2026-04-08T15:19:40.969Z</time></trkpt><trkpt lat="42.4028392" lon="12.9617456"><ele>677.0</ele><time>2026-04-08T15:19:41.969Z</time></trkpt><trkpt lat="42.4028477" lon="12.9618824"><ele>677.0</ele><time>2026-04-08T15:19:42.969Z</time></trkpt><trkpt lat="42.4028501" lon="12.9620015"><ele>677.0</ele><time>2026-04-08T15:19:43.969Z</time></trkpt><trkpt lat="42.4028531" lon="12.9621064"><ele>677.0</ele><time>2026-04-08T15:19:44.97Z</time></trkpt><trkpt lat="42.4028693" lon="12.9621951"><ele>677.0</ele><time>2026-04-08T15:19:45.969Z</time></trkpt><trkpt lat="42.4029038" lon="12.9622717"><ele>677.0</ele><time>2026-04-08T15:19:46.97Z</time></trkpt><trkpt lat="42.4029979" lon="12.9623066"><ele>677.0</ele><time>2026-04-08T15:19:48.969Z</time></trkpt><trkpt lat="42.4030758" lon="12.9622146"><ele>685.6</ele><time>2026-04-08T15:19:50.969Z</time></trkpt><trkpt lat="42.4030777" lon="12.9620998"><ele>694.2</ele><time>2026-04-08T15:19:51.97Z</time></trkpt><trkpt lat="42.4030697" lon="12.9619772"><ele>702.8</ele><time>2026-04-08T15:19:52.969Z</time></trkpt><trkpt lat="42.4030627" lon="12.9618353"><ele>711.4</ele><time>2026-04-08T15:19:53.969Z</time></trkpt><trkpt lat="42.4030647" lon="12.9616896"><ele>720.0</ele><time>2026-04-08T15:19:54.969Z</time></trkpt><trkpt lat="42.4030688" lon="12.9615366"><ele>720.25</ele><time>2026-04-08T15:19:55.97Z</time></trkpt><trkpt lat="42.4030735" lon="12.9613732"><ele>720.5</ele><time>2026-04-08T15:19:56.97Z</time></trkpt><trkpt lat="42.4030739" lon="12.9611951"><ele>720.75</ele><time>2026-04-08T15:19:57.969Z</time></trkpt><trkpt lat="42.4030751" lon="12.9610069"><ele>721.0</ele><time>2026-04-08T15:19:58.97Z</time></trkpt><trkpt lat="42.4030746" lon="12.9608076"><ele>723.0</ele><time>2026-04-08T15:19:59.97Z</time></trkpt><trkpt lat="42.4030745" lon="12.9606016"><ele>725.0</ele><time>2026-04-08T15:20:00.969Z</time></trkpt><trkpt lat="42.403066" lon="12.9603935"><ele>727.0</ele><time>2026-04-08T15:20:01.969Z</time></trkpt><trkpt lat="42.4030574" lon="12.9601729"><ele>729.3333333333334</ele><time>2026-04-08T15:20:02.969Z</time></trkpt><trkpt lat="42.4030371" lon="12.9599443"><ele>731.6666666666666</ele><time>2026-04-08T15:20:03.969Z</time></trkpt><trkpt lat="42.4030221" lon="12.9597164"><ele>734.0</ele><time>2026-04-08T15:20:04.969Z</time></trkpt><trkpt lat="42.4030047" lon="12.9594921"><ele>721.3333333333333</ele><time>2026-04-08T15:20:05.969Z</time></trkpt><trkpt lat="42.4029826" lon="12.9592589"><ele>708.6666666666666</ele><time>2026-04-08T15:20:06.97Z</time></trkpt><trkpt lat="42.4029659" lon="12.9590244"><ele>696.0</ele><time>2026-04-08T15:20:07.969Z</time></trkpt><trkpt lat="42.4029488" lon="12.9588087"><ele>696.0</ele><time>2026-04-08T15:20:08.969Z</time></trkpt><trkpt lat="42.4029286" lon="12.9585971"><ele>696.0</ele><time>2026-04-08T15:20:09.97Z</time></trkpt><trkpt lat="42.4028978" lon="12.9584104"><ele>696.0</ele><time>2026-04-08T15:20:10.97Z</time></trkpt><trkpt lat="42.4028709" lon="12.9582416"><ele>696.0</ele><time>2026-04-08T15:20:11.969Z</time></trkpt><trkpt lat="42.4028479" lon="12.9580884"><ele>697.6666666666666</ele><time>2026-04-08T15:20:12.97Z</time></trkpt><trkpt lat="42.4028361" lon="12.9579628"><ele>699.3333333333334</ele><time>2026-04-08T15:20:13.969Z</time></trkpt><trkpt lat="42.4028346" lon="12.9578607"><ele>701.0</ele><time>2026-04-08T15:20:14.969Z</time></trkpt><trkpt lat="42.4028438" lon="12.9577739"><ele>702.6666666666667</ele><time>2026-04-08T15:20:15.969Z</time></trkpt><trkpt lat="42.4028711" lon="12.9576889"><ele>704.3333333333334</ele><time>2026-04-08T15:20:16.97Z</time></trkpt><trkpt lat="42.4029224" lon="12.9575978"><ele>706.0</ele><time>2026-04-08T15:20:17.969Z</time></trkpt><trkpt lat="42.4029864" lon="12.9574957"><ele>711.8333333333334</ele><time>2026-04-08T15:20:18.969Z</time></trkpt><trkpt lat="42.4030562" lon="12.9573906"><ele>717.6666666666667</ele><time>2026-04-08T15:20:19.969Z</time></trkpt><trkpt lat="42.4031303" lon="12.9572963"><ele>723.5</ele><time>2026-04-08T15:20:20.969Z</time></trkpt><trkpt lat="42.4031861" lon="12.957196"><ele>729.3333333333334</ele><time>2026-04-08T15:20:21.969Z</time></trkpt><trkpt lat="42.4032365" lon="12.957142"><ele>735.1666666666666</ele><time>2026-04-08T15:20:22.969Z</time></trkpt><trkpt lat="42.4033044" lon="12.9570901"><ele>741.0</ele><time>2026-04-08T15:20:23.969Z</time></trkpt><trkpt lat="42.4033806" lon="12.9570432"><ele>741.0</ele><time>2026-04-08T15:20:24.97Z</time></trkpt><trkpt lat="42.4034656" lon="12.9570004"><ele>741.0</ele><time>2026-04-08T15:20:25.969Z</time></trkpt><trkpt lat="42.4035387" lon="12.9569564"><ele>741.0</ele><time>2026-04-08T15:20:26.969Z</time></trkpt><trkpt lat="42.4036091" lon="12.9569317"><ele>741.0</ele><time>2026-04-08T15:20:27.969Z</time></trkpt><trkpt lat="42.4037165" lon="12.9569334"><ele>741.0</ele><time>2026-04-08T15:20:29.969Z</time></trkpt><trkpt lat="42.4037761" lon="12.9570273"><ele>741.0</ele><time>2026-04-08T15:20:31.969Z</time></trkpt><trkpt lat="42.4037317" lon="12.9571664"><ele>741.0</ele><time>2026-04-08T15:20:33.97Z</time></trkpt><trkpt lat="42.403676" lon="12.9572347"><ele>741.0</ele><time>2026-04-08T15:20:34.969Z</time></trkpt><trkpt lat="42.4036115" lon="12.9573052"><ele>741.0</ele><time>2026-04-08T15:20:35.969Z</time></trkpt><trkpt lat="42.4035376" lon="12.9573802"><ele>741.0</ele><time>2026-04-08T15:20:36.97Z</time></trkpt><trkpt lat="42.4034727" lon="12.9574737"><ele>741.0</ele><time>2026-04-08T15:20:37.969Z</time></trkpt><trkpt lat="42.4034211" lon="12.9575721"><ele>741.0</ele><time>2026-04-08T15:20:38.969Z</time></trkpt><trkpt lat="42.4033935" lon="12.9576883"><ele>741.4</ele><time>2026-04-08T15:20:39.969Z</time></trkpt><trkpt lat="42.4033811" lon="12.9578169"><ele>741.8</ele><time>2026-04-08T15:20:40.969Z</time></trkpt><trkpt lat="42.403383" lon="12.9579495"><ele>742.1999999999999</ele><time>2026-04-08T15:20:41.969Z</time></trkpt><trkpt lat="42.4033985" lon="12.9580849"><ele>742.5999999999999</ele><time>2026-04-08T15:20:42.969Z</time></trkpt><trkpt lat="42.4034312" lon="12.9582293"><ele>743.0</ele><time>2026-04-08T15:20:43.969Z</time></trkpt><trkpt lat="42.4034777" lon="12.9583817"><ele>743.0</ele><time>2026-04-08T15:20:44.969Z</time></trkpt><trkpt lat="42.4035306" lon="12.958545"><ele>743.0</ele><time>2026-04-08T15:20:45.969Z</time></trkpt><trkpt lat="42.4035914" lon="12.9587203"><ele>743.0</ele><time>2026-04-08T15:20:46.969Z</time></trkpt><trkpt lat="42.4036594" lon="12.9589137"><ele>743.0</ele><time>2026-04-08T15:20:47.969Z</time></trkpt><trkpt lat="42.403726" lon="12.9591113"><ele>740.0</ele><time>2026-04-08T15:20:48.969Z</time></trkpt><trkpt lat="42.403794" lon="12.959312"><ele>737.0</ele><time>2026-04-08T15:20:49.969Z</time></trkpt><trkpt lat="42.403859" lon="12.9595074"><ele>734.0</ele><time>2026-04-08T15:20:50.969Z</time></trkpt><trkpt lat="42.4039249" lon="12.9596993"><ele>743.5</ele><time>2026-04-08T15:20:51.969Z</time></trkpt><trkpt lat="42.4039886" lon="12.9598774"><ele>753.0</ele><time>2026-04-08T15:20:52.969Z</time></trkpt><trkpt lat="42.4040502" lon="12.9600492"><ele>762.5</ele><time>2026-04-08T15:20:53.969Z</time></trkpt><trkpt lat="42.404116" lon="12.9602145"><ele>772.0</ele><time>2026-04-08T15:20:54.969Z</time></trkpt><trkpt lat="42.4041839" lon="12.9603886"><ele>772.0</ele><time>2026-04-08T15:20:55.969Z</time></trkpt><trkpt lat="42.4042519" lon="12.9605573"><ele>772.0</ele><time>2026-04-08T15:20:56.969Z</time></trkpt><trkpt lat="42.4043253" lon="12.9607269"><ele>772.0</ele><time>2026-04-08T15:20:57.969Z</time></trkpt><trkpt lat="42.4043964" lon="12.9608913"><ele>772.0</ele><time>2026-04-08T15:20:58.97Z</time></trkpt><trkpt lat="42.4044669" lon="12.9610582"><ele>770.25</ele><time>2026-04-08T15:20:59.969Z</time></trkpt><trkpt lat="42.4045322" lon="12.9612243"><ele>768.5</ele><time>2026-04-08T15:21:00.969Z</time></trkpt><trkpt lat="42.4045935" lon="12.9613891"><ele>766.75</ele><time>2026-04-08T15:21:01.969Z</time></trkpt><trkpt lat="42.4046449" lon="12.9615559"><ele>765.0</ele><time>2026-04-08T15:21:02.97Z</time></trkpt><trkpt lat="42.4046927" lon="12.9617277"><ele>773.75</ele><time>2026-04-08T15:21:03.969Z</time></trkpt><trkpt lat="42.4047423" lon="12.9618912"><ele>782.5</ele><time>2026-04-08T15:21:04.969Z</time></trkpt><trkpt lat="42.404789" lon="12.9620445"><ele>791.25</ele><time>2026-04-08T15:21:05.969Z</time></trkpt><trkpt lat="42.4048285" lon="12.9621767"><ele>800.0</ele><time>2026-04-08T15:21:06.97Z</time></trkpt><trkpt lat="42.4048534" lon="12.9622982"><ele>800.0</ele><time>2026-04-08T15:21:07.969Z</time></trkpt><trkpt lat="42.4048665" lon="12.9624136"><ele>800.0</ele><time>2026-04-08T15:21:08.969Z</time></trkpt><trkpt lat="42.4048648" lon="12.962541"><ele>800.0</ele><time>2026-04-08T15:21:09.969Z</time></trkpt><trkpt lat="42.4048581" lon="12.9626841"><ele>800.0</ele><time>2026-04-08T15:21:10.97Z</time></trkpt><trkpt lat="42.4048693" lon="12.9628315"><ele>800.0</ele><time>2026-04-08T15:21:11.969Z</time></trkpt><trkpt lat="42.4048921" lon="12.9629816"><ele>800.75</ele><time>2026-04-08T15:21:12.969Z</time></trkpt><trkpt lat="42.4049244" lon="12.9631439"><ele>801.5</ele><time>2026-04-08T15:21:13.969Z</time></trkpt><trkpt lat="42.4049576" lon="12.9633141"><ele>802.25</ele><time>2026-04-08T15:21:14.969Z</time></trkpt><trkpt lat="42.4049861" lon="12.9634704"><ele>803.0</ele><time>2026-04-08T15:21:15.969Z</time></trkpt><trkpt lat="42.4050179" lon="12.9636179"><ele>803.1666666666667</ele><time>2026-04-08T15:21:16.969Z</time></trkpt><trkpt lat="42.4050461" lon="12.9637466"><ele>803.3333333333334</ele><time>2026-04-08T15:21:17.969Z</time></trkpt><trkpt lat="42.4050812" lon="12.9638571"><ele>803.5</ele><time>2026-04-08T15:21:18.969Z</time></trkpt><trkpt lat="42.4051344" lon="12.9639362"><ele>803.6666666666667</ele><time>2026-04-08T15:21:19.969Z</time></trkpt><trkpt lat="42.4051954" lon="12.9639922"><ele>803.8333333333334</ele><time>2026-04-08T15:21:20.97Z</time></trkpt><trkpt lat="42.4052683" lon="12.9640084"><ele>804.0</ele><time>2026-04-08T15:21:21.969Z</time></trkpt><trkpt lat="42.4053494" lon="12.9640038"><ele>804.0</ele><time>2026-04-08T15:21:22.969Z</time></trkpt><trkpt lat="42.405435" lon="12.9639686"><ele>804.0</ele><time>2026-04-08T15:21:23.97Z</time></trkpt><trkpt lat="42.4055043" lon="12.9639251"><ele>804.0</ele><time>2026-04-08T15:21:24.969Z</time></trkpt><trkpt lat="42.4055747" lon="12.9638774"><ele>804.0</ele><time>2026-04-08T15:21:25.969Z</time></trkpt><trkpt lat="42.4056433" lon="12.9638277"><ele>804.0</ele><time>2026-04-08T15:21:26.969Z</time></trkpt><trkpt lat="42.4057111" lon="12.9637723"><ele>804.0</ele><time>2026-04-08T15:21:27.97Z</time></trkpt><trkpt lat="42.4057937" lon="12.9637092"><ele>805.4000000000001</ele><time>2026-04-08T15:21:28.969Z</time></trkpt><trkpt lat="42.4058808" lon="12.9636528"><ele>806.8</ele><time>2026-04-08T15:21:29.97Z</time></trkpt><trkpt lat="42.405972" lon="12.9636006"><ele>808.2</ele><time>2026-04-08T15:21:30.97Z</time></trkpt><trkpt lat="42.4060567" lon="12.9635554"><ele>809.5999999999999</ele><time>2026-04-08T15:21:31.97Z</time></trkpt><trkpt lat="42.4061487" lon="12.9635116"><ele>811.0</ele><time>2026-04-08T15:21:32.969Z</time></trkpt><trkpt lat="42.4062447" lon="12.9634746"><ele>811.6666666666666</ele><time>2026-04-08T15:21:33.969Z</time></trkpt><trkpt lat="42.4063295" lon="12.9634458"><ele>812.3333333333333</ele><time>2026-04-08T15:21:34.969Z</time></trkpt><trkpt lat="42.4064118" lon="12.9634365"><ele>813.0</ele><time>2026-04-08T15:21:35.969Z</time></trkpt><trkpt lat="42.4064942" lon="12.9634435"><ele>813.6666666666667</ele><time>2026-04-08T15:21:36.969Z</time></trkpt><trkpt lat="42.4065698" lon="12.963475"><ele>814.3333333333334</ele><time>2026-04-08T15:21:37.969Z</time></trkpt><trkpt lat="42.4066507" lon="12.9635284"><ele>815.0</ele><time>2026-04-08T15:21:38.969Z</time></trkpt><trkpt lat="42.4067399" lon="12.9635792"><ele>815.0</ele><time>2026-04-08T15:21:39.97Z</time></trkpt><trkpt lat="42.4068265" lon="12.9636325"><ele>815.0</ele><time>2026-04-08T15:21:40.969Z</time></trkpt><trkpt lat="42.4069132" lon="12.9636764"><ele>815.0</ele><time>2026-04-08T15:21:41.969Z</time></trkpt><trkpt lat="42.4070025" lon="12.9637198"><ele>815.0</ele><time>2026-04-08T15:21:42.97Z</time></trkpt><trkpt lat="42.4070904" lon="12.9637725"><ele>815.0</ele><time>2026-04-08T15:21:43.969Z</time></trkpt><trkpt lat="42.4071754" lon="12.9638257"><ele>817.2</ele><time>2026-04-08T15:21:44.97Z</time></trkpt><trkpt lat="42.4072605" lon="12.9638921"><ele>819.4</ele><time>2026-04-08T15:21:45.969Z</time></trkpt><trkpt lat="42.4073346" lon="12.9639633"><ele>821.5999999999999</ele><time>2026-04-08T15:21:46.969Z</time></trkpt><trkpt lat="42.4074036" lon="12.9640251"><ele>823.8</ele><time>2026-04-08T15:21:47.969Z</time></trkpt><trkpt lat="42.4074536" lon="12.9640944"><ele>826.0</ele><time>2026-04-08T15:21:48.97Z</time></trkpt><trkpt lat="42.4075138" lon="12.9642432"><ele>826.0</ele><time>2026-04-08T15:21:50.97Z</time></trkpt><trkpt lat="42.4075614" lon="12.9643714"><ele>826.0</ele><time>2026-04-08T15:21:52.97Z</time></trkpt><trkpt lat="42.4075879" lon="12.964514"><ele>826.0</ele><time>2026-04-08T15:21:54.969Z</time></trkpt><trkpt lat="42.4076069" lon="12.9646137"><ele>826.0</ele><time>2026-04-08T15:21:55.969Z</time></trkpt><trkpt lat="42.4076264" lon="12.9647279"><ele>826.0</ele><time>2026-04-08T15:21:56.97Z</time></trkpt><trkpt lat="42.4076531" lon="12.964855"><ele>826.0</ele><time>2026-04-08T15:21:57.97Z</time></trkpt><trkpt lat="42.4076863" lon="12.9649842"><ele>826.0</ele><time>2026-04-08T15:21:58.97Z</time></trkpt><trkpt lat="42.4077234" lon="12.9651181"><ele>826.0</ele><time>2026-04-08T15:21:59.969Z</time></trkpt><trkpt lat="42.4077626" lon="12.9652509"><ele>826.0</ele><time>2026-04-08T15:22:00.97Z</time></trkpt><trkpt lat="42.4077758" lon="12.9653624"><ele>826.0</ele><time>2026-04-08T15:22:01.969Z</time></trkpt><trkpt lat="42.4077861" lon="12.965471"><ele>825.6666666666666</ele><time>2026-04-08T15:22:02.969Z</time></trkpt><trkpt lat="42.407794" lon="12.9655638"><ele>825.3333333333333</ele><time>2026-04-08T15:22:03.969Z</time></trkpt><trkpt lat="42.4077831" lon="12.9656641"><ele>825.0</ele><time>2026-04-08T15:22:04.969Z</time></trkpt><trkpt lat="42.407746" lon="12.9657989"><ele>824.6666666666667</ele><time>2026-04-08T15:22:06.969Z</time></trkpt><trkpt lat="42.4076725" lon="12.9659294"><ele>824.3333333333334</ele><time>2026-04-08T15:22:08.969Z</time></trkpt><trkpt lat="42.4076561" lon="12.9660139"><ele>824.0</ele><time>2026-04-08T15:22:09.97Z</time></trkpt><trkpt lat="42.4076493" lon="12.9661183"><ele>823.6666666666667</ele><time>2026-04-08T15:22:10.969Z</time></trkpt><trkpt lat="42.4076599" lon="12.9662277"><ele>823.3333333333334</ele><time>2026-04-08T15:22:11.969Z</time></trkpt><trkpt lat="42.4076818" lon="12.9663484"><ele>823.0</ele><time>2026-04-08T15:22:12.97Z</time></trkpt><trkpt lat="42.4077139" lon="12.9664563"><ele>822.6666666666667</ele><time>2026-04-08T15:22:13.97Z</time></trkpt><trkpt lat="42.4077548" lon="12.9665608"><ele>822.3333333333334</ele><time>2026-04-08T15:22:14.97Z</time></trkpt><trkpt lat="42.4077859" lon="12.9666754"><ele>822.0</ele><time>2026-04-08T15:22:15.97Z</time></trkpt><trkpt lat="42.4078142" lon="12.9667848"><ele>820.2857142857142</ele><time>2026-04-08T15:22:16.969Z</time></trkpt><trkpt lat="42.4078491" lon="12.9668814"><ele>818.5714285714286</ele><time>2026-04-08T15:22:17.969Z</time></trkpt><trkpt lat="42.4078955" lon="12.9669569"><ele>816.8571428571429</ele><time>2026-04-08T15:22:18.97Z</time></trkpt><trkpt lat="42.4079436" lon="12.9670289"><ele>815.1428571428571</ele><time>2026-04-08T15:22:19.97Z</time></trkpt><trkpt lat="42.4080009" lon="12.9670935"><ele>813.4285714285714</ele><time>2026-04-08T15:22:20.969Z</time></trkpt><trkpt lat="42.4080573" lon="12.9671536"><ele>811.7142857142857</ele><time>2026-04-08T15:22:21.969Z</time></trkpt><trkpt lat="42.4081091" lon="12.9672178"><ele>810.0</ele><time>2026-04-08T15:22:22.969Z</time></trkpt><trkpt lat="42.4081631" lon="12.9672771"><ele>811.1666666666666</ele><time>2026-04-08T15:22:23.969Z</time></trkpt><trkpt lat="42.4082141" lon="12.9673465"><ele>812.3333333333333</ele><time>2026-04-08T15:22:24.969Z</time></trkpt><trkpt lat="42.4082706" lon="12.9674076"><ele>813.5</ele><time>2026-04-08T15:22:25.969Z</time></trkpt><trkpt lat="42.4083251" lon="12.9674706"><ele>814.6666666666666</ele><time>2026-04-08T15:22:26.969Z</time></trkpt><trkpt lat="42.4083938" lon="12.9675186"><ele>815.8333333333333</ele><time>2026-04-08T15:22:27.969Z</time></trkpt><trkpt lat="42.4084674" lon="12.9675732"><ele>817.0</ele><time>2026-04-08T15:22:28.969Z</time></trkpt><trkpt lat="42.4085417" lon="12.9676185"><ele>817.0</ele><time>2026-04-08T15:22:29.97Z</time></trkpt><trkpt lat="42.4086264" lon="12.9676435"><ele>817.0</ele><time>2026-04-08T15:22:30.97Z</time></trkpt><trkpt lat="42.4087084" lon="12.9676743"><ele>817.0</ele><time>2026-04-08T15:22:31.969Z</time></trkpt><trkpt lat="42.4088001" lon="12.9677007"><ele>817.0</ele><time>2026-04-08T15:22:32.97Z</time></trkpt><trkpt lat="42.408895" lon="12.9677207"><ele>817.0</ele><time>2026-04-08T15:22:33.969Z</time></trkpt><trkpt lat="42.4089975" lon="12.9677342"><ele>823.2</ele><time>2026-04-08T15:22:34.97Z</time></trkpt><trkpt lat="42.4090934" lon="12.967754"><ele>829.4000000000001</ele><time>2026-04-08T15:22:35.969Z</time></trkpt><trkpt lat="42.4091998" lon="12.9677795"><ele>835.5999999999999</ele><time>2026-04-08T15:22:36.969Z</time></trkpt><trkpt lat="42.4093004" lon="12.9677992"><ele>841.8</ele><time>2026-04-08T15:22:37.97Z</time></trkpt><trkpt lat="42.4093906" lon="12.9678309"><ele>848.0</ele><time>2026-04-08T15:22:38.969Z</time></trkpt><trkpt lat="42.4094786" lon="12.9678868"><ele>848.0</ele><time>2026-04-08T15:22:39.969Z</time></trkpt><trkpt lat="42.4095517" lon="12.9679317"><ele>848.0</ele><time>2026-04-08T15:22:40.969Z</time></trkpt><trkpt lat="42.4096287" lon="12.9680576"><ele>848.0</ele><time>2026-04-08T15:22:42.969Z</time></trkpt><trkpt lat="42.4096703" lon="12.9682038"><ele>848.0</ele><time>2026-04-08T15:22:44.969Z</time></trkpt><trkpt lat="42.4096646" lon="12.9682895"><ele>848.0</ele><time>2026-04-08T15:22:45.969Z</time></trkpt><trkpt lat="42.4096416" lon="12.9683989"><ele>847.1666666666667</ele><time>2026-04-08T15:22:46.97Z</time></trkpt><trkpt lat="42.409604" lon="12.9685217"><ele>846.3333333333334</ele><time>2026-04-08T15:22:47.969Z</time></trkpt><trkpt lat="42.4095887" lon="12.9686382"><ele>845.5</ele><time>2026-04-08T15:22:48.969Z</time></trkpt><trkpt lat="42.4095871" lon="12.9687363"><ele>844.6666666666667</ele><time>2026-04-08T15:22:49.969Z</time></trkpt><trkpt lat="42.4096064" lon="12.9688412"><ele>843.8333333333334</ele><time>2026-04-08T15:22:50.97Z</time></trkpt><trkpt lat="42.4096372" lon="12.9689365"><ele>843.0</ele><time>2026-04-08T15:22:51.969Z</time></trkpt><trkpt lat="42.4096789" lon="12.9690484"><ele>848.6666666666666</ele><time>2026-04-08T15:22:52.969Z</time></trkpt><trkpt lat="42.4097242" lon="12.9691578"><ele>854.3333333333333</ele><time>2026-04-08T15:22:53.969Z</time></trkpt><trkpt lat="42.4097628" lon="12.9692648"><ele>860.0</ele><time>2026-04-08T15:22:54.969Z</time></trkpt><trkpt lat="42.409785" lon="12.9693903"><ele>865.6666666666666</ele><time>2026-04-08T15:22:55.969Z</time></trkpt><trkpt lat="42.4098127" lon="12.9694906"><ele>871.3333333333333</ele><time>2026-04-08T15:22:56.969Z</time></trkpt><trkpt lat="42.4098329" lon="12.9695979"><ele>877.0</ele><time>2026-04-08T15:22:57.969Z</time></trkpt><trkpt lat="42.4098565" lon="12.9696962"><ele>876.9999999999999</ele><time>2026-04-08T15:22:58.969Z</time></trkpt><trkpt lat="42.4098954" lon="12.969775"><ele>877.0</ele><time>2026-04-08T15:22:59.969Z</time></trkpt><trkpt lat="42.4099576" lon="12.9698396"><ele>877.0</ele><time>2026-04-08T15:23:00.969Z</time></trkpt><trkpt lat="42.4100165" lon="12.9699194"><ele>877.0</ele><time>2026-04-08T15:23:01.969Z</time></trkpt><trkpt lat="42.4100755" lon="12.9700119"><ele>876.9999999999999</ele><time>2026-04-08T15:23:02.969Z</time></trkpt><trkpt lat="42.4101406" lon="12.9701072"><ele>877.0</ele><time>2026-04-08T15:23:03.969Z</time></trkpt><trkpt lat="42.4102102" lon="12.9701948"><ele>874.3333333333333</ele><time>2026-04-08T15:23:04.97Z</time></trkpt><trkpt lat="42.4102841" lon="12.9702829"><ele>871.6666666666666</ele><time>2026-04-08T15:23:05.969Z</time></trkpt><trkpt lat="42.410347" lon="12.9703624"><ele>869.0</ele><time>2026-04-08T15:23:06.969Z</time></trkpt><trkpt lat="42.4104079" lon="12.9704226"><ele>866.3333333333333</ele><time>2026-04-08T15:23:07.969Z</time></trkpt><trkpt lat="42.4104715" lon="12.9704719"><ele>863.6666666666666</ele><time>2026-04-08T15:23:08.97Z</time></trkpt><trkpt lat="42.4105413" lon="12.9705017"><ele>861.0</ele><time>2026-04-08T15:23:09.97Z</time></trkpt><trkpt lat="42.4106078" lon="12.9705113"><ele>870.25</ele><time>2026-04-08T15:23:10.969Z</time></trkpt><trkpt lat="42.410736" lon="12.970576"><ele>879.5</ele><time>2026-04-08T15:23:12.97Z</time></trkpt><trkpt lat="42.4108255" lon="12.9706519"><ele>888.75</ele><time>2026-04-08T15:23:14.969Z</time></trkpt><trkpt lat="42.4108269" lon="12.9707476"><ele>898.0</ele><time>2026-04-08T15:23:15.969Z</time></trkpt><trkpt lat="42.4108308" lon="12.9709338"><ele>898.5999999999999</ele><time>2026-04-08T15:23:17.969Z</time></trkpt><trkpt lat="42.4108199" lon="12.9710385"><ele>899.1999999999999</ele><time>2026-04-08T15:23:18.969Z</time></trkpt><trkpt lat="42.4107989" lon="12.9711679"><ele>899.8</ele><time>2026-04-08T15:23:19.969Z</time></trkpt><trkpt lat="42.4107867" lon="12.971299"><ele>900.4</ele><time>2026-04-08T15:23:20.969Z</time></trkpt><trkpt lat="42.4107641" lon="12.9714322"><ele>901.0</ele><time>2026-04-08T15:23:21.969Z</time></trkpt><trkpt lat="42.4107389" lon="12.9715695"><ele>903.8</ele><time>2026-04-08T15:23:22.97Z</time></trkpt><trkpt lat="42.4107137" lon="12.9717123"><ele>906.5999999999999</ele><time>2026-04-08T15:23:23.969Z</time></trkpt><trkpt lat="42.4106925" lon="12.9718559"><ele>909.4</ele><time>2026-04-08T15:23:24.97Z</time></trkpt><trkpt lat="42.4106722" lon="12.972002"><ele>912.2</ele><time>2026-04-08T15:23:25.969Z</time></trkpt><trkpt lat="42.4106459" lon="12.9721372"><ele>915.0</ele><time>2026-04-08T15:23:26.97Z</time></trkpt><trkpt lat="42.4106207" lon="12.9722754"><ele>915.0</ele><time>2026-04-08T15:23:27.97Z</time></trkpt><trkpt lat="42.4105994" lon="12.9724111"><ele>915.0</ele><time>2026-04-08T15:23:28.97Z</time></trkpt><trkpt lat="42.4105912" lon="12.9725443"><ele>915.0</ele><time>2026-04-08T15:23:29.969Z</time></trkpt><trkpt lat="42.4105822" lon="12.972674"><ele>915.0</ele><time>2026-04-08T15:23:30.97Z</time></trkpt><trkpt lat="42.4105767" lon="12.9728049"><ele>915.0</ele><time>2026-04-08T15:23:31.969Z</time></trkpt><trkpt lat="42.4105811" lon="12.9729375"><ele>914.4</ele><time>2026-04-08T15:23:32.969Z</time></trkpt><trkpt lat="42.4105925" lon="12.973069"><ele>913.8</ele><time>2026-04-08T15:23:33.969Z</time></trkpt><trkpt lat="42.4106169" lon="12.9731948"><ele>913.2</ele><time>2026-04-08T15:23:34.97Z</time></trkpt><trkpt lat="42.4106454" lon="12.9733171"><ele>912.6</ele><time>2026-04-08T15:23:35.969Z</time></trkpt><trkpt lat="42.4106831" lon="12.973433"><ele>912.0</ele><time>2026-04-08T15:23:36.969Z</time></trkpt><trkpt lat="42.4107474" lon="12.9735722"><ele>907.0</ele><time>2026-04-08T15:23:38.969Z</time></trkpt><trkpt lat="42.4108388" lon="12.9736351"><ele>902.0</ele><time>2026-04-08T15:23:40.969Z</time></trkpt><trkpt lat="42.4109086" lon="12.9736366"><ele>897.0</ele><time>2026-04-08T15:23:41.97Z</time></trkpt><trkpt lat="42.4109907" lon="12.973628"><ele>892.0</ele><time>2026-04-08T15:23:42.969Z</time></trkpt><trkpt lat="42.4110755" lon="12.9736089"><ele>887.0</ele><time>2026-04-08T15:23:43.969Z</time></trkpt><trkpt lat="42.4111663" lon="12.9735895"><ele>882.0</ele><time>2026-04-08T15:23:44.969Z</time></trkpt><trkpt lat="42.4112601" lon="12.9735803"><ele>885.4000000000001</ele><time>2026-04-08T15:23:45.969Z</time></trkpt><trkpt lat="42.4113511" lon="12.9735653"><ele>888.8000000000001</ele><time>2026-04-08T15:23:46.969Z</time></trkpt><trkpt lat="42.4114463" lon="12.9735507"><ele>892.2</ele><time>2026-04-08T15:23:47.969Z</time></trkpt><trkpt lat="42.4115457" lon="12.9735393"><ele>895.6</ele><time>2026-04-08T15:23:48.969Z</time></trkpt><trkpt lat="42.4116447" lon="12.9735235"><ele>899.0</ele><time>2026-04-08T15:23:49.969Z</time></trkpt><trkpt lat="42.4117461" lon="12.9735174"><ele>899.0</ele><time>2026-04-08T15:23:50.969Z</time></trkpt><trkpt lat="42.411848" lon="12.973505"><ele>899.0000000000001</ele><time>2026-04-08T15:23:51.969Z</time></trkpt><trkpt lat="42.4119451" lon="12.9734877"><ele>899.0000000000001</ele><time>2026-04-08T15:23:52.969Z</time></trkpt><trkpt lat="42.412042" lon="12.9735069"><ele>899.0</ele><time>2026-04-08T15:23:53.969Z</time></trkpt><trkpt lat="42.4121501" lon="12.9735108"><ele>899.0</ele><time>2026-04-08T15:23:54.97Z</time></trkpt><trkpt lat="42.4122515" lon="12.9735192"><ele>903.8000000000001</ele><time>2026-04-08T15:23:55.97Z</time></trkpt><trkpt lat="42.4123531" lon="12.973533"><ele>908.6000000000001</ele><time>2026-04-08T15:23:56.969Z</time></trkpt><trkpt lat="42.4124645" lon="12.9735619"><ele>913.4</ele><time>2026-04-08T15:23:57.969Z</time></trkpt><trkpt lat="42.4125743" lon="12.9735676"><ele>918.2</ele><time>2026-04-08T15:23:58.969Z</time></trkpt><trkpt lat="42.412678" lon="12.973601"><ele>923.0</ele><time>2026-04-08T15:23:59.969Z</time></trkpt><trkpt lat="42.4127841" lon="12.9736206"><ele>923.0</ele><time>2026-04-08T15:24:00.969Z</time></trkpt><trkpt lat="42.4128897" lon="12.973635"><ele>923.0</ele><time>2026-04-08T15:24:01.97Z</time></trkpt><trkpt lat="42.4129968" lon="12.9736564"><ele>923.0</ele><time>2026-04-08T15:24:02.969Z</time></trkpt><trkpt lat="42.413094" lon="12.9736981"><ele>923.0</ele><time>2026-04-08T15:24:03.97Z</time></trkpt><trkpt lat="42.4132067" lon="12.9737186"><ele>923.0</ele><time>2026-04-08T15:24:04.969Z</time></trkpt><trkpt lat="42.4133159" lon="12.9737448"><ele>929.2</ele><time>2026-04-08T15:24:05.969Z</time></trkpt><trkpt lat="42.4134037" lon="12.9737564"><ele>935.4</ele><time>2026-04-08T15:24:06.969Z</time></trkpt><trkpt lat="42.4134896" lon="12.9737745"><ele>941.6000000000001</ele><time>2026-04-08T15:24:07.969Z</time></trkpt><trkpt lat="42.4135627" lon="12.973775"><ele>947.8000000000001</ele><time>2026-04-08T15:24:08.97Z</time></trkpt><trkpt lat="42.4136307" lon="12.9737842"><ele>954.0</ele><time>2026-04-08T15:24:09.97Z</time></trkpt><trkpt lat="42.4108388" lon="12.9736351"><ele>944.8333333333334</ele><time>2026-04-08T15:23:40.969Z</time></trkpt><trkpt lat="42.4109086" lon="12.9736366"><ele>935.6666666666667</ele><time>2026-04-08T15:23:41.97Z</time></trkpt><trkpt lat="42.4109907" lon="12.973628"><ele>926.5</ele><time>2026-04-08T15:23:42.969Z</time></trkpt><trkpt lat="42.4110755" lon="12.9736089"><ele>917.3333333333334</ele><time>2026-04-08T15:23:43.969Z</time></trkpt><trkpt lat="42.4111663" lon="12.9735895"><ele>908.1666666666667</ele><time>2026-04-08T15:23:44.969Z</time></trkpt><trkpt lat="42.4112601" lon="12.9735803"><ele>899.0</ele><time>2026-04-08T15:23:45.969Z</time></trkpt><trkpt lat="42.4113511" lon="12.9735653"><ele>899.0</ele><time>2026-04-08T15:23:46.969Z</time></trkpt><trkpt lat="42.4114463" lon="12.9735507"><ele>899.0000000000001</ele><time>2026-04-08T15:23:47.969Z</time></trkpt><trkpt lat="42.4115457" lon="12.9735393"><ele>899.0000000000001</ele><time>2026-04-08T15:23:48.969Z</time></trkpt><trkpt lat="42.4116447" lon="12.9735235"><ele>899.0</ele><time>2026-04-08T15:23:49.969Z</time></trkpt><trkpt lat="42.4117461" lon="12.9735174"><ele>899.0</ele><time>2026-04-08T15:23:50.969Z</time></trkpt><trkpt lat="42.411848" lon="12.973505"><ele>899.0</ele><time>2026-04-08T15:23:51.969Z</time></trkpt><trkpt lat="42.4119451" lon="12.9734877"><ele>899.0000000000001</ele><time>2026-04-08T15:23:52.969Z</time></trkpt><trkpt lat="42.412042" lon="12.9735069"><ele>899.0000000000001</ele><time>2026-04-08T15:23:53.969Z</time></trkpt><trkpt lat="42.4121501" lon="12.9735108"><ele>899.0</ele><time>2026-04-08T15:23:54.97Z</time></trkpt><trkpt lat="42.4122515" lon="12.9735192"><ele>899.0</ele><time>2026-04-08T15:23:55.97Z</time></trkpt><trkpt lat="42.4123531" lon="12.973533"><ele>903.8000000000001</ele><time>2026-04-08T15:23:56.969Z</time></trkpt><trkpt lat="42.4124645" lon="12.9735619"><ele>908.6000000000001</ele><time>2026-04-08T15:23:57.969Z</time></trkpt><trkpt lat="42.4125743" lon="12.9735676"><ele>913.4</ele><time>2026-04-08T15:23:58.969Z</time></trkpt><trkpt lat="42.412678" lon="12.973601"><ele>918.2</ele><time>2026-04-08T15:23:59.969Z</time></trkpt><trkpt lat="42.4127841" lon="12.9736206"><ele>923.0</ele><time>2026-04-08T15:24:00.969Z</time></trkpt><trkpt lat="42.4128897" lon="12.973635"><ele>929.2</ele><time>2026-04-08T15:24:01.97Z</time></trkpt><trkpt lat="42.4129968" lon="12.9736564"><ele>935.4</ele><time>2026-04-08T15:24:02.969Z</time></trkpt><trkpt lat="42.413094" lon="12.9736981"><ele>941.6000000000001</ele><time>2026-04-08T15:24:03.97Z</time></trkpt><trkpt lat="42.4132067" lon="12.9737186"><ele>947.8000000000001</ele><time>2026-04-08T15:24:04.969Z</time></trkpt><trkpt lat="42.4133159" lon="12.9737448"><ele>954.0</ele><time>2026-04-08T15:24:05.969Z</time></trkpt><trkpt lat="42.4134037" lon="12.9737564"><ele>954.0</ele><time>2026-04-08T15:24:06.969Z</time></trkpt><trkpt lat="42.4134896" lon="12.9737745"><ele>954.0</ele><time>2026-04-08T15:24:07.969Z</time></trkpt><trkpt lat="42.4135627" lon="12.973775"><ele>954.0</ele><time>2026-04-08T15:24:08.97Z</time></trkpt><trkpt lat="42.4136307" lon="12.9737842"><ele>954.0</ele><time>2026-04-08T15:24:09.97Z</time></trkpt><trkpt lat="42.4137174" lon="12.973857"><ele>954.0</ele><time>2026-04-08T15:24:11.969Z</time></trkpt><trkpt lat="42.4137332" lon="12.9740006"><ele>954.0</ele><time>2026-04-08T15:24:13.969Z</time></trkpt><trkpt lat="42.4137164" lon="12.9740948"><ele>954.6</ele><time>2026-04-08T15:24:14.97Z</time></trkpt><trkpt lat="42.4136934" lon="12.9741963"><ele>955.2</ele><time>2026-04-08T15:24:15.969Z</time></trkpt><trkpt lat="42.4136611" lon="12.974306"><ele>955.8000000000001</ele><time>2026-04-08T15:24:16.969Z</time></trkpt><trkpt lat="42.4136614" lon="12.9744418"><ele>956.4000000000001</ele><time>2026-04-08T15:24:17.969Z</time></trkpt><trkpt lat="42.4136482" lon="12.9745783"><ele>957.0</ele><time>2026-04-08T15:24:18.969Z</time></trkpt><trkpt lat="42.4136339" lon="12.9747249"><ele>957.0</ele><time>2026-04-08T15:24:19.969Z</time></trkpt><trkpt lat="42.4136124" lon="12.974854"><ele>957.0</ele><time>2026-04-08T15:24:20.969Z</time></trkpt><trkpt lat="42.413584" lon="12.9749738"><ele>957.0</ele><time>2026-04-08T15:24:21.969Z</time></trkpt><trkpt lat="42.4135452" lon="12.9750882"><ele>957.0</ele><time>2026-04-08T15:24:22.969Z</time></trkpt><trkpt lat="42.4135126" lon="12.9752072"><ele>957.0</ele><time>2026-04-08T15:24:23.97Z</time></trkpt><trkpt lat="42.4134846" lon="12.9753257"><ele>957.8333333333334</ele><time>2026-04-08T15:24:24.969Z</time></trkpt><trkpt lat="42.4134616" lon="12.9754385"><ele>958.6666666666667</ele><time>2026-04-08T15:24:25.969Z</time></trkpt><trkpt lat="42.4134469" lon="12.975551"><ele>959.5</ele><time>2026-04-08T15:24:26.969Z</time></trkpt><trkpt lat="42.4134318" lon="12.9756718"><ele>960.3333333333334</ele><time>2026-04-08T15:24:27.969Z</time></trkpt><trkpt lat="42.413417" lon="12.9757918"><ele>961.1666666666667</ele><time>2026-04-08T15:24:28.97Z</time></trkpt><trkpt lat="42.4134114" lon="12.9759191"><ele>962.0</ele><time>2026-04-08T15:24:29.969Z</time></trkpt><trkpt lat="42.4134248" lon="12.9760246"><ele>962.0000000000001</ele><time>2026-04-08T15:24:30.969Z</time></trkpt><trkpt lat="42.4134412" lon="12.9761278"><ele>962.0</ele><time>2026-04-08T15:24:31.969Z</time></trkpt><trkpt lat="42.4134759" lon="12.9762263"><ele>962.0</ele><time>2026-04-08T15:24:32.97Z</time></trkpt><trkpt lat="42.4135213" lon="12.9763411"><ele>962.0</ele><time>2026-04-08T15:24:33.969Z</time></trkpt><trkpt lat="42.4135762" lon="12.9764437"><ele>962.0000000000001</ele><time>2026-04-08T15:24:34.969Z</time></trkpt><trkpt lat="42.4136386" lon="12.9765497"><ele>962.0</ele><time>2026-04-08T15:24:35.97Z</time></trkpt><trkpt lat="42.4136989" lon="12.9766671"><ele>958.4000000000001</ele><time>2026-04-08T15:24:36.969Z</time></trkpt><trkpt lat="42.4137582" lon="12.9767665"><ele>954.8000000000001</ele><time>2026-04-08T15:24:37.969Z</time></trkpt><trkpt lat="42.413812" lon="12.9768698"><ele>951.2</ele><time>2026-04-08T15:24:38.969Z</time></trkpt><trkpt lat="42.4138481" lon="12.9769937"><ele>947.6</ele><time>2026-04-08T15:24:39.97Z</time></trkpt><trkpt lat="42.413891" lon="12.977111"><ele>944.0</ele><time>2026-04-08T15:24:40.969Z</time></trkpt><trkpt lat="42.4139309" lon="12.9772248"><ele>951.3333333333334</ele><time>2026-04-08T15:24:41.97Z</time></trkpt><trkpt lat="42.4139642" lon="12.9773123"><ele>958.6666666666667</ele><time>2026-04-08T15:24:42.969Z</time></trkpt><trkpt lat="42.4140566" lon="12.9774152"><ele>966.0</ele><time>2026-04-08T15:24:44.969Z</time></trkpt><trkpt lat="42.4141173" lon="12.9774506"><ele>973.3333333333333</ele><time>2026-04-08T15:24:45.97Z</time></trkpt><trkpt lat="42.4141994" lon="12.9774645"><ele>980.6666666666666</ele><time>2026-04-08T15:24:46.969Z</time></trkpt><trkpt lat="42.4142881" lon="12.9774675"><ele>988.0</ele><time>2026-04-08T15:24:47.969Z</time></trkpt><trkpt lat="42.414379" lon="12.9774725"><ele>988.0</ele><time>2026-04-08T15:24:48.969Z</time></trkpt><trkpt lat="42.4144782" lon="12.9774753"><ele>988.0</ele><time>2026-04-08T15:24:49.969Z</time></trkpt><trkpt lat="42.4145754" lon="12.9774723"><ele>988.0</ele><time>2026-04-08T15:24:50.969Z</time></trkpt><trkpt lat="42.4146806" lon="12.9774816"><ele>988.0</ele><time>2026-04-08T15:24:51.969Z</time></trkpt><trkpt lat="42.4147844" lon="12.9774897"><ele>988.0</ele><time>2026-04-08T15:24:52.969Z</time></trkpt><trkpt lat="42.414899" lon="12.9774988"><ele>984.25</ele><time>2026-04-08T15:24:53.969Z</time></trkpt><trkpt lat="42.4150196" lon="12.9775043"><ele>980.5</ele><time>2026-04-08T15:24:54.97Z</time></trkpt><trkpt lat="42.4151489" lon="12.9775368"><ele>976.75</ele><time>2026-04-08T15:24:55.969Z</time></trkpt><trkpt lat="42.4152789" lon="12.9775529"><ele>973.0</ele><time>2026-04-08T15:24:56.969Z</time></trkpt><trkpt lat="42.4154169" lon="12.9775749"><ele>980.75</ele><time>2026-04-08T15:24:57.969Z</time></trkpt><trkpt lat="42.4155644" lon="12.9776277"><ele>988.5</ele><time>2026-04-08T15:24:58.969Z</time></trkpt><trkpt lat="42.415685" lon="12.977674"><ele>996.25</ele><time>2026-04-08T15:24:59.97Z</time></trkpt><trkpt lat="42.4158106" lon="12.9777235"><ele>1004.0</ele><time>2026-04-08T15:25:00.969Z</time></trkpt><trkpt lat="42.4159325" lon="12.9777565"><ele>1004.0</ele><time>2026-04-08T15:25:01.969Z</time></trkpt><trkpt lat="42.4160373" lon="12.9777788"><ele>1004.0000000000001</ele><time>2026-04-08T15:25:02.969Z</time></trkpt><trkpt lat="42.4161317" lon="12.9778056"><ele>1004.0000000000001</ele><time>2026-04-08T15:25:03.969Z</time></trkpt><trkpt lat="42.4161991" lon="12.9778313"><ele>1004.0</ele><time>2026-04-08T15:25:04.969Z</time></trkpt><trkpt lat="42.4162896" lon="12.9778998"><ele>1004.0</ele><time>2026-04-08T15:25:06.969Z</time></trkpt><trkpt lat="42.4163194" lon="12.9780005"><ele>1004.0</ele><time>2026-04-08T15:25:08.969Z</time></trkpt><trkpt lat="42.4163129" lon="12.9780927"><ele>1004.0000000000001</ele><time>2026-04-08T15:25:10.969Z</time></trkpt><trkpt lat="42.4162643" lon="12.9782033"><ele>1004.0000000000001</ele><time>2026-04-08T15:25:12.97Z</time></trkpt><trkpt lat="42.4161928" lon="12.9783439"><ele>1004.0</ele><time>2026-04-08T15:25:14.969Z</time></trkpt><trkpt lat="42.4161625" lon="12.9784403"><ele>1004.0</ele><time>2026-04-08T15:25:15.969Z</time></trkpt><trkpt lat="42.4161385" lon="12.9785571"><ele>1004.0</ele><time>2026-04-08T15:25:16.97Z</time></trkpt><trkpt lat="42.4161309" lon="12.9786844"><ele>1004.0000000000001</ele><time>2026-04-08T15:25:17.969Z</time></trkpt><trkpt lat="42.4161336" lon="12.9788151"><ele>1004.0000000000001</ele><time>2026-04-08T15:25:18.969Z</time></trkpt><trkpt lat="42.4161387" lon="12.978949"><ele>1004.0</ele><time>2026-04-08T15:25:19.969Z</time></trkpt><trkpt lat="42.4161396" lon="12.9790892"><ele>1004.0</ele><time>2026-04-08T15:25:20.97Z</time></trkpt><trkpt lat="42.4161369" lon="12.9792174"><ele>1004.0000000000001</ele><time>2026-04-08T15:25:21.97Z</time></trkpt><trkpt lat="42.4161287" lon="12.9793459"><ele>1004.0</ele><time>2026-04-08T15:25:22.969Z</time></trkpt><trkpt lat="42.4161117" lon="12.9794405"><ele>1004.0</ele><time>2026-04-08T15:25:23.969Z</time></trkpt><trkpt lat="42.4161058" lon="12.9795659"><ele>1004.0</ele><time>2026-04-08T15:25:24.97Z</time></trkpt><trkpt lat="42.4161031" lon="12.9796888"><ele>1004.0000000000001</ele><time>2026-04-08T15:25:25.969Z</time></trkpt><trkpt lat="42.4161012" lon="12.9798122"><ele>1004.0</ele><time>2026-04-08T15:25:26.969Z</time></trkpt><trkpt lat="42.4161043" lon="12.979909"><ele>1003.9999999999999</ele><time>2026-04-08T15:25:27.969Z</time></trkpt><trkpt lat="42.4161227" lon="12.979998"><ele>1004.0</ele><time>2026-04-08T15:25:28.969Z</time></trkpt><trkpt lat="42.4161442" lon="12.9800939"><ele>1003.9999999999999</ele><time>2026-04-08T15:25:29.97Z</time></trkpt><trkpt lat="42.4161676" lon="12.9801855"><ele>1003.9999999999999</ele><time>2026-04-08T15:25:30.969Z</time></trkpt><trkpt lat="42.4161959" lon="12.9802693"><ele>1004.0</ele><time>2026-04-08T15:25:31.969Z</time></trkpt><trkpt lat="42.4162377" lon="12.9803523"><ele>1003.9999999999999</ele><time>2026-04-08T15:25:32.969Z</time></trkpt><trkpt lat="42.4162953" lon="12.9804451"><ele>1003.9999999999999</ele><time>2026-04-08T15:25:33.969Z</time></trkpt><trkpt lat="42.4163534" lon="12.9805406"><ele>1002.4000000000001</ele><time>2026-04-08T15:25:34.97Z</time></trkpt><trkpt lat="42.416415" lon="12.9806479"><ele>1000.8000000000001</ele><time>2026-04-08T15:25:35.969Z</time></trkpt><trkpt lat="42.4164933" lon="12.9807653"><ele>999.1999999999999</ele><time>2026-04-08T15:25:36.969Z</time></trkpt><trkpt lat="42.4165755" lon="12.9808786"><ele>997.5999999999999</ele><time>2026-04-08T15:25:37.969Z</time></trkpt><trkpt lat="42.416655" lon="12.9809758"><ele>996.0</ele><time>2026-04-08T15:25:38.969Z</time></trkpt><trkpt lat="42.4167405" lon="12.9810633"><ele>996.0</ele><time>2026-04-08T15:25:39.969Z</time></trkpt><trkpt lat="42.416833" lon="12.9811345"><ele>995.9999999999999</ele><time>2026-04-08T15:25:40.969Z</time></trkpt><trkpt lat="42.4169255" lon="12.9811989"><ele>995.9999999999999</ele><time>2026-04-08T15:25:41.969Z</time></trkpt><trkpt lat="42.4170074" lon="12.981248"><ele>996.0</ele><time>2026-04-08T15:25:42.969Z</time></trkpt><trkpt lat="42.4170889" lon="12.981285"><ele>996.0</ele><time>2026-04-08T15:25:43.969Z</time></trkpt><trkpt lat="42.4171729" lon="12.9813159"><ele>1001.4</ele><time>2026-04-08T15:25:44.97Z</time></trkpt><trkpt lat="42.4172688" lon="12.9813406"><ele>1006.8</ele><time>2026-04-08T15:25:45.969Z</time></trkpt><trkpt lat="42.4173702" lon="12.981367"><ele>1012.1999999999999</ele><time>2026-04-08T15:25:46.969Z</time></trkpt><trkpt lat="42.4174649" lon="12.9813873"><ele>1017.5999999999999</ele><time>2026-04-08T15:25:47.969Z</time></trkpt><trkpt lat="42.4175492" lon="12.981404"><ele>1023.0</ele><time>2026-04-08T15:25:48.97Z</time></trkpt><trkpt lat="42.4176193" lon="12.9814246"><ele>1023.0</ele><time>2026-04-08T15:25:49.969Z</time></trkpt><trkpt lat="42.4176847" lon="12.9814349"><ele>1023.0</ele><time>2026-04-08T15:25:50.969Z</time></trkpt><trkpt lat="42.4177557" lon="12.9814536"><ele>1023.0</ele><time>2026-04-08T15:25:51.969Z</time></trkpt><trkpt lat="42.4178256" lon="12.9814849"><ele>1023.0</ele><time>2026-04-08T15:25:52.97Z</time></trkpt><trkpt lat="42.4179025" lon="12.9815171"><ele>1023.0</ele><time>2026-04-08T15:25:53.969Z</time></trkpt><trkpt lat="42.4179694" lon="12.9815514"><ele>1023.0</ele><time>2026-04-08T15:25:54.97Z</time></trkpt><trkpt lat="42.418075" lon="12.9816171"><ele>1024.6666666666667</ele><time>2026-04-08T15:25:56.969Z</time></trkpt><trkpt lat="42.4181448" lon="12.9816572"><ele>1026.3333333333333</ele><time>2026-04-08T15:25:58.969Z</time></trkpt><trkpt lat="42.4182238" lon="12.9817205"><ele>1028.0</ele><time>2026-04-08T15:26:57.969Z</time></trkpt><trkpt lat="42.4183179" lon="12.9817912"><ele>1029.6666666666665</ele><time>2026-04-08T15:26:59.969Z</time></trkpt><trkpt lat="42.418387" lon="12.9818266"><ele>1031.3333333333333</ele><time>2026-04-08T15:27:00.969Z</time></trkpt><trkpt lat="42.4184535" lon="12.9818804"><ele>1033.0</ele><time>2026-04-08T15:27:01.97Z</time></trkpt><trkpt lat="42.4185092" lon="12.9819366"><ele>1033.0</ele><time>2026-04-08T15:27:02.969Z</time></trkpt><trkpt lat="42.4185585" lon="12.9820793"><ele>1033.0</ele><time>2026-04-08T15:27:04.97Z</time></trkpt><trkpt lat="42.4185721" lon="12.9822557"><ele>1033.0</ele><time>2026-04-08T15:27:06.969Z</time></trkpt><trkpt lat="42.4185772" lon="12.9823565"><ele>1033.0</ele><time>2026-04-08T15:27:07.969Z</time></trkpt><trkpt lat="42.418582" lon="12.982467"><ele>1033.0</ele><time>2026-04-08T15:27:08.97Z</time></trkpt><trkpt lat="42.4185789" lon="12.9825827"><ele>1030.8</ele><time>2026-04-08T15:27:09.97Z</time></trkpt><trkpt lat="42.4185708" lon="12.9827067"><ele>1028.6</ele><time>2026-04-08T15:27:10.969Z</time></trkpt><trkpt lat="42.4185646" lon="12.9828435"><ele>1026.4</ele><time>2026-04-08T15:27:11.969Z</time></trkpt><trkpt lat="42.4185577" lon="12.9829726"><ele>1024.2</ele><time>2026-04-08T15:27:12.97Z</time></trkpt><trkpt lat="42.4185592" lon="12.9830762"><ele>1022.0</ele><time>2026-04-08T15:27:13.969Z</time></trkpt><trkpt lat="42.4185842" lon="12.9832377"><ele>1022.0000000000001</ele><time>2026-04-08T15:27:15.969Z</time></trkpt><trkpt lat="42.4186188" lon="12.9833165"><ele>1022.0</ele><time>2026-04-08T15:27:16.97Z</time></trkpt><trkpt lat="42.4186672" lon="12.9834014"><ele>1022.0</ele><time>2026-04-08T15:27:17.969Z</time></trkpt><trkpt lat="42.4187267" lon="12.9834853"><ele>1022.0</ele><time>2026-04-08T15:27:18.969Z</time></trkpt><trkpt lat="42.4187953" lon="12.98357"><ele>1022.0000000000001</ele><time>2026-04-08T15:27:19.969Z</time></trkpt><trkpt lat="42.4188685" lon="12.9836482"><ele>1022.0</ele><time>2026-04-08T15:27:20.969Z</time></trkpt><trkpt lat="42.4189473" lon="12.9837393"><ele>1022.4000000000001</ele><time>2026-04-08T15:27:21.97Z</time></trkpt><trkpt lat="42.4190307" lon="12.9838306"><ele>1022.8000000000001</ele><time>2026-04-08T15:27:22.97Z</time></trkpt><trkpt lat="42.4191154" lon="12.9839149"><ele>1023.2</ele><time>2026-04-08T15:27:23.969Z</time></trkpt><trkpt lat="42.419199" lon="12.984012"><ele>1023.6</ele><time>2026-04-08T15:27:24.97Z</time></trkpt><trkpt lat="42.4192796" lon="12.9841151"><ele>1024.0</ele><time>2026-04-08T15:27:25.969Z</time></trkpt><trkpt lat="42.4193464" lon="12.9842167"><ele>1024.0</ele><time>2026-04-08T15:27:26.97Z</time></trkpt><trkpt lat="42.4194017" lon="12.9843221"><ele>1024.0</ele><time>2026-04-08T15:27:27.969Z</time></trkpt><trkpt lat="42.4194521" lon="12.9844291"><ele>1024.0</ele><time>2026-04-08T15:27:28.969Z</time></trkpt><trkpt lat="42.4194984" lon="12.9845429"><ele>1024.0</ele><time>2026-04-08T15:27:29.969Z</time></trkpt><trkpt lat="42.4195424" lon="12.9846583"><ele>1024.0</ele><time>2026-04-08T15:27:30.969Z</time></trkpt><trkpt lat="42.419587" lon="12.9847717"><ele>1023.9999999999999</ele><time>2026-04-08T15:27:31.97Z</time></trkpt><trkpt lat="42.4196332" lon="12.9848771"><ele>1024.0</ele><time>2026-04-08T15:27:32.969Z</time></trkpt><trkpt lat="42.4196852" lon="12.9849658"><ele>1024.0</ele><time>2026-04-08T15:27:33.969Z</time></trkpt><trkpt lat="42.41974" lon="12.9850407"><ele>1024.0</ele><time>2026-04-08T15:27:34.969Z</time></trkpt><trkpt lat="42.4198079" lon="12.9851037"><ele>1023.9999999999999</ele><time>2026-04-08T15:27:35.969Z</time></trkpt><trkpt lat="42.4198831" lon="12.9851593"><ele>1024.0</ele><time>2026-04-08T15:27:36.969Z</time></trkpt><trkpt lat="42.4199654" lon="12.9852055"><ele>1026.6000000000001</ele><time>2026-04-08T15:27:37.969Z</time></trkpt><trkpt lat="42.4200423" lon="12.9852444"><ele>1029.2</ele><time>2026-04-08T15:27:38.969Z</time></trkpt><trkpt lat="42.4201284" lon="12.9852675"><ele>1031.8000000000002</ele><time>2026-04-08T15:27:39.97Z</time></trkpt><trkpt lat="42.4202169" lon="12.98528"><ele>1034.4</ele><time>2026-04-08T15:27:40.969Z</time></trkpt><trkpt lat="42.4203118" lon="12.9852945"><ele>1037.0</ele><time>2026-04-08T15:27:41.969Z</time></trkpt><trkpt lat="42.4204095" lon="12.9853142"><ele>1038.6666666666667</ele><time>2026-04-08T15:27:42.969Z</time></trkpt><trkpt lat="42.4205126" lon="12.985328"><ele>1040.3333333333335</ele><time>2026-04-08T15:27:43.969Z</time></trkpt><trkpt lat="42.4206123" lon="12.9853479"><ele>1042.0</ele><time>2026-04-08T15:27:44.969Z</time></trkpt><trkpt lat="42.4207004" lon="12.9853625"><ele>1043.6666666666667</ele><time>2026-04-08T15:27:45.969Z</time></trkpt><trkpt lat="42.4207814" lon="12.9853598"><ele>1045.3333333333333</ele><time>2026-04-08T15:27:46.969Z</time></trkpt><trkpt lat="42.4208511" lon="12.9853508"><ele>1047.0</ele><time>2026-04-08T15:27:47.969Z</time></trkpt><trkpt lat="42.4209224" lon="12.9853272"><ele>1047.0</ele><time>2026-04-08T15:27:48.969Z</time></trkpt><trkpt lat="42.4210032" lon="12.985291"><ele>1047.0</ele><time>2026-04-08T15:27:49.969Z</time></trkpt><trkpt lat="42.4210876" lon="12.9852623"><ele>1047.0</ele><time>2026-04-08T15:27:50.969Z</time></trkpt><trkpt lat="42.4211638" lon="12.98523"><ele>1047.0</ele><time>2026-04-08T15:27:51.97Z</time></trkpt><trkpt lat="42.4212341" lon="12.9852067"><ele>1047.0</ele><time>2026-04-08T15:27:52.969Z</time></trkpt><trkpt lat="42.4213083" lon="12.985177"><ele>1047.0</ele><time>2026-04-08T15:27:53.969Z</time></trkpt><trkpt lat="42.4213825" lon="12.9851518"><ele>1051.6</ele><time>2026-04-08T15:27:54.969Z</time></trkpt><trkpt lat="42.4214447" lon="12.9851277"><ele>1056.2</ele><time>2026-04-08T15:27:55.969Z</time></trkpt><trkpt lat="42.4215386" lon="12.9850883"><ele>1060.8</ele><time>2026-04-08T15:27:57.969Z</time></trkpt><trkpt lat="42.4215683" lon="12.9849846"><ele>1065.4</ele><time>2026-04-08T15:27:59.97Z</time></trkpt><trkpt lat="42.4214955" lon="12.984991"><ele>1070.0</ele><time>2026-04-08T15:28:01.969Z</time></trkpt><trkpt lat="42.421361" lon="12.9849969"><ele>1072.0</ele><time>2026-04-08T15:28:03.969Z</time></trkpt><trkpt lat="42.4212871" lon="12.9849769"><ele>1074.0</ele><time>2026-04-08T15:28:04.97Z</time></trkpt><trkpt lat="42.4212104" lon="12.9849787"><ele>1076.0</ele><time>2026-04-08T15:28:05.97Z</time></trkpt><trkpt lat="42.4211233" lon="12.9849843"><ele>1078.0</ele><time>2026-04-08T15:28:06.97Z</time></trkpt><trkpt lat="42.4210451" lon="12.9849966"><ele>1080.0</ele><time>2026-04-08T15:28:07.969Z</time></trkpt><trkpt lat="42.4209755" lon="12.9850111"><ele>1082.0</ele><time>2026-04-08T15:28:08.969Z</time></trkpt><trkpt lat="42.4208941" lon="12.985027"><ele>1082.0</ele><time>2026-04-08T15:28:09.969Z</time></trkpt><trkpt lat="42.4208082" lon="12.9850128"><ele>1082.0</ele><time>2026-04-08T15:28:10.97Z</time></trkpt><trkpt lat="42.4207245" lon="12.9850115"><ele>1082.0</ele><time>2026-04-08T15:28:11.97Z</time></trkpt><trkpt lat="42.4206396" lon="12.9850047"><ele>1082.0</ele><time>2026-04-08T15:28:12.969Z</time></trkpt><trkpt lat="42.4205608" lon="12.9849901"><ele>1082.0</ele><time>2026-04-08T15:28:13.969Z</time></trkpt><trkpt lat="42.4204707" lon="12.9849798"><ele>1082.0</ele><time>2026-04-08T15:28:14.969Z</time></trkpt><trkpt lat="42.4203664" lon="12.9849805"><ele>1079.0</ele><time>2026-04-08T15:28:15.969Z</time></trkpt><trkpt lat="42.4202835" lon="12.9849445"><ele>1076.0</ele><time>2026-04-08T15:28:16.969Z</time></trkpt><trkpt lat="42.4201939" lon="12.9849031"><ele>1073.0</ele><time>2026-04-08T15:28:17.969Z</time></trkpt><trkpt lat="42.4201158" lon="12.9848397"><ele>1070.0</ele><time>2026-04-08T15:28:18.969Z</time></trkpt><trkpt lat="42.4200385" lon="12.9847773"><ele>1067.0</ele><time>2026-04-08T15:28:19.969Z</time></trkpt><trkpt lat="42.4199747" lon="12.9846958"><ele>1067.0</ele><time>2026-04-08T15:28:20.969Z</time></trkpt><trkpt lat="42.4199175" lon="12.9845892"><ele>1067.0</ele><time>2026-04-08T15:28:21.969Z</time></trkpt><trkpt lat="42.4198679" lon="12.9844631"><ele>1067.0</ele><time>2026-04-08T15:28:22.969Z</time></trkpt><trkpt lat="42.4198146" lon="12.9843195"><ele>1067.0</ele><time>2026-04-08T15:28:23.969Z</time></trkpt><trkpt lat="42.4197635" lon="12.9841495"><ele>1062.5</ele><time>2026-04-08T15:28:24.97Z</time></trkpt><trkpt lat="42.4197037" lon="12.9839801"><ele>1058.0</ele><time>2026-04-08T15:28:25.969Z</time></trkpt><trkpt lat="42.4196243" lon="12.9838144"><ele>1053.5</ele><time>2026-04-08T15:28:26.969Z</time></trkpt><trkpt lat="42.4195252" lon="12.9836415"><ele>1049.0</ele><time>2026-04-08T15:28:27.969Z</time></trkpt><trkpt lat="42.4194301" lon="12.98348"><ele>1049.0</ele><time>2026-04-08T15:28:28.969Z</time></trkpt><trkpt lat="42.4193521" lon="12.9833503"><ele>1049.0</ele><time>2026-04-08T15:28:29.969Z</time></trkpt><trkpt lat="42.4192821" lon="12.9832341"><ele>1049.0</ele><time>2026-04-08T15:28:30.969Z</time></trkpt><trkpt lat="42.4192232" lon="12.9831159"><ele>1049.0</ele><time>2026-04-08T15:28:31.969Z</time></trkpt><trkpt lat="42.4191858" lon="12.9830176"><ele>1049.0</ele><time>2026-04-08T15:28:32.969Z</time></trkpt><trkpt lat="42.4191593" lon="12.9829124"><ele>1052.8333333333335</ele><time>2026-04-08T15:28:33.969Z</time></trkpt><trkpt lat="42.4191566" lon="12.9828155"><ele>1056.6666666666667</ele><time>2026-04-08T15:28:34.969Z</time></trkpt><trkpt lat="42.4191639" lon="12.9827045"><ele>1060.5</ele><time>2026-04-08T15:28:35.969Z</time></trkpt><trkpt lat="42.4191873" lon="12.9825835"><ele>1064.3333333333333</ele><time>2026-04-08T15:28:36.969Z</time></trkpt><trkpt lat="42.4192155" lon="12.9824489"><ele>1068.1666666666665</ele><time>2026-04-08T15:28:37.969Z</time></trkpt><trkpt lat="42.4192478" lon="12.9823222"><ele>1072.0</ele><time>2026-04-08T15:28:38.969Z</time></trkpt><trkpt lat="42.4192838" lon="12.9821904"><ele>1074.4</ele><time>2026-04-08T15:28:39.969Z</time></trkpt><trkpt lat="42.4193173" lon="12.9820441"><ele>1076.8000000000002</ele><time>2026-04-08T15:28:40.969Z</time></trkpt><trkpt lat="42.4193391" lon="12.9819062"><ele>1079.2</ele><time>2026-04-08T15:28:41.969Z</time></trkpt><trkpt lat="42.4193541" lon="12.9817715"><ele>1081.6000000000001</ele><time>2026-04-08T15:28:42.969Z</time></trkpt><trkpt lat="42.4193416" lon="12.9816523"><ele>1084.0</ele><time>2026-04-08T15:28:43.969Z</time></trkpt><trkpt lat="42.4193237" lon="12.9815346"><ele>1085.75</ele><time>2026-04-08T15:28:44.969Z</time></trkpt><trkpt lat="42.4192636" lon="12.9814158"><ele>1087.5</ele><time>2026-04-08T15:28:45.97Z</time></trkpt><trkpt lat="42.4191883" lon="12.9812954"><ele>1089.25</ele><time>2026-04-08T15:28:46.97Z</time></trkpt><trkpt lat="42.4191054" lon="12.981167"><ele>1091.0</ele><time>2026-04-08T15:28:47.969Z</time></trkpt><trkpt lat="42.4190133" lon="12.9810331"><ele>1091.0</ele><time>2026-04-08T15:28:48.969Z</time></trkpt><trkpt lat="42.418915" lon="12.9809055"><ele>1091.0</ele><time>2026-04-08T15:28:49.969Z</time></trkpt><trkpt lat="42.4188226" lon="12.9807981"><ele>1091.0</ele><time>2026-04-08T15:28:50.969Z</time></trkpt><trkpt lat="42.4187201" lon="12.9806988"><ele>1091.0</ele><time>2026-04-08T15:28:51.969Z</time></trkpt><trkpt lat="42.4186149" lon="12.9806033"><ele>1091.5</ele><time>2026-04-08T15:28:52.969Z</time></trkpt><trkpt lat="42.418515" lon="12.9805077"><ele>1092.0</ele><time>2026-04-08T15:28:53.969Z</time></trkpt><trkpt lat="42.418388" lon="12.9804241"><ele>1092.5</ele><time>2026-04-08T15:28:54.969Z</time></trkpt><trkpt lat="42.4182636" lon="12.9803411"><ele>1093.0</ele><time>2026-04-08T15:28:55.969Z</time></trkpt><trkpt lat="42.4181522" lon="12.9802844"><ele>1093.0</ele><time>2026-04-08T15:28:56.969Z</time></trkpt><trkpt lat="42.4180424" lon="12.9802333"><ele>1093.0</ele><time>2026-04-08T15:28:57.969Z</time></trkpt><trkpt lat="42.4179446" lon="12.9802209"><ele>1093.0</ele><time>2026-04-08T15:28:58.97Z</time></trkpt><trkpt lat="42.4178553" lon="12.9801944"><ele>1093.0</ele><time>2026-04-08T15:28:59.969Z</time></trkpt><trkpt lat="42.4177722" lon="12.9801707"><ele>1093.0</ele><time>2026-04-08T15:29:00.969Z</time></trkpt><trkpt lat="42.4176912" lon="12.98013"><ele>1094.1666666666665</ele><time>2026-04-08T15:29:01.969Z</time></trkpt><trkpt lat="42.417627" lon="12.9800555"><ele>1095.3333333333333</ele><time>2026-04-08T15:29:02.969Z</time></trkpt><trkpt lat="42.4175587" lon="12.9800022"><ele>1096.5</ele><time>2026-04-08T15:29:03.969Z</time></trkpt><trkpt lat="42.4175292" lon="12.9799082"><ele>1097.6666666666667</ele><time>2026-04-08T15:29:04.969Z</time></trkpt><trkpt lat="42.417491" lon="12.9798269"><ele>1098.8333333333335</ele><time>2026-04-08T15:29:05.969Z</time></trkpt><trkpt lat="42.4174858" lon="12.9797247"><ele>1100.0</ele><time>2026-04-08T15:29:06.969Z</time></trkpt><trkpt lat="42.4174761" lon="12.9796355"><ele>1100.0</ele><time>2026-04-08T15:29:07.969Z</time></trkpt><trkpt lat="42.4174983" lon="12.9795436"><ele>1100.0</ele><time>2026-04-08T15:29:08.969Z</time></trkpt><trkpt lat="42.4175261" lon="12.979438"><ele>1100.0</ele><time>2026-04-08T15:29:09.969Z</time></trkpt><trkpt lat="42.4175638" lon="12.979326"><ele>1100.0</ele><time>2026-04-08T15:29:10.969Z</time></trkpt><trkpt lat="42.4175928" lon="12.9791893"><ele>1100.0</ele><time>2026-04-08T15:29:11.969Z</time></trkpt><trkpt lat="42.41764" lon="12.9790661"><ele>1102.4</ele><time>2026-04-08T15:29:12.969Z</time></trkpt><trkpt lat="42.4176747" lon="12.978922"><ele>1104.8</ele><time>2026-04-08T15:29:13.969Z</time></trkpt><trkpt lat="42.4177215" lon="12.9787825"><ele>1107.2</ele><time>2026-04-08T15:29:14.969Z</time></trkpt><trkpt lat="42.4177678" lon="12.9786449"><ele>1109.6</ele><time>2026-04-08T15:29:15.969Z</time></trkpt><trkpt lat="42.4178112" lon="12.9785066"><ele>1112.0</ele><time>2026-04-08T15:29:16.97Z</time></trkpt><trkpt lat="42.417857" lon="12.97836"><ele>1110.4</ele><time>2026-04-08T15:29:17.969Z</time></trkpt><trkpt lat="42.4179029" lon="12.9782328"><ele>1108.8000000000002</ele><time>2026-04-08T15:29:18.97Z</time></trkpt><trkpt lat="42.4179529" lon="12.9781136"><ele>1107.2</ele><time>2026-04-08T15:29:19.97Z</time></trkpt><trkpt lat="42.4179986" lon="12.9780062"><ele>1105.6000000000001</ele><time>2026-04-08T15:29:20.969Z</time></trkpt><trkpt lat="42.4180566" lon="12.9779141"><ele>1104.0</ele><time>2026-04-08T15:29:21.969Z</time></trkpt><trkpt lat="42.4181265" lon="12.977841"><ele>1111.0</ele><time>2026-04-08T15:29:22.969Z</time></trkpt><trkpt lat="42.4181962" lon="12.9777534"><ele>1118.0</ele><time>2026-04-08T15:29:23.969Z</time></trkpt><trkpt lat="42.4182743" lon="12.9776755"><ele>1125.0</ele><time>2026-04-08T15:29:24.97Z</time></trkpt><trkpt lat="42.4183476" lon="12.9775991"><ele>1132.0</ele><time>2026-04-08T15:29:25.969Z</time></trkpt><trkpt lat="42.4184212" lon="12.9775318"><ele>1139.0</ele><time>2026-04-08T15:29:26.969Z</time></trkpt><trkpt lat="42.4184912" lon="12.9774634"><ele>1139.0</ele><time>2026-04-08T15:29:27.97Z</time></trkpt><trkpt lat="42.4185523" lon="12.9773954"><ele>1139.0</ele><time>2026-04-08T15:29:28.969Z</time></trkpt><trkpt lat="42.4186191" lon="12.9773345"><ele>1139.0</ele><time>2026-04-08T15:29:29.969Z</time></trkpt><trkpt lat="42.4186654" lon="12.9772747"><ele>1139.0</ele><time>2026-04-08T15:29:30.969Z</time></trkpt><trkpt lat="42.418683" lon="12.9771877"><ele>1139.0</ele><time>2026-04-08T15:29:31.97Z</time></trkpt><trkpt lat="42.4186838" lon="12.9770561"><ele>1139.0</ele><time>2026-04-08T15:29:33.969Z</time></trkpt><trkpt lat="42.4186248" lon="12.9769424"><ele>1139.0</ele><time>2026-04-08T15:29:35.969Z</time></trkpt><trkpt lat="42.4185676" lon="12.9768795"><ele>1139.0</ele><time>2026-04-08T15:29:36.969Z</time></trkpt><trkpt lat="42.4185197" lon="12.9768083"><ele>1139.0</ele><time>2026-04-08T15:29:37.969Z</time></trkpt><trkpt lat="42.4184374" lon="12.9766948"><ele>1139.0</ele><time>2026-04-08T15:29:38.969Z</time></trkpt><trkpt lat="42.4183331" lon="12.9765791"><ele>1139.0</ele><time>2026-04-08T15:29:39.969Z</time></trkpt><trkpt lat="42.4182161" lon="12.9764567"><ele>1141.3333333333335</ele><time>2026-04-08T15:29:40.969Z</time></trkpt><trkpt lat="42.4180781" lon="12.9763085"><ele>1143.6666666666667</ele><time>2026-04-08T15:29:41.969Z</time></trkpt><trkpt lat="42.4178879" lon="12.9761238"><ele>1146.0</ele><time>2026-04-08T15:29:42.969Z</time></trkpt><trkpt lat="42.4177144" lon="12.975963"><ele>1144.5</ele><time>2026-04-08T15:29:43.969Z</time></trkpt><trkpt lat="42.41752" lon="12.9757915"><ele>1143.0</ele><time>2026-04-08T15:29:44.969Z</time></trkpt><trkpt lat="42.4173233" lon="12.9756303"><ele>1135.0</ele><time>2026-04-08T15:29:45.969Z</time></trkpt><trkpt lat="42.4171426" lon="12.9754907"><ele>1127.0</ele><time>2026-04-08T15:29:46.969Z</time></trkpt><trkpt lat="42.4170001" lon="12.9753681"><ele>1119.0</ele><time>2026-04-08T15:29:47.969Z</time></trkpt><trkpt lat="42.4168711" lon="12.9752577"><ele>1119.0</ele><time>2026-04-08T15:29:48.969Z</time></trkpt><trkpt lat="42.4167633" lon="12.9751588"><ele>1119.0</ele><time>2026-04-08T15:29:49.969Z</time></trkpt><trkpt lat="42.4166737" lon="12.9750748"><ele>1119.0</ele><time>2026-04-08T15:29:50.969Z</time></trkpt><trkpt lat="42.4166128" lon="12.9750025"><ele>1119.0</ele><time>2026-04-08T15:29:51.969Z</time></trkpt><trkpt lat="42.4165705" lon="12.9749334"><ele>1119.0</ele><time>2026-04-08T15:29:52.969Z</time></trkpt><trkpt lat="42.4165598" lon="12.9747921"><ele>1124.2</ele><time>2026-04-08T15:29:54.969Z</time></trkpt><trkpt lat="42.4166289" lon="12.9746742"><ele>1129.4</ele><time>2026-04-08T15:29:56.969Z</time></trkpt><trkpt lat="42.4166869" lon="12.97462"><ele>1134.6</ele><time>2026-04-08T15:29:57.969Z</time></trkpt><trkpt lat="42.4167472" lon="12.9745616"><ele>1139.8</ele><time>2026-04-08T15:29:58.97Z</time></trkpt><trkpt lat="42.4168443" lon="12.974469"><ele>1145.0</ele><time>2026-04-08T15:29:59.97Z</time></trkpt><trkpt lat="42.4169508" lon="12.9743974"><ele>1145.0</ele><time>2026-04-08T15:30:00.969Z</time></trkpt><trkpt lat="42.4170638" lon="12.9743271"><ele>1145.0</ele><time>2026-04-08T15:30:01.969Z</time></trkpt><trkpt lat="42.4171835" lon="12.97426"><ele>1145.0</ele><time>2026-04-08T15:30:02.969Z</time></trkpt><trkpt lat="42.4172954" lon="12.9742026"><ele>1145.0</ele><time>2026-04-08T15:30:03.97Z</time></trkpt><trkpt lat="42.417399" lon="12.974152"><ele>1148.2</ele><time>2026-04-08T15:30:04.969Z</time></trkpt><trkpt lat="42.4175005" lon="12.9741004"><ele>1151.4</ele><time>2026-04-08T15:30:05.97Z</time></trkpt><trkpt lat="42.4176102" lon="12.9740623"><ele>1154.6</ele><time>2026-04-08T15:30:06.969Z</time></trkpt><trkpt lat="42.4177262" lon="12.9740169"><ele>1157.8</ele><time>2026-04-08T15:30:07.969Z</time></trkpt><trkpt lat="42.417828" lon="12.9739776"><ele>1161.0</ele><time>2026-04-08T15:30:08.97Z</time></trkpt><trkpt lat="42.4179202" lon="12.973953"><ele>1164.6666666666667</ele><time>2026-04-08T15:30:09.969Z</time></trkpt><trkpt lat="42.4180009" lon="12.9739389"><ele>1168.3333333333333</ele><time>2026-04-08T15:30:10.969Z</time></trkpt><trkpt lat="42.418069" lon="12.9739111"><ele>1172.0</ele><time>2026-04-08T15:30:11.97Z</time></trkpt><trkpt lat="42.4181367" lon="12.9738924"><ele>1175.6666666666665</ele><time>2026-04-08T15:30:12.969Z</time></trkpt><trkpt lat="42.4182181" lon="12.9738179"><ele>1179.3333333333333</ele><time>2026-04-08T15:30:14.969Z</time></trkpt><trkpt lat="42.4182541" lon="12.9737283"><ele>1183.0</ele><time>2026-04-08T15:30:16.969Z</time></trkpt><trkpt lat="42.4182424" lon="12.9736275"><ele>1183.0</ele><time>2026-04-08T15:30:17.969Z</time></trkpt><trkpt lat="42.4182311" lon="12.9735411"><ele>1183.0</ele><time>2026-04-08T15:30:18.969Z</time></trkpt><trkpt lat="42.4182055" lon="12.9734264"><ele>1183.0</ele><time>2026-04-08T15:30:19.97Z</time></trkpt><trkpt lat="42.4181709" lon="12.9732834"><ele>1183.0</ele><time>2026-04-08T15:30:20.969Z</time></trkpt><trkpt lat="42.4181461" lon="12.9731488"><ele>1183.0</ele><time>2026-04-08T15:30:21.969Z</time></trkpt><trkpt lat="42.4180819" lon="12.9729932"><ele>1183.0</ele><time>2026-04-08T15:30:22.969Z</time></trkpt><trkpt lat="42.4180298" lon="12.9728495"><ele>1183.0</ele><time>2026-04-08T15:30:23.969Z</time></trkpt><trkpt lat="42.4179588" lon="12.9727084"><ele>1183.0</ele><time>2026-04-08T15:30:24.97Z</time></trkpt><trkpt lat="42.4178833" lon="12.9725599"><ele>1183.0</ele><time>2026-04-08T15:30:25.969Z</time></trkpt><trkpt lat="42.4177738" lon="12.9724213"><ele>1177.0</ele><time>2026-04-08T15:30:26.969Z</time></trkpt><trkpt lat="42.4176853" lon="12.9722786"><ele>1171.0</ele><time>2026-04-08T15:30:27.969Z</time></trkpt><trkpt lat="42.4176091" lon="12.9721488"><ele>1165.0</ele><time>2026-04-08T15:30:28.969Z</time></trkpt><trkpt lat="42.4175455" lon="12.9720285"><ele>1159.0</ele><time>2026-04-08T15:30:29.969Z</time></trkpt><trkpt lat="42.4174821" lon="12.9719085"><ele>1159.0</ele><time>2026-04-08T15:30:30.969Z</time></trkpt><trkpt lat="42.4174153" lon="12.9717832"><ele>1159.0</ele><time>2026-04-08T15:30:31.97Z</time></trkpt><trkpt lat="42.4173496" lon="12.971669"><ele>1159.0</ele><time>2026-04-08T15:30:32.969Z</time></trkpt><trkpt lat="42.4173057" lon="12.9715635"><ele>1159.0</ele><time>2026-04-08T15:30:33.97Z</time></trkpt><trkpt lat="42.4172865" lon="12.9714805"><ele>1159.0</ele><time>2026-04-08T15:30:34.969Z</time></trkpt><trkpt lat="42.4172761" lon="12.9713642"><ele>1159.0</ele><time>2026-04-08T15:30:36.969Z</time></trkpt><trkpt lat="42.4173392" lon="12.9713964"><ele>1159.0</ele><time>2026-04-08T15:30:39.969Z</time></trkpt><trkpt lat="42.4173732" lon="12.9715039"><ele>1159.0</ele><time>2026-04-08T15:30:41.969Z</time></trkpt><trkpt lat="42.4174221" lon="12.9716089"><ele>1159.0</ele><time>2026-04-08T15:30:43.97Z</time></trkpt><trkpt lat="42.4174552" lon="12.9716862"><ele>1159.0</ele><time>2026-04-08T15:30:44.969Z</time></trkpt><trkpt lat="42.4175027" lon="12.9717683"><ele>1159.0</ele><time>2026-04-08T15:30:45.969Z</time></trkpt><trkpt lat="42.4175597" lon="12.9718563"><ele>1159.0</ele><time>2026-04-08T15:30:46.969Z</time></trkpt><trkpt lat="42.4176229" lon="12.9719456"><ele>1159.0</ele><time>2026-04-08T15:30:47.969Z</time></trkpt><trkpt lat="42.4176949" lon="12.972039"><ele>1159.0</ele><time>2026-04-08T15:30:48.969Z</time></trkpt><trkpt lat="42.4177729" lon="12.9721277"><ele>1159.0</ele><time>2026-04-08T15:30:49.969Z</time></trkpt><trkpt lat="42.4178553" lon="12.9722209"><ele>1159.0</ele><time>2026-04-08T15:30:50.969Z</time></trkpt><trkpt lat="42.4179408" lon="12.9723274"><ele>1163.8</ele><time>2026-04-08T15:30:51.969Z</time></trkpt><trkpt lat="42.4180289" lon="12.9724215"><ele>1168.6000000000001</ele><time>2026-04-08T15:30:52.969Z</time></trkpt><trkpt lat="42.4181027" lon="12.972527"><ele>1173.4</ele><time>2026-04-08T15:30:53.969Z</time></trkpt><trkpt lat="42.418179" lon="12.9726285"><ele>1178.2</ele><time>2026-04-08T15:30:54.969Z</time></trkpt><trkpt lat="42.4182576" lon="12.9727323"><ele>1183.0</ele><time>2026-04-08T15:30:55.969Z</time></trkpt><trkpt lat="42.4183267" lon="12.9728168"><ele>1183.0</ele><time>2026-04-08T15:30:56.969Z</time></trkpt><trkpt lat="42.4183955" lon="12.972897"><ele>1183.0</ele><time>2026-04-08T15:30:57.969Z</time></trkpt><trkpt lat="42.4184433" lon="12.9729796"><ele>1183.0</ele><time>2026-04-08T15:30:58.969Z</time></trkpt><trkpt lat="42.4185046" lon="12.9730602"><ele>1183.0</ele><time>2026-04-08T15:30:59.97Z</time></trkpt><trkpt lat="42.4185637" lon="12.9731323"><ele>1183.0</ele><time>2026-04-08T15:31:00.97Z</time></trkpt><trkpt lat="42.4186175" lon="12.9732172"><ele>1183.0</ele><time>2026-04-08T15:31:01.97Z</time></trkpt><trkpt lat="42.418672" lon="12.9733038"><ele>1183.0</ele><time>2026-04-08T15:31:02.969Z</time></trkpt><trkpt lat="42.4187306" lon="12.9733965"><ele>1183.0</ele><time>2026-04-08T15:31:03.969Z</time></trkpt><trkpt lat="42.4188024" lon="12.9734708"><ele>1183.0</ele><time>2026-04-08T15:31:04.969Z</time></trkpt><trkpt lat="42.4188739" lon="12.9735375"><ele>1183.0</ele><time>2026-04-08T15:31:05.969Z</time></trkpt><trkpt lat="42.4189409" lon="12.9735977"><ele>1183.0</ele><time>2026-04-08T15:31:06.969Z</time></trkpt><trkpt lat="42.4190056" lon="12.9736638"><ele>1183.0</ele><time>2026-04-08T15:31:07.969Z</time></trkpt><trkpt lat="42.4190555" lon="12.9737378"><ele>1187.5</ele><time>2026-04-08T15:31:08.969Z</time></trkpt><trkpt lat="42.419098" lon="12.9738134"><ele>1192.0</ele><time>2026-04-08T15:31:09.969Z</time></trkpt><trkpt lat="42.4191342" lon="12.9739702"><ele>1196.5</ele><time>2026-04-08T15:31:11.969Z</time></trkpt><trkpt lat="42.4191263" lon="12.9740599"><ele>1201.0</ele><time>2026-04-08T15:31:12.969Z</time></trkpt><trkpt lat="42.4191179" lon="12.9741553"><ele>1205.5</ele><time>2026-04-08T15:31:13.969Z</time></trkpt><trkpt lat="42.4191056" lon="12.9742476"><ele>1210.0</ele><time>2026-04-08T15:31:14.969Z</time></trkpt><trkpt lat="42.4190985" lon="12.9743345"><ele>1210.5</ele><time>2026-04-08T15:31:15.97Z</time></trkpt><trkpt lat="42.4190942" lon="12.9744822"><ele>1211.0</ele><time>2026-04-08T15:31:17.969Z</time></trkpt><trkpt lat="42.419091" lon="12.9746326"><ele>1211.5</ele><time>2026-04-08T15:31:19.969Z</time></trkpt><trkpt lat="42.4190999" lon="12.9747872"><ele>1212.0</ele><time>2026-04-08T15:31:21.969Z</time></trkpt><trkpt lat="42.4190562" lon="12.9749412"><ele>1212.0</ele><time>2026-04-08T15:31:23.969Z</time></trkpt><trkpt lat="42.4190147" lon="12.975018"><ele>1212.0</ele><time>2026-04-08T15:31:24.97Z</time></trkpt><trkpt lat="42.4189737" lon="12.9750898"><ele>1212.0</ele><time>2026-04-08T15:31:25.969Z</time></trkpt><trkpt lat="42.4189374" lon="12.9752085"><ele>1212.0</ele><time>2026-04-08T15:31:27.969Z</time></trkpt><trkpt lat="42.4189769" lon="12.9753126"><ele>1212.0</ele><time>2026-04-08T15:31:29.969Z</time></trkpt><trkpt lat="42.4190926" lon="12.9753902"><ele>1212.0</ele><time>2026-04-08T15:31:31.969Z</time></trkpt><trkpt lat="42.419177" lon="12.9754387"><ele>1211.2</ele><time>2026-04-08T15:31:32.969Z</time></trkpt><trkpt lat="42.4192622" lon="12.975486"><ele>1210.4</ele><time>2026-04-08T15:31:33.969Z</time></trkpt><trkpt lat="42.4193532" lon="12.9755328"><ele>1209.6</ele><time>2026-04-08T15:31:34.969Z</time></trkpt><trkpt lat="42.4194472" lon="12.9755827"><ele>1208.8</ele><time>2026-04-08T15:31:35.969Z</time></trkpt><trkpt lat="42.4195443" lon="12.975621"><ele>1208.0</ele><time>2026-04-08T15:31:36.969Z</time></trkpt><trkpt lat="42.4196381" lon="12.9756595"><ele>1212.8</ele><time>2026-04-08T15:31:37.969Z</time></trkpt><trkpt lat="42.4197274" lon="12.9756954"><ele>1217.6</ele><time>2026-04-08T15:31:38.969Z</time></trkpt><trkpt lat="42.4198245" lon="12.9757263"><ele>1222.4</ele><time>2026-04-08T15:31:39.969Z</time></trkpt><trkpt lat="42.4199241" lon="12.9757639"><ele>1227.2</ele><time>2026-04-08T15:31:40.969Z</time></trkpt><trkpt lat="42.4200233" lon="12.9757965"><ele>1232.0</ele><time>2026-04-08T15:31:41.969Z</time></trkpt><trkpt lat="42.4201213" lon="12.9758358"><ele>1233.5</ele><time>2026-04-08T15:31:42.97Z</time></trkpt><trkpt lat="42.4202144" lon="12.9758757"><ele>1235.0</ele><time>2026-04-08T15:31:43.969Z</time></trkpt><trkpt lat="42.4203022" lon="12.9759131"><ele>1236.5</ele><time>2026-04-08T15:31:44.969Z</time></trkpt><trkpt lat="42.4203877" lon="12.9759481"><ele>1238.0</ele><time>2026-04-08T15:31:45.97Z</time></trkpt><trkpt lat="42.4204636" lon="12.9759862"><ele>1239.5</ele><time>2026-04-08T15:31:46.969Z</time></trkpt><trkpt lat="42.420538" lon="12.976013"><ele>1241.0</ele><time>2026-04-08T15:31:47.969Z</time></trkpt><trkpt lat="42.4206137" lon="12.9760414"><ele>1241.0</ele><time>2026-04-08T15:31:48.969Z</time></trkpt><trkpt lat="42.4206804" lon="12.976071"><ele>1241.0</ele><time>2026-04-08T15:31:49.969Z</time></trkpt><trkpt lat="42.4207538" lon="12.9760991"><ele>1241.0</ele><time>2026-04-08T15:31:50.969Z</time></trkpt><trkpt lat="42.4208281" lon="12.9761241"><ele>1241.0</ele><time>2026-04-08T15:31:51.969Z</time></trkpt><trkpt lat="42.4208994" lon="12.9761507"><ele>1241.0</ele><time>2026-04-08T15:31:52.969Z</time></trkpt><trkpt lat="42.4209955" lon="12.9761882"><ele>1241.0</ele><time>2026-04-08T15:31:54.969Z</time></trkpt><trkpt lat="42.4210827" lon="12.9761983"><ele>1241.0</ele><time>2026-04-08T15:31:57.969Z</time></trkpt><trkpt lat="42.4210933" lon="12.9760982"><ele>1241.0</ele><time>2026-04-08T15:32:08.969Z</time></trkpt><trkpt lat="42.4210451" lon="12.9759893"><ele>1241.0</ele><time>2026-04-08T15:32:10.969Z</time></trkpt><trkpt lat="42.4210196" lon="12.9758882"><ele>1241.0</ele><time>2026-04-08T15:32:12.969Z</time></trkpt><trkpt lat="42.4210138" lon="12.9758021"><ele>1241.0</ele><time>2026-04-08T15:32:14.969Z</time></trkpt><trkpt lat="42.4210079" lon="12.975711"><ele>1241.0</ele><time>2026-04-08T15:32:16.969Z</time></trkpt><trkpt lat="42.4210166" lon="12.9756066"><ele>1242.6666666666667</ele><time>2026-04-08T15:32:18.97Z</time></trkpt><trkpt lat="42.4210383" lon="12.9754779"><ele>1244.3333333333335</ele><time>2026-04-08T15:32:20.97Z</time></trkpt><trkpt lat="42.4210498" lon="12.9753224"><ele>1246.0</ele><time>2026-04-08T15:32:22.969Z</time></trkpt><trkpt lat="42.4210602" lon="12.9752327"><ele>1247.6666666666667</ele><time>2026-04-08T15:32:23.969Z</time></trkpt><trkpt lat="42.4210669" lon="12.9751397"><ele>1249.3333333333333</ele><time>2026-04-08T15:32:24.969Z</time></trkpt><trkpt lat="42.4210756" lon="12.9750438"><ele>1251.0</ele><time>2026-04-08T15:32:25.969Z</time></trkpt><trkpt lat="42.421083" lon="12.9749517"><ele>1252.0</ele><time>2026-04-08T15:32:26.969Z</time></trkpt><trkpt lat="42.4210869" lon="12.9748642"><ele>1253.0</ele><time>2026-04-08T15:32:27.969Z</time></trkpt><trkpt lat="42.4211001" lon="12.9747351"><ele>1254.0</ele><time>2026-04-08T15:32:29.969Z</time></trkpt><trkpt lat="42.4211092" lon="12.9746482"><ele>1255.0</ele><time>2026-04-08T15:32:31.97Z</time></trkpt><trkpt lat="42.4210864" lon="12.9747457"><ele>1256.0</ele><time>2026-04-08T15:33:39.969Z</time></trkpt><trkpt lat="42.4210881" lon="12.974869"><ele>1257.0</ele><time>2026-04-08T15:33:42.969Z</time></trkpt><trkpt lat="42.421078" lon="12.9749595"><ele>1255.8</ele><time>2026-04-08T15:33:44.97Z</time></trkpt><trkpt lat="42.4210787" lon="12.9750895"><ele>1254.6</ele><time>2026-04-08T15:33:46.969Z</time></trkpt><trkpt lat="42.421067" lon="12.975224"><ele>1253.3999999999999</ele><time>2026-04-08T15:33:48.969Z</time></trkpt><trkpt lat="42.4210528" lon="12.9753617"><ele>1252.2</ele><time>2026-04-08T15:33:50.969Z</time></trkpt><trkpt lat="42.4210245" lon="12.9754974"><ele>1251.0</ele><time>2026-04-08T15:33:52.969Z</time></trkpt><trkpt lat="42.4210096" lon="12.9756226"><ele>1251.0</ele><time>2026-04-08T15:33:54.97Z</time></trkpt><trkpt lat="42.4210086" lon="12.9757678"><ele>1251.0</ele><time>2026-04-08T15:33:56.969Z</time></trkpt><trkpt lat="42.4210255" lon="12.9759001"><ele>1251.0</ele><time>2026-04-08T15:33:58.969Z</time></trkpt><trkpt lat="42.4210592" lon="12.9760322"><ele>1251.0</ele><time>2026-04-08T15:34:00.969Z</time></trkpt><trkpt lat="42.4211043" lon="12.97615"><ele>1251.0</ele><time>2026-04-08T15:34:02.969Z</time></trkpt><trkpt lat="42.4210864" lon="12.9747457"><ele>1251.0</ele><time>2026-04-08T15:33:39.969Z</time></trkpt><trkpt lat="42.4210881" lon="12.974869"><ele>1251.0</ele><time>2026-04-08T15:33:42.969Z</time></trkpt><trkpt lat="42.421078" lon="12.9749595"><ele>1251.0</ele><time>2026-04-08T15:33:44.97Z</time></trkpt><trkpt lat="42.4210787" lon="12.9750895"><ele>1251.0</ele><time>2026-04-08T15:33:46.969Z</time></trkpt><trkpt lat="42.421067" lon="12.975224"><ele>1251.0</ele><time>2026-04-08T15:33:48.969Z</time></trkpt><trkpt lat="42.4210528" lon="12.9753617"><ele>1251.0</ele><time>2026-04-08T15:33:50.969Z</time></trkpt><trkpt lat="42.4210245" lon="12.9754974"><ele>1251.0</ele><time>2026-04-08T15:33:52.969Z</time></trkpt><trkpt lat="42.4210096" lon="12.9756226"><ele>1251.0</ele><time>2026-04-08T15:33:54.97Z</time></trkpt><trkpt lat="42.4210086" lon="12.9757678"><ele>1251.0</ele><time>2026-04-08T15:33:56.969Z</time></trkpt><trkpt lat="42.4210255" lon="12.9759001"><ele>1251.0</ele><time>2026-04-08T15:33:58.969Z</time></trkpt><trkpt lat="42.4210592" lon="12.9760322"><ele>1249.3333333333333</ele><time>2026-04-08T15:34:00.969Z</time></trkpt><trkpt lat="42.4211043" lon="12.97615"><ele>1247.6666666666667</ele><time>2026-04-08T15:34:02.969Z</time></trkpt><trkpt lat="42.421162" lon="12.9762136"><ele>1246.0</ele><time>2026-04-08T15:34:04.97Z</time></trkpt><trkpt lat="42.4212389" lon="12.9762279"><ele>1244.3333333333335</ele><time>2026-04-08T15:34:06.969Z</time></trkpt><trkpt lat="42.4213661" lon="12.9762443"><ele>1242.6666666666667</ele><time>2026-04-08T15:34:08.97Z</time></trkpt><trkpt lat="42.4214324" lon="12.9762567"><ele>1241.0</ele><time>2026-04-08T15:34:09.969Z</time></trkpt><trkpt lat="42.4215031" lon="12.9762694"><ele>1244.142857142857</ele><time>2026-04-08T15:34:10.969Z</time></trkpt><trkpt lat="42.4215738" lon="12.9762734"><ele>1247.2857142857142</ele><time>2026-04-08T15:34:11.969Z</time></trkpt><trkpt lat="42.4216429" lon="12.9762846"><ele>1250.4285714285713</ele><time>2026-04-08T15:34:12.969Z</time></trkpt><trkpt lat="42.4217113" lon="12.976309"><ele>1253.5714285714284</ele><time>2026-04-08T15:34:13.969Z</time></trkpt><trkpt lat="42.4217712" lon="12.9763491"><ele>1256.7142857142858</ele><time>2026-04-08T15:34:14.969Z</time></trkpt><trkpt lat="42.4218362" lon="12.9763767"><ele>1259.8571428571427</ele><time>2026-04-08T15:34:15.969Z</time></trkpt><trkpt lat="42.4219101" lon="12.9764214"><ele>1263.0</ele><time>2026-04-08T15:34:16.969Z</time></trkpt><trkpt lat="42.4220057" lon="12.9764913"><ele>1263.0</ele><time>2026-04-08T15:34:17.969Z</time></trkpt><trkpt lat="42.4220798" lon="12.9765406"><ele>1263.0</ele><time>2026-04-08T15:34:18.969Z</time></trkpt><trkpt lat="42.4221538" lon="12.976592"><ele>1263.0</ele><time>2026-04-08T15:34:19.97Z</time></trkpt><trkpt lat="42.4222103" lon="12.9766872"><ele>1263.0</ele><time>2026-04-08T15:34:20.969Z</time></trkpt><trkpt lat="42.4222693" lon="12.9767592"><ele>1263.0</ele><time>2026-04-08T15:34:21.97Z</time></trkpt><trkpt lat="42.4223254" lon="12.9768164"><ele>1263.0</ele><time>2026-04-08T15:34:22.969Z</time></trkpt><trkpt lat="42.4223778" lon="12.9768881"><ele>1267.8333333333333</ele><time>2026-04-08T15:34:23.97Z</time></trkpt><trkpt lat="42.4224234" lon="12.9769524"><ele>1272.6666666666667</ele><time>2026-04-08T15:34:24.969Z</time></trkpt><trkpt lat="42.4224758" lon="12.9770429"><ele>1277.5</ele><time>2026-04-08T15:34:26.97Z</time></trkpt><trkpt lat="42.4225436" lon="12.9770163"><ele>1282.3333333333335</ele><time>2026-04-08T15:34:29.97Z</time></trkpt><trkpt lat="42.4225484" lon="12.9769193"><ele>1287.1666666666667</ele><time>2026-04-08T15:34:31.969Z</time></trkpt><trkpt lat="42.4225324" lon="12.9767708"><ele>1292.0</ele><time>2026-04-08T15:34:33.969Z</time></trkpt><trkpt lat="42.4225131" lon="12.9766857"><ele>1292.0</ele><time>2026-04-08T15:34:34.969Z</time></trkpt><trkpt lat="42.4224893" lon="12.9765932"><ele>1292.0</ele><time>2026-04-08T15:34:35.969Z</time></trkpt><trkpt lat="42.4224651" lon="12.9764828"><ele>1292.0</ele><time>2026-04-08T15:34:36.969Z</time></trkpt><trkpt lat="42.4224474" lon="12.9763734"><ele>1292.0</ele><time>2026-04-08T15:34:37.97Z</time></trkpt><trkpt lat="42.4224146" lon="12.9762576"><ele>1292.0</ele><time>2026-04-08T15:34:38.969Z</time></trkpt><trkpt lat="42.4223721" lon="12.9761522"><ele>1292.0</ele><time>2026-04-08T15:34:39.969Z</time></trkpt><trkpt lat="42.4223291" lon="12.9760429"><ele>1292.0</ele><time>2026-04-08T15:34:40.969Z</time></trkpt><trkpt lat="42.4222761" lon="12.9759331"><ele>1292.0</ele><time>2026-04-08T15:34:41.969Z</time></trkpt><trkpt lat="42.4222262" lon="12.975846"><ele>1292.0</ele><time>2026-04-08T15:34:42.969Z</time></trkpt><trkpt lat="42.422184" lon="12.9757724"><ele>1292.0</ele><time>2026-04-08T15:34:43.969Z</time></trkpt><trkpt lat="42.4221398" lon="12.975704"><ele>1292.0</ele><time>2026-04-08T15:34:44.969Z</time></trkpt><trkpt lat="42.4221113" lon="12.9756267"><ele>1292.0</ele><time>2026-04-08T15:34:45.97Z</time></trkpt><trkpt lat="42.4220899" lon="12.9755327"><ele>1290.4285714285716</ele><time>2026-04-08T15:34:46.97Z</time></trkpt><trkpt lat="42.4220836" lon="12.9754445"><ele>1288.857142857143</ele><time>2026-04-08T15:34:47.969Z</time></trkpt><trkpt lat="42.4220735" lon="12.975355"><ele>1287.2857142857142</ele><time>2026-04-08T15:34:48.969Z</time></trkpt><trkpt lat="42.4220703" lon="12.9752586"><ele>1285.7142857142858</ele><time>2026-04-08T15:34:49.969Z</time></trkpt><trkpt lat="42.42206" lon="12.9751621"><ele>1284.142857142857</ele><time>2026-04-08T15:34:50.969Z</time></trkpt><trkpt lat="42.4220596" lon="12.9750611"><ele>1282.5714285714287</ele><time>2026-04-08T15:34:51.969Z</time></trkpt><trkpt lat="42.4220632" lon="12.9749559"><ele>1281.0</ele><time>2026-04-08T15:34:52.97Z</time></trkpt><trkpt lat="42.4220794" lon="12.9748471"><ele>1281.0</ele><time>2026-04-08T15:34:53.969Z</time></trkpt><trkpt lat="42.4221009" lon="12.9747378"><ele>1281.0</ele><time>2026-04-08T15:34:54.97Z</time></trkpt><trkpt lat="42.422131" lon="12.9746397"><ele>1281.0</ele><time>2026-04-08T15:34:55.969Z</time></trkpt><trkpt lat="42.4221675" lon="12.9745528"><ele>1281.0</ele><time>2026-04-08T15:34:56.969Z</time></trkpt><trkpt lat="42.4221932" lon="12.9744727"><ele>1281.0</ele><time>2026-04-08T15:34:57.969Z</time></trkpt><trkpt lat="42.4222148" lon="12.9743086"><ele>1281.0</ele><time>2026-04-08T15:34:59.969Z</time></trkpt><trkpt lat="42.4222143" lon="12.9742165"><ele>1285.5</ele><time>2026-04-08T15:35:00.969Z</time></trkpt><trkpt lat="42.422211" lon="12.9741295"><ele>1290.0</ele><time>2026-04-08T15:35:01.969Z</time></trkpt><trkpt lat="42.4221997" lon="12.974039"><ele>1294.5</ele><time>2026-04-08T15:35:02.969Z</time></trkpt><trkpt lat="42.4221928" lon="12.9738721"><ele>1299.0</ele><time>2026-04-08T15:35:04.969Z</time></trkpt><trkpt lat="42.4221766" lon="12.973728"><ele>1303.5</ele><time>2026-04-08T15:35:06.969Z</time></trkpt><trkpt lat="42.4221568" lon="12.9736302"><ele>1308.0</ele><time>2026-04-08T15:35:08.969Z</time></trkpt><trkpt lat="42.4221636" lon="12.9735325"><ele>1308.0</ele><time>2026-04-08T15:35:35.969Z</time></trkpt><trkpt lat="42.4222196" lon="12.9734645"><ele>1308.0</ele><time>2026-04-08T15:35:38.969Z</time></trkpt><trkpt lat="42.4222855" lon="12.9735069"><ele>1308.0</ele><time>2026-04-08T15:35:42.969Z</time></trkpt><trkpt lat="42.4223197" lon="12.9735867"><ele>1308.0</ele><time>2026-04-08T15:36:24.969Z</time></trkpt><trkpt lat="42.4223626" lon="12.9737098"><ele>1308.0</ele><time>2026-04-08T15:36:26.969Z</time></trkpt><trkpt lat="42.4223972" lon="12.973867"><ele>1308.0</ele><time>2026-04-08T15:36:28.97Z</time></trkpt><trkpt lat="42.4224078" lon="12.9739576"><ele>1308.0</ele><time>2026-04-08T15:36:29.969Z</time></trkpt><trkpt lat="42.422419" lon="12.9740565"><ele>1308.0</ele><time>2026-04-08T15:36:30.97Z</time></trkpt><trkpt lat="42.4224323" lon="12.9741546"><ele>1308.0</ele><time>2026-04-08T15:36:31.969Z</time></trkpt><trkpt lat="42.4224463" lon="12.9742557"><ele>1308.0</ele><time>2026-04-08T15:36:32.969Z</time></trkpt><trkpt lat="42.4224556" lon="12.9743524"><ele>1308.0</ele><time>2026-04-08T15:36:33.97Z</time></trkpt><trkpt lat="42.4224706" lon="12.9745023"><ele>1308.0</ele><time>2026-04-08T15:36:35.969Z</time></trkpt><trkpt lat="42.4224897" lon="12.9746308"><ele>1308.0</ele><time>2026-04-08T15:36:37.969Z</time></trkpt><trkpt lat="42.4225178" lon="12.9747583"><ele>1308.0</ele><time>2026-04-08T15:36:39.969Z</time></trkpt><trkpt lat="42.4225671" lon="12.9748618"><ele>1308.0</ele><time>2026-04-08T15:36:41.969Z</time></trkpt><trkpt lat="42.4226387" lon="12.9749696"><ele>1308.0</ele><time>2026-04-08T15:36:43.969Z</time></trkpt><trkpt lat="42.4227082" lon="12.9750732"><ele>1308.0</ele><time>2026-04-08T15:36:45.97Z</time></trkpt><trkpt lat="42.4227753" lon="12.9751758"><ele>1308.0</ele><time>2026-04-08T15:36:47.97Z</time></trkpt><trkpt lat="42.4228372" lon="12.9752588"><ele>1308.0</ele><time>2026-04-08T15:36:49.969Z</time></trkpt><trkpt lat="42.4228836" lon="12.9753248"><ele>1308.0</ele><time>2026-04-08T15:36:51.969Z</time></trkpt><trkpt lat="42.4228187" lon="12.9752435"><ele>1308.0</ele><time>2026-04-08T15:37:04.969Z</time></trkpt><trkpt lat="42.4227586" lon="12.9751531"><ele>1308.0</ele><time>2026-04-08T15:37:06.97Z</time></trkpt><trkpt lat="42.4226881" lon="12.9750538"><ele>1308.0</ele><time>2026-04-08T15:37:08.97Z</time></trkpt><trkpt lat="42.4226178" lon="12.9749532"><ele>1308.0</ele><time>2026-04-08T15:37:10.969Z</time></trkpt><trkpt lat="42.4225448" lon="12.9748402"><ele>1308.0</ele><time>2026-04-08T15:37:12.969Z</time></trkpt><trkpt lat="42.4224916" lon="12.9747037"><ele>1308.0</ele><time>2026-04-08T15:37:14.97Z</time></trkpt><trkpt lat="42.4224645" lon="12.9745612"><ele>1308.0</ele><time>2026-04-08T15:37:16.969Z</time></trkpt><trkpt lat="42.4224527" lon="12.974417"><ele>1308.0</ele><time>2026-04-08T15:37:18.97Z</time></trkpt><trkpt lat="42.4227082" lon="12.9750732"><ele>1307.3333333333333</ele><time>2026-04-08T15:36:45.97Z</time></trkpt><trkpt lat="42.4227753" lon="12.9751758"><ele>1306.6666666666667</ele><time>2026-04-08T15:36:47.97Z</time></trkpt><trkpt lat="42.4228372" lon="12.9752588"><ele>1306.0</ele><time>2026-04-08T15:36:49.969Z</time></trkpt><trkpt lat="42.4228836" lon="12.9753248"><ele>1305.3333333333335</ele><time>2026-04-08T15:36:51.969Z</time></trkpt><trkpt lat="42.4228187" lon="12.9752435"><ele>1304.6666666666667</ele><time>2026-04-08T15:37:04.969Z</time></trkpt><trkpt lat="42.4227586" lon="12.9751531"><ele>1304.0</ele><time>2026-04-08T15:37:06.97Z</time></trkpt><trkpt lat="42.4226881" lon="12.9750538"><ele>1304.8000000000002</ele><time>2026-04-08T15:37:08.97Z</time></trkpt><trkpt lat="42.4226178" lon="12.9749532"><ele>1305.6000000000001</ele><time>2026-04-08T15:37:10.969Z</time></trkpt><trkpt lat="42.4225448" lon="12.9748402"><ele>1306.4</ele><time>2026-04-08T15:37:12.969Z</time></trkpt><trkpt lat="42.4224916" lon="12.9747037"><ele>1307.2</ele><time>2026-04-08T15:37:14.97Z</time></trkpt><trkpt lat="42.4224645" lon="12.9745612"><ele>1308.0</ele><time>2026-04-08T15:37:16.969Z</time></trkpt><trkpt lat="42.4224527" lon="12.974417"><ele>1308.0</ele><time>2026-04-08T15:37:18.97Z</time></trkpt><trkpt lat="42.4224393" lon="12.9742593"><ele>1308.0</ele><time>2026-04-08T15:37:20.969Z</time></trkpt><trkpt lat="42.4224307" lon="12.9741716"><ele>1308.0</ele><time>2026-04-08T15:37:21.969Z</time></trkpt><trkpt lat="42.4224191" lon="12.9740698"><ele>1308.0</ele><time>2026-04-08T15:37:22.97Z</time></trkpt><trkpt lat="42.4224071" lon="12.9739632"><ele>1308.0</ele><time>2026-04-08T15:37:23.969Z</time></trkpt><trkpt lat="42.422394" lon="12.9738667"><ele>1308.0</ele><time>2026-04-08T15:37:24.969Z</time></trkpt><trkpt lat="42.4223783" lon="12.9737763"><ele>1308.0</ele><time>2026-04-08T15:37:25.969Z</time></trkpt><trkpt lat="42.4223515" lon="12.9736924"><ele>1308.0</ele><time>2026-04-08T15:37:26.969Z</time></trkpt><trkpt lat="42.4222993" lon="12.9735542"><ele>1308.0</ele><time>2026-04-08T15:37:28.969Z</time></trkpt><trkpt lat="42.4222419" lon="12.9734891"><ele>1308.0</ele><time>2026-04-08T15:37:30.969Z</time></trkpt><trkpt lat="42.42216" lon="12.9734666"><ele>1308.0</ele><time>2026-04-08T15:37:33.969Z</time></trkpt><trkpt lat="42.4220971" lon="12.9734434"><ele>1308.0</ele><time>2026-04-08T15:37:35.969Z</time></trkpt><trkpt lat="42.4220486" lon="12.9733566"><ele>1305.4285714285713</ele><time>2026-04-08T15:37:37.969Z</time></trkpt><trkpt lat="42.4220166" lon="12.9732818"><ele>1302.857142857143</ele><time>2026-04-08T15:37:38.969Z</time></trkpt><trkpt lat="42.4219835" lon="12.9732044"><ele>1300.2857142857142</ele><time>2026-04-08T15:37:39.969Z</time></trkpt><trkpt lat="42.4219538" lon="12.9731198"><ele>1297.7142857142858</ele><time>2026-04-08T15:37:40.969Z</time></trkpt><trkpt lat="42.4219249" lon="12.9730317"><ele>1295.142857142857</ele><time>2026-04-08T15:37:41.969Z</time></trkpt><trkpt lat="42.4218987" lon="12.9729473"><ele>1292.5714285714287</ele><time>2026-04-08T15:37:42.969Z</time></trkpt><trkpt lat="42.4218798" lon="12.9728657"><ele>1290.0</ele><time>2026-04-08T15:37:43.969Z</time></trkpt><trkpt lat="42.4218486" lon="12.9726993"><ele>1290.0</ele><time>2026-04-08T15:37:45.97Z</time></trkpt><trkpt lat="42.4218722" lon="12.9725447"><ele>1290.0</ele><time>2026-04-08T15:37:47.969Z</time></trkpt><trkpt lat="42.4219457" lon="12.9724189"><ele>1290.0</ele><time>2026-04-08T15:37:49.969Z</time></trkpt><trkpt lat="42.422006" lon="12.9723696"><ele>1290.0</ele><time>2026-04-08T15:37:50.969Z</time></trkpt><trkpt lat="42.4220734" lon="12.9723297"><ele>1290.0</ele><time>2026-04-08T15:37:51.969Z</time></trkpt><trkpt lat="42.4221464" lon="12.9723105"><ele>1290.3333333333333</ele><time>2026-04-08T15:37:52.969Z</time></trkpt><trkpt lat="42.4222115" lon="12.9722931"><ele>1290.6666666666667</ele><time>2026-04-08T15:37:53.97Z</time></trkpt><trkpt lat="42.4222813" lon="12.9722681"><ele>1291.0</ele><time>2026-04-08T15:37:54.969Z</time></trkpt><trkpt lat="42.422389" lon="12.9722233"><ele>1291.3333333333335</ele><time>2026-04-08T15:37:56.97Z</time></trkpt><trkpt lat="42.4224652" lon="12.9722432"><ele>1291.6666666666667</ele><time>2026-04-08T15:37:58.97Z</time></trkpt><trkpt lat="42.4225063" lon="12.9723242"><ele>1292.0</ele><time>2026-04-08T15:38:00.969Z</time></trkpt><trkpt lat="42.4225129" lon="12.972445"><ele>1293.6666666666667</ele><time>2026-04-08T15:38:02.969Z</time></trkpt><trkpt lat="42.422518" lon="12.9725589"><ele>1295.3333333333335</ele><time>2026-04-08T15:38:03.969Z</time></trkpt><trkpt lat="42.422514" lon="12.9726799"><ele>1297.0</ele><time>2026-04-08T15:38:04.969Z</time></trkpt><trkpt lat="42.4225149" lon="12.9727932"><ele>1298.6666666666667</ele><time>2026-04-08T15:38:05.969Z</time></trkpt><trkpt lat="42.4225466" lon="12.9729187"><ele>1300.3333333333333</ele><time>2026-04-08T15:38:06.97Z</time></trkpt><trkpt lat="42.4225781" lon="12.9729933"><ele>1302.0</ele><time>2026-04-08T15:38:07.969Z</time></trkpt><trkpt lat="42.4226235" lon="12.9730533"><ele>1302.0</ele><time>2026-04-08T15:38:08.969Z</time></trkpt><trkpt lat="42.4227419" lon="12.9730863"><ele>1302.0</ele><time>2026-04-08T15:38:10.969Z</time></trkpt><trkpt lat="42.4228015" lon="12.9730556"><ele>1302.0</ele><time>2026-04-08T15:38:11.969Z</time></trkpt><trkpt lat="42.4228655" lon="12.9730214"><ele>1302.0</ele><time>2026-04-08T15:38:12.97Z</time></trkpt><trkpt lat="42.4229454" lon="12.9729739"><ele>1302.0</ele><time>2026-04-08T15:38:13.969Z</time></trkpt><trkpt lat="42.4230409" lon="12.9729494"><ele>1302.0</ele><time>2026-04-08T15:38:14.969Z</time></trkpt><trkpt lat="42.4231432" lon="12.9729098"><ele>1302.0</ele><time>2026-04-08T15:38:15.969Z</time></trkpt><trkpt lat="42.4232272" lon="12.9728654"><ele>1302.0</ele><time>2026-04-08T15:38:16.969Z</time></trkpt><trkpt lat="42.4233108" lon="12.9728372"><ele>1302.0</ele><time>2026-04-08T15:38:17.969Z</time></trkpt><trkpt lat="42.4233867" lon="12.972812"><ele>1302.0</ele><time>2026-04-08T15:38:18.969Z</time></trkpt><trkpt lat="42.4234632" lon="12.9727941"><ele>1302.0</ele><time>2026-04-08T15:38:19.969Z</time></trkpt><trkpt lat="42.4235273" lon="12.9727915"><ele>1302.0</ele><time>2026-04-08T15:38:20.969Z</time></trkpt><trkpt lat="42.4236561" lon="12.9728307"><ele>1302.0</ele><time>2026-04-08T15:38:22.969Z</time></trkpt><trkpt lat="42.4237302" lon="12.972882"><ele>1302.0</ele><time>2026-04-08T15:38:24.969Z</time></trkpt><trkpt lat="42.4238307" lon="12.9729289"><ele>1302.0</ele><time>2026-04-08T15:38:26.97Z</time></trkpt><trkpt lat="42.4239011" lon="12.9729338"><ele>1302.0</ele><time>2026-04-08T15:38:27.969Z</time></trkpt><trkpt lat="42.4239752" lon="12.9729613"><ele>1302.0</ele><time>2026-04-08T15:38:28.969Z</time></trkpt><trkpt lat="42.4241279" lon="12.9728493"><ele>1301.3333333333333</ele><time>2026-04-08T15:38:30.969Z</time></trkpt><trkpt lat="42.4242119" lon="12.972798"><ele>1300.6666666666667</ele><time>2026-04-08T15:38:31.969Z</time></trkpt><trkpt lat="42.4243098" lon="12.9727663"><ele>1300.0</ele><time>2026-04-08T15:38:32.969Z</time></trkpt><trkpt lat="42.4243894" lon="12.9727133"><ele>1299.3333333333335</ele><time>2026-04-08T15:38:33.969Z</time></trkpt><trkpt lat="42.424465" lon="12.9727107"><ele>1298.6666666666667</ele><time>2026-04-08T15:38:34.969Z</time></trkpt><trkpt lat="42.4245326" lon="12.9727123"><ele>1298.0</ele><time>2026-04-08T15:38:35.969Z</time></trkpt><trkpt lat="42.424605" lon="12.9727311"><ele>1297.0</ele><time>2026-04-08T15:38:36.969Z</time></trkpt><trkpt lat="42.4246913" lon="12.9727394"><ele>1296.0</ele><time>2026-04-08T15:38:37.969Z</time></trkpt><trkpt lat="42.4247766" lon="12.9727497"><ele>1295.0</ele><time>2026-04-08T15:38:38.969Z</time></trkpt><trkpt lat="42.4249004" lon="12.9727482"><ele>1294.0</ele><time>2026-04-08T15:38:39.969Z</time></trkpt><trkpt lat="42.4249953" lon="12.9727266"><ele>1293.0</ele><time>2026-04-08T15:38:40.97Z</time></trkpt><trkpt lat="42.4250936" lon="12.9727241"><ele>1293.0</ele><time>2026-04-08T15:38:41.969Z</time></trkpt><trkpt lat="42.4251802" lon="12.9727099"><ele>1293.0</ele><time>2026-04-08T15:38:42.969Z</time></trkpt><trkpt lat="42.4252659" lon="12.9726974"><ele>1293.0</ele><time>2026-04-08T15:38:43.969Z</time></trkpt><trkpt lat="42.4253518" lon="12.9726838"><ele>1293.0</ele><time>2026-04-08T15:38:44.969Z</time></trkpt><trkpt lat="42.4254249" lon="12.9726896"><ele>1293.0</ele><time>2026-04-08T15:38:45.97Z</time></trkpt><trkpt lat="42.4255015" lon="12.9726998"><ele>1293.0</ele><time>2026-04-08T15:38:46.969Z</time></trkpt><trkpt lat="42.4255682" lon="12.9727298"><ele>1291.3333333333333</ele><time>2026-04-08T15:38:47.969Z</time></trkpt><trkpt lat="42.4256354" lon="12.9727731"><ele>1289.6666666666667</ele><time>2026-04-08T15:38:48.969Z</time></trkpt><trkpt lat="42.4257053" lon="12.9728107"><ele>1288.0</ele><time>2026-04-08T15:38:49.969Z</time></trkpt><trkpt lat="42.4257785" lon="12.9728557"><ele>1286.3333333333335</ele><time>2026-04-08T15:38:50.969Z</time></trkpt><trkpt lat="42.4258534" lon="12.9728993"><ele>1284.6666666666667</ele><time>2026-04-08T15:38:51.969Z</time></trkpt><trkpt lat="42.4259312" lon="12.9729646"><ele>1283.0</ele><time>2026-04-08T15:38:52.969Z</time></trkpt><trkpt lat="42.4260047" lon="12.9730283"><ele>1283.0</ele><time>2026-04-08T15:38:53.969Z</time></trkpt><trkpt lat="42.4260822" lon="12.973083"><ele>1283.0</ele><time>2026-04-08T15:38:54.969Z</time></trkpt><trkpt lat="42.4261382" lon="12.9731395"><ele>1283.0</ele><time>2026-04-08T15:38:55.969Z</time></trkpt><trkpt lat="42.4262076" lon="12.9731961"><ele>1283.0</ele><time>2026-04-08T15:38:56.969Z</time></trkpt><trkpt lat="42.4262868" lon="12.9732583"><ele>1283.0</ele><time>2026-04-08T15:38:57.969Z</time></trkpt><trkpt lat="42.4263391" lon="12.973309"><ele>1283.0</ele><time>2026-04-08T15:38:58.97Z</time></trkpt><trkpt lat="42.4264368" lon="12.9734351"><ele>1283.6000000000001</ele><time>2026-04-08T15:39:00.969Z</time></trkpt><trkpt lat="42.4265207" lon="12.9735159"><ele>1284.2</ele><time>2026-04-08T15:39:01.97Z</time></trkpt><trkpt lat="42.4265942" lon="12.9735748"><ele>1284.8</ele><time>2026-04-08T15:39:02.969Z</time></trkpt><trkpt lat="42.426686" lon="12.9736744"><ele>1285.4</ele><time>2026-04-08T15:39:03.969Z</time></trkpt><trkpt lat="42.4267781" lon="12.9737586"><ele>1286.0</ele><time>2026-04-08T15:39:04.97Z</time></trkpt><trkpt lat="42.426862" lon="12.9738165"><ele>1286.0</ele><time>2026-04-08T15:39:05.969Z</time></trkpt><trkpt lat="42.4270131" lon="12.9738209"><ele>1286.0</ele><time>2026-04-08T15:39:06.969Z</time></trkpt><trkpt lat="42.4271325" lon="12.973842"><ele>1286.0</ele><time>2026-04-08T15:39:07.969Z</time></trkpt><trkpt lat="42.4272386" lon="12.9738397"><ele>1286.0</ele><time>2026-04-08T15:39:08.969Z</time></trkpt><trkpt lat="42.4273627" lon="12.9738446"><ele>1281.2</ele><time>2026-04-08T15:39:09.969Z</time></trkpt><trkpt lat="42.4274522" lon="12.9738019"><ele>1276.3999999999999</ele><time>2026-04-08T15:39:10.969Z</time></trkpt><trkpt lat="42.4275657" lon="12.9737565"><ele>1271.6</ele><time>2026-04-08T15:39:11.969Z</time></trkpt><trkpt lat="42.4276646" lon="12.9736961"><ele>1266.8</ele><time>2026-04-08T15:39:12.969Z</time></trkpt><trkpt lat="42.4277779" lon="12.9736177"><ele>1262.0</ele><time>2026-04-08T15:39:13.97Z</time></trkpt><trkpt lat="42.4278889" lon="12.9735676"><ele>1257.4</ele><time>2026-04-08T15:39:14.97Z</time></trkpt><trkpt lat="42.4279951" lon="12.9734987"><ele>1252.8000000000002</ele><time>2026-04-08T15:39:15.969Z</time></trkpt><trkpt lat="42.4280909" lon="12.9734178"><ele>1248.2</ele><time>2026-04-08T15:39:16.969Z</time></trkpt><trkpt lat="42.428183" lon="12.9733411"><ele>1243.6000000000001</ele><time>2026-04-08T15:39:17.97Z</time></trkpt><trkpt lat="42.4282445" lon="12.9732627"><ele>1239.0</ele><time>2026-04-08T15:39:18.969Z</time></trkpt><trkpt lat="42.4283013" lon="12.9731884"><ele>1239.0</ele><time>2026-04-08T15:39:19.97Z</time></trkpt><trkpt lat="42.4283523" lon="12.9731144"><ele>1239.0</ele><time>2026-04-08T15:39:20.969Z</time></trkpt><trkpt lat="42.4284012" lon="12.9730596"><ele>1239.0</ele><time>2026-04-08T15:39:21.969Z</time></trkpt><trkpt lat="42.4284938" lon="12.9730313"><ele>1239.0</ele><time>2026-04-08T15:39:23.97Z</time></trkpt><trkpt lat="42.4284856" lon="12.9731257"><ele>1239.0</ele><time>2026-04-08T15:39:26.969Z</time></trkpt><trkpt lat="42.4284983" lon="12.9733077"><ele>1239.0</ele><time>2026-04-08T15:39:28.969Z</time></trkpt><trkpt lat="42.428497" lon="12.9733999"><ele>1239.0</ele><time>2026-04-08T15:39:29.969Z</time></trkpt><trkpt lat="42.4285021" lon="12.9735174"><ele>1239.0</ele><time>2026-04-08T15:39:30.969Z</time></trkpt><trkpt lat="42.4285289" lon="12.9736179"><ele>1239.0</ele><time>2026-04-08T15:39:31.969Z</time></trkpt><trkpt lat="42.4285334" lon="12.9737447"><ele>1239.0</ele><time>2026-04-08T15:39:32.969Z</time></trkpt><trkpt lat="42.4285417" lon="12.9738358"><ele>1239.0</ele><time>2026-04-08T15:39:33.97Z</time></trkpt><trkpt lat="42.4285358" lon="12.974027"><ele>1239.0</ele><time>2026-04-08T15:39:35.969Z</time></trkpt><trkpt lat="42.4285536" lon="12.9741126"><ele>1239.0</ele><time>2026-04-08T15:39:36.969Z</time></trkpt><trkpt lat="42.4286241" lon="12.9740664"><ele>1239.0</ele><time>2026-04-08T15:39:37.969Z</time></trkpt><trkpt lat="42.4287357" lon="12.974015"><ele>1239.0</ele><time>2026-04-08T15:39:39.97Z</time></trkpt><trkpt lat="42.4287649" lon="12.9739382"><ele>1239.0</ele><time>2026-04-08T15:39:40.969Z</time></trkpt><trkpt lat="42.4288239" lon="12.9738692"><ele>1239.0</ele><time>2026-04-08T15:39:41.969Z</time></trkpt><trkpt lat="42.4289385" lon="12.9738206"><ele>1236.8</ele><time>2026-04-08T15:39:43.969Z</time></trkpt><trkpt lat="42.4290747" lon="12.9737653"><ele>1234.6000000000001</ele><time>2026-04-08T15:39:45.969Z</time></trkpt><trkpt lat="42.4291331" lon="12.9737314"><ele>1232.4</ele><time>2026-04-08T15:39:46.969Z</time></trkpt><trkpt lat="42.4292276" lon="12.9736992"><ele>1230.2</ele><time>2026-04-08T15:39:48.969Z</time></trkpt><trkpt lat="42.4293011" lon="12.9737386"><ele>1228.0</ele><time>2026-04-08T15:39:49.97Z</time></trkpt><trkpt lat="42.4293725" lon="12.9737601"><ele>1228.0</ele><time>2026-04-08T15:39:50.969Z</time></trkpt><trkpt lat="42.4294527" lon="12.9738106"><ele>1228.0</ele><time>2026-04-08T15:39:51.969Z</time></trkpt><trkpt lat="42.4295305" lon="12.9738357"><ele>1228.0</ele><time>2026-04-08T15:39:52.969Z</time></trkpt><trkpt lat="42.4296413" lon="12.9739013"><ele>1228.0</ele><time>2026-04-08T15:39:54.969Z</time></trkpt><trkpt lat="42.4297204" lon="12.9739891"><ele>1228.0</ele><time>2026-04-08T15:39:56.969Z</time></trkpt><trkpt lat="42.4297685" lon="12.9740492"><ele>1225.25</ele><time>2026-04-08T15:39:57.969Z</time></trkpt><trkpt lat="42.4299301" lon="12.9741161"><ele>1222.5</ele><time>2026-04-08T15:39:59.97Z</time></trkpt><trkpt lat="42.4300139" lon="12.9741399"><ele>1219.75</ele><time>2026-04-08T15:40:00.969Z</time></trkpt><trkpt lat="42.430168" lon="12.9741307"><ele>1217.0</ele><time>2026-04-08T15:40:01.969Z</time></trkpt><trkpt lat="42.4302989" lon="12.974101"><ele>1217.0</ele><time>2026-04-08T15:40:02.969Z</time></trkpt><trkpt lat="42.4303948" lon="12.9740695"><ele>1217.0</ele><time>2026-04-08T15:40:03.969Z</time></trkpt><trkpt lat="42.4304683" lon="12.9740662"><ele>1217.0</ele><time>2026-04-08T15:40:04.969Z</time></trkpt><trkpt lat="42.4305397" lon="12.974081"><ele>1217.0</ele><time>2026-04-08T15:40:05.969Z</time></trkpt><trkpt lat="42.4306133" lon="12.9741017"><ele>1217.0</ele><time>2026-04-08T15:40:06.969Z</time></trkpt><trkpt lat="42.4306851" lon="12.9741492"><ele>1217.0</ele><time>2026-04-08T15:40:07.97Z</time></trkpt><trkpt lat="42.4307619" lon="12.9741895"><ele>1217.3333333333335</ele><time>2026-04-08T15:40:08.969Z</time></trkpt><trkpt lat="42.4308257" lon="12.9742471"><ele>1217.6666666666667</ele><time>2026-04-08T15:40:09.969Z</time></trkpt><trkpt lat="42.430882" lon="12.9743176"><ele>1218.0</ele><time>2026-04-08T15:40:10.969Z</time></trkpt><trkpt lat="42.4309289" lon="12.9743883"><ele>1218.3333333333333</ele><time>2026-04-08T15:40:11.969Z</time></trkpt><trkpt lat="42.4309828" lon="12.9744686"><ele>1218.6666666666665</ele><time>2026-04-08T15:40:12.969Z</time></trkpt><trkpt lat="42.4310317" lon="12.9745708"><ele>1219.0</ele><time>2026-04-08T15:40:13.97Z</time></trkpt><trkpt lat="42.4310827" lon="12.9746855"><ele>1219.0</ele><time>2026-04-08T15:40:14.97Z</time></trkpt><trkpt lat="42.4311424" lon="12.9747939"><ele>1219.0</ele><time>2026-04-08T15:40:15.969Z</time></trkpt><trkpt lat="42.4312237" lon="12.9748846"><ele>1219.0</ele><time>2026-04-08T15:40:16.969Z</time></trkpt><trkpt lat="42.431316" lon="12.9749752"><ele>1219.0</ele><time>2026-04-08T15:40:17.969Z</time></trkpt><trkpt lat="42.4314048" lon="12.9750681"><ele>1219.0</ele><time>2026-04-08T15:40:18.969Z</time></trkpt><trkpt lat="42.4314901" lon="12.9751441"><ele>1219.1666666666665</ele><time>2026-04-08T15:40:19.97Z</time></trkpt><trkpt lat="42.4315754" lon="12.9751971"><ele>1219.3333333333333</ele><time>2026-04-08T15:40:20.97Z</time></trkpt><trkpt lat="42.4316504" lon="12.9752328"><ele>1219.5</ele><time>2026-04-08T15:40:21.97Z</time></trkpt><trkpt lat="42.431738" lon="12.9752412"><ele>1219.6666666666667</ele><time>2026-04-08T15:40:22.97Z</time></trkpt><trkpt lat="42.4318178" lon="12.9752568"><ele>1219.8333333333335</ele><time>2026-04-08T15:40:23.969Z</time></trkpt><trkpt lat="42.4318858" lon="12.9752685"><ele>1220.0</ele><time>2026-04-08T15:40:24.969Z</time></trkpt><trkpt lat="42.4319503" lon="12.9752881"><ele>1220.0</ele><time>2026-04-08T15:40:25.969Z</time></trkpt><trkpt lat="42.4320142" lon="12.9753036"><ele>1220.0</ele><time>2026-04-08T15:40:27.969Z</time></trkpt><trkpt lat="42.4320654" lon="12.9753627"><ele>1220.0</ele><time>2026-04-08T15:40:34.969Z</time></trkpt><trkpt lat="42.4320878" lon="12.9754616"><ele>1220.0</ele><time>2026-04-08T15:40:52.97Z</time></trkpt><trkpt lat="42.4320955" lon="12.9755637"><ele>1220.0</ele><time>2026-04-08T15:40:55.969Z</time></trkpt><trkpt lat="42.432108" lon="12.9757163"><ele>1220.0</ele><time>2026-04-08T15:40:57.969Z</time></trkpt><trkpt lat="42.4320933" lon="12.9758427"><ele>1220.6</ele><time>2026-04-08T15:40:59.969Z</time></trkpt><trkpt lat="42.4321013" lon="12.9759516"><ele>1221.2</ele><time>2026-04-08T15:41:00.969Z</time></trkpt><trkpt lat="42.4321192" lon="12.9761509"><ele>1221.8</ele><time>2026-04-08T15:41:02.969Z</time></trkpt><trkpt lat="42.4321293" lon="12.9762771"><ele>1222.4</ele><time>2026-04-08T15:41:03.969Z</time></trkpt><trkpt lat="42.4321323" lon="12.9763976"><ele>1223.0</ele><time>2026-04-08T15:41:04.969Z</time></trkpt><trkpt lat="42.4321054" lon="12.9765193"><ele>1222.2</ele><time>2026-04-08T15:41:05.969Z</time></trkpt><trkpt lat="42.4320587" lon="12.9766873"><ele>1221.4</ele><time>2026-04-08T15:41:06.969Z</time></trkpt><trkpt lat="42.4320397" lon="12.9768105"><ele>1220.6000000000001</ele><time>2026-04-08T15:41:07.969Z</time></trkpt><trkpt lat="42.4320318" lon="12.9769384"><ele>1219.8</ele><time>2026-04-08T15:41:08.969Z</time></trkpt><trkpt lat="42.4319952" lon="12.9771002"><ele>1219.0</ele><time>2026-04-08T15:41:09.969Z</time></trkpt><trkpt lat="42.431981" lon="12.9772301"><ele>1219.0</ele><time>2026-04-08T15:41:10.97Z</time></trkpt><trkpt lat="42.4319796" lon="12.977329"><ele>1219.0</ele><time>2026-04-08T15:41:11.969Z</time></trkpt><trkpt lat="42.4320079" lon="12.9774546"><ele>1219.0</ele><time>2026-04-08T15:41:13.969Z</time></trkpt><trkpt lat="42.432066" lon="12.9775427"><ele>1219.0</ele><time>2026-04-08T15:41:15.97Z</time></trkpt><trkpt lat="42.4321179" lon="12.9774458"><ele>1219.0</ele><time>2026-04-08T15:42:01.969Z</time></trkpt><trkpt lat="42.4322074" lon="12.9773415"><ele>1215.1666666666665</ele><time>2026-04-08T15:42:03.969Z</time></trkpt><trkpt lat="42.4322473" lon="12.9772589"><ele>1211.3333333333333</ele><time>2026-04-08T15:42:04.969Z</time></trkpt><trkpt lat="42.4322931" lon="12.9771665"><ele>1207.5</ele><time>2026-04-08T15:42:05.969Z</time></trkpt><trkpt lat="42.4323398" lon="12.9770678"><ele>1203.6666666666667</ele><time>2026-04-08T15:42:06.969Z</time></trkpt><trkpt lat="42.4323982" lon="12.9769661"><ele>1199.8333333333335</ele><time>2026-04-08T15:42:07.969Z</time></trkpt><trkpt lat="42.43247" lon="12.9768685"><ele>1196.0</ele><time>2026-04-08T15:42:08.97Z</time></trkpt><trkpt lat="42.4325502" lon="12.9767574"><ele>1195.25</ele><time>2026-04-08T15:42:09.97Z</time></trkpt><trkpt lat="42.4326316" lon="12.9766434"><ele>1194.5</ele><time>2026-04-08T15:42:10.969Z</time></trkpt><trkpt lat="42.4327153" lon="12.9765257"><ele>1193.75</ele><time>2026-04-08T15:42:11.969Z</time></trkpt><trkpt lat="42.4328113" lon="12.9764009"><ele>1193.0</ele><time>2026-04-08T15:42:12.969Z</time></trkpt><trkpt lat="42.4329201" lon="12.9762931"><ele>1190.25</ele><time>2026-04-08T15:42:13.969Z</time></trkpt><trkpt lat="42.4330279" lon="12.9761706"><ele>1187.5</ele><time>2026-04-08T15:42:14.969Z</time></trkpt><trkpt lat="42.4331396" lon="12.9760439"><ele>1184.75</ele><time>2026-04-08T15:42:15.969Z</time></trkpt><trkpt lat="42.4332334" lon="12.9759306"><ele>1182.0</ele><time>2026-04-08T15:42:16.969Z</time></trkpt><trkpt lat="42.4333093" lon="12.9758152"><ele>1181.8</ele><time>2026-04-08T15:42:17.969Z</time></trkpt><trkpt lat="42.4333766" lon="12.9757035"><ele>1181.6</ele><time>2026-04-08T15:42:18.97Z</time></trkpt><trkpt lat="42.433434" lon="12.9755814"><ele>1181.3999999999999</ele><time>2026-04-08T15:42:19.969Z</time></trkpt><trkpt lat="42.4334956" lon="12.9754739"><ele>1181.2</ele><time>2026-04-08T15:42:20.969Z</time></trkpt><trkpt lat="42.433542" lon="12.9753778"><ele>1181.0</ele><time>2026-04-08T15:42:21.969Z</time></trkpt><trkpt lat="42.4336107" lon="12.9752955"><ele>1181.0</ele><time>2026-04-08T15:42:22.969Z</time></trkpt><trkpt lat="42.433691" lon="12.975219"><ele>1181.0</ele><time>2026-04-08T15:42:23.969Z</time></trkpt><trkpt lat="42.4337938" lon="12.9751372"><ele>1181.0</ele><time>2026-04-08T15:42:24.969Z</time></trkpt><trkpt lat="42.4338979" lon="12.9750643"><ele>1181.0</ele><time>2026-04-08T15:42:25.969Z</time></trkpt><trkpt lat="42.4340203" lon="12.9749733"><ele>1181.25</ele><time>2026-04-08T15:42:26.969Z</time></trkpt><trkpt lat="42.4341265" lon="12.9748777"><ele>1181.5</ele><time>2026-04-08T15:42:27.97Z</time></trkpt><trkpt lat="42.4342111" lon="12.9747937"><ele>1181.75</ele><time>2026-04-08T15:42:28.969Z</time></trkpt><trkpt lat="42.4342984" lon="12.9746745"><ele>1182.0</ele><time>2026-04-08T15:42:29.969Z</time></trkpt><trkpt lat="42.4343644" lon="12.9745321"><ele>1182.0</ele><time>2026-04-08T15:42:30.969Z</time></trkpt><trkpt lat="42.4344478" lon="12.9743444"><ele>1182.0</ele><time>2026-04-08T15:42:31.969Z</time></trkpt><trkpt lat="42.4345342" lon="12.9741588"><ele>1182.0</ele><time>2026-04-08T15:42:32.969Z</time></trkpt><trkpt lat="42.4346068" lon="12.9739809"><ele>1180.75</ele><time>2026-04-08T15:42:33.97Z</time></trkpt><trkpt lat="42.4346978" lon="12.9738135"><ele>1179.5</ele><time>2026-04-08T15:42:34.97Z</time></trkpt><trkpt lat="42.4347884" lon="12.9736781"><ele>1178.25</ele><time>2026-04-08T15:42:35.97Z</time></trkpt><trkpt lat="42.4348247" lon="12.973542"><ele>1177.0</ele><time>2026-04-08T15:42:36.969Z</time></trkpt><trkpt lat="42.434891" lon="12.9734197"><ele>1177.0</ele><time>2026-04-08T15:42:37.969Z</time></trkpt><trkpt lat="42.4349597" lon="12.9733228"><ele>1177.0</ele><time>2026-04-08T15:42:38.969Z</time></trkpt><trkpt lat="42.4350658" lon="12.9732195"><ele>1177.0</ele><time>2026-04-08T15:42:40.969Z</time></trkpt><trkpt lat="42.4351703" lon="12.9732699"><ele>1177.0</ele><time>2026-04-08T15:42:42.969Z</time></trkpt><trkpt lat="42.4352372" lon="12.9733288"><ele>1177.0</ele><time>2026-04-08T15:42:43.969Z</time></trkpt><trkpt lat="42.4353212" lon="12.9734113"><ele>1177.0</ele><time>2026-04-08T15:42:44.969Z</time></trkpt><trkpt lat="42.4353952" lon="12.9734771"><ele>1177.0</ele><time>2026-04-08T15:42:45.97Z</time></trkpt><trkpt lat="42.4354493" lon="12.9735339"><ele>1177.0</ele><time>2026-04-08T15:42:46.969Z</time></trkpt><trkpt lat="42.4355372" lon="12.9735647"><ele>1177.0</ele><time>2026-04-08T15:42:48.97Z</time></trkpt><trkpt lat="42.4356186" lon="12.9736107"><ele>1177.0</ele><time>2026-04-08T15:42:51.969Z</time></trkpt><trkpt lat="42.4357183" lon="12.9736552"><ele>1177.0</ele><time>2026-04-08T15:42:53.969Z</time></trkpt><trkpt lat="42.4358031" lon="12.9736502"><ele>1176.1666666666665</ele><time>2026-04-08T15:42:55.97Z</time></trkpt><trkpt lat="42.4358583" lon="12.9735779"><ele>1175.3333333333333</ele><time>2026-04-08T15:42:57.97Z</time></trkpt><trkpt lat="42.4358825" lon="12.9734664"><ele>1174.5</ele><time>2026-04-08T15:42:59.969Z</time></trkpt><trkpt lat="42.4358462" lon="12.9733808"><ele>1173.6666666666667</ele><time>2026-04-08T15:43:01.969Z</time></trkpt><trkpt lat="42.4358221" lon="12.9732948"><ele>1172.8333333333335</ele><time>2026-04-08T15:43:03.969Z</time></trkpt><trkpt lat="42.435763" lon="12.9732155"><ele>1172.0</ele><time>2026-04-08T15:43:06.969Z</time></trkpt><trkpt lat="42.4357225" lon="12.9731396"><ele>1172.0</ele><time>2026-04-08T15:43:08.969Z</time></trkpt><trkpt lat="42.4356581" lon="12.9730416"><ele>1172.0</ele><time>2026-04-08T15:43:10.97Z</time></trkpt><trkpt lat="42.4356224" lon="12.9728947"><ele>1172.0</ele><time>2026-04-08T15:43:12.97Z</time></trkpt><trkpt lat="42.4356054" lon="12.9727939"><ele>1172.0</ele><time>2026-04-08T15:43:13.969Z</time></trkpt><trkpt lat="42.4356035" lon="12.9726263"><ele>1172.0</ele><time>2026-04-08T15:43:15.969Z</time></trkpt><trkpt lat="42.4356704" lon="12.9725483"><ele>1172.0</ele><time>2026-04-08T15:43:16.969Z</time></trkpt><trkpt lat="42.4357163" lon="12.9724509"><ele>1172.0</ele><time>2026-04-08T15:43:17.969Z</time></trkpt><trkpt lat="42.4357779" lon="12.9723973"><ele>1172.0</ele><time>2026-04-08T15:43:18.969Z</time></trkpt><trkpt lat="42.4358919" lon="12.9723825"><ele>1172.0</ele><time>2026-04-08T15:43:20.969Z</time></trkpt><trkpt lat="42.4359957" lon="12.9724852"><ele>1172.0</ele><time>2026-04-08T15:43:22.969Z</time></trkpt><trkpt lat="42.4360679" lon="12.9725884"><ele>1172.0</ele><time>2026-04-08T15:43:23.97Z</time></trkpt><trkpt lat="42.4361315" lon="12.9726793"><ele>1172.0</ele><time>2026-04-08T15:43:24.969Z</time></trkpt><trkpt lat="42.436213" lon="12.9727464"><ele>1172.0</ele><time>2026-04-08T15:43:25.969Z</time></trkpt><trkpt lat="42.4363189" lon="12.9728085"><ele>1172.0</ele><time>2026-04-08T15:43:26.969Z</time></trkpt><trkpt lat="42.4364191" lon="12.9728411"><ele>1172.0</ele><time>2026-04-08T15:43:27.969Z</time></trkpt><trkpt lat="42.4365296" lon="12.9728537"><ele>1177.6666666666667</ele><time>2026-04-08T15:43:28.97Z</time></trkpt><trkpt lat="42.4366816" lon="12.9728855"><ele>1183.3333333333333</ele><time>2026-04-08T15:43:29.97Z</time></trkpt><trkpt lat="42.4368263" lon="12.9729106"><ele>1189.0</ele><time>2026-04-08T15:43:30.969Z</time></trkpt><trkpt lat="42.436988" lon="12.9729264"><ele>1193.25</ele><time>2026-04-08T15:43:31.97Z</time></trkpt><trkpt lat="42.4371457" lon="12.9729388"><ele>1197.5</ele><time>2026-04-08T15:43:32.969Z</time></trkpt><trkpt lat="42.4372806" lon="12.9729236"><ele>1201.75</ele><time>2026-04-08T15:43:33.969Z</time></trkpt><trkpt lat="42.4374172" lon="12.9728954"><ele>1206.0</ele><time>2026-04-08T15:43:34.969Z</time></trkpt><trkpt lat="42.4375399" lon="12.9728345"><ele>1206.0</ele><time>2026-04-08T15:43:35.969Z</time></trkpt><trkpt lat="42.4376646" lon="12.9727635"><ele>1206.0</ele><time>2026-04-08T15:43:36.969Z</time></trkpt><trkpt lat="42.4377953" lon="12.9726894"><ele>1206.0</ele><time>2026-04-08T15:43:37.969Z</time></trkpt><trkpt lat="42.4379225" lon="12.9726188"><ele>1206.0</ele><time>2026-04-08T15:43:38.969Z</time></trkpt><trkpt lat="42.4381026" lon="12.9723902"><ele>1209.0</ele><time>2026-04-08T15:43:39.97Z</time></trkpt><trkpt lat="42.4382539" lon="12.9722388"><ele>1212.0</ele><time>2026-04-08T15:43:40.969Z</time></trkpt><trkpt lat="42.4384188" lon="12.9720917"><ele>1215.0</ele><time>2026-04-08T15:43:41.969Z</time></trkpt><trkpt lat="42.4385371" lon="12.9719593"><ele>1215.0</ele><time>2026-04-08T15:43:42.969Z</time></trkpt><trkpt lat="42.4386525" lon="12.9718408"><ele>1215.0</ele><time>2026-04-08T15:43:43.969Z</time></trkpt><trkpt lat="42.4387636" lon="12.971735"><ele>1215.0</ele><time>2026-04-08T15:43:44.97Z</time></trkpt><trkpt lat="42.4388352" lon="12.9716423"><ele>1215.0</ele><time>2026-04-08T15:43:45.969Z</time></trkpt><trkpt lat="42.4388986" lon="12.9715998"><ele>1216.75</ele><time>2026-04-08T15:43:46.969Z</time></trkpt><trkpt lat="42.4389956" lon="12.9715794"><ele>1218.5</ele><time>2026-04-08T15:43:47.969Z</time></trkpt><trkpt lat="42.4391008" lon="12.9715502"><ele>1220.25</ele><time>2026-04-08T15:43:48.969Z</time></trkpt><trkpt lat="42.4392088" lon="12.9714834"><ele>1222.0</ele><time>2026-04-08T15:43:49.969Z</time></trkpt><trkpt lat="42.4393311" lon="12.9714428"><ele>1222.0</ele><time>2026-04-08T15:43:50.969Z</time></trkpt><trkpt lat="42.4394269" lon="12.9713966"><ele>1222.0</ele><time>2026-04-08T15:43:51.969Z</time></trkpt><trkpt lat="42.4395017" lon="12.971364"><ele>1222.0</ele><time>2026-04-08T15:43:52.97Z</time></trkpt><trkpt lat="42.4395654" lon="12.9713204"><ele>1222.0</ele><time>2026-04-08T15:43:53.969Z</time></trkpt><trkpt lat="42.439635" lon="12.9712776"><ele>1222.0</ele><time>2026-04-08T15:43:54.969Z</time></trkpt><trkpt lat="42.4396844" lon="12.9711819"><ele>1222.0</ele><time>2026-04-08T15:43:55.969Z</time></trkpt><trkpt lat="42.4397178" lon="12.9710905"><ele>1218.5</ele><time>2026-04-08T15:43:56.97Z</time></trkpt><trkpt lat="42.4397135" lon="12.9709699"><ele>1215.0</ele><time>2026-04-08T15:43:57.97Z</time></trkpt><trkpt lat="42.4396603" lon="12.9707869"><ele>1211.5</ele><time>2026-04-08T15:43:58.969Z</time></trkpt><trkpt lat="42.4396476" lon="12.9706226"><ele>1208.0</ele><time>2026-04-08T15:43:59.969Z</time></trkpt><trkpt lat="42.4395893" lon="12.9704369"><ele>1208.0</ele><time>2026-04-08T15:44:00.969Z</time></trkpt><trkpt lat="42.4395527" lon="12.9702634"><ele>1208.0</ele><time>2026-04-08T15:44:01.969Z</time></trkpt><trkpt lat="42.4395028" lon="12.9701311"><ele>1208.0</ele><time>2026-04-08T15:44:02.969Z</time></trkpt><trkpt lat="42.4394679" lon="12.9700022"><ele>1208.0</ele><time>2026-04-08T15:44:03.969Z</time></trkpt><trkpt lat="42.4394565" lon="12.9699154"><ele>1208.0</ele><time>2026-04-08T15:44:05.969Z</time></trkpt><trkpt lat="42.4394867" lon="12.9698206"><ele>1209.1666666666667</ele><time>2026-04-08T15:44:07.97Z</time></trkpt><trkpt lat="42.4395512" lon="12.9697421"><ele>1210.3333333333335</ele><time>2026-04-08T15:44:09.969Z</time></trkpt><trkpt lat="42.4396204" lon="12.9697113"><ele>1211.5</ele><time>2026-04-08T15:44:11.97Z</time></trkpt><trkpt lat="42.4396966" lon="12.9696663"><ele>1212.6666666666667</ele><time>2026-04-08T15:44:13.969Z</time></trkpt><trkpt lat="42.4397954" lon="12.9696514"><ele>1213.8333333333333</ele><time>2026-04-08T15:44:15.969Z</time></trkpt><trkpt lat="42.4398802" lon="12.9696637"><ele>1215.0</ele><time>2026-04-08T15:44:17.969Z</time></trkpt><trkpt lat="42.4399938" lon="12.9696607"><ele>1220.4</ele><time>2026-04-08T15:44:19.969Z</time></trkpt><trkpt lat="42.4401258" lon="12.9696881"><ele>1225.8</ele><time>2026-04-08T15:44:21.969Z</time></trkpt><trkpt lat="42.4402063" lon="12.9697179"><ele>1231.2</ele><time>2026-04-08T15:44:22.969Z</time></trkpt><trkpt lat="42.4402815" lon="12.9697507"><ele>1236.6</ele><time>2026-04-08T15:44:23.97Z</time></trkpt><trkpt lat="42.4403417" lon="12.9697801"><ele>1242.0</ele><time>2026-04-08T15:44:24.97Z</time></trkpt><trkpt lat="42.4404352" lon="12.9698157"><ele>1244.6</ele><time>2026-04-08T15:44:26.969Z</time></trkpt><trkpt lat="42.4404978" lon="12.9698266"><ele>1247.2</ele><time>2026-04-08T15:44:28.969Z</time></trkpt><trkpt lat="42.4405969" lon="12.969836"><ele>1249.8</ele><time>2026-04-08T15:44:31.969Z</time></trkpt><trkpt lat="42.4407243" lon="12.9698221"><ele>1252.4</ele><time>2026-04-08T15:44:33.969Z</time></trkpt><trkpt lat="42.4408012" lon="12.9698111"><ele>1255.0</ele><time>2026-04-08T15:44:34.969Z</time></trkpt><trkpt lat="42.4408844" lon="12.969799"><ele>1255.0</ele><time>2026-04-08T15:44:35.969Z</time></trkpt><trkpt lat="42.4409654" lon="12.9697922"><ele>1255.0</ele><time>2026-04-08T15:44:36.969Z</time></trkpt><trkpt lat="42.4410439" lon="12.969793"><ele>1255.0</ele><time>2026-04-08T15:44:37.97Z</time></trkpt><trkpt lat="42.4411524" lon="12.9697392"><ele>1255.0</ele><time>2026-04-08T15:44:38.969Z</time></trkpt><trkpt lat="42.4412471" lon="12.9696696"><ele>1255.0</ele><time>2026-04-08T15:44:39.97Z</time></trkpt><trkpt lat="42.4413428" lon="12.9695994"><ele>1259.75</ele><time>2026-04-08T15:44:40.97Z</time></trkpt><trkpt lat="42.4414171" lon="12.9694985"><ele>1264.5</ele><time>2026-04-08T15:44:41.97Z</time></trkpt><trkpt lat="42.441513" lon="12.9693949"><ele>1269.25</ele><time>2026-04-08T15:44:42.969Z</time></trkpt><trkpt lat="42.4416032" lon="12.9693207"><ele>1274.0</ele><time>2026-04-08T15:44:43.969Z</time></trkpt><trkpt lat="42.4416938" lon="12.9692098"><ele>1269.4</ele><time>2026-04-08T15:44:44.969Z</time></trkpt><trkpt lat="42.4417862" lon="12.96912"><ele>1264.8000000000002</ele><time>2026-04-08T15:44:45.97Z</time></trkpt><trkpt lat="42.4418632" lon="12.9690413"><ele>1260.1999999999998</ele><time>2026-04-08T15:44:46.969Z</time></trkpt><trkpt lat="42.4419339" lon="12.9689761"><ele>1255.6</ele><time>2026-04-08T15:44:47.969Z</time></trkpt><trkpt lat="42.4420003" lon="12.9689049"><ele>1251.0</ele><time>2026-04-08T15:44:48.969Z</time></trkpt><trkpt lat="42.4420853" lon="12.968771"><ele>1251.0</ele><time>2026-04-08T15:44:50.969Z</time></trkpt><trkpt lat="42.442099" lon="12.9686841"><ele>1251.0</ele><time>2026-04-08T15:44:51.97Z</time></trkpt><trkpt lat="42.4421168" lon="12.9685878"><ele>1251.0</ele><time>2026-04-08T15:44:52.969Z</time></trkpt><trkpt lat="42.4421424" lon="12.9684891"><ele>1251.0</ele><time>2026-04-08T15:44:53.969Z</time></trkpt><trkpt lat="42.442164" lon="12.9683738"><ele>1251.0</ele><time>2026-04-08T15:44:54.97Z</time></trkpt><trkpt lat="42.4421801" lon="12.9682522"><ele>1251.0</ele><time>2026-04-08T15:44:55.97Z</time></trkpt><trkpt lat="42.4421928" lon="12.968134"><ele>1247.3999999999999</ele><time>2026-04-08T15:44:56.969Z</time></trkpt><trkpt lat="42.4421932" lon="12.9680161"><ele>1243.8</ele><time>2026-04-08T15:44:57.97Z</time></trkpt><trkpt lat="42.4421815" lon="12.9679038"><ele>1240.1999999999998</ele><time>2026-04-08T15:44:58.969Z</time></trkpt><trkpt lat="42.4421563" lon="12.9677914"><ele>1236.6</ele><time>2026-04-08T15:44:59.969Z</time></trkpt><trkpt lat="42.4421181" lon="12.9676701"><ele>1233.0</ele><time>2026-04-08T15:45:00.969Z</time></trkpt><trkpt lat="42.4420751" lon="12.9675482"><ele>1233.5</ele><time>2026-04-08T15:45:01.97Z</time></trkpt><trkpt lat="42.4420174" lon="12.967399"><ele>1234.0</ele><time>2026-04-08T15:45:02.969Z</time></trkpt><trkpt lat="42.4419625" lon="12.9672198"><ele>1234.5</ele><time>2026-04-08T15:45:03.969Z</time></trkpt><trkpt lat="42.4419096" lon="12.9670312"><ele>1235.0</ele><time>2026-04-08T15:45:04.97Z</time></trkpt><trkpt lat="42.4418451" lon="12.9668244"><ele>1238.0</ele><time>2026-04-08T15:45:05.969Z</time></trkpt><trkpt lat="42.4417881" lon="12.966641"><ele>1241.0</ele><time>2026-04-08T15:45:06.969Z</time></trkpt><trkpt lat="42.4417345" lon="12.9664851"><ele>1244.0</ele><time>2026-04-08T15:45:07.969Z</time></trkpt><trkpt lat="42.4416957" lon="12.966336"><ele>1247.0</ele><time>2026-04-08T15:45:08.97Z</time></trkpt><trkpt lat="42.4416719" lon="12.9661814"><ele>1247.0</ele><time>2026-04-08T15:45:09.969Z</time></trkpt><trkpt lat="42.4416635" lon="12.9660484"><ele>1247.0</ele><time>2026-04-08T15:45:10.969Z</time></trkpt><trkpt lat="42.4416682" lon="12.9659322"><ele>1247.0</ele><time>2026-04-08T15:45:11.97Z</time></trkpt><trkpt lat="42.4416795" lon="12.9658111"><ele>1247.0</ele><time>2026-04-08T15:45:12.969Z</time></trkpt><trkpt lat="42.4417116" lon="12.9656821"><ele>1247.0</ele><time>2026-04-08T15:45:13.97Z</time></trkpt><trkpt lat="42.4417546" lon="12.9655358"><ele>1247.25</ele><time>2026-04-08T15:45:14.969Z</time></trkpt><trkpt lat="42.441805" lon="12.9653735"><ele>1247.5</ele><time>2026-04-08T15:45:15.97Z</time></trkpt><trkpt lat="42.4418652" lon="12.9651875"><ele>1247.75</ele><time>2026-04-08T15:45:16.969Z</time></trkpt><trkpt lat="42.4419354" lon="12.964996"><ele>1248.0</ele><time>2026-04-08T15:45:17.97Z</time></trkpt><trkpt lat="42.4420084" lon="12.9648227"><ele>1245.6</ele><time>2026-04-08T15:45:18.97Z</time></trkpt><trkpt lat="42.4420728" lon="12.9646725"><ele>1243.1999999999998</ele><time>2026-04-08T15:45:19.97Z</time></trkpt><trkpt lat="42.442131" lon="12.964536"><ele>1240.8</ele><time>2026-04-08T15:45:20.969Z</time></trkpt><trkpt lat="42.4421754" lon="12.9644172"><ele>1238.3999999999999</ele><time>2026-04-08T15:45:21.97Z</time></trkpt><trkpt lat="42.4422135" lon="12.9642965"><ele>1236.0</ele><time>2026-04-08T15:45:22.969Z</time></trkpt><trkpt lat="42.4421837" lon="12.964167"><ele>1241.6</ele><time>2026-04-08T15:45:23.97Z</time></trkpt><trkpt lat="42.4421701" lon="12.964027"><ele>1247.1999999999998</ele><time>2026-04-08T15:45:24.97Z</time></trkpt><trkpt lat="42.4421675" lon="12.9638928"><ele>1252.8000000000002</ele><time>2026-04-08T15:45:25.969Z</time></trkpt><trkpt lat="42.4421767" lon="12.9637406"><ele>1258.4</ele><time>2026-04-08T15:45:26.969Z</time></trkpt><trkpt lat="42.4421997" lon="12.9635823"><ele>1264.0</ele><time>2026-04-08T15:45:27.969Z</time></trkpt><trkpt lat="42.4422348" lon="12.9634479"><ele>1262.5</ele><time>2026-04-08T15:45:28.969Z</time></trkpt><trkpt lat="42.4422807" lon="12.9633244"><ele>1261.0</ele><time>2026-04-08T15:45:29.969Z</time></trkpt><trkpt lat="42.4423324" lon="12.963207"><ele>1259.5</ele><time>2026-04-08T15:45:30.969Z</time></trkpt><trkpt lat="42.4423856" lon="12.9631158"><ele>1258.0</ele><time>2026-04-08T15:45:31.97Z</time></trkpt><trkpt lat="42.4424457" lon="12.9630377"><ele>1256.5</ele><time>2026-04-08T15:45:32.97Z</time></trkpt><trkpt lat="42.4425031" lon="12.962971"><ele>1255.0</ele><time>2026-04-08T15:45:33.969Z</time></trkpt><trkpt lat="42.4425709" lon="12.9629367"><ele>1255.0</ele><time>2026-04-08T15:45:34.969Z</time></trkpt><trkpt lat="42.442649" lon="12.9629001"><ele>1255.0</ele><time>2026-04-08T15:45:35.969Z</time></trkpt><trkpt lat="42.4427369" lon="12.9628736"><ele>1255.0</ele><time>2026-04-08T15:45:36.969Z</time></trkpt><trkpt lat="42.4428239" lon="12.9628315"><ele>1255.0</ele><time>2026-04-08T15:45:37.969Z</time></trkpt><trkpt lat="42.4429201" lon="12.962779"><ele>1255.0</ele><time>2026-04-08T15:45:38.969Z</time></trkpt><trkpt lat="42.4430135" lon="12.9627142"><ele>1257.3333333333333</ele><time>2026-04-08T15:45:39.969Z</time></trkpt><trkpt lat="42.4430937" lon="12.9626655"><ele>1259.6666666666665</ele><time>2026-04-08T15:45:40.97Z</time></trkpt><trkpt lat="42.4431742" lon="12.9626257"><ele>1262.0</ele><time>2026-04-08T15:45:41.969Z</time></trkpt><trkpt lat="42.4432445" lon="12.9626015"><ele>1264.3333333333333</ele><time>2026-04-08T15:45:42.969Z</time></trkpt><trkpt lat="42.4433153" lon="12.9625748"><ele>1266.6666666666667</ele><time>2026-04-08T15:45:43.969Z</time></trkpt><trkpt lat="42.4433818" lon="12.9625664"><ele>1269.0</ele><time>2026-04-08T15:45:44.97Z</time></trkpt><trkpt lat="42.4434896" lon="12.9626019"><ele>1269.0</ele><time>2026-04-08T15:45:46.969Z</time></trkpt><trkpt lat="42.4435689" lon="12.9627048"><ele>1269.0</ele><time>2026-04-08T15:45:48.969Z</time></trkpt><trkpt lat="42.443614" lon="12.9628052"><ele>1269.0</ele><time>2026-04-08T15:45:49.97Z</time></trkpt><trkpt lat="42.4436666" lon="12.9628913"><ele>1269.0</ele><time>2026-04-08T15:45:50.969Z</time></trkpt><trkpt lat="42.4437105" lon="12.9629855"><ele>1269.0</ele><time>2026-04-08T15:45:51.969Z</time></trkpt><trkpt lat="42.443745" lon="12.9630783"><ele>1269.0</ele><time>2026-04-08T15:45:52.97Z</time></trkpt><trkpt lat="42.4437643" lon="12.963163"><ele>1268.6000000000001</ele><time>2026-04-08T15:45:53.969Z</time></trkpt><trkpt lat="42.4437974" lon="12.9633122"><ele>1268.2</ele><time>2026-04-08T15:45:55.97Z</time></trkpt><trkpt lat="42.4438392" lon="12.963424"><ele>1267.8000000000002</ele><time>2026-04-08T15:45:57.969Z</time></trkpt><trkpt lat="42.4438925" lon="12.9634731"><ele>1267.4</ele><time>2026-04-08T15:45:58.97Z</time></trkpt><trkpt lat="42.444021" lon="12.9635446"><ele>1267.0</ele><time>2026-04-08T15:46:00.97Z</time></trkpt><trkpt lat="42.4441151" lon="12.9636007"><ele>1267.0</ele><time>2026-04-08T15:46:02.969Z</time></trkpt><trkpt lat="42.4441438" lon="12.9636999"><ele>1267.0</ele><time>2026-04-08T15:46:04.969Z</time></trkpt><trkpt lat="42.4441232" lon="12.9638587"><ele>1267.0</ele><time>2026-04-08T15:46:06.969Z</time></trkpt><trkpt lat="42.4440974" lon="12.9639643"><ele>1267.0</ele><time>2026-04-08T15:46:07.969Z</time></trkpt><trkpt lat="42.4440682" lon="12.9640761"><ele>1267.0</ele><time>2026-04-08T15:46:08.969Z</time></trkpt><trkpt lat="42.444035" lon="12.9642172"><ele>1269.5</ele><time>2026-04-08T15:46:09.97Z</time></trkpt><trkpt lat="42.4439997" lon="12.9643431"><ele>1272.0</ele><time>2026-04-08T15:46:10.97Z</time></trkpt><trkpt lat="42.443982" lon="12.9644517"><ele>1274.5</ele><time>2026-04-08T15:46:11.97Z</time></trkpt><trkpt lat="42.4440117" lon="12.9645872"><ele>1277.0</ele><time>2026-04-08T15:46:13.97Z</time></trkpt><trkpt lat="42.4440934" lon="12.9646395"><ele>1279.5</ele><time>2026-04-08T15:46:15.969Z</time></trkpt><trkpt lat="42.4441665" lon="12.9646454"><ele>1282.0</ele><time>2026-04-08T15:46:16.969Z</time></trkpt><trkpt lat="42.4443057" lon="12.9645354"><ele>1282.0</ele><time>2026-04-08T15:46:17.969Z</time></trkpt><trkpt lat="42.4444227" lon="12.9644791"><ele>1282.0</ele><time>2026-04-08T15:46:18.969Z</time></trkpt><trkpt lat="42.4445465" lon="12.964397"><ele>1282.0</ele><time>2026-04-08T15:46:19.969Z</time></trkpt><trkpt lat="42.4446621" lon="12.9643106"><ele>1282.0</ele><time>2026-04-08T15:46:20.969Z</time></trkpt><trkpt lat="42.4447588" lon="12.9642674"><ele>1280.0</ele><time>2026-04-08T15:46:21.97Z</time></trkpt><trkpt lat="42.4448448" lon="12.9642187"><ele>1278.0</ele><time>2026-04-08T15:46:22.969Z</time></trkpt><trkpt lat="42.4449448" lon="12.9641974"><ele>1276.0</ele><time>2026-04-08T15:46:23.969Z</time></trkpt><trkpt lat="42.4450412" lon="12.9641768"><ele>1274.0</ele><time>2026-04-08T15:46:24.97Z</time></trkpt><trkpt lat="42.445135" lon="12.9641354"><ele>1272.0</ele><time>2026-04-08T15:46:25.97Z</time></trkpt><trkpt lat="42.4452084" lon="12.9639982"><ele>1272.0</ele><time>2026-04-08T15:46:26.969Z</time></trkpt><trkpt lat="42.4452956" lon="12.9638904"><ele>1272.0</ele><time>2026-04-08T15:46:27.969Z</time></trkpt><trkpt lat="42.4453864" lon="12.9637777"><ele>1272.0</ele><time>2026-04-08T15:46:28.969Z</time></trkpt><trkpt lat="42.4454878" lon="12.9636777"><ele>1272.0</ele><time>2026-04-08T15:46:29.97Z</time></trkpt><trkpt lat="42.4456311" lon="12.9635717"><ele>1269.75</ele><time>2026-04-08T15:46:30.969Z</time></trkpt><trkpt lat="42.4457494" lon="12.9634668"><ele>1267.5</ele><time>2026-04-08T15:46:31.969Z</time></trkpt><trkpt lat="42.4458593" lon="12.9633768"><ele>1265.25</ele><time>2026-04-08T15:46:32.969Z</time></trkpt><trkpt lat="42.4459501" lon="12.9633296"><ele>1263.0</ele><time>2026-04-08T15:46:33.969Z</time></trkpt><trkpt lat="42.4460389" lon="12.9633044"><ele>1263.0</ele><time>2026-04-08T15:46:34.969Z</time></trkpt><trkpt lat="42.4461685" lon="12.963321"><ele>1263.0</ele><time>2026-04-08T15:46:35.969Z</time></trkpt><trkpt lat="42.4462831" lon="12.9633243"><ele>1263.0</ele><time>2026-04-08T15:46:36.969Z</time></trkpt><trkpt lat="42.4464178" lon="12.9633219"><ele>1263.0</ele><time>2026-04-08T15:46:37.969Z</time></trkpt><trkpt lat="42.4465463" lon="12.9632534"><ele>1265.25</ele><time>2026-04-08T15:46:38.97Z</time></trkpt><trkpt lat="42.4466506" lon="12.9632434"><ele>1267.5</ele><time>2026-04-08T15:46:39.969Z</time></trkpt><trkpt lat="42.446774" lon="12.9632518"><ele>1269.75</ele><time>2026-04-08T15:46:40.97Z</time></trkpt><trkpt lat="42.446905" lon="12.9632753"><ele>1272.0</ele><time>2026-04-08T15:46:41.969Z</time></trkpt><trkpt lat="42.4470233" lon="12.9633048"><ele>1272.0</ele><time>2026-04-08T15:46:42.969Z</time></trkpt><trkpt lat="42.4471223" lon="12.9633394"><ele>1272.0</ele><time>2026-04-08T15:46:43.969Z</time></trkpt><trkpt lat="42.4472171" lon="12.9633706"><ele>1272.0</ele><time>2026-04-08T15:46:44.969Z</time></trkpt><trkpt lat="42.4473209" lon="12.9634678"><ele>1272.0</ele><time>2026-04-08T15:46:46.969Z</time></trkpt><trkpt lat="42.4473364" lon="12.9635582"><ele>1272.0</ele><time>2026-04-08T15:46:47.969Z</time></trkpt><trkpt lat="42.447381" lon="12.9636361"><ele>1273.2</ele><time>2026-04-08T15:46:48.969Z</time></trkpt><trkpt lat="42.4474119" lon="12.9637625"><ele>1274.4</ele><time>2026-04-08T15:46:49.969Z</time></trkpt><trkpt lat="42.4474507" lon="12.9638823"><ele>1275.6</ele><time>2026-04-08T15:46:50.969Z</time></trkpt><trkpt lat="42.4474991" lon="12.9640296"><ele>1276.8</ele><time>2026-04-08T15:46:51.97Z</time></trkpt><trkpt lat="42.4475274" lon="12.9641826"><ele>1278.0</ele><time>2026-04-08T15:46:52.969Z</time></trkpt><trkpt lat="42.447583" lon="12.9643619"><ele>1282.75</ele><time>2026-04-08T15:46:53.969Z</time></trkpt><trkpt lat="42.4476257" lon="12.9645193"><ele>1287.5</ele><time>2026-04-08T15:46:54.969Z</time></trkpt><trkpt lat="42.4476879" lon="12.9646816"><ele>1292.25</ele><time>2026-04-08T15:46:55.969Z</time></trkpt><trkpt lat="42.447747" lon="12.9648297"><ele>1297.0</ele><time>2026-04-08T15:46:56.969Z</time></trkpt><trkpt lat="42.4478006" lon="12.9649679"><ele>1299.3999999999999</ele><time>2026-04-08T15:46:57.969Z</time></trkpt><trkpt lat="42.4478443" lon="12.9650976"><ele>1301.8</ele><time>2026-04-08T15:46:58.969Z</time></trkpt><trkpt lat="42.4478858" lon="12.9652216"><ele>1304.2</ele><time>2026-04-08T15:46:59.97Z</time></trkpt><trkpt lat="42.4479232" lon="12.9653582"><ele>1306.6</ele><time>2026-04-08T15:47:00.969Z</time></trkpt><trkpt lat="42.4479767" lon="12.9654864"><ele>1309.0</ele><time>2026-04-08T15:47:01.97Z</time></trkpt><trkpt lat="42.4480373" lon="12.9656083"><ele>1302.2</ele><time>2026-04-08T15:47:02.969Z</time></trkpt><trkpt lat="42.4480656" lon="12.9657187"><ele>1295.4</ele><time>2026-04-08T15:47:03.969Z</time></trkpt><trkpt lat="42.4481152" lon="12.9658306"><ele>1288.6</ele><time>2026-04-08T15:47:04.969Z</time></trkpt><trkpt lat="42.4481347" lon="12.9659269"><ele>1281.8</ele><time>2026-04-08T15:47:05.969Z</time></trkpt><trkpt lat="42.4481201" lon="12.9660385"><ele>1275.0</ele><time>2026-04-08T15:47:06.969Z</time></trkpt><trkpt lat="42.448064" lon="12.9661789"><ele>1275.0</ele><time>2026-04-08T15:47:08.97Z</time></trkpt><trkpt lat="42.4480492" lon="12.9662668"><ele>1275.0</ele><time>2026-04-08T15:47:09.969Z</time></trkpt><trkpt lat="42.4480233" lon="12.9663751"><ele>1275.0</ele><time>2026-04-08T15:47:10.969Z</time></trkpt><trkpt lat="42.4479976" lon="12.9664699"><ele>1275.0</ele><time>2026-04-08T15:47:11.97Z</time></trkpt><trkpt lat="42.447944" lon="12.966563"><ele>1275.0</ele><time>2026-04-08T15:47:12.969Z</time></trkpt><trkpt lat="42.44791" lon="12.9666554"><ele>1275.0</ele><time>2026-04-08T15:47:13.97Z</time></trkpt><trkpt lat="42.4478845" lon="12.9667348"><ele>1280.2</ele><time>2026-04-08T15:47:14.969Z</time></trkpt><trkpt lat="42.4478868" lon="12.9668389"><ele>1285.4</ele><time>2026-04-08T15:47:17.969Z</time></trkpt><trkpt lat="42.4480185" lon="12.9668491"><ele>1290.6</ele><time>2026-04-08T15:47:20.969Z</time></trkpt><trkpt lat="42.448154" lon="12.9668357"><ele>1295.8</ele><time>2026-04-08T15:47:22.969Z</time></trkpt><trkpt lat="42.4482463" lon="12.9668439"><ele>1301.0</ele><time>2026-04-08T15:47:23.969Z</time></trkpt><trkpt lat="42.4483267" lon="12.9668548"><ele>1301.0</ele><time>2026-04-08T15:47:24.97Z</time></trkpt><trkpt lat="42.4484643" lon="12.9668435"><ele>1301.0</ele><time>2026-04-08T15:47:26.969Z</time></trkpt><trkpt lat="42.4485472" lon="12.9668965"><ele>1301.0</ele><time>2026-04-08T15:47:27.97Z</time></trkpt><trkpt lat="42.4486213" lon="12.9669578"><ele>1301.0</ele><time>2026-04-08T15:47:28.97Z</time></trkpt><trkpt lat="42.4486915" lon="12.9670241"><ele>1301.0</ele><time>2026-04-08T15:47:29.97Z</time></trkpt><trkpt lat="42.448742" lon="12.9671003"><ele>1301.8333333333335</ele><time>2026-04-08T15:47:30.969Z</time></trkpt><trkpt lat="42.4488047" lon="12.9671694"><ele>1302.6666666666667</ele><time>2026-04-08T15:47:31.97Z</time></trkpt><trkpt lat="42.4488603" lon="12.9672296"><ele>1303.5</ele><time>2026-04-08T15:47:32.969Z</time></trkpt><trkpt lat="42.4489199" lon="12.9673382"><ele>1304.3333333333333</ele><time>2026-04-08T15:47:34.969Z</time></trkpt><trkpt lat="42.4489662" lon="12.9674195"><ele>1305.1666666666665</ele><time>2026-04-08T15:47:35.969Z</time></trkpt><trkpt lat="42.4490144" lon="12.9675053"><ele>1306.0</ele><time>2026-04-08T15:47:36.97Z</time></trkpt><trkpt lat="42.4491166" lon="12.9675716"><ele>1301.6</ele><time>2026-04-08T15:47:38.969Z</time></trkpt><trkpt lat="42.4492507" lon="12.9675249"><ele>1297.1999999999998</ele><time>2026-04-08T15:47:40.969Z</time></trkpt><trkpt lat="42.4493063" lon="12.9674637"><ele>1292.8000000000002</ele><time>2026-04-08T15:47:41.969Z</time></trkpt><trkpt lat="42.4493523" lon="12.9673792"><ele>1288.4</ele><time>2026-04-08T15:47:42.969Z</time></trkpt><trkpt lat="42.4493904" lon="12.9672514"><ele>1284.0</ele><time>2026-04-08T15:47:43.97Z</time></trkpt><trkpt lat="42.4494216" lon="12.9671302"><ele>1284.0</ele><time>2026-04-08T15:47:44.969Z</time></trkpt><trkpt lat="42.4494564" lon="12.9670022"><ele>1284.0</ele><time>2026-04-08T15:47:45.969Z</time></trkpt><trkpt lat="42.449504" lon="12.9668817"><ele>1284.0</ele><time>2026-04-08T15:47:46.969Z</time></trkpt><trkpt lat="42.4495463" lon="12.9667473"><ele>1284.0</ele><time>2026-04-08T15:47:47.969Z</time></trkpt><trkpt lat="42.449532" lon="12.9665987"><ele>1284.0</ele><time>2026-04-08T15:47:48.969Z</time></trkpt><trkpt lat="42.4495509" lon="12.9664269"><ele>1279.25</ele><time>2026-04-08T15:47:49.97Z</time></trkpt><trkpt lat="42.4495542" lon="12.9662352"><ele>1274.5</ele><time>2026-04-08T15:47:50.969Z</time></trkpt><trkpt lat="42.4495442" lon="12.9660305"><ele>1269.75</ele><time>2026-04-08T15:47:51.969Z</time></trkpt><trkpt lat="42.4495291" lon="12.9658279"><ele>1265.0</ele><time>2026-04-08T15:47:52.969Z</time></trkpt><trkpt lat="42.4495074" lon="12.9656242"><ele>1262.75</ele><time>2026-04-08T15:47:53.969Z</time></trkpt><trkpt lat="42.4494828" lon="12.9654102"><ele>1260.5</ele><time>2026-04-08T15:47:54.97Z</time></trkpt><trkpt lat="42.4494492" lon="12.9652131"><ele>1258.25</ele><time>2026-04-08T15:47:55.969Z</time></trkpt><trkpt lat="42.4494246" lon="12.9650452"><ele>1256.0</ele><time>2026-04-08T15:47:56.969Z</time></trkpt><trkpt lat="42.4494002" lon="12.9648801"><ele>1256.0</ele><time>2026-04-08T15:47:57.969Z</time></trkpt><trkpt lat="42.4493969" lon="12.9647198"><ele>1256.0</ele><time>2026-04-08T15:47:58.969Z</time></trkpt><trkpt lat="42.4493769" lon="12.9645742"><ele>1256.0</ele><time>2026-04-08T15:47:59.969Z</time></trkpt><trkpt lat="42.4493803" lon="12.9644345"><ele>1256.0</ele><time>2026-04-08T15:48:00.97Z</time></trkpt><trkpt lat="42.4493731" lon="12.9643036"><ele>1256.0</ele><time>2026-04-08T15:48:01.969Z</time></trkpt><trkpt lat="42.4493783" lon="12.9641757"><ele>1255.3999999999999</ele><time>2026-04-08T15:48:02.969Z</time></trkpt><trkpt lat="42.4494046" lon="12.9640398"><ele>1254.8</ele><time>2026-04-08T15:48:03.969Z</time></trkpt><trkpt lat="42.4494358" lon="12.9639252"><ele>1254.1999999999998</ele><time>2026-04-08T15:48:04.97Z</time></trkpt><trkpt lat="42.449469" lon="12.9638073"><ele>1253.6</ele><time>2026-04-08T15:48:05.969Z</time></trkpt><trkpt lat="42.4495088" lon="12.9636858"><ele>1253.0</ele><time>2026-04-08T15:48:06.969Z</time></trkpt><trkpt lat="42.4495477" lon="12.9635786"><ele>1253.0</ele><time>2026-04-08T15:48:07.969Z</time></trkpt><trkpt lat="42.4495872" lon="12.9634636"><ele>1253.0</ele><time>2026-04-08T15:48:08.969Z</time></trkpt><trkpt lat="42.449651" lon="12.9633471"><ele>1253.0</ele><time>2026-04-08T15:48:10.969Z</time></trkpt><trkpt lat="42.4497307" lon="12.9633638"><ele>1253.0</ele><time>2026-04-08T15:48:12.969Z</time></trkpt><trkpt lat="42.4498078" lon="12.9634474"><ele>1253.0</ele><time>2026-04-08T15:48:14.97Z</time></trkpt><trkpt lat="42.4498634" lon="12.9635179"><ele>1257.8</ele><time>2026-04-08T15:48:15.969Z</time></trkpt><trkpt lat="42.4499696" lon="12.9636053"><ele>1262.6</ele><time>2026-04-08T15:48:17.969Z</time></trkpt><trkpt lat="42.4500728" lon="12.9636124"><ele>1267.4</ele><time>2026-04-08T15:48:19.969Z</time></trkpt><trkpt lat="42.4501411" lon="12.9636009"><ele>1272.2</ele><time>2026-04-08T15:48:20.969Z</time></trkpt><trkpt lat="42.4502362" lon="12.9634895"><ele>1277.0</ele><time>2026-04-08T15:48:21.97Z</time></trkpt><trkpt lat="42.4502981" lon="12.9634387"><ele>1277.0</ele><time>2026-04-08T15:48:22.969Z</time></trkpt><trkpt lat="42.4504228" lon="12.9633929"><ele>1277.0</ele><time>2026-04-08T15:48:24.969Z</time></trkpt><trkpt lat="42.4505447" lon="12.9634567"><ele>1277.0</ele><time>2026-04-08T15:48:26.969Z</time></trkpt><trkpt lat="42.4505989" lon="12.9635426"><ele>1277.0</ele><time>2026-04-08T15:48:27.97Z</time></trkpt><trkpt lat="42.4506758" lon="12.9636038"><ele>1277.0</ele><time>2026-04-08T15:48:28.969Z</time></trkpt><trkpt lat="42.4507762" lon="12.9636888"><ele>1279.2</ele><time>2026-04-08T15:48:30.969Z</time></trkpt><trkpt lat="42.4508557" lon="12.9637203"><ele>1281.4</ele><time>2026-04-08T15:48:32.97Z</time></trkpt><trkpt lat="42.4509432" lon="12.9636597"><ele>1283.6000000000001</ele><time>2026-04-08T15:48:34.969Z</time></trkpt><trkpt lat="42.450994" lon="12.963508"><ele>1285.8000000000002</ele><time>2026-04-08T15:48:36.969Z</time></trkpt><trkpt lat="42.4510025" lon="12.9633336"><ele>1288.0</ele><time>2026-04-08T15:48:37.969Z</time></trkpt><trkpt lat="42.4510202" lon="12.9632059"><ele>1283.4</ele><time>2026-04-08T15:48:38.969Z</time></trkpt><trkpt lat="42.4510656" lon="12.9631103"><ele>1278.8000000000002</ele><time>2026-04-08T15:48:39.969Z</time></trkpt><trkpt lat="42.451095" lon="12.9629948"><ele>1274.2</ele><time>2026-04-08T15:48:40.969Z</time></trkpt><trkpt lat="42.451155" lon="12.962856"><ele>1269.6</ele><time>2026-04-08T15:48:41.97Z</time></trkpt><trkpt lat="42.4512133" lon="12.9627682"><ele>1265.0</ele><time>2026-04-08T15:48:42.969Z</time></trkpt><trkpt lat="42.4512718" lon="12.9626313"><ele>1267.0</ele><time>2026-04-08T15:48:43.969Z</time></trkpt><trkpt lat="42.4513145" lon="12.9625085"><ele>1269.0</ele><time>2026-04-08T15:48:44.969Z</time></trkpt><trkpt lat="42.4513594" lon="12.9623942"><ele>1271.0</ele><time>2026-04-08T15:48:45.969Z</time></trkpt><trkpt lat="42.4514" lon="12.9622862"><ele>1273.0</ele><time>2026-04-08T15:48:46.969Z</time></trkpt><trkpt lat="42.4514049" lon="12.9621864"><ele>1275.0</ele><time>2026-04-08T15:48:47.969Z</time></trkpt><trkpt lat="42.4514325" lon="12.9621004"><ele>1277.0</ele><time>2026-04-08T15:48:48.969Z</time></trkpt><trkpt lat="42.4515002" lon="12.9619638"><ele>1277.0</ele><time>2026-04-08T15:48:50.969Z</time></trkpt><trkpt lat="42.451558" lon="12.9619142"><ele>1277.0</ele><time>2026-04-08T15:48:51.969Z</time></trkpt><trkpt lat="42.4516234" lon="12.9618521"><ele>1277.0</ele><time>2026-04-08T15:48:52.969Z</time></trkpt><trkpt lat="42.451683" lon="12.9617652"><ele>1277.0</ele><time>2026-04-08T15:48:53.969Z</time></trkpt><trkpt lat="42.4517146" lon="12.9616577"><ele>1277.0</ele><time>2026-04-08T15:48:54.97Z</time></trkpt><trkpt lat="42.4517404" lon="12.9615435"><ele>1277.0</ele><time>2026-04-08T15:48:55.97Z</time></trkpt><trkpt lat="42.4517619" lon="12.9614329"><ele>1274.1666666666667</ele><time>2026-04-08T15:48:56.969Z</time></trkpt><trkpt lat="42.4517817" lon="12.9613137"><ele>1271.3333333333335</ele><time>2026-04-08T15:48:57.969Z</time></trkpt><trkpt lat="42.4517886" lon="12.9612002"><ele>1268.5</ele><time>2026-04-08T15:48:58.969Z</time></trkpt><trkpt lat="42.4517975" lon="12.9611004"><ele>1265.6666666666667</ele><time>2026-04-08T15:48:59.969Z</time></trkpt><trkpt lat="42.451808" lon="12.9610078"><ele>1262.8333333333333</ele><time>2026-04-08T15:49:00.969Z</time></trkpt><trkpt lat="42.4518569" lon="12.9608683"><ele>1260.0</ele><time>2026-04-08T15:49:02.969Z</time></trkpt><trkpt lat="42.4519462" lon="12.9607637"><ele>1257.6</ele><time>2026-04-08T15:49:04.969Z</time></trkpt><trkpt lat="42.4520056" lon="12.9607158"><ele>1255.2</ele><time>2026-04-08T15:49:05.969Z</time></trkpt><trkpt lat="42.4520828" lon="12.9606799"><ele>1252.8</ele><time>2026-04-08T15:49:06.97Z</time></trkpt><trkpt lat="42.4521764" lon="12.9606471"><ele>1250.4</ele><time>2026-04-08T15:49:07.97Z</time></trkpt><trkpt lat="42.4522777" lon="12.9606162"><ele>1248.0</ele><time>2026-04-08T15:49:08.969Z</time></trkpt><trkpt lat="42.4523824" lon="12.9605779"><ele>1253.2</ele><time>2026-04-08T15:49:09.97Z</time></trkpt><trkpt lat="42.4524834" lon="12.960523"><ele>1258.4</ele><time>2026-04-08T15:49:10.969Z</time></trkpt><trkpt lat="42.4525755" lon="12.960463"><ele>1263.6000000000001</ele><time>2026-04-08T15:49:11.97Z</time></trkpt><trkpt lat="42.4526698" lon="12.9603823"><ele>1268.8</ele><time>2026-04-08T15:49:12.969Z</time></trkpt><trkpt lat="42.4527679" lon="12.9602882"><ele>1274.0</ele><time>2026-04-08T15:49:13.97Z</time></trkpt><trkpt lat="42.4528726" lon="12.9601961"><ele>1273.25</ele><time>2026-04-08T15:49:14.97Z</time></trkpt><trkpt lat="42.4529958" lon="12.9601165"><ele>1272.5</ele><time>2026-04-08T15:49:15.969Z</time></trkpt><trkpt lat="42.453118" lon="12.9600339"><ele>1271.75</ele><time>2026-04-08T15:49:16.969Z</time></trkpt><trkpt lat="42.4532376" lon="12.9599568"><ele>1271.0</ele><time>2026-04-08T15:49:17.97Z</time></trkpt><trkpt lat="42.4533321" lon="12.9598735"><ele>1271.0</ele><time>2026-04-08T15:49:18.969Z</time></trkpt><trkpt lat="42.4534363" lon="12.9597935"><ele>1271.0</ele><time>2026-04-08T15:49:19.97Z</time></trkpt><trkpt lat="42.4535221" lon="12.9597161"><ele>1271.0</ele><time>2026-04-08T15:49:20.969Z</time></trkpt><trkpt lat="42.4535847" lon="12.9596306"><ele>1271.0</ele><time>2026-04-08T15:49:21.969Z</time></trkpt><trkpt lat="42.4536485" lon="12.9595484"><ele>1271.0</ele><time>2026-04-08T15:49:22.969Z</time></trkpt><trkpt lat="42.4536998" lon="12.9594289"><ele>1271.0</ele><time>2026-04-08T15:49:23.969Z</time></trkpt><trkpt lat="42.4537379" lon="12.9592891"><ele>1271.0</ele><time>2026-04-08T15:49:24.969Z</time></trkpt><trkpt lat="42.4537793" lon="12.9591447"><ele>1271.0</ele><time>2026-04-08T15:49:25.969Z</time></trkpt><trkpt lat="42.4538312" lon="12.9590112"><ele>1271.0</ele><time>2026-04-08T15:49:26.969Z</time></trkpt><trkpt lat="42.4538878" lon="12.95889"><ele>1271.0</ele><time>2026-04-08T15:49:27.969Z</time></trkpt><trkpt lat="42.4539618" lon="12.9587616"><ele>1272.5</ele><time>2026-04-08T15:49:28.97Z</time></trkpt><trkpt lat="42.454039" lon="12.9586212"><ele>1274.0</ele><time>2026-04-08T15:49:29.97Z</time></trkpt><trkpt lat="42.4541148" lon="12.958477"><ele>1275.5</ele><time>2026-04-08T15:49:30.969Z</time></trkpt><trkpt lat="42.4541891" lon="12.9583418"><ele>1277.0</ele><time>2026-04-08T15:49:31.969Z</time></trkpt><trkpt lat="42.4542561" lon="12.9582039"><ele>1272.5</ele><time>2026-04-08T15:49:32.969Z</time></trkpt><trkpt lat="42.4543131" lon="12.95807"><ele>1268.0</ele><time>2026-04-08T15:49:33.969Z</time></trkpt><trkpt lat="42.4543663" lon="12.9579259"><ele>1263.5</ele><time>2026-04-08T15:49:34.969Z</time></trkpt><trkpt lat="42.4544104" lon="12.9577805"><ele>1259.0</ele><time>2026-04-08T15:49:35.97Z</time></trkpt><trkpt lat="42.4544405" lon="12.9576312"><ele>1255.25</ele><time>2026-04-08T15:49:36.969Z</time></trkpt><trkpt lat="42.4544686" lon="12.9574703"><ele>1251.5</ele><time>2026-04-08T15:49:37.97Z</time></trkpt><trkpt lat="42.4544894" lon="12.9572923"><ele>1247.75</ele><time>2026-04-08T15:49:38.969Z</time></trkpt><trkpt lat="42.454506" lon="12.9571176"><ele>1244.0</ele><time>2026-04-08T15:49:39.969Z</time></trkpt><trkpt lat="42.4545165" lon="12.9569475"><ele>1244.0</ele><time>2026-04-08T15:49:40.97Z</time></trkpt><trkpt lat="42.4545297" lon="12.9567909"><ele>1244.0</ele><time>2026-04-08T15:49:41.969Z</time></trkpt><trkpt lat="42.4545418" lon="12.9566457"><ele>1244.0</ele><time>2026-04-08T15:49:42.97Z</time></trkpt><trkpt lat="42.4545588" lon="12.9565027"><ele>1244.0</ele><time>2026-04-08T15:49:43.969Z</time></trkpt><trkpt lat="42.4545853" lon="12.9563657"><ele>1244.0</ele><time>2026-04-08T15:49:44.969Z</time></trkpt><trkpt lat="42.4546261" lon="12.9562468"><ele>1249.2</ele><time>2026-04-08T15:49:45.969Z</time></trkpt><trkpt lat="42.4546687" lon="12.9561261"><ele>1254.4</ele><time>2026-04-08T15:49:46.969Z</time></trkpt><trkpt lat="42.4547196" lon="12.9560127"><ele>1259.6</ele><time>2026-04-08T15:49:47.969Z</time></trkpt><trkpt lat="42.4547716" lon="12.9559042"><ele>1264.8</ele><time>2026-04-08T15:49:48.97Z</time></trkpt><trkpt lat="42.4548247" lon="12.9557797"><ele>1270.0</ele><time>2026-04-08T15:49:49.969Z</time></trkpt><trkpt lat="42.454886" lon="12.9556707"><ele>1270.0</ele><time>2026-04-08T15:49:50.969Z</time></trkpt><trkpt lat="42.4549533" lon="12.9555575"><ele>1270.0</ele><time>2026-04-08T15:49:51.97Z</time></trkpt><trkpt lat="42.4550275" lon="12.9554432"><ele>1270.0</ele><time>2026-04-08T15:49:52.97Z</time></trkpt><trkpt lat="42.455097" lon="12.9553174"><ele>1270.0</ele><time>2026-04-08T15:49:53.97Z</time></trkpt><trkpt lat="42.4551536" lon="12.9551797"><ele>1270.0</ele><time>2026-04-08T15:49:54.969Z</time></trkpt><trkpt lat="42.4552261" lon="12.9550416"><ele>1270.0</ele><time>2026-04-08T15:49:55.969Z</time></trkpt><trkpt lat="42.4552665" lon="12.9548907"><ele>1270.0</ele><time>2026-04-08T15:49:56.969Z</time></trkpt><trkpt lat="42.455333" lon="12.9547483"><ele>1270.0</ele><time>2026-04-08T15:49:57.97Z</time></trkpt><trkpt lat="42.455384" lon="12.9545962"><ele>1270.0</ele><time>2026-04-08T15:49:58.97Z</time></trkpt><trkpt lat="42.4554683" lon="12.9544424"><ele>1270.0</ele><time>2026-04-08T15:49:59.969Z</time></trkpt><trkpt lat="42.4555556" lon="12.9543053"><ele>1270.0</ele><time>2026-04-08T15:50:00.969Z</time></trkpt><trkpt lat="42.4556406" lon="12.9541866"><ele>1270.0</ele><time>2026-04-08T15:50:01.969Z</time></trkpt><trkpt lat="42.4557225" lon="12.9540786"><ele>1270.0</ele><time>2026-04-08T15:50:02.969Z</time></trkpt><trkpt lat="42.4557908" lon="12.9539818"><ele>1270.0</ele><time>2026-04-08T15:50:03.969Z</time></trkpt><trkpt lat="42.4558719" lon="12.9539129"><ele>1270.0</ele><time>2026-04-08T15:50:04.969Z</time></trkpt><trkpt lat="42.4559262" lon="12.9538515"><ele>1270.0</ele><time>2026-04-08T15:50:05.969Z</time></trkpt><trkpt lat="42.4559862" lon="12.9537576"><ele>1270.0</ele><time>2026-04-08T15:50:07.969Z</time></trkpt><trkpt lat="42.4559764" lon="12.9536619"><ele>1270.0</ele><time>2026-04-08T15:50:09.969Z</time></trkpt><trkpt lat="42.4559374" lon="12.9535319"><ele>1270.0</ele><time>2026-04-08T15:50:11.969Z</time></trkpt><trkpt lat="42.4559109" lon="12.9534437"><ele>1270.0</ele><time>2026-04-08T15:50:12.969Z</time></trkpt><trkpt lat="42.4558774" lon="12.9533535"><ele>1270.0</ele><time>2026-04-08T15:50:13.969Z</time></trkpt><trkpt lat="42.4558509" lon="12.9532626"><ele>1270.0</ele><time>2026-04-08T15:50:14.969Z</time></trkpt><trkpt lat="42.4558066" lon="12.9531459"><ele>1270.0</ele><time>2026-04-08T15:50:16.969Z</time></trkpt><trkpt lat="42.4551536" lon="12.9551797"><ele>1270.0</ele><time>2026-04-08T15:49:54.969Z</time></trkpt><trkpt lat="42.4552261" lon="12.9550416"><ele>1270.0</ele><time>2026-04-08T15:49:55.969Z</time></trkpt><trkpt lat="42.4552665" lon="12.9548907"><ele>1270.0</ele><time>2026-04-08T15:49:56.969Z</time></trkpt><trkpt lat="42.455333" lon="12.9547483"><ele>1270.0</ele><time>2026-04-08T15:49:57.97Z</time></trkpt><trkpt lat="42.455384" lon="12.9545962"><ele>1270.0</ele><time>2026-04-08T15:49:58.97Z</time></trkpt><trkpt lat="42.4554683" lon="12.9544424"><ele>1270.0</ele><time>2026-04-08T15:49:59.969Z</time></trkpt><trkpt lat="42.4555556" lon="12.9543053"><ele>1270.0</ele><time>2026-04-08T15:50:00.969Z</time></trkpt><trkpt lat="42.4556406" lon="12.9541866"><ele>1270.0</ele><time>2026-04-08T15:50:01.969Z</time></trkpt><trkpt lat="42.4557225" lon="12.9540786"><ele>1270.0</ele><time>2026-04-08T15:50:02.969Z</time></trkpt><trkpt lat="42.4557908" lon="12.9539818"><ele>1270.0</ele><time>2026-04-08T15:50:03.969Z</time></trkpt><trkpt lat="42.4558719" lon="12.9539129"><ele>1270.0</ele><time>2026-04-08T15:50:04.969Z</time></trkpt><trkpt lat="42.4559262" lon="12.9538515"><ele>1270.0</ele><time>2026-04-08T15:50:05.969Z</time></trkpt><trkpt lat="42.4559862" lon="12.9537576"><ele>1270.0</ele><time>2026-04-08T15:50:07.969Z</time></trkpt><trkpt lat="42.4559764" lon="12.9536619"><ele>1270.0</ele><time>2026-04-08T15:50:09.969Z</time></trkpt><trkpt lat="42.4559374" lon="12.9535319"><ele>1270.0</ele><time>2026-04-08T15:50:11.969Z</time></trkpt><trkpt lat="42.4559109" lon="12.9534437"><ele>1270.0</ele><time>2026-04-08T15:50:12.969Z</time></trkpt><trkpt lat="42.4558774" lon="12.9533535"><ele>1270.0</ele><time>2026-04-08T15:50:13.969Z</time></trkpt><trkpt lat="42.4558509" lon="12.9532626"><ele>1270.0</ele><time>2026-04-08T15:50:14.969Z</time></trkpt><trkpt lat="42.4558066" lon="12.9531459"><ele>1270.0</ele><time>2026-04-08T15:50:16.969Z</time></trkpt><trkpt lat="42.4557867" lon="12.9530639"><ele>1270.0</ele><time>2026-04-08T15:50:51.969Z</time></trkpt><trkpt lat="42.4557541" lon="12.952966"><ele>1268.0</ele><time>2026-04-08T15:51:19.97Z</time></trkpt><trkpt lat="42.4558328" lon="12.9528198"><ele>1266.0</ele><time>2026-04-08T15:51:22.97Z</time></trkpt><trkpt lat="42.4558731" lon="12.9527243"><ele>1264.0</ele><time>2026-04-08T15:51:23.969Z</time></trkpt><trkpt lat="42.4559069" lon="12.9525684"><ele>1262.0</ele><time>2026-04-08T15:51:24.97Z</time></trkpt><trkpt lat="42.4559387" lon="12.9524066"><ele>1261.0</ele><time>2026-04-08T15:51:25.969Z</time></trkpt><trkpt lat="42.4559672" lon="12.9522209"><ele>1260.0</ele><time>2026-04-08T15:51:26.969Z</time></trkpt><trkpt lat="42.4560056" lon="12.9520102"><ele>1259.0</ele><time>2026-04-08T15:51:27.969Z</time></trkpt><trkpt lat="42.4560513" lon="12.9517919"><ele>1255.0</ele><time>2026-04-08T15:51:28.969Z</time></trkpt><trkpt lat="42.4561006" lon="12.9515745"><ele>1251.0</ele><time>2026-04-08T15:51:29.969Z</time></trkpt><trkpt lat="42.4561501" lon="12.9513741"><ele>1247.0</ele><time>2026-04-08T15:51:30.97Z</time></trkpt><trkpt lat="42.4562011" lon="12.9511906"><ele>1247.0</ele><time>2026-04-08T15:51:31.97Z</time></trkpt><trkpt lat="42.4562534" lon="12.95102"><ele>1247.0</ele><time>2026-04-08T15:51:32.97Z</time></trkpt><trkpt lat="42.4563229" lon="12.9508707"><ele>1247.0</ele><time>2026-04-08T15:51:33.969Z</time></trkpt><trkpt lat="42.4564163" lon="12.9507631"><ele>1247.0</ele><time>2026-04-08T15:51:34.969Z</time></trkpt><trkpt lat="42.4565355" lon="12.9506899"><ele>1255.0</ele><time>2026-04-08T15:51:35.969Z</time></trkpt><trkpt lat="42.4566582" lon="12.9506375"><ele>1263.0</ele><time>2026-04-08T15:51:36.97Z</time></trkpt><trkpt lat="42.4567978" lon="12.9506102"><ele>1271.0</ele><time>2026-04-08T15:51:37.969Z</time></trkpt><trkpt lat="42.4569512" lon="12.9506074"><ele>1279.0</ele><time>2026-04-08T15:51:38.969Z</time></trkpt><trkpt lat="42.4571141" lon="12.9506317"><ele>1284.6666666666665</ele><time>2026-04-08T15:51:39.969Z</time></trkpt><trkpt lat="42.4572844" lon="12.95065"><ele>1290.3333333333333</ele><time>2026-04-08T15:51:40.97Z</time></trkpt><trkpt lat="42.4574544" lon="12.9506858"><ele>1296.0</ele><time>2026-04-08T15:51:41.969Z</time></trkpt><trkpt lat="42.4576227" lon="12.950713"><ele>1296.0</ele><time>2026-04-08T15:51:42.969Z</time></trkpt><trkpt lat="42.4577725" lon="12.9507387"><ele>1296.0</ele><time>2026-04-08T15:51:43.969Z</time></trkpt><trkpt lat="42.4579122" lon="12.9507241"><ele>1296.0</ele><time>2026-04-08T15:51:44.969Z</time></trkpt><trkpt lat="42.4580271" lon="12.9506659"><ele>1296.0</ele><time>2026-04-08T15:51:45.969Z</time></trkpt><trkpt lat="42.4581232" lon="12.9505728"><ele>1296.5</ele><time>2026-04-08T15:51:46.969Z</time></trkpt><trkpt lat="42.4581983" lon="12.950439"><ele>1297.0</ele><time>2026-04-08T15:51:47.969Z</time></trkpt><trkpt lat="42.4582579" lon="12.950276"><ele>1297.5</ele><time>2026-04-08T15:51:48.969Z</time></trkpt><trkpt lat="42.458301" lon="12.9500743"><ele>1298.0</ele><time>2026-04-08T15:51:49.969Z</time></trkpt><trkpt lat="42.4583376" lon="12.9498658"><ele>1298.0</ele><time>2026-04-08T15:51:50.969Z</time></trkpt><trkpt lat="42.4583602" lon="12.9496536"><ele>1298.0</ele><time>2026-04-08T15:51:51.97Z</time></trkpt><trkpt lat="42.4583919" lon="12.9494388"><ele>1298.0</ele><time>2026-04-08T15:51:52.97Z</time></trkpt><trkpt lat="42.4583956" lon="12.9492292"><ele>1297.0</ele><time>2026-04-08T15:51:53.969Z</time></trkpt><trkpt lat="42.4584059" lon="12.9490269"><ele>1296.0</ele><time>2026-04-08T15:51:54.969Z</time></trkpt><trkpt lat="42.4584081" lon="12.9488211"><ele>1295.0</ele><time>2026-04-08T15:51:55.969Z</time></trkpt><trkpt lat="42.4584162" lon="12.9486167"><ele>1295.0</ele><time>2026-04-08T15:51:56.969Z</time></trkpt><trkpt lat="42.4584408" lon="12.9484338"><ele>1295.0</ele><time>2026-04-08T15:51:57.969Z</time></trkpt><trkpt lat="42.4585114" lon="12.9482807"><ele>1295.0</ele><time>2026-04-08T15:51:58.969Z</time></trkpt><trkpt lat="42.4586058" lon="12.9481474"><ele>1295.0</ele><time>2026-04-08T15:51:59.969Z</time></trkpt><trkpt lat="42.4587057" lon="12.9480189"><ele>1305.0</ele><time>2026-04-08T15:52:00.969Z</time></trkpt><trkpt lat="42.4588363" lon="12.947907"><ele>1315.0</ele><time>2026-04-08T15:52:01.969Z</time></trkpt><trkpt lat="42.4589514" lon="12.9477877"><ele>1325.0</ele><time>2026-04-08T15:52:02.969Z</time></trkpt><trkpt lat="42.4590995" lon="12.9477276"><ele>1325.0</ele><time>2026-04-08T15:52:03.969Z</time></trkpt><trkpt lat="42.4592459" lon="12.9476802"><ele>1325.0</ele><time>2026-04-08T15:52:04.969Z</time></trkpt><trkpt lat="42.4593996" lon="12.9476228"><ele>1325.0</ele><time>2026-04-08T15:52:05.97Z</time></trkpt><trkpt lat="42.4595467" lon="12.9475224"><ele>1327.0</ele><time>2026-04-08T15:52:06.969Z</time></trkpt><trkpt lat="42.4596833" lon="12.9473946"><ele>1329.0</ele><time>2026-04-08T15:52:07.969Z</time></trkpt><trkpt lat="42.4598247" lon="12.9472743"><ele>1331.0</ele><time>2026-04-08T15:52:08.969Z</time></trkpt><trkpt lat="42.4599896" lon="12.947177"><ele>1331.0</ele><time>2026-04-08T15:52:09.969Z</time></trkpt><trkpt lat="42.4601467" lon="12.9470793"><ele>1331.0</ele><time>2026-04-08T15:52:10.969Z</time></trkpt><trkpt lat="42.4602933" lon="12.9469997"><ele>1331.0</ele><time>2026-04-08T15:52:11.969Z</time></trkpt><trkpt lat="42.4604247" lon="12.9469351"><ele>1334.5</ele><time>2026-04-08T15:52:12.969Z</time></trkpt><trkpt lat="42.460551" lon="12.946898"><ele>1338.0</ele><time>2026-04-08T15:52:13.969Z</time></trkpt><trkpt lat="42.4606854" lon="12.9468777"><ele>1341.5</ele><time>2026-04-08T15:52:14.969Z</time></trkpt><trkpt lat="42.4608184" lon="12.9468917"><ele>1345.0</ele><time>2026-04-08T15:52:15.969Z</time></trkpt><trkpt lat="42.4609591" lon="12.9469431"><ele>1345.0</ele><time>2026-04-08T15:52:16.969Z</time></trkpt><trkpt lat="42.461095" lon="12.947007"><ele>1345.0</ele><time>2026-04-08T15:52:17.969Z</time></trkpt><trkpt lat="42.4612247" lon="12.9471456"><ele>1345.0</ele><time>2026-04-08T15:52:18.969Z</time></trkpt><trkpt lat="42.4613719" lon="12.9472461"><ele>1343.3333333333333</ele><time>2026-04-08T15:52:19.969Z</time></trkpt><trkpt lat="42.4615169" lon="12.9473615"><ele>1341.6666666666667</ele><time>2026-04-08T15:52:20.969Z</time></trkpt><trkpt lat="42.4616627" lon="12.9474578"><ele>1340.0</ele><time>2026-04-08T15:52:21.97Z</time></trkpt><trkpt lat="42.4617951" lon="12.9475236"><ele>1341.6666666666667</ele><time>2026-04-08T15:52:22.97Z</time></trkpt><trkpt lat="42.461934" lon="12.9475829"><ele>1343.3333333333335</ele><time>2026-04-08T15:52:23.969Z</time></trkpt><trkpt lat="42.4620102" lon="12.9476217"><ele>1345.0</ele><time>2026-04-08T15:52:24.969Z</time></trkpt><trkpt lat="42.4620695" lon="12.9476673"><ele>1346.6666666666667</ele><time>2026-04-08T15:52:25.97Z</time></trkpt><trkpt lat="42.4621248" lon="12.9477286"><ele>1348.3333333333333</ele><time>2026-04-08T15:52:26.969Z</time></trkpt><trkpt lat="42.4621124" lon="12.9478254"><ele>1350.0</ele><time>2026-04-08T15:52:27.969Z</time></trkpt><trkpt lat="42.4620398" lon="12.9479349"><ele>1353.2</ele><time>2026-04-08T15:52:29.969Z</time></trkpt><trkpt lat="42.4619672" lon="12.9479293"><ele>1356.4</ele><time>2026-04-08T15:52:30.969Z</time></trkpt><trkpt lat="42.4618955" lon="12.9479084"><ele>1359.6</ele><time>2026-04-08T15:52:31.969Z</time></trkpt><trkpt lat="42.4617883" lon="12.947789"><ele>1362.8</ele><time>2026-04-08T15:52:32.97Z</time></trkpt><trkpt lat="42.4616846" lon="12.9476889"><ele>1366.0</ele><time>2026-04-08T15:52:33.969Z</time></trkpt><trkpt lat="42.4615581" lon="12.9475988"><ele>1359.0</ele><time>2026-04-08T15:52:34.969Z</time></trkpt><trkpt lat="42.461415" lon="12.9475207"><ele>1352.0</ele><time>2026-04-08T15:52:35.969Z</time></trkpt><trkpt lat="42.4612631" lon="12.9474602"><ele>1345.0</ele><time>2026-04-08T15:52:36.969Z</time></trkpt><trkpt lat="42.4611016" lon="12.9474316"><ele>1345.0</ele><time>2026-04-08T15:52:37.97Z</time></trkpt><trkpt lat="42.4609381" lon="12.9474488"><ele>1345.0</ele><time>2026-04-08T15:52:38.969Z</time></trkpt><trkpt lat="42.4607757" lon="12.9475121"><ele>1345.0</ele><time>2026-04-08T15:52:39.969Z</time></trkpt><trkpt lat="42.4606303" lon="12.9476341"><ele>1346.6666666666665</ele><time>2026-04-08T15:52:40.969Z</time></trkpt><trkpt lat="42.4604907" lon="12.9477895"><ele>1348.3333333333333</ele><time>2026-04-08T15:52:41.969Z</time></trkpt><trkpt lat="42.4603586" lon="12.9479567"><ele>1350.0</ele><time>2026-04-08T15:52:42.969Z</time></trkpt><trkpt lat="42.4602284" lon="12.948138"><ele>1350.0</ele><time>2026-04-08T15:52:43.969Z</time></trkpt><trkpt lat="42.4601022" lon="12.9483209"><ele>1350.0</ele><time>2026-04-08T15:52:44.969Z</time></trkpt><trkpt lat="42.4599879" lon="12.9485021"><ele>1350.0</ele><time>2026-04-08T15:52:45.969Z</time></trkpt><trkpt lat="42.4598859" lon="12.9486819"><ele>1355.6666666666667</ele><time>2026-04-08T15:52:46.969Z</time></trkpt><trkpt lat="42.4597938" lon="12.9488566"><ele>1361.3333333333335</ele><time>2026-04-08T15:52:47.969Z</time></trkpt><trkpt lat="42.4597237" lon="12.9490426"><ele>1367.0</ele><time>2026-04-08T15:52:48.969Z</time></trkpt><trkpt lat="42.4596769" lon="12.9492423"><ele>1370.6666666666667</ele><time>2026-04-08T15:52:49.969Z</time></trkpt><trkpt lat="42.4596614" lon="12.9494489"><ele>1374.3333333333333</ele><time>2026-04-08T15:52:50.969Z</time></trkpt><trkpt lat="42.4596528" lon="12.9496611"><ele>1378.0</ele><time>2026-04-08T15:52:51.969Z</time></trkpt><trkpt lat="42.4596362" lon="12.9498709"><ele>1381.0</ele><time>2026-04-08T15:52:52.969Z</time></trkpt><trkpt lat="42.4596309" lon="12.9500813"><ele>1384.0</ele><time>2026-04-08T15:52:53.97Z</time></trkpt><trkpt lat="42.4596252" lon="12.9502877"><ele>1387.0</ele><time>2026-04-08T15:52:54.969Z</time></trkpt><trkpt lat="42.4596227" lon="12.9505026"><ele>1378.6666666666665</ele><time>2026-04-08T15:52:55.969Z</time></trkpt><trkpt lat="42.4596074" lon="12.950705"><ele>1370.3333333333333</ele><time>2026-04-08T15:52:56.97Z</time></trkpt><trkpt lat="42.4595893" lon="12.9509132"><ele>1362.0</ele><time>2026-04-08T15:52:57.969Z</time></trkpt><trkpt lat="42.4595715" lon="12.9511261"><ele>1362.0</ele><time>2026-04-08T15:52:58.969Z</time></trkpt><trkpt lat="42.4595563" lon="12.9513349"><ele>1362.0</ele><time>2026-04-08T15:52:59.97Z</time></trkpt><trkpt lat="42.459537" lon="12.9515484"><ele>1362.0</ele><time>2026-04-08T15:53:00.969Z</time></trkpt><trkpt lat="42.4595309" lon="12.9517674"><ele>1366.3333333333333</ele><time>2026-04-08T15:53:01.969Z</time></trkpt><trkpt lat="42.4595157" lon="12.9519939"><ele>1370.6666666666665</ele><time>2026-04-08T15:53:02.969Z</time></trkpt><trkpt lat="42.4594967" lon="12.9522094"><ele>1375.0</ele><time>2026-04-08T15:53:03.969Z</time></trkpt><trkpt lat="42.4594695" lon="12.9524265"><ele>1382.0</ele><time>2026-04-08T15:53:04.97Z</time></trkpt><trkpt lat="42.4594047" lon="12.9526262"><ele>1389.0</ele><time>2026-04-08T15:53:05.969Z</time></trkpt><trkpt lat="42.459319" lon="12.952809"><ele>1396.0</ele><time>2026-04-08T15:53:06.969Z</time></trkpt><trkpt lat="42.4592148" lon="12.9529546"><ele>1396.0</ele><time>2026-04-08T15:53:07.97Z</time></trkpt><trkpt lat="42.4590916" lon="12.9530504"><ele>1396.0</ele><time>2026-04-08T15:53:08.969Z</time></trkpt><trkpt lat="42.4589566" lon="12.9531243"><ele>1396.0</ele><time>2026-04-08T15:53:09.969Z</time></trkpt><trkpt lat="42.4588173" lon="12.9531947"><ele>1396.0</ele><time>2026-04-08T15:53:10.969Z</time></trkpt><trkpt lat="42.4586959" lon="12.953296"><ele>1394.0</ele><time>2026-04-08T15:53:11.97Z</time></trkpt><trkpt lat="42.4586138" lon="12.9534252"><ele>1392.0</ele><time>2026-04-08T15:53:12.97Z</time></trkpt><trkpt lat="42.4585703" lon="12.9535785"><ele>1390.0</ele><time>2026-04-08T15:53:13.969Z</time></trkpt><trkpt lat="42.4585486" lon="12.9537621"><ele>1388.0</ele><time>2026-04-08T15:53:14.969Z</time></trkpt><trkpt lat="42.4585582" lon="12.953967"><ele>1388.0</ele><time>2026-04-08T15:53:15.969Z</time></trkpt><trkpt lat="42.4585714" lon="12.9541736"><ele>1388.0</ele><time>2026-04-08T15:53:16.97Z</time></trkpt><trkpt lat="42.4585875" lon="12.954404"><ele>1388.0</ele><time>2026-04-08T15:53:17.969Z</time></trkpt><trkpt lat="42.4585904" lon="12.9546302"><ele>1392.0</ele><time>2026-04-08T15:53:18.969Z</time></trkpt><trkpt lat="42.4585686" lon="12.9548573"><ele>1396.0</ele><time>2026-04-08T15:53:19.97Z</time></trkpt><trkpt lat="42.458537" lon="12.9550777"><ele>1400.0</ele><time>2026-04-08T15:53:20.969Z</time></trkpt><trkpt lat="42.4584664" lon="12.9552656"><ele>1406.0</ele><time>2026-04-08T15:53:21.969Z</time></trkpt><trkpt lat="42.4583757" lon="12.9554223"><ele>1412.0</ele><time>2026-04-08T15:53:22.97Z</time></trkpt><trkpt lat="42.4582558" lon="12.9555609"><ele>1418.0</ele><time>2026-04-08T15:53:23.97Z</time></trkpt><trkpt lat="42.4581361" lon="12.9556992"><ele>1415.3333333333335</ele><time>2026-04-08T15:53:24.969Z</time></trkpt><trkpt lat="42.4580247" lon="12.9558713"><ele>1412.6666666666667</ele><time>2026-04-08T15:53:25.97Z</time></trkpt><trkpt lat="42.4579281" lon="12.9560545"><ele>1410.0</ele><time>2026-04-08T15:53:26.969Z</time></trkpt><trkpt lat="42.4578387" lon="12.9562418"><ele>1410.0</ele><time>2026-04-08T15:53:27.969Z</time></trkpt><trkpt lat="42.4577511" lon="12.9564297"><ele>1410.0</ele><time>2026-04-08T15:53:28.969Z</time></trkpt><trkpt lat="42.4576603" lon="12.956618"><ele>1410.0</ele><time>2026-04-08T15:53:29.97Z</time></trkpt><trkpt lat="42.4575651" lon="12.9568091"><ele>1415.0</ele><time>2026-04-08T15:53:30.969Z</time></trkpt><trkpt lat="42.4574736" lon="12.956994"><ele>1420.0</ele><time>2026-04-08T15:53:31.969Z</time></trkpt><trkpt lat="42.4573885" lon="12.9571793"><ele>1425.0</ele><time>2026-04-08T15:53:32.969Z</time></trkpt><trkpt lat="42.4573257" lon="12.9573777"><ele>1428.0</ele><time>2026-04-08T15:53:33.969Z</time></trkpt><trkpt lat="42.4572753" lon="12.9575919"><ele>1431.0</ele><time>2026-04-08T15:53:34.969Z</time></trkpt><trkpt lat="42.4572464" lon="12.9578108"><ele>1434.0</ele><time>2026-04-08T15:53:35.969Z</time></trkpt><trkpt lat="42.4572289" lon="12.9580329"><ele>1434.0</ele><time>2026-04-08T15:53:36.969Z</time></trkpt><trkpt lat="42.4572114" lon="12.958264"><ele>1434.0</ele><time>2026-04-08T15:53:37.97Z</time></trkpt><trkpt lat="42.4571991" lon="12.9584974"><ele>1434.0</ele><time>2026-04-08T15:53:38.969Z</time></trkpt><trkpt lat="42.4571859" lon="12.958731"><ele>1436.0</ele><time>2026-04-08T15:53:39.969Z</time></trkpt><trkpt lat="42.4571697" lon="12.9589673"><ele>1438.0</ele><time>2026-04-08T15:53:40.969Z</time></trkpt><trkpt lat="42.4571481" lon="12.9591982"><ele>1440.0</ele><time>2026-04-08T15:53:41.969Z</time></trkpt><trkpt lat="42.4571223" lon="12.9594342"><ele>1438.3333333333333</ele><time>2026-04-08T15:53:42.969Z</time></trkpt><trkpt lat="42.4570949" lon="12.9596663"><ele>1436.6666666666665</ele><time>2026-04-08T15:53:43.969Z</time></trkpt><trkpt lat="42.4570696" lon="12.9599036"><ele>1435.0</ele><time>2026-04-08T15:53:44.969Z</time></trkpt><trkpt lat="42.4570332" lon="12.9601367"><ele>1435.0</ele><time>2026-04-08T15:53:45.969Z</time></trkpt><trkpt lat="42.4569905" lon="12.9603721"><ele>1435.0</ele><time>2026-04-08T15:53:46.97Z</time></trkpt><trkpt lat="42.4569366" lon="12.960592"><ele>1435.0</ele><time>2026-04-08T15:53:47.97Z</time></trkpt><trkpt lat="42.4568806" lon="12.9608064"><ele>1439.0</ele><time>2026-04-08T15:53:48.969Z</time></trkpt><trkpt lat="42.4568199" lon="12.9610103"><ele>1443.0</ele><time>2026-04-08T15:53:49.969Z</time></trkpt><trkpt lat="42.4567645" lon="12.9612093"><ele>1447.0</ele><time>2026-04-08T15:53:50.969Z</time></trkpt><trkpt lat="42.4567035" lon="12.9614045"><ele>1447.0</ele><time>2026-04-08T15:53:51.969Z</time></trkpt><trkpt lat="42.4566349" lon="12.9615943"><ele>1447.0</ele><time>2026-04-08T15:53:52.969Z</time></trkpt><trkpt lat="42.4565596" lon="12.9617864"><ele>1447.0</ele><time>2026-04-08T15:53:53.97Z</time></trkpt><trkpt lat="42.4564675" lon="12.961964"><ele>1449.3333333333333</ele><time>2026-04-08T15:53:54.969Z</time></trkpt><trkpt lat="42.4563478" lon="12.9621157"><ele>1451.6666666666667</ele><time>2026-04-08T15:53:55.97Z</time></trkpt><trkpt lat="42.4562087" lon="12.96224"><ele>1454.0</ele><time>2026-04-08T15:53:56.969Z</time></trkpt><trkpt lat="42.4560593" lon="12.9623448"><ele>1454.0</ele><time>2026-04-08T15:53:57.969Z</time></trkpt><trkpt lat="42.4559069" lon="12.9624611"><ele>1454.0</ele><time>2026-04-08T15:53:58.969Z</time></trkpt><trkpt lat="42.4557588" lon="12.9625885"><ele>1454.0</ele><time>2026-04-08T15:53:59.969Z</time></trkpt><trkpt lat="42.4556116" lon="12.9627307"><ele>1456.3333333333335</ele><time>2026-04-08T15:54:00.969Z</time></trkpt><trkpt lat="42.4554623" lon="12.9628846"><ele>1458.6666666666667</ele><time>2026-04-08T15:54:01.969Z</time></trkpt><trkpt lat="42.4553207" lon="12.9630502"><ele>1461.0</ele><time>2026-04-08T15:54:02.97Z</time></trkpt><trkpt lat="42.4551784" lon="12.9632274"><ele>1470.3333333333333</ele><time>2026-04-08T15:54:03.969Z</time></trkpt><trkpt lat="42.4550416" lon="12.9634099"><ele>1479.6666666666665</ele><time>2026-04-08T15:54:04.969Z</time></trkpt><trkpt lat="42.4549034" lon="12.9635977"><ele>1489.0</ele><time>2026-04-08T15:54:05.969Z</time></trkpt><trkpt lat="42.4547748" lon="12.9637895"><ele>1489.0</ele><time>2026-04-08T15:54:06.969Z</time></trkpt><trkpt lat="42.4546533" lon="12.9639811"><ele>1489.0</ele><time>2026-04-08T15:54:07.969Z</time></trkpt><trkpt lat="42.4545558" lon="12.9641859"><ele>1489.0</ele><time>2026-04-08T15:54:08.969Z</time></trkpt><trkpt lat="42.4544716" lon="12.9643962"><ele>1483.6666666666665</ele><time>2026-04-08T15:54:09.969Z</time></trkpt><trkpt lat="42.4543975" lon="12.9646038"><ele>1478.3333333333333</ele><time>2026-04-08T15:54:10.969Z</time></trkpt><trkpt lat="42.4543283" lon="12.9648069"><ele>1473.0</ele><time>2026-04-08T15:54:11.969Z</time></trkpt><trkpt lat="42.4542629" lon="12.9650042"><ele>1476.25</ele><time>2026-04-08T15:54:12.969Z</time></trkpt><trkpt lat="42.4541984" lon="12.9651923"><ele>1479.5</ele><time>2026-04-08T15:54:13.969Z</time></trkpt><trkpt lat="42.4541419" lon="12.9653709"><ele>1482.75</ele><time>2026-04-08T15:54:14.969Z</time></trkpt><trkpt lat="42.4540945" lon="12.9655447"><ele>1486.0</ele><time>2026-04-08T15:54:15.97Z</time></trkpt><trkpt lat="42.4540648" lon="12.9657194"><ele>1487.75</ele><time>2026-04-08T15:54:16.969Z</time></trkpt><trkpt lat="42.4540568" lon="12.9658883"><ele>1489.5</ele><time>2026-04-08T15:54:17.97Z</time></trkpt><trkpt lat="42.4540688" lon="12.9660556"><ele>1491.25</ele><time>2026-04-08T15:54:18.969Z</time></trkpt><trkpt lat="42.4541082" lon="12.9662153"><ele>1493.0</ele><time>2026-04-08T15:54:19.97Z</time></trkpt><trkpt lat="42.4541661" lon="12.9663608"><ele>1493.0</ele><time>2026-04-08T15:54:20.97Z</time></trkpt><trkpt lat="42.454255" lon="12.9665143"><ele>1493.0</ele><time>2026-04-08T15:54:21.969Z</time></trkpt><trkpt lat="42.4543483" lon="12.9666544"><ele>1493.0</ele><time>2026-04-08T15:54:22.97Z</time></trkpt><trkpt lat="42.4544591" lon="12.9668156"><ele>1493.0</ele><time>2026-04-08T15:54:23.969Z</time></trkpt><trkpt lat="42.4545642" lon="12.966989"><ele>1499.6666666666667</ele><time>2026-04-08T15:54:24.969Z</time></trkpt><trkpt lat="42.4546667" lon="12.9671775"><ele>1506.3333333333333</ele><time>2026-04-08T15:54:25.969Z</time></trkpt><trkpt lat="42.454753" lon="12.9673652"><ele>1513.0</ele><time>2026-04-08T15:54:26.969Z</time></trkpt><trkpt lat="42.454826" lon="12.9675583"><ele>1513.0</ele><time>2026-04-08T15:54:27.969Z</time></trkpt><trkpt lat="42.4548856" lon="12.9677599"><ele>1513.0</ele><time>2026-04-08T15:54:28.97Z</time></trkpt><trkpt lat="42.4549355" lon="12.9679516"><ele>1513.0</ele><time>2026-04-08T15:54:29.969Z</time></trkpt><trkpt lat="42.4549729" lon="12.9681531"><ele>1513.0</ele><time>2026-04-08T15:54:30.969Z</time></trkpt><trkpt lat="42.4549963" lon="12.9683574"><ele>1513.0</ele><time>2026-04-08T15:54:31.969Z</time></trkpt><trkpt lat="42.4550394" lon="12.9685592"><ele>1513.0</ele><time>2026-04-08T15:54:32.969Z</time></trkpt><trkpt lat="42.455083" lon="12.9687636"><ele>1513.3333333333333</ele><time>2026-04-08T15:54:33.969Z</time></trkpt><trkpt lat="42.4551311" lon="12.9689665"><ele>1513.6666666666667</ele><time>2026-04-08T15:54:34.969Z</time></trkpt><trkpt lat="42.4551678" lon="12.9691712"><ele>1514.0</ele><time>2026-04-08T15:54:35.969Z</time></trkpt><trkpt lat="42.4551957" lon="12.969381"><ele>1515.0</ele><time>2026-04-08T15:54:36.969Z</time></trkpt><trkpt lat="42.4552123" lon="12.9695897"><ele>1516.0</ele><time>2026-04-08T15:54:37.969Z</time></trkpt><trkpt lat="42.4552161" lon="12.9697952"><ele>1517.0</ele><time>2026-04-08T15:54:38.969Z</time></trkpt><trkpt lat="42.4552257" lon="12.970008"><ele>1519.0</ele><time>2026-04-08T15:54:39.969Z</time></trkpt><trkpt lat="42.455194" lon="12.9702238"><ele>1521.0</ele><time>2026-04-08T15:54:40.969Z</time></trkpt><trkpt lat="42.4551793" lon="12.9704187"><ele>1523.0</ele><time>2026-04-08T15:54:41.969Z</time></trkpt><trkpt lat="42.4551725" lon="12.9706064"><ele>1525.0</ele><time>2026-04-08T15:54:42.969Z</time></trkpt><trkpt lat="42.4551594" lon="12.9707929"><ele>1530.5</ele><time>2026-04-08T15:54:43.969Z</time></trkpt><trkpt lat="42.4551326" lon="12.9709734"><ele>1536.0</ele><time>2026-04-08T15:54:44.97Z</time></trkpt><trkpt lat="42.4550885" lon="12.9711509"><ele>1541.5</ele><time>2026-04-08T15:54:45.97Z</time></trkpt><trkpt lat="42.4550298" lon="12.971315"><ele>1547.0</ele><time>2026-04-08T15:54:46.969Z</time></trkpt><trkpt lat="42.454941" lon="12.9714723"><ele>1547.0</ele><time>2026-04-08T15:54:47.969Z</time></trkpt><trkpt lat="42.4548483" lon="12.9716266"><ele>1547.0</ele><time>2026-04-08T15:54:48.969Z</time></trkpt><trkpt lat="42.454737" lon="12.9717912"><ele>1547.0</ele><time>2026-04-08T15:54:49.969Z</time></trkpt><trkpt lat="42.4546253" lon="12.9719361"><ele>1553.0</ele><time>2026-04-08T15:54:50.97Z</time></trkpt><trkpt lat="42.4544994" lon="12.9720323"><ele>1559.0</ele><time>2026-04-08T15:54:51.969Z</time></trkpt><trkpt lat="42.4543908" lon="12.9721145"><ele>1565.0</ele><time>2026-04-08T15:54:52.97Z</time></trkpt><trkpt lat="42.4542842" lon="12.9721745"><ele>1571.0</ele><time>2026-04-08T15:54:53.969Z</time></trkpt><trkpt lat="42.4541822" lon="12.9721885"><ele>1571.0</ele><time>2026-04-08T15:54:54.97Z</time></trkpt><trkpt lat="42.4540732" lon="12.9721571"><ele>1571.0</ele><time>2026-04-08T15:54:55.969Z</time></trkpt><trkpt lat="42.4539586" lon="12.9721137"><ele>1571.0</ele><time>2026-04-08T15:54:56.969Z</time></trkpt><trkpt lat="42.4538385" lon="12.9720682"><ele>1571.0</ele><time>2026-04-08T15:54:57.969Z</time></trkpt><trkpt lat="42.453726" lon="12.9720593"><ele>1571.5</ele><time>2026-04-08T15:54:58.969Z</time></trkpt><trkpt lat="42.4535942" lon="12.9720495"><ele>1572.0</ele><time>2026-04-08T15:54:59.969Z</time></trkpt><trkpt lat="42.4534713" lon="12.9720758"><ele>1572.5</ele><time>2026-04-08T15:55:00.969Z</time></trkpt><trkpt lat="42.4533448" lon="12.9721116"><ele>1573.0</ele><time>2026-04-08T15:55:01.969Z</time></trkpt><trkpt lat="42.4532287" lon="12.9721846"><ele>1573.0</ele><time>2026-04-08T15:55:02.969Z</time></trkpt><trkpt lat="42.4531029" lon="12.9722429"><ele>1573.0</ele><time>2026-04-08T15:55:03.97Z</time></trkpt><trkpt lat="42.4529777" lon="12.9722953"><ele>1573.0</ele><time>2026-04-08T15:55:04.969Z</time></trkpt><trkpt lat="42.4528566" lon="12.9723646"><ele>1573.0</ele><time>2026-04-08T15:55:05.969Z</time></trkpt><trkpt lat="42.4527345" lon="12.9724147"><ele>1570.5</ele><time>2026-04-08T15:55:06.969Z</time></trkpt><trkpt lat="42.4526231" lon="12.9724643"><ele>1568.0</ele><time>2026-04-08T15:55:07.97Z</time></trkpt><trkpt lat="42.4525201" lon="12.9725415"><ele>1565.5</ele><time>2026-04-08T15:55:08.97Z</time></trkpt><trkpt lat="42.4524371" lon="12.9726436"><ele>1563.0</ele><time>2026-04-08T15:55:09.969Z</time></trkpt><trkpt lat="42.4523919" lon="12.9727803"><ele>1563.0</ele><time>2026-04-08T15:55:10.969Z</time></trkpt><trkpt lat="42.452378" lon="12.9729255"><ele>1563.0</ele><time>2026-04-08T15:55:11.969Z</time></trkpt><trkpt lat="42.4523892" lon="12.9730788"><ele>1563.0</ele><time>2026-04-08T15:55:12.969Z</time></trkpt><trkpt lat="42.452437" lon="12.9732314"><ele>1563.0</ele><time>2026-04-08T15:55:13.969Z</time></trkpt><trkpt lat="42.4524964" lon="12.9733861"><ele>1561.25</ele><time>2026-04-08T15:55:14.969Z</time></trkpt><trkpt lat="42.4525582" lon="12.9735442"><ele>1559.5</ele><time>2026-04-08T15:55:15.969Z</time></trkpt><trkpt lat="42.4526155" lon="12.9736967"><ele>1557.75</ele><time>2026-04-08T15:55:16.969Z</time></trkpt><trkpt lat="42.4526743" lon="12.9738581"><ele>1556.0</ele><time>2026-04-08T15:55:17.969Z</time></trkpt><trkpt lat="42.4527342" lon="12.9740334"><ele>1553.25</ele><time>2026-04-08T15:55:18.969Z</time></trkpt><trkpt lat="42.4527898" lon="12.9742059"><ele>1550.5</ele><time>2026-04-08T15:55:19.969Z</time></trkpt><trkpt lat="42.4528653" lon="12.974367"><ele>1547.75</ele><time>2026-04-08T15:55:20.969Z</time></trkpt><trkpt lat="42.452952" lon="12.9745116"><ele>1545.0</ele><time>2026-04-08T15:55:21.969Z</time></trkpt><trkpt lat="42.4530608" lon="12.9746253"><ele>1553.75</ele><time>2026-04-08T15:55:22.97Z</time></trkpt><trkpt lat="42.4531603" lon="12.9747418"><ele>1562.5</ele><time>2026-04-08T15:55:23.969Z</time></trkpt><trkpt lat="42.4532605" lon="12.9748583"><ele>1571.25</ele><time>2026-04-08T15:55:24.969Z</time></trkpt><trkpt lat="42.4533248" lon="12.9750135"><ele>1580.0</ele><time>2026-04-08T15:55:25.969Z</time></trkpt><trkpt lat="42.4533839" lon="12.975168"><ele>1580.0</ele><time>2026-04-08T15:55:26.969Z</time></trkpt><trkpt lat="42.4534434" lon="12.9753271"><ele>1580.0</ele><time>2026-04-08T15:55:27.97Z</time></trkpt><trkpt lat="42.453481" lon="12.9755071"><ele>1580.0</ele><time>2026-04-08T15:55:28.969Z</time></trkpt><trkpt lat="42.4535264" lon="12.9756895"><ele>1580.0</ele><time>2026-04-08T15:55:29.97Z</time></trkpt><trkpt lat="42.4535905" lon="12.9758698"><ele>1577.5</ele><time>2026-04-08T15:55:30.969Z</time></trkpt><trkpt lat="42.4536522" lon="12.9760471"><ele>1575.0</ele><time>2026-04-08T15:55:31.97Z</time></trkpt><trkpt lat="42.4537179" lon="12.9762148"><ele>1572.5</ele><time>2026-04-08T15:55:32.969Z</time></trkpt><trkpt lat="42.4537935" lon="12.9763749"><ele>1570.0</ele><time>2026-04-08T15:55:33.97Z</time></trkpt><trkpt lat="42.453874" lon="12.9765262"><ele>1575.25</ele><time>2026-04-08T15:55:34.969Z</time></trkpt><trkpt lat="42.4539651" lon="12.9766661"><ele>1580.5</ele><time>2026-04-08T15:55:35.969Z</time></trkpt><trkpt lat="42.4540602" lon="12.9767987"><ele>1585.75</ele><time>2026-04-08T15:55:36.969Z</time></trkpt><trkpt lat="42.4541621" lon="12.9769198"><ele>1591.0</ele><time>2026-04-08T15:55:37.969Z</time></trkpt><trkpt lat="42.454263" lon="12.9770251"><ele>1591.0</ele><time>2026-04-08T15:55:38.97Z</time></trkpt><trkpt lat="42.4543661" lon="12.9771239"><ele>1591.0</ele><time>2026-04-08T15:55:39.97Z</time></trkpt><trkpt lat="42.4544687" lon="12.9772194"><ele>1591.0</ele><time>2026-04-08T15:55:40.969Z</time></trkpt><trkpt lat="42.4545627" lon="12.9773205"><ele>1591.0</ele><time>2026-04-08T15:55:41.969Z</time></trkpt><trkpt lat="42.4546616" lon="12.9774028"><ele>1592.0</ele><time>2026-04-08T15:55:42.969Z</time></trkpt><trkpt lat="42.4547575" lon="12.9774904"><ele>1593.0</ele><time>2026-04-08T15:55:43.969Z</time></trkpt><trkpt lat="42.454859" lon="12.9775651"><ele>1594.0</ele><time>2026-04-08T15:55:44.969Z</time></trkpt><trkpt lat="42.4549581" lon="12.9776383"><ele>1595.0</ele><time>2026-04-08T15:55:45.97Z</time></trkpt><trkpt lat="42.4550635" lon="12.9777013"><ele>1595.0</ele><time>2026-04-08T15:55:46.97Z</time></trkpt><trkpt lat="42.455171" lon="12.9777569"><ele>1595.0</ele><time>2026-04-08T15:55:47.969Z</time></trkpt><trkpt lat="42.4552792" lon="12.9777979"><ele>1595.0</ele><time>2026-04-08T15:55:48.969Z</time></trkpt><trkpt lat="42.4553941" lon="12.9778378"><ele>1595.0</ele><time>2026-04-08T15:55:49.969Z</time></trkpt><trkpt lat="42.4555117" lon="12.9778652"><ele>1598.75</ele><time>2026-04-08T15:55:50.969Z</time></trkpt><trkpt lat="42.4556283" lon="12.9778818"><ele>1602.5</ele><time>2026-04-08T15:55:51.969Z</time></trkpt><trkpt lat="42.4557484" lon="12.977893"><ele>1606.25</ele><time>2026-04-08T15:55:52.969Z</time></trkpt><trkpt lat="42.4558638" lon="12.9779127"><ele>1610.0</ele><time>2026-04-08T15:55:53.969Z</time></trkpt><trkpt lat="42.455978" lon="12.9779247"><ele>1610.0</ele><time>2026-04-08T15:55:54.97Z</time></trkpt><trkpt lat="42.4560763" lon="12.977948"><ele>1610.0</ele><time>2026-04-08T15:55:55.969Z</time></trkpt><trkpt lat="42.456174" lon="12.9779774"><ele>1610.0</ele><time>2026-04-08T15:55:56.97Z</time></trkpt><trkpt lat="42.4562601" lon="12.9780182"><ele>1610.0</ele><time>2026-04-08T15:55:57.969Z</time></trkpt><trkpt lat="42.4563319" lon="12.9780669"><ele>1610.0</ele><time>2026-04-08T15:55:58.969Z</time></trkpt><trkpt lat="42.4564042" lon="12.9781194"><ele>1612.2</ele><time>2026-04-08T15:55:59.969Z</time></trkpt><trkpt lat="42.4564845" lon="12.9781732"><ele>1614.4</ele><time>2026-04-08T15:56:00.969Z</time></trkpt><trkpt lat="42.4565598" lon="12.9782463"><ele>1616.6</ele><time>2026-04-08T15:56:01.97Z</time></trkpt><trkpt lat="42.4566333" lon="12.9783311"><ele>1618.8</ele><time>2026-04-08T15:56:02.97Z</time></trkpt><trkpt lat="42.456702" lon="12.9784445"><ele>1621.0</ele><time>2026-04-08T15:56:03.969Z</time></trkpt><trkpt lat="42.4567614" lon="12.9785836"><ele>1621.0</ele><time>2026-04-08T15:56:04.969Z</time></trkpt><trkpt lat="42.4568195" lon="12.978737"><ele>1621.0</ele><time>2026-04-08T15:56:05.969Z</time></trkpt><trkpt lat="42.456882" lon="12.9788925"><ele>1621.0</ele><time>2026-04-08T15:56:06.97Z</time></trkpt><trkpt lat="42.4569465" lon="12.9790559"><ele>1621.0</ele><time>2026-04-08T15:56:07.969Z</time></trkpt><trkpt lat="42.4570116" lon="12.9792296"><ele>1622.75</ele><time>2026-04-08T15:56:08.969Z</time></trkpt><trkpt lat="42.4570654" lon="12.9794024"><ele>1624.5</ele><time>2026-04-08T15:56:09.969Z</time></trkpt><trkpt lat="42.4570976" lon="12.9795725"><ele>1626.25</ele><time>2026-04-08T15:56:10.969Z</time></trkpt><trkpt lat="42.4571029" lon="12.9797289"><ele>1628.0</ele><time>2026-04-08T15:56:11.97Z</time></trkpt><trkpt lat="42.4570921" lon="12.9798791"><ele>1628.0</ele><time>2026-04-08T15:56:12.97Z</time></trkpt><trkpt lat="42.4570518" lon="12.9800105"><ele>1628.0</ele><time>2026-04-08T15:56:13.97Z</time></trkpt><trkpt lat="42.4569814" lon="12.9801448"><ele>1628.0</ele><time>2026-04-08T15:56:14.97Z</time></trkpt><trkpt lat="42.4568903" lon="12.9802812"><ele>1628.0</ele><time>2026-04-08T15:56:15.97Z</time></trkpt><trkpt lat="42.4567924" lon="12.9804216"><ele>1634.25</ele><time>2026-04-08T15:56:16.97Z</time></trkpt><trkpt lat="42.4566746" lon="12.9805171"><ele>1640.5</ele><time>2026-04-08T15:56:17.969Z</time></trkpt><trkpt lat="42.4565534" lon="12.9806147"><ele>1646.75</ele><time>2026-04-08T15:56:18.969Z</time></trkpt><trkpt lat="42.4564411" lon="12.9806935"><ele>1653.0</ele><time>2026-04-08T15:56:19.97Z</time></trkpt><trkpt lat="42.4563352" lon="12.9807752"><ele>1654.75</ele><time>2026-04-08T15:56:20.969Z</time></trkpt><trkpt lat="42.4562549" lon="12.9809087"><ele>1656.5</ele><time>2026-04-08T15:56:21.969Z</time></trkpt><trkpt lat="42.4561802" lon="12.9810505"><ele>1658.25</ele><time>2026-04-08T15:56:22.969Z</time></trkpt><trkpt lat="42.4561183" lon="12.9812031"><ele>1660.0</ele><time>2026-04-08T15:56:23.969Z</time></trkpt><trkpt lat="42.4560263" lon="12.98133"><ele>1660.0</ele><time>2026-04-08T15:56:24.969Z</time></trkpt><trkpt lat="42.4559407" lon="12.9814477"><ele>1660.0</ele><time>2026-04-08T15:56:25.969Z</time></trkpt><trkpt lat="42.4558629" lon="12.9815411"><ele>1660.0</ele><time>2026-04-08T15:56:26.97Z</time></trkpt><trkpt lat="42.4557681" lon="12.9816197"><ele>1660.0</ele><time>2026-04-08T15:56:27.969Z</time></trkpt><trkpt lat="42.455669" lon="12.9816465"><ele>1660.0</ele><time>2026-04-08T15:56:28.969Z</time></trkpt><trkpt lat="42.4555437" lon="12.9815836"><ele>1659.4</ele><time>2026-04-08T15:56:29.97Z</time></trkpt><trkpt lat="42.4554238" lon="12.9815384"><ele>1658.8</ele><time>2026-04-08T15:56:30.969Z</time></trkpt><trkpt lat="42.4553166" lon="12.9815448"><ele>1658.1999999999998</ele><time>2026-04-08T15:56:31.969Z</time></trkpt><trkpt lat="42.4552193" lon="12.9815827"><ele>1657.6</ele><time>2026-04-08T15:56:32.969Z</time></trkpt><trkpt lat="42.4551457" lon="12.9816497"><ele>1657.0</ele><time>2026-04-08T15:56:33.969Z</time></trkpt><trkpt lat="42.4550982" lon="12.9817464"><ele>1657.0</ele><time>2026-04-08T15:56:34.969Z</time></trkpt><trkpt lat="42.4550854" lon="12.9818608"><ele>1657.0</ele><time>2026-04-08T15:56:35.97Z</time></trkpt><trkpt lat="42.455102" lon="12.981991"><ele>1657.0</ele><time>2026-04-08T15:56:36.97Z</time></trkpt><trkpt lat="42.4551146" lon="12.9821362"><ele>1657.0</ele><time>2026-04-08T15:56:37.969Z</time></trkpt><trkpt lat="42.4551283" lon="12.9822838"><ele>1657.0</ele><time>2026-04-08T15:56:38.969Z</time></trkpt><trkpt lat="42.4551256" lon="12.9824304"><ele>1658.5</ele><time>2026-04-08T15:56:39.969Z</time></trkpt><trkpt lat="42.4551079" lon="12.9825621"><ele>1660.0</ele><time>2026-04-08T15:56:40.969Z</time></trkpt><trkpt lat="42.4550345" lon="12.9827264"><ele>1661.5</ele><time>2026-04-08T15:56:41.969Z</time></trkpt><trkpt lat="42.455004" lon="12.9828857"><ele>1663.0</ele><time>2026-04-08T15:56:42.97Z</time></trkpt><trkpt lat="42.454982" lon="12.9830443"><ele>1663.0</ele><time>2026-04-08T15:56:43.969Z</time></trkpt><trkpt lat="42.4549707" lon="12.9832171"><ele>1663.0</ele><time>2026-04-08T15:56:44.969Z</time></trkpt><trkpt lat="42.4549729" lon="12.9833902"><ele>1663.0</ele><time>2026-04-08T15:56:45.969Z</time></trkpt><trkpt lat="42.4549822" lon="12.9835644"><ele>1663.0</ele><time>2026-04-08T15:56:46.969Z</time></trkpt><trkpt lat="42.4550143" lon="12.9837374"><ele>1662.75</ele><time>2026-04-08T15:56:47.97Z</time></trkpt><trkpt lat="42.4550532" lon="12.9839052"><ele>1662.5</ele><time>2026-04-08T15:56:48.969Z</time></trkpt><trkpt lat="42.4551139" lon="12.9840641"><ele>1662.25</ele><time>2026-04-08T15:56:49.969Z</time></trkpt><trkpt lat="42.4551757" lon="12.9842153"><ele>1662.0</ele><time>2026-04-08T15:56:50.97Z</time></trkpt><trkpt lat="42.4552304" lon="12.9843543"><ele>1661.0</ele><time>2026-04-08T15:56:51.97Z</time></trkpt><trkpt lat="42.4552884" lon="12.9844808"><ele>1660.0</ele><time>2026-04-08T15:56:52.97Z</time></trkpt><trkpt lat="42.4553252" lon="12.984616"><ele>1659.0</ele><time>2026-04-08T15:56:53.969Z</time></trkpt><trkpt lat="42.4553457" lon="12.9847672"><ele>1658.0</ele><time>2026-04-08T15:56:54.969Z</time></trkpt><trkpt lat="42.455352" lon="12.9849126"><ele>1657.0</ele><time>2026-04-08T15:56:55.97Z</time></trkpt><trkpt lat="42.4553403" lon="12.9850688"><ele>1659.75</ele><time>2026-04-08T15:56:56.97Z</time></trkpt><trkpt lat="42.4553057" lon="12.9852404"><ele>1662.5</ele><time>2026-04-08T15:56:57.969Z</time></trkpt><trkpt lat="42.4552736" lon="12.9854042"><ele>1665.25</ele><time>2026-04-08T15:56:58.97Z</time></trkpt><trkpt lat="42.4552286" lon="12.9855672"><ele>1668.0</ele><time>2026-04-08T15:56:59.969Z</time></trkpt><trkpt lat="42.4551622" lon="12.9857195"><ele>1671.75</ele><time>2026-04-08T15:57:00.969Z</time></trkpt><trkpt lat="42.455082" lon="12.9858569"><ele>1675.5</ele><time>2026-04-08T15:57:01.969Z</time></trkpt><trkpt lat="42.4549756" lon="12.9859729"><ele>1679.25</ele><time>2026-04-08T15:57:02.969Z</time></trkpt><trkpt lat="42.4548656" lon="12.9860863"><ele>1683.0</ele><time>2026-04-08T15:57:03.969Z</time></trkpt><trkpt lat="42.4547483" lon="12.986204"><ele>1683.0</ele><time>2026-04-08T15:57:04.969Z</time></trkpt><trkpt lat="42.4546299" lon="12.986313"><ele>1683.0</ele><time>2026-04-08T15:57:05.97Z</time></trkpt><trkpt lat="42.4544986" lon="12.9864139"><ele>1683.0</ele><time>2026-04-08T15:57:06.969Z</time></trkpt><trkpt lat="42.4543655" lon="12.9865169"><ele>1683.0</ele><time>2026-04-08T15:57:07.969Z</time></trkpt><trkpt lat="42.4542234" lon="12.9866096"><ele>1685.6666666666665</ele><time>2026-04-08T15:57:08.969Z</time></trkpt><trkpt lat="42.4540796" lon="12.9866989"><ele>1688.3333333333333</ele><time>2026-04-08T15:57:09.969Z</time></trkpt><trkpt lat="42.4539414" lon="12.9867887"><ele>1691.0</ele><time>2026-04-08T15:57:10.97Z</time></trkpt><trkpt lat="42.4538011" lon="12.9868746"><ele>1687.5</ele><time>2026-04-08T15:57:11.969Z</time></trkpt><trkpt lat="42.4536706" lon="12.9869669"><ele>1684.0</ele><time>2026-04-08T15:57:12.969Z</time></trkpt><trkpt lat="42.4535436" lon="12.9870593"><ele>1680.5</ele><time>2026-04-08T15:57:13.969Z</time></trkpt><trkpt lat="42.453424" lon="12.9871524"><ele>1677.0</ele><time>2026-04-08T15:57:14.969Z</time></trkpt><trkpt lat="42.453313" lon="12.9872418"><ele>1677.0</ele><time>2026-04-08T15:57:15.969Z</time></trkpt><trkpt lat="42.4532093" lon="12.9873253"><ele>1677.0</ele><time>2026-04-08T15:57:16.97Z</time></trkpt><trkpt lat="42.4531102" lon="12.987396"><ele>1677.0</ele><time>2026-04-08T15:57:17.969Z</time></trkpt><trkpt lat="42.4530165" lon="12.9874659"><ele>1677.0</ele><time>2026-04-08T15:57:18.969Z</time></trkpt><trkpt lat="42.4529317" lon="12.9875229"><ele>1677.0</ele><time>2026-04-08T15:57:19.969Z</time></trkpt><trkpt lat="42.4528592" lon="12.9875687"><ele>1676.8</ele><time>2026-04-08T15:57:20.969Z</time></trkpt><trkpt lat="42.4527969" lon="12.9876073"><ele>1676.6</ele><time>2026-04-08T15:57:21.97Z</time></trkpt><trkpt lat="42.4527088" lon="12.9877227"><ele>1676.3999999999999</ele><time>2026-04-08T15:57:23.97Z</time></trkpt><trkpt lat="42.4526846" lon="12.9878892"><ele>1676.1999999999998</ele><time>2026-04-08T15:57:25.969Z</time></trkpt><trkpt lat="42.4527059" lon="12.9879809"><ele>1676.0</ele><time>2026-04-08T15:57:26.969Z</time></trkpt><trkpt lat="42.4527436" lon="12.9880771"><ele>1676.0</ele><time>2026-04-08T15:57:27.969Z</time></trkpt><trkpt lat="42.4527908" lon="12.9881814"><ele>1676.0</ele><time>2026-04-08T15:57:28.969Z</time></trkpt><trkpt lat="42.452845" lon="12.9883005"><ele>1676.0</ele><time>2026-04-08T15:57:29.97Z</time></trkpt><trkpt lat="42.4529036" lon="12.9884262"><ele>1676.0</ele><time>2026-04-08T15:57:30.969Z</time></trkpt><trkpt lat="42.4529628" lon="12.9885508"><ele>1676.0</ele><time>2026-04-08T15:57:31.969Z</time></trkpt><trkpt lat="42.4530169" lon="12.9886682"><ele>1675.1666666666665</ele><time>2026-04-08T15:57:32.969Z</time></trkpt><trkpt lat="42.453071" lon="12.9887813"><ele>1674.3333333333333</ele><time>2026-04-08T15:57:33.969Z</time></trkpt><trkpt lat="42.4531331" lon="12.9888742"><ele>1673.5</ele><time>2026-04-08T15:57:34.97Z</time></trkpt><trkpt lat="42.4531964" lon="12.9889376"><ele>1672.6666666666665</ele><time>2026-04-08T15:57:35.97Z</time></trkpt><trkpt lat="42.4532643" lon="12.9889588"><ele>1671.8333333333333</ele><time>2026-04-08T15:57:36.969Z</time></trkpt><trkpt lat="42.4533345" lon="12.9889413"><ele>1671.0</ele><time>2026-04-08T15:57:37.969Z</time></trkpt><trkpt lat="42.4534099" lon="12.9889063"><ele>1671.0</ele><time>2026-04-08T15:57:38.97Z</time></trkpt><trkpt lat="42.4534856" lon="12.988871"><ele>1671.0</ele><time>2026-04-08T15:57:39.969Z</time></trkpt><trkpt lat="42.4535592" lon="12.9888452"><ele>1671.0</ele><time>2026-04-08T15:57:40.969Z</time></trkpt><trkpt lat="42.4536295" lon="12.9888277"><ele>1671.0</ele><time>2026-04-08T15:57:41.969Z</time></trkpt><trkpt lat="42.4537155" lon="12.9888585"><ele>1671.0</ele><time>2026-04-08T15:57:42.97Z</time></trkpt><trkpt lat="42.4538047" lon="12.9888978"><ele>1671.0</ele><time>2026-04-08T15:57:43.969Z</time></trkpt><trkpt lat="42.4538922" lon="12.9889662"><ele>1669.75</ele><time>2026-04-08T15:57:44.97Z</time></trkpt><trkpt lat="42.4539699" lon="12.9890681"><ele>1668.5</ele><time>2026-04-08T15:57:45.969Z</time></trkpt><trkpt lat="42.4540669" lon="12.9891532"><ele>1667.25</ele><time>2026-04-08T15:57:46.97Z</time></trkpt><trkpt lat="42.4541799" lon="12.9892511"><ele>1666.0</ele><time>2026-04-08T15:57:47.97Z</time></trkpt><trkpt lat="42.4543038" lon="12.9893464"><ele>1666.0</ele><time>2026-04-08T15:57:48.97Z</time></trkpt><trkpt lat="42.4544342" lon="12.9894192"><ele>1666.0</ele><time>2026-04-08T15:57:49.969Z</time></trkpt><trkpt lat="42.4545496" lon="12.9894664"><ele>1666.0</ele><time>2026-04-08T15:57:50.969Z</time></trkpt><trkpt lat="42.4546713" lon="12.9894751"><ele>1666.0</ele><time>2026-04-08T15:57:51.97Z</time></trkpt><trkpt lat="42.4547832" lon="12.9894416"><ele>1667.0</ele><time>2026-04-08T15:57:52.969Z</time></trkpt><trkpt lat="42.4549109" lon="12.9893651"><ele>1668.0</ele><time>2026-04-08T15:57:53.97Z</time></trkpt><trkpt lat="42.4550306" lon="12.9892973"><ele>1669.0</ele><time>2026-04-08T15:57:54.97Z</time></trkpt><trkpt lat="42.4551378" lon="12.9892613"><ele>1670.0</ele><time>2026-04-08T15:57:55.969Z</time></trkpt><trkpt lat="42.4552496" lon="12.9892227"><ele>1670.0</ele><time>2026-04-08T15:57:56.969Z</time></trkpt><trkpt lat="42.4553641" lon="12.9892449"><ele>1670.0</ele><time>2026-04-08T15:57:57.969Z</time></trkpt><trkpt lat="42.4554377" lon="12.9893975"><ele>1670.0</ele><time>2026-04-08T15:57:58.97Z</time></trkpt><trkpt lat="42.4555003" lon="12.9895489"><ele>1670.0</ele><time>2026-04-08T15:57:59.969Z</time></trkpt><trkpt lat="42.4555687" lon="12.9897185"><ele>1674.6666666666665</ele><time>2026-04-08T15:58:00.969Z</time></trkpt><trkpt lat="42.4556186" lon="12.9899394"><ele>1679.3333333333335</ele><time>2026-04-08T15:58:01.97Z</time></trkpt><trkpt lat="42.4556316" lon="12.9901834"><ele>1684.0</ele><time>2026-04-08T15:58:02.97Z</time></trkpt><trkpt lat="42.4556299" lon="12.9904141"><ele>1684.0</ele><time>2026-04-08T15:58:03.969Z</time></trkpt><trkpt lat="42.455626" lon="12.9906564"><ele>1684.0</ele><time>2026-04-08T15:58:04.969Z</time></trkpt><trkpt lat="42.4556326" lon="12.9908651"><ele>1684.0</ele><time>2026-04-08T15:58:05.969Z</time></trkpt><trkpt lat="42.455656" lon="12.9910608"><ele>1682.25</ele><time>2026-04-08T15:58:06.969Z</time></trkpt><trkpt lat="42.4556985" lon="12.9912317"><ele>1680.5</ele><time>2026-04-08T15:58:07.969Z</time></trkpt><trkpt lat="42.4557649" lon="12.9913587"><ele>1678.75</ele><time>2026-04-08T15:58:08.97Z</time></trkpt><trkpt lat="42.4558464" lon="12.9914443"><ele>1677.0</ele><time>2026-04-08T15:58:09.969Z</time></trkpt><trkpt lat="42.4559415" lon="12.991498"><ele>1677.0</ele><time>2026-04-08T15:58:10.969Z</time></trkpt><trkpt lat="42.4560488" lon="12.9915194"><ele>1677.0</ele><time>2026-04-08T15:58:11.969Z</time></trkpt><trkpt lat="42.4561653" lon="12.9915169"><ele>1677.0</ele><time>2026-04-08T15:58:12.969Z</time></trkpt><trkpt lat="42.4562959" lon="12.9914961"><ele>1677.0</ele><time>2026-04-08T15:58:13.969Z</time></trkpt><trkpt lat="42.4564324" lon="12.9914733"><ele>1677.5</ele><time>2026-04-08T15:58:14.97Z</time></trkpt><trkpt lat="42.4565752" lon="12.9914374"><ele>1678.0</ele><time>2026-04-08T15:58:15.969Z</time></trkpt><trkpt lat="42.4567132" lon="12.9913809"><ele>1678.5</ele><time>2026-04-08T15:58:16.969Z</time></trkpt><trkpt lat="42.4568508" lon="12.9913047"><ele>1679.0</ele><time>2026-04-08T15:58:17.97Z</time></trkpt><trkpt lat="42.4569881" lon="12.9912022"><ele>1679.0</ele><time>2026-04-08T15:58:18.969Z</time></trkpt><trkpt lat="42.4571151" lon="12.9910943"><ele>1679.0</ele><time>2026-04-08T15:58:19.97Z</time></trkpt><trkpt lat="42.4572285" lon="12.9909725"><ele>1679.0</ele><time>2026-04-08T15:58:20.969Z</time></trkpt><trkpt lat="42.4573226" lon="12.9908211"><ele>1679.0</ele><time>2026-04-08T15:58:21.969Z</time></trkpt><trkpt lat="42.4574195" lon="12.9906536"><ele>1678.3333333333333</ele><time>2026-04-08T15:58:22.969Z</time></trkpt><trkpt lat="42.4575277" lon="12.9904904"><ele>1677.6666666666665</ele><time>2026-04-08T15:58:23.969Z</time></trkpt><trkpt lat="42.4576487" lon="12.990349"><ele>1677.0</ele><time>2026-04-08T15:58:24.969Z</time></trkpt><trkpt lat="42.4577834" lon="12.9902253"><ele>1677.0</ele><time>2026-04-08T15:58:25.97Z</time></trkpt><trkpt lat="42.4579227" lon="12.9901279"><ele>1677.0</ele><time>2026-04-08T15:58:26.969Z</time></trkpt><trkpt lat="42.4580748" lon="12.9900607"><ele>1677.0</ele><time>2026-04-08T15:58:27.969Z</time></trkpt><trkpt lat="42.458234" lon="12.9900203"><ele>1678.0</ele><time>2026-04-08T15:58:28.969Z</time></trkpt><trkpt lat="42.4583951" lon="12.990006"><ele>1679.0</ele><time>2026-04-08T15:58:29.969Z</time></trkpt><trkpt lat="42.4585263" lon="12.9900157"><ele>1680.0</ele><time>2026-04-08T15:58:30.97Z</time></trkpt><trkpt lat="42.4586374" lon="12.9900381"><ele>1681.0</ele><time>2026-04-08T15:58:31.969Z</time></trkpt><trkpt lat="42.4587276" lon="12.9900736"><ele>1681.0</ele><time>2026-04-08T15:58:32.969Z</time></trkpt><trkpt lat="42.4587866" lon="12.9901165"><ele>1681.0</ele><time>2026-04-08T15:58:33.97Z</time></trkpt><trkpt lat="42.4588456" lon="12.9901798"><ele>1681.0</ele><time>2026-04-08T15:58:35.969Z</time></trkpt><trkpt lat="42.4588993" lon="12.9902302"><ele>1681.0</ele><time>2026-04-08T15:58:38.969Z</time></trkpt><trkpt lat="42.4589464" lon="12.9901668"><ele>1681.0</ele><time>2026-04-08T15:58:42.969Z</time></trkpt><trkpt lat="42.4589353" lon="12.9900635"><ele>1681.0</ele><time>2026-04-08T15:59:47.97Z</time></trkpt><trkpt lat="42.4588586" lon="12.9900129"><ele>1681.0</ele><time>2026-04-08T15:59:50.969Z</time></trkpt><trkpt lat="42.4587644" lon="12.9900029"><ele>1681.0</ele><time>2026-04-08T16:02:56.93Z</time></trkpt><trkpt lat="42.458675" lon="12.9899869"><ele>1681.0</ele><time>2026-04-08T16:02:58.93Z</time></trkpt><trkpt lat="42.4585714" lon="12.9899675"><ele>1681.0</ele><time>2026-04-08T16:03:00.93Z</time></trkpt><trkpt lat="42.4584666" lon="12.9899527"><ele>1681.0</ele><time>2026-04-08T16:03:02.93Z</time></trkpt><trkpt lat="42.4583629" lon="12.9899548"><ele>1681.0</ele><time>2026-04-08T16:03:04.93Z</time></trkpt><trkpt lat="42.458253" lon="12.9899611"><ele>1681.0</ele><time>2026-04-08T16:03:06.93Z</time></trkpt><trkpt lat="42.458144" lon="12.9899801"><ele>1681.0</ele><time>2026-04-08T16:03:08.93Z</time></trkpt><trkpt lat="42.4580203" lon="12.9900192"><ele>1681.0</ele><time>2026-04-08T16:03:10.931Z</time></trkpt><trkpt lat="42.4579513" lon="12.9900519"><ele>1681.0</ele><time>2026-04-08T16:03:11.93Z</time></trkpt><trkpt lat="42.4578864" lon="12.9900925"><ele>1681.0</ele><time>2026-04-08T16:03:12.93Z</time></trkpt><trkpt lat="42.4578204" lon="12.9901382"><ele>1680.4285714285716</ele><time>2026-04-08T16:03:13.93Z</time></trkpt><trkpt lat="42.4577564" lon="12.9901868"><ele>1679.857142857143</ele><time>2026-04-08T16:03:14.931Z</time></trkpt><trkpt lat="42.4576964" lon="12.9902376"><ele>1679.2857142857142</ele><time>2026-04-08T16:03:15.93Z</time></trkpt><trkpt lat="42.4576346" lon="12.9902917"><ele>1678.7142857142858</ele><time>2026-04-08T16:03:16.93Z</time></trkpt><trkpt lat="42.4575754" lon="12.9903536"><ele>1678.142857142857</ele><time>2026-04-08T16:03:17.93Z</time></trkpt><trkpt lat="42.4575166" lon="12.9904219"><ele>1677.5714285714287</ele><time>2026-04-08T16:03:18.93Z</time></trkpt><trkpt lat="42.4574602" lon="12.9904943"><ele>1677.0</ele><time>2026-04-08T16:03:19.93Z</time></trkpt><trkpt lat="42.4574059" lon="12.9905801"><ele>1677.0</ele><time>2026-04-08T16:03:20.931Z</time></trkpt><trkpt lat="42.4573581" lon="12.9906695"><ele>1677.0</ele><time>2026-04-08T16:03:21.93Z</time></trkpt><trkpt lat="42.4573106" lon="12.9907663"><ele>1677.0</ele><time>2026-04-08T16:03:22.93Z</time></trkpt><trkpt lat="42.4572573" lon="12.9908551"><ele>1677.0</ele><time>2026-04-08T16:03:23.93Z</time></trkpt><trkpt lat="42.4571987" lon="12.9909334"><ele>1677.0</ele><time>2026-04-08T16:03:24.931Z</time></trkpt><trkpt lat="42.4571398" lon="12.9910033"><ele>1677.0</ele><time>2026-04-08T16:03:25.93Z</time></trkpt><trkpt lat="42.4570715" lon="12.9910709"><ele>1677.3333333333333</ele><time>2026-04-08T16:03:26.93Z</time></trkpt><trkpt lat="42.4569951" lon="12.9911282"><ele>1677.6666666666665</ele><time>2026-04-08T16:03:27.93Z</time></trkpt><trkpt lat="42.456916" lon="12.9911856"><ele>1678.0</ele><time>2026-04-08T16:03:28.93Z</time></trkpt><trkpt lat="42.456835" lon="12.9912422"><ele>1678.3333333333333</ele><time>2026-04-08T16:03:29.93Z</time></trkpt><trkpt lat="42.4567531" lon="12.991297"><ele>1678.6666666666665</ele><time>2026-04-08T16:03:30.931Z</time></trkpt><trkpt lat="42.4566686" lon="12.9913348"><ele>1679.0</ele><time>2026-04-08T16:03:31.93Z</time></trkpt><trkpt lat="42.4565808" lon="12.9913625"><ele>1679.0</ele><time>2026-04-08T16:03:32.93Z</time></trkpt><trkpt lat="42.4564909" lon="12.991382"><ele>1679.0</ele><time>2026-04-08T16:03:33.93Z</time></trkpt><trkpt lat="42.4564048" lon="12.9913936"><ele>1679.0</ele><time>2026-04-08T16:03:34.93Z</time></trkpt><trkpt lat="42.4563097" lon="12.9914018"><ele>1679.0</ele><time>2026-04-08T16:03:35.93Z</time></trkpt><trkpt lat="42.4562165" lon="12.9914135"><ele>1679.0</ele><time>2026-04-08T16:03:36.93Z</time></trkpt><trkpt lat="42.4561309" lon="12.9914242"><ele>1678.6666666666665</ele><time>2026-04-08T16:03:37.931Z</time></trkpt><trkpt lat="42.4560516" lon="12.9914266"><ele>1678.3333333333333</ele><time>2026-04-08T16:03:38.93Z</time></trkpt><trkpt lat="42.4559741" lon="12.991422"><ele>1678.0</ele><time>2026-04-08T16:03:39.93Z</time></trkpt><trkpt lat="42.4558995" lon="12.9913917"><ele>1677.6666666666665</ele><time>2026-04-08T16:03:40.93Z</time></trkpt><trkpt lat="42.4558299" lon="12.9913408"><ele>1677.3333333333333</ele><time>2026-04-08T16:03:41.931Z</time></trkpt><trkpt lat="42.4557678" lon="12.991274"><ele>1677.0</ele><time>2026-04-08T16:03:42.93Z</time></trkpt><trkpt lat="42.4557224" lon="12.9911904"><ele>1677.0</ele><time>2026-04-08T16:03:43.93Z</time></trkpt><trkpt lat="42.4556873" lon="12.9910909"><ele>1677.0</ele><time>2026-04-08T16:03:44.93Z</time></trkpt><trkpt lat="42.4556664" lon="12.9909718"><ele>1677.0</ele><time>2026-04-08T16:03:45.93Z</time></trkpt><trkpt lat="42.4556519" lon="12.990838"><ele>1677.0</ele><time>2026-04-08T16:03:46.93Z</time></trkpt><trkpt lat="42.4556476" lon="12.9906972"><ele>1677.0</ele><time>2026-04-08T16:03:47.93Z</time></trkpt><trkpt lat="42.4556523" lon="12.9905495"><ele>1678.3999999999999</ele><time>2026-04-08T16:03:48.93Z</time></trkpt><trkpt lat="42.4556577" lon="12.9904018"><ele>1679.8</ele><time>2026-04-08T16:03:49.93Z</time></trkpt><trkpt lat="42.4556609" lon="12.9902553"><ele>1681.2</ele><time>2026-04-08T16:03:50.931Z</time></trkpt><trkpt lat="42.4556518" lon="12.9901131"><ele>1682.6</ele><time>2026-04-08T16:03:51.93Z</time></trkpt><trkpt lat="42.4556323" lon="12.9899712"><ele>1684.0</ele><time>2026-04-08T16:03:52.931Z</time></trkpt><trkpt lat="42.4555966" lon="12.9898223"><ele>1685.8000000000002</ele><time>2026-04-08T16:03:53.93Z</time></trkpt><trkpt lat="42.4555502" lon="12.9896827"><ele>1687.6000000000001</ele><time>2026-04-08T16:03:54.931Z</time></trkpt><trkpt lat="42.4555045" lon="12.9895493"><ele>1689.4</ele><time>2026-04-08T16:03:55.93Z</time></trkpt><trkpt lat="42.4554525" lon="12.9894181"><ele>1691.2</ele><time>2026-04-08T16:03:56.93Z</time></trkpt><trkpt lat="42.4554011" lon="12.9893133"><ele>1693.0</ele><time>2026-04-08T16:03:57.93Z</time></trkpt><trkpt lat="42.45533" lon="12.989233"><ele>1688.4</ele><time>2026-04-08T16:03:58.93Z</time></trkpt><trkpt lat="42.4552374" lon="12.9891982"><ele>1683.8000000000002</ele><time>2026-04-08T16:03:59.93Z</time></trkpt><trkpt lat="42.4551433" lon="12.9891842"><ele>1679.2</ele><time>2026-04-08T16:04:00.93Z</time></trkpt><trkpt lat="42.4550426" lon="12.9892237"><ele>1674.6</ele><time>2026-04-08T16:04:01.93Z</time></trkpt><trkpt lat="42.4549363" lon="12.9893012"><ele>1670.0</ele><time>2026-04-08T16:04:02.93Z</time></trkpt><trkpt lat="42.454839" lon="12.9893685"><ele>1670.0</ele><time>2026-04-08T16:04:03.93Z</time></trkpt><trkpt lat="42.4547412" lon="12.9894116"><ele>1670.0</ele><time>2026-04-08T16:04:04.93Z</time></trkpt><trkpt lat="42.4546495" lon="12.9894344"><ele>1670.0</ele><time>2026-04-08T16:04:05.93Z</time></trkpt><trkpt lat="42.4545447" lon="12.9894287"><ele>1670.0</ele><time>2026-04-08T16:04:06.93Z</time></trkpt><trkpt lat="42.4544367" lon="12.9893814"><ele>1670.0</ele><time>2026-04-08T16:04:07.93Z</time></trkpt><trkpt lat="42.4543208" lon="12.9893172"><ele>1669.0</ele><time>2026-04-08T16:04:08.93Z</time></trkpt><trkpt lat="42.4541886" lon="12.9892348"><ele>1668.0</ele><time>2026-04-08T16:04:09.93Z</time></trkpt><trkpt lat="42.4540714" lon="12.9891465"><ele>1667.0</ele><time>2026-04-08T16:04:10.93Z</time></trkpt><trkpt lat="42.4539673" lon="12.9890496"><ele>1666.0</ele><time>2026-04-08T16:04:11.93Z</time></trkpt><trkpt lat="42.4538858" lon="12.9889492"><ele>1667.0</ele><time>2026-04-08T16:04:12.931Z</time></trkpt><trkpt lat="42.4538018" lon="12.9888553"><ele>1668.0</ele><time>2026-04-08T16:04:13.93Z</time></trkpt><trkpt lat="42.453719" lon="12.9887991"><ele>1669.0</ele><time>2026-04-08T16:04:14.93Z</time></trkpt><trkpt lat="42.4536229" lon="12.9887822"><ele>1670.0</ele><time>2026-04-08T16:04:15.931Z</time></trkpt><trkpt lat="42.4535311" lon="12.9888038"><ele>1671.0</ele><time>2026-04-08T16:04:16.93Z</time></trkpt><trkpt lat="42.4534415" lon="12.9888425"><ele>1671.0</ele><time>2026-04-08T16:04:17.93Z</time></trkpt><trkpt lat="42.4533529" lon="12.9888971"><ele>1671.0</ele><time>2026-04-08T16:04:18.93Z</time></trkpt><trkpt lat="42.4532784" lon="12.9889145"><ele>1671.0</ele><time>2026-04-08T16:04:19.931Z</time></trkpt><trkpt lat="42.4531585" lon="12.9888369"><ele>1671.0</ele><time>2026-04-08T16:04:21.93Z</time></trkpt><trkpt lat="42.4530974" lon="12.9887528"><ele>1671.0</ele><time>2026-04-08T16:04:22.931Z</time></trkpt><trkpt lat="42.4530606" lon="12.9886509"><ele>1671.0</ele><time>2026-04-08T16:04:23.93Z</time></trkpt><trkpt lat="42.4530112" lon="12.9885475"><ele>1671.0</ele><time>2026-04-08T16:04:24.93Z</time></trkpt><trkpt lat="42.4529607" lon="12.9884428"><ele>1671.0</ele><time>2026-04-08T16:04:25.93Z</time></trkpt><trkpt lat="42.4529143" lon="12.9883369"><ele>1671.0</ele><time>2026-04-08T16:04:26.93Z</time></trkpt><trkpt lat="42.4528693" lon="12.9882377"><ele>1671.0</ele><time>2026-04-08T16:04:27.93Z</time></trkpt><trkpt lat="42.4528312" lon="12.9881458"><ele>1671.0</ele><time>2026-04-08T16:04:28.93Z</time></trkpt><trkpt lat="42.4528079" lon="12.9880635"><ele>1672.0</ele><time>2026-04-08T16:04:29.93Z</time></trkpt><trkpt lat="42.452805" lon="12.9879134"><ele>1673.0</ele><time>2026-04-08T16:04:31.93Z</time></trkpt><trkpt lat="42.4528324" lon="12.9877887"><ele>1674.0</ele><time>2026-04-08T16:04:33.93Z</time></trkpt><trkpt lat="42.4528819" lon="12.9876959"><ele>1675.0</ele><time>2026-04-08T16:04:35.931Z</time></trkpt><trkpt lat="42.4529643" lon="12.9876243"><ele>1676.0</ele><time>2026-04-08T16:04:37.93Z</time></trkpt><trkpt lat="42.4530585" lon="12.9875611"><ele>1676.1666666666665</ele><time>2026-04-08T16:04:39.931Z</time></trkpt><trkpt lat="42.4531494" lon="12.9875061"><ele>1676.3333333333333</ele><time>2026-04-08T16:04:41.931Z</time></trkpt><trkpt lat="42.4532178" lon="12.9874573"><ele>1676.5</ele><time>2026-04-08T16:04:43.93Z</time></trkpt><trkpt lat="42.4532744" lon="12.987418"><ele>1676.6666666666665</ele><time>2026-04-08T16:04:45.93Z</time></trkpt><trkpt lat="42.4533795" lon="12.9873146"><ele>1676.8333333333333</ele><time>2026-04-08T16:07:16.935Z</time></trkpt><trkpt lat="42.4534331" lon="12.9872567"><ele>1677.0</ele><time>2026-04-08T16:07:17.931Z</time></trkpt><trkpt lat="42.4534979" lon="12.9871899"><ele>1677.0</ele><time>2026-04-08T16:07:18.933Z</time></trkpt><trkpt lat="42.4535773" lon="12.9871154"><ele>1677.0</ele><time>2026-04-08T16:07:19.932Z</time></trkpt><trkpt lat="42.4536626" lon="12.9870465"><ele>1677.0</ele><time>2026-04-08T16:07:20.932Z</time></trkpt><trkpt lat="42.4537542" lon="12.9869805"><ele>1677.0</ele><time>2026-04-08T16:07:21.934Z</time></trkpt><trkpt lat="42.4538537" lon="12.986915"><ele>1677.0</ele><time>2026-04-08T16:07:22.934Z</time></trkpt><trkpt lat="42.4539658" lon="12.9868488"><ele>1675.75</ele><time>2026-04-08T16:07:23.933Z</time></trkpt><trkpt lat="42.4540795" lon="12.9867661"><ele>1674.5</ele><time>2026-04-08T16:07:24.931Z</time></trkpt><trkpt lat="42.4542017" lon="12.9866915"><ele>1673.25</ele><time>2026-04-08T16:07:25.932Z</time></trkpt><trkpt lat="42.4543302" lon="12.9866015"><ele>1672.0</ele><time>2026-04-08T16:07:26.932Z</time></trkpt><trkpt lat="42.4544687" lon="12.9865056"><ele>1672.0</ele><time>2026-04-08T16:07:27.933Z</time></trkpt><trkpt lat="42.4546075" lon="12.9864023"><ele>1672.0</ele><time>2026-04-08T16:07:28.933Z</time></trkpt><trkpt lat="42.4547537" lon="12.9862803"><ele>1672.0</ele><time>2026-04-08T16:07:29.934Z</time></trkpt><trkpt lat="42.4548952" lon="12.98614"><ele>1670.6666666666667</ele><time>2026-04-08T16:07:30.937Z</time></trkpt><trkpt lat="42.4550247" lon="12.9859974"><ele>1669.3333333333335</ele><time>2026-04-08T16:07:31.934Z</time></trkpt><trkpt lat="42.4551229" lon="12.9858533"><ele>1668.0</ele><time>2026-04-08T16:07:32.932Z</time></trkpt><trkpt lat="42.4552122" lon="12.9857088"><ele>1668.0</ele><time>2026-04-08T16:07:33.932Z</time></trkpt><trkpt lat="42.4552798" lon="12.9855479"><ele>1668.0</ele><time>2026-04-08T16:07:34.934Z</time></trkpt><trkpt lat="42.4553262" lon="12.9853725"><ele>1668.0</ele><time>2026-04-08T16:07:35.932Z</time></trkpt><trkpt lat="42.4553591" lon="12.9851926"><ele>1668.0</ele><time>2026-04-08T16:07:36.932Z</time></trkpt><trkpt lat="42.4553829" lon="12.9850114"><ele>1665.25</ele><time>2026-04-08T16:07:37.94Z</time></trkpt><trkpt lat="42.4553893" lon="12.984837"><ele>1662.5</ele><time>2026-04-08T16:07:38.931Z</time></trkpt><trkpt lat="42.4553698" lon="12.984656"><ele>1659.75</ele><time>2026-04-08T16:07:39.933Z</time></trkpt><trkpt lat="42.4553366" lon="12.9844902"><ele>1657.0</ele><time>2026-04-08T16:07:40.935Z</time></trkpt><trkpt lat="42.4552812" lon="12.9843348"><ele>1657.0</ele><time>2026-04-08T16:07:41.931Z</time></trkpt><trkpt lat="42.4552222" lon="12.9841824"><ele>1657.0</ele><time>2026-04-08T16:07:42.932Z</time></trkpt><trkpt lat="42.4551658" lon="12.9840399"><ele>1657.0</ele><time>2026-04-08T16:07:43.933Z</time></trkpt><trkpt lat="42.4551154" lon="12.9838991"><ele>1657.0</ele><time>2026-04-08T16:07:44.934Z</time></trkpt><trkpt lat="42.4550813" lon="12.9837521"><ele>1658.0</ele><time>2026-04-08T16:07:45.932Z</time></trkpt><trkpt lat="42.4550722" lon="12.9836158"><ele>1659.0</ele><time>2026-04-08T16:07:46.932Z</time></trkpt><trkpt lat="42.4550543" lon="12.9834643"><ele>1660.0</ele><time>2026-04-08T16:07:47.931Z</time></trkpt><trkpt lat="42.4550384" lon="12.9833092"><ele>1661.0</ele><time>2026-04-08T16:07:48.93Z</time></trkpt><trkpt lat="42.4550284" lon="12.983149"><ele>1662.0</ele><time>2026-04-08T16:07:49.931Z</time></trkpt><trkpt lat="42.4550261" lon="12.9829905"><ele>1662.1666666666667</ele><time>2026-04-08T16:07:50.931Z</time></trkpt><trkpt lat="42.4550266" lon="12.9828427"><ele>1662.3333333333335</ele><time>2026-04-08T16:07:51.932Z</time></trkpt><trkpt lat="42.4550324" lon="12.9827038"><ele>1662.5</ele><time>2026-04-08T16:07:52.934Z</time></trkpt><trkpt lat="42.4550401" lon="12.9826108"><ele>1662.6666666666667</ele><time>2026-04-08T16:07:53.934Z</time></trkpt><trkpt lat="42.4550606" lon="12.9825013"><ele>1662.8333333333335</ele><time>2026-04-08T16:07:54.933Z</time></trkpt><trkpt lat="42.4550822" lon="12.9824026"><ele>1663.0</ele><time>2026-04-08T16:07:55.935Z</time></trkpt><trkpt lat="42.4551213" lon="12.9822897"><ele>1661.5</ele><time>2026-04-08T16:07:57.936Z</time></trkpt><trkpt lat="42.4551329" lon="12.9821551"><ele>1660.0</ele><time>2026-04-08T16:08:19.932Z</time></trkpt><trkpt lat="42.4550979" lon="12.981977"><ele>1658.5</ele><time>2026-04-08T16:08:21.933Z</time></trkpt><trkpt lat="42.4551279" lon="12.9818465"><ele>1657.0</ele><time>2026-04-08T16:08:23.876Z</time></trkpt><trkpt lat="42.4551648" lon="12.9816756"><ele>1656.3999999999999</ele><time>2026-04-08T16:08:24.933Z</time></trkpt><trkpt lat="42.4552366" lon="12.9816115"><ele>1655.8</ele><time>2026-04-08T16:08:25.933Z</time></trkpt><trkpt lat="42.4553283" lon="12.9815831"><ele>1655.2</ele><time>2026-04-08T16:08:26.935Z</time></trkpt><trkpt lat="42.4554302" lon="12.9815891"><ele>1654.6</ele><time>2026-04-08T16:08:27.933Z</time></trkpt><trkpt lat="42.4555446" lon="12.9816099"><ele>1654.0</ele><time>2026-04-08T16:08:28.933Z</time></trkpt><trkpt lat="42.4556607" lon="12.9816168"><ele>1655.5</ele><time>2026-04-08T16:08:29.932Z</time></trkpt><trkpt lat="42.4557758" lon="12.9815892"><ele>1657.0</ele><time>2026-04-08T16:08:30.934Z</time></trkpt><trkpt lat="42.4558851" lon="12.9815305"><ele>1658.5</ele><time>2026-04-08T16:08:31.93Z</time></trkpt><trkpt lat="42.4559792" lon="12.9814225"><ele>1660.0</ele><time>2026-04-08T16:08:32.933Z</time></trkpt><trkpt lat="42.4560605" lon="12.9812814"><ele>1660.0</ele><time>2026-04-08T16:08:33.931Z</time></trkpt><trkpt lat="42.4561417" lon="12.9811403"><ele>1660.0</ele><time>2026-04-08T16:08:34.93Z</time></trkpt><trkpt lat="42.456228" lon="12.9809858"><ele>1660.0</ele><time>2026-04-08T16:08:35.93Z</time></trkpt><trkpt lat="42.4563206" lon="12.9808577"><ele>1660.0</ele><time>2026-04-08T16:08:36.932Z</time></trkpt><trkpt lat="42.456432" lon="12.9807525"><ele>1658.25</ele><time>2026-04-08T16:08:37.935Z</time></trkpt><trkpt lat="42.4565658" lon="12.9806801"><ele>1656.5</ele><time>2026-04-08T16:08:38.933Z</time></trkpt><trkpt lat="42.4567029" lon="12.9805845"><ele>1654.75</ele><time>2026-04-08T16:08:39.932Z</time></trkpt><trkpt lat="42.4568132" lon="12.9804526"><ele>1653.0</ele><time>2026-04-08T16:08:40.935Z</time></trkpt><trkpt lat="42.4569146" lon="12.9803112"><ele>1653.0</ele><time>2026-04-08T16:08:41.932Z</time></trkpt><trkpt lat="42.4570085" lon="12.9801625"><ele>1653.0</ele><time>2026-04-08T16:08:42.933Z</time></trkpt><trkpt lat="42.457072" lon="12.9800174"><ele>1653.0</ele><time>2026-04-08T16:08:43.931Z</time></trkpt><trkpt lat="42.4571192" lon="12.9798781"><ele>1653.0</ele><time>2026-04-08T16:08:44.934Z</time></trkpt><trkpt lat="42.4571477" lon="12.9797295"><ele>1654.4</ele><time>2026-04-08T16:08:45.933Z</time></trkpt><trkpt lat="42.4571376" lon="12.9795726"><ele>1655.8000000000002</ele><time>2026-04-08T16:08:46.935Z</time></trkpt><trkpt lat="42.4571189" lon="12.9794324"><ele>1657.2</ele><time>2026-04-08T16:08:47.934Z</time></trkpt><trkpt lat="42.4570993" lon="12.9793217"><ele>1658.6</ele><time>2026-04-08T16:08:48.935Z</time></trkpt><trkpt lat="42.4570741" lon="12.9792049"><ele>1660.0</ele><time>2026-04-08T16:08:50.93Z</time></trkpt><trkpt lat="42.4570469" lon="12.9790872"><ele>1652.2</ele><time>2026-04-08T16:10:26.935Z</time></trkpt><trkpt lat="42.4570077" lon="12.9789942"><ele>1644.4</ele><time>2026-04-08T16:10:27.933Z</time></trkpt><trkpt lat="42.4569593" lon="12.9788706"><ele>1636.6</ele><time>2026-04-08T16:10:28.939Z</time></trkpt><trkpt lat="42.4569079" lon="12.9787391"><ele>1628.8</ele><time>2026-04-08T16:10:29.932Z</time></trkpt><trkpt lat="42.4568485" lon="12.9786019"><ele>1621.0</ele><time>2026-04-08T16:10:30.931Z</time></trkpt><trkpt lat="42.4567902" lon="12.978468"><ele>1621.0</ele><time>2026-04-08T16:10:31.931Z</time></trkpt><trkpt lat="42.4567216" lon="12.9783338"><ele>1621.0</ele><time>2026-04-08T16:10:32.931Z</time></trkpt><trkpt lat="42.4566417" lon="12.9782172"><ele>1621.0</ele><time>2026-04-08T16:10:33.934Z</time></trkpt><trkpt lat="42.4565472" lon="12.9781165"><ele>1621.0</ele><time>2026-04-08T16:10:34.933Z</time></trkpt><trkpt lat="42.4564253" lon="12.9780378"><ele>1621.0</ele><time>2026-04-08T16:10:35.93Z</time></trkpt><trkpt lat="42.4562975" lon="12.9779805"><ele>1621.0</ele><time>2026-04-08T16:10:36.934Z</time></trkpt><trkpt lat="42.4561536" lon="12.9779399"><ele>1621.0</ele><time>2026-04-08T16:10:37.934Z</time></trkpt><trkpt lat="42.4560003" lon="12.9779164"><ele>1621.0</ele><time>2026-04-08T16:10:38.931Z</time></trkpt><trkpt lat="42.4558458" lon="12.9779021"><ele>1617.3333333333335</ele><time>2026-04-08T16:10:39.931Z</time></trkpt><trkpt lat="42.4556774" lon="12.9778805"><ele>1613.6666666666665</ele><time>2026-04-08T16:10:40.937Z</time></trkpt><trkpt lat="42.4555136" lon="12.9778488"><ele>1610.0</ele><time>2026-04-08T16:10:41.933Z</time></trkpt><trkpt lat="42.4553449" lon="12.9777963"><ele>1605.0</ele><time>2026-04-08T16:10:42.933Z</time></trkpt><trkpt lat="42.4551682" lon="12.9777269"><ele>1600.0</ele><time>2026-04-08T16:10:43.931Z</time></trkpt><trkpt lat="42.4550047" lon="12.9776395"><ele>1595.0</ele><time>2026-04-08T16:10:44.931Z</time></trkpt><trkpt lat="42.4548378" lon="12.977528"><ele>1593.6666666666665</ele><time>2026-04-08T16:10:45.933Z</time></trkpt><trkpt lat="42.4546729" lon="12.9773974"><ele>1592.3333333333335</ele><time>2026-04-08T16:10:46.93Z</time></trkpt><trkpt lat="42.4545136" lon="12.9772513"><ele>1591.0</ele><time>2026-04-08T16:10:47.932Z</time></trkpt><trkpt lat="42.4543463" lon="12.9770912"><ele>1591.0</ele><time>2026-04-08T16:10:48.932Z</time></trkpt><trkpt lat="42.4541969" lon="12.9769288"><ele>1591.0</ele><time>2026-04-08T16:10:49.95Z</time></trkpt><trkpt lat="42.4540619" lon="12.9767592"><ele>1591.0</ele><time>2026-04-08T16:10:50.932Z</time></trkpt><trkpt lat="42.453939" lon="12.9765729"><ele>1597.6666666666667</ele><time>2026-04-08T16:10:51.932Z</time></trkpt><trkpt lat="42.4538341" lon="12.9763732"><ele>1604.3333333333335</ele><time>2026-04-08T16:10:52.934Z</time></trkpt><trkpt lat="42.4537369" lon="12.9761381"><ele>1611.0</ele><time>2026-04-08T16:10:53.934Z</time></trkpt><trkpt lat="42.4536439" lon="12.9758867"><ele>1600.6666666666665</ele><time>2026-04-08T16:10:54.932Z</time></trkpt><trkpt lat="42.4535669" lon="12.9756365"><ele>1590.3333333333333</ele><time>2026-04-08T16:10:55.933Z</time></trkpt><trkpt lat="42.4534998" lon="12.9753792"><ele>1580.0</ele><time>2026-04-08T16:10:56.934Z</time></trkpt><trkpt lat="42.4534348" lon="12.9751551"><ele>1582.0</ele><time>2026-04-08T16:10:57.933Z</time></trkpt><trkpt lat="42.4533555" lon="12.97497"><ele>1584.0</ele><time>2026-04-08T16:10:58.937Z</time></trkpt><trkpt lat="42.4532525" lon="12.9748071"><ele>1586.0</ele><time>2026-04-08T16:10:59.933Z</time></trkpt><trkpt lat="42.4531407" lon="12.9746699"><ele>1586.0</ele><time>2026-04-08T16:11:00.932Z</time></trkpt><trkpt lat="42.4530276" lon="12.9745187"><ele>1586.0</ele><time>2026-04-08T16:11:01.934Z</time></trkpt><trkpt lat="42.4529271" lon="12.9743417"><ele>1586.0</ele><time>2026-04-08T16:11:02.932Z</time></trkpt><trkpt lat="42.4528511" lon="12.974149"><ele>1576.0</ele><time>2026-04-08T16:11:03.931Z</time></trkpt><trkpt lat="42.4527741" lon="12.9739215"><ele>1566.0</ele><time>2026-04-08T16:11:04.931Z</time></trkpt><trkpt lat="42.4526907" lon="12.9736843"><ele>1556.0</ele><time>2026-04-08T16:11:05.931Z</time></trkpt><trkpt lat="42.4526123" lon="12.9734717"><ele>1557.75</ele><time>2026-04-08T16:11:06.931Z</time></trkpt><trkpt lat="42.4525507" lon="12.9732801"><ele>1559.5</ele><time>2026-04-08T16:11:07.933Z</time></trkpt><trkpt lat="42.4525103" lon="12.9731077"><ele>1561.25</ele><time>2026-04-08T16:11:08.93Z</time></trkpt><trkpt lat="42.4524958" lon="12.9729443"><ele>1563.0</ele><time>2026-04-08T16:11:09.929Z</time></trkpt><trkpt lat="42.4525132" lon="12.9727822"><ele>1563.0</ele><time>2026-04-08T16:11:10.929Z</time></trkpt><trkpt lat="42.4525544" lon="12.9726362"><ele>1563.0</ele><time>2026-04-08T16:11:11.933Z</time></trkpt><trkpt lat="42.4526422" lon="12.9725248"><ele>1563.0</ele><time>2026-04-08T16:11:12.934Z</time></trkpt><trkpt lat="42.4527442" lon="12.9724228"><ele>1563.0</ele><time>2026-04-08T16:11:13.932Z</time></trkpt><trkpt lat="42.4528665" lon="12.9723151"><ele>1566.3333333333335</ele><time>2026-04-08T16:11:14.936Z</time></trkpt><trkpt lat="42.4530755" lon="12.9722634"><ele>1569.6666666666667</ele><time>2026-04-08T16:11:15.934Z</time></trkpt><trkpt lat="42.4532823" lon="12.9721975"><ele>1573.0</ele><time>2026-04-08T16:11:16.933Z</time></trkpt><trkpt lat="42.4534709" lon="12.9721268"><ele>1573.0</ele><time>2026-04-08T16:11:17.933Z</time></trkpt><trkpt lat="42.4536441" lon="12.9720775"><ele>1573.0</ele><time>2026-04-08T16:11:18.933Z</time></trkpt><trkpt lat="42.4538017" lon="12.9720705"><ele>1573.0</ele><time>2026-04-08T16:11:19.932Z</time></trkpt><trkpt lat="42.453961" lon="12.9721294"><ele>1572.5</ele><time>2026-04-08T16:11:20.933Z</time></trkpt><trkpt lat="42.4541127" lon="12.9721789"><ele>1572.0</ele><time>2026-04-08T16:11:21.939Z</time></trkpt><trkpt lat="42.4542462" lon="12.9722119"><ele>1571.5</ele><time>2026-04-08T16:11:22.933Z</time></trkpt><trkpt lat="42.4543706" lon="12.9722049"><ele>1571.0</ele><time>2026-04-08T16:11:23.932Z</time></trkpt><trkpt lat="42.454485" lon="12.9721545"><ele>1573.0</ele><time>2026-04-08T16:11:24.932Z</time></trkpt><trkpt lat="42.4546949" lon="12.9719406"><ele>1575.0</ele><time>2026-04-08T16:11:26.933Z</time></trkpt><trkpt lat="42.4548096" lon="12.9718018"><ele>1577.0</ele><time>2026-04-08T16:11:27.931Z</time></trkpt><trkpt lat="42.4549215" lon="12.9716507"><ele>1567.0</ele><time>2026-04-08T16:11:28.931Z</time></trkpt><trkpt lat="42.4550253" lon="12.9714907"><ele>1557.0</ele><time>2026-04-08T16:11:29.938Z</time></trkpt><trkpt lat="42.4551017" lon="12.9712946"><ele>1547.0</ele><time>2026-04-08T16:11:30.933Z</time></trkpt><trkpt lat="42.4551634" lon="12.9710847"><ele>1547.0</ele><time>2026-04-08T16:11:31.933Z</time></trkpt><trkpt lat="42.4551963" lon="12.9708587"><ele>1547.0</ele><time>2026-04-08T16:11:32.931Z</time></trkpt><trkpt lat="42.4552138" lon="12.9706118"><ele>1547.0</ele><time>2026-04-08T16:11:33.93Z</time></trkpt><trkpt lat="42.4552253" lon="12.9703441"><ele>1539.6666666666665</ele><time>2026-04-08T16:11:34.931Z</time></trkpt><trkpt lat="42.4552366" lon="12.9700635"><ele>1532.3333333333333</ele><time>2026-04-08T16:11:35.942Z</time></trkpt><trkpt lat="42.4552378" lon="12.9697779"><ele>1525.0</ele><time>2026-04-08T16:11:36.932Z</time></trkpt><trkpt lat="42.4552244" lon="12.9694914"><ele>1522.3333333333333</ele><time>2026-04-08T16:11:37.932Z</time></trkpt><trkpt lat="42.4551925" lon="12.96921"><ele>1519.6666666666667</ele><time>2026-04-08T16:11:38.93Z</time></trkpt><trkpt lat="42.4551398" lon="12.9689365"><ele>1517.0</ele><time>2026-04-08T16:11:39.933Z</time></trkpt><trkpt lat="42.4550824" lon="12.96867"><ele>1516.0</ele><time>2026-04-08T16:11:40.931Z</time></trkpt><trkpt lat="42.4550368" lon="12.968404"><ele>1515.0</ele><time>2026-04-08T16:11:41.931Z</time></trkpt><trkpt lat="42.4549916" lon="12.9681397"><ele>1514.0</ele><time>2026-04-08T16:11:42.931Z</time></trkpt><trkpt lat="42.4549377" lon="12.9678724"><ele>1513.6666666666667</ele><time>2026-04-08T16:11:43.93Z</time></trkpt><trkpt lat="42.4548672" lon="12.9676149"><ele>1513.3333333333333</ele><time>2026-04-08T16:11:44.93Z</time></trkpt><trkpt lat="42.4547739" lon="12.9673633"><ele>1513.0</ele><time>2026-04-08T16:11:45.93Z</time></trkpt><trkpt lat="42.4546669" lon="12.9671209"><ele>1506.3333333333333</ele><time>2026-04-08T16:11:46.931Z</time></trkpt><trkpt lat="42.4545487" lon="12.9668995"><ele>1499.6666666666667</ele><time>2026-04-08T16:11:47.936Z</time></trkpt><trkpt lat="42.4544393" lon="12.9667149"><ele>1493.0</ele><time>2026-04-08T16:11:48.932Z</time></trkpt><trkpt lat="42.4543294" lon="12.9665385"><ele>1493.0</ele><time>2026-04-08T16:11:49.931Z</time></trkpt><trkpt lat="42.4542411" lon="12.9663581"><ele>1493.0</ele><time>2026-04-08T16:11:50.934Z</time></trkpt><trkpt lat="42.4541763" lon="12.9661762"><ele>1493.0</ele><time>2026-04-08T16:11:51.933Z</time></trkpt><trkpt lat="42.4541341" lon="12.965984"><ele>1490.6666666666667</ele><time>2026-04-08T16:11:52.934Z</time></trkpt><trkpt lat="42.4541277" lon="12.9657924"><ele>1488.3333333333333</ele><time>2026-04-08T16:11:53.931Z</time></trkpt><trkpt lat="42.4541535" lon="12.9655974"><ele>1486.0</ele><time>2026-04-08T16:11:54.932Z</time></trkpt><trkpt lat="42.4542053" lon="12.9653824"><ele>1486.0</ele><time>2026-04-08T16:11:55.934Z</time></trkpt><trkpt lat="42.4542729" lon="12.9651724"><ele>1486.0</ele><time>2026-04-08T16:11:56.932Z</time></trkpt><trkpt lat="42.4543497" lon="12.9649406"><ele>1486.0</ele><time>2026-04-08T16:11:57.934Z</time></trkpt><trkpt lat="42.4544256" lon="12.9646984"><ele>1487.0</ele><time>2026-04-08T16:11:58.932Z</time></trkpt><trkpt lat="42.4545002" lon="12.9644684"><ele>1488.0</ele><time>2026-04-08T16:11:59.934Z</time></trkpt><trkpt lat="42.454587" lon="12.9642404"><ele>1489.0</ele><time>2026-04-08T16:12:00.931Z</time></trkpt><trkpt lat="42.4546937" lon="12.9640274"><ele>1489.0</ele><time>2026-04-08T16:12:01.935Z</time></trkpt><trkpt lat="42.4548231" lon="12.9638164"><ele>1489.0</ele><time>2026-04-08T16:12:02.932Z</time></trkpt><trkpt lat="42.454972" lon="12.9635964"><ele>1489.0</ele><time>2026-04-08T16:12:03.933Z</time></trkpt><trkpt lat="42.4551235" lon="12.9633899"><ele>1485.0</ele><time>2026-04-08T16:12:04.93Z</time></trkpt><trkpt lat="42.4552894" lon="12.963179"><ele>1481.0</ele><time>2026-04-08T16:12:05.941Z</time></trkpt><trkpt lat="42.4554719" lon="12.9629614"><ele>1481.0</ele><time>2026-04-08T16:12:06.93Z</time></trkpt><trkpt lat="42.4556462" lon="12.962779"><ele>1481.0</ele><time>2026-04-08T16:12:07.93Z</time></trkpt><trkpt lat="42.4558341" lon="12.9626064"><ele>1481.0</ele><time>2026-04-08T16:12:08.93Z</time></trkpt><trkpt lat="42.4560124" lon="12.9624656"><ele>1474.0</ele><time>2026-04-08T16:12:09.932Z</time></trkpt><trkpt lat="42.4561824" lon="12.962342"><ele>1467.0</ele><time>2026-04-08T16:12:10.938Z</time></trkpt><trkpt lat="42.4563505" lon="12.9622109"><ele>1460.0</ele><time>2026-04-08T16:12:11.934Z</time></trkpt><trkpt lat="42.4564817" lon="12.9620428"><ele>1460.0</ele><time>2026-04-08T16:12:12.933Z</time></trkpt><trkpt lat="42.456599" lon="12.9618323"><ele>1460.0</ele><time>2026-04-08T16:12:13.935Z</time></trkpt><trkpt lat="42.4567008" lon="12.9615892"><ele>1460.0</ele><time>2026-04-08T16:12:14.932Z</time></trkpt><trkpt lat="42.4567874" lon="12.9613312"><ele>1453.5</ele><time>2026-04-08T16:12:15.932Z</time></trkpt><trkpt lat="42.4568769" lon="12.9610381"><ele>1447.0</ele><time>2026-04-08T16:12:16.932Z</time></trkpt><trkpt lat="42.4569595" lon="12.9607393"><ele>1441.0</ele><time>2026-04-08T16:12:17.931Z</time></trkpt><trkpt lat="42.457032" lon="12.9604288"><ele>1435.0</ele><time>2026-04-08T16:12:18.934Z</time></trkpt><trkpt lat="42.4570898" lon="12.9601059"><ele>1442.0</ele><time>2026-04-08T16:12:19.932Z</time></trkpt><trkpt lat="42.4571348" lon="12.9597973"><ele>1449.0</ele><time>2026-04-08T16:12:20.933Z</time></trkpt><trkpt lat="42.4571744" lon="12.9594871"><ele>1446.0</ele><time>2026-04-08T16:12:21.931Z</time></trkpt><trkpt lat="42.4572092" lon="12.9591855"><ele>1443.0</ele><time>2026-04-08T16:12:22.932Z</time></trkpt><trkpt lat="42.4572302" lon="12.958885"><ele>1440.0</ele><time>2026-04-08T16:12:23.933Z</time></trkpt><trkpt lat="42.457245" lon="12.9585935"><ele>1438.0</ele><time>2026-04-08T16:12:24.931Z</time></trkpt><trkpt lat="42.4572609" lon="12.9583125"><ele>1436.0</ele><time>2026-04-08T16:12:25.935Z</time></trkpt><trkpt lat="42.4572798" lon="12.9580362"><ele>1434.0</ele><time>2026-04-08T16:12:26.933Z</time></trkpt><trkpt lat="42.4573089" lon="12.9577804"><ele>1434.0</ele><time>2026-04-08T16:12:27.933Z</time></trkpt><trkpt lat="42.4573449" lon="12.9575596"><ele>1434.0</ele><time>2026-04-08T16:12:28.932Z</time></trkpt><trkpt lat="42.4574029" lon="12.9573376"><ele>1434.0</ele><time>2026-04-08T16:12:29.932Z</time></trkpt><trkpt lat="42.4574874" lon="12.9571151"><ele>1431.0</ele><time>2026-04-08T16:12:30.934Z</time></trkpt><trkpt lat="42.4575854" lon="12.9568872"><ele>1428.0</ele><time>2026-04-08T16:12:31.932Z</time></trkpt><trkpt lat="42.4576917" lon="12.9566527"><ele>1425.0</ele><time>2026-04-08T16:12:32.932Z</time></trkpt><trkpt lat="42.4577991" lon="12.9564121"><ele>1422.6666666666667</ele><time>2026-04-08T16:12:33.932Z</time></trkpt><trkpt lat="42.45791" lon="12.9561797"><ele>1420.3333333333335</ele><time>2026-04-08T16:12:34.934Z</time></trkpt><trkpt lat="42.4580287" lon="12.9559628"><ele>1418.0</ele><time>2026-04-08T16:12:35.93Z</time></trkpt><trkpt lat="42.458163" lon="12.95577"><ele>1418.0</ele><time>2026-04-08T16:12:36.931Z</time></trkpt><trkpt lat="42.458301" lon="12.9556079"><ele>1418.0</ele><time>2026-04-08T16:12:37.931Z</time></trkpt><trkpt lat="42.4584305" lon="12.9554517"><ele>1418.0</ele><time>2026-04-08T16:12:38.931Z</time></trkpt><trkpt lat="42.4585319" lon="12.9552685"><ele>1418.0</ele><time>2026-04-08T16:12:39.931Z</time></trkpt><trkpt lat="42.4586047" lon="12.9550581"><ele>1418.0</ele><time>2026-04-08T16:12:40.932Z</time></trkpt><trkpt lat="42.458638" lon="12.9548279"><ele>1418.0</ele><time>2026-04-08T16:12:41.934Z</time></trkpt><trkpt lat="42.4586391" lon="12.9545851"><ele>1412.0</ele><time>2026-04-08T16:12:42.934Z</time></trkpt><trkpt lat="42.4586298" lon="12.9543356"><ele>1406.0</ele><time>2026-04-08T16:12:43.931Z</time></trkpt><trkpt lat="42.4586144" lon="12.9541"><ele>1400.0</ele><time>2026-04-08T16:12:44.932Z</time></trkpt><trkpt lat="42.4586066" lon="12.9538884"><ele>1399.0</ele><time>2026-04-08T16:12:45.933Z</time></trkpt><trkpt lat="42.4586169" lon="12.9537001"><ele>1398.0</ele><time>2026-04-08T16:12:46.931Z</time></trkpt><trkpt lat="42.4586511" lon="12.9535252"><ele>1397.0</ele><time>2026-04-08T16:12:47.931Z</time></trkpt><trkpt lat="42.4587171" lon="12.9533801"><ele>1396.0</ele><time>2026-04-08T16:12:48.931Z</time></trkpt><trkpt lat="42.4588191" lon="12.9532707"><ele>1396.0</ele><time>2026-04-08T16:12:49.933Z</time></trkpt><trkpt lat="42.4589434" lon="12.9531979"><ele>1396.0</ele><time>2026-04-08T16:12:50.931Z</time></trkpt><trkpt lat="42.4590663" lon="12.9531254"><ele>1396.0</ele><time>2026-04-08T16:12:51.934Z</time></trkpt><trkpt lat="42.459198" lon="12.9530313"><ele>1396.0</ele><time>2026-04-08T16:12:52.933Z</time></trkpt><trkpt lat="42.4593094" lon="12.9529057"><ele>1396.0</ele><time>2026-04-08T16:12:53.932Z</time></trkpt><trkpt lat="42.4593971" lon="12.9527273"><ele>1396.0</ele><time>2026-04-08T16:12:54.93Z</time></trkpt><trkpt lat="42.4594959" lon="12.9522687"><ele>1389.0</ele><time>2026-04-08T16:12:56.931Z</time></trkpt><trkpt lat="42.4595245" lon="12.9519965"><ele>1382.0</ele><time>2026-04-08T16:12:57.931Z</time></trkpt><trkpt lat="42.4595435" lon="12.9516995"><ele>1375.0</ele><time>2026-04-08T16:12:58.933Z</time></trkpt><trkpt lat="42.459571" lon="12.9513734"><ele>1381.0</ele><time>2026-04-08T16:12:59.932Z</time></trkpt><trkpt lat="42.4595998" lon="12.9510483"><ele>1387.0</ele><time>2026-04-08T16:13:00.931Z</time></trkpt><trkpt lat="42.4596293" lon="12.9506972"><ele>1387.0</ele><time>2026-04-08T16:13:01.932Z</time></trkpt><trkpt lat="42.4596535" lon="12.9503565"><ele>1387.0</ele><time>2026-04-08T16:13:02.931Z</time></trkpt><trkpt lat="42.4596735" lon="12.9500457"><ele>1384.0</ele><time>2026-04-08T16:13:03.932Z</time></trkpt><trkpt lat="42.4596882" lon="12.9497575"><ele>1381.0</ele><time>2026-04-08T16:13:04.932Z</time></trkpt><trkpt lat="42.4597026" lon="12.949508"><ele>1378.0</ele><time>2026-04-08T16:13:05.934Z</time></trkpt><trkpt lat="42.4597262" lon="12.9492785"><ele>1374.3333333333333</ele><time>2026-04-08T16:13:06.931Z</time></trkpt><trkpt lat="42.4597774" lon="12.9490504"><ele>1370.6666666666667</ele><time>2026-04-08T16:13:07.931Z</time></trkpt><trkpt lat="42.459851" lon="12.9488449"><ele>1367.0</ele><time>2026-04-08T16:13:08.931Z</time></trkpt><trkpt lat="42.4599505" lon="12.9486357"><ele>1367.0</ele><time>2026-04-08T16:13:09.933Z</time></trkpt><trkpt lat="42.4600669" lon="12.9484279"><ele>1367.0</ele><time>2026-04-08T16:13:10.933Z</time></trkpt><trkpt lat="42.4601914" lon="12.9482303"><ele>1367.0</ele><time>2026-04-08T16:13:11.932Z</time></trkpt><trkpt lat="42.4603364" lon="12.9480351"><ele>1367.6666666666667</ele><time>2026-04-08T16:13:12.937Z</time></trkpt><trkpt lat="42.4604675" lon="12.9478597"><ele>1368.3333333333333</ele><time>2026-04-08T16:13:13.932Z</time></trkpt><trkpt lat="42.4605971" lon="12.947701"><ele>1369.0</ele><time>2026-04-08T16:13:14.931Z</time></trkpt><trkpt lat="42.460743" lon="12.9475823"><ele>1361.0</ele><time>2026-04-08T16:13:15.929Z</time></trkpt><trkpt lat="42.4608843" lon="12.947507"><ele>1353.0</ele><time>2026-04-08T16:13:16.932Z</time></trkpt><trkpt lat="42.4610389" lon="12.9474666"><ele>1345.0</ele><time>2026-04-08T16:13:17.933Z</time></trkpt><trkpt lat="42.4611956" lon="12.9474705"><ele>1343.3333333333333</ele><time>2026-04-08T16:13:18.933Z</time></trkpt><trkpt lat="42.4613469" lon="12.9475213"><ele>1341.6666666666667</ele><time>2026-04-08T16:13:19.933Z</time></trkpt><trkpt lat="42.4614969" lon="12.9475961"><ele>1340.0</ele><time>2026-04-08T16:13:20.934Z</time></trkpt><trkpt lat="42.4616331" lon="12.9476884"><ele>1345.2</ele><time>2026-04-08T16:13:21.932Z</time></trkpt><trkpt lat="42.4617386" lon="12.9477912"><ele>1350.4</ele><time>2026-04-08T16:13:22.934Z</time></trkpt><trkpt lat="42.4618256" lon="12.9478885"><ele>1355.6</ele><time>2026-04-08T16:13:23.934Z</time></trkpt><trkpt lat="42.4619068" lon="12.9479539"><ele>1360.8</ele><time>2026-04-08T16:13:24.937Z</time></trkpt><trkpt lat="42.4619917" lon="12.9479824"><ele>1366.0</ele><time>2026-04-08T16:13:25.934Z</time></trkpt><trkpt lat="42.4620705" lon="12.9479605"><ele>1366.0</ele><time>2026-04-08T16:13:26.932Z</time></trkpt><trkpt lat="42.4621279" lon="12.9478852"><ele>1366.0</ele><time>2026-04-08T16:13:27.933Z</time></trkpt><trkpt lat="42.4621373" lon="12.947787"><ele>1366.0</ele><time>2026-04-08T16:13:28.932Z</time></trkpt><trkpt lat="42.4621028" lon="12.9476828"><ele>1366.0</ele><time>2026-04-08T16:13:29.933Z</time></trkpt><trkpt lat="42.4620374" lon="12.9476043"><ele>1366.0</ele><time>2026-04-08T16:13:30.931Z</time></trkpt><trkpt lat="42.4619275" lon="12.9475372"><ele>1366.0</ele><time>2026-04-08T16:13:31.932Z</time></trkpt><trkpt lat="42.4617863" lon="12.9474759"><ele>1357.3333333333333</ele><time>2026-04-08T16:13:32.934Z</time></trkpt><trkpt lat="42.4616273" lon="12.9473851"><ele>1348.6666666666667</ele><time>2026-04-08T16:13:33.933Z</time></trkpt><trkpt lat="42.4614568" lon="12.9472679"><ele>1340.0</ele><time>2026-04-08T16:13:34.932Z</time></trkpt><trkpt lat="42.4612899" lon="12.9471407"><ele>1341.6666666666667</ele><time>2026-04-08T16:13:35.934Z</time></trkpt><trkpt lat="42.4611363" lon="12.9470229"><ele>1343.3333333333333</ele><time>2026-04-08T16:13:36.932Z</time></trkpt><trkpt lat="42.4609942" lon="12.9469192"><ele>1345.0</ele><time>2026-04-08T16:13:37.935Z</time></trkpt><trkpt lat="42.4608482" lon="12.946851"><ele>1345.0</ele><time>2026-04-08T16:13:38.933Z</time></trkpt><trkpt lat="42.4606899" lon="12.9468323"><ele>1345.0</ele><time>2026-04-08T16:13:39.931Z</time></trkpt><trkpt lat="42.4605211" lon="12.9468605"><ele>1345.0</ele><time>2026-04-08T16:13:40.931Z</time></trkpt><trkpt lat="42.4603426" lon="12.9469305"><ele>1340.3333333333333</ele><time>2026-04-08T16:13:41.933Z</time></trkpt><trkpt lat="42.4601596" lon="12.947024"><ele>1335.6666666666667</ele><time>2026-04-08T16:13:42.931Z</time></trkpt><trkpt lat="42.459974" lon="12.947133"><ele>1331.0</ele><time>2026-04-08T16:13:43.933Z</time></trkpt><trkpt lat="42.4597957" lon="12.9472602"><ele>1331.0</ele><time>2026-04-08T16:13:44.929Z</time></trkpt><trkpt lat="42.459619" lon="12.9473965"><ele>1331.0</ele><time>2026-04-08T16:13:45.932Z</time></trkpt><trkpt lat="42.4594344" lon="12.9475079"><ele>1331.0</ele><time>2026-04-08T16:13:46.933Z</time></trkpt><trkpt lat="42.4592467" lon="12.9475896"><ele>1329.0</ele><time>2026-04-08T16:13:47.929Z</time></trkpt><trkpt lat="42.4590688" lon="12.9476854"><ele>1327.0</ele><time>2026-04-08T16:13:48.932Z</time></trkpt><trkpt lat="42.4588916" lon="12.9477965"><ele>1325.0</ele><time>2026-04-08T16:13:49.932Z</time></trkpt><trkpt lat="42.4587357" lon="12.9479339"><ele>1315.0</ele><time>2026-04-08T16:13:50.933Z</time></trkpt><trkpt lat="42.4586001" lon="12.9480748"><ele>1305.0</ele><time>2026-04-08T16:13:51.931Z</time></trkpt><trkpt lat="42.4584887" lon="12.9482279"><ele>1295.0</ele><time>2026-04-08T16:13:52.932Z</time></trkpt><trkpt lat="42.4584103" lon="12.9483997"><ele>1295.0</ele><time>2026-04-08T16:13:53.933Z</time></trkpt><trkpt lat="42.4583686" lon="12.9485943"><ele>1295.0</ele><time>2026-04-08T16:13:54.931Z</time></trkpt><trkpt lat="42.4583556" lon="12.9488102"><ele>1295.0</ele><time>2026-04-08T16:13:55.931Z</time></trkpt><trkpt lat="42.4583482" lon="12.9490536"><ele>1296.0</ele><time>2026-04-08T16:13:56.936Z</time></trkpt><trkpt lat="42.4583385" lon="12.9493153"><ele>1297.0</ele><time>2026-04-08T16:13:57.93Z</time></trkpt><trkpt lat="42.4583241" lon="12.9495914"><ele>1298.0</ele><time>2026-04-08T16:13:58.934Z</time></trkpt><trkpt lat="42.4583002" lon="12.9498504"><ele>1302.0</ele><time>2026-04-08T16:13:59.934Z</time></trkpt><trkpt lat="42.4582597" lon="12.9500975"><ele>1306.0</ele><time>2026-04-08T16:14:00.931Z</time></trkpt><trkpt lat="42.4582033" lon="12.9503065"><ele>1310.0</ele><time>2026-04-08T16:14:01.932Z</time></trkpt><trkpt lat="42.4581263" lon="12.9504745"><ele>1310.0</ele><time>2026-04-08T16:14:02.932Z</time></trkpt><trkpt lat="42.4580174" lon="12.9506033"><ele>1310.0</ele><time>2026-04-08T16:14:03.933Z</time></trkpt><trkpt lat="42.4578855" lon="12.9506651"><ele>1310.0</ele><time>2026-04-08T16:14:04.933Z</time></trkpt><trkpt lat="42.457722" lon="12.9506645"><ele>1310.0</ele><time>2026-04-08T16:14:05.937Z</time></trkpt><trkpt lat="42.4575376" lon="12.9506294"><ele>1305.3333333333335</ele><time>2026-04-08T16:14:06.934Z</time></trkpt><trkpt lat="42.457343" lon="12.950596"><ele>1300.6666666666667</ele><time>2026-04-08T16:14:07.934Z</time></trkpt><trkpt lat="42.4571353" lon="12.9505703"><ele>1296.0</ele><time>2026-04-08T16:14:08.935Z</time></trkpt><trkpt lat="42.4569452" lon="12.9505617"><ele>1290.3333333333333</ele><time>2026-04-08T16:14:09.932Z</time></trkpt><trkpt lat="42.4567675" lon="12.9505747"><ele>1284.6666666666665</ele><time>2026-04-08T16:14:10.932Z</time></trkpt><trkpt lat="42.4565946" lon="12.9506182"><ele>1279.0</ele><time>2026-04-08T16:14:11.932Z</time></trkpt><trkpt lat="42.4564461" lon="12.9506934"><ele>1279.0</ele><time>2026-04-08T16:14:12.932Z</time></trkpt><trkpt lat="42.4563181" lon="12.9508179"><ele>1279.0</ele><time>2026-04-08T16:14:13.932Z</time></trkpt><trkpt lat="42.4601596" lon="12.947024"><ele>1296.3333333333333</ele><time>2026-04-08T16:13:42.931Z</time></trkpt><trkpt lat="42.459974" lon="12.947133"><ele>1313.6666666666667</ele><time>2026-04-08T16:13:43.933Z</time></trkpt><trkpt lat="42.4597957" lon="12.9472602"><ele>1331.0</ele><time>2026-04-08T16:13:44.929Z</time></trkpt><trkpt lat="42.459619" lon="12.9473965"><ele>1329.0</ele><time>2026-04-08T16:13:45.932Z</time></trkpt><trkpt lat="42.4594344" lon="12.9475079"><ele>1327.0</ele><time>2026-04-08T16:13:46.933Z</time></trkpt><trkpt lat="42.4592467" lon="12.9475896"><ele>1325.0</ele><time>2026-04-08T16:13:47.929Z</time></trkpt><trkpt lat="42.4590688" lon="12.9476854"><ele>1325.0</ele><time>2026-04-08T16:13:48.932Z</time></trkpt><trkpt lat="42.4588916" lon="12.9477965"><ele>1325.0</ele><time>2026-04-08T16:13:49.932Z</time></trkpt><trkpt lat="42.4587357" lon="12.9479339"><ele>1325.0</ele><time>2026-04-08T16:13:50.933Z</time></trkpt><trkpt lat="42.4586001" lon="12.9480748"><ele>1315.0</ele><time>2026-04-08T16:13:51.931Z</time></trkpt><trkpt lat="42.4584887" lon="12.9482279"><ele>1305.0</ele><time>2026-04-08T16:13:52.932Z</time></trkpt><trkpt lat="42.4584103" lon="12.9483997"><ele>1295.0</ele><time>2026-04-08T16:13:53.933Z</time></trkpt><trkpt lat="42.4583686" lon="12.9485943"><ele>1295.0</ele><time>2026-04-08T16:13:54.931Z</time></trkpt><trkpt lat="42.4583556" lon="12.9488102"><ele>1295.0</ele><time>2026-04-08T16:13:55.931Z</time></trkpt><trkpt lat="42.4583482" lon="12.9490536"><ele>1295.0</ele><time>2026-04-08T16:13:56.936Z</time></trkpt><trkpt lat="42.4583385" lon="12.9493153"><ele>1296.0</ele><time>2026-04-08T16:13:57.93Z</time></trkpt><trkpt lat="42.4583241" lon="12.9495914"><ele>1297.0</ele><time>2026-04-08T16:13:58.934Z</time></trkpt><trkpt lat="42.4583002" lon="12.9498504"><ele>1298.0</ele><time>2026-04-08T16:13:59.934Z</time></trkpt><trkpt lat="42.4582597" lon="12.9500975"><ele>1302.0</ele><time>2026-04-08T16:14:00.931Z</time></trkpt><trkpt lat="42.4582033" lon="12.9503065"><ele>1306.0</ele><time>2026-04-08T16:14:01.932Z</time></trkpt><trkpt lat="42.4581263" lon="12.9504745"><ele>1310.0</ele><time>2026-04-08T16:14:02.932Z</time></trkpt><trkpt lat="42.4580174" lon="12.9506033"><ele>1305.3333333333335</ele><time>2026-04-08T16:14:03.933Z</time></trkpt><trkpt lat="42.4578855" lon="12.9506651"><ele>1300.6666666666667</ele><time>2026-04-08T16:14:04.933Z</time></trkpt><trkpt lat="42.457722" lon="12.9506645"><ele>1296.0</ele><time>2026-04-08T16:14:05.937Z</time></trkpt><trkpt lat="42.4575376" lon="12.9506294"><ele>1296.0</ele><time>2026-04-08T16:14:06.934Z</time></trkpt><trkpt lat="42.457343" lon="12.950596"><ele>1296.0</ele><time>2026-04-08T16:14:07.934Z</time></trkpt><trkpt lat="42.4571353" lon="12.9505703"><ele>1296.0</ele><time>2026-04-08T16:14:08.935Z</time></trkpt><trkpt lat="42.4569452" lon="12.9505617"><ele>1290.3333333333333</ele><time>2026-04-08T16:14:09.932Z</time></trkpt><trkpt lat="42.4567675" lon="12.9505747"><ele>1284.6666666666665</ele><time>2026-04-08T16:14:10.932Z</time></trkpt><trkpt lat="42.4565946" lon="12.9506182"><ele>1279.0</ele><time>2026-04-08T16:14:11.932Z</time></trkpt><trkpt lat="42.4564461" lon="12.9506934"><ele>1279.0</ele><time>2026-04-08T16:14:12.932Z</time></trkpt><trkpt lat="42.4563181" lon="12.9508179"><ele>1279.0</ele><time>2026-04-08T16:14:13.932Z</time></trkpt><trkpt lat="42.4562199" lon="12.9509876"><ele>1279.0</ele><time>2026-04-08T16:14:14.93Z</time></trkpt><trkpt lat="42.4561536" lon="12.9512042"><ele>1272.3333333333333</ele><time>2026-04-08T16:14:15.933Z</time></trkpt><trkpt lat="42.4560915" lon="12.9514855"><ele>1265.6666666666667</ele><time>2026-04-08T16:14:16.931Z</time></trkpt><trkpt lat="42.4560249" lon="12.9517717"><ele>1259.0</ele><time>2026-04-08T16:14:17.932Z</time></trkpt><trkpt lat="42.455967" lon="12.9520379"><ele>1259.0</ele><time>2026-04-08T16:14:18.932Z</time></trkpt><trkpt lat="42.4559289" lon="12.9522746"><ele>1259.0</ele><time>2026-04-08T16:14:19.93Z</time></trkpt><trkpt lat="42.4559115" lon="12.9524583"><ele>1259.0</ele><time>2026-04-08T16:14:20.933Z</time></trkpt><trkpt lat="42.4558967" lon="12.9526115"><ele>1259.0</ele><time>2026-04-08T16:14:21.935Z</time></trkpt><trkpt lat="42.4558641" lon="12.9527327"><ele>1259.0</ele><time>2026-04-08T16:14:22.932Z</time></trkpt><trkpt lat="42.4558086" lon="12.9528204"><ele>1259.0</ele><time>2026-04-08T16:14:23.936Z</time></trkpt><trkpt lat="42.4557299" lon="12.9528407"><ele>1259.0</ele><time>2026-04-08T16:14:24.931Z</time></trkpt><trkpt lat="42.4556467" lon="12.9527196"><ele>1259.0</ele><time>2026-04-08T16:14:26.932Z</time></trkpt><trkpt lat="42.4556562" lon="12.9525889"><ele>1259.0</ele><time>2026-04-08T16:14:27.933Z</time></trkpt><trkpt lat="42.4557103" lon="12.9524268"><ele>1259.0</ele><time>2026-04-08T16:14:28.933Z</time></trkpt><trkpt lat="42.4557811" lon="12.9522346"><ele>1259.0</ele><time>2026-04-08T16:14:29.933Z</time></trkpt><trkpt lat="42.4558433" lon="12.9520078"><ele>1259.0</ele><time>2026-04-08T16:14:30.935Z</time></trkpt><trkpt lat="42.4558822" lon="12.951749"><ele>1255.0</ele><time>2026-04-08T16:14:31.94Z</time></trkpt><trkpt lat="42.4559027" lon="12.9514757"><ele>1251.0</ele><time>2026-04-08T16:14:32.933Z</time></trkpt><trkpt lat="42.4559149" lon="12.9512206"><ele>1247.0</ele><time>2026-04-08T16:14:33.933Z</time></trkpt><trkpt lat="42.4559338" lon="12.9509822"><ele>1243.3333333333335</ele><time>2026-04-08T16:14:34.932Z</time></trkpt><trkpt lat="42.4559778" lon="12.9507605"><ele>1239.6666666666667</ele><time>2026-04-08T16:14:35.929Z</time></trkpt><trkpt lat="42.4560545" lon="12.9505582"><ele>1236.0</ele><time>2026-04-08T16:14:36.931Z</time></trkpt><trkpt lat="42.4561632" lon="12.9503803"><ele>1237.6666666666667</ele><time>2026-04-08T16:14:37.932Z</time></trkpt><trkpt lat="42.4562969" lon="12.9502318"><ele>1239.3333333333335</ele><time>2026-04-08T16:14:38.93Z</time></trkpt><trkpt lat="42.456461" lon="12.9501115"><ele>1241.0</ele><time>2026-04-08T16:14:39.93Z</time></trkpt><trkpt lat="42.4566484" lon="12.9500062"><ele>1241.0</ele><time>2026-04-08T16:14:40.932Z</time></trkpt><trkpt lat="42.4568339" lon="12.9499121"><ele>1241.0</ele><time>2026-04-08T16:14:41.933Z</time></trkpt><trkpt lat="42.4569998" lon="12.949825"><ele>1241.0</ele><time>2026-04-08T16:14:42.932Z</time></trkpt><trkpt lat="42.4571437" lon="12.9497367"><ele>1242.0</ele><time>2026-04-08T16:14:43.932Z</time></trkpt><trkpt lat="42.4572543" lon="12.949652"><ele>1243.0</ele><time>2026-04-08T16:14:44.933Z</time></trkpt><trkpt lat="42.4573379" lon="12.9495274"><ele>1244.0</ele><time>2026-04-08T16:14:45.932Z</time></trkpt><trkpt lat="42.457376" lon="12.9493649"><ele>1245.0</ele><time>2026-04-08T16:14:46.931Z</time></trkpt><trkpt lat="42.4573788" lon="12.9489099"><ele>1248.0</ele><time>2026-04-08T16:14:48.932Z</time></trkpt><trkpt lat="42.4572198" lon="12.9483117"><ele>1223.0</ele><time>2026-04-08T16:14:50.932Z</time></trkpt><trkpt lat="42.4571182" lon="12.9480092"><ele>1198.0</ele><time>2026-04-08T16:14:51.936Z</time></trkpt><trkpt lat="42.4570025" lon="12.9477311"><ele>1201.6666666666665</ele><time>2026-04-08T16:14:52.933Z</time></trkpt><trkpt lat="42.4568829" lon="12.9474744"><ele>1205.3333333333333</ele><time>2026-04-08T16:14:53.931Z</time></trkpt><trkpt lat="42.456779" lon="12.9472516"><ele>1209.0</ele><time>2026-04-08T16:14:54.931Z</time></trkpt><trkpt lat="42.4566996" lon="12.9470561"><ele>1209.0</ele><time>2026-04-08T16:14:55.938Z</time></trkpt><trkpt lat="42.4566536" lon="12.9468956"><ele>1209.0</ele><time>2026-04-08T16:14:56.932Z</time></trkpt><trkpt lat="42.4566473" lon="12.946738"><ele>1209.0</ele><time>2026-04-08T16:14:57.932Z</time></trkpt><trkpt lat="42.4566896" lon="12.9465776"><ele>1209.0</ele><time>2026-04-08T16:14:58.931Z</time></trkpt><trkpt lat="42.4567781" lon="12.9464262"><ele>1209.3333333333333</ele><time>2026-04-08T16:14:59.933Z</time></trkpt><trkpt lat="42.4568911" lon="12.9462948"><ele>1209.6666666666665</ele><time>2026-04-08T16:15:00.933Z</time></trkpt><trkpt lat="42.4570142" lon="12.9461385"><ele>1210.0</ele><time>2026-04-08T16:15:01.932Z</time></trkpt><trkpt lat="42.4571112" lon="12.945943"><ele>1214.3333333333333</ele><time>2026-04-08T16:15:02.933Z</time></trkpt><trkpt lat="42.4571754" lon="12.9457042"><ele>1218.6666666666667</ele><time>2026-04-08T16:15:03.932Z</time></trkpt><trkpt lat="42.457227" lon="12.9454071"><ele>1223.0</ele><time>2026-04-08T16:15:04.932Z</time></trkpt><trkpt lat="42.4572857" lon="12.945089"><ele>1216.0</ele><time>2026-04-08T16:15:05.935Z</time></trkpt><trkpt lat="42.4573563" lon="12.9447608"><ele>1209.0</ele><time>2026-04-08T16:15:06.932Z</time></trkpt><trkpt lat="42.4574338" lon="12.9444291"><ele>1201.5</ele><time>2026-04-08T16:15:07.932Z</time></trkpt><trkpt lat="42.4575173" lon="12.9441349"><ele>1194.0</ele><time>2026-04-08T16:15:08.933Z</time></trkpt><trkpt lat="42.4576312" lon="12.9438365"><ele>1194.0</ele><time>2026-04-08T16:15:09.933Z</time></trkpt><trkpt lat="42.457772" lon="12.9435402"><ele>1194.0</ele><time>2026-04-08T16:15:10.931Z</time></trkpt><trkpt lat="42.4579127" lon="12.9432456"><ele>1199.0</ele><time>2026-04-08T16:15:11.931Z</time></trkpt><trkpt lat="42.4580433" lon="12.942931"><ele>1204.0</ele><time>2026-04-08T16:15:12.931Z</time></trkpt><trkpt lat="42.4581443" lon="12.9426406"><ele>1199.6666666666665</ele><time>2026-04-08T16:15:13.931Z</time></trkpt><trkpt lat="42.4582267" lon="12.9423799"><ele>1195.3333333333333</ele><time>2026-04-08T16:15:14.932Z</time></trkpt><trkpt lat="42.4582964" lon="12.9421406"><ele>1191.0</ele><time>2026-04-08T16:15:15.93Z</time></trkpt><trkpt lat="42.4583489" lon="12.941949"><ele>1191.0</ele><time>2026-04-08T16:15:16.934Z</time></trkpt><trkpt lat="42.4583868" lon="12.9417784"><ele>1191.0</ele><time>2026-04-08T16:15:17.934Z</time></trkpt><trkpt lat="42.4583957" lon="12.9416162"><ele>1191.0</ele><time>2026-04-08T16:15:18.934Z</time></trkpt><trkpt lat="42.4583791" lon="12.9414668"><ele>1191.0</ele><time>2026-04-08T16:15:19.931Z</time></trkpt><trkpt lat="42.4583399" lon="12.9413172"><ele>1188.25</ele><time>2026-04-08T16:15:20.931Z</time></trkpt><trkpt lat="42.4582798" lon="12.9411898"><ele>1185.5</ele><time>2026-04-08T16:15:21.939Z</time></trkpt><trkpt lat="42.4581902" lon="12.9410866"><ele>1182.75</ele><time>2026-04-08T16:15:22.933Z</time></trkpt><trkpt lat="42.4580752" lon="12.941021"><ele>1180.0</ele><time>2026-04-08T16:15:23.934Z</time></trkpt><trkpt lat="42.4579442" lon="12.9409964"><ele>1175.0</ele><time>2026-04-08T16:15:24.933Z</time></trkpt><trkpt lat="42.4577991" lon="12.9409852"><ele>1170.0</ele><time>2026-04-08T16:15:25.933Z</time></trkpt><trkpt lat="42.4576416" lon="12.9409612"><ele>1165.0</ele><time>2026-04-08T16:15:26.933Z</time></trkpt><trkpt lat="42.4574765" lon="12.9409106"><ele>1162.0</ele><time>2026-04-08T16:15:27.933Z</time></trkpt><trkpt lat="42.4573168" lon="12.9408277"><ele>1159.0</ele><time>2026-04-08T16:15:28.933Z</time></trkpt><trkpt lat="42.4571591" lon="12.9407266"><ele>1156.0</ele><time>2026-04-08T16:15:29.932Z</time></trkpt><trkpt lat="42.4570243" lon="12.9406128"><ele>1156.0</ele><time>2026-04-08T16:15:30.93Z</time></trkpt><trkpt lat="42.4569083" lon="12.9404961"><ele>1156.0</ele><time>2026-04-08T16:15:31.931Z</time></trkpt><trkpt lat="42.4568227" lon="12.940376"><ele>1156.0</ele><time>2026-04-08T16:15:32.93Z</time></trkpt><trkpt lat="42.4567647" lon="12.9402444"><ele>1156.0</ele><time>2026-04-08T16:15:33.934Z</time></trkpt><trkpt lat="42.4567486" lon="12.9401033"><ele>1155.3333333333333</ele><time>2026-04-08T16:15:34.933Z</time></trkpt><trkpt lat="42.4567747" lon="12.9399689"><ele>1154.6666666666667</ele><time>2026-04-08T16:15:35.94Z</time></trkpt><trkpt lat="42.4568417" lon="12.9398471"><ele>1154.0</ele><time>2026-04-08T16:15:36.931Z</time></trkpt><trkpt lat="42.4570711" lon="12.9396219"><ele>1162.0</ele><time>2026-04-08T16:15:38.934Z</time></trkpt><trkpt lat="42.4572325" lon="12.9395098"><ele>1170.0</ele><time>2026-04-08T16:15:39.934Z</time></trkpt><trkpt lat="42.4573913" lon="12.939396"><ele>1178.0</ele><time>2026-04-08T16:15:40.934Z</time></trkpt><trkpt lat="42.4575564" lon="12.9392932"><ele>1169.3333333333335</ele><time>2026-04-08T16:15:41.932Z</time></trkpt><trkpt lat="42.457721" lon="12.9392109"><ele>1160.6666666666667</ele><time>2026-04-08T16:15:42.933Z</time></trkpt><trkpt lat="42.4578917" lon="12.9391488"><ele>1152.0</ele><time>2026-04-08T16:15:43.934Z</time></trkpt><trkpt lat="42.4580691" lon="12.9391251"><ele>1152.0</ele><time>2026-04-08T16:15:44.933Z</time></trkpt><trkpt lat="42.4582535" lon="12.939127"><ele>1152.0</ele><time>2026-04-08T16:15:45.935Z</time></trkpt><trkpt lat="42.4584303" lon="12.9391364"><ele>1152.0</ele><time>2026-04-08T16:15:46.931Z</time></trkpt><trkpt lat="42.4586037" lon="12.9391868"><ele>1153.3333333333333</ele><time>2026-04-08T16:15:47.931Z</time></trkpt><trkpt lat="42.4587701" lon="12.9392701"><ele>1154.6666666666665</ele><time>2026-04-08T16:15:48.932Z</time></trkpt><trkpt lat="42.458932" lon="12.9393694"><ele>1156.0</ele><time>2026-04-08T16:15:49.93Z</time></trkpt><trkpt lat="42.4590774" lon="12.9394809"><ele>1156.0</ele><time>2026-04-08T16:15:50.933Z</time></trkpt><trkpt lat="42.4592044" lon="12.9395938"><ele>1156.0</ele><time>2026-04-08T16:15:51.933Z</time></trkpt><trkpt lat="42.459313" lon="12.9397087"><ele>1156.0</ele><time>2026-04-08T16:15:52.931Z</time></trkpt><trkpt lat="42.4594343" lon="12.939782"><ele>1156.0</ele><time>2026-04-08T16:15:53.931Z</time></trkpt><trkpt lat="42.459555" lon="12.9398122"><ele>1153.0</ele><time>2026-04-08T16:15:54.929Z</time></trkpt><trkpt lat="42.4596668" lon="12.9397857"><ele>1150.0</ele><time>2026-04-08T16:15:55.933Z</time></trkpt><trkpt lat="42.4597887" lon="12.9397198"><ele>1147.0</ele><time>2026-04-08T16:15:56.935Z</time></trkpt><trkpt lat="42.4599215" lon="12.939636"><ele>1144.0</ele><time>2026-04-08T16:15:57.932Z</time></trkpt><trkpt lat="42.4600691" lon="12.9395415"><ele>1144.0</ele><time>2026-04-08T16:15:58.935Z</time></trkpt><trkpt lat="42.4602103" lon="12.9394506"><ele>1144.0</ele><time>2026-04-08T16:15:59.933Z</time></trkpt><trkpt lat="42.460356" lon="12.9393534"><ele>1144.0</ele><time>2026-04-08T16:16:00.933Z</time></trkpt><trkpt lat="42.460488" lon="12.9392486"><ele>1140.0</ele><time>2026-04-08T16:16:01.934Z</time></trkpt><trkpt lat="42.4606025" lon="12.9391086"><ele>1136.0</ele><time>2026-04-08T16:16:02.935Z</time></trkpt><trkpt lat="42.4606997" lon="12.9389342"><ele>1132.0</ele><time>2026-04-08T16:16:03.934Z</time></trkpt><trkpt lat="42.4607758" lon="12.9387333"><ele>1132.0</ele><time>2026-04-08T16:16:04.935Z</time></trkpt><trkpt lat="42.4608509" lon="12.9385057"><ele>1132.0</ele><time>2026-04-08T16:16:05.934Z</time></trkpt><trkpt lat="42.4609289" lon="12.9382893"><ele>1132.0</ele><time>2026-04-08T16:16:06.931Z</time></trkpt><trkpt lat="42.4610018" lon="12.9380865"><ele>1128.0</ele><time>2026-04-08T16:16:07.937Z</time></trkpt><trkpt lat="42.4610899" lon="12.9378801"><ele>1124.0</ele><time>2026-04-08T16:16:08.937Z</time></trkpt><trkpt lat="42.4612031" lon="12.9377029"><ele>1120.0</ele><time>2026-04-08T16:16:09.932Z</time></trkpt><trkpt lat="42.4613421" lon="12.9375553"><ele>1118.6666666666665</ele><time>2026-04-08T16:16:10.934Z</time></trkpt><trkpt lat="42.4615145" lon="12.9374384"><ele>1117.3333333333333</ele><time>2026-04-08T16:16:11.93Z</time></trkpt><trkpt lat="42.4616902" lon="12.9373601"><ele>1116.0</ele><time>2026-04-08T16:16:12.932Z</time></trkpt><trkpt lat="42.4618863" lon="12.9373014"><ele>1116.0</ele><time>2026-04-08T16:16:13.931Z</time></trkpt><trkpt lat="42.4620904" lon="12.9372488"><ele>1116.0</ele><time>2026-04-08T16:16:14.933Z</time></trkpt><trkpt lat="42.4623013" lon="12.9371972"><ele>1116.0</ele><time>2026-04-08T16:16:15.932Z</time></trkpt><trkpt lat="42.4625196" lon="12.9371408"><ele>1116.0</ele><time>2026-04-08T16:16:16.931Z</time></trkpt><trkpt lat="42.4627366" lon="12.9370948"><ele>1116.0</ele><time>2026-04-08T16:16:17.943Z</time></trkpt><trkpt lat="42.4629605" lon="12.9370637"><ele>1116.0</ele><time>2026-04-08T16:16:18.934Z</time></trkpt><trkpt lat="42.4631919" lon="12.9370537"><ele>1114.5</ele><time>2026-04-08T16:16:19.931Z</time></trkpt><trkpt lat="42.4634179" lon="12.9370632"><ele>1113.0</ele><time>2026-04-08T16:16:20.932Z</time></trkpt><trkpt lat="42.4636598" lon="12.9370757"><ele>1110.0</ele><time>2026-04-08T16:16:21.933Z</time></trkpt><trkpt lat="42.463906" lon="12.9370892"><ele>1107.0</ele><time>2026-04-08T16:16:22.932Z</time></trkpt><trkpt lat="42.4641603" lon="12.9371034"><ele>1107.0</ele><time>2026-04-08T16:16:23.933Z</time></trkpt><trkpt lat="42.464418" lon="12.9371146"><ele>1107.0</ele><time>2026-04-08T16:16:24.931Z</time></trkpt><trkpt lat="42.4646808" lon="12.9371237"><ele>1105.5</ele><time>2026-04-08T16:16:25.932Z</time></trkpt><trkpt lat="42.4649464" lon="12.937134"><ele>1104.0</ele><time>2026-04-08T16:16:26.934Z</time></trkpt><trkpt lat="42.4652151" lon="12.9371445"><ele>1101.5</ele><time>2026-04-08T16:16:27.933Z</time></trkpt><trkpt lat="42.4654811" lon="12.9371642"><ele>1099.0</ele><time>2026-04-08T16:16:28.934Z</time></trkpt><trkpt lat="42.4657464" lon="12.9371821"><ele>1099.0</ele><time>2026-04-08T16:16:29.932Z</time></trkpt><trkpt lat="42.4660122" lon="12.937197"><ele>1099.0</ele><time>2026-04-08T16:16:30.934Z</time></trkpt><trkpt lat="42.4662751" lon="12.9372244"><ele>1098.5</ele><time>2026-04-08T16:16:31.933Z</time></trkpt><trkpt lat="42.4665355" lon="12.9372611"><ele>1098.0</ele><time>2026-04-08T16:16:32.932Z</time></trkpt><trkpt lat="42.4667976" lon="12.9372921"><ele>1098.0</ele><time>2026-04-08T16:16:33.932Z</time></trkpt><trkpt lat="42.4670577" lon="12.9373368"><ele>1098.0</ele><time>2026-04-08T16:16:34.932Z</time></trkpt><trkpt lat="42.467307" lon="12.9374045"><ele>1099.0</ele><time>2026-04-08T16:16:35.931Z</time></trkpt><trkpt lat="42.4675594" lon="12.9374801"><ele>1100.0</ele><time>2026-04-08T16:16:36.932Z</time></trkpt><trkpt lat="42.467812" lon="12.9375626"><ele>1093.0</ele><time>2026-04-08T16:16:37.933Z</time></trkpt><trkpt lat="42.4680601" lon="12.9376452"><ele>1086.0</ele><time>2026-04-08T16:16:38.93Z</time></trkpt><trkpt lat="42.4682989" lon="12.937728"><ele>1086.0</ele><time>2026-04-08T16:16:39.93Z</time></trkpt><trkpt lat="42.4685235" lon="12.9378078"><ele>1086.0</ele><time>2026-04-08T16:16:40.932Z</time></trkpt><trkpt lat="42.4687366" lon="12.9378819"><ele>1085.3333333333333</ele><time>2026-04-08T16:16:41.931Z</time></trkpt><trkpt lat="42.4689329" lon="12.9379342"><ele>1084.6666666666665</ele><time>2026-04-08T16:16:42.935Z</time></trkpt><trkpt lat="42.4691144" lon="12.9379784"><ele>1084.0</ele><time>2026-04-08T16:16:43.93Z</time></trkpt><trkpt lat="42.4692873" lon="12.9379997"><ele>1084.0</ele><time>2026-04-08T16:16:44.929Z</time></trkpt><trkpt lat="42.4694544" lon="12.9379825"><ele>1084.0</ele><time>2026-04-08T16:16:45.934Z</time></trkpt><trkpt lat="42.4696162" lon="12.9379138"><ele>1084.0</ele><time>2026-04-08T16:16:46.931Z</time></trkpt><trkpt lat="42.4697631" lon="12.9378011"><ele>1083.6666666666665</ele><time>2026-04-08T16:16:47.93Z</time></trkpt><trkpt lat="42.4699157" lon="12.9376388"><ele>1083.3333333333333</ele><time>2026-04-08T16:16:48.938Z</time></trkpt><trkpt lat="42.4700678" lon="12.9374578"><ele>1083.0</ele><time>2026-04-08T16:16:49.933Z</time></trkpt><trkpt lat="42.4702286" lon="12.9372619"><ele>1085.5</ele><time>2026-04-08T16:16:50.931Z</time></trkpt><trkpt lat="42.4703962" lon="12.937051"><ele>1088.0</ele><time>2026-04-08T16:16:51.933Z</time></trkpt><trkpt lat="42.4705591" lon="12.9368365"><ele>1081.6666666666667</ele><time>2026-04-08T16:16:52.931Z</time></trkpt><trkpt lat="42.4707061" lon="12.9366357"><ele>1075.3333333333333</ele><time>2026-04-08T16:16:53.932Z</time></trkpt><trkpt lat="42.4708321" lon="12.936452"><ele>1069.0</ele><time>2026-04-08T16:16:54.934Z</time></trkpt><trkpt lat="42.4709383" lon="12.9362743"><ele>1069.0</ele><time>2026-04-08T16:16:55.932Z</time></trkpt><trkpt lat="42.4710206" lon="12.9360831"><ele>1069.0</ele><time>2026-04-08T16:16:56.937Z</time></trkpt><trkpt lat="42.4710682" lon="12.9358742"><ele>1069.0</ele><time>2026-04-08T16:16:57.936Z</time></trkpt><trkpt lat="42.4710818" lon="12.9356345"><ele>1071.3333333333333</ele><time>2026-04-08T16:16:58.932Z</time></trkpt><trkpt lat="42.4710702" lon="12.9353623"><ele>1073.6666666666667</ele><time>2026-04-08T16:16:59.929Z</time></trkpt><trkpt lat="42.4710416" lon="12.9350877"><ele>1076.0</ele><time>2026-04-08T16:17:00.932Z</time></trkpt><trkpt lat="42.470999" lon="12.9347953"><ele>1076.0</ele><time>2026-04-08T16:17:01.932Z</time></trkpt><trkpt lat="42.4709475" lon="12.9345001"><ele>1076.0</ele><time>2026-04-08T16:17:02.931Z</time></trkpt><trkpt lat="42.4708848" lon="12.9342135"><ele>1076.0</ele><time>2026-04-08T16:17:03.931Z</time></trkpt><trkpt lat="42.4708028" lon="12.9339108"><ele>1069.5</ele><time>2026-04-08T16:17:04.933Z</time></trkpt><trkpt lat="42.4707134" lon="12.9336166"><ele>1063.0</ele><time>2026-04-08T16:17:05.929Z</time></trkpt><trkpt lat="42.4706208" lon="12.9333285"><ele>1055.5</ele><time>2026-04-08T16:17:06.932Z</time></trkpt><trkpt lat="42.4705213" lon="12.9330357"><ele>1048.0</ele><time>2026-04-08T16:17:07.932Z</time></trkpt><trkpt lat="42.4704191" lon="12.9327704"><ele>1054.5</ele><time>2026-04-08T16:17:08.931Z</time></trkpt><trkpt lat="42.4703031" lon="12.9325094"><ele>1061.0</ele><time>2026-04-08T16:17:09.932Z</time></trkpt><trkpt lat="42.4701698" lon="12.9322565"><ele>1061.0</ele><time>2026-04-08T16:17:10.932Z</time></trkpt><trkpt lat="42.4700277" lon="12.9320197"><ele>1061.0</ele><time>2026-04-08T16:17:11.942Z</time></trkpt><trkpt lat="42.4698644" lon="12.9317713"><ele>1062.5</ele><time>2026-04-08T16:17:12.933Z</time></trkpt><trkpt lat="42.4697003" lon="12.9315314"><ele>1064.0</ele><time>2026-04-08T16:17:13.931Z</time></trkpt><trkpt lat="42.4695308" lon="12.9313005"><ele>1064.0</ele><time>2026-04-08T16:17:14.931Z</time></trkpt><trkpt lat="42.4693679" lon="12.9310787"><ele>1064.0</ele><time>2026-04-08T16:17:15.929Z</time></trkpt><trkpt lat="42.4692101" lon="12.9308681"><ele>1061.0</ele><time>2026-04-08T16:17:16.933Z</time></trkpt><trkpt lat="42.4690557" lon="12.9306738"><ele>1058.0</ele><time>2026-04-08T16:17:17.931Z</time></trkpt><trkpt lat="42.468889" lon="12.9304998"><ele>1055.0</ele><time>2026-04-08T16:17:18.931Z</time></trkpt><trkpt lat="42.4687068" lon="12.9303479"><ele>1055.0</ele><time>2026-04-08T16:17:19.929Z</time></trkpt><trkpt lat="42.4685129" lon="12.9302138"><ele>1055.0</ele><time>2026-04-08T16:17:20.932Z</time></trkpt><trkpt lat="42.4683207" lon="12.9300959"><ele>1055.0</ele><time>2026-04-08T16:17:21.93Z</time></trkpt><trkpt lat="42.4681407" lon="12.9299958"><ele>1048.6666666666667</ele><time>2026-04-08T16:17:22.935Z</time></trkpt><trkpt lat="42.4679703" lon="12.9299201"><ele>1042.3333333333333</ele><time>2026-04-08T16:17:23.932Z</time></trkpt><trkpt lat="42.4678148" lon="12.9298645"><ele>1036.0</ele><time>2026-04-08T16:17:24.931Z</time></trkpt><trkpt lat="42.4676693" lon="12.9298059"><ele>1036.0</ele><time>2026-04-08T16:17:25.928Z</time></trkpt><trkpt lat="42.4675331" lon="12.9297157"><ele>1036.0</ele><time>2026-04-08T16:17:26.929Z</time></trkpt><trkpt lat="42.4674106" lon="12.9295788"><ele>1036.0</ele><time>2026-04-08T16:17:27.929Z</time></trkpt><trkpt lat="42.4673008" lon="12.9293981"><ele>1037.3333333333333</ele><time>2026-04-08T16:17:28.931Z</time></trkpt><trkpt lat="42.4672057" lon="12.9291881"><ele>1038.6666666666667</ele><time>2026-04-08T16:17:29.93Z</time></trkpt><trkpt lat="42.467096" lon="12.9289588"><ele>1040.0</ele><time>2026-04-08T16:17:30.932Z</time></trkpt><trkpt lat="42.4669804" lon="12.9287176"><ele>1040.0</ele><time>2026-04-08T16:17:31.933Z</time></trkpt><trkpt lat="42.4668603" lon="12.9284678"><ele>1040.0</ele><time>2026-04-08T16:17:32.931Z</time></trkpt><trkpt lat="42.4667395" lon="12.9282143"><ele>1040.0</ele><time>2026-04-08T16:17:33.929Z</time></trkpt><trkpt lat="42.4666287" lon="12.9279644"><ele>1030.3333333333335</ele><time>2026-04-08T16:17:34.931Z</time></trkpt><trkpt lat="42.4665235" lon="12.927738"><ele>1020.6666666666667</ele><time>2026-04-08T16:17:35.93Z</time></trkpt><trkpt lat="42.4664257" lon="12.9275153"><ele>1011.0</ele><time>2026-04-08T16:17:36.931Z</time></trkpt><trkpt lat="42.4663124" lon="12.9273166"><ele>1012.6666666666667</ele><time>2026-04-08T16:17:37.932Z</time></trkpt><trkpt lat="42.4661845" lon="12.9271373"><ele>1014.3333333333334</ele><time>2026-04-08T16:17:38.931Z</time></trkpt><trkpt lat="42.4660308" lon="12.9269819"><ele>1016.0</ele><time>2026-04-08T16:17:39.932Z</time></trkpt><trkpt lat="42.4658633" lon="12.9268533"><ele>1016.0</ele><time>2026-04-08T16:17:40.931Z</time></trkpt><trkpt lat="42.465677" lon="12.9267577"><ele>1016.0</ele><time>2026-04-08T16:17:41.931Z</time></trkpt><trkpt lat="42.4654916" lon="12.9266847"><ele>1016.0</ele><time>2026-04-08T16:17:42.932Z</time></trkpt><trkpt lat="42.4653045" lon="12.9266429"><ele>1003.3333333333334</ele><time>2026-04-08T16:17:43.93Z</time></trkpt><trkpt lat="42.4651029" lon="12.9266408"><ele>990.6666666666667</ele><time>2026-04-08T16:17:44.933Z</time></trkpt><trkpt lat="42.4649143" lon="12.926675"><ele>978.0</ele><time>2026-04-08T16:17:45.932Z</time></trkpt><trkpt lat="42.4647219" lon="12.9267212"><ele>987.6666666666667</ele><time>2026-04-08T16:17:46.93Z</time></trkpt><trkpt lat="42.4645227" lon="12.9267632"><ele>997.3333333333334</ele><time>2026-04-08T16:17:47.928Z</time></trkpt><trkpt lat="42.4643393" lon="12.9267743"><ele>1007.0</ele><time>2026-04-08T16:17:48.93Z</time></trkpt><trkpt lat="42.4641627" lon="12.9267571"><ele>1002.0</ele><time>2026-04-08T16:17:49.93Z</time></trkpt><trkpt lat="42.4640044" lon="12.9267094"><ele>997.0</ele><time>2026-04-08T16:17:50.929Z</time></trkpt><trkpt lat="42.4638659" lon="12.9266266"><ele>992.0</ele><time>2026-04-08T16:17:51.93Z</time></trkpt><trkpt lat="42.4637334" lon="12.9264854"><ele>992.0</ele><time>2026-04-08T16:17:52.932Z</time></trkpt><trkpt lat="42.4636184" lon="12.9262961"><ele>992.0</ele><time>2026-04-08T16:17:53.93Z</time></trkpt><trkpt lat="42.4635103" lon="12.9260847"><ele>992.0</ele><time>2026-04-08T16:17:54.932Z</time></trkpt><trkpt lat="42.4633973" lon="12.925876"><ele>982.6666666666667</ele><time>2026-04-08T16:17:55.932Z</time></trkpt><trkpt lat="42.4632841" lon="12.9256811"><ele>973.3333333333333</ele><time>2026-04-08T16:17:56.93Z</time></trkpt><trkpt lat="42.4631392" lon="12.9254958"><ele>964.0</ele><time>2026-04-08T16:17:57.932Z</time></trkpt><trkpt lat="42.4629759" lon="12.9253251"><ele>960.3333333333333</ele><time>2026-04-08T16:17:58.928Z</time></trkpt><trkpt lat="42.4628044" lon="12.9251739"><ele>956.6666666666667</ele><time>2026-04-08T16:17:59.929Z</time></trkpt><trkpt lat="42.4626145" lon="12.9250371"><ele>953.0</ele><time>2026-04-08T16:18:00.931Z</time></trkpt><trkpt lat="42.4624235" lon="12.9249365"><ele>953.0</ele><time>2026-04-08T16:18:01.93Z</time></trkpt><trkpt lat="42.462243" lon="12.9248688"><ele>953.0</ele><time>2026-04-08T16:18:02.932Z</time></trkpt><trkpt lat="42.462076" lon="12.9248203"><ele>953.0</ele><time>2026-04-08T16:18:03.931Z</time></trkpt><trkpt lat="42.4619247" lon="12.9247686"><ele>949.0</ele><time>2026-04-08T16:18:04.93Z</time></trkpt><trkpt lat="42.4617906" lon="12.9246864"><ele>945.0</ele><time>2026-04-08T16:18:05.933Z</time></trkpt><trkpt lat="42.4616889" lon="12.9245547"><ele>941.0</ele><time>2026-04-08T16:18:06.93Z</time></trkpt><trkpt lat="42.4615843" lon="12.9241791"><ele>941.0</ele><time>2026-04-08T16:18:08.929Z</time></trkpt><trkpt lat="42.4615456" lon="12.9239625"><ele>941.0</ele><time>2026-04-08T16:18:09.931Z</time></trkpt><trkpt lat="42.4614764" lon="12.9237475"><ele>941.0</ele><time>2026-04-08T16:18:10.931Z</time></trkpt><trkpt lat="42.461384" lon="12.9235291"><ele>946.6666666666667</ele><time>2026-04-08T16:18:11.932Z</time></trkpt><trkpt lat="42.46128" lon="12.9233206"><ele>952.3333333333333</ele><time>2026-04-08T16:18:12.931Z</time></trkpt><trkpt lat="42.4611754" lon="12.9231306"><ele>958.0</ele><time>2026-04-08T16:18:13.93Z</time></trkpt><trkpt lat="42.4610749" lon="12.9229724"><ele>958.0</ele><time>2026-04-08T16:18:14.932Z</time></trkpt><trkpt lat="42.4609798" lon="12.9228449"><ele>958.0</ele><time>2026-04-08T16:18:15.93Z</time></trkpt><trkpt lat="42.4608962" lon="12.9227464"><ele>958.0</ele><time>2026-04-08T16:18:16.929Z</time></trkpt><trkpt lat="42.460838" lon="12.9226517"><ele>958.0</ele><time>2026-04-08T16:18:17.93Z</time></trkpt><trkpt lat="42.4608169" lon="12.9225502"><ele>958.0</ele><time>2026-04-08T16:18:18.929Z</time></trkpt><trkpt lat="42.4608409" lon="12.9224563"><ele>957.9999999999999</ele><time>2026-04-08T16:18:19.929Z</time></trkpt><trkpt lat="42.4608973" lon="12.9224136"><ele>958.0</ele><time>2026-04-08T16:18:20.93Z</time></trkpt><trkpt lat="42.4609693" lon="12.9224087"><ele>958.0</ele><time>2026-04-08T16:18:21.932Z</time></trkpt><trkpt lat="42.4610313" lon="12.922462"><ele>958.0</ele><time>2026-04-08T16:18:22.93Z</time></trkpt><trkpt lat="42.4610911" lon="12.9225719"><ele>957.9999999999999</ele><time>2026-04-08T16:18:23.931Z</time></trkpt><trkpt lat="42.4611623" lon="12.9227205"><ele>958.0</ele><time>2026-04-08T16:18:24.93Z</time></trkpt><trkpt lat="42.461248" lon="12.9228927"><ele>952.3333333333333</ele><time>2026-04-08T16:18:25.93Z</time></trkpt><trkpt lat="42.4613426" lon="12.9230733"><ele>946.6666666666667</ele><time>2026-04-08T16:18:26.931Z</time></trkpt><trkpt lat="42.4614602" lon="12.9232637"><ele>941.0</ele><time>2026-04-08T16:18:27.93Z</time></trkpt><trkpt lat="42.4615902" lon="12.9234588"><ele>941.0</ele><time>2026-04-08T16:18:28.929Z</time></trkpt><trkpt lat="42.4617131" lon="12.9236551"><ele>941.0</ele><time>2026-04-08T16:18:29.932Z</time></trkpt><trkpt lat="42.4618272" lon="12.9238361"><ele>941.0</ele><time>2026-04-08T16:18:30.932Z</time></trkpt><trkpt lat="42.4619375" lon="12.9239813"><ele>941.0</ele><time>2026-04-08T16:18:31.93Z</time></trkpt><trkpt lat="42.4620725" lon="12.9240961"><ele>941.0</ele><time>2026-04-08T16:18:32.93Z</time></trkpt><trkpt lat="42.462211" lon="12.9241648"><ele>941.0</ele><time>2026-04-08T16:18:33.932Z</time></trkpt><trkpt lat="42.4625842" lon="12.924155"><ele>934.0</ele><time>2026-04-08T16:18:35.932Z</time></trkpt><trkpt lat="42.4627722" lon="12.9241499"><ele>927.0</ele><time>2026-04-08T16:18:36.932Z</time></trkpt><trkpt lat="42.462975" lon="12.9241743"><ele>920.0</ele><time>2026-04-08T16:18:37.93Z</time></trkpt><trkpt lat="42.4631864" lon="12.924229"><ele>927.5</ele><time>2026-04-08T16:18:38.931Z</time></trkpt><trkpt lat="42.4633991" lon="12.924303"><ele>935.0</ele><time>2026-04-08T16:18:39.931Z</time></trkpt><trkpt lat="42.4636293" lon="12.9243978"><ele>928.0</ele><time>2026-04-08T16:18:40.93Z</time></trkpt><trkpt lat="42.4638393" lon="12.9244894"><ele>921.0</ele><time>2026-04-08T16:18:41.933Z</time></trkpt><trkpt lat="42.4640375" lon="12.9245891"><ele>914.0</ele><time>2026-04-08T16:18:42.932Z</time></trkpt><trkpt lat="42.4642305" lon="12.9246645"><ele>914.0</ele><time>2026-04-08T16:18:43.938Z</time></trkpt><trkpt lat="42.4644177" lon="12.9246855"><ele>914.0</ele><time>2026-04-08T16:18:44.936Z</time></trkpt><trkpt lat="42.4646266" lon="12.9246646"><ele>914.0</ele><time>2026-04-08T16:18:45.929Z</time></trkpt><trkpt lat="42.4648346" lon="12.9245992"><ele>910.5</ele><time>2026-04-08T16:18:46.931Z</time></trkpt><trkpt lat="42.4650435" lon="12.9245465"><ele>907.0</ele><time>2026-04-08T16:18:47.931Z</time></trkpt><trkpt lat="42.4652799" lon="12.9245117"><ele>904.5</ele><time>2026-04-08T16:18:48.929Z</time></trkpt><trkpt lat="42.4655221" lon="12.924513"><ele>902.0</ele><time>2026-04-08T16:18:49.929Z</time></trkpt><trkpt lat="42.4657693" lon="12.9245264"><ele>902.0</ele><time>2026-04-08T16:18:50.929Z</time></trkpt><trkpt lat="42.4660104" lon="12.9245323"><ele>902.0</ele><time>2026-04-08T16:18:51.929Z</time></trkpt><trkpt lat="42.4662425" lon="12.9245164"><ele>899.3333333333334</ele><time>2026-04-08T16:18:52.931Z</time></trkpt><trkpt lat="42.4664684" lon="12.924484"><ele>896.6666666666667</ele><time>2026-04-08T16:18:53.931Z</time></trkpt><trkpt lat="42.4666789" lon="12.9244534"><ele>894.0</ele><time>2026-04-08T16:18:54.93Z</time></trkpt><trkpt lat="42.4668793" lon="12.9244391"><ele>894.0</ele><time>2026-04-08T16:18:55.928Z</time></trkpt><trkpt lat="42.4670686" lon="12.924456"><ele>894.0</ele><time>2026-04-08T16:18:56.928Z</time></trkpt><trkpt lat="42.4672456" lon="12.9245102"><ele>894.0</ele><time>2026-04-08T16:18:57.93Z</time></trkpt><trkpt lat="42.4674248" lon="12.9245949"><ele>895.3333333333333</ele><time>2026-04-08T16:18:58.93Z</time></trkpt><trkpt lat="42.4675704" lon="12.9247253"><ele>896.6666666666666</ele><time>2026-04-08T16:18:59.93Z</time></trkpt><trkpt lat="42.4676998" lon="12.9249002"><ele>898.0</ele><time>2026-04-08T16:19:00.93Z</time></trkpt><trkpt lat="42.4678179" lon="12.9251011"><ele>898.0</ele><time>2026-04-08T16:19:01.931Z</time></trkpt><trkpt lat="42.4679351" lon="12.9253037"><ele>898.0</ele><time>2026-04-08T16:19:02.929Z</time></trkpt><trkpt lat="42.468061" lon="12.9254838"><ele>898.0</ele><time>2026-04-08T16:19:03.931Z</time></trkpt><trkpt lat="42.4682024" lon="12.9256292"><ele>885.3333333333333</ele><time>2026-04-08T16:19:04.932Z</time></trkpt><trkpt lat="42.4683498" lon="12.9257396"><ele>872.6666666666667</ele><time>2026-04-08T16:19:05.934Z</time></trkpt><trkpt lat="42.4685029" lon="12.9258171"><ele>860.0</ele><time>2026-04-08T16:19:06.93Z</time></trkpt><trkpt lat="42.4686859" lon="12.9258574"><ele>854.6666666666667</ele><time>2026-04-08T16:19:07.931Z</time></trkpt><trkpt lat="42.4688696" lon="12.925853"><ele>849.3333333333333</ele><time>2026-04-08T16:19:08.931Z</time></trkpt><trkpt lat="42.4690477" lon="12.9258494"><ele>844.0</ele><time>2026-04-08T16:19:09.929Z</time></trkpt><trkpt lat="42.4692257" lon="12.9258563"><ele>844.0</ele><time>2026-04-08T16:19:10.929Z</time></trkpt><trkpt lat="42.4694006" lon="12.925891"><ele>844.0</ele><time>2026-04-08T16:19:11.93Z</time></trkpt><trkpt lat="42.4695629" lon="12.925954"><ele>844.0</ele><time>2026-04-08T16:19:12.931Z</time></trkpt><trkpt lat="42.4697129" lon="12.9260563"><ele>847.3333333333333</ele><time>2026-04-08T16:19:13.93Z</time></trkpt><trkpt lat="42.4698473" lon="12.9261809"><ele>850.6666666666667</ele><time>2026-04-08T16:19:14.931Z</time></trkpt><trkpt lat="42.4699664" lon="12.926314"><ele>854.0</ele><time>2026-04-08T16:19:15.932Z</time></trkpt><trkpt lat="42.47007" lon="12.9264355"><ele>854.0</ele><time>2026-04-08T16:19:16.93Z</time></trkpt><trkpt lat="42.4701615" lon="12.9265249"><ele>854.0000000000001</ele><time>2026-04-08T16:19:17.93Z</time></trkpt><trkpt lat="42.4702469" lon="12.9265795"><ele>854.0000000000001</ele><time>2026-04-08T16:19:18.931Z</time></trkpt><trkpt lat="42.4703275" lon="12.9265882"><ele>854.0</ele><time>2026-04-08T16:19:19.93Z</time></trkpt><trkpt lat="42.470404" lon="12.9265427"><ele>854.0</ele><time>2026-04-08T16:19:20.929Z</time></trkpt><trkpt lat="42.4704548" lon="12.9264556"><ele>854.0</ele><time>2026-04-08T16:19:21.928Z</time></trkpt><trkpt lat="42.4704704" lon="12.9263522"><ele>854.0000000000001</ele><time>2026-04-08T16:19:22.93Z</time></trkpt><trkpt lat="42.4704575" lon="12.9262435"><ele>854.0000000000001</ele><time>2026-04-08T16:19:23.93Z</time></trkpt><trkpt lat="42.4704107" lon="12.9261402"><ele>854.0</ele><time>2026-04-08T16:19:24.93Z</time></trkpt><trkpt lat="42.4703336" lon="12.9260249"><ele>854.0</ele><time>2026-04-08T16:19:25.929Z</time></trkpt><trkpt lat="42.4702274" lon="12.9258985"><ele>846.6666666666667</ele><time>2026-04-08T16:19:26.93Z</time></trkpt><trkpt lat="42.4701139" lon="12.9257607"><ele>839.3333333333333</ele><time>2026-04-08T16:19:27.929Z</time></trkpt><trkpt lat="42.4699868" lon="12.9256069"><ele>832.0</ele><time>2026-04-08T16:19:28.931Z</time></trkpt><trkpt lat="42.4698609" lon="12.9254612"><ele>832.0</ele><time>2026-04-08T16:19:29.93Z</time></trkpt><trkpt lat="42.4697281" lon="12.92533"><ele>832.0</ele><time>2026-04-08T16:19:30.93Z</time></trkpt><trkpt lat="42.4695851" lon="12.9252217"><ele>832.0</ele><time>2026-04-08T16:19:31.93Z</time></trkpt><trkpt lat="42.4694313" lon="12.9251537"><ele>836.0</ele><time>2026-04-08T16:19:32.931Z</time></trkpt><trkpt lat="42.4692729" lon="12.9250976"><ele>840.0</ele><time>2026-04-08T16:19:33.93Z</time></trkpt><trkpt lat="42.4691179" lon="12.9250296"><ele>844.0</ele><time>2026-04-08T16:19:34.931Z</time></trkpt><trkpt lat="42.4689821" lon="12.9249302"><ele>842.6666666666666</ele><time>2026-04-08T16:19:35.931Z</time></trkpt><trkpt lat="42.4688613" lon="12.9247693"><ele>841.3333333333333</ele><time>2026-04-08T16:19:36.932Z</time></trkpt><trkpt lat="42.4687604" lon="12.9245709"><ele>840.0</ele><time>2026-04-08T16:19:37.929Z</time></trkpt><trkpt lat="42.468664" lon="12.9243422"><ele>834.3333333333333</ele><time>2026-04-08T16:19:38.932Z</time></trkpt><trkpt lat="42.4685756" lon="12.9240962"><ele>828.6666666666666</ele><time>2026-04-08T16:19:39.93Z</time></trkpt><trkpt lat="42.4684872" lon="12.9238455"><ele>823.0</ele><time>2026-04-08T16:19:40.932Z</time></trkpt><trkpt lat="42.4683894" lon="12.9236034"><ele>815.6666666666666</ele><time>2026-04-08T16:19:41.93Z</time></trkpt><trkpt lat="42.4682723" lon="12.9233789"><ele>808.3333333333333</ele><time>2026-04-08T16:19:42.928Z</time></trkpt><trkpt lat="42.4681428" lon="12.9231792"><ele>801.0</ele><time>2026-04-08T16:19:43.929Z</time></trkpt><trkpt lat="42.4679952" lon="12.9230133"><ele>807.0</ele><time>2026-04-08T16:19:44.929Z</time></trkpt><trkpt lat="42.4678338" lon="12.9228841"><ele>813.0</ele><time>2026-04-08T16:19:45.93Z</time></trkpt><trkpt lat="42.4676581" lon="12.9227939"><ele>819.0</ele><time>2026-04-08T16:19:46.933Z</time></trkpt><trkpt lat="42.4674676" lon="12.9227333"><ele>819.0</ele><time>2026-04-08T16:19:47.932Z</time></trkpt><trkpt lat="42.4672611" lon="12.9226904"><ele>819.0</ele><time>2026-04-08T16:19:48.933Z</time></trkpt><trkpt lat="42.4670572" lon="12.9226411"><ele>819.0</ele><time>2026-04-08T16:19:49.929Z</time></trkpt><trkpt lat="42.4668621" lon="12.922576"><ele>809.0</ele><time>2026-04-08T16:19:50.929Z</time></trkpt><trkpt lat="42.4666763" lon="12.9224877"><ele>799.0</ele><time>2026-04-08T16:19:51.929Z</time></trkpt><trkpt lat="42.466505" lon="12.9223701"><ele>789.0</ele><time>2026-04-08T16:19:52.93Z</time></trkpt><trkpt lat="42.4663513" lon="12.9222206"><ele>791.6666666666667</ele><time>2026-04-08T16:19:53.929Z</time></trkpt><trkpt lat="42.4662115" lon="12.9220351"><ele>794.3333333333334</ele><time>2026-04-08T16:19:54.93Z</time></trkpt><trkpt lat="42.466081" lon="12.9218241"><ele>797.0</ele><time>2026-04-08T16:19:55.931Z</time></trkpt><trkpt lat="42.465945" lon="12.9216038"><ele>790.3333333333334</ele><time>2026-04-08T16:19:56.93Z</time></trkpt><trkpt lat="42.46581" lon="12.9213886"><ele>783.6666666666667</ele><time>2026-04-08T16:19:57.93Z</time></trkpt><trkpt lat="42.4656697" lon="12.9211846"><ele>777.0</ele><time>2026-04-08T16:19:58.933Z</time></trkpt><trkpt lat="42.4655126" lon="12.9210105"><ele>773.3333333333334</ele><time>2026-04-08T16:19:59.93Z</time></trkpt><trkpt lat="42.4653335" lon="12.9208601"><ele>769.6666666666667</ele><time>2026-04-08T16:20:00.93Z</time></trkpt><trkpt lat="42.4651372" lon="12.9207178"><ele>766.0</ele><time>2026-04-08T16:20:01.929Z</time></trkpt><trkpt lat="42.4649324" lon="12.9205781"><ele>766.0</ele><time>2026-04-08T16:20:02.931Z</time></trkpt><trkpt lat="42.4647223" lon="12.9204341"><ele>766.0</ele><time>2026-04-08T16:20:03.931Z</time></trkpt><trkpt lat="42.4645025" lon="12.920286"><ele>767.5</ele><time>2026-04-08T16:20:04.93Z</time></trkpt><trkpt lat="42.4642817" lon="12.9201355"><ele>769.0</ele><time>2026-04-08T16:20:05.93Z</time></trkpt><trkpt lat="42.4640633" lon="12.9199847"><ele>768.5</ele><time>2026-04-08T16:20:06.93Z</time></trkpt><trkpt lat="42.4638566" lon="12.9198384"><ele>768.0</ele><time>2026-04-08T16:20:07.931Z</time></trkpt><trkpt lat="42.4636444" lon="12.9196636"><ele>768.0</ele><time>2026-04-08T16:20:08.931Z</time></trkpt><trkpt lat="42.4634481" lon="12.9194718"><ele>768.0</ele><time>2026-04-08T16:20:09.929Z</time></trkpt><trkpt lat="42.4632558" lon="12.9192595"><ele>767.5</ele><time>2026-04-08T16:20:10.945Z</time></trkpt><trkpt lat="42.4630597" lon="12.9190242"><ele>767.0</ele><time>2026-04-08T16:20:11.93Z</time></trkpt><trkpt lat="42.4628797" lon="12.9188057"><ele>767.0</ele><time>2026-04-08T16:20:12.93Z</time></trkpt><trkpt lat="42.4627058" lon="12.9185977"><ele>767.0</ele><time>2026-04-08T16:20:13.935Z</time></trkpt><trkpt lat="42.4625424" lon="12.9184181"><ele>767.0</ele><time>2026-04-08T16:20:14.93Z</time></trkpt><trkpt lat="42.4623931" lon="12.9182683"><ele>760.6666666666666</ele><time>2026-04-08T16:20:15.93Z</time></trkpt><trkpt lat="42.4622241" lon="12.9181379"><ele>754.3333333333334</ele><time>2026-04-08T16:20:16.932Z</time></trkpt><trkpt lat="42.4620387" lon="12.9180403"><ele>748.0</ele><time>2026-04-08T16:20:17.928Z</time></trkpt><trkpt lat="42.4618453" lon="12.9179673"><ele>748.0</ele><time>2026-04-08T16:20:18.932Z</time></trkpt><trkpt lat="42.4616284" lon="12.9179126"><ele>748.0</ele><time>2026-04-08T16:20:19.929Z</time></trkpt><trkpt lat="42.4614161" lon="12.9178795"><ele>748.0</ele><time>2026-04-08T16:20:20.93Z</time></trkpt><trkpt lat="42.4611946" lon="12.9178552"><ele>748.0</ele><time>2026-04-08T16:20:21.932Z</time></trkpt><trkpt lat="42.4609831" lon="12.9178373"><ele>748.0</ele><time>2026-04-08T16:20:22.931Z</time></trkpt><trkpt lat="42.460789" lon="12.9178221"><ele>748.0</ele><time>2026-04-08T16:20:23.93Z</time></trkpt><trkpt lat="42.4605955" lon="12.9177972"><ele>752.0</ele><time>2026-04-08T16:20:24.931Z</time></trkpt><trkpt lat="42.4604149" lon="12.9177431"><ele>756.0</ele><time>2026-04-08T16:20:25.93Z</time></trkpt><trkpt lat="42.4602388" lon="12.9176358"><ele>760.0</ele><time>2026-04-08T16:20:26.931Z</time></trkpt><trkpt lat="42.4600621" lon="12.9175041"><ele>746.0</ele><time>2026-04-08T16:20:27.931Z</time></trkpt><trkpt lat="42.4598884" lon="12.91736"><ele>732.0</ele><time>2026-04-08T16:20:28.931Z</time></trkpt><trkpt lat="42.4597176" lon="12.9172155"><ele>718.0</ele><time>2026-04-08T16:20:29.929Z</time></trkpt><trkpt lat="42.4595587" lon="12.9170865"><ele>718.0</ele><time>2026-04-08T16:20:30.933Z</time></trkpt><trkpt lat="42.4593951" lon="12.916984"><ele>718.0</ele><time>2026-04-08T16:20:31.93Z</time></trkpt><trkpt lat="42.4592205" lon="12.9169335"><ele>718.0</ele><time>2026-04-08T16:20:32.93Z</time></trkpt><trkpt lat="42.4590319" lon="12.916931"><ele>718.0</ele><time>2026-04-08T16:20:33.929Z</time></trkpt><trkpt lat="42.4588323" lon="12.9169723"><ele>718.0</ele><time>2026-04-08T16:20:34.935Z</time></trkpt><trkpt lat="42.458622" lon="12.9170305"><ele>718.0</ele><time>2026-04-08T16:20:35.929Z</time></trkpt><trkpt lat="42.4584057" lon="12.9170901"><ele>713.6666666666667</ele><time>2026-04-08T16:20:36.929Z</time></trkpt><trkpt lat="42.4581851" lon="12.9171335"><ele>709.3333333333334</ele><time>2026-04-08T16:20:37.93Z</time></trkpt><trkpt lat="42.4579611" lon="12.9171432"><ele>705.0</ele><time>2026-04-08T16:20:38.93Z</time></trkpt><trkpt lat="42.4577377" lon="12.9171264"><ele>704.3333333333334</ele><time>2026-04-08T16:20:39.929Z</time></trkpt><trkpt lat="42.4575279" lon="12.9170992"><ele>703.6666666666667</ele><time>2026-04-08T16:20:40.93Z</time></trkpt><trkpt lat="42.4573368" lon="12.9170626"><ele>703.0</ele><time>2026-04-08T16:20:41.929Z</time></trkpt><trkpt lat="42.457162" lon="12.9169973"><ele>704.0</ele><time>2026-04-08T16:20:42.93Z</time></trkpt><trkpt lat="42.4570146" lon="12.9168857"><ele>705.0</ele><time>2026-04-08T16:20:43.93Z</time></trkpt><trkpt lat="42.4568818" lon="12.9167538"><ele>706.0</ele><time>2026-04-08T16:20:44.93Z</time></trkpt><trkpt lat="42.4567456" lon="12.9166509"><ele>695.0</ele><time>2026-04-08T16:20:45.931Z</time></trkpt><trkpt lat="42.4566087" lon="12.9166035"><ele>684.0</ele><time>2026-04-08T16:20:46.931Z</time></trkpt><trkpt lat="42.456464" lon="12.9166171"><ele>673.0</ele><time>2026-04-08T16:20:47.93Z</time></trkpt><trkpt lat="42.4562889" lon="12.916679"><ele>669.0</ele><time>2026-04-08T16:20:48.933Z</time></trkpt><trkpt lat="42.45609" lon="12.9167225"><ele>665.0</ele><time>2026-04-08T16:20:49.929Z</time></trkpt><trkpt lat="42.4558654" lon="12.9167184"><ele>661.0</ele><time>2026-04-08T16:20:50.929Z</time></trkpt><trkpt lat="42.4556227" lon="12.9166865"><ele>659.0</ele><time>2026-04-08T16:20:51.931Z</time></trkpt><trkpt lat="42.4553692" lon="12.9166489"><ele>657.0</ele><time>2026-04-08T16:20:52.93Z</time></trkpt><trkpt lat="42.4551168" lon="12.91662"><ele>657.0</ele><time>2026-04-08T16:20:53.928Z</time></trkpt><trkpt lat="42.4548714" lon="12.9166043"><ele>657.0</ele><time>2026-04-08T16:20:54.929Z</time></trkpt><trkpt lat="42.454653" lon="12.9165966"><ele>652.0</ele><time>2026-04-08T16:20:55.931Z</time></trkpt><trkpt lat="42.4544427" lon="12.9165842"><ele>647.0</ele><time>2026-04-08T16:20:56.931Z</time></trkpt><trkpt lat="42.4542756" lon="12.9165835"><ele>642.0</ele><time>2026-04-08T16:20:57.93Z</time></trkpt><trkpt lat="42.4541249" lon="12.9166071"><ele>642.0</ele><time>2026-04-08T16:20:58.93Z</time></trkpt><trkpt lat="42.4539835" lon="12.9166758"><ele>642.0</ele><time>2026-04-08T16:20:59.932Z</time></trkpt><trkpt lat="42.4538613" lon="12.9167767"><ele>642.0</ele><time>2026-04-08T16:21:00.929Z</time></trkpt><trkpt lat="42.4537383" lon="12.9168816"><ele>642.0</ele><time>2026-04-08T16:21:01.929Z</time></trkpt><trkpt lat="42.4536345" lon="12.9169481"><ele>649.75</ele><time>2026-04-08T16:21:02.929Z</time></trkpt><trkpt lat="42.4535224" lon="12.9169671"><ele>657.5</ele><time>2026-04-08T16:21:03.929Z</time></trkpt><trkpt lat="42.4533878" lon="12.9169368"><ele>665.25</ele><time>2026-04-08T16:21:04.931Z</time></trkpt><trkpt lat="42.4532502" lon="12.9169054"><ele>673.0</ele><time>2026-04-08T16:21:05.931Z</time></trkpt><trkpt lat="42.4531079" lon="12.9169102"><ele>673.0</ele><time>2026-04-08T16:21:06.931Z</time></trkpt><trkpt lat="42.452959" lon="12.9169558"><ele>673.0</ele><time>2026-04-08T16:21:07.929Z</time></trkpt><trkpt lat="42.4528032" lon="12.9169973"><ele>673.0</ele><time>2026-04-08T16:21:08.931Z</time></trkpt><trkpt lat="42.4526319" lon="12.916992"><ele>671.0</ele><time>2026-04-08T16:21:09.931Z</time></trkpt><trkpt lat="42.4524408" lon="12.9169487"><ele>669.0</ele><time>2026-04-08T16:21:10.931Z</time></trkpt><trkpt lat="42.4522432" lon="12.9168998"><ele>667.0</ele><time>2026-04-08T16:21:11.931Z</time></trkpt><trkpt lat="42.452029" lon="12.9168445"><ele>665.3333333333334</ele><time>2026-04-08T16:21:12.932Z</time></trkpt><trkpt lat="42.4518245" lon="12.916811"><ele>663.6666666666666</ele><time>2026-04-08T16:21:13.933Z</time></trkpt><trkpt lat="42.4516183" lon="12.9168108"><ele>662.0</ele><time>2026-04-08T16:21:14.929Z</time></trkpt><trkpt lat="42.4514043" lon="12.9168437"><ele>651.3333333333333</ele><time>2026-04-08T16:21:15.931Z</time></trkpt><trkpt lat="42.4511925" lon="12.9169035"><ele>640.6666666666666</ele><time>2026-04-08T16:21:16.942Z</time></trkpt><trkpt lat="42.4509817" lon="12.9169813"><ele>630.0</ele><time>2026-04-08T16:21:17.934Z</time></trkpt><trkpt lat="42.4507759" lon="12.9170671"><ele>630.0</ele><time>2026-04-08T16:21:18.929Z</time></trkpt><trkpt lat="42.4505775" lon="12.9171677"><ele>630.0</ele><time>2026-04-08T16:21:19.931Z</time></trkpt><trkpt lat="42.4503867" lon="12.9172926"><ele>630.0</ele><time>2026-04-08T16:21:20.932Z</time></trkpt><trkpt lat="42.4502066" lon="12.9174371"><ele>627.3333333333334</ele><time>2026-04-08T16:21:21.929Z</time></trkpt><trkpt lat="42.4500381" lon="12.9175787"><ele>624.6666666666667</ele><time>2026-04-08T16:21:22.93Z</time></trkpt><trkpt lat="42.4498842" lon="12.9177113"><ele>622.0</ele><time>2026-04-08T16:21:23.931Z</time></trkpt><trkpt lat="42.4497398" lon="12.9178313"><ele>614.6666666666667</ele><time>2026-04-08T16:21:24.931Z</time></trkpt><trkpt lat="42.4496019" lon="12.917932"><ele>607.3333333333334</ele><time>2026-04-08T16:21:25.931Z</time></trkpt><trkpt lat="42.4494594" lon="12.9180017"><ele>600.0</ele><time>2026-04-08T16:21:26.93Z</time></trkpt><trkpt lat="42.4493005" lon="12.9180236"><ele>600.0</ele><time>2026-04-08T16:21:27.93Z</time></trkpt><trkpt lat="42.4491233" lon="12.9179947"><ele>600.0</ele><time>2026-04-08T16:21:28.931Z</time></trkpt><trkpt lat="42.4489268" lon="12.9179409"><ele>600.0</ele><time>2026-04-08T16:21:29.93Z</time></trkpt><trkpt lat="42.4487232" lon="12.917881"><ele>597.5</ele><time>2026-04-08T16:21:30.931Z</time></trkpt><trkpt lat="42.4485059" lon="12.9178211"><ele>595.0</ele><time>2026-04-08T16:21:31.93Z</time></trkpt><trkpt lat="42.4482798" lon="12.9177622"><ele>595.0</ele><time>2026-04-08T16:21:32.93Z</time></trkpt><trkpt lat="42.4480499" lon="12.9177074"><ele>595.0</ele><time>2026-04-08T16:21:33.931Z</time></trkpt><trkpt lat="42.4478236" lon="12.9176586"><ele>606.5</ele><time>2026-04-08T16:21:34.933Z</time></trkpt><trkpt lat="42.4475972" lon="12.917613"><ele>618.0</ele><time>2026-04-08T16:21:35.932Z</time></trkpt><trkpt lat="42.4473769" lon="12.9175705"><ele>605.0</ele><time>2026-04-08T16:21:36.932Z</time></trkpt><trkpt lat="42.4471626" lon="12.9175285"><ele>592.0</ele><time>2026-04-08T16:21:37.931Z</time></trkpt><trkpt lat="42.4469621" lon="12.9174897"><ele>579.0</ele><time>2026-04-08T16:21:38.93Z</time></trkpt><trkpt lat="42.4467739" lon="12.9174498"><ele>579.0</ele><time>2026-04-08T16:21:39.93Z</time></trkpt><trkpt lat="42.4465926" lon="12.917398"><ele>579.0</ele><time>2026-04-08T16:21:40.931Z</time></trkpt><trkpt lat="42.4464177" lon="12.9173195"><ele>579.0</ele><time>2026-04-08T16:21:41.931Z</time></trkpt><trkpt lat="42.4462378" lon="12.9172146"><ele>576.6666666666666</ele><time>2026-04-08T16:21:42.93Z</time></trkpt><trkpt lat="42.4460552" lon="12.9170958"><ele>574.3333333333333</ele><time>2026-04-08T16:21:43.931Z</time></trkpt><trkpt lat="42.4458631" lon="12.9169675"><ele>572.0</ele><time>2026-04-08T16:21:44.931Z</time></trkpt><trkpt lat="42.4456792" lon="12.9168428"><ele>568.0</ele><time>2026-04-08T16:21:45.931Z</time></trkpt><trkpt lat="42.4455004" lon="12.9167175"><ele>564.0</ele><time>2026-04-08T16:21:46.93Z</time></trkpt><trkpt lat="42.4453204" lon="12.9165936"><ele>560.0</ele><time>2026-04-08T16:21:47.931Z</time></trkpt><trkpt lat="42.4451526" lon="12.916479"><ele>559.3333333333333</ele><time>2026-04-08T16:21:48.928Z</time></trkpt><trkpt lat="42.4449821" lon="12.9163638"><ele>558.6666666666666</ele><time>2026-04-08T16:21:49.931Z</time></trkpt><trkpt lat="42.4448068" lon="12.9162484"><ele>558.0</ele><time>2026-04-08T16:21:50.932Z</time></trkpt><trkpt lat="42.4446366" lon="12.9161446"><ele>557.3333333333334</ele><time>2026-04-08T16:21:51.93Z</time></trkpt><trkpt lat="42.4444543" lon="12.9160513"><ele>556.6666666666667</ele><time>2026-04-08T16:21:52.931Z</time></trkpt><trkpt lat="42.444272" lon="12.9159748"><ele>556.0</ele><time>2026-04-08T16:21:53.931Z</time></trkpt><trkpt lat="42.4440945" lon="12.9159098"><ele>556.0</ele><time>2026-04-08T16:21:54.938Z</time></trkpt><trkpt lat="42.4439134" lon="12.9158418"><ele>556.0</ele><time>2026-04-08T16:21:55.929Z</time></trkpt><trkpt lat="42.4437472" lon="12.9157607"><ele>556.0</ele><time>2026-04-08T16:21:56.933Z</time></trkpt><trkpt lat="42.4435784" lon="12.9156505"><ele>553.6666666666667</ele><time>2026-04-08T16:21:57.929Z</time></trkpt><trkpt lat="42.4434103" lon="12.9155127"><ele>551.3333333333334</ele><time>2026-04-08T16:21:58.929Z</time></trkpt><trkpt lat="42.4432416" lon="12.9153655"><ele>549.0</ele><time>2026-04-08T16:21:59.932Z</time></trkpt><trkpt lat="42.4430549" lon="12.9151994"><ele>546.5</ele><time>2026-04-08T16:22:00.932Z</time></trkpt><trkpt lat="42.4428663" lon="12.9150343"><ele>544.0</ele><time>2026-04-08T16:22:01.93Z</time></trkpt><trkpt lat="42.4426689" lon="12.9148718"><ele>544.0</ele><time>2026-04-08T16:22:02.931Z</time></trkpt><trkpt lat="42.4424614" lon="12.9147178"><ele>544.0</ele><time>2026-04-08T16:22:03.93Z</time></trkpt><trkpt lat="42.442268" lon="12.9145864"><ele>542.3333333333334</ele><time>2026-04-08T16:22:04.932Z</time></trkpt><trkpt lat="42.4420724" lon="12.91446"><ele>540.6666666666666</ele><time>2026-04-08T16:22:05.93Z</time></trkpt><trkpt lat="42.4418815" lon="12.914342"><ele>539.0</ele><time>2026-04-08T16:22:06.93Z</time></trkpt><trkpt lat="42.4416787" lon="12.914248"><ele>538.6666666666666</ele><time>2026-04-08T16:22:07.93Z</time></trkpt><trkpt lat="42.4414628" lon="12.9141846"><ele>538.3333333333334</ele><time>2026-04-08T16:22:08.93Z</time></trkpt><trkpt lat="42.4412373" lon="12.9141468"><ele>538.0</ele><time>2026-04-08T16:22:09.931Z</time></trkpt><trkpt lat="42.4410121" lon="12.9141119"><ele>536.6666666666667</ele><time>2026-04-08T16:22:10.928Z</time></trkpt><trkpt lat="42.4407886" lon="12.9140752"><ele>535.3333333333334</ele><time>2026-04-08T16:22:11.93Z</time></trkpt><trkpt lat="42.4405779" lon="12.9140439"><ele>534.0</ele><time>2026-04-08T16:22:12.931Z</time></trkpt><trkpt lat="42.4403718" lon="12.9140115"><ele>533.6666666666666</ele><time>2026-04-08T16:22:13.931Z</time></trkpt><trkpt lat="42.4401689" lon="12.9139785"><ele>533.3333333333333</ele><time>2026-04-08T16:22:14.933Z</time></trkpt><trkpt lat="42.4399635" lon="12.9139472"><ele>533.0</ele><time>2026-04-08T16:22:15.931Z</time></trkpt><trkpt lat="42.4397588" lon="12.913915"><ele>531.3333333333333</ele><time>2026-04-08T16:22:16.936Z</time></trkpt><trkpt lat="42.4395584" lon="12.9138854"><ele>529.6666666666666</ele><time>2026-04-08T16:22:17.935Z</time></trkpt><trkpt lat="42.4393646" lon="12.9138574"><ele>528.0</ele><time>2026-04-08T16:22:18.932Z</time></trkpt><trkpt lat="42.439176" lon="12.9138282"><ele>528.0</ele><time>2026-04-08T16:22:19.931Z</time></trkpt><trkpt lat="42.4389953" lon="12.9137942"><ele>528.0</ele><time>2026-04-08T16:22:20.932Z</time></trkpt><trkpt lat="42.4388263" lon="12.9137535"><ele>528.0</ele><time>2026-04-08T16:22:21.93Z</time></trkpt><trkpt lat="42.4386642" lon="12.9137019"><ele>526.0</ele><time>2026-04-08T16:22:22.931Z</time></trkpt><trkpt lat="42.4385099" lon="12.9136392"><ele>524.0</ele><time>2026-04-08T16:22:23.932Z</time></trkpt><trkpt lat="42.4383628" lon="12.9135619"><ele>522.0</ele><time>2026-04-08T16:22:24.932Z</time></trkpt><trkpt lat="42.4382173" lon="12.9134718"><ele>522.0</ele><time>2026-04-08T16:22:25.932Z</time></trkpt><trkpt lat="42.4380747" lon="12.9133659"><ele>522.0</ele><time>2026-04-08T16:22:26.931Z</time></trkpt><trkpt lat="42.437934" lon="12.9132479"><ele>522.0</ele><time>2026-04-08T16:22:27.937Z</time></trkpt><trkpt lat="42.4377992" lon="12.9131288"><ele>522.0</ele><time>2026-04-08T16:22:28.932Z</time></trkpt><trkpt lat="42.4376697" lon="12.9130094"><ele>522.0</ele><time>2026-04-08T16:22:29.93Z</time></trkpt><trkpt lat="42.4375379" lon="12.9128873"><ele>522.0</ele><time>2026-04-08T16:22:30.932Z</time></trkpt><trkpt lat="42.437407" lon="12.9127687"><ele>522.0</ele><time>2026-04-08T16:22:31.932Z</time></trkpt><trkpt lat="42.4372638" lon="12.91264"><ele>522.0</ele><time>2026-04-08T16:22:32.933Z</time></trkpt><trkpt lat="42.4371208" lon="12.9125141"><ele>522.0</ele><time>2026-04-08T16:22:33.931Z</time></trkpt><trkpt lat="42.4369745" lon="12.9123877"><ele>520.3333333333334</ele><time>2026-04-08T16:22:34.932Z</time></trkpt><trkpt lat="42.4368297" lon="12.9122563"><ele>518.6666666666667</ele><time>2026-04-08T16:22:35.93Z</time></trkpt><trkpt lat="42.4367012" lon="12.912134"><ele>517.0</ele><time>2026-04-08T16:22:36.932Z</time></trkpt><trkpt lat="42.436572" lon="12.9120089"><ele>517.0</ele><time>2026-04-08T16:22:37.931Z</time></trkpt><trkpt lat="42.436447" lon="12.9118907"><ele>517.0</ele><time>2026-04-08T16:22:38.934Z</time></trkpt><trkpt lat="42.4363311" lon="12.9117828"><ele>517.0</ele><time>2026-04-08T16:22:39.931Z</time></trkpt><trkpt lat="42.4362134" lon="12.9116791"><ele>517.0</ele><time>2026-04-08T16:22:40.932Z</time></trkpt><trkpt lat="42.4360999" lon="12.9115915"><ele>516.4</ele><time>2026-04-08T16:22:41.931Z</time></trkpt><trkpt lat="42.4359887" lon="12.9115181"><ele>515.8000000000001</ele><time>2026-04-08T16:22:42.93Z</time></trkpt><trkpt lat="42.4358824" lon="12.9114526"><ele>515.2</ele><time>2026-04-08T16:22:43.931Z</time></trkpt><trkpt lat="42.4357902" lon="12.9113999"><ele>514.6</ele><time>2026-04-08T16:22:44.932Z</time></trkpt><trkpt lat="42.4357013" lon="12.911353"><ele>514.0</ele><time>2026-04-08T16:22:45.931Z</time></trkpt><trkpt lat="42.4356207" lon="12.9113096"><ele>514.0</ele><time>2026-04-08T16:22:46.931Z</time></trkpt><trkpt lat="42.4355501" lon="12.9112712"><ele>514.0</ele><time>2026-04-08T16:22:47.933Z</time></trkpt><trkpt lat="42.4354878" lon="12.9112401"><ele>514.0</ele><time>2026-04-08T16:22:48.931Z</time></trkpt><trkpt lat="42.4353965" lon="12.9111964"><ele>514.0</ele><time>2026-04-08T16:22:50.929Z</time></trkpt><trkpt lat="42.4353274" lon="12.9111872"><ele>514.0</ele><time>2026-04-08T16:22:52.929Z</time></trkpt><trkpt lat="42.435255" lon="12.911155"><ele>514.0</ele><time>2026-04-08T16:22:54.93Z</time></trkpt><trkpt lat="42.4351645" lon="12.9111271"><ele>513.4</ele><time>2026-04-08T16:22:56.929Z</time></trkpt><trkpt lat="42.4350677" lon="12.9111914"><ele>512.8</ele><time>2026-04-08T16:22:58.929Z</time></trkpt><trkpt lat="42.435004" lon="12.9112685"><ele>512.2</ele><time>2026-04-08T16:22:59.931Z</time></trkpt><trkpt lat="42.4349282" lon="12.9113551"><ele>511.6</ele><time>2026-04-08T16:23:00.931Z</time></trkpt><trkpt lat="42.434847" lon="12.9114485"><ele>511.0</ele><time>2026-04-08T16:23:01.932Z</time></trkpt><trkpt lat="42.4347629" lon="12.9115416"><ele>511.0</ele><time>2026-04-08T16:23:02.931Z</time></trkpt><trkpt lat="42.4346771" lon="12.9116464"><ele>511.0</ele><time>2026-04-08T16:23:03.932Z</time></trkpt><trkpt lat="42.4345945" lon="12.9117429"><ele>511.0</ele><time>2026-04-08T16:23:04.932Z</time></trkpt><trkpt lat="42.4345168" lon="12.9118278"><ele>511.0</ele><time>2026-04-08T16:23:05.93Z</time></trkpt><trkpt lat="42.4344469" lon="12.9119093"><ele>511.0</ele><time>2026-04-08T16:23:06.931Z</time></trkpt><trkpt lat="42.4343834" lon="12.9119864"><ele>510.6666666666667</ele><time>2026-04-08T16:23:07.93Z</time></trkpt><trkpt lat="42.434324" lon="12.9120617"><ele>510.33333333333337</ele><time>2026-04-08T16:23:08.931Z</time></trkpt><trkpt lat="42.4342686" lon="12.9121341"><ele>510.0</ele><time>2026-04-08T16:23:09.931Z</time></trkpt><trkpt lat="42.4342132" lon="12.912214"><ele>509.66666666666663</ele><time>2026-04-08T16:23:10.931Z</time></trkpt><trkpt lat="42.4341598" lon="12.9123075"><ele>509.3333333333333</ele><time>2026-04-08T16:23:11.932Z</time></trkpt><trkpt lat="42.4341055" lon="12.9124242"><ele>509.0</ele><time>2026-04-08T16:23:12.929Z</time></trkpt><trkpt lat="42.4340564" lon="12.9125573"><ele>508.75</ele><time>2026-04-08T16:23:13.929Z</time></trkpt><trkpt lat="42.4340151" lon="12.9127007"><ele>508.5</ele><time>2026-04-08T16:23:14.931Z</time></trkpt><trkpt lat="42.4339733" lon="12.9128478"><ele>508.25</ele><time>2026-04-08T16:23:15.935Z</time></trkpt><trkpt lat="42.4339272" lon="12.9129999"><ele>508.0</ele><time>2026-04-08T16:23:16.93Z</time></trkpt><trkpt lat="42.4338774" lon="12.9131621"><ele>508.0</ele><time>2026-04-08T16:23:17.941Z</time></trkpt><trkpt lat="42.4338322" lon="12.9133275"><ele>508.0</ele><time>2026-04-08T16:23:18.931Z</time></trkpt><trkpt lat="42.4337846" lon="12.9134948"><ele>508.0</ele><time>2026-04-08T16:23:19.931Z</time></trkpt><trkpt lat="42.4337291" lon="12.9136776"><ele>508.0</ele><time>2026-04-08T16:23:20.932Z</time></trkpt><trkpt lat="42.4336729" lon="12.9138581"><ele>506.6666666666667</ele><time>2026-04-08T16:23:21.931Z</time></trkpt><trkpt lat="42.4336169" lon="12.9140505"><ele>505.33333333333337</ele><time>2026-04-08T16:23:22.93Z</time></trkpt><trkpt lat="42.4335601" lon="12.9142482"><ele>504.0</ele><time>2026-04-08T16:23:23.932Z</time></trkpt><trkpt lat="42.433503" lon="12.9144476"><ele>504.0</ele><time>2026-04-08T16:23:24.93Z</time></trkpt><trkpt lat="42.4334421" lon="12.9146481"><ele>504.0</ele><time>2026-04-08T16:23:25.933Z</time></trkpt><trkpt lat="42.4333793" lon="12.914859"><ele>504.0</ele><time>2026-04-08T16:23:26.931Z</time></trkpt><trkpt lat="42.4333138" lon="12.9150773"><ele>504.0</ele><time>2026-04-08T16:23:27.931Z</time></trkpt><trkpt lat="42.4332346" lon="12.9153517"><ele>504.0</ele><time>2026-04-08T16:23:28.931Z</time></trkpt><trkpt lat="42.4331571" lon="12.9156282"><ele>504.0</ele><time>2026-04-08T16:23:29.931Z</time></trkpt><trkpt lat="42.4330807" lon="12.9159078"><ele>504.0</ele><time>2026-04-08T16:23:30.932Z</time></trkpt><trkpt lat="42.4330176" lon="12.9161315"><ele>504.0</ele><time>2026-04-08T16:23:31.931Z</time></trkpt><trkpt lat="42.4329472" lon="12.9163857"><ele>504.0</ele><time>2026-04-08T16:23:32.931Z</time></trkpt><trkpt lat="42.4328727" lon="12.9166413"><ele>503.0</ele><time>2026-04-08T16:23:33.933Z</time></trkpt><trkpt lat="42.4327938" lon="12.9168872"><ele>502.0</ele><time>2026-04-08T16:23:34.931Z</time></trkpt><trkpt lat="42.4327089" lon="12.9171172"><ele>501.0</ele><time>2026-04-08T16:23:35.931Z</time></trkpt><trkpt lat="42.4326038" lon="12.9173463"><ele>501.0</ele><time>2026-04-08T16:23:36.931Z</time></trkpt><trkpt lat="42.4324838" lon="12.9175474"><ele>501.0</ele><time>2026-04-08T16:23:37.932Z</time></trkpt><trkpt lat="42.4323475" lon="12.9177235"><ele>501.0</ele><time>2026-04-08T16:23:38.933Z</time></trkpt><trkpt lat="42.4321939" lon="12.9178697"><ele>500.0</ele><time>2026-04-08T16:23:39.931Z</time></trkpt><trkpt lat="42.432024" lon="12.9179981"><ele>499.0</ele><time>2026-04-08T16:23:40.931Z</time></trkpt><trkpt lat="42.4318401" lon="12.9181178"><ele>498.0</ele><time>2026-04-08T16:23:41.93Z</time></trkpt><trkpt lat="42.431647" lon="12.9182352"><ele>498.0</ele><time>2026-04-08T16:23:42.931Z</time></trkpt><trkpt lat="42.4314467" lon="12.9183561"><ele>498.0</ele><time>2026-04-08T16:23:43.93Z</time></trkpt><trkpt lat="42.4312319" lon="12.9184885"><ele>499.5</ele><time>2026-04-08T16:23:44.93Z</time></trkpt><trkpt lat="42.4310169" lon="12.9186243"><ele>501.0</ele><time>2026-04-08T16:23:45.933Z</time></trkpt><trkpt lat="42.4308243" lon="12.9187532"><ele>501.0</ele><time>2026-04-08T16:23:46.93Z</time></trkpt><trkpt lat="42.4306267" lon="12.9188754"><ele>501.0</ele><time>2026-04-08T16:23:47.933Z</time></trkpt><trkpt lat="42.4304313" lon="12.9189831"><ele>501.0</ele><time>2026-04-08T16:23:48.929Z</time></trkpt><trkpt lat="42.4302391" lon="12.9190855"><ele>500.0</ele><time>2026-04-08T16:23:49.93Z</time></trkpt><trkpt lat="42.4300468" lon="12.919182"><ele>499.0</ele><time>2026-04-08T16:23:50.931Z</time></trkpt><trkpt lat="42.4299245" lon="12.9192264"><ele>498.0</ele><time>2026-04-08T16:23:51.929Z</time></trkpt><trkpt lat="42.4297233" lon="12.9193329"><ele>497.5</ele><time>2026-04-08T16:23:52.93Z</time></trkpt><trkpt lat="42.4295116" lon="12.9194437"><ele>497.0</ele><time>2026-04-08T16:23:53.93Z</time></trkpt><trkpt lat="42.4293011" lon="12.9195537"><ele>497.0</ele><time>2026-04-08T16:23:54.93Z</time></trkpt><trkpt lat="42.4290868" lon="12.9196642"><ele>497.0</ele><time>2026-04-08T16:23:55.931Z</time></trkpt><trkpt lat="42.4288676" lon="12.9197724"><ele>496.0</ele><time>2026-04-08T16:23:56.93Z</time></trkpt><trkpt lat="42.4286483" lon="12.9198856"><ele>495.0</ele><time>2026-04-08T16:23:57.929Z</time></trkpt><trkpt lat="42.4284266" lon="12.9199995"><ele>495.0</ele><time>2026-04-08T16:23:58.93Z</time></trkpt><trkpt lat="42.4282067" lon="12.9201113"><ele>495.0</ele><time>2026-04-08T16:23:59.93Z</time></trkpt><trkpt lat="42.4279909" lon="12.9202262"><ele>493.0</ele><time>2026-04-08T16:24:00.93Z</time></trkpt><trkpt lat="42.4277756" lon="12.9203384"><ele>491.0</ele><time>2026-04-08T16:24:01.931Z</time></trkpt><trkpt lat="42.4275594" lon="12.9204505"><ele>491.0</ele><time>2026-04-08T16:24:02.929Z</time></trkpt><trkpt lat="42.4273454" lon="12.9205612"><ele>491.0</ele><time>2026-04-08T16:24:03.932Z</time></trkpt><trkpt lat="42.427131" lon="12.9206671"><ele>491.0</ele><time>2026-04-08T16:24:04.932Z</time></trkpt><trkpt lat="42.4269219" lon="12.9207755"><ele>491.0</ele><time>2026-04-08T16:24:05.931Z</time></trkpt><trkpt lat="42.4267121" lon="12.9208834"><ele>491.0</ele><time>2026-04-08T16:24:06.931Z</time></trkpt><trkpt lat="42.4265079" lon="12.9209869"><ele>491.0</ele><time>2026-04-08T16:24:07.931Z</time></trkpt><trkpt lat="42.4263115" lon="12.9210849"><ele>491.0</ele><time>2026-04-08T16:24:08.93Z</time></trkpt><trkpt lat="42.4261405" lon="12.9211455"><ele>491.0</ele><time>2026-04-08T16:24:09.932Z</time></trkpt><trkpt lat="42.4259611" lon="12.9212372"><ele>489.3333333333333</ele><time>2026-04-08T16:24:10.93Z</time></trkpt><trkpt lat="42.4257703" lon="12.9213457"><ele>487.66666666666663</ele><time>2026-04-08T16:24:11.931Z</time></trkpt><trkpt lat="42.4256013" lon="12.9214293"><ele>486.0</ele><time>2026-04-08T16:24:12.93Z</time></trkpt><trkpt lat="42.4254299" lon="12.9215221"><ele>486.0</ele><time>2026-04-08T16:24:13.931Z</time></trkpt><trkpt lat="42.4252599" lon="12.9216224"><ele>486.0</ele><time>2026-04-08T16:24:14.934Z</time></trkpt><trkpt lat="42.425095" lon="12.921738"><ele>486.0</ele><time>2026-04-08T16:24:15.934Z</time></trkpt><trkpt lat="42.4249271" lon="12.9218651"><ele>486.33333333333337</ele><time>2026-04-08T16:24:16.94Z</time></trkpt><trkpt lat="42.4247757" lon="12.9219772"><ele>486.6666666666667</ele><time>2026-04-08T16:24:17.935Z</time></trkpt><trkpt lat="42.4246432" lon="12.9220753"><ele>487.0</ele><time>2026-04-08T16:24:18.931Z</time></trkpt><trkpt lat="42.4245218" lon="12.9221616"><ele>487.0</ele><time>2026-04-08T16:24:19.933Z</time></trkpt><trkpt lat="42.424404" lon="12.922247"><ele>487.0</ele><time>2026-04-08T16:24:20.93Z</time></trkpt><trkpt lat="42.4242774" lon="12.922331"><ele>487.0</ele><time>2026-04-08T16:24:21.93Z</time></trkpt><trkpt lat="42.4240933" lon="12.9224456"><ele>487.0</ele><time>2026-04-08T16:24:22.931Z</time></trkpt><trkpt lat="42.4239519" lon="12.9225088"><ele>487.0</ele><time>2026-04-08T16:24:23.93Z</time></trkpt><trkpt lat="42.423791" lon="12.9225399"><ele>487.0</ele><time>2026-04-08T16:24:24.931Z</time></trkpt><trkpt lat="42.4236162" lon="12.9225509"><ele>486.0</ele><time>2026-04-08T16:24:25.93Z</time></trkpt><trkpt lat="42.4234333" lon="12.9225432"><ele>485.0</ele><time>2026-04-08T16:24:26.931Z</time></trkpt><trkpt lat="42.423228" lon="12.9225271"><ele>484.0</ele><time>2026-04-08T16:24:27.931Z</time></trkpt><trkpt lat="42.4230161" lon="12.9225132"><ele>482.5</ele><time>2026-04-08T16:24:28.93Z</time></trkpt><trkpt lat="42.4227823" lon="12.9224989"><ele>481.0</ele><time>2026-04-08T16:24:29.931Z</time></trkpt><trkpt lat="42.4225372" lon="12.9224831"><ele>481.0</ele><time>2026-04-08T16:24:30.931Z</time></trkpt><trkpt lat="42.4222992" lon="12.9224623"><ele>481.0</ele><time>2026-04-08T16:24:31.933Z</time></trkpt><trkpt lat="42.4220461" lon="12.922438"><ele>479.5</ele><time>2026-04-08T16:24:32.93Z</time></trkpt><trkpt lat="42.4218008" lon="12.9224118"><ele>478.0</ele><time>2026-04-08T16:24:33.933Z</time></trkpt><trkpt lat="42.4215642" lon="12.9223823"><ele>478.0</ele><time>2026-04-08T16:24:34.931Z</time></trkpt><trkpt lat="42.4213505" lon="12.9223712"><ele>478.0</ele><time>2026-04-08T16:24:35.929Z</time></trkpt><trkpt lat="42.4211203" lon="12.9223456"><ele>478.0</ele><time>2026-04-08T16:24:36.931Z</time></trkpt><trkpt lat="42.4208943" lon="12.92232"><ele>477.33333333333337</ele><time>2026-04-08T16:24:37.93Z</time></trkpt><trkpt lat="42.420673" lon="12.9222951"><ele>476.66666666666663</ele><time>2026-04-08T16:24:38.946Z</time></trkpt><trkpt lat="42.4204541" lon="12.9222722"><ele>476.0</ele><time>2026-04-08T16:24:39.933Z</time></trkpt><trkpt lat="42.420223" lon="12.9222453"><ele>475.0</ele><time>2026-04-08T16:24:40.932Z</time></trkpt><trkpt lat="42.4199967" lon="12.9222197"><ele>474.0</ele><time>2026-04-08T16:24:41.936Z</time></trkpt><trkpt lat="42.4197729" lon="12.9221939"><ele>473.5</ele><time>2026-04-08T16:24:42.932Z</time></trkpt><trkpt lat="42.4195354" lon="12.922174"><ele>473.0</ele><time>2026-04-08T16:24:43.931Z</time></trkpt><trkpt lat="42.4192933" lon="12.9221553"><ele>473.0</ele><time>2026-04-08T16:24:44.935Z</time></trkpt><trkpt lat="42.4190551" lon="12.9221282"><ele>473.0</ele><time>2026-04-08T16:24:45.932Z</time></trkpt><trkpt lat="42.418822" lon="12.9220976"><ele>472.5</ele><time>2026-04-08T16:24:46.93Z</time></trkpt><trkpt lat="42.418583" lon="12.922071"><ele>472.0</ele><time>2026-04-08T16:24:47.932Z</time></trkpt><trkpt lat="42.418344" lon="12.9220468"><ele>472.0</ele><time>2026-04-08T16:24:48.931Z</time></trkpt><trkpt lat="42.4181071" lon="12.922025"><ele>472.0</ele><time>2026-04-08T16:24:49.931Z</time></trkpt><trkpt lat="42.4178758" lon="12.9220005"><ele>472.5</ele><time>2026-04-08T16:24:50.932Z</time></trkpt><trkpt lat="42.4176392" lon="12.9219767"><ele>473.0</ele><time>2026-04-08T16:24:51.932Z</time></trkpt><trkpt lat="42.4171727" lon="12.9219239"><ele>473.5</ele><time>2026-04-08T16:24:53.931Z</time></trkpt><trkpt lat="42.4169439" lon="12.9218993"><ele>474.0</ele><time>2026-04-08T16:24:54.929Z</time></trkpt><trkpt lat="42.4167063" lon="12.9218735"><ele>474.0</ele><time>2026-04-08T16:24:55.934Z</time></trkpt><trkpt lat="42.4164702" lon="12.921849"><ele>474.0</ele><time>2026-04-08T16:24:56.93Z</time></trkpt><trkpt lat="42.4162359" lon="12.9218233"><ele>473.0</ele><time>2026-04-08T16:24:57.931Z</time></trkpt><trkpt lat="42.4160039" lon="12.9217992"><ele>472.0</ele><time>2026-04-08T16:24:58.93Z</time></trkpt><trkpt lat="42.4157687" lon="12.9217793"><ele>472.0</ele><time>2026-04-08T16:24:59.93Z</time></trkpt><trkpt lat="42.4155358" lon="12.9217584"><ele>472.0</ele><time>2026-04-08T16:25:00.931Z</time></trkpt><trkpt lat="42.4153037" lon="12.9217361"><ele>469.5</ele><time>2026-04-08T16:25:01.931Z</time></trkpt><trkpt lat="42.4150729" lon="12.9217104"><ele>467.0</ele><time>2026-04-08T16:25:02.93Z</time></trkpt><trkpt lat="42.414844" lon="12.9216855"><ele>466.5</ele><time>2026-04-08T16:25:03.932Z</time></trkpt><trkpt lat="42.4146134" lon="12.9216607"><ele>466.0</ele><time>2026-04-08T16:25:04.936Z</time></trkpt><trkpt lat="42.4143838" lon="12.921638"><ele>466.0</ele><time>2026-04-08T16:25:05.929Z</time></trkpt><trkpt lat="42.4141552" lon="12.9216151"><ele>466.0</ele><time>2026-04-08T16:25:06.929Z</time></trkpt><trkpt lat="42.4139271" lon="12.9215932"><ele>466.0</ele><time>2026-04-08T16:25:07.93Z</time></trkpt><trkpt lat="42.4137019" lon="12.9215702"><ele>466.0</ele><time>2026-04-08T16:25:08.93Z</time></trkpt><trkpt lat="42.4134771" lon="12.9215474"><ele>466.0</ele><time>2026-04-08T16:25:09.93Z</time></trkpt><trkpt lat="42.4132532" lon="12.9215236"><ele>466.0</ele><time>2026-04-08T16:25:10.932Z</time></trkpt><trkpt lat="42.4130335" lon="12.921497"><ele>466.0</ele><time>2026-04-08T16:25:11.931Z</time></trkpt><trkpt lat="42.4128131" lon="12.921466"><ele>466.33333333333337</ele><time>2026-04-08T16:25:12.93Z</time></trkpt><trkpt lat="42.4125996" lon="12.9214343"><ele>466.66666666666663</ele><time>2026-04-08T16:25:13.931Z</time></trkpt><trkpt lat="42.412388" lon="12.9214027"><ele>467.0</ele><time>2026-04-08T16:25:14.931Z</time></trkpt><trkpt lat="42.4121794" lon="12.9213733"><ele>467.66666666666663</ele><time>2026-04-08T16:25:15.931Z</time></trkpt><trkpt lat="42.4119743" lon="12.9213429"><ele>468.33333333333337</ele><time>2026-04-08T16:25:16.931Z</time></trkpt><trkpt lat="42.4117718" lon="12.9213114"><ele>469.0</ele><time>2026-04-08T16:25:17.931Z</time></trkpt><trkpt lat="42.4115699" lon="12.9212809"><ele>469.0</ele><time>2026-04-08T16:25:18.93Z</time></trkpt><trkpt lat="42.4113749" lon="12.9212487"><ele>469.0</ele><time>2026-04-08T16:25:19.935Z</time></trkpt><trkpt lat="42.4111693" lon="12.9212167"><ele>469.0</ele><time>2026-04-08T16:25:20.93Z</time></trkpt><trkpt lat="42.4109754" lon="12.9211868"><ele>469.6666666666667</ele><time>2026-04-08T16:25:21.93Z</time></trkpt><trkpt lat="42.4107919" lon="12.9211603"><ele>470.33333333333337</ele><time>2026-04-08T16:25:22.931Z</time></trkpt><trkpt lat="42.4106154" lon="12.9211316"><ele>471.0</ele><time>2026-04-08T16:25:23.929Z</time></trkpt><trkpt lat="42.4104515" lon="12.9211036"><ele>471.0</ele><time>2026-04-08T16:25:24.929Z</time></trkpt><trkpt lat="42.4102974" lon="12.9210754"><ele>471.0</ele><time>2026-04-08T16:25:25.931Z</time></trkpt><trkpt lat="42.4101555" lon="12.921051"><ele>471.0</ele><time>2026-04-08T16:25:26.928Z</time></trkpt><trkpt lat="42.4100297" lon="12.921032"><ele>471.0</ele><time>2026-04-08T16:25:27.928Z</time></trkpt><trkpt lat="42.4099019" lon="12.9210148"><ele>471.0</ele><time>2026-04-08T16:25:28.929Z</time></trkpt><trkpt lat="42.4097846" lon="12.9209988"><ele>471.0</ele><time>2026-04-08T16:25:29.93Z</time></trkpt><trkpt lat="42.4096662" lon="12.9209847"><ele>471.0</ele><time>2026-04-08T16:25:30.93Z</time></trkpt><trkpt lat="42.4095422" lon="12.9209712"><ele>471.0</ele><time>2026-04-08T16:25:31.93Z</time></trkpt><trkpt lat="42.4094319" lon="12.9209532"><ele>471.25</ele><time>2026-04-08T16:25:32.932Z</time></trkpt><trkpt lat="42.4093187" lon="12.9209315"><ele>471.5</ele><time>2026-04-08T16:25:33.93Z</time></trkpt><trkpt lat="42.4092089" lon="12.9209101"><ele>471.75</ele><time>2026-04-08T16:25:34.93Z</time></trkpt><trkpt lat="42.4090913" lon="12.9208832"><ele>472.0</ele><time>2026-04-08T16:25:35.929Z</time></trkpt><trkpt lat="42.4089787" lon="12.9208601"><ele>471.6666666666667</ele><time>2026-04-08T16:25:36.929Z</time></trkpt><trkpt lat="42.4088817" lon="12.9208465"><ele>471.33333333333337</ele><time>2026-04-08T16:25:37.929Z</time></trkpt><trkpt lat="42.4087907" lon="12.920835"><ele>471.0</ele><time>2026-04-08T16:25:38.93Z</time></trkpt><trkpt lat="42.4087171" lon="12.9208249"><ele>470.66666666666663</ele><time>2026-04-08T16:25:39.933Z</time></trkpt><trkpt lat="42.4086109" lon="12.9208081"><ele>470.3333333333333</ele><time>2026-04-08T16:25:41.93Z</time></trkpt><trkpt lat="42.4085451" lon="12.9208134"><ele>470.0</ele><time>2026-04-08T16:25:43.928Z</time></trkpt><trkpt lat="42.4084632" lon="12.9209404"><ele>470.8</ele><time>2026-04-08T16:25:45.93Z</time></trkpt><trkpt lat="42.408417" lon="12.9210637"><ele>471.6</ele><time>2026-04-08T16:25:46.932Z</time></trkpt><trkpt lat="42.4083701" lon="12.9211905"><ele>472.4</ele><time>2026-04-08T16:25:47.932Z</time></trkpt><trkpt lat="42.4083234" lon="12.9213194"><ele>473.2</ele><time>2026-04-08T16:25:48.932Z</time></trkpt><trkpt lat="42.408275" lon="12.9214434"><ele>474.0</ele><time>2026-04-08T16:25:49.931Z</time></trkpt><trkpt lat="42.408224" lon="12.921561"><ele>474.0</ele><time>2026-04-08T16:25:50.93Z</time></trkpt><trkpt lat="42.4081731" lon="12.9216735"><ele>474.0</ele><time>2026-04-08T16:25:51.931Z</time></trkpt><trkpt lat="42.4081166" lon="12.9217898"><ele>474.0</ele><time>2026-04-08T16:25:52.931Z</time></trkpt><trkpt lat="42.4080597" lon="12.9219003"><ele>474.0</ele><time>2026-04-08T16:25:53.929Z</time></trkpt><trkpt lat="42.4080013" lon="12.9220078"><ele>474.0</ele><time>2026-04-08T16:25:54.93Z</time></trkpt><trkpt lat="42.4079444" lon="12.9221081"><ele>474.0</ele><time>2026-04-08T16:25:55.933Z</time></trkpt><trkpt lat="42.4078856" lon="12.9222083"><ele>474.0</ele><time>2026-04-08T16:25:56.931Z</time></trkpt><trkpt lat="42.4078207" lon="12.922317"><ele>474.0</ele><time>2026-04-08T16:25:57.93Z</time></trkpt><trkpt lat="42.407748" lon="12.9224418"><ele>474.0</ele><time>2026-04-08T16:25:58.931Z</time></trkpt><trkpt lat="42.4076596" lon="12.9225803"><ele>474.33333333333337</ele><time>2026-04-08T16:25:59.931Z</time></trkpt><trkpt lat="42.4075553" lon="12.9227211"><ele>474.6666666666667</ele><time>2026-04-08T16:26:00.932Z</time></trkpt><trkpt lat="42.4074467" lon="12.9228637"><ele>475.0</ele><time>2026-04-08T16:26:01.929Z</time></trkpt><trkpt lat="42.4073255" lon="12.9230036"><ele>475.0</ele><time>2026-04-08T16:26:02.93Z</time></trkpt><trkpt lat="42.4072007" lon="12.9231391"><ele>475.0</ele><time>2026-04-08T16:26:03.931Z</time></trkpt><trkpt lat="42.4070716" lon="12.9232697"><ele>475.0</ele><time>2026-04-08T16:26:04.931Z</time></trkpt><trkpt lat="42.4069387" lon="12.9233959"><ele>475.6666666666667</ele><time>2026-04-08T16:26:05.931Z</time></trkpt><trkpt lat="42.4068012" lon="12.9235157"><ele>476.33333333333337</ele><time>2026-04-08T16:26:06.929Z</time></trkpt><trkpt lat="42.4066629" lon="12.9236239"><ele>477.0</ele><time>2026-04-08T16:26:07.931Z</time></trkpt><trkpt lat="42.4065127" lon="12.923732"><ele>477.0</ele><time>2026-04-08T16:26:08.931Z</time></trkpt><trkpt lat="42.4063641" lon="12.9238235"><ele>477.0</ele><time>2026-04-08T16:26:09.931Z</time></trkpt><trkpt lat="42.4062163" lon="12.9238942"><ele>477.0</ele><time>2026-04-08T16:26:10.933Z</time></trkpt><trkpt lat="42.4060825" lon="12.9239395"><ele>476.25</ele><time>2026-04-08T16:26:11.932Z</time></trkpt><trkpt lat="42.4059529" lon="12.9239652"><ele>475.5</ele><time>2026-04-08T16:26:12.931Z</time></trkpt><trkpt lat="42.4058241" lon="12.9239718"><ele>474.75</ele><time>2026-04-08T16:26:13.931Z</time></trkpt><trkpt lat="42.4056949" lon="12.9239656"><ele>474.0</ele><time>2026-04-08T16:26:14.931Z</time></trkpt><trkpt lat="42.4055693" lon="12.9239556"><ele>473.25</ele><time>2026-04-08T16:26:15.932Z</time></trkpt><trkpt lat="42.4054339" lon="12.9239417"><ele>472.5</ele><time>2026-04-08T16:26:16.93Z</time></trkpt><trkpt lat="42.4053036" lon="12.9239257"><ele>471.75</ele><time>2026-04-08T16:26:17.932Z</time></trkpt><trkpt lat="42.4051718" lon="12.9239058"><ele>471.0</ele><time>2026-04-08T16:26:18.93Z</time></trkpt><trkpt lat="42.4050427" lon="12.9238847"><ele>471.0</ele><time>2026-04-08T16:26:19.931Z</time></trkpt><trkpt lat="42.4049159" lon="12.9238645"><ele>471.0</ele><time>2026-04-08T16:26:20.93Z</time></trkpt><trkpt lat="42.4047916" lon="12.9238427"><ele>471.0</ele><time>2026-04-08T16:26:21.931Z</time></trkpt><trkpt lat="42.4046698" lon="12.9238182"><ele>471.0</ele><time>2026-04-08T16:26:22.931Z</time></trkpt><trkpt lat="42.4045532" lon="12.9237944"><ele>470.5</ele><time>2026-04-08T16:26:23.928Z</time></trkpt><trkpt lat="42.4044266" lon="12.9237688"><ele>470.0</ele><time>2026-04-08T16:26:24.929Z</time></trkpt><trkpt lat="42.4043026" lon="12.9237452"><ele>469.5</ele><time>2026-04-08T16:26:25.929Z</time></trkpt><trkpt lat="42.4041773" lon="12.9237218"><ele>469.0</ele><time>2026-04-08T16:26:26.93Z</time></trkpt><trkpt lat="42.40405" lon="12.9236955"><ele>469.0</ele><time>2026-04-08T16:26:27.931Z</time></trkpt><trkpt lat="42.4039195" lon="12.9236679"><ele>469.0</ele><time>2026-04-08T16:26:28.928Z</time></trkpt><trkpt lat="42.4037858" lon="12.9236411"><ele>469.0</ele><time>2026-04-08T16:26:29.937Z</time></trkpt><trkpt lat="42.4036482" lon="12.9236146"><ele>469.0</ele><time>2026-04-08T16:26:30.93Z</time></trkpt><trkpt lat="42.403511" lon="12.9235897"><ele>469.0</ele><time>2026-04-08T16:26:31.931Z</time></trkpt><trkpt lat="42.4033615" lon="12.9235628"><ele>469.0</ele><time>2026-04-08T16:26:32.931Z</time></trkpt><trkpt lat="42.4032139" lon="12.9235368"><ele>469.0</ele><time>2026-04-08T16:26:33.934Z</time></trkpt><trkpt lat="42.403063" lon="12.9235097"><ele>468.6666666666667</ele><time>2026-04-08T16:26:34.928Z</time></trkpt><trkpt lat="42.4029091" lon="12.9234824"><ele>468.33333333333337</ele><time>2026-04-08T16:26:35.929Z</time></trkpt><trkpt lat="42.4027536" lon="12.9234534"><ele>468.0</ele><time>2026-04-08T16:26:36.931Z</time></trkpt><trkpt lat="42.4025935" lon="12.9234219"><ele>467.33333333333337</ele><time>2026-04-08T16:26:37.939Z</time></trkpt><trkpt lat="42.4024296" lon="12.9233883"><ele>466.6666666666667</ele><time>2026-04-08T16:26:38.933Z</time></trkpt><trkpt lat="42.4022687" lon="12.9233575"><ele>466.0</ele><time>2026-04-08T16:26:39.932Z</time></trkpt><trkpt lat="42.4020931" lon="12.9233235"><ele>465.33333333333337</ele><time>2026-04-08T16:26:40.93Z</time></trkpt><trkpt lat="42.4019197" lon="12.9232911"><ele>464.66666666666663</ele><time>2026-04-08T16:26:41.932Z</time></trkpt><trkpt lat="42.4017436" lon="12.92326"><ele>464.0</ele><time>2026-04-08T16:26:42.932Z</time></trkpt><trkpt lat="42.4015649" lon="12.9232269"><ele>464.0</ele><time>2026-04-08T16:26:43.93Z</time></trkpt><trkpt lat="42.4013852" lon="12.9231923"><ele>464.0</ele><time>2026-04-08T16:26:44.932Z</time></trkpt><trkpt lat="42.4012025" lon="12.9231556"><ele>464.0</ele><time>2026-04-08T16:26:45.931Z</time></trkpt><trkpt lat="42.4010169" lon="12.9231194"><ele>464.0</ele><time>2026-04-08T16:26:46.932Z</time></trkpt><trkpt lat="42.4008353" lon="12.9230858"><ele>464.0</ele><time>2026-04-08T16:26:47.931Z</time></trkpt><trkpt lat="42.4006392" lon="12.9230514"><ele>464.0</ele><time>2026-04-08T16:26:48.929Z</time></trkpt><trkpt lat="42.4004461" lon="12.9230164"><ele>464.0</ele><time>2026-04-08T16:26:49.93Z</time></trkpt><trkpt lat="42.4002528" lon="12.922979"><ele>464.0</ele><time>2026-04-08T16:26:50.927Z</time></trkpt><trkpt lat="42.4000568" lon="12.922942"><ele>464.0</ele><time>2026-04-08T16:26:51.93Z</time></trkpt><trkpt lat="42.3998602" lon="12.9229054"><ele>463.66666666666663</ele><time>2026-04-08T16:26:52.929Z</time></trkpt><trkpt lat="42.3996642" lon="12.9228685"><ele>463.33333333333337</ele><time>2026-04-08T16:26:53.931Z</time></trkpt><trkpt lat="42.3994644" lon="12.9228313"><ele>463.0</ele><time>2026-04-08T16:26:54.929Z</time></trkpt><trkpt lat="42.3992692" lon="12.9227961"><ele>463.0</ele><time>2026-04-08T16:26:55.931Z</time></trkpt><trkpt lat="42.3990583" lon="12.9227584"><ele>463.0</ele><time>2026-04-08T16:26:56.93Z</time></trkpt><trkpt lat="42.398854" lon="12.9227215"><ele>463.0</ele><time>2026-04-08T16:26:57.938Z</time></trkpt><trkpt lat="42.3986482" lon="12.922683"><ele>463.33333333333337</ele><time>2026-04-08T16:26:58.93Z</time></trkpt><trkpt lat="42.3984418" lon="12.9226445"><ele>463.66666666666663</ele><time>2026-04-08T16:26:59.93Z</time></trkpt><trkpt lat="42.398233" lon="12.9226062"><ele>464.0</ele><time>2026-04-08T16:27:00.931Z</time></trkpt><trkpt lat="42.3980224" lon="12.9225685"><ele>460.3333333333333</ele><time>2026-04-08T16:27:01.929Z</time></trkpt><trkpt lat="42.3978115" lon="12.9225301"><ele>456.66666666666663</ele><time>2026-04-08T16:27:02.931Z</time></trkpt><trkpt lat="42.3975969" lon="12.9224921"><ele>453.0</ele><time>2026-04-08T16:27:03.93Z</time></trkpt><trkpt lat="42.3973806" lon="12.9224534"><ele>454.0</ele><time>2026-04-08T16:27:04.932Z</time></trkpt><trkpt lat="42.3971622" lon="12.9224146"><ele>455.0</ele><time>2026-04-08T16:27:05.929Z</time></trkpt><trkpt lat="42.3969422" lon="12.922375"><ele>456.0</ele><time>2026-04-08T16:27:06.929Z</time></trkpt><trkpt lat="42.3967203" lon="12.9223353"><ele>456.0</ele><time>2026-04-08T16:27:07.935Z</time></trkpt><trkpt lat="42.396497" lon="12.9222947"><ele>456.0</ele><time>2026-04-08T16:27:08.93Z</time></trkpt><trkpt lat="42.3962733" lon="12.922253"><ele>456.0</ele><time>2026-04-08T16:27:09.931Z</time></trkpt><trkpt lat="42.3960533" lon="12.9222109"><ele>456.0</ele><time>2026-04-08T16:27:10.93Z</time></trkpt><trkpt lat="42.3958393" lon="12.9221725"><ele>456.0</ele><time>2026-04-08T16:27:11.931Z</time></trkpt><trkpt lat="42.395624" lon="12.9221341"><ele>453.33333333333337</ele><time>2026-04-08T16:27:12.93Z</time></trkpt><trkpt lat="42.3954233" lon="12.9221044"><ele>450.6666666666667</ele><time>2026-04-08T16:27:13.93Z</time></trkpt><trkpt lat="42.3952321" lon="12.9220858"><ele>448.0</ele><time>2026-04-08T16:27:14.931Z</time></trkpt><trkpt lat="42.395052" lon="12.9220801"><ele>448.0</ele><time>2026-04-08T16:27:15.931Z</time></trkpt><trkpt lat="42.3948824" lon="12.9220933"><ele>448.0</ele><time>2026-04-08T16:27:16.929Z</time></trkpt><trkpt lat="42.3947271" lon="12.9221282"><ele>448.0</ele><time>2026-04-08T16:27:17.934Z</time></trkpt><trkpt lat="42.3945897" lon="12.9221906"><ele>444.75</ele><time>2026-04-08T16:27:18.939Z</time></trkpt><trkpt lat="42.3944773" lon="12.9222862"><ele>441.5</ele><time>2026-04-08T16:27:19.931Z</time></trkpt><trkpt lat="42.3943844" lon="12.9224275"><ele>438.25</ele><time>2026-04-08T16:27:20.929Z</time></trkpt><trkpt lat="42.3943226" lon="12.9225971"><ele>435.0</ele><time>2026-04-08T16:27:21.93Z</time></trkpt><trkpt lat="42.3942836" lon="12.922793"><ele>434.33333333333337</ele><time>2026-04-08T16:27:22.928Z</time></trkpt><trkpt lat="42.3942557" lon="12.9230026"><ele>433.6666666666667</ele><time>2026-04-08T16:27:23.928Z</time></trkpt><trkpt lat="42.3942327" lon="12.9232103"><ele>433.0</ele><time>2026-04-08T16:27:24.929Z</time></trkpt><trkpt lat="42.3942209" lon="12.9234084"><ele>431.75</ele><time>2026-04-08T16:27:25.929Z</time></trkpt><trkpt lat="42.3942254" lon="12.9235908"><ele>430.5</ele><time>2026-04-08T16:27:26.929Z</time></trkpt><trkpt lat="42.3942488" lon="12.9237553"><ele>429.25</ele><time>2026-04-08T16:27:27.928Z</time></trkpt><trkpt lat="42.3942854" lon="12.9239313"><ele>428.0</ele><time>2026-04-08T16:27:28.936Z</time></trkpt><trkpt lat="42.3943253" lon="12.9241112"><ele>427.59999999999997</ele><time>2026-04-08T16:27:29.929Z</time></trkpt><trkpt lat="42.394365" lon="12.9242806"><ele>427.19999999999993</ele><time>2026-04-08T16:27:30.932Z</time></trkpt><trkpt lat="42.3944033" lon="12.9244357"><ele>426.8</ele><time>2026-04-08T16:27:31.929Z</time></trkpt><trkpt lat="42.3944342" lon="12.9245684"><ele>426.4</ele><time>2026-04-08T16:27:32.933Z</time></trkpt><trkpt lat="42.3944557" lon="12.9246915"><ele>426.0</ele><time>2026-04-08T16:27:33.93Z</time></trkpt><trkpt lat="42.3944676" lon="12.9248139"><ele>426.0</ele><time>2026-04-08T16:27:34.929Z</time></trkpt><trkpt lat="42.3944658" lon="12.9249406"><ele>426.0</ele><time>2026-04-08T16:27:35.93Z</time></trkpt><trkpt lat="42.3944445" lon="12.9250842"><ele>426.0</ele><time>2026-04-08T16:27:36.929Z</time></trkpt><trkpt lat="42.3944042" lon="12.9252269"><ele>426.0</ele><time>2026-04-08T16:27:37.932Z</time></trkpt><trkpt lat="42.3943522" lon="12.9253467"><ele>426.0</ele><time>2026-04-08T16:27:38.93Z</time></trkpt><trkpt lat="42.3942786" lon="12.9254482"><ele>426.4</ele><time>2026-04-08T16:27:39.93Z</time></trkpt><trkpt lat="42.3941859" lon="12.925523"><ele>426.8</ele><time>2026-04-08T16:27:40.931Z</time></trkpt><trkpt lat="42.3940775" lon="12.9255729"><ele>427.19999999999993</ele><time>2026-04-08T16:27:41.932Z</time></trkpt><trkpt lat="42.3939792" lon="12.9256175"><ele>427.59999999999997</ele><time>2026-04-08T16:27:42.93Z</time></trkpt><trkpt lat="42.3938767" lon="12.9256566"><ele>428.0</ele><time>2026-04-08T16:27:43.931Z</time></trkpt><trkpt lat="42.3937694" lon="12.9256748"><ele>424.99999999999994</ele><time>2026-04-08T16:27:44.931Z</time></trkpt><trkpt lat="42.3936776" lon="12.9256595"><ele>422.0</ele><time>2026-04-08T16:27:45.928Z</time></trkpt><trkpt lat="42.3936012" lon="12.9256111"><ele>419.0</ele><time>2026-04-08T16:27:46.929Z</time></trkpt><trkpt lat="42.3935446" lon="12.9255324"><ele>416.0</ele><time>2026-04-08T16:27:47.929Z</time></trkpt><trkpt lat="42.3935174" lon="12.9254346"><ele>412.99999999999994</ele><time>2026-04-08T16:27:48.93Z</time></trkpt><trkpt lat="42.3935242" lon="12.9253315"><ele>410.0</ele><time>2026-04-08T16:27:49.93Z</time></trkpt><trkpt lat="42.3935608" lon="12.9252398"><ele>409.99999999999994</ele><time>2026-04-08T16:27:50.929Z</time></trkpt><trkpt lat="42.3936199" lon="12.9251728"><ele>410.0</ele><time>2026-04-08T16:27:51.932Z</time></trkpt><trkpt lat="42.3936983" lon="12.9251436"><ele>410.0</ele><time>2026-04-08T16:27:52.929Z</time></trkpt><trkpt lat="42.3937742" lon="12.9251678"><ele>410.0</ele><time>2026-04-08T16:27:53.93Z</time></trkpt><trkpt lat="42.393842" lon="12.9252403"><ele>409.99999999999994</ele><time>2026-04-08T16:27:54.93Z</time></trkpt><trkpt lat="42.393893" lon="12.9253574"><ele>410.0</ele><time>2026-04-08T16:27:55.929Z</time></trkpt><trkpt lat="42.3939414" lon="12.9255173"><ele>412.66666666666663</ele><time>2026-04-08T16:27:56.93Z</time></trkpt><trkpt lat="42.3939953" lon="12.9257183"><ele>415.33333333333337</ele><time>2026-04-08T16:27:57.929Z</time></trkpt><trkpt lat="42.3940555" lon="12.9259466"><ele>418.0</ele><time>2026-04-08T16:27:58.929Z</time></trkpt><trkpt lat="42.3941128" lon="12.9261807"><ele>418.0</ele><time>2026-04-08T16:27:59.931Z</time></trkpt><trkpt lat="42.3941913" lon="12.9264619"><ele>418.0</ele><time>2026-04-08T16:28:00.932Z</time></trkpt><trkpt lat="42.3942677" lon="12.9267329"><ele>418.0</ele><time>2026-04-08T16:28:01.929Z</time></trkpt><trkpt lat="42.3943546" lon="12.927024"><ele>414.0</ele><time>2026-04-08T16:28:02.93Z</time></trkpt><trkpt lat="42.3944457" lon="12.9273211"><ele>410.0</ele><time>2026-04-08T16:28:03.943Z</time></trkpt><trkpt lat="42.3945393" lon="12.9276236"><ele>408.0</ele><time>2026-04-08T16:28:04.941Z</time></trkpt><trkpt lat="42.3946312" lon="12.9279269"><ele>406.0</ele><time>2026-04-08T16:28:05.929Z</time></trkpt><trkpt lat="42.3947218" lon="12.928226"><ele>412.0</ele><time>2026-04-08T16:28:06.929Z</time></trkpt><trkpt lat="42.3948058" lon="12.9285147"><ele>418.0</ele><time>2026-04-08T16:28:07.938Z</time></trkpt><trkpt lat="42.394888" lon="12.9288146"><ele>418.0</ele><time>2026-04-08T16:28:08.93Z</time></trkpt><trkpt lat="42.3949586" lon="12.9290995"><ele>418.0</ele><time>2026-04-08T16:28:09.934Z</time></trkpt><trkpt lat="42.3950155" lon="12.9293835"><ele>418.0</ele><time>2026-04-08T16:28:10.93Z</time></trkpt><trkpt lat="42.395054" lon="12.9296682"><ele>417.6666666666667</ele><time>2026-04-08T16:28:11.929Z</time></trkpt><trkpt lat="42.3950743" lon="12.9299562"><ele>417.33333333333337</ele><time>2026-04-08T16:28:12.93Z</time></trkpt><trkpt lat="42.3950759" lon="12.9302407"><ele>417.0</ele><time>2026-04-08T16:28:13.927Z</time></trkpt><trkpt lat="42.3950598" lon="12.9305059"><ele>417.0</ele><time>2026-04-08T16:28:14.93Z</time></trkpt><trkpt lat="42.3950245" lon="12.9307698"><ele>417.0</ele><time>2026-04-08T16:28:15.93Z</time></trkpt><trkpt lat="42.3949756" lon="12.9310208"><ele>417.0</ele><time>2026-04-08T16:28:16.93Z</time></trkpt><trkpt lat="42.3949166" lon="12.9312698"><ele>418.0</ele><time>2026-04-08T16:28:17.927Z</time></trkpt><trkpt lat="42.3948479" lon="12.9315168"><ele>419.0</ele><time>2026-04-08T16:28:18.931Z</time></trkpt><trkpt lat="42.3947639" lon="12.9317568"><ele>420.0</ele><time>2026-04-08T16:28:19.931Z</time></trkpt><trkpt lat="42.3946644" lon="12.9319828"><ele>419.0</ele><time>2026-04-08T16:28:20.932Z</time></trkpt><trkpt lat="42.3945569" lon="12.9321994"><ele>418.0</ele><time>2026-04-08T16:28:21.931Z</time></trkpt><trkpt lat="42.3944509" lon="12.9324073"><ele>417.0</ele><time>2026-04-08T16:28:22.931Z</time></trkpt><trkpt lat="42.3943507" lon="12.9326116"><ele>417.0</ele><time>2026-04-08T16:28:23.932Z</time></trkpt><trkpt lat="42.3942557" lon="12.93283"><ele>417.0</ele><time>2026-04-08T16:28:24.931Z</time></trkpt><trkpt lat="42.3941731" lon="12.933052"><ele>417.0</ele><time>2026-04-08T16:28:25.93Z</time></trkpt><trkpt lat="42.3941003" lon="12.9332939"><ele>420.0</ele><time>2026-04-08T16:28:26.932Z</time></trkpt><trkpt lat="42.3940377" lon="12.9335595"><ele>423.0</ele><time>2026-04-08T16:28:27.939Z</time></trkpt><trkpt lat="42.3939838" lon="12.9338457"><ele>426.0</ele><time>2026-04-08T16:28:28.93Z</time></trkpt><trkpt lat="42.3939322" lon="12.9341392"><ele>428.33333333333337</ele><time>2026-04-08T16:28:29.929Z</time></trkpt><trkpt lat="42.3938746" lon="12.9344329"><ele>430.6666666666667</ele><time>2026-04-08T16:28:30.93Z</time></trkpt><trkpt lat="42.393815" lon="12.9347167"><ele>433.0</ele><time>2026-04-08T16:28:31.93Z</time></trkpt><trkpt lat="42.3937428" lon="12.9350139"><ele>426.0</ele><time>2026-04-08T16:28:32.931Z</time></trkpt><trkpt lat="42.3936657" lon="12.9352939"><ele>419.0</ele><time>2026-04-08T16:28:33.931Z</time></trkpt><trkpt lat="42.3935845" lon="12.9355776"><ele>412.0</ele><time>2026-04-08T16:28:34.93Z</time></trkpt><trkpt lat="42.3935046" lon="12.9358648"><ele>414.5</ele><time>2026-04-08T16:28:35.931Z</time></trkpt><trkpt lat="42.393431" lon="12.9361571"><ele>417.0</ele><time>2026-04-08T16:28:36.93Z</time></trkpt><trkpt lat="42.3933684" lon="12.9364612"><ele>419.0</ele><time>2026-04-08T16:28:37.93Z</time></trkpt><trkpt lat="42.3933174" lon="12.9367734"><ele>421.0</ele><time>2026-04-08T16:28:38.93Z</time></trkpt><trkpt lat="42.3932775" lon="12.9370731"><ele>421.0</ele><time>2026-04-08T16:28:39.933Z</time></trkpt><trkpt lat="42.3932393" lon="12.9373876"><ele>421.0</ele><time>2026-04-08T16:28:40.932Z</time></trkpt><trkpt lat="42.3931953" lon="12.9376866"><ele>421.6666666666667</ele><time>2026-04-08T16:28:41.93Z</time></trkpt><trkpt lat="42.3931372" lon="12.9379752"><ele>422.33333333333337</ele><time>2026-04-08T16:28:42.929Z</time></trkpt><trkpt lat="42.3930651" lon="12.938264"><ele>423.0</ele><time>2026-04-08T16:28:43.933Z</time></trkpt><trkpt lat="42.392984" lon="12.9385512"><ele>416.0</ele><time>2026-04-08T16:28:44.932Z</time></trkpt><trkpt lat="42.392895" lon="12.9388375"><ele>409.0</ele><time>2026-04-08T16:28:45.931Z</time></trkpt><trkpt lat="42.3928009" lon="12.9391242"><ele>413.5</ele><time>2026-04-08T16:28:46.932Z</time></trkpt><trkpt lat="42.3927087" lon="12.939403"><ele>418.0</ele><time>2026-04-08T16:28:47.929Z</time></trkpt><trkpt lat="42.392609" lon="12.9397022"><ele>418.0</ele><time>2026-04-08T16:28:48.93Z</time></trkpt><trkpt lat="42.3925126" lon="12.9399935"><ele>418.0</ele><time>2026-04-08T16:28:49.932Z</time></trkpt><trkpt lat="42.3924192" lon="12.9402773"><ele>428.0</ele><time>2026-04-08T16:28:50.929Z</time></trkpt><trkpt lat="42.3923141" lon="12.9405721"><ele>438.0</ele><time>2026-04-08T16:28:51.931Z</time></trkpt><trkpt lat="42.3921993" lon="12.9408503"><ele>430.0</ele><time>2026-04-08T16:28:52.931Z</time></trkpt><trkpt lat="42.3920682" lon="12.9411117"><ele>422.0</ele><time>2026-04-08T16:28:53.93Z</time></trkpt><trkpt lat="42.3919199" lon="12.9413534"><ele>422.0</ele><time>2026-04-08T16:28:54.93Z</time></trkpt><trkpt lat="42.3917634" lon="12.9415698"><ele>422.0</ele><time>2026-04-08T16:28:55.936Z</time></trkpt><trkpt lat="42.3915929" lon="12.9417784"><ele>422.66666666666663</ele><time>2026-04-08T16:28:56.931Z</time></trkpt><trkpt lat="42.391424" lon="12.9419529"><ele>423.33333333333337</ele><time>2026-04-08T16:28:57.932Z</time></trkpt><trkpt lat="42.3912561" lon="12.9420965"><ele>424.0</ele><time>2026-04-08T16:28:58.928Z</time></trkpt><trkpt lat="42.3910701" lon="12.9422238"><ele>424.0</ele><time>2026-04-08T16:28:59.93Z</time></trkpt><trkpt lat="42.3908837" lon="12.9423306"><ele>424.0</ele><time>2026-04-08T16:29:00.931Z</time></trkpt><trkpt lat="42.3906772" lon="12.9424345"><ele>424.0</ele><time>2026-04-08T16:29:01.931Z</time></trkpt><trkpt lat="42.3904617" lon="12.9425357"><ele>426.5</ele><time>2026-04-08T16:29:02.931Z</time></trkpt><trkpt lat="42.3902448" lon="12.9426325"><ele>429.0</ele><time>2026-04-08T16:29:03.932Z</time></trkpt><trkpt lat="42.3900083" lon="12.9427369"><ele>429.0</ele><time>2026-04-08T16:29:04.931Z</time></trkpt><trkpt lat="42.3897768" lon="12.9428438"><ele>429.0</ele><time>2026-04-08T16:29:05.932Z</time></trkpt><trkpt lat="42.3895446" lon="12.9429504"><ele>422.0</ele><time>2026-04-08T16:29:06.931Z</time></trkpt><trkpt lat="42.3893082" lon="12.9430496"><ele>415.0</ele><time>2026-04-08T16:29:07.931Z</time></trkpt><trkpt lat="42.38907" lon="12.9431307"><ele>412.0</ele><time>2026-04-08T16:29:08.932Z</time></trkpt><trkpt lat="42.3888216" lon="12.943203"><ele>409.0</ele><time>2026-04-08T16:29:09.931Z</time></trkpt><trkpt lat="42.3885689" lon="12.9432664"><ele>409.0</ele><time>2026-04-08T16:29:10.928Z</time></trkpt><trkpt lat="42.3883218" lon="12.9433231"><ele>409.0</ele><time>2026-04-08T16:29:11.931Z</time></trkpt><trkpt lat="42.3880561" lon="12.9433807"><ele>413.0</ele><time>2026-04-08T16:29:12.93Z</time></trkpt><trkpt lat="42.387798" lon="12.9434346"><ele>417.0</ele><time>2026-04-08T16:29:13.93Z</time></trkpt><trkpt lat="42.3875411" lon="12.943488"><ele>417.0</ele><time>2026-04-08T16:29:14.929Z</time></trkpt><trkpt lat="42.387285" lon="12.9435468"><ele>417.0</ele><time>2026-04-08T16:29:15.93Z</time></trkpt><trkpt lat="42.3870325" lon="12.9436125"><ele>421.5</ele><time>2026-04-08T16:29:16.93Z</time></trkpt><trkpt lat="42.3867887" lon="12.9436939"><ele>426.0</ele><time>2026-04-08T16:29:17.93Z</time></trkpt><trkpt lat="42.3865499" lon="12.9437998"><ele>418.5</ele><time>2026-04-08T16:29:18.931Z</time></trkpt><trkpt lat="42.3863259" lon="12.9439216"><ele>411.0</ele><time>2026-04-08T16:29:19.93Z</time></trkpt><trkpt lat="42.3860939" lon="12.9440708"><ele>422.0</ele><time>2026-04-08T16:29:20.931Z</time></trkpt><trkpt lat="42.3858736" lon="12.9442327"><ele>433.0</ele><time>2026-04-08T16:29:21.93Z</time></trkpt><trkpt lat="42.3856605" lon="12.9444094"><ele>421.5</ele><time>2026-04-08T16:29:22.931Z</time></trkpt><trkpt lat="42.3854533" lon="12.9445985"><ele>410.0</ele><time>2026-04-08T16:29:23.929Z</time></trkpt><trkpt lat="42.3852545" lon="12.9448001"><ele>410.0</ele><time>2026-04-08T16:29:24.932Z</time></trkpt><trkpt lat="42.385061" lon="12.9450143"><ele>410.0</ele><time>2026-04-08T16:29:25.931Z</time></trkpt><trkpt lat="42.3848801" lon="12.9452492"><ele>409.0</ele><time>2026-04-08T16:29:26.932Z</time></trkpt><trkpt lat="42.3847215" lon="12.9454898"><ele>408.0</ele><time>2026-04-08T16:29:27.931Z</time></trkpt><trkpt lat="42.3845657" lon="12.9457614"><ele>412.5</ele><time>2026-04-08T16:29:28.93Z</time></trkpt><trkpt lat="42.3844207" lon="12.9460369"><ele>417.0</ele><time>2026-04-08T16:29:29.931Z</time></trkpt><trkpt lat="42.384276" lon="12.9463195"><ele>417.0</ele><time>2026-04-08T16:29:30.929Z</time></trkpt><trkpt lat="42.3841329" lon="12.9466029"><ele>417.0</ele><time>2026-04-08T16:29:31.932Z</time></trkpt><trkpt lat="42.3839915" lon="12.9468919"><ele>421.5</ele><time>2026-04-08T16:29:32.93Z</time></trkpt><trkpt lat="42.3838476" lon="12.9471843"><ele>426.0</ele><time>2026-04-08T16:29:33.931Z</time></trkpt><trkpt lat="42.3837041" lon="12.9474746"><ele>419.5</ele><time>2026-04-08T16:29:34.933Z</time></trkpt><trkpt lat="42.3835595" lon="12.947768"><ele>413.0</ele><time>2026-04-08T16:29:35.931Z</time></trkpt><trkpt lat="42.3834137" lon="12.948065"><ele>413.0</ele><time>2026-04-08T16:29:36.931Z</time></trkpt><trkpt lat="42.3832681" lon="12.9483584"><ele>413.0</ele><time>2026-04-08T16:29:37.932Z</time></trkpt><trkpt lat="42.3831217" lon="12.9486545"><ele>413.5</ele><time>2026-04-08T16:29:38.931Z</time></trkpt><trkpt lat="42.3829754" lon="12.9489541"><ele>414.0</ele><time>2026-04-08T16:29:39.933Z</time></trkpt><trkpt lat="42.3828291" lon="12.9492544"><ele>414.0</ele><time>2026-04-08T16:29:40.932Z</time></trkpt><trkpt lat="42.3826815" lon="12.9495557"><ele>414.0</ele><time>2026-04-08T16:29:41.932Z</time></trkpt><trkpt lat="42.3825377" lon="12.9498454"><ele>423.0</ele><time>2026-04-08T16:29:42.931Z</time></trkpt><trkpt lat="42.3823862" lon="12.9501515"><ele>432.0</ele><time>2026-04-08T16:29:43.94Z</time></trkpt><trkpt lat="42.3822385" lon="12.9504536"><ele>425.0</ele><time>2026-04-08T16:29:44.931Z</time></trkpt><trkpt lat="42.3820895" lon="12.9507574"><ele>418.0</ele><time>2026-04-08T16:29:45.928Z</time></trkpt><trkpt lat="42.3819401" lon="12.9510595"><ele>418.0</ele><time>2026-04-08T16:29:46.932Z</time></trkpt><trkpt lat="42.3817883" lon="12.9513618"><ele>418.0</ele><time>2026-04-08T16:29:47.93Z</time></trkpt><trkpt lat="42.381636" lon="12.9516662"><ele>413.0</ele><time>2026-04-08T16:29:48.929Z</time></trkpt><trkpt lat="42.3814862" lon="12.9519742"><ele>408.0</ele><time>2026-04-08T16:29:49.932Z</time></trkpt><trkpt lat="42.3813382" lon="12.9522781"><ele>412.5</ele><time>2026-04-08T16:29:50.931Z</time></trkpt><trkpt lat="42.3811959" lon="12.952575"><ele>417.0</ele><time>2026-04-08T16:29:51.93Z</time></trkpt><trkpt lat="42.381044" lon="12.9528842"><ele>417.0</ele><time>2026-04-08T16:29:52.931Z</time></trkpt><trkpt lat="42.3809031" lon="12.9531812"><ele>417.0</ele><time>2026-04-08T16:29:53.932Z</time></trkpt><trkpt lat="42.3807754" lon="12.9534766"><ele>422.5</ele><time>2026-04-08T16:29:54.931Z</time></trkpt><trkpt lat="42.3806672" lon="12.9537721"><ele>428.0</ele><time>2026-04-08T16:29:55.931Z</time></trkpt><trkpt lat="42.3805667" lon="12.9540717"><ele>418.0</ele><time>2026-04-08T16:29:56.931Z</time></trkpt><trkpt lat="42.380496" lon="12.9543922"><ele>408.0</ele><time>2026-04-08T16:29:57.929Z</time></trkpt><trkpt lat="42.3804376" lon="12.9547189"><ele>409.0</ele><time>2026-04-08T16:29:58.927Z</time></trkpt><trkpt lat="42.3804003" lon="12.9550607"><ele>410.0</ele><time>2026-04-08T16:29:59.928Z</time></trkpt><trkpt lat="42.3803667" lon="12.9554095"><ele>410.0</ele><time>2026-04-08T16:30:00.929Z</time></trkpt><trkpt lat="42.3803358" lon="12.9557596"><ele>410.0</ele><time>2026-04-08T16:30:01.929Z</time></trkpt><trkpt lat="42.3803085" lon="12.9561027"><ele>410.0</ele><time>2026-04-08T16:30:02.928Z</time></trkpt><trkpt lat="42.3802878" lon="12.9564412"><ele>410.0</ele><time>2026-04-08T16:30:03.93Z</time></trkpt><trkpt lat="42.3802858" lon="12.9567708"><ele>410.0</ele><time>2026-04-08T16:30:04.929Z</time></trkpt><trkpt lat="42.3803128" lon="12.9571012"><ele>410.0</ele><time>2026-04-08T16:30:05.93Z</time></trkpt><trkpt lat="42.3803652" lon="12.9574324"><ele>409.0</ele><time>2026-04-08T16:30:06.927Z</time></trkpt><trkpt lat="42.3804388" lon="12.9577647"><ele>408.0</ele><time>2026-04-08T16:30:07.929Z</time></trkpt><trkpt lat="42.3805278" lon="12.9580974"><ele>417.0</ele><time>2026-04-08T16:30:08.929Z</time></trkpt><trkpt lat="42.3806297" lon="12.9584325"><ele>426.0</ele><time>2026-04-08T16:30:09.928Z</time></trkpt><trkpt lat="42.380739" lon="12.9587697"><ele>426.0</ele><time>2026-04-08T16:30:10.929Z</time></trkpt><trkpt lat="42.3808499" lon="12.9591169"><ele>426.0</ele><time>2026-04-08T16:30:11.93Z</time></trkpt><trkpt lat="42.3809618" lon="12.9594701"><ele>420.0</ele><time>2026-04-08T16:30:12.929Z</time></trkpt><trkpt lat="42.3810723" lon="12.9598138"><ele>414.0</ele><time>2026-04-08T16:30:13.93Z</time></trkpt><trkpt lat="42.3811763" lon="12.9601383"><ele>411.5</ele><time>2026-04-08T16:30:14.931Z</time></trkpt><trkpt lat="42.3812782" lon="12.9604475"><ele>409.0</ele><time>2026-04-08T16:30:15.931Z</time></trkpt><trkpt lat="42.3813641" lon="12.9607356"><ele>416.0</ele><time>2026-04-08T16:30:16.932Z</time></trkpt><trkpt lat="42.3814366" lon="12.9610213"><ele>423.0</ele><time>2026-04-08T16:30:17.93Z</time></trkpt><trkpt lat="42.3814899" lon="12.9613064"><ele>430.0</ele><time>2026-04-08T16:30:18.93Z</time></trkpt><trkpt lat="42.3815228" lon="12.9616032"><ele>432.0</ele><time>2026-04-08T16:30:19.929Z</time></trkpt><trkpt lat="42.3815352" lon="12.9618994"><ele>434.0</ele><time>2026-04-08T16:30:20.929Z</time></trkpt><trkpt lat="42.381522" lon="12.9622043"><ele>436.0</ele><time>2026-04-08T16:30:21.931Z</time></trkpt><trkpt lat="42.3815042" lon="12.9625114"><ele>438.5</ele><time>2026-04-08T16:30:22.929Z</time></trkpt><trkpt lat="42.3814255" lon="12.9628103"><ele>441.0</ele><time>2026-04-08T16:30:23.93Z</time></trkpt><trkpt lat="42.3813339" lon="12.9631104"><ele>430.0</ele><time>2026-04-08T16:30:24.93Z</time></trkpt><trkpt lat="42.38123" lon="12.9634027"><ele>419.0</ele><time>2026-04-08T16:30:25.93Z</time></trkpt><trkpt lat="42.381125" lon="12.9636925"><ele>419.0</ele><time>2026-04-08T16:30:26.928Z</time></trkpt><trkpt lat="42.3810179" lon="12.9639781"><ele>419.0</ele><time>2026-04-08T16:30:27.93Z</time></trkpt><trkpt lat="42.3809178" lon="12.9642618"><ele>422.3333333333333</ele><time>2026-04-08T16:30:28.929Z</time></trkpt><trkpt lat="42.3808189" lon="12.9645383"><ele>425.66666666666663</ele><time>2026-04-08T16:30:29.93Z</time></trkpt><trkpt lat="42.3807239" lon="12.9648049"><ele>429.0</ele><time>2026-04-08T16:30:30.93Z</time></trkpt><trkpt lat="42.3806286" lon="12.9650699"><ele>427.66666666666663</ele><time>2026-04-08T16:30:31.931Z</time></trkpt><trkpt lat="42.3805317" lon="12.9653338"><ele>426.3333333333333</ele><time>2026-04-08T16:30:32.929Z</time></trkpt><trkpt lat="42.3804333" lon="12.9655979"><ele>425.0</ele><time>2026-04-08T16:30:33.929Z</time></trkpt><trkpt lat="42.3803317" lon="12.9658724"><ele>425.0</ele><time>2026-04-08T16:30:34.93Z</time></trkpt><trkpt lat="42.3802298" lon="12.9661558"><ele>425.0</ele><time>2026-04-08T16:30:35.93Z</time></trkpt><trkpt lat="42.3801273" lon="12.9664427"><ele>430.5</ele><time>2026-04-08T16:30:36.931Z</time></trkpt><trkpt lat="42.3800321" lon="12.9667321"><ele>436.0</ele><time>2026-04-08T16:30:37.929Z</time></trkpt><trkpt lat="42.379932" lon="12.9670108"><ele>436.0</ele><time>2026-04-08T16:30:38.93Z</time></trkpt><trkpt lat="42.3798313" lon="12.967279"><ele>436.0</ele><time>2026-04-08T16:30:39.93Z</time></trkpt><trkpt lat="42.3797284" lon="12.9675497"><ele>436.0</ele><time>2026-04-08T16:30:40.93Z</time></trkpt><trkpt lat="42.3796269" lon="12.9678205"><ele>434.0</ele><time>2026-04-08T16:30:41.93Z</time></trkpt><trkpt lat="42.3795254" lon="12.9681009"><ele>432.0</ele><time>2026-04-08T16:30:42.93Z</time></trkpt><trkpt lat="42.3794216" lon="12.9683836"><ele>432.0</ele><time>2026-04-08T16:30:43.929Z</time></trkpt><trkpt lat="42.3793182" lon="12.9686721"><ele>432.0</ele><time>2026-04-08T16:30:44.93Z</time></trkpt><trkpt lat="42.3792171" lon="12.9689544"><ele>434.0</ele><time>2026-04-08T16:30:45.93Z</time></trkpt><trkpt lat="42.3791183" lon="12.9692419"><ele>436.0</ele><time>2026-04-08T16:30:46.93Z</time></trkpt><trkpt lat="42.3790156" lon="12.9695277"><ele>436.0</ele><time>2026-04-08T16:30:47.931Z</time></trkpt><trkpt lat="42.3789173" lon="12.9698073"><ele>436.0</ele><time>2026-04-08T16:30:48.929Z</time></trkpt><trkpt lat="42.3788189" lon="12.970077"><ele>434.33333333333337</ele><time>2026-04-08T16:30:49.935Z</time></trkpt><trkpt lat="42.3787207" lon="12.9703341"><ele>432.66666666666663</ele><time>2026-04-08T16:30:50.929Z</time></trkpt><trkpt lat="42.3786265" lon="12.9705892"><ele>431.0</ele><time>2026-04-08T16:30:51.931Z</time></trkpt><trkpt lat="42.3785273" lon="12.9708429"><ele>432.3333333333333</ele><time>2026-04-08T16:30:52.93Z</time></trkpt><trkpt lat="42.3784322" lon="12.9711012"><ele>433.66666666666663</ele><time>2026-04-08T16:30:53.93Z</time></trkpt><trkpt lat="42.3783406" lon="12.9713617"><ele>435.0</ele><time>2026-04-08T16:30:54.931Z</time></trkpt><trkpt lat="42.3782453" lon="12.9716196"><ele>434.66666666666663</ele><time>2026-04-08T16:30:55.931Z</time></trkpt><trkpt lat="42.3781521" lon="12.9718804"><ele>434.3333333333333</ele><time>2026-04-08T16:30:56.93Z</time></trkpt><trkpt lat="42.3780598" lon="12.9721423"><ele>434.0</ele><time>2026-04-08T16:30:57.931Z</time></trkpt><trkpt lat="42.3779639" lon="12.9724004"><ele>432.3333333333333</ele><time>2026-04-08T16:30:58.934Z</time></trkpt><trkpt lat="42.3778716" lon="12.9726599"><ele>430.66666666666663</ele><time>2026-04-08T16:30:59.929Z</time></trkpt><trkpt lat="42.377776" lon="12.9729231"><ele>429.0</ele><time>2026-04-08T16:31:00.931Z</time></trkpt><trkpt lat="42.3776827" lon="12.973183"><ele>430.0</ele><time>2026-04-08T16:31:01.929Z</time></trkpt><trkpt lat="42.3775883" lon="12.9734405"><ele>431.0</ele><time>2026-04-08T16:31:02.929Z</time></trkpt><trkpt lat="42.3774958" lon="12.973692"><ele>432.0</ele><time>2026-04-08T16:31:03.93Z</time></trkpt><trkpt lat="42.3774045" lon="12.9739437"><ele>431.66666666666663</ele><time>2026-04-08T16:31:04.93Z</time></trkpt><trkpt lat="42.3773144" lon="12.97419"><ele>431.3333333333333</ele><time>2026-04-08T16:31:05.93Z</time></trkpt><trkpt lat="42.3772216" lon="12.9744388"><ele>431.0</ele><time>2026-04-08T16:31:06.929Z</time></trkpt><trkpt lat="42.3771294" lon="12.9746862"><ele>431.0</ele><time>2026-04-08T16:31:07.932Z</time></trkpt><trkpt lat="42.37704" lon="12.9749367"><ele>431.0</ele><time>2026-04-08T16:31:08.932Z</time></trkpt><trkpt lat="42.3769496" lon="12.975188"><ele>431.0</ele><time>2026-04-08T16:31:09.929Z</time></trkpt><trkpt lat="42.3768579" lon="12.9754436"><ele>432.0</ele><time>2026-04-08T16:31:10.929Z</time></trkpt><trkpt lat="42.3767666" lon="12.9757041"><ele>433.0</ele><time>2026-04-08T16:31:11.931Z</time></trkpt><trkpt lat="42.3766754" lon="12.9759648"><ele>434.0</ele><time>2026-04-08T16:31:12.931Z</time></trkpt><trkpt lat="42.3765796" lon="12.9762251"><ele>433.66666666666663</ele><time>2026-04-08T16:31:13.931Z</time></trkpt><trkpt lat="42.3764851" lon="12.9764899"><ele>433.33333333333337</ele><time>2026-04-08T16:31:14.93Z</time></trkpt><trkpt lat="42.3763856" lon="12.9767568"><ele>433.0</ele><time>2026-04-08T16:31:15.93Z</time></trkpt><trkpt lat="42.3762848" lon="12.9770296"><ele>433.0</ele><time>2026-04-08T16:31:16.93Z</time></trkpt><trkpt lat="42.3761861" lon="12.9773028"><ele>433.0</ele><time>2026-04-08T16:31:17.931Z</time></trkpt><trkpt lat="42.3760864" lon="12.9775827"><ele>433.5</ele><time>2026-04-08T16:31:18.931Z</time></trkpt><trkpt lat="42.3759873" lon="12.9778632"><ele>434.0</ele><time>2026-04-08T16:31:19.932Z</time></trkpt><trkpt lat="42.3758862" lon="12.9781473"><ele>434.0</ele><time>2026-04-08T16:31:20.93Z</time></trkpt><trkpt lat="42.3757875" lon="12.9784309"><ele>434.0</ele><time>2026-04-08T16:31:21.93Z</time></trkpt><trkpt lat="42.3756871" lon="12.978713"><ele>434.0</ele><time>2026-04-08T16:31:22.93Z</time></trkpt><trkpt lat="42.3755858" lon="12.9789972"><ele>434.0</ele><time>2026-04-08T16:31:23.932Z</time></trkpt><trkpt lat="42.3754888" lon="12.979267"><ele>431.3333333333333</ele><time>2026-04-08T16:31:24.93Z</time></trkpt><trkpt lat="42.3753968" lon="12.9795261"><ele>428.66666666666663</ele><time>2026-04-08T16:31:25.931Z</time></trkpt><trkpt lat="42.3753112" lon="12.9797807"><ele>426.0</ele><time>2026-04-08T16:31:26.93Z</time></trkpt><trkpt lat="42.3752365" lon="12.9800338"><ele>426.0</ele><time>2026-04-08T16:31:27.928Z</time></trkpt><trkpt lat="42.3751731" lon="12.9803032"><ele>426.0</ele><time>2026-04-08T16:31:28.929Z</time></trkpt><trkpt lat="42.3751203" lon="12.9805854"><ele>426.0</ele><time>2026-04-08T16:31:29.93Z</time></trkpt><trkpt lat="42.3750797" lon="12.9808805"><ele>425.5</ele><time>2026-04-08T16:31:30.928Z</time></trkpt><trkpt lat="42.3750513" lon="12.9811889"><ele>425.0</ele><time>2026-04-08T16:31:31.927Z</time></trkpt><trkpt lat="42.3750405" lon="12.9815044"><ele>423.5</ele><time>2026-04-08T16:31:32.93Z</time></trkpt><trkpt lat="42.3750424" lon="12.9818297"><ele>422.0</ele><time>2026-04-08T16:31:33.93Z</time></trkpt><trkpt lat="42.3750476" lon="12.9821602"><ele>422.0</ele><time>2026-04-08T16:31:34.931Z</time></trkpt><trkpt lat="42.3750613" lon="12.9824929"><ele>422.0</ele><time>2026-04-08T16:31:35.929Z</time></trkpt><trkpt lat="42.3750694" lon="12.9828237"><ele>420.5</ele><time>2026-04-08T16:31:36.929Z</time></trkpt><trkpt lat="42.3750784" lon="12.9831457"><ele>419.0</ele><time>2026-04-08T16:31:37.931Z</time></trkpt><trkpt lat="42.3750869" lon="12.9834463"><ele>419.0</ele><time>2026-04-08T16:31:38.932Z</time></trkpt><trkpt lat="42.3750948" lon="12.9837187"><ele>419.0</ele><time>2026-04-08T16:31:39.93Z</time></trkpt><trkpt lat="42.3751076" lon="12.9839666"><ele>419.0</ele><time>2026-04-08T16:31:40.93Z</time></trkpt><trkpt lat="42.3751404" lon="12.9841999"><ele>417.3333333333333</ele><time>2026-04-08T16:31:41.928Z</time></trkpt><trkpt lat="42.3751939" lon="12.9844269"><ele>415.66666666666663</ele><time>2026-04-08T16:31:42.931Z</time></trkpt><trkpt lat="42.3752692" lon="12.9846529"><ele>414.0</ele><time>2026-04-08T16:31:43.931Z</time></trkpt><trkpt lat="42.3753493" lon="12.9848769"><ele>412.66666666666663</ele><time>2026-04-08T16:31:44.934Z</time></trkpt><trkpt lat="42.3754337" lon="12.9851104"><ele>411.3333333333333</ele><time>2026-04-08T16:31:45.93Z</time></trkpt><trkpt lat="42.3755224" lon="12.9853542"><ele>410.0</ele><time>2026-04-08T16:31:46.931Z</time></trkpt><trkpt lat="42.3756137" lon="12.9856042"><ele>412.3333333333333</ele><time>2026-04-08T16:31:47.93Z</time></trkpt><trkpt lat="42.37571" lon="12.9858491"><ele>414.66666666666663</ele><time>2026-04-08T16:31:48.93Z</time></trkpt><trkpt lat="42.3758074" lon="12.9861056"><ele>417.0</ele><time>2026-04-08T16:31:49.93Z</time></trkpt><trkpt lat="42.3759011" lon="12.9863622"><ele>417.0</ele><time>2026-04-08T16:31:50.93Z</time></trkpt><trkpt lat="42.3759911" lon="12.9866107"><ele>417.0</ele><time>2026-04-08T16:31:51.928Z</time></trkpt><trkpt lat="42.3760722" lon="12.9868543"><ele>417.0</ele><time>2026-04-08T16:31:52.93Z</time></trkpt><trkpt lat="42.3761499" lon="12.9871028"><ele>415.0</ele><time>2026-04-08T16:31:53.93Z</time></trkpt><trkpt lat="42.376218" lon="12.987358"><ele>413.0</ele><time>2026-04-08T16:31:54.929Z</time></trkpt><trkpt lat="42.3762784" lon="12.9876047"><ele>411.0</ele><time>2026-04-08T16:31:55.929Z</time></trkpt><trkpt lat="42.376337" lon="12.987854"><ele>416.0</ele><time>2026-04-08T16:31:56.927Z</time></trkpt><trkpt lat="42.3763967" lon="12.9880956"><ele>421.0</ele><time>2026-04-08T16:31:57.929Z</time></trkpt><trkpt lat="42.3764592" lon="12.9883266"><ele>426.0</ele><time>2026-04-08T16:31:58.93Z</time></trkpt><trkpt lat="42.3765166" lon="12.9885432"><ele>426.0</ele><time>2026-04-08T16:31:59.929Z</time></trkpt><trkpt lat="42.3765635" lon="12.9887655"><ele>426.0</ele><time>2026-04-08T16:32:00.928Z</time></trkpt><trkpt lat="42.3765695" lon="12.9889875"><ele>426.0</ele><time>2026-04-08T16:32:01.929Z</time></trkpt><trkpt lat="42.3765504" lon="12.9892294"><ele>426.0</ele><time>2026-04-08T16:32:02.929Z</time></trkpt><trkpt lat="42.3765058" lon="12.9894689"><ele>426.0</ele><time>2026-04-08T16:32:03.926Z</time></trkpt><trkpt lat="42.3764245" lon="12.9896973"><ele>426.0</ele><time>2026-04-08T16:32:04.926Z</time></trkpt><trkpt lat="42.37632" lon="12.9899236"><ele>422.0</ele><time>2026-04-08T16:32:05.927Z</time></trkpt><trkpt lat="42.3761917" lon="12.9901164"><ele>418.0</ele><time>2026-04-08T16:32:06.928Z</time></trkpt><trkpt lat="42.3760703" lon="12.9903257"><ele>414.0</ele><time>2026-04-08T16:32:07.929Z</time></trkpt><trkpt lat="42.3759623" lon="12.9905484"><ele>414.0</ele><time>2026-04-08T16:32:08.929Z</time></trkpt><trkpt lat="42.3758623" lon="12.9907738"><ele>414.0</ele><time>2026-04-08T16:32:09.931Z</time></trkpt><trkpt lat="42.375778" lon="12.9909905"><ele>414.0</ele><time>2026-04-08T16:32:10.931Z</time></trkpt><trkpt lat="42.3757044" lon="12.9912145"><ele>414.33333333333337</ele><time>2026-04-08T16:32:11.93Z</time></trkpt><trkpt lat="42.3756573" lon="12.9914538"><ele>414.6666666666667</ele><time>2026-04-08T16:32:12.928Z</time></trkpt><trkpt lat="42.3756296" lon="12.9916855"><ele>415.0</ele><time>2026-04-08T16:32:13.93Z</time></trkpt><trkpt lat="42.3756273" lon="12.9919413"><ele>415.0</ele><time>2026-04-08T16:32:14.929Z</time></trkpt><trkpt lat="42.3756502" lon="12.9921961"><ele>415.0</ele><time>2026-04-08T16:32:15.928Z</time></trkpt><trkpt lat="42.3757043" lon="12.9924467"><ele>415.0</ele><time>2026-04-08T16:32:16.929Z</time></trkpt><trkpt lat="42.3757751" lon="12.992694"><ele>414.6666666666667</ele><time>2026-04-08T16:32:17.931Z</time></trkpt><trkpt lat="42.3758443" lon="12.9929292"><ele>414.33333333333337</ele><time>2026-04-08T16:32:18.93Z</time></trkpt><trkpt lat="42.3759099" lon="12.9931548"><ele>414.0</ele><time>2026-04-08T16:32:19.931Z</time></trkpt><trkpt lat="42.3759755" lon="12.9933729"><ele>413.33333333333337</ele><time>2026-04-08T16:32:20.929Z</time></trkpt><trkpt lat="42.3760413" lon="12.9935789"><ele>412.6666666666667</ele><time>2026-04-08T16:32:21.929Z</time></trkpt><trkpt lat="42.3761062" lon="12.993782"><ele>412.0</ele><time>2026-04-08T16:32:22.93Z</time></trkpt><trkpt lat="42.3761714" lon="12.9939916"><ele>411.6666666666667</ele><time>2026-04-08T16:32:23.929Z</time></trkpt><trkpt lat="42.3762414" lon="12.9942012"><ele>411.33333333333337</ele><time>2026-04-08T16:32:24.929Z</time></trkpt><trkpt lat="42.376324" lon="12.9944058"><ele>411.0</ele><time>2026-04-08T16:32:25.928Z</time></trkpt><trkpt lat="42.376421" lon="12.9945999"><ele>412.66666666666663</ele><time>2026-04-08T16:32:26.931Z</time></trkpt><trkpt lat="42.3765259" lon="12.9947876"><ele>414.3333333333333</ele><time>2026-04-08T16:32:27.93Z</time></trkpt><trkpt lat="42.37663" lon="12.9949657"><ele>416.0</ele><time>2026-04-08T16:32:28.929Z</time></trkpt><trkpt lat="42.3767313" lon="12.9951313"><ele>416.0</ele><time>2026-04-08T16:32:29.928Z</time></trkpt><trkpt lat="42.3768262" lon="12.9952739"><ele>416.0</ele><time>2026-04-08T16:32:30.927Z</time></trkpt><trkpt lat="42.376903" lon="12.9954168"><ele>416.0</ele><time>2026-04-08T16:32:31.93Z</time></trkpt><trkpt lat="42.3769607" lon="12.9955632"><ele>416.0</ele><time>2026-04-08T16:32:32.927Z</time></trkpt><trkpt lat="42.3769974" lon="12.9957133"><ele>417.0</ele><time>2026-04-08T16:32:33.927Z</time></trkpt><trkpt lat="42.3770008" lon="12.995864"><ele>418.0</ele><time>2026-04-08T16:32:34.929Z</time></trkpt><trkpt lat="42.3769925" lon="12.9960164"><ele>419.0</ele><time>2026-04-08T16:32:35.93Z</time></trkpt><trkpt lat="42.3769153" lon="12.9961655"><ele>420.0</ele><time>2026-04-08T16:32:36.929Z</time></trkpt><trkpt lat="42.376855" lon="12.9963107"><ele>420.0</ele><time>2026-04-08T16:32:37.931Z</time></trkpt><trkpt lat="42.3767792" lon="12.9964702"><ele>420.0</ele><time>2026-04-08T16:32:38.928Z</time></trkpt><trkpt lat="42.3767091" lon="12.9966312"><ele>420.0</ele><time>2026-04-08T16:32:39.928Z</time></trkpt><trkpt lat="42.3766452" lon="12.9968085"><ele>420.0</ele><time>2026-04-08T16:32:40.93Z</time></trkpt><trkpt lat="42.3765924" lon="12.9969933"><ele>419.66666666666663</ele><time>2026-04-08T16:32:41.928Z</time></trkpt><trkpt lat="42.3765484" lon="12.9971934"><ele>419.3333333333333</ele><time>2026-04-08T16:32:42.936Z</time></trkpt><trkpt lat="42.3765244" lon="12.9974072"><ele>419.0</ele><time>2026-04-08T16:32:43.931Z</time></trkpt><trkpt lat="42.3765255" lon="12.9976246"><ele>417.0</ele><time>2026-04-08T16:32:44.928Z</time></trkpt><trkpt lat="42.3765361" lon="12.9978485"><ele>415.0</ele><time>2026-04-08T16:32:45.929Z</time></trkpt><trkpt lat="42.3765571" lon="12.998064"><ele>413.0</ele><time>2026-04-08T16:32:46.93Z</time></trkpt><trkpt lat="42.3765782" lon="12.9982636"><ele>413.5</ele><time>2026-04-08T16:32:47.929Z</time></trkpt><trkpt lat="42.3765993" lon="12.9984581"><ele>414.0</ele><time>2026-04-08T16:32:48.929Z</time></trkpt><trkpt lat="42.3766197" lon="12.9986511"><ele>414.5</ele><time>2026-04-08T16:32:49.929Z</time></trkpt><trkpt lat="42.3766368" lon="12.998851"><ele>415.0</ele><time>2026-04-08T16:32:50.931Z</time></trkpt><trkpt lat="42.3766577" lon="12.9990543"><ele>415.33333333333337</ele><time>2026-04-08T16:32:51.93Z</time></trkpt><trkpt lat="42.3766778" lon="12.9992594"><ele>415.66666666666663</ele><time>2026-04-08T16:32:52.931Z</time></trkpt><trkpt lat="42.3766991" lon="12.9994705"><ele>416.0</ele><time>2026-04-08T16:32:53.93Z</time></trkpt><trkpt lat="42.3767203" lon="12.9996804"><ele>416.0</ele><time>2026-04-08T16:32:54.93Z</time></trkpt><trkpt lat="42.3767397" lon="12.9998872"><ele>416.0</ele><time>2026-04-08T16:32:55.931Z</time></trkpt><trkpt lat="42.3767456" lon="13.0001034"><ele>416.0</ele><time>2026-04-08T16:32:56.932Z</time></trkpt><trkpt lat="42.3767542" lon="13.0003272"><ele>416.0</ele><time>2026-04-08T16:32:57.929Z</time></trkpt><trkpt lat="42.3767576" lon="13.0005533"><ele>416.0</ele><time>2026-04-08T16:32:58.93Z</time></trkpt><trkpt lat="42.3767538" lon="13.0007793"><ele>416.0</ele><time>2026-04-08T16:32:59.929Z</time></trkpt><trkpt lat="42.3767483" lon="13.0010059"><ele>416.0</ele><time>2026-04-08T16:33:00.929Z</time></trkpt><trkpt lat="42.3767445" lon="13.0012395"><ele>416.0</ele><time>2026-04-08T16:33:01.93Z</time></trkpt><trkpt lat="42.3767499" lon="13.0014684"><ele>416.0</ele><time>2026-04-08T16:33:02.928Z</time></trkpt><trkpt lat="42.3767687" lon="13.0016949"><ele>415.0</ele><time>2026-04-08T16:33:03.93Z</time></trkpt><trkpt lat="42.3768019" lon="13.0019103"><ele>414.0</ele><time>2026-04-08T16:33:04.929Z</time></trkpt><trkpt lat="42.3768503" lon="13.0021176"><ele>413.0</ele><time>2026-04-08T16:33:05.931Z</time></trkpt><trkpt lat="42.376921" lon="13.0023187"><ele>412.66666666666663</ele><time>2026-04-08T16:33:06.929Z</time></trkpt><trkpt lat="42.3770005" lon="13.0025145"><ele>412.33333333333337</ele><time>2026-04-08T16:33:07.929Z</time></trkpt><trkpt lat="42.3770875" lon="13.0027119"><ele>412.0</ele><time>2026-04-08T16:33:08.927Z</time></trkpt><trkpt lat="42.3771773" lon="13.0029172"><ele>414.33333333333337</ele><time>2026-04-08T16:33:09.929Z</time></trkpt><trkpt lat="42.3772706" lon="13.0031242"><ele>416.66666666666663</ele><time>2026-04-08T16:33:10.929Z</time></trkpt><trkpt lat="42.3773651" lon="13.0033298"><ele>419.0</ele><time>2026-04-08T16:33:11.929Z</time></trkpt><trkpt lat="42.3774601" lon="13.0035336"><ele>419.0</ele><time>2026-04-08T16:33:12.928Z</time></trkpt><trkpt lat="42.3775581" lon="13.0037494"><ele>419.0</ele><time>2026-04-08T16:33:13.926Z</time></trkpt><trkpt lat="42.3776575" lon="13.0039702"><ele>419.0</ele><time>2026-04-08T16:33:14.929Z</time></trkpt><trkpt lat="42.3777597" lon="13.0041942"><ele>417.66666666666663</ele><time>2026-04-08T16:33:15.931Z</time></trkpt><trkpt lat="42.3778575" lon="13.0044213"><ele>416.33333333333337</ele><time>2026-04-08T16:33:16.93Z</time></trkpt><trkpt lat="42.3779611" lon="13.0046469"><ele>415.0</ele><time>2026-04-08T16:33:17.93Z</time></trkpt><trkpt lat="42.3780646" lon="13.0048802"><ele>416.33333333333337</ele><time>2026-04-08T16:33:18.929Z</time></trkpt><trkpt lat="42.3781714" lon="13.0051093"><ele>417.66666666666663</ele><time>2026-04-08T16:33:19.927Z</time></trkpt><trkpt lat="42.3782777" lon="13.0053404"><ele>419.0</ele><time>2026-04-08T16:33:20.933Z</time></trkpt><trkpt lat="42.3783818" lon="13.0055696"><ele>419.0</ele><time>2026-04-08T16:33:21.93Z</time></trkpt><trkpt lat="42.378486" lon="13.0057977"><ele>419.0</ele><time>2026-04-08T16:33:22.93Z</time></trkpt><trkpt lat="42.378583" lon="13.0060202"><ele>419.0</ele><time>2026-04-08T16:33:23.931Z</time></trkpt><trkpt lat="42.3786767" lon="13.0062341"><ele>419.0</ele><time>2026-04-08T16:33:24.926Z</time></trkpt><trkpt lat="42.378763" lon="13.0064372"><ele>419.0</ele><time>2026-04-08T16:33:25.928Z</time></trkpt><trkpt lat="42.3788326" lon="13.0066412"><ele>419.0</ele><time>2026-04-08T16:33:26.93Z</time></trkpt><trkpt lat="42.3788746" lon="13.0068573"><ele>419.0</ele><time>2026-04-08T16:33:27.931Z</time></trkpt><trkpt lat="42.378888" lon="13.0070955"><ele>419.0</ele><time>2026-04-08T16:33:28.93Z</time></trkpt><trkpt lat="42.3788893" lon="13.0073481"><ele>419.0</ele><time>2026-04-08T16:33:29.926Z</time></trkpt><trkpt lat="42.3788889" lon="13.0075908"><ele>419.0</ele><time>2026-04-08T16:33:30.928Z</time></trkpt><trkpt lat="42.378888" lon="13.0078652"><ele>419.0</ele><time>2026-04-08T16:33:31.927Z</time></trkpt><trkpt lat="42.3788842" lon="13.0081318"><ele>419.0</ele><time>2026-04-08T16:33:32.929Z</time></trkpt><trkpt lat="42.3788858" lon="13.0086497"><ele>418.3333333333333</ele><time>2026-04-08T16:33:34.935Z</time></trkpt><trkpt lat="42.3788849" lon="13.0089104"><ele>417.66666666666663</ele><time>2026-04-08T16:33:35.928Z</time></trkpt><trkpt lat="42.3788825" lon="13.0091906"><ele>417.0</ele><time>2026-04-08T16:33:36.928Z</time></trkpt><trkpt lat="42.3788793" lon="13.0094759"><ele>416.66666666666663</ele><time>2026-04-08T16:33:37.929Z</time></trkpt><trkpt lat="42.3788803" lon="13.0097397"><ele>416.3333333333333</ele><time>2026-04-08T16:33:38.929Z</time></trkpt><trkpt lat="42.3788758" lon="13.0099887"><ele>416.0</ele><time>2026-04-08T16:33:39.929Z</time></trkpt><trkpt lat="42.3788739" lon="13.0102241"><ele>416.66666666666663</ele><time>2026-04-08T16:33:40.928Z</time></trkpt><trkpt lat="42.3788723" lon="13.010453"><ele>417.33333333333337</ele><time>2026-04-08T16:33:41.929Z</time></trkpt><trkpt lat="42.3788693" lon="13.0106867"><ele>418.0</ele><time>2026-04-08T16:33:42.93Z</time></trkpt><trkpt lat="42.3788682" lon="13.0109298"><ele>418.33333333333337</ele><time>2026-04-08T16:33:43.929Z</time></trkpt><trkpt lat="42.3788698" lon="13.0111748"><ele>418.66666666666663</ele><time>2026-04-08T16:33:44.934Z</time></trkpt><trkpt lat="42.3788668" lon="13.0114293"><ele>419.0</ele><time>2026-04-08T16:33:45.93Z</time></trkpt><trkpt lat="42.3788645" lon="13.0116875"><ele>418.3333333333333</ele><time>2026-04-08T16:33:46.93Z</time></trkpt><trkpt lat="42.3788624" lon="13.0119444"><ele>417.66666666666663</ele><time>2026-04-08T16:33:47.93Z</time></trkpt><trkpt lat="42.3788609" lon="13.0122048"><ele>417.0</ele><time>2026-04-08T16:33:48.928Z</time></trkpt><trkpt lat="42.3788582" lon="13.0124619"><ele>417.66666666666663</ele><time>2026-04-08T16:33:49.929Z</time></trkpt><trkpt lat="42.378856" lon="13.0127211"><ele>418.3333333333333</ele><time>2026-04-08T16:33:50.929Z</time></trkpt><trkpt lat="42.3788546" lon="13.0129771"><ele>419.0</ele><time>2026-04-08T16:33:51.928Z</time></trkpt><trkpt lat="42.3788525" lon="13.013231"><ele>418.66666666666663</ele><time>2026-04-08T16:33:52.927Z</time></trkpt><trkpt lat="42.3788529" lon="13.0134748"><ele>418.33333333333337</ele><time>2026-04-08T16:33:53.928Z</time></trkpt><trkpt lat="42.378853" lon="13.0137061"><ele>418.0</ele><time>2026-04-08T16:33:54.929Z</time></trkpt><trkpt lat="42.378853" lon="13.0139384"><ele>418.0</ele><time>2026-04-08T16:33:55.928Z</time></trkpt><trkpt lat="42.3788549" lon="13.0141694"><ele>418.0</ele><time>2026-04-08T16:33:56.929Z</time></trkpt><trkpt lat="42.3788651" lon="13.0144"><ele>418.0</ele><time>2026-04-08T16:33:57.928Z</time></trkpt><trkpt lat="42.3788962" lon="13.0146304"><ele>418.0</ele><time>2026-04-08T16:33:58.926Z</time></trkpt><trkpt lat="42.3789484" lon="13.0148624"><ele>418.0</ele><time>2026-04-08T16:33:59.929Z</time></trkpt><trkpt lat="42.379026" lon="13.0150885"><ele>418.0</ele><time>2026-04-08T16:34:00.931Z</time></trkpt><trkpt lat="42.3791286" lon="13.0152976"><ele>418.33333333333337</ele><time>2026-04-08T16:34:01.929Z</time></trkpt><trkpt lat="42.3792411" lon="13.0155132"><ele>418.66666666666663</ele><time>2026-04-08T16:34:02.929Z</time></trkpt><trkpt lat="42.3793581" lon="13.0157304"><ele>419.0</ele><time>2026-04-08T16:34:03.93Z</time></trkpt><trkpt lat="42.3794745" lon="13.0159513"><ele>419.0</ele><time>2026-04-08T16:34:04.928Z</time></trkpt><trkpt lat="42.3795864" lon="13.0161635"><ele>419.0</ele><time>2026-04-08T16:34:05.93Z</time></trkpt><trkpt lat="42.3796969" lon="13.0163698"><ele>419.0</ele><time>2026-04-08T16:34:06.93Z</time></trkpt><trkpt lat="42.379808" lon="13.0165762"><ele>420.0</ele><time>2026-04-08T16:34:07.929Z</time></trkpt><trkpt lat="42.3799141" lon="13.0167786"><ele>421.0</ele><time>2026-04-08T16:34:08.928Z</time></trkpt><trkpt lat="42.3800179" lon="13.0169798"><ele>422.0</ele><time>2026-04-08T16:34:09.927Z</time></trkpt><trkpt lat="42.3801272" lon="13.0171798"><ele>422.0</ele><time>2026-04-08T16:34:10.929Z</time></trkpt><trkpt lat="42.3802445" lon="13.0173764"><ele>422.0</ele><time>2026-04-08T16:34:11.93Z</time></trkpt><trkpt lat="42.3803646" lon="13.0175752"><ele>422.0</ele><time>2026-04-08T16:34:12.928Z</time></trkpt><trkpt lat="42.380498" lon="13.0177657"><ele>422.66666666666663</ele><time>2026-04-08T16:34:13.931Z</time></trkpt><trkpt lat="42.3806354" lon="13.0179591"><ele>423.33333333333337</ele><time>2026-04-08T16:34:14.93Z</time></trkpt><trkpt lat="42.3807723" lon="13.0181573"><ele>424.0</ele><time>2026-04-08T16:34:15.929Z</time></trkpt><trkpt lat="42.3809087" lon="13.0183591"><ele>424.0</ele><time>2026-04-08T16:34:16.93Z</time></trkpt><trkpt lat="42.3810479" lon="13.0185667"><ele>424.0</ele><time>2026-04-08T16:34:17.929Z</time></trkpt><trkpt lat="42.381184" lon="13.0187754"><ele>424.0</ele><time>2026-04-08T16:34:18.928Z</time></trkpt><trkpt lat="42.3813199" lon="13.0189884"><ele>425.33333333333337</ele><time>2026-04-08T16:34:19.926Z</time></trkpt><trkpt lat="42.3814547" lon="13.019203"><ele>426.66666666666663</ele><time>2026-04-08T16:34:20.928Z</time></trkpt><trkpt lat="42.3815895" lon="13.0194192"><ele>428.0</ele><time>2026-04-08T16:34:21.93Z</time></trkpt><trkpt lat="42.3817206" lon="13.0196454"><ele>428.0</ele><time>2026-04-08T16:34:22.929Z</time></trkpt><trkpt lat="42.3818435" lon="13.0198752"><ele>428.0</ele><time>2026-04-08T16:34:23.928Z</time></trkpt><trkpt lat="42.3819557" lon="13.0201081"><ele>428.0</ele><time>2026-04-08T16:34:24.932Z</time></trkpt><trkpt lat="42.3820586" lon="13.0203487"><ele>427.3333333333333</ele><time>2026-04-08T16:34:25.932Z</time></trkpt><trkpt lat="42.3821596" lon="13.0205884"><ele>426.66666666666663</ele><time>2026-04-08T16:34:26.929Z</time></trkpt><trkpt lat="42.3822601" lon="13.0208286"><ele>426.0</ele><time>2026-04-08T16:34:27.93Z</time></trkpt><trkpt lat="42.3823578" lon="13.0210712"><ele>428.0</ele><time>2026-04-08T16:34:28.93Z</time></trkpt><trkpt lat="42.3824556" lon="13.0213159"><ele>430.0</ele><time>2026-04-08T16:34:29.931Z</time></trkpt><trkpt lat="42.382553" lon="13.0215599"><ele>432.0</ele><time>2026-04-08T16:34:30.928Z</time></trkpt><trkpt lat="42.3826487" lon="13.0218011"><ele>432.0</ele><time>2026-04-08T16:34:31.928Z</time></trkpt><trkpt lat="42.3827458" lon="13.0220368"><ele>432.0</ele><time>2026-04-08T16:34:32.929Z</time></trkpt><trkpt lat="42.3828502" lon="13.0222679"><ele>432.0</ele><time>2026-04-08T16:34:33.933Z</time></trkpt><trkpt lat="42.3829595" lon="13.0224931"><ele>432.0</ele><time>2026-04-08T16:34:34.927Z</time></trkpt><trkpt lat="42.3830935" lon="13.0226966"><ele>432.0</ele><time>2026-04-08T16:34:35.927Z</time></trkpt><trkpt lat="42.3832463" lon="13.0228826"><ele>432.0</ele><time>2026-04-08T16:34:36.927Z</time></trkpt><trkpt lat="42.3834033" lon="13.02307"><ele>432.0</ele><time>2026-04-08T16:34:37.928Z</time></trkpt><trkpt lat="42.3835611" lon="13.0232524"><ele>432.0</ele><time>2026-04-08T16:34:38.93Z</time></trkpt><trkpt lat="42.38372" lon="13.023441"><ele>432.0</ele><time>2026-04-08T16:34:39.929Z</time></trkpt><trkpt lat="42.383878" lon="13.0236271"><ele>433.0</ele><time>2026-04-08T16:34:40.929Z</time></trkpt><trkpt lat="42.3840365" lon="13.0238098"><ele>434.0</ele><time>2026-04-08T16:34:41.933Z</time></trkpt><trkpt lat="42.384196" lon="13.0239954"><ele>435.0</ele><time>2026-04-08T16:34:42.929Z</time></trkpt><trkpt lat="42.3843509" lon="13.024174"><ele>433.0</ele><time>2026-04-08T16:34:43.931Z</time></trkpt><trkpt lat="42.3845049" lon="13.0243412"><ele>431.0</ele><time>2026-04-08T16:34:44.93Z</time></trkpt><trkpt lat="42.3846554" lon="13.0245081"><ele>429.0</ele><time>2026-04-08T16:34:45.929Z</time></trkpt><trkpt lat="42.384806" lon="13.0246734"><ele>430.0</ele><time>2026-04-08T16:34:46.928Z</time></trkpt><trkpt lat="42.3849579" lon="13.0248314"><ele>431.0</ele><time>2026-04-08T16:34:47.929Z</time></trkpt><trkpt lat="42.3851081" lon="13.0249914"><ele>432.0</ele><time>2026-04-08T16:34:48.929Z</time></trkpt><trkpt lat="42.3852623" lon="13.0251482"><ele>432.0</ele><time>2026-04-08T16:34:49.93Z</time></trkpt><trkpt lat="42.3854164" lon="13.0253063"><ele>432.0</ele><time>2026-04-08T16:34:50.931Z</time></trkpt><trkpt lat="42.3855736" lon="13.0254621"><ele>432.0</ele><time>2026-04-08T16:34:51.928Z</time></trkpt><trkpt lat="42.3857291" lon="13.0256085"><ele>432.0</ele><time>2026-04-08T16:34:52.929Z</time></trkpt><trkpt lat="42.3858897" lon="13.0257341"><ele>432.0</ele><time>2026-04-08T16:34:53.931Z</time></trkpt><trkpt lat="42.3860661" lon="13.0258211"><ele>432.0</ele><time>2026-04-08T16:34:54.929Z</time></trkpt><trkpt lat="42.3862507" lon="13.0258744"><ele>434.33333333333337</ele><time>2026-04-08T16:34:55.93Z</time></trkpt><trkpt lat="42.3864412" lon="13.0259068"><ele>436.6666666666667</ele><time>2026-04-08T16:34:56.928Z</time></trkpt><trkpt lat="42.3866361" lon="13.0259264"><ele>439.0</ele><time>2026-04-08T16:34:57.928Z</time></trkpt><trkpt lat="42.3868258" lon="13.0259474"><ele>439.0</ele><time>2026-04-08T16:34:58.929Z</time></trkpt><trkpt lat="42.387011" lon="13.0259782"><ele>439.0</ele><time>2026-04-08T16:34:59.929Z</time></trkpt><trkpt lat="42.3871975" lon="13.026034"><ele>439.0</ele><time>2026-04-08T16:35:00.93Z</time></trkpt><trkpt lat="42.3873779" lon="13.0261188"><ele>442.0</ele><time>2026-04-08T16:35:01.93Z</time></trkpt><trkpt lat="42.3875489" lon="13.0262417"><ele>445.0</ele><time>2026-04-08T16:35:02.928Z</time></trkpt><trkpt lat="42.3877111" lon="13.0263879"><ele>448.0</ele><time>2026-04-08T16:35:03.929Z</time></trkpt><trkpt lat="42.3878581" lon="13.0265524"><ele>445.0</ele><time>2026-04-08T16:35:04.93Z</time></trkpt><trkpt lat="42.387991" lon="13.0267245"><ele>442.0</ele><time>2026-04-08T16:35:05.928Z</time></trkpt><trkpt lat="42.3881063" lon="13.0269057"><ele>439.0</ele><time>2026-04-08T16:35:06.934Z</time></trkpt><trkpt lat="42.3882186" lon="13.0270768"><ele>439.0</ele><time>2026-04-08T16:35:07.933Z</time></trkpt><trkpt lat="42.3883104" lon="13.0272632"><ele>439.0</ele><time>2026-04-08T16:35:08.929Z</time></trkpt><trkpt lat="42.3883895" lon="13.0274448"><ele>439.0</ele><time>2026-04-08T16:35:09.932Z</time></trkpt><trkpt lat="42.3884765" lon="13.0276151"><ele>439.5</ele><time>2026-04-08T16:35:10.929Z</time></trkpt><trkpt lat="42.3885741" lon="13.0277578"><ele>440.0</ele><time>2026-04-08T16:35:11.93Z</time></trkpt><trkpt lat="42.3886916" lon="13.0278619"><ele>440.5</ele><time>2026-04-08T16:35:12.929Z</time></trkpt><trkpt lat="42.3888279" lon="13.0279147"><ele>441.0</ele><time>2026-04-08T16:35:13.928Z</time></trkpt><trkpt lat="42.3889755" lon="13.027921"><ele>441.0</ele><time>2026-04-08T16:35:14.928Z</time></trkpt><trkpt lat="42.3891289" lon="13.027899"><ele>441.0</ele><time>2026-04-08T16:35:15.929Z</time></trkpt><trkpt lat="42.3892861" lon="13.0278615"><ele>441.0</ele><time>2026-04-08T16:35:16.93Z</time></trkpt><trkpt lat="42.3894385" lon="13.027837"><ele>441.0</ele><time>2026-04-08T16:35:17.934Z</time></trkpt><trkpt lat="42.3895879" lon="13.0278352"><ele>441.0</ele><time>2026-04-08T16:35:18.929Z</time></trkpt><trkpt lat="42.3897454" lon="13.027829"><ele>441.0</ele><time>2026-04-08T16:35:19.928Z</time></trkpt><trkpt lat="42.389908" lon="13.0278271"><ele>438.0</ele><time>2026-04-08T16:35:20.927Z</time></trkpt><trkpt lat="42.3900724" lon="13.0278292"><ele>435.0</ele><time>2026-04-08T16:35:21.928Z</time></trkpt><trkpt lat="42.3902455" lon="13.0278307"><ele>432.0</ele><time>2026-04-08T16:35:22.93Z</time></trkpt><trkpt lat="42.3904164" lon="13.0278317"><ele>431.66666666666663</ele><time>2026-04-08T16:35:23.928Z</time></trkpt><trkpt lat="42.3905931" lon="13.0278335"><ele>431.3333333333333</ele><time>2026-04-08T16:35:24.93Z</time></trkpt><trkpt lat="42.3907752" lon="13.0278318"><ele>431.0</ele><time>2026-04-08T16:35:25.929Z</time></trkpt><trkpt lat="42.3909603" lon="13.0278297"><ele>431.0</ele><time>2026-04-08T16:35:26.931Z</time></trkpt><trkpt lat="42.3911457" lon="13.0278367"><ele>431.0</ele><time>2026-04-08T16:35:27.929Z</time></trkpt><trkpt lat="42.3913321" lon="13.0278363"><ele>431.0</ele><time>2026-04-08T16:35:28.929Z</time></trkpt><trkpt lat="42.3915155" lon="13.0278371"><ele>431.66666666666663</ele><time>2026-04-08T16:35:29.929Z</time></trkpt><trkpt lat="42.3916968" lon="13.0278361"><ele>432.33333333333337</ele><time>2026-04-08T16:35:30.928Z</time></trkpt><trkpt lat="42.3918801" lon="13.0278331"><ele>433.0</ele><time>2026-04-08T16:35:31.93Z</time></trkpt><trkpt lat="42.392054" lon="13.0278327"><ele>435.0</ele><time>2026-04-08T16:35:32.93Z</time></trkpt><trkpt lat="42.3922225" lon="13.0278305"><ele>437.0</ele><time>2026-04-08T16:35:33.929Z</time></trkpt><trkpt lat="42.3923881" lon="13.027828"><ele>439.0</ele><time>2026-04-08T16:35:34.928Z</time></trkpt><trkpt lat="42.3925427" lon="13.0278237"><ele>439.0</ele><time>2026-04-08T16:35:35.927Z</time></trkpt><trkpt lat="42.3926954" lon="13.0278233"><ele>439.0</ele><time>2026-04-08T16:35:36.927Z</time></trkpt><trkpt lat="42.3928408" lon="13.0278301"><ele>439.0</ele><time>2026-04-08T16:35:37.929Z</time></trkpt><trkpt lat="42.3929732" lon="13.027832"><ele>439.0</ele><time>2026-04-08T16:35:38.927Z</time></trkpt><trkpt lat="42.3930977" lon="13.0278368"><ele>440.0</ele><time>2026-04-08T16:35:39.928Z</time></trkpt><trkpt lat="42.3932146" lon="13.0278508"><ele>441.0</ele><time>2026-04-08T16:35:40.929Z</time></trkpt><trkpt lat="42.3933312" lon="13.0278887"><ele>442.0</ele><time>2026-04-08T16:35:41.926Z</time></trkpt><trkpt lat="42.3934338" lon="13.0279637"><ele>443.0</ele><time>2026-04-08T16:35:42.93Z</time></trkpt><trkpt lat="42.3935341" lon="13.0280741"><ele>443.0</ele><time>2026-04-08T16:35:43.932Z</time></trkpt><trkpt lat="42.393635" lon="13.0282002"><ele>443.0</ele><time>2026-04-08T16:35:44.929Z</time></trkpt><trkpt lat="42.3937356" lon="13.0283426"><ele>443.0</ele><time>2026-04-08T16:35:45.93Z</time></trkpt><trkpt lat="42.3938319" lon="13.0284966"><ele>443.0</ele><time>2026-04-08T16:35:46.93Z</time></trkpt><trkpt lat="42.393936" lon="13.0286495"><ele>443.0</ele><time>2026-04-08T16:35:47.927Z</time></trkpt><trkpt lat="42.3940392" lon="13.0288012"><ele>443.0</ele><time>2026-04-08T16:35:48.929Z</time></trkpt><trkpt lat="42.3941378" lon="13.0289542"><ele>443.0</ele><time>2026-04-08T16:35:49.929Z</time></trkpt><trkpt lat="42.394238" lon="13.0291043"><ele>442.5</ele><time>2026-04-08T16:35:50.93Z</time></trkpt><trkpt lat="42.3943352" lon="13.0292496"><ele>442.0</ele><time>2026-04-08T16:35:51.929Z</time></trkpt><trkpt lat="42.3944306" lon="13.0293947"><ele>441.5</ele><time>2026-04-08T16:35:52.929Z</time></trkpt><trkpt lat="42.3945233" lon="13.0295415"><ele>441.0</ele><time>2026-04-08T16:35:53.929Z</time></trkpt><trkpt lat="42.3946192" lon="13.0296852"><ele>441.75</ele><time>2026-04-08T16:35:54.929Z</time></trkpt><trkpt lat="42.3947086" lon="13.0298318"><ele>442.5</ele><time>2026-04-08T16:35:55.929Z</time></trkpt><trkpt lat="42.3947917" lon="13.02998"><ele>443.25</ele><time>2026-04-08T16:35:56.928Z</time></trkpt><trkpt lat="42.3948534" lon="13.0301324"><ele>444.0</ele><time>2026-04-08T16:35:57.927Z</time></trkpt><trkpt lat="42.3948789" lon="13.0302879"><ele>444.0</ele><time>2026-04-08T16:35:58.925Z</time></trkpt><trkpt lat="42.3948717" lon="13.0304323"><ele>444.0</ele><time>2026-04-08T16:35:59.926Z</time></trkpt><trkpt lat="42.39485" lon="13.0305734"><ele>444.0</ele><time>2026-04-08T16:36:00.928Z</time></trkpt><trkpt lat="42.3947654" lon="13.0307033"><ele>444.0</ele><time>2026-04-08T16:36:01.927Z</time></trkpt><trkpt lat="42.3946719" lon="13.0308172"><ele>443.5</ele><time>2026-04-08T16:36:02.931Z</time></trkpt><trkpt lat="42.3945634" lon="13.0309066"><ele>443.0</ele><time>2026-04-08T16:36:03.927Z</time></trkpt><trkpt lat="42.3944421" lon="13.0309848"><ele>442.5</ele><time>2026-04-08T16:36:04.929Z</time></trkpt><trkpt lat="42.394314" lon="13.0310693"><ele>442.0</ele><time>2026-04-08T16:36:05.927Z</time></trkpt><trkpt lat="42.3941856" lon="13.0311537"><ele>442.0</ele><time>2026-04-08T16:36:06.928Z</time></trkpt><trkpt lat="42.3940561" lon="13.0312363"><ele>442.0</ele><time>2026-04-08T16:36:07.928Z</time></trkpt><trkpt lat="42.3939295" lon="13.0313256"><ele>442.0</ele><time>2026-04-08T16:36:08.929Z</time></trkpt><trkpt lat="42.3938115" lon="13.0314289"><ele>442.0</ele><time>2026-04-08T16:36:09.929Z</time></trkpt><trkpt lat="42.3937115" lon="13.0315312"><ele>441.75</ele><time>2026-04-08T16:36:10.932Z</time></trkpt><trkpt lat="42.3936407" lon="13.0316916"><ele>441.5</ele><time>2026-04-08T16:36:11.933Z</time></trkpt><trkpt lat="42.3935817" lon="13.0318649"><ele>441.25</ele><time>2026-04-08T16:36:12.929Z</time></trkpt><trkpt lat="42.3935471" lon="13.0320641"><ele>441.0</ele><time>2026-04-08T16:36:13.93Z</time></trkpt><trkpt lat="42.393512" lon="13.0322716"><ele>441.33333333333337</ele><time>2026-04-08T16:36:14.929Z</time></trkpt><trkpt lat="42.3934759" lon="13.0324839"><ele>441.6666666666667</ele><time>2026-04-08T16:36:15.93Z</time></trkpt><trkpt lat="42.3934327" lon="13.0327046"><ele>442.0</ele><time>2026-04-08T16:36:16.929Z</time></trkpt><trkpt lat="42.3933908" lon="13.0329245"><ele>442.0</ele><time>2026-04-08T16:36:17.929Z</time></trkpt><trkpt lat="42.3933521" lon="13.0331493"><ele>442.0</ele><time>2026-04-08T16:36:18.93Z</time></trkpt><trkpt lat="42.393326" lon="13.0333733"><ele>442.0</ele><time>2026-04-08T16:36:19.929Z</time></trkpt><trkpt lat="42.3933255" lon="13.0335923"><ele>443.33333333333337</ele><time>2026-04-08T16:36:20.927Z</time></trkpt><trkpt lat="42.3933585" lon="13.0338056"><ele>444.66666666666663</ele><time>2026-04-08T16:36:21.934Z</time></trkpt><trkpt lat="42.3934214" lon="13.0340163"><ele>446.0</ele><time>2026-04-08T16:36:22.928Z</time></trkpt><trkpt lat="42.3934884" lon="13.0342319"><ele>446.3333333333333</ele><time>2026-04-08T16:36:23.931Z</time></trkpt><trkpt lat="42.3935472" lon="13.0344584"><ele>446.66666666666663</ele><time>2026-04-08T16:36:24.93Z</time></trkpt><trkpt lat="42.393597" lon="13.0346933"><ele>447.0</ele><time>2026-04-08T16:36:25.928Z</time></trkpt><trkpt lat="42.3936364" lon="13.0349302"><ele>446.0</ele><time>2026-04-08T16:36:26.93Z</time></trkpt><trkpt lat="42.3936725" lon="13.0351696"><ele>445.0</ele><time>2026-04-08T16:36:27.928Z</time></trkpt><trkpt lat="42.3937064" lon="13.0354024"><ele>444.0</ele><time>2026-04-08T16:36:28.931Z</time></trkpt><trkpt lat="42.3937262" lon="13.0356226"><ele>443.5</ele><time>2026-04-08T16:36:29.927Z</time></trkpt><trkpt lat="42.3937269" lon="13.035811"><ele>443.0</ele><time>2026-04-08T16:36:30.93Z</time></trkpt><trkpt lat="42.3937054" lon="13.0359753"><ele>442.5</ele><time>2026-04-08T16:36:31.929Z</time></trkpt><trkpt lat="42.3936987" lon="13.0361405"><ele>442.0</ele><time>2026-04-08T16:36:32.928Z</time></trkpt><trkpt lat="42.3937099" lon="13.0362967"><ele>442.0</ele><time>2026-04-08T16:36:33.926Z</time></trkpt><trkpt lat="42.3937465" lon="13.036437"><ele>442.00000000000006</ele><time>2026-04-08T16:36:34.93Z</time></trkpt><trkpt lat="42.3938215" lon="13.036548"><ele>442.00000000000006</ele><time>2026-04-08T16:36:35.929Z</time></trkpt><trkpt lat="42.3939164" lon="13.0366162"><ele>442.0</ele><time>2026-04-08T16:36:36.928Z</time></trkpt><trkpt lat="42.3940252" lon="13.0366415"><ele>442.0</ele><time>2026-04-08T16:36:37.931Z</time></trkpt><trkpt lat="42.3941399" lon="13.036637"><ele>445.5</ele><time>2026-04-08T16:36:38.927Z</time></trkpt><trkpt lat="42.3942502" lon="13.0366031"><ele>449.0</ele><time>2026-04-08T16:36:39.93Z</time></trkpt><trkpt lat="42.3943613" lon="13.0365839"><ele>452.5</ele><time>2026-04-08T16:36:40.93Z</time></trkpt><trkpt lat="42.394473" lon="13.0366056"><ele>456.0</ele><time>2026-04-08T16:36:41.929Z</time></trkpt><trkpt lat="42.3945902" lon="13.0366412"><ele>460.0</ele><time>2026-04-08T16:36:42.937Z</time></trkpt><trkpt lat="42.3947121" lon="13.03677"><ele>464.0</ele><time>2026-04-08T16:36:43.938Z</time></trkpt><trkpt lat="42.3948435" lon="13.0368748"><ele>468.0</ele><time>2026-04-08T16:36:44.927Z</time></trkpt><trkpt lat="42.3949839" lon="13.0370206"><ele>468.0</ele><time>2026-04-08T16:36:45.929Z</time></trkpt><trkpt lat="42.3951266" lon="13.037167"><ele>468.0</ele><time>2026-04-08T16:36:46.931Z</time></trkpt><trkpt lat="42.3952707" lon="13.0373241"><ele>468.0</ele><time>2026-04-08T16:36:47.935Z</time></trkpt><trkpt lat="42.3954178" lon="13.0374899"><ele>466.0</ele><time>2026-04-08T16:36:48.927Z</time></trkpt><trkpt lat="42.395563" lon="13.0376469"><ele>464.0</ele><time>2026-04-08T16:36:49.929Z</time></trkpt><trkpt lat="42.3957087" lon="13.0378024"><ele>462.0</ele><time>2026-04-08T16:36:50.931Z</time></trkpt><trkpt lat="42.3958507" lon="13.0379708"><ele>462.0</ele><time>2026-04-08T16:36:51.927Z</time></trkpt><trkpt lat="42.3959849" lon="13.0381809"><ele>462.0</ele><time>2026-04-08T16:36:52.928Z</time></trkpt><trkpt lat="42.3961228" lon="13.038377"><ele>462.0</ele><time>2026-04-08T16:36:53.927Z</time></trkpt><trkpt lat="42.3961847" lon="13.0386299"><ele>461.66666666666663</ele><time>2026-04-08T16:36:54.928Z</time></trkpt><trkpt lat="42.3962617" lon="13.0388598"><ele>461.3333333333333</ele><time>2026-04-08T16:36:55.93Z</time></trkpt><trkpt lat="42.3963394" lon="13.0390876"><ele>461.0</ele><time>2026-04-08T16:36:56.928Z</time></trkpt><trkpt lat="42.3964118" lon="13.0393134"><ele>457.0</ele><time>2026-04-08T16:36:57.928Z</time></trkpt><trkpt lat="42.3964755" lon="13.0395326"><ele>453.0</ele><time>2026-04-08T16:36:58.928Z</time></trkpt><trkpt lat="42.3965392" lon="13.0397321"><ele>449.0</ele><time>2026-04-08T16:36:59.927Z</time></trkpt><trkpt lat="42.3966114" lon="13.0398938"><ele>449.5</ele><time>2026-04-08T16:37:00.928Z</time></trkpt><trkpt lat="42.3966985" lon="13.0400337"><ele>450.0</ele><time>2026-04-08T16:37:01.928Z</time></trkpt><trkpt lat="42.3968035" lon="13.0401328"><ele>450.5</ele><time>2026-04-08T16:37:02.929Z</time></trkpt><trkpt lat="42.3969275" lon="13.0401885"><ele>451.0</ele><time>2026-04-08T16:37:03.93Z</time></trkpt><trkpt lat="42.3970648" lon="13.0402065"><ele>453.6666666666667</ele><time>2026-04-08T16:37:04.929Z</time></trkpt><trkpt lat="42.397214" lon="13.0402057"><ele>456.33333333333337</ele><time>2026-04-08T16:37:05.928Z</time></trkpt><trkpt lat="42.3973641" lon="13.0402071"><ele>459.0</ele><time>2026-04-08T16:37:06.934Z</time></trkpt><trkpt lat="42.397654" lon="13.0402754"><ele>459.0</ele><time>2026-04-08T16:37:08.929Z</time></trkpt><trkpt lat="42.3977981" lon="13.040343"><ele>459.0</ele><time>2026-04-08T16:37:09.928Z</time></trkpt><trkpt lat="42.3979394" lon="13.0404175"><ele>459.0</ele><time>2026-04-08T16:37:10.939Z</time></trkpt><trkpt lat="42.3980644" lon="13.0405283"><ele>459.33333333333337</ele><time>2026-04-08T16:37:11.928Z</time></trkpt><trkpt lat="42.3981684" lon="13.04068"><ele>459.6666666666667</ele><time>2026-04-08T16:37:12.929Z</time></trkpt><trkpt lat="42.3982557" lon="13.0408596"><ele>460.0</ele><time>2026-04-08T16:37:13.933Z</time></trkpt><trkpt lat="42.3983338" lon="13.041057"><ele>455.0</ele><time>2026-04-08T16:37:14.928Z</time></trkpt><trkpt lat="42.3984101" lon="13.0412591"><ele>450.0</ele><time>2026-04-08T16:37:15.926Z</time></trkpt><trkpt lat="42.3984887" lon="13.0414625"><ele>445.0</ele><time>2026-04-08T16:37:16.928Z</time></trkpt><trkpt lat="42.3985622" lon="13.0416669"><ele>445.0</ele><time>2026-04-08T16:37:17.928Z</time></trkpt><trkpt lat="42.3986357" lon="13.0418721"><ele>445.0</ele><time>2026-04-08T16:37:18.93Z</time></trkpt><trkpt lat="42.3987096" lon="13.0420827"><ele>445.0</ele><time>2026-04-08T16:37:19.94Z</time></trkpt><trkpt lat="42.3987867" lon="13.0422875"><ele>445.33333333333337</ele><time>2026-04-08T16:37:20.931Z</time></trkpt><trkpt lat="42.3988594" lon="13.0424887"><ele>445.66666666666663</ele><time>2026-04-08T16:37:21.933Z</time></trkpt><trkpt lat="42.398926" lon="13.0426795"><ele>446.0</ele><time>2026-04-08T16:37:22.927Z</time></trkpt><trkpt lat="42.3989874" lon="13.0428674"><ele>446.0</ele><time>2026-04-08T16:37:23.931Z</time></trkpt><trkpt lat="42.3990482" lon="13.0430536"><ele>446.0</ele><time>2026-04-08T16:37:24.93Z</time></trkpt><trkpt lat="42.3991137" lon="13.0432368"><ele>446.0</ele><time>2026-04-08T16:37:25.929Z</time></trkpt><trkpt lat="42.3991735" lon="13.0434143"><ele>446.0</ele><time>2026-04-08T16:37:26.931Z</time></trkpt><trkpt lat="42.3992325" lon="13.0435916"><ele>446.25</ele><time>2026-04-08T16:37:27.932Z</time></trkpt><trkpt lat="42.3993077" lon="13.0437568"><ele>446.5</ele><time>2026-04-08T16:37:28.929Z</time></trkpt><trkpt lat="42.3993882" lon="13.0439065"><ele>446.75</ele><time>2026-04-08T16:37:29.927Z</time></trkpt><trkpt lat="42.3994653" lon="13.0440527"><ele>447.0</ele><time>2026-04-08T16:37:30.927Z</time></trkpt><trkpt lat="42.3995252" lon="13.0441975"><ele>447.0</ele><time>2026-04-08T16:37:31.927Z</time></trkpt><trkpt lat="42.3995571" lon="13.0443455"><ele>447.00000000000006</ele><time>2026-04-08T16:37:32.932Z</time></trkpt><trkpt lat="42.3995682" lon="13.0444939"><ele>447.00000000000006</ele><time>2026-04-08T16:37:33.926Z</time></trkpt><trkpt lat="42.3995448" lon="13.044637"><ele>447.0</ele><time>2026-04-08T16:37:34.928Z</time></trkpt><trkpt lat="42.3995002" lon="13.0447822"><ele>447.0</ele><time>2026-04-08T16:37:35.93Z</time></trkpt><trkpt lat="42.3994574" lon="13.0449461"><ele>447.75</ele><time>2026-04-08T16:37:36.929Z</time></trkpt><trkpt lat="42.3994157" lon="13.0451114"><ele>448.5</ele><time>2026-04-08T16:37:37.928Z</time></trkpt><trkpt lat="42.3993726" lon="13.0452791"><ele>449.25</ele><time>2026-04-08T16:37:38.925Z</time></trkpt><trkpt lat="42.3993293" lon="13.0454445"><ele>450.0</ele><time>2026-04-08T16:37:39.927Z</time></trkpt><trkpt lat="42.3992937" lon="13.0456081"><ele>450.0</ele><time>2026-04-08T16:37:40.928Z</time></trkpt><trkpt lat="42.3992758" lon="13.0457696"><ele>450.0</ele><time>2026-04-08T16:37:41.928Z</time></trkpt><trkpt lat="42.3992774" lon="13.0459346"><ele>450.0</ele><time>2026-04-08T16:37:42.928Z</time></trkpt><trkpt lat="42.3993014" lon="13.0461032"><ele>450.0</ele><time>2026-04-08T16:37:43.929Z</time></trkpt><trkpt lat="42.3993402" lon="13.0462653"><ele>449.75</ele><time>2026-04-08T16:37:44.928Z</time></trkpt><trkpt lat="42.3994041" lon="13.0464092"><ele>449.5</ele><time>2026-04-08T16:37:45.928Z</time></trkpt><trkpt lat="42.3994944" lon="13.0465403"><ele>449.25</ele><time>2026-04-08T16:37:46.928Z</time></trkpt><trkpt lat="42.399597" lon="13.0466681"><ele>449.0</ele><time>2026-04-08T16:37:47.932Z</time></trkpt><trkpt lat="42.3997138" lon="13.0468007"><ele>449.0</ele><time>2026-04-08T16:37:48.929Z</time></trkpt><trkpt lat="42.3998277" lon="13.0469493"><ele>449.0</ele><time>2026-04-08T16:37:49.929Z</time></trkpt><trkpt lat="42.3999422" lon="13.0471111"><ele>449.0</ele><time>2026-04-08T16:37:50.928Z</time></trkpt><trkpt lat="42.4000613" lon="13.0472769"><ele>449.0</ele><time>2026-04-08T16:37:51.929Z</time></trkpt><trkpt lat="42.4001763" lon="13.0474436"><ele>449.0</ele><time>2026-04-08T16:37:52.929Z</time></trkpt><trkpt lat="42.4002872" lon="13.0476152"><ele>449.0</ele><time>2026-04-08T16:37:53.941Z</time></trkpt><trkpt lat="42.4003888" lon="13.0478055"><ele>449.66666666666663</ele><time>2026-04-08T16:37:54.93Z</time></trkpt><trkpt lat="42.4004918" lon="13.0480002"><ele>450.33333333333337</ele><time>2026-04-08T16:37:55.929Z</time></trkpt><trkpt lat="42.4005872" lon="13.0482112"><ele>451.0</ele><time>2026-04-08T16:37:56.93Z</time></trkpt><trkpt lat="42.4006977" lon="13.0484278"><ele>452.33333333333337</ele><time>2026-04-08T16:37:57.93Z</time></trkpt><trkpt lat="42.4008022" lon="13.0486369"><ele>453.66666666666663</ele><time>2026-04-08T16:37:58.928Z</time></trkpt><trkpt lat="42.4009012" lon="13.0488479"><ele>455.0</ele><time>2026-04-08T16:37:59.929Z</time></trkpt><trkpt lat="42.4010069" lon="13.0490639"><ele>455.0</ele><time>2026-04-08T16:38:00.928Z</time></trkpt><trkpt lat="42.4011092" lon="13.0492784"><ele>455.0</ele><time>2026-04-08T16:38:01.927Z</time></trkpt><trkpt lat="42.4012143" lon="13.0494936"><ele>455.0</ele><time>2026-04-08T16:38:02.928Z</time></trkpt><trkpt lat="42.4013154" lon="13.0497076"><ele>454.66666666666663</ele><time>2026-04-08T16:38:03.929Z</time></trkpt><trkpt lat="42.4014161" lon="13.0499182"><ele>454.33333333333337</ele><time>2026-04-08T16:38:04.928Z</time></trkpt><trkpt lat="42.4015107" lon="13.0501246"><ele>454.0</ele><time>2026-04-08T16:38:05.929Z</time></trkpt><trkpt lat="42.4016086" lon="13.0503185"><ele>454.0</ele><time>2026-04-08T16:38:06.928Z</time></trkpt><trkpt lat="42.4017043" lon="13.0505103"><ele>454.0</ele><time>2026-04-08T16:38:07.928Z</time></trkpt><trkpt lat="42.4017942" lon="13.0506986"><ele>454.0</ele><time>2026-04-08T16:38:08.929Z</time></trkpt><trkpt lat="42.4018841" lon="13.0508834"><ele>454.33333333333337</ele><time>2026-04-08T16:38:09.931Z</time></trkpt><trkpt lat="42.4019721" lon="13.0510604"><ele>454.66666666666663</ele><time>2026-04-08T16:38:10.928Z</time></trkpt><trkpt lat="42.4020559" lon="13.0512361"><ele>455.0</ele><time>2026-04-08T16:38:11.928Z</time></trkpt><trkpt lat="42.4021414" lon="13.0514145"><ele>455.0</ele><time>2026-04-08T16:38:12.928Z</time></trkpt><trkpt lat="42.4022305" lon="13.0515906"><ele>455.0</ele><time>2026-04-08T16:38:13.93Z</time></trkpt><trkpt lat="42.4023147" lon="13.0517637"><ele>455.0</ele><time>2026-04-08T16:38:14.928Z</time></trkpt><trkpt lat="42.4023993" lon="13.051934"><ele>455.5</ele><time>2026-04-08T16:38:15.928Z</time></trkpt><trkpt lat="42.40248" lon="13.052105"><ele>456.0</ele><time>2026-04-08T16:38:16.925Z</time></trkpt><trkpt lat="42.4025608" lon="13.0522692"><ele>456.5</ele><time>2026-04-08T16:38:17.93Z</time></trkpt><trkpt lat="42.402636" lon="13.0524269"><ele>457.0</ele><time>2026-04-08T16:38:18.927Z</time></trkpt><trkpt lat="42.40271" lon="13.0525784"><ele>457.5</ele><time>2026-04-08T16:38:19.93Z</time></trkpt><trkpt lat="42.4027792" lon="13.0527384"><ele>458.0</ele><time>2026-04-08T16:38:20.929Z</time></trkpt><trkpt lat="42.402849" lon="13.0528993"><ele>458.5</ele><time>2026-04-08T16:38:21.928Z</time></trkpt><trkpt lat="42.4029127" lon="13.0530761"><ele>459.0</ele><time>2026-04-08T16:38:22.928Z</time></trkpt><trkpt lat="42.4029783" lon="13.0532538"><ele>459.0</ele><time>2026-04-08T16:38:23.928Z</time></trkpt><trkpt lat="42.4030379" lon="13.0534403"><ele>459.0</ele><time>2026-04-08T16:38:24.928Z</time></trkpt><trkpt lat="42.4030998" lon="13.0536342"><ele>459.0</ele><time>2026-04-08T16:38:25.927Z</time></trkpt><trkpt lat="42.4031543" lon="13.0538363"><ele>459.0</ele><time>2026-04-08T16:38:26.928Z</time></trkpt><trkpt lat="42.4032106" lon="13.0540369"><ele>459.0</ele><time>2026-04-08T16:38:27.932Z</time></trkpt><trkpt lat="42.4032692" lon="13.0542471"><ele>459.0</ele><time>2026-04-08T16:38:28.937Z</time></trkpt><trkpt lat="42.4033276" lon="13.0544651"><ele>459.66666666666663</ele><time>2026-04-08T16:38:29.929Z</time></trkpt><trkpt lat="42.4033882" lon="13.0546832"><ele>460.3333333333333</ele><time>2026-04-08T16:38:30.936Z</time></trkpt><trkpt lat="42.4034448" lon="13.0549075"><ele>461.0</ele><time>2026-04-08T16:38:31.929Z</time></trkpt><trkpt lat="42.4035027" lon="13.0551282"><ele>462.3333333333333</ele><time>2026-04-08T16:38:32.929Z</time></trkpt><trkpt lat="42.4035602" lon="13.0553559"><ele>463.66666666666663</ele><time>2026-04-08T16:38:33.929Z</time></trkpt><trkpt lat="42.4036175" lon="13.0555816"><ele>465.0</ele><time>2026-04-08T16:38:34.929Z</time></trkpt><trkpt lat="42.4036739" lon="13.0558045"><ele>464.33333333333337</ele><time>2026-04-08T16:38:35.926Z</time></trkpt><trkpt lat="42.4037345" lon="13.0560249"><ele>463.6666666666667</ele><time>2026-04-08T16:38:36.928Z</time></trkpt><trkpt lat="42.4037914" lon="13.0562418"><ele>463.0</ele><time>2026-04-08T16:38:37.93Z</time></trkpt><trkpt lat="42.40385" lon="13.0564575"><ele>464.33333333333337</ele><time>2026-04-08T16:38:38.928Z</time></trkpt><trkpt lat="42.4039034" lon="13.0566847"><ele>465.66666666666663</ele><time>2026-04-08T16:38:39.927Z</time></trkpt><trkpt lat="42.4039609" lon="13.0569096"><ele>467.0</ele><time>2026-04-08T16:38:40.928Z</time></trkpt><trkpt lat="42.4040244" lon="13.0571317"><ele>467.0</ele><time>2026-04-08T16:38:41.93Z</time></trkpt><trkpt lat="42.4040984" lon="13.0573538"><ele>467.0</ele><time>2026-04-08T16:38:42.929Z</time></trkpt><trkpt lat="42.4041823" lon="13.0575713"><ele>467.0</ele><time>2026-04-08T16:38:43.927Z</time></trkpt><trkpt lat="42.4042713" lon="13.0577746"><ele>470.0</ele><time>2026-04-08T16:38:44.927Z</time></trkpt><trkpt lat="42.4043652" lon="13.0579849"><ele>473.0</ele><time>2026-04-08T16:38:45.928Z</time></trkpt><trkpt lat="42.4044562" lon="13.0582031"><ele>476.0</ele><time>2026-04-08T16:38:46.927Z</time></trkpt><trkpt lat="42.4045455" lon="13.0584256"><ele>474.0</ele><time>2026-04-08T16:38:47.928Z</time></trkpt><trkpt lat="42.4046297" lon="13.0586554"><ele>472.0</ele><time>2026-04-08T16:38:48.928Z</time></trkpt><trkpt lat="42.4047166" lon="13.0588984"><ele>470.0</ele><time>2026-04-08T16:38:49.926Z</time></trkpt><trkpt lat="42.4048094" lon="13.0591456"><ele>470.0</ele><time>2026-04-08T16:38:50.929Z</time></trkpt><trkpt lat="42.4048978" lon="13.0593955"><ele>470.0</ele><time>2026-04-08T16:38:51.927Z</time></trkpt><trkpt lat="42.4049878" lon="13.0596456"><ele>470.0</ele><time>2026-04-08T16:38:52.929Z</time></trkpt><trkpt lat="42.4050817" lon="13.059891"><ele>471.3333333333333</ele><time>2026-04-08T16:38:53.929Z</time></trkpt><trkpt lat="42.4051741" lon="13.0601321"><ele>472.66666666666663</ele><time>2026-04-08T16:38:54.929Z</time></trkpt><trkpt lat="42.4052587" lon="13.0603695"><ele>474.0</ele><time>2026-04-08T16:38:55.93Z</time></trkpt><trkpt lat="42.4053388" lon="13.0606058"><ele>475.0</ele><time>2026-04-08T16:38:56.929Z</time></trkpt><trkpt lat="42.4054168" lon="13.0608232"><ele>476.0</ele><time>2026-04-08T16:38:57.931Z</time></trkpt><trkpt lat="42.4054935" lon="13.0610438"><ele>477.0</ele><time>2026-04-08T16:38:58.929Z</time></trkpt><trkpt lat="42.4055744" lon="13.0612616"><ele>474.33333333333337</ele><time>2026-04-08T16:38:59.927Z</time></trkpt><trkpt lat="42.4056598" lon="13.0614806"><ele>471.6666666666667</ele><time>2026-04-08T16:39:00.928Z</time></trkpt><trkpt lat="42.4057434" lon="13.0617009"><ele>469.0</ele><time>2026-04-08T16:39:01.927Z</time></trkpt><trkpt lat="42.4058249" lon="13.0619217"><ele>469.0</ele><time>2026-04-08T16:39:02.93Z</time></trkpt><trkpt lat="42.4058982" lon="13.0621482"><ele>469.0</ele><time>2026-04-08T16:39:03.928Z</time></trkpt><trkpt lat="42.405964" lon="13.0623824"><ele>469.0</ele><time>2026-04-08T16:39:04.931Z</time></trkpt><trkpt lat="42.4060229" lon="13.0626158"><ele>471.33333333333337</ele><time>2026-04-08T16:39:05.929Z</time></trkpt><trkpt lat="42.4060855" lon="13.0628501"><ele>473.66666666666663</ele><time>2026-04-08T16:39:06.929Z</time></trkpt><trkpt lat="42.4061539" lon="13.0630754"><ele>476.0</ele><time>2026-04-08T16:39:07.929Z</time></trkpt><trkpt lat="42.4062246" lon="13.0633089"><ele>475.0</ele><time>2026-04-08T16:39:08.929Z</time></trkpt><trkpt lat="42.4063011" lon="13.0635341"><ele>474.0</ele><time>2026-04-08T16:39:09.929Z</time></trkpt><trkpt lat="42.4063933" lon="13.0637552"><ele>473.0</ele><time>2026-04-08T16:39:10.928Z</time></trkpt><trkpt lat="42.4064849" lon="13.0639759"><ele>474.0</ele><time>2026-04-08T16:39:11.926Z</time></trkpt><trkpt lat="42.4065861" lon="13.0642003"><ele>475.0</ele><time>2026-04-08T16:39:12.928Z</time></trkpt><trkpt lat="42.4066894" lon="13.0644273"><ele>476.0</ele><time>2026-04-08T16:39:13.929Z</time></trkpt><trkpt lat="42.4067943" lon="13.0646554"><ele>476.0</ele><time>2026-04-08T16:39:14.928Z</time></trkpt><trkpt lat="42.4068964" lon="13.0648856"><ele>476.0</ele><time>2026-04-08T16:39:15.928Z</time></trkpt><trkpt lat="42.4069963" lon="13.0651071"><ele>476.0</ele><time>2026-04-08T16:39:16.929Z</time></trkpt><trkpt lat="42.4070909" lon="13.0653267"><ele>475.3333333333333</ele><time>2026-04-08T16:39:17.929Z</time></trkpt><trkpt lat="42.4071859" lon="13.0655434"><ele>474.66666666666663</ele><time>2026-04-08T16:39:18.928Z</time></trkpt><trkpt lat="42.4072813" lon="13.0657577"><ele>474.0</ele><time>2026-04-08T16:39:19.927Z</time></trkpt><trkpt lat="42.4073777" lon="13.0659714"><ele>474.0</ele><time>2026-04-08T16:39:20.928Z</time></trkpt><trkpt lat="42.4074733" lon="13.0661851"><ele>474.0</ele><time>2026-04-08T16:39:21.93Z</time></trkpt><trkpt lat="42.4075691" lon="13.0663995"><ele>474.0</ele><time>2026-04-08T16:39:22.929Z</time></trkpt><trkpt lat="42.4076649" lon="13.0666171"><ele>473.66666666666663</ele><time>2026-04-08T16:39:23.93Z</time></trkpt><trkpt lat="42.4077609" lon="13.0668406"><ele>473.3333333333333</ele><time>2026-04-08T16:39:24.928Z</time></trkpt><trkpt lat="42.407862" lon="13.067063"><ele>473.0</ele><time>2026-04-08T16:39:25.927Z</time></trkpt><trkpt lat="42.4079616" lon="13.0672904"><ele>473.66666666666663</ele><time>2026-04-08T16:39:26.941Z</time></trkpt><trkpt lat="42.4080565" lon="13.0675204"><ele>474.33333333333337</ele><time>2026-04-08T16:39:27.931Z</time></trkpt><trkpt lat="42.4081564" lon="13.0677552"><ele>475.0</ele><time>2026-04-08T16:39:28.93Z</time></trkpt><trkpt lat="42.408258" lon="13.0679778"><ele>475.0</ele><time>2026-04-08T16:39:29.929Z</time></trkpt><trkpt lat="42.408356" lon="13.0682051"><ele>475.0</ele><time>2026-04-08T16:39:30.926Z</time></trkpt><trkpt lat="42.4084493" lon="13.0684332"><ele>475.0</ele><time>2026-04-08T16:39:31.928Z</time></trkpt><trkpt lat="42.4085317" lon="13.0686647"><ele>477.0</ele><time>2026-04-08T16:39:32.928Z</time></trkpt><trkpt lat="42.4086033" lon="13.0688993"><ele>479.0</ele><time>2026-04-08T16:39:33.93Z</time></trkpt><trkpt lat="42.4086737" lon="13.0691342"><ele>481.0</ele><time>2026-04-08T16:39:34.926Z</time></trkpt><trkpt lat="42.4087432" lon="13.069367"><ele>480.6666666666667</ele><time>2026-04-08T16:39:35.93Z</time></trkpt><trkpt lat="42.4088112" lon="13.0695942"><ele>480.33333333333337</ele><time>2026-04-08T16:39:36.93Z</time></trkpt><trkpt lat="42.4088767" lon="13.069816"><ele>480.0</ele><time>2026-04-08T16:39:37.928Z</time></trkpt><trkpt lat="42.4089415" lon="13.0700342"><ele>480.0</ele><time>2026-04-08T16:39:38.929Z</time></trkpt><trkpt lat="42.4090093" lon="13.0702518"><ele>480.0</ele><time>2026-04-08T16:39:39.928Z</time></trkpt><trkpt lat="42.4090753" lon="13.0704631"><ele>480.0</ele><time>2026-04-08T16:39:40.927Z</time></trkpt><trkpt lat="42.4091392" lon="13.0706784"><ele>481.33333333333337</ele><time>2026-04-08T16:39:41.93Z</time></trkpt><trkpt lat="42.4092027" lon="13.0708769"><ele>482.6666666666667</ele><time>2026-04-08T16:39:42.929Z</time></trkpt><trkpt lat="42.4092654" lon="13.0710803"><ele>484.0</ele><time>2026-04-08T16:39:43.928Z</time></trkpt><trkpt lat="42.4093234" lon="13.0712863"><ele>484.0</ele><time>2026-04-08T16:39:44.93Z</time></trkpt><trkpt lat="42.4093928" lon="13.0714955"><ele>484.0</ele><time>2026-04-08T16:39:45.927Z</time></trkpt><trkpt lat="42.4094713" lon="13.071703"><ele>484.0</ele><time>2026-04-08T16:39:46.929Z</time></trkpt><trkpt lat="42.409566" lon="13.0719081"><ele>482.6666666666667</ele><time>2026-04-08T16:39:47.929Z</time></trkpt><trkpt lat="42.4096643" lon="13.0721067"><ele>481.33333333333337</ele><time>2026-04-08T16:39:48.926Z</time></trkpt><trkpt lat="42.4097675" lon="13.072298"><ele>480.0</ele><time>2026-04-08T16:39:49.927Z</time></trkpt><trkpt lat="42.4098759" lon="13.0724875"><ele>480.0</ele><time>2026-04-08T16:39:50.928Z</time></trkpt><trkpt lat="42.4099825" lon="13.072668"><ele>480.0</ele><time>2026-04-08T16:39:51.93Z</time></trkpt><trkpt lat="42.4100912" lon="13.0728481"><ele>480.0</ele><time>2026-04-08T16:39:52.927Z</time></trkpt><trkpt lat="42.4102127" lon="13.0730239"><ele>480.0</ele><time>2026-04-08T16:39:53.927Z</time></trkpt><trkpt lat="42.4103462" lon="13.0731869"><ele>480.0</ele><time>2026-04-08T16:39:54.927Z</time></trkpt><trkpt lat="42.4104938" lon="13.0733254"><ele>480.0</ele><time>2026-04-08T16:39:55.927Z</time></trkpt><trkpt lat="42.4106519" lon="13.0734419"><ele>479.0</ele><time>2026-04-08T16:39:56.928Z</time></trkpt><trkpt lat="42.4108208" lon="13.0735467"><ele>478.0</ele><time>2026-04-08T16:39:57.928Z</time></trkpt><trkpt lat="42.4109923" lon="13.0736488"><ele>477.0</ele><time>2026-04-08T16:39:58.928Z</time></trkpt><trkpt lat="42.4111628" lon="13.0737456"><ele>476.0</ele><time>2026-04-08T16:39:59.928Z</time></trkpt><trkpt lat="42.4113249" lon="13.0738408"><ele>475.0</ele><time>2026-04-08T16:40:00.926Z</time></trkpt><trkpt lat="42.4114853" lon="13.0739299"><ele>474.0</ele><time>2026-04-08T16:40:01.928Z</time></trkpt><trkpt lat="42.4116395" lon="13.0740203"><ele>474.0</ele><time>2026-04-08T16:40:02.927Z</time></trkpt><trkpt lat="42.4117919" lon="13.0740989"><ele>474.0</ele><time>2026-04-08T16:40:03.927Z</time></trkpt><trkpt lat="42.4119481" lon="13.0741879"><ele>474.0</ele><time>2026-04-08T16:40:04.928Z</time></trkpt><trkpt lat="42.4121089" lon="13.0742898"><ele>474.33333333333337</ele><time>2026-04-08T16:40:05.927Z</time></trkpt><trkpt lat="42.4122763" lon="13.0743934"><ele>474.6666666666667</ele><time>2026-04-08T16:40:06.929Z</time></trkpt><trkpt lat="42.4124389" lon="13.074496"><ele>475.0</ele><time>2026-04-08T16:40:07.929Z</time></trkpt><trkpt lat="42.4126041" lon="13.0746044"><ele>475.0</ele><time>2026-04-08T16:40:08.931Z</time></trkpt><trkpt lat="42.4127641" lon="13.0747058"><ele>475.0</ele><time>2026-04-08T16:40:09.93Z</time></trkpt><trkpt lat="42.4129215" lon="13.0748036"><ele>475.0</ele><time>2026-04-08T16:40:10.929Z</time></trkpt><trkpt lat="42.4130722" lon="13.0748997"><ele>477.33333333333337</ele><time>2026-04-08T16:40:11.929Z</time></trkpt><trkpt lat="42.4132149" lon="13.0749983"><ele>479.66666666666663</ele><time>2026-04-08T16:40:12.928Z</time></trkpt><trkpt lat="42.4133456" lon="13.0750847"><ele>482.0</ele><time>2026-04-08T16:40:13.926Z</time></trkpt><trkpt lat="42.413476" lon="13.0751726"><ele>482.0</ele><time>2026-04-08T16:40:14.932Z</time></trkpt><trkpt lat="42.413596" lon="13.0752535"><ele>482.0</ele><time>2026-04-08T16:40:15.928Z</time></trkpt><trkpt lat="42.4137203" lon="13.0753393"><ele>482.0</ele><time>2026-04-08T16:40:16.928Z</time></trkpt><trkpt lat="42.4138427" lon="13.0754404"><ele>482.0</ele><time>2026-04-08T16:40:17.928Z</time></trkpt><trkpt lat="42.4139669" lon="13.0755508"><ele>483.3333333333333</ele><time>2026-04-08T16:40:18.928Z</time></trkpt><trkpt lat="42.4140835" lon="13.0756877"><ele>484.66666666666663</ele><time>2026-04-08T16:40:19.928Z</time></trkpt><trkpt lat="42.4141907" lon="13.075845"><ele>486.0</ele><time>2026-04-08T16:40:20.93Z</time></trkpt><trkpt lat="42.4142851" lon="13.0760163"><ele>486.0</ele><time>2026-04-08T16:40:21.928Z</time></trkpt><trkpt lat="42.4143712" lon="13.0762002"><ele>486.0</ele><time>2026-04-08T16:40:22.932Z</time></trkpt><trkpt lat="42.4144365" lon="13.0763869"><ele>486.0</ele><time>2026-04-08T16:40:23.928Z</time></trkpt><trkpt lat="42.4144846" lon="13.0765779"><ele>489.5</ele><time>2026-04-08T16:40:24.933Z</time></trkpt><trkpt lat="42.4145087" lon="13.0767711"><ele>493.0</ele><time>2026-04-08T16:40:25.929Z</time></trkpt><trkpt lat="42.4145166" lon="13.076968"><ele>496.5</ele><time>2026-04-08T16:40:26.928Z</time></trkpt><trkpt lat="42.4144984" lon="13.0771721"><ele>500.0</ele><time>2026-04-08T16:40:27.927Z</time></trkpt><trkpt lat="42.4144835" lon="13.0773818"><ele>503.0</ele><time>2026-04-08T16:40:28.933Z</time></trkpt><trkpt lat="42.4144668" lon="13.0775923"><ele>506.0</ele><time>2026-04-08T16:40:29.929Z</time></trkpt><trkpt lat="42.4144501" lon="13.0778044"><ele>509.0</ele><time>2026-04-08T16:40:30.93Z</time></trkpt><trkpt lat="42.4144374" lon="13.0780186"><ele>509.0</ele><time>2026-04-08T16:40:31.93Z</time></trkpt><trkpt lat="42.4144238" lon="13.0782293"><ele>509.0</ele><time>2026-04-08T16:40:32.926Z</time></trkpt><trkpt lat="42.4144129" lon="13.0784441"><ele>509.0</ele><time>2026-04-08T16:40:33.927Z</time></trkpt><trkpt lat="42.4144042" lon="13.0786567"><ele>511.3333333333333</ele><time>2026-04-08T16:40:34.929Z</time></trkpt><trkpt lat="42.4143953" lon="13.0788682"><ele>513.6666666666666</ele><time>2026-04-08T16:40:35.927Z</time></trkpt><trkpt lat="42.414394" lon="13.0790738"><ele>516.0</ele><time>2026-04-08T16:40:36.93Z</time></trkpt><trkpt lat="42.4144224" lon="13.0792796"><ele>516.3333333333334</ele><time>2026-04-08T16:40:37.928Z</time></trkpt><trkpt lat="42.4144674" lon="13.0794793"><ele>516.6666666666667</ele><time>2026-04-08T16:40:38.929Z</time></trkpt><trkpt lat="42.4145333" lon="13.0796594"><ele>517.0</ele><time>2026-04-08T16:40:39.928Z</time></trkpt><trkpt lat="42.4146254" lon="13.079825"><ele>504.33333333333337</ele><time>2026-04-08T16:40:40.929Z</time></trkpt><trkpt lat="42.4147323" lon="13.079977"><ele>491.66666666666663</ele><time>2026-04-08T16:40:41.926Z</time></trkpt><trkpt lat="42.4148616" lon="13.0801113"><ele>479.0</ele><time>2026-04-08T16:40:42.927Z</time></trkpt><trkpt lat="42.4149973" lon="13.0802337"><ele>479.0</ele><time>2026-04-08T16:40:43.927Z</time></trkpt><trkpt lat="42.4151286" lon="13.0803441"><ele>479.0</ele><time>2026-04-08T16:40:44.928Z</time></trkpt><trkpt lat="42.4152608" lon="13.0804531"><ele>479.0</ele><time>2026-04-08T16:40:45.928Z</time></trkpt><trkpt lat="42.4153867" lon="13.0805578"><ele>479.25</ele><time>2026-04-08T16:40:46.929Z</time></trkpt><trkpt lat="42.4155098" lon="13.0806547"><ele>479.5</ele><time>2026-04-08T16:40:47.929Z</time></trkpt><trkpt lat="42.4156289" lon="13.080752"><ele>479.75</ele><time>2026-04-08T16:40:48.929Z</time></trkpt><trkpt lat="42.4157468" lon="13.0808473"><ele>480.0</ele><time>2026-04-08T16:40:49.931Z</time></trkpt><trkpt lat="42.4158639" lon="13.0809392"><ele>480.0</ele><time>2026-04-08T16:40:50.928Z</time></trkpt><trkpt lat="42.4159768" lon="13.0810184"><ele>480.0</ele><time>2026-04-08T16:40:51.93Z</time></trkpt><trkpt lat="42.4160824" lon="13.0810873"><ele>480.0</ele><time>2026-04-08T16:40:52.928Z</time></trkpt><trkpt lat="42.4161783" lon="13.0811448"><ele>480.0</ele><time>2026-04-08T16:40:53.931Z</time></trkpt><trkpt lat="42.4162724" lon="13.0812006"><ele>480.4</ele><time>2026-04-08T16:40:54.928Z</time></trkpt><trkpt lat="42.4163746" lon="13.0812482"><ele>480.8</ele><time>2026-04-08T16:40:55.928Z</time></trkpt><trkpt lat="42.4164775" lon="13.0812914"><ele>481.20000000000005</ele><time>2026-04-08T16:40:56.93Z</time></trkpt><trkpt lat="42.4165759" lon="13.0813417"><ele>481.6</ele><time>2026-04-08T16:40:57.928Z</time></trkpt><trkpt lat="42.4166788" lon="13.0813904"><ele>482.0</ele><time>2026-04-08T16:40:58.939Z</time></trkpt><trkpt lat="42.4167779" lon="13.0814375"><ele>482.0</ele><time>2026-04-08T16:40:59.926Z</time></trkpt><trkpt lat="42.4168872" lon="13.0814812"><ele>482.0</ele><time>2026-04-08T16:41:00.925Z</time></trkpt><trkpt lat="42.4169931" lon="13.0815294"><ele>482.0</ele><time>2026-04-08T16:41:01.93Z</time></trkpt><trkpt lat="42.4171044" lon="13.0815713"><ele>482.0</ele><time>2026-04-08T16:41:02.926Z</time></trkpt><trkpt lat="42.4172238" lon="13.081604"><ele>482.75</ele><time>2026-04-08T16:41:03.928Z</time></trkpt><trkpt lat="42.4173569" lon="13.0816166"><ele>483.5</ele><time>2026-04-08T16:41:04.927Z</time></trkpt><trkpt lat="42.4174943" lon="13.0816342"><ele>484.25</ele><time>2026-04-08T16:41:05.926Z</time></trkpt><trkpt lat="42.4176317" lon="13.0816449"><ele>485.0</ele><time>2026-04-08T16:41:06.928Z</time></trkpt><trkpt lat="42.4177646" lon="13.0816501"><ele>485.0</ele><time>2026-04-08T16:41:07.929Z</time></trkpt><trkpt lat="42.4179005" lon="13.0816569"><ele>485.0</ele><time>2026-04-08T16:41:08.928Z</time></trkpt><trkpt lat="42.4180274" lon="13.0816568"><ele>485.0</ele><time>2026-04-08T16:41:09.926Z</time></trkpt><trkpt lat="42.4181432" lon="13.081663"><ele>485.0</ele><time>2026-04-08T16:41:10.928Z</time></trkpt><trkpt lat="42.4182607" lon="13.0816566"><ele>485.0</ele><time>2026-04-08T16:41:11.927Z</time></trkpt><trkpt lat="42.4183845" lon="13.0816316"><ele>485.0</ele><time>2026-04-08T16:41:12.927Z</time></trkpt><trkpt lat="42.418501" lon="13.0816296"><ele>485.0</ele><time>2026-04-08T16:41:13.927Z</time></trkpt><trkpt lat="42.4186263" lon="13.0816066"><ele>485.0</ele><time>2026-04-08T16:41:14.929Z</time></trkpt><trkpt lat="42.418752" lon="13.0815912"><ele>485.0</ele><time>2026-04-08T16:41:15.933Z</time></trkpt><trkpt lat="42.4188837" lon="13.0815652"><ele>485.0</ele><time>2026-04-08T16:41:16.928Z</time></trkpt><trkpt lat="42.4190155" lon="13.081523"><ele>485.0</ele><time>2026-04-08T16:41:17.927Z</time></trkpt><trkpt lat="42.4191452" lon="13.081469"><ele>485.0</ele><time>2026-04-08T16:41:18.927Z</time></trkpt><trkpt lat="42.4192912" lon="13.0814159"><ele>485.0</ele><time>2026-04-08T16:41:19.929Z</time></trkpt><trkpt lat="42.4194355" lon="13.0813584"><ele>485.0</ele><time>2026-04-08T16:41:20.928Z</time></trkpt><trkpt lat="42.4195795" lon="13.081298"><ele>485.0</ele><time>2026-04-08T16:41:21.929Z</time></trkpt><trkpt lat="42.4197403" lon="13.0812462"><ele>487.3333333333333</ele><time>2026-04-08T16:41:22.929Z</time></trkpt><trkpt lat="42.4199019" lon="13.0811853"><ele>489.66666666666663</ele><time>2026-04-08T16:41:23.929Z</time></trkpt><trkpt lat="42.4200639" lon="13.0811101"><ele>492.0</ele><time>2026-04-08T16:41:24.929Z</time></trkpt><trkpt lat="42.4202244" lon="13.0810238"><ele>492.0</ele><time>2026-04-08T16:41:25.928Z</time></trkpt><trkpt lat="42.4203711" lon="13.0809354"><ele>492.0</ele><time>2026-04-08T16:41:26.926Z</time></trkpt><trkpt lat="42.4205056" lon="13.0808421"><ele>492.0</ele><time>2026-04-08T16:41:27.924Z</time></trkpt><trkpt lat="42.4206269" lon="13.0807489"><ele>491.6</ele><time>2026-04-08T16:41:28.928Z</time></trkpt><trkpt lat="42.4207295" lon="13.0806629"><ele>491.20000000000005</ele><time>2026-04-08T16:41:29.931Z</time></trkpt><trkpt lat="42.4208171" lon="13.0805881"><ele>490.8</ele><time>2026-04-08T16:41:30.926Z</time></trkpt><trkpt lat="42.4208772" lon="13.0805536"><ele>490.4</ele><time>2026-04-08T16:41:31.928Z</time></trkpt><trkpt lat="42.4209474" lon="13.080616"><ele>490.0</ele><time>2026-04-08T16:41:33.927Z</time></trkpt><trkpt lat="42.420915" lon="13.0807126"><ele>492.2</ele><time>2026-04-08T16:41:35.931Z</time></trkpt><trkpt lat="42.42081" lon="13.0808284"><ele>494.4</ele><time>2026-04-08T16:41:37.928Z</time></trkpt><trkpt lat="42.4207401" lon="13.0808983"><ele>496.6</ele><time>2026-04-08T16:41:38.925Z</time></trkpt><trkpt lat="42.4206729" lon="13.0809744"><ele>498.8</ele><time>2026-04-08T16:41:39.927Z</time></trkpt><trkpt lat="42.4205939" lon="13.0810593"><ele>501.0</ele><time>2026-04-08T16:41:40.926Z</time></trkpt><trkpt lat="42.4205069" lon="13.0811467"><ele>498.0</ele><time>2026-04-08T16:41:41.926Z</time></trkpt><trkpt lat="42.420308" lon="13.0813114"><ele>495.0</ele><time>2026-04-08T16:41:43.93Z</time></trkpt><trkpt lat="42.4201977" lon="13.0813928"><ele>492.0</ele><time>2026-04-08T16:41:44.929Z</time></trkpt><trkpt lat="42.4200816" lon="13.0814568"><ele>492.0</ele><time>2026-04-08T16:41:45.928Z</time></trkpt><trkpt lat="42.4199634" lon="13.0815258"><ele>492.0</ele><time>2026-04-08T16:41:46.929Z</time></trkpt><trkpt lat="42.419843" lon="13.0815967"><ele>492.0</ele><time>2026-04-08T16:41:47.929Z</time></trkpt><trkpt lat="42.4197125" lon="13.0816678"><ele>492.0</ele><time>2026-04-08T16:41:48.928Z</time></trkpt><trkpt lat="42.4195765" lon="13.0817415"><ele>493.0</ele><time>2026-04-08T16:41:49.928Z</time></trkpt><trkpt lat="42.4194369" lon="13.0818167"><ele>494.0</ele><time>2026-04-08T16:41:50.926Z</time></trkpt><trkpt lat="42.4192955" lon="13.0818946"><ele>495.0</ele><time>2026-04-08T16:41:51.928Z</time></trkpt><trkpt lat="42.4191511" lon="13.0819721"><ele>495.0</ele><time>2026-04-08T16:41:52.927Z</time></trkpt><trkpt lat="42.4190049" lon="13.0820484"><ele>495.0</ele><time>2026-04-08T16:41:53.926Z</time></trkpt><trkpt lat="42.4188655" lon="13.0821259"><ele>495.0</ele><time>2026-04-08T16:41:54.927Z</time></trkpt><trkpt lat="42.4187277" lon="13.0822025"><ele>493.25</ele><time>2026-04-08T16:41:55.928Z</time></trkpt><trkpt lat="42.4185882" lon="13.0822741"><ele>491.5</ele><time>2026-04-08T16:41:56.928Z</time></trkpt><trkpt lat="42.4184518" lon="13.0823332"><ele>489.75</ele><time>2026-04-08T16:41:57.93Z</time></trkpt><trkpt lat="42.4183222" lon="13.0823786"><ele>488.0</ele><time>2026-04-08T16:41:58.93Z</time></trkpt><trkpt lat="42.4182071" lon="13.082409"><ele>491.0</ele><time>2026-04-08T16:41:59.929Z</time></trkpt><trkpt lat="42.4180907" lon="13.0824406"><ele>494.0</ele><time>2026-04-08T16:42:00.929Z</time></trkpt><trkpt lat="42.4179773" lon="13.0824832"><ele>497.0</ele><time>2026-04-08T16:42:01.928Z</time></trkpt><trkpt lat="42.4178758" lon="13.082549"><ele>500.0</ele><time>2026-04-08T16:42:02.929Z</time></trkpt><trkpt lat="42.4177967" lon="13.082644"><ele>500.0</ele><time>2026-04-08T16:42:03.93Z</time></trkpt><trkpt lat="42.4177462" lon="13.0827621"><ele>500.0</ele><time>2026-04-08T16:42:04.927Z</time></trkpt><trkpt lat="42.4177342" lon="13.0828932"><ele>500.0</ele><time>2026-04-08T16:42:05.928Z</time></trkpt><trkpt lat="42.4177596" lon="13.083025"><ele>500.0</ele><time>2026-04-08T16:42:06.927Z</time></trkpt><trkpt lat="42.417812" lon="13.0831387"><ele>500.0</ele><time>2026-04-08T16:42:07.928Z</time></trkpt><trkpt lat="42.4178845" lon="13.0832155"><ele>500.0</ele><time>2026-04-08T16:42:08.927Z</time></trkpt><trkpt lat="42.4179771" lon="13.083252"><ele>500.0</ele><time>2026-04-08T16:42:09.928Z</time></trkpt><trkpt lat="42.4180828" lon="13.0832414"><ele>500.0</ele><time>2026-04-08T16:42:10.927Z</time></trkpt><trkpt lat="42.4181954" lon="13.0831997"><ele>500.0</ele><time>2026-04-08T16:42:11.928Z</time></trkpt><trkpt lat="42.4183183" lon="13.0831201"><ele>502.66666666666663</ele><time>2026-04-08T16:42:12.929Z</time></trkpt><trkpt lat="42.4184527" lon="13.0830389"><ele>505.33333333333337</ele><time>2026-04-08T16:42:13.926Z</time></trkpt><trkpt lat="42.4185991" lon="13.082954"><ele>508.0</ele><time>2026-04-08T16:42:14.927Z</time></trkpt><trkpt lat="42.4187544" lon="13.0828648"><ele>512.0</ele><time>2026-04-08T16:42:15.931Z</time></trkpt><trkpt lat="42.4189006" lon="13.0827731"><ele>516.0</ele><time>2026-04-08T16:42:16.928Z</time></trkpt><trkpt lat="42.4190485" lon="13.0826832"><ele>520.0</ele><time>2026-04-08T16:42:17.925Z</time></trkpt><trkpt lat="42.4192067" lon="13.0826113"><ele>520.0</ele><time>2026-04-08T16:42:18.926Z</time></trkpt><trkpt lat="42.4193683" lon="13.0825545"><ele>520.0</ele><time>2026-04-08T16:42:19.928Z</time></trkpt><trkpt lat="42.4195343" lon="13.0825248"><ele>520.0</ele><time>2026-04-08T16:42:20.929Z</time></trkpt><trkpt lat="42.4197" lon="13.082529"><ele>522.3333333333334</ele><time>2026-04-08T16:42:21.929Z</time></trkpt><trkpt lat="42.4198728" lon="13.0825428"><ele>524.6666666666666</ele><time>2026-04-08T16:42:22.926Z</time></trkpt><trkpt lat="42.4200456" lon="13.0825669"><ele>527.0</ele><time>2026-04-08T16:42:23.926Z</time></trkpt><trkpt lat="42.4202221" lon="13.0825853"><ele>527.0</ele><time>2026-04-08T16:42:24.926Z</time></trkpt><trkpt lat="42.4203975" lon="13.0826126"><ele>527.0</ele><time>2026-04-08T16:42:25.926Z</time></trkpt><trkpt lat="42.4205754" lon="13.082622"><ele>527.0</ele><time>2026-04-08T16:42:26.929Z</time></trkpt><trkpt lat="42.4207501" lon="13.0826061"><ele>529.0</ele><time>2026-04-08T16:42:27.924Z</time></trkpt><trkpt lat="42.4209189" lon="13.0825489"><ele>531.0</ele><time>2026-04-08T16:42:28.924Z</time></trkpt><trkpt lat="42.4210752" lon="13.0824549"><ele>533.0</ele><time>2026-04-08T16:42:29.926Z</time></trkpt><trkpt lat="42.4212142" lon="13.0823096"><ele>531.6666666666666</ele><time>2026-04-08T16:42:30.928Z</time></trkpt><trkpt lat="42.4213347" lon="13.082159"><ele>530.3333333333334</ele><time>2026-04-08T16:42:31.929Z</time></trkpt><trkpt lat="42.4214417" lon="13.0819883"><ele>529.0</ele><time>2026-04-08T16:42:32.927Z</time></trkpt><trkpt lat="42.4215453" lon="13.0818127"><ele>529.0</ele><time>2026-04-08T16:42:33.927Z</time></trkpt><trkpt lat="42.421646" lon="13.0816464"><ele>529.0</ele><time>2026-04-08T16:42:34.929Z</time></trkpt><trkpt lat="42.4217372" lon="13.0814919"><ele>529.0</ele><time>2026-04-08T16:42:35.928Z</time></trkpt><trkpt lat="42.4218255" lon="13.0813504"><ele>529.0</ele><time>2026-04-08T16:42:36.927Z</time></trkpt><trkpt lat="42.4219138" lon="13.0812393"><ele>530.0</ele><time>2026-04-08T16:42:37.929Z</time></trkpt><trkpt lat="42.4220045" lon="13.081133"><ele>531.0</ele><time>2026-04-08T16:42:38.927Z</time></trkpt><trkpt lat="42.4221229" lon="13.0811356"><ele>532.0</ele><time>2026-04-08T16:42:39.925Z</time></trkpt><trkpt lat="42.4222242" lon="13.0811398"><ele>533.0</ele><time>2026-04-08T16:42:40.927Z</time></trkpt><trkpt lat="42.4223221" lon="13.0811881"><ele>534.0</ele><time>2026-04-08T16:42:41.927Z</time></trkpt><trkpt lat="42.4224028" lon="13.081277"><ele>534.0</ele><time>2026-04-08T16:42:42.927Z</time></trkpt><trkpt lat="42.4224635" lon="13.081417"><ele>534.0</ele><time>2026-04-08T16:42:43.928Z</time></trkpt><trkpt lat="42.4224916" lon="13.0815614"><ele>534.0</ele><time>2026-04-08T16:42:44.927Z</time></trkpt><trkpt lat="42.422469" lon="13.0817074"><ele>534.0</ele><time>2026-04-08T16:42:45.928Z</time></trkpt><trkpt lat="42.4224378" lon="13.0818539"><ele>532.3333333333334</ele><time>2026-04-08T16:42:46.929Z</time></trkpt><trkpt lat="42.4223363" lon="13.081986"><ele>530.6666666666667</ele><time>2026-04-08T16:42:47.929Z</time></trkpt><trkpt lat="42.4221943" lon="13.0821119"><ele>529.0</ele><time>2026-04-08T16:42:48.929Z</time></trkpt><trkpt lat="42.4220476" lon="13.0822504"><ele>529.0</ele><time>2026-04-08T16:42:49.929Z</time></trkpt><trkpt lat="42.4218983" lon="13.082394"><ele>529.0</ele><time>2026-04-08T16:42:50.927Z</time></trkpt><trkpt lat="42.4217569" lon="13.0825387"><ele>529.0</ele><time>2026-04-08T16:42:51.926Z</time></trkpt><trkpt lat="42.4216104" lon="13.0826824"><ele>530.3333333333334</ele><time>2026-04-08T16:42:52.927Z</time></trkpt><trkpt lat="42.4214605" lon="13.0828244"><ele>531.6666666666666</ele><time>2026-04-08T16:42:53.93Z</time></trkpt><trkpt lat="42.4213096" lon="13.0829459"><ele>533.0</ele><time>2026-04-08T16:42:54.929Z</time></trkpt><trkpt lat="42.4211518" lon="13.0830533"><ele>533.0</ele><time>2026-04-08T16:42:55.929Z</time></trkpt><trkpt lat="42.4209869" lon="13.0831377"><ele>533.0</ele><time>2026-04-08T16:42:56.928Z</time></trkpt><trkpt lat="42.4208151" lon="13.0832008"><ele>533.0</ele><time>2026-04-08T16:42:57.928Z</time></trkpt><trkpt lat="42.4206389" lon="13.0832502"><ele>538.6666666666666</ele><time>2026-04-08T16:42:58.928Z</time></trkpt><trkpt lat="42.4204601" lon="13.083292"><ele>544.3333333333334</ele><time>2026-04-08T16:42:59.926Z</time></trkpt><trkpt lat="42.4202788" lon="13.0833424"><ele>550.0</ele><time>2026-04-08T16:43:00.927Z</time></trkpt><trkpt lat="42.4200966" lon="13.0833904"><ele>550.0</ele><time>2026-04-08T16:43:01.929Z</time></trkpt><trkpt lat="42.4199168" lon="13.0834429"><ele>550.0</ele><time>2026-04-08T16:43:02.928Z</time></trkpt><trkpt lat="42.4197482" lon="13.0835086"><ele>550.0</ele><time>2026-04-08T16:43:03.927Z</time></trkpt><trkpt lat="42.4195956" lon="13.0835888"><ele>548.0</ele><time>2026-04-08T16:43:04.926Z</time></trkpt><trkpt lat="42.4194656" lon="13.0837177"><ele>546.0</ele><time>2026-04-08T16:43:05.928Z</time></trkpt><trkpt lat="42.419345" lon="13.083883"><ele>544.0</ele><time>2026-04-08T16:43:06.93Z</time></trkpt><trkpt lat="42.4192242" lon="13.0840567"><ele>550.0</ele><time>2026-04-08T16:43:07.929Z</time></trkpt><trkpt lat="42.4191026" lon="13.0842254"><ele>556.0</ele><time>2026-04-08T16:43:08.928Z</time></trkpt><trkpt lat="42.4189781" lon="13.0843794"><ele>562.0</ele><time>2026-04-08T16:43:09.928Z</time></trkpt><trkpt lat="42.4188449" lon="13.0844995"><ele>558.6666666666667</ele><time>2026-04-08T16:43:10.928Z</time></trkpt><trkpt lat="42.4187057" lon="13.0845833"><ele>555.3333333333334</ele><time>2026-04-08T16:43:11.928Z</time></trkpt><trkpt lat="42.4185439" lon="13.0846476"><ele>552.0</ele><time>2026-04-08T16:43:12.926Z</time></trkpt><trkpt lat="42.418377" lon="13.0846942"><ele>552.0</ele><time>2026-04-08T16:43:13.927Z</time></trkpt><trkpt lat="42.4182181" lon="13.0847531"><ele>552.0</ele><time>2026-04-08T16:43:14.926Z</time></trkpt><trkpt lat="42.4180787" lon="13.084817"><ele>552.0</ele><time>2026-04-08T16:43:15.927Z</time></trkpt><trkpt lat="42.4179442" lon="13.084844"><ele>552.0</ele><time>2026-04-08T16:43:16.928Z</time></trkpt><trkpt lat="42.4178143" lon="13.0848368"><ele>554.25</ele><time>2026-04-08T16:43:17.927Z</time></trkpt><trkpt lat="42.4177023" lon="13.0847306"><ele>556.5</ele><time>2026-04-08T16:43:18.93Z</time></trkpt><trkpt lat="42.4176047" lon="13.0846129"><ele>558.75</ele><time>2026-04-08T16:43:19.938Z</time></trkpt><trkpt lat="42.4175189" lon="13.0844727"><ele>561.0</ele><time>2026-04-08T16:43:20.927Z</time></trkpt><trkpt lat="42.4174375" lon="13.0843256"><ele>561.0</ele><time>2026-04-08T16:43:21.925Z</time></trkpt><trkpt lat="42.4173478" lon="13.0842004"><ele>561.0</ele><time>2026-04-08T16:43:22.928Z</time></trkpt><trkpt lat="42.4172328" lon="13.084108"><ele>561.0</ele><time>2026-04-08T16:43:23.93Z</time></trkpt><trkpt lat="42.4171089" lon="13.0840648"><ele>561.0</ele><time>2026-04-08T16:43:24.926Z</time></trkpt><trkpt lat="42.4169718" lon="13.0840553"><ele>564.3333333333334</ele><time>2026-04-08T16:43:25.926Z</time></trkpt><trkpt lat="42.4168278" lon="13.0840692"><ele>567.6666666666667</ele><time>2026-04-08T16:43:26.927Z</time></trkpt><trkpt lat="42.4166775" lon="13.0840997"><ele>571.0</ele><time>2026-04-08T16:43:27.928Z</time></trkpt><trkpt lat="42.4165251" lon="13.0841383"><ele>571.0</ele><time>2026-04-08T16:43:28.926Z</time></trkpt><trkpt lat="42.4163778" lon="13.0841793"><ele>571.0</ele><time>2026-04-08T16:43:29.929Z</time></trkpt><trkpt lat="42.4162434" lon="13.0842112"><ele>571.0</ele><time>2026-04-08T16:43:30.932Z</time></trkpt><trkpt lat="42.4161209" lon="13.0842614"><ele>571.0</ele><time>2026-04-08T16:43:31.928Z</time></trkpt><trkpt lat="42.4160114" lon="13.0843447"><ele>572.25</ele><time>2026-04-08T16:43:32.926Z</time></trkpt><trkpt lat="42.415925" lon="13.0844597"><ele>573.5</ele><time>2026-04-08T16:43:33.929Z</time></trkpt><trkpt lat="42.4158684" lon="13.0846082"><ele>574.75</ele><time>2026-04-08T16:43:34.928Z</time></trkpt><trkpt lat="42.4158348" lon="13.0847772"><ele>576.0</ele><time>2026-04-08T16:43:35.929Z</time></trkpt><trkpt lat="42.4158175" lon="13.0849491"><ele>576.0</ele><time>2026-04-08T16:43:36.934Z</time></trkpt><trkpt lat="42.4158119" lon="13.0851196"><ele>576.0</ele><time>2026-04-08T16:43:37.925Z</time></trkpt><trkpt lat="42.4158182" lon="13.085287"><ele>576.0</ele><time>2026-04-08T16:43:38.928Z</time></trkpt><trkpt lat="42.415817" lon="13.0854432"><ele>576.0</ele><time>2026-04-08T16:43:39.929Z</time></trkpt><trkpt lat="42.4157874" lon="13.085585"><ele>576.0</ele><time>2026-04-08T16:43:40.929Z</time></trkpt><trkpt lat="42.415691" lon="13.085694"><ele>576.0</ele><time>2026-04-08T16:43:41.927Z</time></trkpt><trkpt lat="42.4156056" lon="13.0858047"><ele>576.0</ele><time>2026-04-08T16:43:42.928Z</time></trkpt><trkpt lat="42.4155174" lon="13.0859209"><ele>576.0</ele><time>2026-04-08T16:43:43.927Z</time></trkpt><trkpt lat="42.415431" lon="13.0860498"><ele>579.5</ele><time>2026-04-08T16:43:44.928Z</time></trkpt><trkpt lat="42.415334" lon="13.0861949"><ele>583.0</ele><time>2026-04-08T16:43:45.926Z</time></trkpt><trkpt lat="42.4152324" lon="13.0863373"><ele>586.5</ele><time>2026-04-08T16:43:46.928Z</time></trkpt><trkpt lat="42.4151192" lon="13.0864813"><ele>590.0</ele><time>2026-04-08T16:43:47.926Z</time></trkpt><trkpt lat="42.4149871" lon="13.0866027"><ele>590.0</ele><time>2026-04-08T16:43:48.928Z</time></trkpt><trkpt lat="42.4148386" lon="13.0867042"><ele>590.0</ele><time>2026-04-08T16:43:49.93Z</time></trkpt><trkpt lat="42.41468" lon="13.0867902"><ele>590.0</ele><time>2026-04-08T16:43:50.927Z</time></trkpt><trkpt lat="42.4145207" lon="13.0868715"><ele>585.6666666666666</ele><time>2026-04-08T16:43:51.928Z</time></trkpt><trkpt lat="42.4143596" lon="13.0869694"><ele>581.3333333333334</ele><time>2026-04-08T16:43:52.927Z</time></trkpt><trkpt lat="42.4142054" lon="13.0870952"><ele>577.0</ele><time>2026-04-08T16:43:53.93Z</time></trkpt><trkpt lat="42.4140525" lon="13.0872479"><ele>577.0</ele><time>2026-04-08T16:43:54.924Z</time></trkpt><trkpt lat="42.4139141" lon="13.0874281"><ele>577.0</ele><time>2026-04-08T16:43:55.925Z</time></trkpt><trkpt lat="42.4137729" lon="13.0876088"><ele>577.0</ele><time>2026-04-08T16:43:56.924Z</time></trkpt><trkpt lat="42.4136217" lon="13.087777"><ele>577.0</ele><time>2026-04-08T16:43:57.925Z</time></trkpt><trkpt lat="42.4134605" lon="13.0879303"><ele>577.0</ele><time>2026-04-08T16:43:58.924Z</time></trkpt><trkpt lat="42.4132929" lon="13.0880769"><ele>577.0</ele><time>2026-04-08T16:43:59.926Z</time></trkpt><trkpt lat="42.4131199" lon="13.0882171"><ele>580.0</ele><time>2026-04-08T16:44:00.926Z</time></trkpt><trkpt lat="42.4129449" lon="13.0883504"><ele>583.0</ele><time>2026-04-08T16:44:01.928Z</time></trkpt><trkpt lat="42.4127642" lon="13.088475"><ele>586.0</ele><time>2026-04-08T16:44:02.932Z</time></trkpt><trkpt lat="42.4125815" lon="13.0885914"><ele>586.0</ele><time>2026-04-08T16:44:03.927Z</time></trkpt><trkpt lat="42.4123973" lon="13.0886954"><ele>586.0</ele><time>2026-04-08T16:44:04.926Z</time></trkpt><trkpt lat="42.4122197" lon="13.0888158"><ele>586.0</ele><time>2026-04-08T16:44:05.927Z</time></trkpt><trkpt lat="42.4120507" lon="13.0889591"><ele>590.0</ele><time>2026-04-08T16:44:06.926Z</time></trkpt><trkpt lat="42.4118985" lon="13.0891295"><ele>594.0</ele><time>2026-04-08T16:44:07.927Z</time></trkpt><trkpt lat="42.411756" lon="13.089357"><ele>598.0</ele><time>2026-04-08T16:44:08.926Z</time></trkpt><trkpt lat="42.4116108" lon="13.0895961"><ele>598.0</ele><time>2026-04-08T16:44:09.928Z</time></trkpt><trkpt lat="42.4114622" lon="13.0898462"><ele>598.0</ele><time>2026-04-08T16:44:10.925Z</time></trkpt><trkpt lat="42.4113112" lon="13.0901013"><ele>597.0</ele><time>2026-04-08T16:44:11.926Z</time></trkpt><trkpt lat="42.4111508" lon="13.0903424"><ele>596.0</ele><time>2026-04-08T16:44:12.926Z</time></trkpt><trkpt lat="42.4109733" lon="13.090547"><ele>596.0</ele><time>2026-04-08T16:44:13.929Z</time></trkpt><trkpt lat="42.4107885" lon="13.0907239"><ele>596.0</ele><time>2026-04-08T16:44:14.932Z</time></trkpt><trkpt lat="42.4104499" lon="13.0911714"><ele>597.5</ele><time>2026-04-08T16:44:16.924Z</time></trkpt><trkpt lat="42.4102947" lon="13.0914417"><ele>599.0</ele><time>2026-04-08T16:44:17.927Z</time></trkpt><trkpt lat="42.4101557" lon="13.0917336"><ele>608.0</ele><time>2026-04-08T16:44:18.928Z</time></trkpt><trkpt lat="42.4100197" lon="13.092036"><ele>617.0</ele><time>2026-04-08T16:44:19.927Z</time></trkpt><trkpt lat="42.4098901" lon="13.0923278"><ele>610.5</ele><time>2026-04-08T16:44:20.926Z</time></trkpt><trkpt lat="42.409771" lon="13.0926023"><ele>604.0</ele><time>2026-04-08T16:44:21.927Z</time></trkpt><trkpt lat="42.4096564" lon="13.0928628"><ele>604.0</ele><time>2026-04-08T16:44:22.927Z</time></trkpt><trkpt lat="42.4095413" lon="13.093116"><ele>604.0</ele><time>2026-04-08T16:44:23.927Z</time></trkpt><trkpt lat="42.4094317" lon="13.0933611"><ele>604.0</ele><time>2026-04-08T16:44:24.93Z</time></trkpt><trkpt lat="42.4093231" lon="13.0936016"><ele>608.6666666666667</ele><time>2026-04-08T16:44:25.927Z</time></trkpt><trkpt lat="42.4092189" lon="13.0938403"><ele>613.3333333333334</ele><time>2026-04-08T16:44:26.926Z</time></trkpt><trkpt lat="42.4091155" lon="13.0940792"><ele>618.0</ele><time>2026-04-08T16:44:27.927Z</time></trkpt><trkpt lat="42.4090115" lon="13.0943106"><ele>619.0</ele><time>2026-04-08T16:44:28.927Z</time></trkpt><trkpt lat="42.4089014" lon="13.0945349"><ele>620.0</ele><time>2026-04-08T16:44:29.926Z</time></trkpt><trkpt lat="42.4087717" lon="13.0947262"><ele>621.0</ele><time>2026-04-08T16:44:30.925Z</time></trkpt><trkpt lat="42.4086407" lon="13.0949164"><ele>626.3333333333334</ele><time>2026-04-08T16:44:31.926Z</time></trkpt><trkpt lat="42.4085066" lon="13.0950997"><ele>631.6666666666667</ele><time>2026-04-08T16:44:32.927Z</time></trkpt><trkpt lat="42.4083705" lon="13.0952896"><ele>637.0</ele><time>2026-04-08T16:44:33.927Z</time></trkpt><trkpt lat="42.4082337" lon="13.0954884"><ele>637.0</ele><time>2026-04-08T16:44:34.926Z</time></trkpt><trkpt lat="42.4081085" lon="13.0956964"><ele>637.0</ele><time>2026-04-08T16:44:35.926Z</time></trkpt><trkpt lat="42.4079905" lon="13.0959217"><ele>637.0</ele><time>2026-04-08T16:44:36.929Z</time></trkpt><trkpt lat="42.4078811" lon="13.0961461"><ele>635.3333333333334</ele><time>2026-04-08T16:44:37.927Z</time></trkpt><trkpt lat="42.4077892" lon="13.0963719"><ele>633.6666666666666</ele><time>2026-04-08T16:44:38.926Z</time></trkpt><trkpt lat="42.4077162" lon="13.0965867"><ele>632.0</ele><time>2026-04-08T16:44:39.926Z</time></trkpt><trkpt lat="42.4076545" lon="13.0967953"><ele>635.0</ele><time>2026-04-08T16:44:40.926Z</time></trkpt><trkpt lat="42.4075996" lon="13.0969901"><ele>638.0</ele><time>2026-04-08T16:44:41.925Z</time></trkpt><trkpt lat="42.4075484" lon="13.097168"><ele>641.0</ele><time>2026-04-08T16:44:42.927Z</time></trkpt><trkpt lat="42.4075068" lon="13.0973369"><ele>644.0</ele><time>2026-04-08T16:44:43.935Z</time></trkpt><trkpt lat="42.4074751" lon="13.0974912"><ele>646.25</ele><time>2026-04-08T16:44:44.923Z</time></trkpt><trkpt lat="42.4074501" lon="13.097636"><ele>648.5</ele><time>2026-04-08T16:44:45.929Z</time></trkpt><trkpt lat="42.407448" lon="13.0977879"><ele>650.75</ele><time>2026-04-08T16:44:46.924Z</time></trkpt><trkpt lat="42.407474" lon="13.0979402"><ele>653.0</ele><time>2026-04-08T16:44:47.928Z</time></trkpt><trkpt lat="42.4075223" lon="13.0980865"><ele>653.0</ele><time>2026-04-08T16:44:48.927Z</time></trkpt><trkpt lat="42.4075915" lon="13.0982277"><ele>653.0</ele><time>2026-04-08T16:44:49.93Z</time></trkpt><trkpt lat="42.4076745" lon="13.0983697"><ele>653.0</ele><time>2026-04-08T16:44:50.927Z</time></trkpt><trkpt lat="42.4077885" lon="13.0985087"><ele>653.0</ele><time>2026-04-08T16:44:51.926Z</time></trkpt><trkpt lat="42.4079327" lon="13.0986459"><ele>667.6666666666666</ele><time>2026-04-08T16:44:52.927Z</time></trkpt><trkpt lat="42.4081081" lon="13.098799"><ele>682.3333333333334</ele><time>2026-04-08T16:44:53.931Z</time></trkpt><trkpt lat="42.4082623" lon="13.0989422"><ele>697.0</ele><time>2026-04-08T16:44:54.927Z</time></trkpt><trkpt lat="42.4084005" lon="13.0990779"><ele>688.75</ele><time>2026-04-08T16:44:55.927Z</time></trkpt><trkpt lat="42.4085207" lon="13.0992091"><ele>680.5</ele><time>2026-04-08T16:44:56.924Z</time></trkpt><trkpt lat="42.4086183" lon="13.0993379"><ele>672.25</ele><time>2026-04-08T16:44:57.927Z</time></trkpt><trkpt lat="42.4086838" lon="13.0994793"><ele>664.0</ele><time>2026-04-08T16:44:58.924Z</time></trkpt><trkpt lat="42.4087407" lon="13.0996336"><ele>664.0</ele><time>2026-04-08T16:44:59.924Z</time></trkpt><trkpt lat="42.4087586" lon="13.0998228"><ele>664.0</ele><time>2026-04-08T16:45:00.927Z</time></trkpt><trkpt lat="42.4086784" lon="13.1000781"><ele>664.0</ele><time>2026-04-08T16:45:01.925Z</time></trkpt><trkpt lat="42.4086435" lon="13.1003372"><ele>662.0</ele><time>2026-04-08T16:45:02.925Z</time></trkpt><trkpt lat="42.4086025" lon="13.1006289"><ele>660.0</ele><time>2026-04-08T16:45:03.926Z</time></trkpt><trkpt lat="42.408572" lon="13.100934"><ele>658.0</ele><time>2026-04-08T16:45:04.925Z</time></trkpt><trkpt lat="42.4085553" lon="13.1012649"><ele>660.5</ele><time>2026-04-08T16:45:05.926Z</time></trkpt><trkpt lat="42.4085545" lon="13.1015965"><ele>663.0</ele><time>2026-04-08T16:45:06.925Z</time></trkpt><trkpt lat="42.408555" lon="13.1019129"><ele>663.0</ele><time>2026-04-08T16:45:07.927Z</time></trkpt><trkpt lat="42.4085584" lon="13.1021961"><ele>663.0</ele><time>2026-04-08T16:45:08.93Z</time></trkpt><trkpt lat="42.4085742" lon="13.1024587"><ele>663.0</ele><time>2026-04-08T16:45:09.926Z</time></trkpt><trkpt lat="42.4086207" lon="13.1027135"><ele>662.3333333333334</ele><time>2026-04-08T16:45:10.925Z</time></trkpt><trkpt lat="42.4087017" lon="13.1029758"><ele>661.6666666666667</ele><time>2026-04-08T16:45:11.926Z</time></trkpt><trkpt lat="42.4087786" lon="13.1032536"><ele>661.0</ele><time>2026-04-08T16:45:12.93Z</time></trkpt><trkpt lat="42.4088335" lon="13.1035475"><ele>685.0</ele><time>2026-04-08T16:45:13.927Z</time></trkpt><trkpt lat="42.4088711" lon="13.1038458"><ele>709.0</ele><time>2026-04-08T16:45:14.926Z</time></trkpt><trkpt lat="42.4088817" lon="13.1041529"><ele>709.0</ele><time>2026-04-08T16:45:15.926Z</time></trkpt><trkpt lat="42.4088867" lon="13.1044355"><ele>709.0</ele><time>2026-04-08T16:45:16.924Z</time></trkpt><trkpt lat="42.4089066" lon="13.104717"><ele>709.0</ele><time>2026-04-08T16:45:17.926Z</time></trkpt><trkpt lat="42.4089589" lon="13.1049953"><ele>705.0</ele><time>2026-04-08T16:45:18.924Z</time></trkpt><trkpt lat="42.4090402" lon="13.105285"><ele>701.0</ele><time>2026-04-08T16:45:19.924Z</time></trkpt><trkpt lat="42.4091244" lon="13.1055802"><ele>696.5</ele><time>2026-04-08T16:45:20.927Z</time></trkpt><trkpt lat="42.4092287" lon="13.1058825"><ele>692.0</ele><time>2026-04-08T16:45:21.929Z</time></trkpt><trkpt lat="42.4093403" lon="13.106191"><ele>692.0</ele><time>2026-04-08T16:45:22.926Z</time></trkpt><trkpt lat="42.4094467" lon="13.1064706"><ele>692.0</ele><time>2026-04-08T16:45:23.925Z</time></trkpt><trkpt lat="42.4095419" lon="13.1067429"><ele>690.0</ele><time>2026-04-08T16:45:24.924Z</time></trkpt><trkpt lat="42.4096144" lon="13.1070007"><ele>688.0</ele><time>2026-04-08T16:45:25.927Z</time></trkpt><trkpt lat="42.4096745" lon="13.1072601"><ele>686.0</ele><time>2026-04-08T16:45:26.927Z</time></trkpt><trkpt lat="42.4097101" lon="13.1075289"><ele>700.6666666666666</ele><time>2026-04-08T16:45:27.927Z</time></trkpt><trkpt lat="42.4097143" lon="13.1077978"><ele>715.3333333333334</ele><time>2026-04-08T16:45:28.926Z</time></trkpt><trkpt lat="42.409724" lon="13.1080891"><ele>730.0</ele><time>2026-04-08T16:45:29.926Z</time></trkpt><trkpt lat="42.4097341" lon="13.1083901"><ele>730.0</ele><time>2026-04-08T16:45:30.926Z</time></trkpt><trkpt lat="42.4097553" lon="13.108703"><ele>730.0</ele><time>2026-04-08T16:45:31.926Z</time></trkpt><trkpt lat="42.409777" lon="13.1090146"><ele>730.0</ele><time>2026-04-08T16:45:32.927Z</time></trkpt><trkpt lat="42.4097942" lon="13.1093184"><ele>730.0</ele><time>2026-04-08T16:45:33.927Z</time></trkpt><trkpt lat="42.4097778" lon="13.1095901"><ele>730.0</ele><time>2026-04-08T16:45:34.926Z</time></trkpt><trkpt lat="42.4098032" lon="13.1098747"><ele>730.6666666666667</ele><time>2026-04-08T16:45:35.928Z</time></trkpt><trkpt lat="42.4098551" lon="13.1101508"><ele>731.3333333333334</ele><time>2026-04-08T16:45:36.926Z</time></trkpt><trkpt lat="42.4099245" lon="13.1104303"><ele>732.0</ele><time>2026-04-08T16:45:37.925Z</time></trkpt><trkpt lat="42.4100054" lon="13.1107159"><ele>727.5</ele><time>2026-04-08T16:45:38.926Z</time></trkpt><trkpt lat="42.4100915" lon="13.1110185"><ele>723.0</ele><time>2026-04-08T16:45:39.926Z</time></trkpt><trkpt lat="42.4101701" lon="13.1113258"><ele>721.5</ele><time>2026-04-08T16:45:40.927Z</time></trkpt><trkpt lat="42.41024" lon="13.1116353"><ele>720.0</ele><time>2026-04-08T16:45:41.926Z</time></trkpt><trkpt lat="42.4103042" lon="13.1119532"><ele>720.0</ele><time>2026-04-08T16:45:42.929Z</time></trkpt><trkpt lat="42.4103549" lon="13.112278"><ele>720.0</ele><time>2026-04-08T16:45:43.925Z</time></trkpt><trkpt lat="42.4104018" lon="13.1126059"><ele>725.0</ele><time>2026-04-08T16:45:44.927Z</time></trkpt><trkpt lat="42.4104421" lon="13.1129294"><ele>730.0</ele><time>2026-04-08T16:45:45.925Z</time></trkpt><trkpt lat="42.4104612" lon="13.1132542"><ele>739.0</ele><time>2026-04-08T16:45:46.926Z</time></trkpt><trkpt lat="42.4104728" lon="13.1135877"><ele>748.0</ele><time>2026-04-08T16:45:47.925Z</time></trkpt><trkpt lat="42.4104218" lon="13.1139178"><ele>757.5</ele><time>2026-04-08T16:45:48.926Z</time></trkpt><trkpt lat="42.4103986" lon="13.1142295"><ele>767.0</ele><time>2026-04-08T16:45:49.926Z</time></trkpt><trkpt lat="42.4103889" lon="13.1145464"><ele>767.0</ele><time>2026-04-08T16:45:50.927Z</time></trkpt><trkpt lat="42.4104054" lon="13.1148689"><ele>767.0</ele><time>2026-04-08T16:45:51.925Z</time></trkpt><trkpt lat="42.4104365" lon="13.1151904"><ele>766.0</ele><time>2026-04-08T16:45:52.926Z</time></trkpt><trkpt lat="42.4104646" lon="13.1155063"><ele>765.0</ele><time>2026-04-08T16:45:53.924Z</time></trkpt><trkpt lat="42.41049" lon="13.1158175"><ele>760.0</ele><time>2026-04-08T16:45:54.927Z</time></trkpt><trkpt lat="42.4105177" lon="13.1161159"><ele>755.0</ele><time>2026-04-08T16:45:55.925Z</time></trkpt><trkpt lat="42.4105327" lon="13.1164107"><ele>750.0</ele><time>2026-04-08T16:45:56.925Z</time></trkpt><trkpt lat="42.410533" lon="13.1167024"><ele>753.5</ele><time>2026-04-08T16:45:57.925Z</time></trkpt><trkpt lat="42.4103949" lon="13.1169818"><ele>757.0</ele><time>2026-04-08T16:45:58.926Z</time></trkpt><trkpt lat="42.410317" lon="13.1172735"><ele>753.5</ele><time>2026-04-08T16:45:59.924Z</time></trkpt><trkpt lat="42.4102035" lon="13.1175683"><ele>750.0</ele><time>2026-04-08T16:46:00.926Z</time></trkpt><trkpt lat="42.4100729" lon="13.1178733"><ele>750.0</ele><time>2026-04-08T16:46:01.927Z</time></trkpt><trkpt lat="42.4099418" lon="13.1181944"><ele>750.0</ele><time>2026-04-08T16:46:02.928Z</time></trkpt><trkpt lat="42.4098007" lon="13.1185239"><ele>753.0</ele><time>2026-04-08T16:46:03.926Z</time></trkpt><trkpt lat="42.4096579" lon="13.118864"><ele>756.0</ele><time>2026-04-08T16:46:04.929Z</time></trkpt><trkpt lat="42.4095105" lon="13.1192039"><ele>756.0</ele><time>2026-04-08T16:46:05.926Z</time></trkpt><trkpt lat="42.4093602" lon="13.1195501"><ele>756.0</ele><time>2026-04-08T16:46:06.926Z</time></trkpt><trkpt lat="42.4092118" lon="13.1199063"><ele>758.5</ele><time>2026-04-08T16:46:07.926Z</time></trkpt><trkpt lat="42.4090653" lon="13.1202675"><ele>761.0</ele><time>2026-04-08T16:46:08.926Z</time></trkpt><trkpt lat="42.4089221" lon="13.1206171"><ele>761.0</ele><time>2026-04-08T16:46:09.926Z</time></trkpt><trkpt lat="42.4087894" lon="13.1209524"><ele>761.0</ele><time>2026-04-08T16:46:10.927Z</time></trkpt><trkpt lat="42.4086593" lon="13.1212794"><ele>763.0</ele><time>2026-04-08T16:46:11.927Z</time></trkpt><trkpt lat="42.4085008" lon="13.1215817"><ele>765.0</ele><time>2026-04-08T16:46:12.926Z</time></trkpt><trkpt lat="42.4083216" lon="13.1218682"><ele>765.0</ele><time>2026-04-08T16:46:13.928Z</time></trkpt><trkpt lat="42.4081217" lon="13.1221415"><ele>765.0</ele><time>2026-04-08T16:46:14.925Z</time></trkpt><trkpt lat="42.4079155" lon="13.1224115"><ele>765.0</ele><time>2026-04-08T16:46:15.926Z</time></trkpt><trkpt lat="42.4077022" lon="13.1226796"><ele>765.0</ele><time>2026-04-08T16:46:16.925Z</time></trkpt><trkpt lat="42.4074822" lon="13.122952"><ele>765.0</ele><time>2026-04-08T16:46:17.927Z</time></trkpt><trkpt lat="42.4072684" lon="13.1232196"><ele>765.0</ele><time>2026-04-08T16:46:18.931Z</time></trkpt><trkpt lat="42.4070644" lon="13.1234744"><ele>769.5</ele><time>2026-04-08T16:46:19.927Z</time></trkpt><trkpt lat="42.4068707" lon="13.1237166"><ele>774.0</ele><time>2026-04-08T16:46:20.924Z</time></trkpt><trkpt lat="42.4066936" lon="13.1239573"><ele>778.5</ele><time>2026-04-08T16:46:21.926Z</time></trkpt><trkpt lat="42.4065316" lon="13.1242115"><ele>783.0</ele><time>2026-04-08T16:46:22.927Z</time></trkpt><trkpt lat="42.4063929" lon="13.1244859"><ele>782.5</ele><time>2026-04-08T16:46:23.926Z</time></trkpt><trkpt lat="42.4062808" lon="13.1247772"><ele>782.0</ele><time>2026-04-08T16:46:24.929Z</time></trkpt><trkpt lat="42.4061936" lon="13.1250894"><ele>782.0</ele><time>2026-04-08T16:46:25.926Z</time></trkpt><trkpt lat="42.4061262" lon="13.1254161"><ele>782.0</ele><time>2026-04-08T16:46:26.928Z</time></trkpt><trkpt lat="42.4060751" lon="13.1257571"><ele>784.0</ele><time>2026-04-08T16:46:27.928Z</time></trkpt><trkpt lat="42.4060246" lon="13.126096"><ele>786.0</ele><time>2026-04-08T16:46:28.927Z</time></trkpt><trkpt lat="42.4059825" lon="13.1264398"><ele>789.0</ele><time>2026-04-08T16:46:29.927Z</time></trkpt><trkpt lat="42.4059558" lon="13.1267886"><ele>792.0</ele><time>2026-04-08T16:46:30.927Z</time></trkpt><trkpt lat="42.4059491" lon="13.1271423"><ele>795.0</ele><time>2026-04-08T16:46:31.926Z</time></trkpt><trkpt lat="42.4059677" lon="13.1274922"><ele>798.0</ele><time>2026-04-08T16:46:32.927Z</time></trkpt><trkpt lat="42.4059951" lon="13.127824"><ele>798.0</ele><time>2026-04-08T16:46:33.928Z</time></trkpt><trkpt lat="42.4060291" lon="13.1281335"><ele>798.0</ele><time>2026-04-08T16:46:34.928Z</time></trkpt><trkpt lat="42.4060513" lon="13.1284179"><ele>798.0</ele><time>2026-04-08T16:46:35.93Z</time></trkpt><trkpt lat="42.4060434" lon="13.128679"><ele>798.3333333333333</ele><time>2026-04-08T16:46:36.93Z</time></trkpt><trkpt lat="42.4059941" lon="13.1289241"><ele>798.6666666666666</ele><time>2026-04-08T16:46:37.924Z</time></trkpt><trkpt lat="42.4059119" lon="13.1291504"><ele>799.0</ele><time>2026-04-08T16:46:38.928Z</time></trkpt><trkpt lat="42.4057831" lon="13.129375"><ele>801.5</ele><time>2026-04-08T16:46:39.926Z</time></trkpt><trkpt lat="42.4056223" lon="13.1296033"><ele>804.0</ele><time>2026-04-08T16:46:40.925Z</time></trkpt><trkpt lat="42.405468" lon="13.1298364"><ele>805.5</ele><time>2026-04-08T16:46:41.926Z</time></trkpt><trkpt lat="42.4052998" lon="13.1300637"><ele>807.0</ele><time>2026-04-08T16:46:42.926Z</time></trkpt><trkpt lat="42.405118" lon="13.1302871"><ele>807.0</ele><time>2026-04-08T16:46:43.926Z</time></trkpt><trkpt lat="42.4049197" lon="13.1304983"><ele>807.0</ele><time>2026-04-08T16:46:44.927Z</time></trkpt><trkpt lat="42.4047081" lon="13.1306994"><ele>808.0</ele><time>2026-04-08T16:46:45.926Z</time></trkpt><trkpt lat="42.4044918" lon="13.1308955"><ele>809.0</ele><time>2026-04-08T16:46:46.929Z</time></trkpt><trkpt lat="42.4042705" lon="13.1310996"><ele>809.0</ele><time>2026-04-08T16:46:47.928Z</time></trkpt><trkpt lat="42.4040429" lon="13.1312954"><ele>809.0</ele><time>2026-04-08T16:46:48.928Z</time></trkpt><trkpt lat="42.403814" lon="13.1314877"><ele>813.0</ele><time>2026-04-08T16:46:49.929Z</time></trkpt><trkpt lat="42.4036044" lon="13.1316701"><ele>817.0</ele><time>2026-04-08T16:46:50.926Z</time></trkpt><trkpt lat="42.4034133" lon="13.1318589"><ele>817.0</ele><time>2026-04-08T16:46:51.926Z</time></trkpt><trkpt lat="42.403246" lon="13.1320742"><ele>817.0</ele><time>2026-04-08T16:46:52.928Z</time></trkpt><trkpt lat="42.4030888" lon="13.1323088"><ele>818.5</ele><time>2026-04-08T16:46:53.926Z</time></trkpt><trkpt lat="42.4029284" lon="13.1325537"><ele>820.0</ele><time>2026-04-08T16:46:54.927Z</time></trkpt><trkpt lat="42.4027514" lon="13.1327856"><ele>820.0</ele><time>2026-04-08T16:46:55.926Z</time></trkpt><trkpt lat="42.4025723" lon="13.1330198"><ele>820.0</ele><time>2026-04-08T16:46:56.926Z</time></trkpt><trkpt lat="42.4023756" lon="13.1332259"><ele>822.5</ele><time>2026-04-08T16:46:57.926Z</time></trkpt><trkpt lat="42.4021744" lon="13.1334193"><ele>825.0</ele><time>2026-04-08T16:46:58.928Z</time></trkpt><trkpt lat="42.4019533" lon="13.133586"><ele>825.0</ele><time>2026-04-08T16:46:59.93Z</time></trkpt><trkpt lat="42.4017226" lon="13.1337265"><ele>825.0</ele><time>2026-04-08T16:47:00.927Z</time></trkpt><trkpt lat="42.4014905" lon="13.1338443"><ele>824.0</ele><time>2026-04-08T16:47:01.927Z</time></trkpt><trkpt lat="42.4012668" lon="13.1339668"><ele>823.0</ele><time>2026-04-08T16:47:02.927Z</time></trkpt><trkpt lat="42.4010483" lon="13.1340995"><ele>829.5</ele><time>2026-04-08T16:47:03.927Z</time></trkpt><trkpt lat="42.4008443" lon="13.1342528"><ele>836.0</ele><time>2026-04-08T16:47:04.925Z</time></trkpt><trkpt lat="42.4006503" lon="13.1344338"><ele>829.0</ele><time>2026-04-08T16:47:05.927Z</time></trkpt><trkpt lat="42.4004564" lon="13.1346256"><ele>822.0</ele><time>2026-04-08T16:47:06.925Z</time></trkpt><trkpt lat="42.400258" lon="13.1348184"><ele>830.0</ele><time>2026-04-08T16:47:07.926Z</time></trkpt><trkpt lat="42.4000615" lon="13.1350165"><ele>838.0</ele><time>2026-04-08T16:47:08.936Z</time></trkpt><trkpt lat="42.3998611" lon="13.1352205"><ele>838.0</ele><time>2026-04-08T16:47:09.936Z</time></trkpt><trkpt lat="42.3996765" lon="13.1354522"><ele>838.0</ele><time>2026-04-08T16:47:10.928Z</time></trkpt><trkpt lat="42.3994971" lon="13.1357006"><ele>840.0</ele><time>2026-04-08T16:47:11.928Z</time></trkpt><trkpt lat="42.3993176" lon="13.1359533"><ele>842.0</ele><time>2026-04-08T16:47:12.927Z</time></trkpt><trkpt lat="42.3991346" lon="13.1362087"><ele>842.0</ele><time>2026-04-08T16:47:13.935Z</time></trkpt><trkpt lat="42.3989512" lon="13.1364665"><ele>842.0</ele><time>2026-04-08T16:47:14.927Z</time></trkpt><trkpt lat="42.3987666" lon="13.1367218"><ele>846.5</ele><time>2026-04-08T16:47:15.929Z</time></trkpt><trkpt lat="42.39858" lon="13.1369743"><ele>851.0</ele><time>2026-04-08T16:47:16.925Z</time></trkpt><trkpt lat="42.3983813" lon="13.1372103"><ele>853.0</ele><time>2026-04-08T16:47:17.926Z</time></trkpt><trkpt lat="42.3981665" lon="13.1374226"><ele>855.0</ele><time>2026-04-08T16:47:18.926Z</time></trkpt><trkpt lat="42.3979413" lon="13.1376086"><ele>855.0</ele><time>2026-04-08T16:47:19.926Z</time></trkpt><trkpt lat="42.3977059" lon="13.1377761"><ele>855.0</ele><time>2026-04-08T16:47:20.928Z</time></trkpt><trkpt lat="42.3974693" lon="13.1379423"><ele>855.0</ele><time>2026-04-08T16:47:21.927Z</time></trkpt><trkpt lat="42.3972296" lon="13.138104"><ele>855.0</ele><time>2026-04-08T16:47:22.928Z</time></trkpt><trkpt lat="42.3969919" lon="13.1382717"><ele>858.5</ele><time>2026-04-08T16:47:23.926Z</time></trkpt><trkpt lat="42.3967588" lon="13.1384361"><ele>862.0</ele><time>2026-04-08T16:47:24.927Z</time></trkpt><trkpt lat="42.3965293" lon="13.1386006"><ele>859.0</ele><time>2026-04-08T16:47:25.927Z</time></trkpt><trkpt lat="42.3963038" lon="13.1387628"><ele>856.0</ele><time>2026-04-08T16:47:26.927Z</time></trkpt><trkpt lat="42.3960787" lon="13.1389048"><ele>856.0</ele><time>2026-04-08T16:47:27.926Z</time></trkpt><trkpt lat="42.3958403" lon="13.1390136"><ele>856.0</ele><time>2026-04-08T16:47:28.925Z</time></trkpt><trkpt lat="42.3955968" lon="13.1390839"><ele>862.0</ele><time>2026-04-08T16:47:29.927Z</time></trkpt><trkpt lat="42.395353" lon="13.1391239"><ele>868.0</ele><time>2026-04-08T16:47:30.926Z</time></trkpt><trkpt lat="42.3951032" lon="13.1391371"><ele>868.0</ele><time>2026-04-08T16:47:31.925Z</time></trkpt><trkpt lat="42.3948485" lon="13.1391342"><ele>868.0</ele><time>2026-04-08T16:47:32.927Z</time></trkpt><trkpt lat="42.3945931" lon="13.1391202"><ele>871.5</ele><time>2026-04-08T16:47:33.928Z</time></trkpt><trkpt lat="42.3943372" lon="13.1391123"><ele>875.0</ele><time>2026-04-08T16:47:34.928Z</time></trkpt><trkpt lat="42.3940779" lon="13.1391009"><ele>875.0</ele><time>2026-04-08T16:47:35.927Z</time></trkpt><trkpt lat="42.3938207" lon="13.1390985"><ele>875.0</ele><time>2026-04-08T16:47:36.928Z</time></trkpt><trkpt lat="42.3935605" lon="13.1391065"><ele>875.0</ele><time>2026-04-08T16:47:37.928Z</time></trkpt><trkpt lat="42.3933014" lon="13.1391305"><ele>875.0</ele><time>2026-04-08T16:47:38.926Z</time></trkpt><trkpt lat="42.3930482" lon="13.1391718"><ele>874.0</ele><time>2026-04-08T16:47:39.928Z</time></trkpt><trkpt lat="42.3928106" lon="13.139221"><ele>873.0</ele><time>2026-04-08T16:47:40.924Z</time></trkpt><trkpt lat="42.392581" lon="13.139281"><ele>873.0</ele><time>2026-04-08T16:47:41.927Z</time></trkpt><trkpt lat="42.392359" lon="13.1393656"><ele>873.0</ele><time>2026-04-08T16:47:42.927Z</time></trkpt><trkpt lat="42.3921435" lon="13.139487"><ele>871.5</ele><time>2026-04-08T16:47:43.927Z</time></trkpt><trkpt lat="42.3919364" lon="13.1396461"><ele>870.0</ele><time>2026-04-08T16:47:44.935Z</time></trkpt><trkpt lat="42.3917292" lon="13.1398258"><ele>871.5</ele><time>2026-04-08T16:47:45.928Z</time></trkpt><trkpt lat="42.391519" lon="13.1400036"><ele>873.0</ele><time>2026-04-08T16:47:46.927Z</time></trkpt><trkpt lat="42.3912963" lon="13.140159"><ele>873.0</ele><time>2026-04-08T16:47:47.926Z</time></trkpt><trkpt lat="42.3910738" lon="13.1403135"><ele>873.0</ele><time>2026-04-08T16:47:48.925Z</time></trkpt><trkpt lat="42.3908603" lon="13.1404713"><ele>873.0</ele><time>2026-04-08T16:47:49.924Z</time></trkpt><trkpt lat="42.3906629" lon="13.1406558"><ele>873.0</ele><time>2026-04-08T16:47:50.926Z</time></trkpt><trkpt lat="42.3904782" lon="13.1408792"><ele>874.0</ele><time>2026-04-08T16:47:51.928Z</time></trkpt><trkpt lat="42.3903126" lon="13.1411353"><ele>875.0</ele><time>2026-04-08T16:47:52.926Z</time></trkpt><trkpt lat="42.3901755" lon="13.1414065"><ele>879.5</ele><time>2026-04-08T16:47:53.935Z</time></trkpt><trkpt lat="42.3900565" lon="13.141688"><ele>884.0</ele><time>2026-04-08T16:47:54.927Z</time></trkpt><trkpt lat="42.38993" lon="13.1419615"><ele>884.0</ele><time>2026-04-08T16:47:55.937Z</time></trkpt><trkpt lat="42.3897973" lon="13.142228"><ele>884.0</ele><time>2026-04-08T16:47:56.927Z</time></trkpt><trkpt lat="42.3896378" lon="13.1424787"><ele>882.5</ele><time>2026-04-08T16:47:57.927Z</time></trkpt><trkpt lat="42.389433" lon="13.1426936"><ele>881.0</ele><time>2026-04-08T16:47:58.927Z</time></trkpt><trkpt lat="42.3892499" lon="13.1429204"><ele>881.0</ele><time>2026-04-08T16:47:59.931Z</time></trkpt><trkpt lat="42.3890686" lon="13.1431445"><ele>881.0</ele><time>2026-04-08T16:48:00.928Z</time></trkpt><trkpt lat="42.3888995" lon="13.14337"><ele>881.5</ele><time>2026-04-08T16:48:01.927Z</time></trkpt><trkpt lat="42.3887434" lon="13.1435952"><ele>882.0</ele><time>2026-04-08T16:48:02.927Z</time></trkpt><trkpt lat="42.3886086" lon="13.1438587"><ele>883.0</ele><time>2026-04-08T16:48:03.926Z</time></trkpt><trkpt lat="42.3885026" lon="13.1441433"><ele>884.0</ele><time>2026-04-08T16:48:04.927Z</time></trkpt><trkpt lat="42.3884228" lon="13.1444435"><ele>884.0</ele><time>2026-04-08T16:48:05.926Z</time></trkpt><trkpt lat="42.3883842" lon="13.1447614"><ele>884.0</ele><time>2026-04-08T16:48:06.928Z</time></trkpt><trkpt lat="42.3883725" lon="13.1450771"><ele>886.5</ele><time>2026-04-08T16:48:07.927Z</time></trkpt><trkpt lat="42.3883627" lon="13.1453811"><ele>889.0</ele><time>2026-04-08T16:48:08.926Z</time></trkpt><trkpt lat="42.388329" lon="13.1456938"><ele>890.5</ele><time>2026-04-08T16:48:09.926Z</time></trkpt><trkpt lat="42.3882654" lon="13.1459973"><ele>892.0</ele><time>2026-04-08T16:48:10.926Z</time></trkpt><trkpt lat="42.3881629" lon="13.1462892"><ele>891.5</ele><time>2026-04-08T16:48:11.925Z</time></trkpt><trkpt lat="42.3880297" lon="13.1465734"><ele>891.0</ele><time>2026-04-08T16:48:12.925Z</time></trkpt><trkpt lat="42.3878851" lon="13.1468477"><ele>891.0</ele><time>2026-04-08T16:48:13.925Z</time></trkpt><trkpt lat="42.3877329" lon="13.1471083"><ele>891.0</ele><time>2026-04-08T16:48:14.926Z</time></trkpt><trkpt lat="42.3875728" lon="13.1473408"><ele>894.0</ele><time>2026-04-08T16:48:15.926Z</time></trkpt><trkpt lat="42.387418" lon="13.1475332"><ele>897.0</ele><time>2026-04-08T16:48:16.925Z</time></trkpt><trkpt lat="42.3872594" lon="13.147686"><ele>900.0</ele><time>2026-04-08T16:48:17.927Z</time></trkpt><trkpt lat="42.3870903" lon="13.1477942"><ele>900.0</ele><time>2026-04-08T16:48:18.927Z</time></trkpt><trkpt lat="42.3869018" lon="13.1478659"><ele>900.0</ele><time>2026-04-08T16:48:19.93Z</time></trkpt><trkpt lat="42.3867084" lon="13.1479274"><ele>900.0</ele><time>2026-04-08T16:48:20.943Z</time></trkpt><trkpt lat="42.3865065" lon="13.1479821"><ele>898.6666666666667</ele><time>2026-04-08T16:48:21.929Z</time></trkpt><trkpt lat="42.3863031" lon="13.1480448"><ele>897.3333333333334</ele><time>2026-04-08T16:48:22.927Z</time></trkpt><trkpt lat="42.3860958" lon="13.1481443"><ele>896.0</ele><time>2026-04-08T16:48:23.925Z</time></trkpt><trkpt lat="42.3858964" lon="13.1482786"><ele>900.5</ele><time>2026-04-08T16:48:24.926Z</time></trkpt><trkpt lat="42.3857031" lon="13.1484486"><ele>905.0</ele><time>2026-04-08T16:48:25.928Z</time></trkpt><trkpt lat="42.3855164" lon="13.1486342"><ele>903.5</ele><time>2026-04-08T16:48:26.93Z</time></trkpt><trkpt lat="42.3853192" lon="13.1488337"><ele>902.0</ele><time>2026-04-08T16:48:27.926Z</time></trkpt><trkpt lat="42.3851226" lon="13.149036"><ele>904.5</ele><time>2026-04-08T16:48:28.926Z</time></trkpt><trkpt lat="42.3849217" lon="13.149244"><ele>907.0</ele><time>2026-04-08T16:48:29.926Z</time></trkpt><trkpt lat="42.3847142" lon="13.1494501"><ele>905.0</ele><time>2026-04-08T16:48:30.926Z</time></trkpt><trkpt lat="42.3845061" lon="13.1496536"><ele>903.0</ele><time>2026-04-08T16:48:31.927Z</time></trkpt><trkpt lat="42.3842841" lon="13.149841"><ele>909.0</ele><time>2026-04-08T16:48:32.928Z</time></trkpt><trkpt lat="42.3840672" lon="13.1500115"><ele>915.0</ele><time>2026-04-08T16:48:33.928Z</time></trkpt><trkpt lat="42.3838757" lon="13.1501489"><ele>914.3333333333333</ele><time>2026-04-08T16:48:34.927Z</time></trkpt><trkpt lat="42.3837027" lon="13.1502492"><ele>913.6666666666666</ele><time>2026-04-08T16:48:35.927Z</time></trkpt><trkpt lat="42.3835319" lon="13.1503015"><ele>913.0</ele><time>2026-04-08T16:48:36.927Z</time></trkpt><trkpt lat="42.383344" lon="13.1502816"><ele>913.0</ele><time>2026-04-08T16:48:37.928Z</time></trkpt><trkpt lat="42.3831489" lon="13.150263"><ele>913.0</ele><time>2026-04-08T16:48:38.927Z</time></trkpt><trkpt lat="42.3829459" lon="13.1502603"><ele>913.0</ele><time>2026-04-08T16:48:39.926Z</time></trkpt><trkpt lat="42.3827416" lon="13.1503006"><ele>912.0</ele><time>2026-04-08T16:48:40.929Z</time></trkpt><trkpt lat="42.3825437" lon="13.1503974"><ele>911.0</ele><time>2026-04-08T16:48:41.926Z</time></trkpt><trkpt lat="42.38236" lon="13.1505363"><ele>910.0</ele><time>2026-04-08T16:48:42.928Z</time></trkpt><trkpt lat="42.3821825" lon="13.1507082"><ele>910.3333333333333</ele><time>2026-04-08T16:48:43.929Z</time></trkpt><trkpt lat="42.3820183" lon="13.150887"><ele>910.6666666666667</ele><time>2026-04-08T16:48:44.926Z</time></trkpt><trkpt lat="42.381873" lon="13.1510601"><ele>911.0</ele><time>2026-04-08T16:48:45.927Z</time></trkpt><trkpt lat="42.3817537" lon="13.1512573"><ele>911.0</ele><time>2026-04-08T16:48:46.925Z</time></trkpt><trkpt lat="42.3816723" lon="13.1514888"><ele>911.0</ele><time>2026-04-08T16:48:47.926Z</time></trkpt><trkpt lat="42.3816208" lon="13.1517343"><ele>911.0</ele><time>2026-04-08T16:48:48.926Z</time></trkpt><trkpt lat="42.381573" lon="13.1519704"><ele>914.6666666666667</ele><time>2026-04-08T16:48:49.933Z</time></trkpt><trkpt lat="42.3815126" lon="13.15219"><ele>918.3333333333333</ele><time>2026-04-08T16:48:50.928Z</time></trkpt><trkpt lat="42.381437" lon="13.1523927"><ele>922.0</ele><time>2026-04-08T16:48:51.927Z</time></trkpt><trkpt lat="42.3813409" lon="13.1525829"><ele>922.0</ele><time>2026-04-08T16:48:52.927Z</time></trkpt><trkpt lat="42.3812453" lon="13.1527213"><ele>922.0</ele><time>2026-04-08T16:48:53.927Z</time></trkpt><trkpt lat="42.3811006" lon="13.1528024"><ele>922.0</ele><time>2026-04-08T16:48:54.932Z</time></trkpt><trkpt lat="42.3808595" lon="13.1527684"><ele>922.0</ele><time>2026-04-08T16:48:55.943Z</time></trkpt><trkpt lat="42.3806865" lon="13.1528214"><ele>922.0</ele><time>2026-04-08T16:48:56.927Z</time></trkpt><trkpt lat="42.3805019" lon="13.152875"><ele>922.0</ele><time>2026-04-08T16:48:57.927Z</time></trkpt><trkpt lat="42.3803158" lon="13.1529273"><ele>921.3333333333333</ele><time>2026-04-08T16:48:58.927Z</time></trkpt><trkpt lat="42.3801322" lon="13.1529809"><ele>920.6666666666667</ele><time>2026-04-08T16:48:59.926Z</time></trkpt><trkpt lat="42.3799499" lon="13.1530508"><ele>920.0</ele><time>2026-04-08T16:49:00.928Z</time></trkpt><trkpt lat="42.3797758" lon="13.153144"><ele>922.0</ele><time>2026-04-08T16:49:01.926Z</time></trkpt><trkpt lat="42.3796081" lon="13.1532691"><ele>924.0</ele><time>2026-04-08T16:49:02.927Z</time></trkpt><trkpt lat="42.379444" lon="13.1534173"><ele>926.0</ele><time>2026-04-08T16:49:03.927Z</time></trkpt><trkpt lat="42.3792737" lon="13.1535796"><ele>926.0</ele><time>2026-04-08T16:49:04.927Z</time></trkpt><trkpt lat="42.3790937" lon="13.1537403"><ele>926.0</ele><time>2026-04-08T16:49:05.929Z</time></trkpt><trkpt lat="42.3789159" lon="13.1538969"><ele>926.0</ele><time>2026-04-08T16:49:06.927Z</time></trkpt><trkpt lat="42.3787389" lon="13.1540627"><ele>927.3333333333334</ele><time>2026-04-08T16:49:07.926Z</time></trkpt><trkpt lat="42.3785603" lon="13.1542298"><ele>928.6666666666667</ele><time>2026-04-08T16:49:08.925Z</time></trkpt><trkpt lat="42.3783779" lon="13.1544035"><ele>930.0</ele><time>2026-04-08T16:49:09.925Z</time></trkpt><trkpt lat="42.3781962" lon="13.1545761"><ele>930.0</ele><time>2026-04-08T16:49:10.928Z</time></trkpt><trkpt lat="42.3780226" lon="13.1547402"><ele>930.0</ele><time>2026-04-08T16:49:11.926Z</time></trkpt><trkpt lat="42.3778598" lon="13.1549026"><ele>930.0</ele><time>2026-04-08T16:49:12.926Z</time></trkpt><trkpt lat="42.3777111" lon="13.1550706"><ele>929.6666666666667</ele><time>2026-04-08T16:49:13.927Z</time></trkpt><trkpt lat="42.3775793" lon="13.1552642"><ele>929.3333333333334</ele><time>2026-04-08T16:49:14.926Z</time></trkpt><trkpt lat="42.3774838" lon="13.1554826"><ele>929.0</ele><time>2026-04-08T16:49:15.929Z</time></trkpt><trkpt lat="42.3774221" lon="13.1557347"><ele>931.3333333333334</ele><time>2026-04-08T16:49:16.929Z</time></trkpt><trkpt lat="42.3773869" lon="13.1560202"><ele>933.6666666666667</ele><time>2026-04-08T16:49:17.93Z</time></trkpt><trkpt lat="42.3773542" lon="13.1563243"><ele>936.0</ele><time>2026-04-08T16:49:18.927Z</time></trkpt><trkpt lat="42.3773143" lon="13.1566265"><ele>937.0</ele><time>2026-04-08T16:49:19.938Z</time></trkpt><trkpt lat="42.3772746" lon="13.1569385"><ele>938.0</ele><time>2026-04-08T16:49:20.928Z</time></trkpt><trkpt lat="42.3772319" lon="13.1572426"><ele>933.0</ele><time>2026-04-08T16:49:21.928Z</time></trkpt><trkpt lat="42.3771695" lon="13.1575454"><ele>928.0</ele><time>2026-04-08T16:49:22.927Z</time></trkpt><trkpt lat="42.3770787" lon="13.1578503"><ele>928.0</ele><time>2026-04-08T16:49:23.927Z</time></trkpt><trkpt lat="42.3769528" lon="13.1581569"><ele>928.0</ele><time>2026-04-08T16:49:24.925Z</time></trkpt><trkpt lat="42.376805" lon="13.1584821"><ele>930.5</ele><time>2026-04-08T16:49:25.927Z</time></trkpt><trkpt lat="42.3766495" lon="13.1588259"><ele>933.0</ele><time>2026-04-08T16:49:26.926Z</time></trkpt><trkpt lat="42.3764863" lon="13.1591708"><ele>932.5</ele><time>2026-04-08T16:49:27.927Z</time></trkpt><trkpt lat="42.37632" lon="13.1595251"><ele>932.0</ele><time>2026-04-08T16:49:28.926Z</time></trkpt><trkpt lat="42.3761632" lon="13.1598945"><ele>934.5</ele><time>2026-04-08T16:49:29.927Z</time></trkpt><trkpt lat="42.3760167" lon="13.1602628"><ele>937.0</ele><time>2026-04-08T16:49:30.928Z</time></trkpt><trkpt lat="42.3758761" lon="13.1606427"><ele>938.5</ele><time>2026-04-08T16:49:31.926Z</time></trkpt><trkpt lat="42.3757565" lon="13.1610114"><ele>940.0</ele><time>2026-04-08T16:49:32.925Z</time></trkpt><trkpt lat="42.3756322" lon="13.1613561"><ele>939.5</ele><time>2026-04-08T16:49:33.927Z</time></trkpt><trkpt lat="42.375511" lon="13.161681"><ele>939.0</ele><time>2026-04-08T16:49:34.927Z</time></trkpt><trkpt lat="42.3753995" lon="13.1619758"><ele>939.0</ele><time>2026-04-08T16:49:35.927Z</time></trkpt><trkpt lat="42.3752834" lon="13.1622574"><ele>939.0</ele><time>2026-04-08T16:49:36.926Z</time></trkpt><trkpt lat="42.3751586" lon="13.1625076"><ele>942.5</ele><time>2026-04-08T16:49:37.928Z</time></trkpt><trkpt lat="42.3750079" lon="13.1627328"><ele>946.0</ele><time>2026-04-08T16:49:38.927Z</time></trkpt><trkpt lat="42.3748398" lon="13.1629416"><ele>947.5</ele><time>2026-04-08T16:49:39.926Z</time></trkpt><trkpt lat="42.3746559" lon="13.1631445"><ele>949.0</ele><time>2026-04-08T16:49:40.927Z</time></trkpt><trkpt lat="42.3744611" lon="13.1633582"><ele>949.0</ele><time>2026-04-08T16:49:41.928Z</time></trkpt><trkpt lat="42.3742731" lon="13.1635763"><ele>949.0</ele><time>2026-04-08T16:49:42.926Z</time></trkpt><trkpt lat="42.3740979" lon="13.1638445"><ele>948.5</ele><time>2026-04-08T16:49:43.926Z</time></trkpt><trkpt lat="42.3739163" lon="13.1641033"><ele>948.0</ele><time>2026-04-08T16:49:44.928Z</time></trkpt><trkpt lat="42.3737374" lon="13.1643621"><ele>948.0</ele><time>2026-04-08T16:49:45.927Z</time></trkpt><trkpt lat="42.373553" lon="13.1646381"><ele>948.0</ele><time>2026-04-08T16:49:46.927Z</time></trkpt><trkpt lat="42.3733786" lon="13.1649286"><ele>946.0</ele><time>2026-04-08T16:49:47.925Z</time></trkpt><trkpt lat="42.3731875" lon="13.1652077"><ele>944.0</ele><time>2026-04-08T16:49:48.927Z</time></trkpt><trkpt lat="42.3729993" lon="13.1654742"><ele>948.0</ele><time>2026-04-08T16:49:49.927Z</time></trkpt><trkpt lat="42.3728169" lon="13.1657514"><ele>952.0</ele><time>2026-04-08T16:49:50.926Z</time></trkpt><trkpt lat="42.3726323" lon="13.1660292"><ele>952.0</ele><time>2026-04-08T16:49:51.926Z</time></trkpt><trkpt lat="42.372449" lon="13.1663086"><ele>952.0</ele><time>2026-04-08T16:49:52.926Z</time></trkpt><trkpt lat="42.3722551" lon="13.1665682"><ele>953.5</ele><time>2026-04-08T16:49:53.926Z</time></trkpt><trkpt lat="42.3720604" lon="13.1668188"><ele>955.0</ele><time>2026-04-08T16:49:54.928Z</time></trkpt><trkpt lat="42.3718418" lon="13.1670469"><ele>955.0</ele><time>2026-04-08T16:49:55.924Z</time></trkpt><trkpt lat="42.3716169" lon="13.16725"><ele>955.0</ele><time>2026-04-08T16:49:56.925Z</time></trkpt><trkpt lat="42.3713843" lon="13.1674301"><ele>957.0</ele><time>2026-04-08T16:49:57.927Z</time></trkpt><trkpt lat="42.3711513" lon="13.1675815"><ele>959.0</ele><time>2026-04-08T16:49:58.926Z</time></trkpt><trkpt lat="42.3709235" lon="13.1677105"><ele>959.0</ele><time>2026-04-08T16:49:59.936Z</time></trkpt><trkpt lat="42.3707035" lon="13.1678507"><ele>959.0</ele><time>2026-04-08T16:50:00.927Z</time></trkpt><trkpt lat="42.3704918" lon="13.1680118"><ele>961.0</ele><time>2026-04-08T16:50:01.925Z</time></trkpt><trkpt lat="42.3702881" lon="13.1681933"><ele>963.0</ele><time>2026-04-08T16:50:02.925Z</time></trkpt><trkpt lat="42.3700884" lon="13.16838"><ele>963.0</ele><time>2026-04-08T16:50:03.925Z</time></trkpt><trkpt lat="42.3698981" lon="13.1685553"><ele>963.0</ele><time>2026-04-08T16:50:04.927Z</time></trkpt><trkpt lat="42.3697188" lon="13.1687272"><ele>963.3333333333333</ele><time>2026-04-08T16:50:05.926Z</time></trkpt><trkpt lat="42.3695562" lon="13.1688956"><ele>963.6666666666666</ele><time>2026-04-08T16:50:06.925Z</time></trkpt><trkpt lat="42.3694239" lon="13.169087"><ele>964.0</ele><time>2026-04-08T16:50:07.931Z</time></trkpt><trkpt lat="42.3693138" lon="13.1692897"><ele>964.0</ele><time>2026-04-08T16:50:08.928Z</time></trkpt><trkpt lat="42.3692381" lon="13.169495"><ele>964.0</ele><time>2026-04-08T16:50:09.924Z</time></trkpt><trkpt lat="42.3691766" lon="13.169721"><ele>964.0</ele><time>2026-04-08T16:50:10.925Z</time></trkpt><trkpt lat="42.369123" lon="13.1699605"><ele>964.6666666666666</ele><time>2026-04-08T16:50:11.926Z</time></trkpt><trkpt lat="42.3690699" lon="13.1702038"><ele>965.3333333333333</ele><time>2026-04-08T16:50:12.926Z</time></trkpt><trkpt lat="42.3690141" lon="13.1704443"><ele>966.0</ele><time>2026-04-08T16:50:13.925Z</time></trkpt><trkpt lat="42.3689598" lon="13.1706892"><ele>967.6666666666667</ele><time>2026-04-08T16:50:14.926Z</time></trkpt><trkpt lat="42.3689094" lon="13.1709255"><ele>969.3333333333334</ele><time>2026-04-08T16:50:15.926Z</time></trkpt><trkpt lat="42.3688671" lon="13.1711729"><ele>971.0</ele><time>2026-04-08T16:50:16.937Z</time></trkpt><trkpt lat="42.3688387" lon="13.1714224"><ele>969.0</ele><time>2026-04-08T16:50:17.928Z</time></trkpt><trkpt lat="42.3688217" lon="13.1716749"><ele>967.0</ele><time>2026-04-08T16:50:18.925Z</time></trkpt><trkpt lat="42.368813" lon="13.1719321"><ele>965.0</ele><time>2026-04-08T16:50:19.926Z</time></trkpt><trkpt lat="42.3688129" lon="13.1721981"><ele>965.3333333333334</ele><time>2026-04-08T16:50:20.927Z</time></trkpt><trkpt lat="42.3688204" lon="13.1724681"><ele>965.6666666666667</ele><time>2026-04-08T16:50:21.927Z</time></trkpt><trkpt lat="42.3688406" lon="13.1727264"><ele>966.0</ele><time>2026-04-08T16:50:22.927Z</time></trkpt><trkpt lat="42.3688609" lon="13.1729865"><ele>968.6666666666667</ele><time>2026-04-08T16:50:23.925Z</time></trkpt><trkpt lat="42.3688826" lon="13.1732349"><ele>971.3333333333334</ele><time>2026-04-08T16:50:24.926Z</time></trkpt><trkpt lat="42.3688999" lon="13.1734751"><ele>974.0</ele><time>2026-04-08T16:50:25.925Z</time></trkpt><trkpt lat="42.3689114" lon="13.1737119"><ele>974.0</ele><time>2026-04-08T16:50:26.927Z</time></trkpt><trkpt lat="42.3689126" lon="13.1739532"><ele>974.0</ele><time>2026-04-08T16:50:27.926Z</time></trkpt><trkpt lat="42.3688955" lon="13.1741984"><ele>974.0</ele><time>2026-04-08T16:50:28.925Z</time></trkpt><trkpt lat="42.3688533" lon="13.1744443"><ele>972.3333333333334</ele><time>2026-04-08T16:50:29.925Z</time></trkpt><trkpt lat="42.3687919" lon="13.1746916"><ele>970.6666666666667</ele><time>2026-04-08T16:50:30.926Z</time></trkpt><trkpt lat="42.3687209" lon="13.1749393"><ele>969.0</ele><time>2026-04-08T16:50:31.923Z</time></trkpt><trkpt lat="42.3686422" lon="13.1751884"><ele>969.0</ele><time>2026-04-08T16:50:32.926Z</time></trkpt><trkpt lat="42.3685543" lon="13.1754374"><ele>969.0</ele><time>2026-04-08T16:50:33.926Z</time></trkpt><trkpt lat="42.3684463" lon="13.1756689"><ele>969.0</ele><time>2026-04-08T16:50:34.925Z</time></trkpt><trkpt lat="42.368329" lon="13.1758966"><ele>968.6666666666667</ele><time>2026-04-08T16:50:35.926Z</time></trkpt><trkpt lat="42.3682074" lon="13.1761139"><ele>968.3333333333334</ele><time>2026-04-08T16:50:36.925Z</time></trkpt><trkpt lat="42.3680836" lon="13.1763151"><ele>968.0</ele><time>2026-04-08T16:50:37.933Z</time></trkpt><trkpt lat="42.3679555" lon="13.1765071"><ele>970.3333333333334</ele><time>2026-04-08T16:50:38.925Z</time></trkpt><trkpt lat="42.3678252" lon="13.1766867"><ele>972.6666666666667</ele><time>2026-04-08T16:50:39.928Z</time></trkpt><trkpt lat="42.3676907" lon="13.1768566"><ele>975.0</ele><time>2026-04-08T16:50:40.929Z</time></trkpt><trkpt lat="42.3675568" lon="13.1770172"><ele>975.0</ele><time>2026-04-08T16:50:41.926Z</time></trkpt><trkpt lat="42.367409" lon="13.1771705"><ele>975.0</ele><time>2026-04-08T16:50:42.926Z</time></trkpt><trkpt lat="42.3672597" lon="13.1773101"><ele>975.0</ele><time>2026-04-08T16:50:43.925Z</time></trkpt><trkpt lat="42.3671038" lon="13.1774498"><ele>975.3333333333333</ele><time>2026-04-08T16:50:44.925Z</time></trkpt><trkpt lat="42.3669512" lon="13.1775951"><ele>975.6666666666666</ele><time>2026-04-08T16:50:45.925Z</time></trkpt><trkpt lat="42.3668013" lon="13.1777506"><ele>976.0</ele><time>2026-04-08T16:50:46.926Z</time></trkpt><trkpt lat="42.3666526" lon="13.1779095"><ele>976.0</ele><time>2026-04-08T16:50:47.927Z</time></trkpt><trkpt lat="42.3664994" lon="13.1780716"><ele>976.0</ele><time>2026-04-08T16:50:48.93Z</time></trkpt><trkpt lat="42.3663475" lon="13.1782354"><ele>976.0</ele><time>2026-04-08T16:50:49.926Z</time></trkpt><trkpt lat="42.3661984" lon="13.1784011"><ele>976.0</ele><time>2026-04-08T16:50:50.927Z</time></trkpt><trkpt lat="42.3660474" lon="13.1785652"><ele>976.0</ele><time>2026-04-08T16:50:51.925Z</time></trkpt><trkpt lat="42.365899" lon="13.1787302"><ele>976.0</ele><time>2026-04-08T16:50:52.924Z</time></trkpt><trkpt lat="42.3657545" lon="13.1789022"><ele>976.3333333333333</ele><time>2026-04-08T16:50:53.925Z</time></trkpt><trkpt lat="42.3656146" lon="13.1790762"><ele>976.6666666666667</ele><time>2026-04-08T16:50:54.927Z</time></trkpt><trkpt lat="42.3654771" lon="13.1792457"><ele>977.0</ele><time>2026-04-08T16:50:55.927Z</time></trkpt><trkpt lat="42.3653434" lon="13.1794131"><ele>977.0</ele><time>2026-04-08T16:50:56.927Z</time></trkpt><trkpt lat="42.3652196" lon="13.1795816"><ele>977.0</ele><time>2026-04-08T16:50:57.927Z</time></trkpt><trkpt lat="42.3650926" lon="13.1797543"><ele>977.0</ele><time>2026-04-08T16:50:58.925Z</time></trkpt><trkpt lat="42.3649658" lon="13.1799268"><ele>978.0</ele><time>2026-04-08T16:50:59.929Z</time></trkpt><trkpt lat="42.364836" lon="13.1801088"><ele>979.0</ele><time>2026-04-08T16:51:00.926Z</time></trkpt><trkpt lat="42.3647089" lon="13.1802852"><ele>980.0</ele><time>2026-04-08T16:51:01.929Z</time></trkpt><trkpt lat="42.3645943" lon="13.1804693"><ele>979.0</ele><time>2026-04-08T16:51:02.926Z</time></trkpt><trkpt lat="42.3644894" lon="13.1806666"><ele>978.0</ele><time>2026-04-08T16:51:03.926Z</time></trkpt><trkpt lat="42.3644" lon="13.1808722"><ele>977.0</ele><time>2026-04-08T16:51:04.926Z</time></trkpt><trkpt lat="42.3643184" lon="13.181101"><ele>977.0</ele><time>2026-04-08T16:51:05.924Z</time></trkpt><trkpt lat="42.3642454" lon="13.1813267"><ele>977.0</ele><time>2026-04-08T16:51:06.927Z</time></trkpt><trkpt lat="42.3641677" lon="13.1815712"><ele>977.0</ele><time>2026-04-08T16:51:07.926Z</time></trkpt><trkpt lat="42.3640887" lon="13.181829"><ele>978.5</ele><time>2026-04-08T16:51:08.933Z</time></trkpt><trkpt lat="42.3639975" lon="13.1821116"><ele>980.0</ele><time>2026-04-08T16:51:09.927Z</time></trkpt><trkpt lat="42.3639042" lon="13.1823949"><ele>978.5</ele><time>2026-04-08T16:51:10.927Z</time></trkpt><trkpt lat="42.3638144" lon="13.1826826"><ele>977.0</ele><time>2026-04-08T16:51:11.926Z</time></trkpt><trkpt lat="42.3637207" lon="13.1829615"><ele>979.0</ele><time>2026-04-08T16:51:12.926Z</time></trkpt><trkpt lat="42.3636328" lon="13.1832332"><ele>981.0</ele><time>2026-04-08T16:51:13.926Z</time></trkpt><trkpt lat="42.3635449" lon="13.1834939"><ele>983.0</ele><time>2026-04-08T16:51:14.925Z</time></trkpt><trkpt lat="42.3634604" lon="13.1837563"><ele>985.0</ele><time>2026-04-08T16:51:15.926Z</time></trkpt><trkpt lat="42.3633762" lon="13.1840202"><ele>987.0</ele><time>2026-04-08T16:51:16.927Z</time></trkpt><trkpt lat="42.3632844" lon="13.184281"><ele>989.0</ele><time>2026-04-08T16:51:17.926Z</time></trkpt><trkpt lat="42.363195" lon="13.1845506"><ele>989.0</ele><time>2026-04-08T16:51:18.928Z</time></trkpt><trkpt lat="42.3630989" lon="13.1848181"><ele>989.0</ele><time>2026-04-08T16:51:19.925Z</time></trkpt><trkpt lat="42.3629947" lon="13.1850785"><ele>989.0</ele><time>2026-04-08T16:51:20.926Z</time></trkpt><trkpt lat="42.3628756" lon="13.1853451"><ele>988.5</ele><time>2026-04-08T16:51:21.926Z</time></trkpt><trkpt lat="42.3627488" lon="13.185619"><ele>988.0</ele><time>2026-04-08T16:51:22.926Z</time></trkpt><trkpt lat="42.3626148" lon="13.1859159"><ele>988.0</ele><time>2026-04-08T16:51:23.927Z</time></trkpt><trkpt lat="42.3624728" lon="13.1862257"><ele>988.0</ele><time>2026-04-08T16:51:24.926Z</time></trkpt><trkpt lat="42.3623299" lon="13.1865335"><ele>988.0</ele><time>2026-04-08T16:51:25.927Z</time></trkpt><trkpt lat="42.362183" lon="13.1868451"><ele>988.0</ele><time>2026-04-08T16:51:26.926Z</time></trkpt><trkpt lat="42.3620342" lon="13.1871512"><ele>989.0</ele><time>2026-04-08T16:51:27.924Z</time></trkpt><trkpt lat="42.3618857" lon="13.187461"><ele>990.0</ele><time>2026-04-08T16:51:28.924Z</time></trkpt><trkpt lat="42.3617352" lon="13.1877708"><ele>990.0</ele><time>2026-04-08T16:51:29.927Z</time></trkpt><trkpt lat="42.3615821" lon="13.1880827"><ele>990.0</ele><time>2026-04-08T16:51:30.926Z</time></trkpt><trkpt lat="42.36143" lon="13.1883909"><ele>990.0</ele><time>2026-04-08T16:51:31.924Z</time></trkpt><trkpt lat="42.3612768" lon="13.1887017"><ele>990.0</ele><time>2026-04-08T16:51:32.924Z</time></trkpt><trkpt lat="42.3611245" lon="13.1890187"><ele>990.0</ele><time>2026-04-08T16:51:33.926Z</time></trkpt><trkpt lat="42.3609701" lon="13.1893382"><ele>990.0</ele><time>2026-04-08T16:51:34.928Z</time></trkpt><trkpt lat="42.360816" lon="13.1896558"><ele>990.5</ele><time>2026-04-08T16:51:35.926Z</time></trkpt><trkpt lat="42.3606644" lon="13.189977"><ele>991.0</ele><time>2026-04-08T16:51:36.926Z</time></trkpt><trkpt lat="42.3605114" lon="13.1902998"><ele>991.0</ele><time>2026-04-08T16:51:37.927Z</time></trkpt><trkpt lat="42.3603586" lon="13.190622"><ele>991.0</ele><time>2026-04-08T16:51:38.927Z</time></trkpt><trkpt lat="42.3602017" lon="13.1909494"><ele>992.0</ele><time>2026-04-08T16:51:39.927Z</time></trkpt><trkpt lat="42.3600428" lon="13.1912831"><ele>993.0</ele><time>2026-04-08T16:51:40.93Z</time></trkpt><trkpt lat="42.3598818" lon="13.1916138"><ele>994.0</ele><time>2026-04-08T16:51:41.929Z</time></trkpt><trkpt lat="42.3597233" lon="13.1919443"><ele>995.0</ele><time>2026-04-08T16:51:42.926Z</time></trkpt><trkpt lat="42.3595643" lon="13.1922767"><ele>994.5</ele><time>2026-04-08T16:51:43.928Z</time></trkpt><trkpt lat="42.3594026" lon="13.192609"><ele>994.0</ele><time>2026-04-08T16:51:44.928Z</time></trkpt><trkpt lat="42.3592409" lon="13.1929411"><ele>994.0</ele><time>2026-04-08T16:51:45.926Z</time></trkpt><trkpt lat="42.3590775" lon="13.1932774"><ele>994.0</ele><time>2026-04-08T16:51:46.926Z</time></trkpt><trkpt lat="42.3589161" lon="13.1936137"><ele>992.5</ele><time>2026-04-08T16:51:47.924Z</time></trkpt><trkpt lat="42.3587527" lon="13.1939493"><ele>991.0</ele><time>2026-04-08T16:51:48.926Z</time></trkpt><trkpt lat="42.3585908" lon="13.1942922"><ele>990.0</ele><time>2026-04-08T16:51:49.926Z</time></trkpt><trkpt lat="42.3584262" lon="13.1946348"><ele>989.0</ele><time>2026-04-08T16:51:50.926Z</time></trkpt><trkpt lat="42.3582668" lon="13.194984"><ele>989.0</ele><time>2026-04-08T16:51:51.928Z</time></trkpt><trkpt lat="42.3581008" lon="13.1953301"><ele>989.0</ele><time>2026-04-08T16:51:52.927Z</time></trkpt><trkpt lat="42.3579305" lon="13.1956725"><ele>989.0</ele><time>2026-04-08T16:51:53.927Z</time></trkpt><trkpt lat="42.3577681" lon="13.1960182"><ele>989.0</ele><time>2026-04-08T16:51:54.925Z</time></trkpt><trkpt lat="42.3576051" lon="13.1963545"><ele>988.5</ele><time>2026-04-08T16:51:55.927Z</time></trkpt><trkpt lat="42.3574526" lon="13.1966731"><ele>988.0</ele><time>2026-04-08T16:51:56.927Z</time></trkpt><trkpt lat="42.3573047" lon="13.1969739"><ele>985.5</ele><time>2026-04-08T16:51:57.926Z</time></trkpt><trkpt lat="42.3571518" lon="13.1972464"><ele>983.0</ele><time>2026-04-08T16:51:58.925Z</time></trkpt><trkpt lat="42.3569849" lon="13.1974917"><ele>982.5</ele><time>2026-04-08T16:51:59.931Z</time></trkpt><trkpt lat="42.356801" lon="13.1977056"><ele>982.0</ele><time>2026-04-08T16:52:00.924Z</time></trkpt><trkpt lat="42.3566003" lon="13.1979"><ele>982.0</ele><time>2026-04-08T16:52:01.926Z</time></trkpt><trkpt lat="42.3563823" lon="13.1980809"><ele>982.0</ele><time>2026-04-08T16:52:02.925Z</time></trkpt><trkpt lat="42.3561485" lon="13.1982578"><ele>978.0</ele><time>2026-04-08T16:52:03.931Z</time></trkpt><trkpt lat="42.3559027" lon="13.1984448"><ele>974.0</ele><time>2026-04-08T16:52:04.928Z</time></trkpt><trkpt lat="42.3556565" lon="13.1986451"><ele>972.0</ele><time>2026-04-08T16:52:05.926Z</time></trkpt><trkpt lat="42.3554033" lon="13.1988485"><ele>970.0</ele><time>2026-04-08T16:52:06.925Z</time></trkpt><trkpt lat="42.3551479" lon="13.1990534"><ele>968.5</ele><time>2026-04-08T16:52:07.928Z</time></trkpt><trkpt lat="42.3548965" lon="13.1992536"><ele>967.0</ele><time>2026-04-08T16:52:08.926Z</time></trkpt><trkpt lat="42.3546477" lon="13.1994524"><ele>964.0</ele><time>2026-04-08T16:52:09.928Z</time></trkpt><trkpt lat="42.3544047" lon="13.1996474"><ele>961.0</ele><time>2026-04-08T16:52:10.925Z</time></trkpt><trkpt lat="42.3541601" lon="13.1998413"><ele>961.0</ele><time>2026-04-08T16:52:11.925Z</time></trkpt><trkpt lat="42.3539073" lon="13.1999923"><ele>961.0</ele><time>2026-04-08T16:52:12.926Z</time></trkpt><trkpt lat="42.3536428" lon="13.2001292"><ele>958.0</ele><time>2026-04-08T16:52:13.927Z</time></trkpt><trkpt lat="42.3533681" lon="13.2002296"><ele>955.0</ele><time>2026-04-08T16:52:14.926Z</time></trkpt><trkpt lat="42.353097" lon="13.2003323"><ele>952.0</ele><time>2026-04-08T16:52:15.928Z</time></trkpt><trkpt lat="42.3528121" lon="13.2004329"><ele>949.0</ele><time>2026-04-08T16:52:16.926Z</time></trkpt><trkpt lat="42.3525219" lon="13.2005368"><ele>949.0</ele><time>2026-04-08T16:52:17.927Z</time></trkpt><trkpt lat="42.3522313" lon="13.2006454"><ele>949.0</ele><time>2026-04-08T16:52:18.926Z</time></trkpt><trkpt lat="42.3519414" lon="13.2007526"><ele>948.5</ele><time>2026-04-08T16:52:19.925Z</time></trkpt><trkpt lat="42.3516513" lon="13.2008606"><ele>948.0</ele><time>2026-04-08T16:52:20.925Z</time></trkpt><trkpt lat="42.3513734" lon="13.2009646"><ele>944.0</ele><time>2026-04-08T16:52:21.926Z</time></trkpt><trkpt lat="42.3511018" lon="13.2010644"><ele>940.0</ele><time>2026-04-08T16:52:22.927Z</time></trkpt><trkpt lat="42.3508536" lon="13.2011508"><ele>940.0</ele><time>2026-04-08T16:52:23.924Z</time></trkpt><trkpt lat="42.350626" lon="13.2012344"><ele>940.0</ele><time>2026-04-08T16:52:24.925Z</time></trkpt><trkpt lat="42.350418" lon="13.2013115"><ele>939.6666666666666</ele><time>2026-04-08T16:52:25.928Z</time></trkpt><trkpt lat="42.3502241" lon="13.2013947"><ele>939.3333333333333</ele><time>2026-04-08T16:52:26.932Z</time></trkpt><trkpt lat="42.3500398" lon="13.2014985"><ele>939.0</ele><time>2026-04-08T16:52:27.926Z</time></trkpt><trkpt lat="42.3498685" lon="13.201629"><ele>940.6666666666667</ele><time>2026-04-08T16:52:28.926Z</time></trkpt><trkpt lat="42.3497129" lon="13.2018118"><ele>942.3333333333334</ele><time>2026-04-08T16:52:29.929Z</time></trkpt><trkpt lat="42.3495713" lon="13.2020312"><ele>944.0</ele><time>2026-04-08T16:52:30.927Z</time></trkpt><trkpt lat="42.3494422" lon="13.2022835"><ele>939.0</ele><time>2026-04-08T16:52:31.926Z</time></trkpt><trkpt lat="42.3493202" lon="13.2025533"><ele>934.0</ele><time>2026-04-08T16:52:32.926Z</time></trkpt><trkpt lat="42.3492062" lon="13.2028418"><ele>934.0</ele><time>2026-04-08T16:52:33.924Z</time></trkpt><trkpt lat="42.3491" lon="13.203139"><ele>934.0</ele><time>2026-04-08T16:52:34.926Z</time></trkpt><trkpt lat="42.3490086" lon="13.2034526"><ele>936.5</ele><time>2026-04-08T16:52:35.928Z</time></trkpt><trkpt lat="42.3489272" lon="13.2037797"><ele>939.0</ele><time>2026-04-08T16:52:36.926Z</time></trkpt><trkpt lat="42.3488552" lon="13.2041189"><ele>931.0</ele><time>2026-04-08T16:52:37.925Z</time></trkpt><trkpt lat="42.3487874" lon="13.2044622"><ele>923.0</ele><time>2026-04-08T16:52:38.927Z</time></trkpt><trkpt lat="42.3487202" lon="13.2048198"><ele>923.0</ele><time>2026-04-08T16:52:39.929Z</time></trkpt><trkpt lat="42.3486484" lon="13.2051751"><ele>923.0</ele><time>2026-04-08T16:52:40.922Z</time></trkpt><trkpt lat="42.3485772" lon="13.2055179"><ele>922.0</ele><time>2026-04-08T16:52:41.933Z</time></trkpt><trkpt lat="42.3485085" lon="13.2058482"><ele>921.0</ele><time>2026-04-08T16:52:42.925Z</time></trkpt><trkpt lat="42.3484468" lon="13.2061453"><ele>921.0</ele><time>2026-04-08T16:52:43.928Z</time></trkpt><trkpt lat="42.3483766" lon="13.2064181"><ele>921.0</ele><time>2026-04-08T16:52:44.936Z</time></trkpt><trkpt lat="42.3482897" lon="13.2066824"><ele>921.0</ele><time>2026-04-08T16:52:45.926Z</time></trkpt><trkpt lat="42.3481716" lon="13.2069331"><ele>922.5</ele><time>2026-04-08T16:52:46.928Z</time></trkpt><trkpt lat="42.3480449" lon="13.2071816"><ele>924.0</ele><time>2026-04-08T16:52:47.926Z</time></trkpt><trkpt lat="42.3478777" lon="13.2074198"><ele>919.0</ele><time>2026-04-08T16:52:48.924Z</time></trkpt><trkpt lat="42.3477111" lon="13.2076612"><ele>914.0</ele><time>2026-04-08T16:52:49.928Z</time></trkpt><trkpt lat="42.347536" lon="13.2079012"><ele>914.0</ele><time>2026-04-08T16:52:50.927Z</time></trkpt><trkpt lat="42.3473447" lon="13.2081386"><ele>914.0</ele><time>2026-04-08T16:52:51.926Z</time></trkpt><trkpt lat="42.3471383" lon="13.2083611"><ele>911.5</ele><time>2026-04-08T16:52:52.925Z</time></trkpt><trkpt lat="42.3469263" lon="13.2085814"><ele>909.0</ele><time>2026-04-08T16:52:53.926Z</time></trkpt><trkpt lat="42.3467195" lon="13.2087845"><ele>909.0</ele><time>2026-04-08T16:52:54.924Z</time></trkpt><trkpt lat="42.3465271" lon="13.2089788"><ele>909.0</ele><time>2026-04-08T16:52:55.926Z</time></trkpt><trkpt lat="42.3463537" lon="13.2091544"><ele>907.3333333333333</ele><time>2026-04-08T16:52:56.926Z</time></trkpt><trkpt lat="42.3461983" lon="13.2093409"><ele>905.6666666666666</ele><time>2026-04-08T16:52:57.926Z</time></trkpt><trkpt lat="42.3460673" lon="13.209545"><ele>904.0</ele><time>2026-04-08T16:52:58.925Z</time></trkpt><trkpt lat="42.3459529" lon="13.2097701"><ele>905.5</ele><time>2026-04-08T16:52:59.925Z</time></trkpt><trkpt lat="42.3458895" lon="13.2100627"><ele>907.0</ele><time>2026-04-08T16:53:00.923Z</time></trkpt><trkpt lat="42.3458247" lon="13.2103697"><ele>908.0</ele><time>2026-04-08T16:53:01.925Z</time></trkpt><trkpt lat="42.345763" lon="13.2106925"><ele>909.0</ele><time>2026-04-08T16:53:02.927Z</time></trkpt><trkpt lat="42.3456931" lon="13.2110171"><ele>909.0</ele><time>2026-04-08T16:53:03.927Z</time></trkpt><trkpt lat="42.3456262" lon="13.2113337"><ele>909.0</ele><time>2026-04-08T16:53:04.928Z</time></trkpt><trkpt lat="42.3455643" lon="13.211637"><ele>907.3333333333333</ele><time>2026-04-08T16:53:05.924Z</time></trkpt><trkpt lat="42.3455146" lon="13.211915"><ele>905.6666666666666</ele><time>2026-04-08T16:53:06.928Z</time></trkpt><trkpt lat="42.3454922" lon="13.2121867"><ele>904.0</ele><time>2026-04-08T16:53:07.924Z</time></trkpt><trkpt lat="42.345508" lon="13.2124664"><ele>905.3333333333333</ele><time>2026-04-08T16:53:08.926Z</time></trkpt><trkpt lat="42.3455629" lon="13.2127453"><ele>906.6666666666667</ele><time>2026-04-08T16:53:09.925Z</time></trkpt><trkpt lat="42.345648" lon="13.21302"><ele>908.0</ele><time>2026-04-08T16:53:10.925Z</time></trkpt><trkpt lat="42.3457474" lon="13.2133141"><ele>904.0</ele><time>2026-04-08T16:53:11.927Z</time></trkpt><trkpt lat="42.3458505" lon="13.2136214"><ele>900.0</ele><time>2026-04-08T16:53:12.925Z</time></trkpt><trkpt lat="42.3459633" lon="13.2139316"><ele>897.5</ele><time>2026-04-08T16:53:13.934Z</time></trkpt><trkpt lat="42.3460683" lon="13.2142554"><ele>895.0</ele><time>2026-04-08T16:53:14.929Z</time></trkpt><trkpt lat="42.3461602" lon="13.2145935"><ele>892.0</ele><time>2026-04-08T16:53:15.923Z</time></trkpt><trkpt lat="42.3462279" lon="13.214942"><ele>889.0</ele><time>2026-04-08T16:53:16.927Z</time></trkpt><trkpt lat="42.3462738" lon="13.2152937"><ele>889.0</ele><time>2026-04-08T16:53:17.925Z</time></trkpt><trkpt lat="42.3462924" lon="13.2156525"><ele>889.0</ele><time>2026-04-08T16:53:18.926Z</time></trkpt><trkpt lat="42.3462943" lon="13.2160109"><ele>887.0</ele><time>2026-04-08T16:53:19.927Z</time></trkpt><trkpt lat="42.3462898" lon="13.2163706"><ele>885.0</ele><time>2026-04-08T16:53:20.941Z</time></trkpt><trkpt lat="42.3462831" lon="13.2167245"><ele>884.0</ele><time>2026-04-08T16:53:21.927Z</time></trkpt><trkpt lat="42.3462822" lon="13.217061"><ele>883.0</ele><time>2026-04-08T16:53:22.926Z</time></trkpt><trkpt lat="42.3462812" lon="13.2173869"><ele>882.5</ele><time>2026-04-08T16:53:23.928Z</time></trkpt><trkpt lat="42.3462703" lon="13.2177048"><ele>882.0</ele><time>2026-04-08T16:53:24.927Z</time></trkpt><trkpt lat="42.3462459" lon="13.2180266"><ele>882.0</ele><time>2026-04-08T16:53:25.924Z</time></trkpt><trkpt lat="42.3461959" lon="13.2183542"><ele>882.0</ele><time>2026-04-08T16:53:26.925Z</time></trkpt><trkpt lat="42.346128" lon="13.2186906"><ele>882.0</ele><time>2026-04-08T16:53:27.926Z</time></trkpt><trkpt lat="42.3460457" lon="13.2190397"><ele>882.0</ele><time>2026-04-08T16:53:28.927Z</time></trkpt><trkpt lat="42.3459619" lon="13.2193928"><ele>882.0</ele><time>2026-04-08T16:53:29.93Z</time></trkpt><trkpt lat="42.345877" lon="13.2197546"><ele>882.0</ele><time>2026-04-08T16:53:30.924Z</time></trkpt><trkpt lat="42.3457888" lon="13.2201218"><ele>882.0</ele><time>2026-04-08T16:53:31.925Z</time></trkpt><trkpt lat="42.3457" lon="13.2204944"><ele>882.0</ele><time>2026-04-08T16:53:32.927Z</time></trkpt><trkpt lat="42.3456118" lon="13.2208732"><ele>877.0</ele><time>2026-04-08T16:53:33.925Z</time></trkpt><trkpt lat="42.3455228" lon="13.2212568"><ele>872.0</ele><time>2026-04-08T16:53:34.929Z</time></trkpt><trkpt lat="42.3454305" lon="13.2216376"><ele>872.0</ele><time>2026-04-08T16:53:35.927Z</time></trkpt><trkpt lat="42.3453369" lon="13.222023"><ele>872.0</ele><time>2026-04-08T16:53:36.924Z</time></trkpt><trkpt lat="42.3452461" lon="13.2224056"><ele>870.0</ele><time>2026-04-08T16:53:37.925Z</time></trkpt><trkpt lat="42.3451513" lon="13.222789"><ele>868.0</ele><time>2026-04-08T16:53:38.927Z</time></trkpt><trkpt lat="42.3450573" lon="13.2231719"><ele>867.5</ele><time>2026-04-08T16:53:39.927Z</time></trkpt><trkpt lat="42.3449656" lon="13.2235534"><ele>867.0</ele><time>2026-04-08T16:53:40.926Z</time></trkpt><trkpt lat="42.3448807" lon="13.2239357"><ele>866.5</ele><time>2026-04-08T16:53:41.924Z</time></trkpt><trkpt lat="42.3447935" lon="13.2243116"><ele>866.0</ele><time>2026-04-08T16:53:42.924Z</time></trkpt><trkpt lat="42.3447094" lon="13.2246726"><ele>861.0</ele><time>2026-04-08T16:53:43.924Z</time></trkpt><trkpt lat="42.3446228" lon="13.2250142"><ele>856.0</ele><time>2026-04-08T16:53:44.927Z</time></trkpt><trkpt lat="42.3445207" lon="13.2253432"><ele>857.0</ele><time>2026-04-08T16:53:45.924Z</time></trkpt><trkpt lat="42.3443979" lon="13.2256635"><ele>858.0</ele><time>2026-04-08T16:53:46.926Z</time></trkpt><trkpt lat="42.3442548" lon="13.2259833"><ele>858.0</ele><time>2026-04-08T16:53:47.927Z</time></trkpt><trkpt lat="42.3441011" lon="13.2263003"><ele>858.0</ele><time>2026-04-08T16:53:48.929Z</time></trkpt><trkpt lat="42.343939" lon="13.2266172"><ele>856.5</ele><time>2026-04-08T16:53:49.927Z</time></trkpt><trkpt lat="42.343771" lon="13.2269313"><ele>855.0</ele><time>2026-04-08T16:53:50.927Z</time></trkpt><trkpt lat="42.3435874" lon="13.2272296"><ele>855.0</ele><time>2026-04-08T16:53:51.924Z</time></trkpt><trkpt lat="42.3433925" lon="13.2275146"><ele>855.0</ele><time>2026-04-08T16:53:52.924Z</time></trkpt><trkpt lat="42.3431864" lon="13.2277828"><ele>852.5</ele><time>2026-04-08T16:53:53.924Z</time></trkpt><trkpt lat="42.3429727" lon="13.2280424"><ele>850.0</ele><time>2026-04-08T16:53:54.925Z</time></trkpt><trkpt lat="42.3427548" lon="13.2282896"><ele>850.0</ele><time>2026-04-08T16:53:55.926Z</time></trkpt><trkpt lat="42.3425455" lon="13.22855"><ele>850.0</ele><time>2026-04-08T16:53:56.927Z</time></trkpt><trkpt lat="42.3423416" lon="13.2288269"><ele>846.5</ele><time>2026-04-08T16:53:57.925Z</time></trkpt><trkpt lat="42.3421456" lon="13.2291107"><ele>843.0</ele><time>2026-04-08T16:53:58.924Z</time></trkpt><trkpt lat="42.3419587" lon="13.229404"><ele>843.0</ele><time>2026-04-08T16:53:59.923Z</time></trkpt><trkpt lat="42.341774" lon="13.2297084"><ele>843.0</ele><time>2026-04-08T16:54:00.926Z</time></trkpt><trkpt lat="42.3416007" lon="13.2300229"><ele>842.5</ele><time>2026-04-08T16:54:01.925Z</time></trkpt><trkpt lat="42.341435" lon="13.2303366"><ele>842.0</ele><time>2026-04-08T16:54:02.926Z</time></trkpt><trkpt lat="42.3412709" lon="13.2306584"><ele>842.0</ele><time>2026-04-08T16:54:03.924Z</time></trkpt><trkpt lat="42.3411086" lon="13.2309765"><ele>842.0</ele><time>2026-04-08T16:54:04.926Z</time></trkpt><trkpt lat="42.3409475" lon="13.2312956"><ele>842.5</ele><time>2026-04-08T16:54:05.925Z</time></trkpt><trkpt lat="42.3407935" lon="13.2315989"><ele>843.0</ele><time>2026-04-08T16:54:06.926Z</time></trkpt><trkpt lat="42.3406431" lon="13.2318945"><ele>843.0</ele><time>2026-04-08T16:54:07.926Z</time></trkpt><trkpt lat="42.3404975" lon="13.2321816"><ele>843.0</ele><time>2026-04-08T16:54:08.926Z</time></trkpt><trkpt lat="42.3403557" lon="13.2324604"><ele>841.0</ele><time>2026-04-08T16:54:09.926Z</time></trkpt><trkpt lat="42.3402074" lon="13.2327133"><ele>839.0</ele><time>2026-04-08T16:54:10.927Z</time></trkpt><trkpt lat="42.3400546" lon="13.2329483"><ele>838.3333333333334</ele><time>2026-04-08T16:54:11.926Z</time></trkpt><trkpt lat="42.3399122" lon="13.2331671"><ele>837.6666666666667</ele><time>2026-04-08T16:54:12.925Z</time></trkpt><trkpt lat="42.339788" lon="13.2333655"><ele>837.0</ele><time>2026-04-08T16:54:13.941Z</time></trkpt><trkpt lat="42.3396687" lon="13.2335568"><ele>837.0</ele><time>2026-04-08T16:54:14.925Z</time></trkpt><trkpt lat="42.33956" lon="13.2337466"><ele>837.0</ele><time>2026-04-08T16:54:15.93Z</time></trkpt><trkpt lat="42.3394729" lon="13.2339331"><ele>837.0</ele><time>2026-04-08T16:54:16.925Z</time></trkpt><trkpt lat="42.339396" lon="13.2341212"><ele>838.3333333333333</ele><time>2026-04-08T16:54:17.927Z</time></trkpt><trkpt lat="42.339321" lon="13.2343111"><ele>839.6666666666666</ele><time>2026-04-08T16:54:18.922Z</time></trkpt><trkpt lat="42.3392482" lon="13.2344895"><ele>841.0</ele><time>2026-04-08T16:54:19.925Z</time></trkpt><trkpt lat="42.3391827" lon="13.2346703"><ele>842.5</ele><time>2026-04-08T16:54:20.927Z</time></trkpt><trkpt lat="42.3391353" lon="13.2348523"><ele>844.0</ele><time>2026-04-08T16:54:21.926Z</time></trkpt><trkpt lat="42.3391053" lon="13.2350468"><ele>845.5</ele><time>2026-04-08T16:54:22.925Z</time></trkpt><trkpt lat="42.3390937" lon="13.2352382"><ele>847.0</ele><time>2026-04-08T16:54:23.931Z</time></trkpt><trkpt lat="42.3390907" lon="13.2354349"><ele>847.0</ele><time>2026-04-08T16:54:24.925Z</time></trkpt><trkpt lat="42.339068" lon="13.2356188"><ele>847.0</ele><time>2026-04-08T16:54:25.926Z</time></trkpt><trkpt lat="42.3390249" lon="13.2357838"><ele>847.0</ele><time>2026-04-08T16:54:26.925Z</time></trkpt><trkpt lat="42.3389797" lon="13.2359456"><ele>847.0</ele><time>2026-04-08T16:54:27.925Z</time></trkpt><trkpt lat="42.3389349" lon="13.2361062"><ele>846.5</ele><time>2026-04-08T16:54:28.931Z</time></trkpt><trkpt lat="42.3389009" lon="13.2362641"><ele>846.0</ele><time>2026-04-08T16:54:29.926Z</time></trkpt><trkpt lat="42.3388739" lon="13.2364181"><ele>845.5</ele><time>2026-04-08T16:54:30.927Z</time></trkpt><trkpt lat="42.3388655" lon="13.2365768"><ele>845.0</ele><time>2026-04-08T16:54:31.927Z</time></trkpt><trkpt lat="42.3388828" lon="13.2367339"><ele>845.0</ele><time>2026-04-08T16:54:32.925Z</time></trkpt><trkpt lat="42.3389155" lon="13.2368976"><ele>845.0</ele><time>2026-04-08T16:54:33.927Z</time></trkpt><trkpt lat="42.3389681" lon="13.2370526"><ele>845.0</ele><time>2026-04-08T16:54:34.926Z</time></trkpt><trkpt lat="42.339023" lon="13.2372071"><ele>845.0</ele><time>2026-04-08T16:54:35.926Z</time></trkpt><trkpt lat="42.3390819" lon="13.2373748"><ele>839.6666666666667</ele><time>2026-04-08T16:54:36.927Z</time></trkpt><trkpt lat="42.3391425" lon="13.2375537"><ele>834.3333333333333</ele><time>2026-04-08T16:54:37.927Z</time></trkpt><trkpt lat="42.3392152" lon="13.2377429"><ele>829.0</ele><time>2026-04-08T16:54:38.927Z</time></trkpt><trkpt lat="42.339305" lon="13.2379695"><ele>820.0</ele><time>2026-04-08T16:54:39.929Z</time></trkpt><trkpt lat="42.3394141" lon="13.2382414"><ele>811.0</ele><time>2026-04-08T16:54:40.925Z</time></trkpt><trkpt lat="42.3395383" lon="13.2385357"><ele>811.0</ele><time>2026-04-08T16:54:41.927Z</time></trkpt><trkpt lat="42.3396701" lon="13.23885"><ele>811.0</ele><time>2026-04-08T16:54:42.928Z</time></trkpt><trkpt lat="42.3398014" lon="13.2391733"><ele>815.0</ele><time>2026-04-08T16:54:43.928Z</time></trkpt><trkpt lat="42.3399318" lon="13.2395001"><ele>819.0</ele><time>2026-04-08T16:54:44.926Z</time></trkpt><trkpt lat="42.3400665" lon="13.2398318"><ele>809.0</ele><time>2026-04-08T16:54:45.926Z</time></trkpt><trkpt lat="42.3402057" lon="13.2401602"><ele>799.0</ele><time>2026-04-08T16:54:46.93Z</time></trkpt><trkpt lat="42.3403381" lon="13.2404726"><ele>796.0</ele><time>2026-04-08T16:54:47.927Z</time></trkpt><trkpt lat="42.3404687" lon="13.2407743"><ele>793.0</ele><time>2026-04-08T16:54:48.927Z</time></trkpt><trkpt lat="42.3405935" lon="13.2410689"><ele>791.5</ele><time>2026-04-08T16:54:49.926Z</time></trkpt><trkpt lat="42.3407128" lon="13.2413596"><ele>790.0</ele><time>2026-04-08T16:54:50.926Z</time></trkpt><trkpt lat="42.3408366" lon="13.2416374"><ele>790.0</ele><time>2026-04-08T16:54:51.926Z</time></trkpt><trkpt lat="42.3409741" lon="13.2419115"><ele>790.0</ele><time>2026-04-08T16:54:52.927Z</time></trkpt><trkpt lat="42.3411276" lon="13.2421698"><ele>793.5</ele><time>2026-04-08T16:54:53.928Z</time></trkpt><trkpt lat="42.34129" lon="13.2424113"><ele>797.0</ele><time>2026-04-08T16:54:54.924Z</time></trkpt><trkpt lat="42.3414535" lon="13.2426367"><ele>797.0</ele><time>2026-04-08T16:54:55.926Z</time></trkpt><trkpt lat="42.3416069" lon="13.2428554"><ele>797.0</ele><time>2026-04-08T16:54:56.924Z</time></trkpt><trkpt lat="42.3417309" lon="13.2430801"><ele>797.0</ele><time>2026-04-08T16:54:57.926Z</time></trkpt><trkpt lat="42.3418233" lon="13.2433215"><ele>791.3333333333334</ele><time>2026-04-08T16:54:58.924Z</time></trkpt><trkpt lat="42.3418954" lon="13.243549"><ele>785.6666666666667</ele><time>2026-04-08T16:54:59.925Z</time></trkpt><trkpt lat="42.341983" lon="13.2437488"><ele>780.0</ele><time>2026-04-08T16:55:00.927Z</time></trkpt><trkpt lat="42.3420969" lon="13.2439277"><ele>780.3333333333333</ele><time>2026-04-08T16:55:01.929Z</time></trkpt><trkpt lat="42.3422418" lon="13.2440872"><ele>780.6666666666666</ele><time>2026-04-08T16:55:02.925Z</time></trkpt><trkpt lat="42.3424082" lon="13.2442437"><ele>781.0</ele><time>2026-04-08T16:55:03.924Z</time></trkpt><trkpt lat="42.3425731" lon="13.2444164"><ele>781.0</ele><time>2026-04-08T16:55:04.932Z</time></trkpt><trkpt lat="42.3427341" lon="13.244612"><ele>781.0</ele><time>2026-04-08T16:55:05.925Z</time></trkpt><trkpt lat="42.3428806" lon="13.2448336"><ele>781.0</ele><time>2026-04-08T16:55:06.925Z</time></trkpt><trkpt lat="42.3430293" lon="13.245076"><ele>781.0</ele><time>2026-04-08T16:55:07.926Z</time></trkpt><trkpt lat="42.3431813" lon="13.245323"><ele>781.0</ele><time>2026-04-08T16:55:08.923Z</time></trkpt><trkpt lat="42.3433359" lon="13.2455757"><ele>771.5</ele><time>2026-04-08T16:55:09.926Z</time></trkpt><trkpt lat="42.3434896" lon="13.2458159"><ele>762.0</ele><time>2026-04-08T16:55:10.928Z</time></trkpt><trkpt lat="42.3436368" lon="13.2460485"><ele>762.0</ele><time>2026-04-08T16:55:11.923Z</time></trkpt><trkpt lat="42.3437785" lon="13.2462807"><ele>762.0</ele><time>2026-04-08T16:55:12.926Z</time></trkpt><trkpt lat="42.3438997" lon="13.2464957"><ele>762.0</ele><time>2026-04-08T16:55:13.923Z</time></trkpt><trkpt lat="42.3439988" lon="13.2467221"><ele>760.6666666666666</ele><time>2026-04-08T16:55:14.926Z</time></trkpt><trkpt lat="42.3440704" lon="13.2469582"><ele>759.3333333333333</ele><time>2026-04-08T16:55:15.923Z</time></trkpt><trkpt lat="42.3441273" lon="13.247203"><ele>758.0</ele><time>2026-04-08T16:55:16.927Z</time></trkpt><trkpt lat="42.3441961" lon="13.2474396"><ele>758.0</ele><time>2026-04-08T16:55:17.925Z</time></trkpt><trkpt lat="42.3442977" lon="13.2476715"><ele>758.0</ele><time>2026-04-08T16:55:18.924Z</time></trkpt><trkpt lat="42.3444184" lon="13.2478877"><ele>758.0</ele><time>2026-04-08T16:55:19.925Z</time></trkpt><trkpt lat="42.3445622" lon="13.2480893"><ele>757.3333333333333</ele><time>2026-04-08T16:55:20.926Z</time></trkpt><trkpt lat="42.3447219" lon="13.2482789"><ele>756.6666666666666</ele><time>2026-04-08T16:55:21.924Z</time></trkpt><trkpt lat="42.3448907" lon="13.2484551"><ele>756.0</ele><time>2026-04-08T16:55:22.925Z</time></trkpt><trkpt lat="42.3450551" lon="13.248623"><ele>756.0</ele><time>2026-04-08T16:55:23.924Z</time></trkpt><trkpt lat="42.345206" lon="13.2487729"><ele>756.0</ele><time>2026-04-08T16:55:24.925Z</time></trkpt><trkpt lat="42.3453355" lon="13.2489019"><ele>756.0</ele><time>2026-04-08T16:55:25.925Z</time></trkpt><trkpt lat="42.3454463" lon="13.2490392"><ele>755.0</ele><time>2026-04-08T16:55:26.926Z</time></trkpt><trkpt lat="42.3455337" lon="13.2492047"><ele>754.0</ele><time>2026-04-08T16:55:27.926Z</time></trkpt><trkpt lat="42.3455997" lon="13.2493922"><ele>753.0</ele><time>2026-04-08T16:55:28.925Z</time></trkpt><trkpt lat="42.3456343" lon="13.2496111"><ele>751.6666666666666</ele><time>2026-04-08T16:55:29.924Z</time></trkpt><trkpt lat="42.3456449" lon="13.2498418"><ele>750.3333333333333</ele><time>2026-04-08T16:55:30.926Z</time></trkpt><trkpt lat="42.3456505" lon="13.2500944"><ele>749.0</ele><time>2026-04-08T16:55:31.925Z</time></trkpt><trkpt lat="42.3456657" lon="13.2503547"><ele>749.0</ele><time>2026-04-08T16:55:32.926Z</time></trkpt><trkpt lat="42.3456935" lon="13.2506236"><ele>749.0</ele><time>2026-04-08T16:55:33.925Z</time></trkpt><trkpt lat="42.3457218" lon="13.2508926"><ele>749.0</ele><time>2026-04-08T16:55:34.925Z</time></trkpt><trkpt lat="42.3457377" lon="13.251151"><ele>748.0</ele><time>2026-04-08T16:55:35.933Z</time></trkpt><trkpt lat="42.3457295" lon="13.2514009"><ele>747.0</ele><time>2026-04-08T16:55:36.925Z</time></trkpt><trkpt lat="42.3457008" lon="13.2516387"><ele>746.0</ele><time>2026-04-08T16:55:37.925Z</time></trkpt><trkpt lat="42.3456802" lon="13.2518594"><ele>744.0</ele><time>2026-04-08T16:55:38.927Z</time></trkpt><trkpt lat="42.3456872" lon="13.2520901"><ele>742.0</ele><time>2026-04-08T16:55:39.926Z</time></trkpt><trkpt lat="42.3457378" lon="13.2523222"><ele>740.0</ele><time>2026-04-08T16:55:40.925Z</time></trkpt><trkpt lat="42.3457984" lon="13.2525607"><ele>738.6666666666666</ele><time>2026-04-08T16:55:41.933Z</time></trkpt><trkpt lat="42.3458646" lon="13.2528045"><ele>737.3333333333334</ele><time>2026-04-08T16:55:42.927Z</time></trkpt><trkpt lat="42.3459296" lon="13.2530441"><ele>736.0</ele><time>2026-04-08T16:55:43.925Z</time></trkpt><trkpt lat="42.3459958" lon="13.2532752"><ele>735.3333333333334</ele><time>2026-04-08T16:55:44.927Z</time></trkpt><trkpt lat="42.3460619" lon="13.2535073"><ele>734.6666666666666</ele><time>2026-04-08T16:55:45.93Z</time></trkpt><trkpt lat="42.3461235" lon="13.2537435"><ele>734.0</ele><time>2026-04-08T16:55:46.926Z</time></trkpt><trkpt lat="42.3461843" lon="13.2539695"><ele>733.3333333333333</ele><time>2026-04-08T16:55:47.925Z</time></trkpt><trkpt lat="42.3462304" lon="13.2541947"><ele>732.6666666666666</ele><time>2026-04-08T16:55:48.924Z</time></trkpt><trkpt lat="42.3462667" lon="13.2544228"><ele>732.0</ele><time>2026-04-08T16:55:49.926Z</time></trkpt><trkpt lat="42.3462897" lon="13.2546668"><ele>731.0</ele><time>2026-04-08T16:55:50.925Z</time></trkpt><trkpt lat="42.3462854" lon="13.2549227"><ele>730.0</ele><time>2026-04-08T16:55:51.924Z</time></trkpt><trkpt lat="42.3462482" lon="13.2551704"><ele>729.0</ele><time>2026-04-08T16:55:52.923Z</time></trkpt><trkpt lat="42.3461761" lon="13.2554155"><ele>728.0</ele><time>2026-04-08T16:55:53.926Z</time></trkpt><trkpt lat="42.3460837" lon="13.2556612"><ele>727.0</ele><time>2026-04-08T16:55:54.924Z</time></trkpt><trkpt lat="42.3459914" lon="13.2558975"><ele>726.0</ele><time>2026-04-08T16:55:55.926Z</time></trkpt><trkpt lat="42.3458997" lon="13.2561358"><ele>726.0</ele><time>2026-04-08T16:55:56.934Z</time></trkpt><trkpt lat="42.3458324" lon="13.2563931"><ele>726.0</ele><time>2026-04-08T16:55:57.924Z</time></trkpt><trkpt lat="42.3457826" lon="13.2566729"><ele>726.0</ele><time>2026-04-08T16:55:58.924Z</time></trkpt><trkpt lat="42.3457452" lon="13.2569709"><ele>726.0</ele><time>2026-04-08T16:55:59.925Z</time></trkpt><trkpt lat="42.3457113" lon="13.2572711"><ele>726.0</ele><time>2026-04-08T16:56:00.926Z</time></trkpt><trkpt lat="42.3456744" lon="13.2575738"><ele>725.0</ele><time>2026-04-08T16:56:01.925Z</time></trkpt><trkpt lat="42.3456399" lon="13.257876"><ele>724.0</ele><time>2026-04-08T16:56:02.937Z</time></trkpt><trkpt lat="42.3456098" lon="13.2581471"><ele>723.0</ele><time>2026-04-08T16:56:03.925Z</time></trkpt><trkpt lat="42.345582" lon="13.2584171"><ele>722.0</ele><time>2026-04-08T16:56:04.924Z</time></trkpt><trkpt lat="42.3455584" lon="13.258679"><ele>721.0</ele><time>2026-04-08T16:56:05.931Z</time></trkpt><trkpt lat="42.3455433" lon="13.2589513"><ele>720.0</ele><time>2026-04-08T16:56:06.926Z</time></trkpt><trkpt lat="42.3455417" lon="13.2592272"><ele>719.0</ele><time>2026-04-08T16:56:07.925Z</time></trkpt><trkpt lat="42.3455547" lon="13.2595088"><ele>718.0</ele><time>2026-04-08T16:56:08.925Z</time></trkpt><trkpt lat="42.3455768" lon="13.2597891"><ele>717.0</ele><time>2026-04-08T16:56:09.925Z</time></trkpt><trkpt lat="42.3456183" lon="13.2600694"><ele>716.6666666666666</ele><time>2026-04-08T16:56:10.924Z</time></trkpt><trkpt lat="42.3456765" lon="13.260352"><ele>716.3333333333333</ele><time>2026-04-08T16:56:11.926Z</time></trkpt><trkpt lat="42.3457488" lon="13.2606365"><ele>716.0</ele><time>2026-04-08T16:56:12.928Z</time></trkpt><trkpt lat="42.3458437" lon="13.2609162"><ele>715.0</ele><time>2026-04-08T16:56:13.925Z</time></trkpt><trkpt lat="42.3459504" lon="13.2611977"><ele>714.0</ele><time>2026-04-08T16:56:14.925Z</time></trkpt><trkpt lat="42.3460597" lon="13.2614762"><ele>713.5</ele><time>2026-04-08T16:56:15.925Z</time></trkpt><trkpt lat="42.3461691" lon="13.2617593"><ele>713.0</ele><time>2026-04-08T16:56:16.926Z</time></trkpt><trkpt lat="42.3462792" lon="13.2620452"><ele>711.5</ele><time>2026-04-08T16:56:17.926Z</time></trkpt><trkpt lat="42.3463866" lon="13.2623279"><ele>710.0</ele><time>2026-04-08T16:56:18.926Z</time></trkpt><trkpt lat="42.3464939" lon="13.262609"><ele>710.0</ele><time>2026-04-08T16:56:19.926Z</time></trkpt><trkpt lat="42.3466006" lon="13.2628879"><ele>710.0</ele><time>2026-04-08T16:56:20.926Z</time></trkpt><trkpt lat="42.346708" lon="13.2631632"><ele>709.6666666666666</ele><time>2026-04-08T16:56:21.926Z</time></trkpt><trkpt lat="42.3468109" lon="13.2634343"><ele>709.3333333333334</ele><time>2026-04-08T16:56:22.923Z</time></trkpt><trkpt lat="42.3469087" lon="13.2636996"><ele>709.0</ele><time>2026-04-08T16:56:23.929Z</time></trkpt><trkpt lat="42.3470064" lon="13.2639586"><ele>708.6666666666667</ele><time>2026-04-08T16:56:24.925Z</time></trkpt><trkpt lat="42.3471064" lon="13.2642054"><ele>708.3333333333334</ele><time>2026-04-08T16:56:25.924Z</time></trkpt><trkpt lat="42.3472015" lon="13.2644563"><ele>708.0</ele><time>2026-04-08T16:56:26.926Z</time></trkpt><trkpt lat="42.3472951" lon="13.2646998"><ele>707.0</ele><time>2026-04-08T16:56:27.924Z</time></trkpt><trkpt lat="42.3473892" lon="13.2649357"><ele>706.0</ele><time>2026-04-08T16:56:28.925Z</time></trkpt><trkpt lat="42.3474819" lon="13.2651647"><ele>705.0</ele><time>2026-04-08T16:56:29.935Z</time></trkpt><trkpt lat="42.3475663" lon="13.2653894"><ele>705.0</ele><time>2026-04-08T16:56:30.927Z</time></trkpt><trkpt lat="42.3476463" lon="13.2656054"><ele>705.0</ele><time>2026-04-08T16:56:31.926Z</time></trkpt><trkpt lat="42.3477238" lon="13.2658114"><ele>705.0</ele><time>2026-04-08T16:56:32.926Z</time></trkpt><trkpt lat="42.3477959" lon="13.2660109"><ele>705.0</ele><time>2026-04-08T16:56:33.924Z</time></trkpt><trkpt lat="42.3478556" lon="13.2662123"><ele>705.0</ele><time>2026-04-08T16:56:34.925Z</time></trkpt><trkpt lat="42.3479084" lon="13.2664168"><ele>705.0</ele><time>2026-04-08T16:56:35.926Z</time></trkpt><trkpt lat="42.3479576" lon="13.2666329"><ele>704.6666666666666</ele><time>2026-04-08T16:56:36.925Z</time></trkpt><trkpt lat="42.3479992" lon="13.2668418"><ele>704.3333333333333</ele><time>2026-04-08T16:56:37.926Z</time></trkpt><trkpt lat="42.3480258" lon="13.2670543"><ele>704.0</ele><time>2026-04-08T16:56:38.926Z</time></trkpt><trkpt lat="42.3480395" lon="13.2672614"><ele>704.3333333333333</ele><time>2026-04-08T16:56:39.925Z</time></trkpt><trkpt lat="42.3480463" lon="13.2674746"><ele>704.6666666666666</ele><time>2026-04-08T16:56:40.925Z</time></trkpt><trkpt lat="42.3480476" lon="13.2676905"><ele>705.0</ele><time>2026-04-08T16:56:41.926Z</time></trkpt><trkpt lat="42.348044" lon="13.2679011"><ele>703.3333333333334</ele><time>2026-04-08T16:56:42.927Z</time></trkpt><trkpt lat="42.3480406" lon="13.2681131"><ele>701.6666666666667</ele><time>2026-04-08T16:56:43.923Z</time></trkpt><trkpt lat="42.3480375" lon="13.2683219"><ele>700.0</ele><time>2026-04-08T16:56:44.925Z</time></trkpt><trkpt lat="42.3480379" lon="13.2685368"><ele>701.0</ele><time>2026-04-08T16:56:45.928Z</time></trkpt><trkpt lat="42.3480464" lon="13.2687501"><ele>702.0</ele><time>2026-04-08T16:56:46.924Z</time></trkpt><trkpt lat="42.3480679" lon="13.2689658"><ele>703.0</ele><time>2026-04-08T16:56:47.928Z</time></trkpt><trkpt lat="42.3481051" lon="13.2691885"><ele>703.0</ele><time>2026-04-08T16:56:48.927Z</time></trkpt><trkpt lat="42.3481488" lon="13.2694121"><ele>703.0</ele><time>2026-04-08T16:56:49.925Z</time></trkpt><trkpt lat="42.3481946" lon="13.2696451"><ele>703.0</ele><time>2026-04-08T16:56:50.927Z</time></trkpt><trkpt lat="42.3482445" lon="13.2698755"><ele>701.6666666666667</ele><time>2026-04-08T16:56:51.926Z</time></trkpt><trkpt lat="42.3482891" lon="13.27011"><ele>700.3333333333334</ele><time>2026-04-08T16:56:52.926Z</time></trkpt><trkpt lat="42.3483366" lon="13.270347"><ele>699.0</ele><time>2026-04-08T16:56:53.929Z</time></trkpt><trkpt lat="42.3483838" lon="13.2705804"><ele>698.0</ele><time>2026-04-08T16:56:54.925Z</time></trkpt><trkpt lat="42.3484289" lon="13.2708111"><ele>697.0</ele><time>2026-04-08T16:56:55.926Z</time></trkpt><trkpt lat="42.3484741" lon="13.2710464"><ele>696.0</ele><time>2026-04-08T16:56:56.924Z</time></trkpt><trkpt lat="42.3485223" lon="13.2712787"><ele>695.6666666666666</ele><time>2026-04-08T16:56:57.924Z</time></trkpt><trkpt lat="42.3485699" lon="13.2715129"><ele>695.3333333333333</ele><time>2026-04-08T16:56:58.931Z</time></trkpt><trkpt lat="42.3486156" lon="13.2717482"><ele>695.0</ele><time>2026-04-08T16:56:59.928Z</time></trkpt><trkpt lat="42.3486614" lon="13.2719822"><ele>695.0</ele><time>2026-04-08T16:57:00.926Z</time></trkpt><trkpt lat="42.3487153" lon="13.272215"><ele>695.0</ele><time>2026-04-08T16:57:01.927Z</time></trkpt><trkpt lat="42.3487782" lon="13.2724459"><ele>695.0</ele><time>2026-04-08T16:57:02.926Z</time></trkpt><trkpt lat="42.3488499" lon="13.2726792"><ele>695.3333333333333</ele><time>2026-04-08T16:57:03.928Z</time></trkpt><trkpt lat="42.3489344" lon="13.2729038"><ele>695.6666666666666</ele><time>2026-04-08T16:57:04.927Z</time></trkpt><trkpt lat="42.3490199" lon="13.2731245"><ele>696.0</ele><time>2026-04-08T16:57:05.925Z</time></trkpt><trkpt lat="42.3491136" lon="13.2733343"><ele>694.6666666666666</ele><time>2026-04-08T16:57:06.925Z</time></trkpt><trkpt lat="42.3492098" lon="13.2735427"><ele>693.3333333333333</ele><time>2026-04-08T16:57:07.926Z</time></trkpt><trkpt lat="42.3493098" lon="13.2737468"><ele>692.0</ele><time>2026-04-08T16:57:08.928Z</time></trkpt><trkpt lat="42.3494081" lon="13.2739517"><ele>690.6666666666666</ele><time>2026-04-08T16:57:09.93Z</time></trkpt><trkpt lat="42.3495033" lon="13.274159"><ele>689.3333333333334</ele><time>2026-04-08T16:57:10.928Z</time></trkpt><trkpt lat="42.349587" lon="13.2743579"><ele>688.0</ele><time>2026-04-08T16:57:11.927Z</time></trkpt><trkpt lat="42.3496646" lon="13.2745531"><ele>690.0</ele><time>2026-04-08T16:57:12.927Z</time></trkpt><trkpt lat="42.3497449" lon="13.2747368"><ele>692.0</ele><time>2026-04-08T16:57:13.924Z</time></trkpt><trkpt lat="42.3498187" lon="13.2749203"><ele>694.0</ele><time>2026-04-08T16:57:14.926Z</time></trkpt><trkpt lat="42.3498959" lon="13.275098"><ele>694.0</ele><time>2026-04-08T16:57:15.933Z</time></trkpt><trkpt lat="42.3499791" lon="13.2752878"><ele>694.0</ele><time>2026-04-08T16:57:16.925Z</time></trkpt><trkpt lat="42.3500678" lon="13.2754949"><ele>694.0</ele><time>2026-04-08T16:57:17.926Z</time></trkpt><trkpt lat="42.3501669" lon="13.2757212"><ele>693.0</ele><time>2026-04-08T16:57:18.925Z</time></trkpt><trkpt lat="42.3502626" lon="13.2759437"><ele>692.0</ele><time>2026-04-08T16:57:19.926Z</time></trkpt><trkpt lat="42.3503569" lon="13.2761775"><ele>691.0</ele><time>2026-04-08T16:57:20.927Z</time></trkpt><trkpt lat="42.350452" lon="13.2764199"><ele>690.6666666666667</ele><time>2026-04-08T16:57:21.926Z</time></trkpt><trkpt lat="42.3505477" lon="13.2766661"><ele>690.3333333333334</ele><time>2026-04-08T16:57:22.925Z</time></trkpt><trkpt lat="42.3506443" lon="13.2769126"><ele>690.0</ele><time>2026-04-08T16:57:23.926Z</time></trkpt><trkpt lat="42.3507443" lon="13.2771544"><ele>689.3333333333334</ele><time>2026-04-08T16:57:24.926Z</time></trkpt><trkpt lat="42.3508491" lon="13.2773956"><ele>688.6666666666667</ele><time>2026-04-08T16:57:25.928Z</time></trkpt><trkpt lat="42.3509482" lon="13.2776365"><ele>688.0</ele><time>2026-04-08T16:57:26.926Z</time></trkpt><trkpt lat="42.3510493" lon="13.2778837"><ele>687.3333333333334</ele><time>2026-04-08T16:57:27.925Z</time></trkpt><trkpt lat="42.3511504" lon="13.2781254"><ele>686.6666666666666</ele><time>2026-04-08T16:57:28.925Z</time></trkpt><trkpt lat="42.351252" lon="13.2783702"><ele>686.0</ele><time>2026-04-08T16:57:29.927Z</time></trkpt><trkpt lat="42.3513509" lon="13.2786127"><ele>689.3333333333333</ele><time>2026-04-08T16:57:30.932Z</time></trkpt><trkpt lat="42.3514445" lon="13.2788565"><ele>692.6666666666666</ele><time>2026-04-08T16:57:31.926Z</time></trkpt><trkpt lat="42.3515318" lon="13.2791038"><ele>696.0</ele><time>2026-04-08T16:57:32.925Z</time></trkpt><trkpt lat="42.3516059" lon="13.2793522"><ele>696.3333333333334</ele><time>2026-04-08T16:57:33.927Z</time></trkpt><trkpt lat="42.3516768" lon="13.2796028"><ele>696.6666666666667</ele><time>2026-04-08T16:57:34.924Z</time></trkpt><trkpt lat="42.3517433" lon="13.2798441"><ele>697.0</ele><time>2026-04-08T16:57:35.932Z</time></trkpt><trkpt lat="42.3518133" lon="13.2800798"><ele>694.6666666666667</ele><time>2026-04-08T16:57:36.926Z</time></trkpt><trkpt lat="42.3518943" lon="13.2802961"><ele>692.3333333333334</ele><time>2026-04-08T16:57:37.927Z</time></trkpt><trkpt lat="42.3519844" lon="13.2805018"><ele>690.0</ele><time>2026-04-08T16:57:38.927Z</time></trkpt><trkpt lat="42.3520823" lon="13.2806945"><ele>689.3333333333334</ele><time>2026-04-08T16:57:39.926Z</time></trkpt><trkpt lat="42.3521886" lon="13.2808758"><ele>688.6666666666667</ele><time>2026-04-08T16:57:40.926Z</time></trkpt><trkpt lat="42.3523002" lon="13.2810501"><ele>688.0</ele><time>2026-04-08T16:57:41.926Z</time></trkpt><trkpt lat="42.3524185" lon="13.2812249"><ele>687.6666666666667</ele><time>2026-04-08T16:57:42.927Z</time></trkpt><trkpt lat="42.3525561" lon="13.2813914"><ele>687.3333333333334</ele><time>2026-04-08T16:57:43.924Z</time></trkpt><trkpt lat="42.3527053" lon="13.2815525"><ele>687.0</ele><time>2026-04-08T16:57:44.924Z</time></trkpt><trkpt lat="42.3528705" lon="13.2817132"><ele>690.0</ele><time>2026-04-08T16:57:45.925Z</time></trkpt><trkpt lat="42.3530472" lon="13.2818617"><ele>693.0</ele><time>2026-04-08T16:57:46.926Z</time></trkpt><trkpt lat="42.3532347" lon="13.2819985"><ele>696.0</ele><time>2026-04-08T16:57:47.928Z</time></trkpt><trkpt lat="42.3534186" lon="13.2821228"><ele>696.0</ele><time>2026-04-08T16:57:48.924Z</time></trkpt><trkpt lat="42.3535962" lon="13.282234"><ele>696.0</ele><time>2026-04-08T16:57:49.929Z</time></trkpt><trkpt lat="42.353767" lon="13.2823403"><ele>696.0</ele><time>2026-04-08T16:57:50.926Z</time></trkpt><trkpt lat="42.3539301" lon="13.2824409"><ele>693.3333333333334</ele><time>2026-04-08T16:57:51.927Z</time></trkpt><trkpt lat="42.3540941" lon="13.2825426"><ele>690.6666666666667</ele><time>2026-04-08T16:57:52.926Z</time></trkpt><trkpt lat="42.3542601" lon="13.2826447"><ele>688.0</ele><time>2026-04-08T16:57:53.926Z</time></trkpt><trkpt lat="42.3544254" lon="13.2827548"><ele>688.0</ele><time>2026-04-08T16:57:54.925Z</time></trkpt><trkpt lat="42.3545894" lon="13.2828554"><ele>688.0</ele><time>2026-04-08T16:57:55.926Z</time></trkpt><trkpt lat="42.3547582" lon="13.2829584"><ele>688.0</ele><time>2026-04-08T16:57:56.926Z</time></trkpt><trkpt lat="42.3549409" lon="13.2830524"><ele>686.6666666666667</ele><time>2026-04-08T16:57:57.926Z</time></trkpt><trkpt lat="42.3551304" lon="13.2831404"><ele>685.3333333333334</ele><time>2026-04-08T16:57:58.924Z</time></trkpt><trkpt lat="42.3553299" lon="13.2832288"><ele>684.0</ele><time>2026-04-08T16:57:59.926Z</time></trkpt><trkpt lat="42.3555284" lon="13.2833231"><ele>687.6666666666666</ele><time>2026-04-08T16:58:00.927Z</time></trkpt><trkpt lat="42.3557302" lon="13.2834098"><ele>691.3333333333333</ele><time>2026-04-08T16:58:01.925Z</time></trkpt><trkpt lat="42.3559351" lon="13.2834964"><ele>695.0</ele><time>2026-04-08T16:58:02.925Z</time></trkpt><trkpt lat="42.3561372" lon="13.2835785"><ele>695.0</ele><time>2026-04-08T16:58:03.927Z</time></trkpt><trkpt lat="42.3563383" lon="13.283665"><ele>695.0</ele><time>2026-04-08T16:58:04.925Z</time></trkpt><trkpt lat="42.3565418" lon="13.2837456"><ele>695.0</ele><time>2026-04-08T16:58:05.925Z</time></trkpt><trkpt lat="42.3567416" lon="13.2838252"><ele>696.6666666666666</ele><time>2026-04-08T16:58:06.924Z</time></trkpt><trkpt lat="42.356938" lon="13.2839086"><ele>698.3333333333334</ele><time>2026-04-08T16:58:07.927Z</time></trkpt><trkpt lat="42.3571356" lon="13.2839862"><ele>700.0</ele><time>2026-04-08T16:58:08.925Z</time></trkpt><trkpt lat="42.3573306" lon="13.2840767"><ele>694.6666666666667</ele><time>2026-04-08T16:58:09.928Z</time></trkpt><trkpt lat="42.357523" lon="13.2841776"><ele>689.3333333333334</ele><time>2026-04-08T16:58:10.925Z</time></trkpt><trkpt lat="42.3577092" lon="13.2842912"><ele>684.0</ele><time>2026-04-08T16:58:11.924Z</time></trkpt><trkpt lat="42.3578885" lon="13.2844277"><ele>682.3333333333334</ele><time>2026-04-08T16:58:12.924Z</time></trkpt><trkpt lat="42.3580616" lon="13.2845766"><ele>680.6666666666667</ele><time>2026-04-08T16:58:13.927Z</time></trkpt><trkpt lat="42.3582252" lon="13.2847451"><ele>679.0</ele><time>2026-04-08T16:58:14.926Z</time></trkpt><trkpt lat="42.3583808" lon="13.2849307"><ele>679.0</ele><time>2026-04-08T16:58:15.925Z</time></trkpt><trkpt lat="42.3585322" lon="13.285123"><ele>679.0</ele><time>2026-04-08T16:58:16.926Z</time></trkpt><trkpt lat="42.3586828" lon="13.2853223"><ele>679.0</ele><time>2026-04-08T16:58:17.928Z</time></trkpt><trkpt lat="42.3588291" lon="13.2855149"><ele>679.0</ele><time>2026-04-08T16:58:18.927Z</time></trkpt><trkpt lat="42.3589621" lon="13.2857066"><ele>679.0</ele><time>2026-04-08T16:58:19.926Z</time></trkpt><trkpt lat="42.3590762" lon="13.2858985"><ele>679.0</ele><time>2026-04-08T16:58:20.924Z</time></trkpt><trkpt lat="42.3591797" lon="13.2860797"><ele>679.0</ele><time>2026-04-08T16:58:21.925Z</time></trkpt><trkpt lat="42.3592665" lon="13.2862557"><ele>679.0</ele><time>2026-04-08T16:58:22.925Z</time></trkpt><trkpt lat="42.3593333" lon="13.2864322"><ele>679.0</ele><time>2026-04-08T16:58:23.925Z</time></trkpt><trkpt lat="42.3593833" lon="13.2866146"><ele>679.0</ele><time>2026-04-08T16:58:24.924Z</time></trkpt><trkpt lat="42.3594109" lon="13.2868254"><ele>678.5</ele><time>2026-04-08T16:58:25.924Z</time></trkpt><trkpt lat="42.3594334" lon="13.2870262"><ele>678.0</ele><time>2026-04-08T16:58:26.925Z</time></trkpt><trkpt lat="42.3594544" lon="13.2872273"><ele>677.5</ele><time>2026-04-08T16:58:27.924Z</time></trkpt><trkpt lat="42.3594772" lon="13.2874166"><ele>677.0</ele><time>2026-04-08T16:58:28.924Z</time></trkpt><trkpt lat="42.3595009" lon="13.2875842"><ele>676.8333333333333</ele><time>2026-04-08T16:58:29.925Z</time></trkpt><trkpt lat="42.3595249" lon="13.2877271"><ele>676.6666666666666</ele><time>2026-04-08T16:58:30.926Z</time></trkpt><trkpt lat="42.3595462" lon="13.2878561"><ele>676.5</ele><time>2026-04-08T16:58:31.924Z</time></trkpt><trkpt lat="42.3595558" lon="13.2879633"><ele>676.3333333333334</ele><time>2026-04-08T16:58:32.926Z</time></trkpt><trkpt lat="42.3595574" lon="13.2880641"><ele>676.1666666666667</ele><time>2026-04-08T16:58:33.925Z</time></trkpt><trkpt lat="42.3595507" lon="13.288162"><ele>676.0</ele><time>2026-04-08T16:58:34.932Z</time></trkpt><trkpt lat="42.359533" lon="13.2882579"><ele>675.6666666666667</ele><time>2026-04-08T16:58:35.927Z</time></trkpt><trkpt lat="42.3595041" lon="13.2883457"><ele>675.3333333333334</ele><time>2026-04-08T16:58:36.926Z</time></trkpt><trkpt lat="42.3594903" lon="13.2884289"><ele>675.0</ele><time>2026-04-08T16:58:37.927Z</time></trkpt><trkpt lat="42.3595311" lon="13.2885842"><ele>674.6666666666666</ele><time>2026-04-08T16:58:39.922Z</time></trkpt><trkpt lat="42.3595885" lon="13.2886447"><ele>674.3333333333333</ele><time>2026-04-08T16:58:40.923Z</time></trkpt><trkpt lat="42.3596412" lon="13.2887274"><ele>674.0</ele><time>2026-04-08T16:58:41.924Z</time></trkpt><trkpt lat="42.3596886" lon="13.2888231"><ele>674.2</ele><time>2026-04-08T16:58:42.924Z</time></trkpt><trkpt lat="42.3597268" lon="13.2889252"><ele>674.4000000000001</ele><time>2026-04-08T16:58:43.925Z</time></trkpt><trkpt lat="42.3597507" lon="13.2890304"><ele>674.6</ele><time>2026-04-08T16:58:44.924Z</time></trkpt><trkpt lat="42.3597725" lon="13.2891511"><ele>674.8</ele><time>2026-04-08T16:58:45.923Z</time></trkpt><trkpt lat="42.3598018" lon="13.2892728"><ele>675.0</ele><time>2026-04-08T16:58:46.923Z</time></trkpt><trkpt lat="42.3598305" lon="13.289406"><ele>674.6666666666666</ele><time>2026-04-08T16:58:47.924Z</time></trkpt><trkpt lat="42.3598551" lon="13.2895317"><ele>674.3333333333334</ele><time>2026-04-08T16:58:48.923Z</time></trkpt><trkpt lat="42.3598756" lon="13.2896516"><ele>674.0</ele><time>2026-04-08T16:58:49.927Z</time></trkpt><trkpt lat="42.3598964" lon="13.2897658"><ele>673.6666666666667</ele><time>2026-04-08T16:58:50.924Z</time></trkpt><trkpt lat="42.3599138" lon="13.2898738"><ele>673.3333333333334</ele><time>2026-04-08T16:58:51.925Z</time></trkpt><trkpt lat="42.3599289" lon="13.2899761"><ele>673.0</ele><time>2026-04-08T16:58:52.923Z</time></trkpt><trkpt lat="42.359948" lon="13.2900672"><ele>672.8333333333334</ele><time>2026-04-08T16:58:53.926Z</time></trkpt><trkpt lat="42.359962" lon="13.2901637"><ele>672.6666666666667</ele><time>2026-04-08T16:58:54.924Z</time></trkpt><trkpt lat="42.3599801" lon="13.2902712"><ele>672.5</ele><time>2026-04-08T16:58:55.924Z</time></trkpt><trkpt lat="42.3600046" lon="13.2903901"><ele>672.3333333333334</ele><time>2026-04-08T16:58:56.933Z</time></trkpt><trkpt lat="42.3600319" lon="13.2905116"><ele>672.1666666666666</ele><time>2026-04-08T16:58:57.925Z</time></trkpt><trkpt lat="42.3600571" lon="13.2906378"><ele>672.0</ele><time>2026-04-08T16:58:58.924Z</time></trkpt><trkpt lat="42.3600788" lon="13.2907654"><ele>671.8</ele><time>2026-04-08T16:58:59.926Z</time></trkpt><trkpt lat="42.3600999" lon="13.2908923"><ele>671.6</ele><time>2026-04-08T16:59:00.927Z</time></trkpt><trkpt lat="42.3601189" lon="13.2910176"><ele>671.4</ele><time>2026-04-08T16:59:01.925Z</time></trkpt><trkpt lat="42.3601462" lon="13.2911476"><ele>671.1999999999999</ele><time>2026-04-08T16:59:02.926Z</time></trkpt><trkpt lat="42.3601727" lon="13.291285"><ele>671.0</ele><time>2026-04-08T16:59:03.928Z</time></trkpt><trkpt lat="42.3602022" lon="13.2914299"><ele>670.75</ele><time>2026-04-08T16:59:04.925Z</time></trkpt><trkpt lat="42.3602334" lon="13.2915853"><ele>670.5</ele><time>2026-04-08T16:59:05.925Z</time></trkpt><trkpt lat="42.3602707" lon="13.2917646"><ele>670.25</ele><time>2026-04-08T16:59:06.926Z</time></trkpt><trkpt lat="42.3603064" lon="13.2919516"><ele>670.0</ele><time>2026-04-08T16:59:07.926Z</time></trkpt><trkpt lat="42.3603368" lon="13.2921524"><ele>669.6666666666667</ele><time>2026-04-08T16:59:08.925Z</time></trkpt><trkpt lat="42.3603693" lon="13.2923551"><ele>669.3333333333334</ele><time>2026-04-08T16:59:09.925Z</time></trkpt><trkpt lat="42.3604013" lon="13.2925622"><ele>669.0</ele><time>2026-04-08T16:59:10.926Z</time></trkpt><trkpt lat="42.3604362" lon="13.2927658"><ele>669.0</ele><time>2026-04-08T16:59:11.928Z</time></trkpt><trkpt lat="42.3604704" lon="13.2929598"><ele>669.0</ele><time>2026-04-08T16:59:12.922Z</time></trkpt><trkpt lat="42.3605033" lon="13.293152"><ele>669.0</ele><time>2026-04-08T16:59:13.924Z</time></trkpt><trkpt lat="42.3605418" lon="13.2933443"><ele>669.0</ele><time>2026-04-08T16:59:14.926Z</time></trkpt><trkpt lat="42.3605795" lon="13.293545"><ele>669.0</ele><time>2026-04-08T16:59:15.927Z</time></trkpt><trkpt lat="42.3606232" lon="13.2937461"><ele>669.0</ele><time>2026-04-08T16:59:16.927Z</time></trkpt><trkpt lat="42.3606655" lon="13.2939582"><ele>669.0</ele><time>2026-04-08T16:59:17.925Z</time></trkpt><trkpt lat="42.3606962" lon="13.2941762"><ele>669.0</ele><time>2026-04-08T16:59:18.923Z</time></trkpt><trkpt lat="42.3607259" lon="13.2943984"><ele>669.0</ele><time>2026-04-08T16:59:19.926Z</time></trkpt><trkpt lat="42.3607633" lon="13.2946263"><ele>669.0</ele><time>2026-04-08T16:59:20.927Z</time></trkpt><trkpt lat="42.3608059" lon="13.2948724"><ele>669.0</ele><time>2026-04-08T16:59:21.924Z</time></trkpt><trkpt lat="42.360852" lon="13.2951267"><ele>669.0</ele><time>2026-04-08T16:59:22.924Z</time></trkpt><trkpt lat="42.3608998" lon="13.2953816"><ele>669.0</ele><time>2026-04-08T16:59:23.927Z</time></trkpt><trkpt lat="42.3609488" lon="13.2956404"><ele>668.3333333333334</ele><time>2026-04-08T16:59:24.925Z</time></trkpt><trkpt lat="42.3610004" lon="13.2959175"><ele>667.6666666666667</ele><time>2026-04-08T16:59:25.926Z</time></trkpt><trkpt lat="42.3610511" lon="13.2962013"><ele>667.0</ele><time>2026-04-08T16:59:26.926Z</time></trkpt><trkpt lat="42.3610967" lon="13.2964828"><ele>666.0</ele><time>2026-04-08T16:59:27.924Z</time></trkpt><trkpt lat="42.3611422" lon="13.296762"><ele>665.0</ele><time>2026-04-08T16:59:28.925Z</time></trkpt><trkpt lat="42.3611863" lon="13.297041"><ele>664.0</ele><time>2026-04-08T16:59:29.924Z</time></trkpt><trkpt lat="42.3612342" lon="13.2973174"><ele>664.0</ele><time>2026-04-08T16:59:30.926Z</time></trkpt><trkpt lat="42.3612801" lon="13.2975912"><ele>664.0</ele><time>2026-04-08T16:59:31.927Z</time></trkpt><trkpt lat="42.3613271" lon="13.2978526"><ele>664.0</ele><time>2026-04-08T16:59:32.926Z</time></trkpt><trkpt lat="42.361372" lon="13.2981015"><ele>663.6666666666667</ele><time>2026-04-08T16:59:33.923Z</time></trkpt><trkpt lat="42.3614106" lon="13.298331"><ele>663.3333333333334</ele><time>2026-04-08T16:59:34.924Z</time></trkpt><trkpt lat="42.3614458" lon="13.2985422"><ele>663.0</ele><time>2026-04-08T16:59:35.926Z</time></trkpt><trkpt lat="42.3614806" lon="13.2987405"><ele>663.0</ele><time>2026-04-08T16:59:36.926Z</time></trkpt><trkpt lat="42.361515" lon="13.2989308"><ele>663.0</ele><time>2026-04-08T16:59:37.925Z</time></trkpt><trkpt lat="42.3615445" lon="13.2991063"><ele>663.0</ele><time>2026-04-08T16:59:38.924Z</time></trkpt><trkpt lat="42.3615773" lon="13.2992859"><ele>663.0</ele><time>2026-04-08T16:59:39.925Z</time></trkpt><trkpt lat="42.3616108" lon="13.2994857"><ele>663.0</ele><time>2026-04-08T16:59:40.922Z</time></trkpt><trkpt lat="42.3616526" lon="13.2997038"><ele>663.0</ele><time>2026-04-08T16:59:41.922Z</time></trkpt><trkpt lat="42.3616996" lon="13.2999431"><ele>663.0</ele><time>2026-04-08T16:59:42.922Z</time></trkpt><trkpt lat="42.3617473" lon="13.3002024"><ele>662.3333333333334</ele><time>2026-04-08T16:59:43.923Z</time></trkpt><trkpt lat="42.3617996" lon="13.3004763"><ele>661.6666666666667</ele><time>2026-04-08T16:59:44.929Z</time></trkpt><trkpt lat="42.3618491" lon="13.3007631"><ele>661.0</ele><time>2026-04-08T16:59:45.924Z</time></trkpt><trkpt lat="42.3618995" lon="13.301059"><ele>660.0</ele><time>2026-04-08T16:59:46.925Z</time></trkpt><trkpt lat="42.3619534" lon="13.3013606"><ele>659.0</ele><time>2026-04-08T16:59:47.927Z</time></trkpt><trkpt lat="42.3620054" lon="13.3016645"><ele>659.0</ele><time>2026-04-08T16:59:48.925Z</time></trkpt><trkpt lat="42.3620615" lon="13.301976"><ele>659.0</ele><time>2026-04-08T16:59:49.939Z</time></trkpt><trkpt lat="42.3621143" lon="13.3022913"><ele>659.0</ele><time>2026-04-08T16:59:50.924Z</time></trkpt><trkpt lat="42.362173" lon="13.3026113"><ele>659.0</ele><time>2026-04-08T16:59:51.923Z</time></trkpt><trkpt lat="42.3622327" lon="13.3029358"><ele>659.0</ele><time>2026-04-08T16:59:52.925Z</time></trkpt><trkpt lat="42.3622932" lon="13.3032689"><ele>659.0</ele><time>2026-04-08T16:59:53.925Z</time></trkpt><trkpt lat="42.3623509" lon="13.3036041"><ele>658.0</ele><time>2026-04-08T16:59:54.925Z</time></trkpt><trkpt lat="42.3624072" lon="13.3039408"><ele>657.0</ele><time>2026-04-08T16:59:55.925Z</time></trkpt><trkpt lat="42.3624667" lon="13.3042759"><ele>657.0</ele><time>2026-04-08T16:59:56.924Z</time></trkpt><trkpt lat="42.3625262" lon="13.304611"><ele>657.0</ele><time>2026-04-08T16:59:57.924Z</time></trkpt><trkpt lat="42.3625875" lon="13.3049454"><ele>657.0</ele><time>2026-04-08T16:59:58.924Z</time></trkpt><trkpt lat="42.3626448" lon="13.3052793"><ele>657.0</ele><time>2026-04-08T16:59:59.925Z</time></trkpt><trkpt lat="42.3626998" lon="13.3056109"><ele>657.5</ele><time>2026-04-08T17:00:00.929Z</time></trkpt><trkpt lat="42.3627584" lon="13.3059361"><ele>658.0</ele><time>2026-04-08T17:00:01.925Z</time></trkpt><trkpt lat="42.3628136" lon="13.306263"><ele>658.5</ele><time>2026-04-08T17:00:02.926Z</time></trkpt><trkpt lat="42.362868" lon="13.3065775"><ele>659.0</ele><time>2026-04-08T17:00:03.925Z</time></trkpt><trkpt lat="42.3629204" lon="13.3068751"><ele>659.0</ele><time>2026-04-08T17:00:04.924Z</time></trkpt><trkpt lat="42.3629701" lon="13.3071437"><ele>659.0</ele><time>2026-04-08T17:00:05.925Z</time></trkpt><trkpt lat="42.3630222" lon="13.3073879"><ele>659.0</ele><time>2026-04-08T17:00:06.925Z</time></trkpt><trkpt lat="42.3630784" lon="13.3076126"><ele>659.0</ele><time>2026-04-08T17:00:07.926Z</time></trkpt><trkpt lat="42.363135" lon="13.3078074"><ele>659.0</ele><time>2026-04-08T17:00:08.928Z</time></trkpt><trkpt lat="42.3631875" lon="13.3079885"><ele>659.0</ele><time>2026-04-08T17:00:09.926Z</time></trkpt><trkpt lat="42.3632257" lon="13.3081742"><ele>659.0</ele><time>2026-04-08T17:00:10.925Z</time></trkpt><trkpt lat="42.3632494" lon="13.3083711"><ele>659.0</ele><time>2026-04-08T17:00:11.926Z</time></trkpt><trkpt lat="42.3632784" lon="13.3085709"><ele>659.0</ele><time>2026-04-08T17:00:12.924Z</time></trkpt><trkpt lat="42.3633184" lon="13.3087862"><ele>659.0</ele><time>2026-04-08T17:00:13.926Z</time></trkpt><trkpt lat="42.3633461" lon="13.3090145"><ele>658.6666666666666</ele><time>2026-04-08T17:00:14.925Z</time></trkpt><trkpt lat="42.3633709" lon="13.3092565"><ele>658.3333333333334</ele><time>2026-04-08T17:00:15.923Z</time></trkpt><trkpt lat="42.3634024" lon="13.3095025"><ele>658.0</ele><time>2026-04-08T17:00:16.925Z</time></trkpt><trkpt lat="42.3634389" lon="13.3097491"><ele>657.3333333333334</ele><time>2026-04-08T17:00:17.922Z</time></trkpt><trkpt lat="42.3634742" lon="13.3099926"><ele>656.6666666666666</ele><time>2026-04-08T17:00:18.927Z</time></trkpt><trkpt lat="42.3635148" lon="13.310233"><ele>656.0</ele><time>2026-04-08T17:00:19.925Z</time></trkpt><trkpt lat="42.3635584" lon="13.3104673"><ele>655.6666666666666</ele><time>2026-04-08T17:00:20.922Z</time></trkpt><trkpt lat="42.3636018" lon="13.3107022"><ele>655.3333333333334</ele><time>2026-04-08T17:00:21.924Z</time></trkpt><trkpt lat="42.3636439" lon="13.3109363"><ele>655.0</ele><time>2026-04-08T17:00:22.924Z</time></trkpt><trkpt lat="42.3636855" lon="13.3111626"><ele>655.0</ele><time>2026-04-08T17:00:23.923Z</time></trkpt><trkpt lat="42.3637231" lon="13.3113935"><ele>655.0</ele><time>2026-04-08T17:00:24.926Z</time></trkpt><trkpt lat="42.3637628" lon="13.3116183"><ele>655.0</ele><time>2026-04-08T17:00:25.923Z</time></trkpt><trkpt lat="42.3638028" lon="13.3118456"><ele>655.3333333333334</ele><time>2026-04-08T17:00:26.926Z</time></trkpt><trkpt lat="42.3638436" lon="13.3120734"><ele>655.6666666666666</ele><time>2026-04-08T17:00:27.926Z</time></trkpt><trkpt lat="42.3638839" lon="13.3123056"><ele>656.0</ele><time>2026-04-08T17:00:28.925Z</time></trkpt><trkpt lat="42.3639237" lon="13.3125371"><ele>655.6666666666666</ele><time>2026-04-08T17:00:29.924Z</time></trkpt><trkpt lat="42.3639664" lon="13.3127706"><ele>655.3333333333334</ele><time>2026-04-08T17:00:30.922Z</time></trkpt><trkpt lat="42.3640113" lon="13.3130139"><ele>655.0</ele><time>2026-04-08T17:00:31.926Z</time></trkpt><trkpt lat="42.3640585" lon="13.3132706"><ele>655.0</ele><time>2026-04-08T17:00:32.925Z</time></trkpt><trkpt lat="42.3641076" lon="13.3135417"><ele>655.0</ele><time>2026-04-08T17:00:33.925Z</time></trkpt><trkpt lat="42.3641619" lon="13.31382"><ele>655.0</ele><time>2026-04-08T17:00:34.925Z</time></trkpt><trkpt lat="42.3642192" lon="13.3141134"><ele>656.0</ele><time>2026-04-08T17:00:35.926Z</time></trkpt><trkpt lat="42.3642729" lon="13.3144204"><ele>657.0</ele><time>2026-04-08T17:00:36.926Z</time></trkpt><trkpt lat="42.3643224" lon="13.3147373"><ele>656.5</ele><time>2026-04-08T17:00:37.931Z</time></trkpt><trkpt lat="42.3643736" lon="13.3150521"><ele>656.0</ele><time>2026-04-08T17:00:38.924Z</time></trkpt><trkpt lat="42.3644262" lon="13.315354"><ele>656.0</ele><time>2026-04-08T17:00:39.926Z</time></trkpt><trkpt lat="42.364477" lon="13.3156438"><ele>656.0</ele><time>2026-04-08T17:00:40.925Z</time></trkpt><trkpt lat="42.3645265" lon="13.3159346"><ele>656.0</ele><time>2026-04-08T17:00:41.926Z</time></trkpt><trkpt lat="42.3645774" lon="13.3162285"><ele>656.0</ele><time>2026-04-08T17:00:42.926Z</time></trkpt><trkpt lat="42.3646288" lon="13.316514"><ele>656.0</ele><time>2026-04-08T17:00:43.925Z</time></trkpt><trkpt lat="42.3646774" lon="13.3167938"><ele>656.0</ele><time>2026-04-08T17:00:44.925Z</time></trkpt><trkpt lat="42.3647266" lon="13.3170698"><ele>655.3333333333333</ele><time>2026-04-08T17:00:45.925Z</time></trkpt><trkpt lat="42.3647735" lon="13.3173381"><ele>654.6666666666666</ele><time>2026-04-08T17:00:46.925Z</time></trkpt><trkpt lat="42.3648224" lon="13.3176022"><ele>654.0</ele><time>2026-04-08T17:00:47.925Z</time></trkpt><trkpt lat="42.3648685" lon="13.3178659"><ele>653.6666666666666</ele><time>2026-04-08T17:00:48.924Z</time></trkpt><trkpt lat="42.3649147" lon="13.3181334"><ele>653.3333333333333</ele><time>2026-04-08T17:00:49.926Z</time></trkpt><trkpt lat="42.3649633" lon="13.3184071"><ele>653.0</ele><time>2026-04-08T17:00:50.926Z</time></trkpt><trkpt lat="42.3650177" lon="13.3186992"><ele>654.0</ele><time>2026-04-08T17:00:51.926Z</time></trkpt><trkpt lat="42.3650736" lon="13.3190051"><ele>655.0</ele><time>2026-04-08T17:00:52.924Z</time></trkpt><trkpt lat="42.3651251" lon="13.3193179"><ele>655.0</ele><time>2026-04-08T17:00:53.925Z</time></trkpt><trkpt lat="42.3651764" lon="13.3196292"><ele>655.0</ele><time>2026-04-08T17:00:54.926Z</time></trkpt><trkpt lat="42.365235" lon="13.3199338"><ele>655.0</ele><time>2026-04-08T17:00:55.925Z</time></trkpt><trkpt lat="42.3652842" lon="13.3202234"><ele>655.0</ele><time>2026-04-08T17:00:56.928Z</time></trkpt><trkpt lat="42.3653225" lon="13.3205002"><ele>655.0</ele><time>2026-04-08T17:00:57.924Z</time></trkpt><trkpt lat="42.3653354" lon="13.3207654"><ele>655.0</ele><time>2026-04-08T17:00:58.924Z</time></trkpt><trkpt lat="42.3653302" lon="13.3210263"><ele>655.0</ele><time>2026-04-08T17:00:59.922Z</time></trkpt><trkpt lat="42.3653009" lon="13.3212772"><ele>655.0</ele><time>2026-04-08T17:01:00.924Z</time></trkpt><trkpt lat="42.3652414" lon="13.3215286"><ele>655.3333333333334</ele><time>2026-04-08T17:01:01.924Z</time></trkpt><trkpt lat="42.365157" lon="13.3217701"><ele>655.6666666666666</ele><time>2026-04-08T17:01:02.925Z</time></trkpt><trkpt lat="42.3650493" lon="13.32201"><ele>656.0</ele><time>2026-04-08T17:01:03.925Z</time></trkpt><trkpt lat="42.3649213" lon="13.3222285"><ele>656.0</ele><time>2026-04-08T17:01:04.925Z</time></trkpt><trkpt lat="42.3647719" lon="13.3224313"><ele>656.0</ele><time>2026-04-08T17:01:05.923Z</time></trkpt><trkpt lat="42.3646031" lon="13.3226178"><ele>656.0</ele><time>2026-04-08T17:01:06.924Z</time></trkpt><trkpt lat="42.3644315" lon="13.3227993"><ele>656.0</ele><time>2026-04-08T17:01:07.926Z</time></trkpt><trkpt lat="42.3642606" lon="13.3229901"><ele>656.0</ele><time>2026-04-08T17:01:08.928Z</time></trkpt><trkpt lat="42.3640999" lon="13.3232019"><ele>656.0</ele><time>2026-04-08T17:01:09.924Z</time></trkpt><trkpt lat="42.3639468" lon="13.3234387"><ele>657.0</ele><time>2026-04-08T17:01:10.925Z</time></trkpt><trkpt lat="42.3637996" lon="13.3236878"><ele>658.0</ele><time>2026-04-08T17:01:11.925Z</time></trkpt><trkpt lat="42.3636554" lon="13.3239429"><ele>658.0</ele><time>2026-04-08T17:01:12.924Z</time></trkpt><trkpt lat="42.3635095" lon="13.3242109"><ele>658.0</ele><time>2026-04-08T17:01:13.923Z</time></trkpt><trkpt lat="42.3633658" lon="13.3244791"><ele>661.5</ele><time>2026-04-08T17:01:14.924Z</time></trkpt><trkpt lat="42.3632203" lon="13.3247421"><ele>665.0</ele><time>2026-04-08T17:01:15.922Z</time></trkpt><trkpt lat="42.3630681" lon="13.3249879"><ele>661.0</ele><time>2026-04-08T17:01:16.924Z</time></trkpt><trkpt lat="42.3629048" lon="13.3252018"><ele>657.0</ele><time>2026-04-08T17:01:17.925Z</time></trkpt><trkpt lat="42.3627273" lon="13.3253902"><ele>657.6666666666666</ele><time>2026-04-08T17:01:18.923Z</time></trkpt><trkpt lat="42.362544" lon="13.3255651"><ele>658.3333333333333</ele><time>2026-04-08T17:01:19.924Z</time></trkpt><trkpt lat="42.3623538" lon="13.3257262"><ele>659.0</ele><time>2026-04-08T17:01:20.924Z</time></trkpt><trkpt lat="42.362159" lon="13.3258712"><ele>659.0</ele><time>2026-04-08T17:01:21.925Z</time></trkpt><trkpt lat="42.3619651" lon="13.3259983"><ele>659.0</ele><time>2026-04-08T17:01:22.926Z</time></trkpt><trkpt lat="42.3617715" lon="13.3260845"><ele>659.0</ele><time>2026-04-08T17:01:23.923Z</time></trkpt><trkpt lat="42.3615834" lon="13.3261407"><ele>659.0</ele><time>2026-04-08T17:01:24.932Z</time></trkpt><trkpt lat="42.3614022" lon="13.3261598"><ele>659.0</ele><time>2026-04-08T17:01:25.923Z</time></trkpt><trkpt lat="42.3612285" lon="13.3261597"><ele>659.0</ele><time>2026-04-08T17:01:26.926Z</time></trkpt><trkpt lat="42.3610534" lon="13.3261642"><ele>659.6666666666666</ele><time>2026-04-08T17:01:27.925Z</time></trkpt><trkpt lat="42.360885" lon="13.3261817"><ele>660.3333333333334</ele><time>2026-04-08T17:01:28.922Z</time></trkpt><trkpt lat="42.3607275" lon="13.3262279"><ele>661.0</ele><time>2026-04-08T17:01:29.924Z</time></trkpt><trkpt lat="42.3605833" lon="13.3263047"><ele>662.0</ele><time>2026-04-08T17:01:30.924Z</time></trkpt><trkpt lat="42.3604583" lon="13.326419"><ele>663.0</ele><time>2026-04-08T17:01:31.926Z</time></trkpt><trkpt lat="42.3603493" lon="13.3265615"><ele>664.0</ele><time>2026-04-08T17:01:32.925Z</time></trkpt><trkpt lat="42.3602596" lon="13.3267217"><ele>664.0</ele><time>2026-04-08T17:01:33.922Z</time></trkpt><trkpt lat="42.3601865" lon="13.3269097"><ele>664.0</ele><time>2026-04-08T17:01:34.925Z</time></trkpt><trkpt lat="42.3601278" lon="13.3270956"><ele>664.0</ele><time>2026-04-08T17:01:35.925Z</time></trkpt><trkpt lat="42.3600933" lon="13.3273172"><ele>662.6666666666667</ele><time>2026-04-08T17:01:36.926Z</time></trkpt><trkpt lat="42.3600618" lon="13.3275403"><ele>661.3333333333334</ele><time>2026-04-08T17:01:37.924Z</time></trkpt><trkpt lat="42.3600302" lon="13.3277508"><ele>660.0</ele><time>2026-04-08T17:01:38.924Z</time></trkpt><trkpt lat="42.3600099" lon="13.3279519"><ele>660.3333333333334</ele><time>2026-04-08T17:01:39.924Z</time></trkpt><trkpt lat="42.3600072" lon="13.3281538"><ele>660.6666666666667</ele><time>2026-04-08T17:01:40.924Z</time></trkpt><trkpt lat="42.3600265" lon="13.3283655"><ele>661.0</ele><time>2026-04-08T17:01:41.924Z</time></trkpt><trkpt lat="42.3600694" lon="13.3285727"><ele>661.0</ele><time>2026-04-08T17:01:42.927Z</time></trkpt><trkpt lat="42.3601231" lon="13.3287784"><ele>661.0</ele><time>2026-04-08T17:01:43.926Z</time></trkpt><trkpt lat="42.3601769" lon="13.3289818"><ele>661.0</ele><time>2026-04-08T17:01:44.925Z</time></trkpt><trkpt lat="42.3602207" lon="13.3291885"><ele>659.0</ele><time>2026-04-08T17:01:45.924Z</time></trkpt><trkpt lat="42.3602568" lon="13.3293942"><ele>657.0</ele><time>2026-04-08T17:01:46.925Z</time></trkpt><trkpt lat="42.3602905" lon="13.3296072"><ele>655.0</ele><time>2026-04-08T17:01:47.927Z</time></trkpt><trkpt lat="42.3603198" lon="13.3298333"><ele>653.6666666666667</ele><time>2026-04-08T17:01:48.924Z</time></trkpt><trkpt lat="42.3603583" lon="13.3300547"><ele>652.3333333333334</ele><time>2026-04-08T17:01:49.925Z</time></trkpt><trkpt lat="42.3604097" lon="13.3302763"><ele>651.0</ele><time>2026-04-08T17:01:50.925Z</time></trkpt><trkpt lat="42.3604882" lon="13.3305215"><ele>655.3333333333334</ele><time>2026-04-08T17:01:51.926Z</time></trkpt><trkpt lat="42.3605816" lon="13.330794"><ele>659.6666666666667</ele><time>2026-04-08T17:01:52.932Z</time></trkpt><trkpt lat="42.3606673" lon="13.3310646"><ele>664.0</ele><time>2026-04-08T17:01:53.925Z</time></trkpt><trkpt lat="42.3607442" lon="13.3313139"><ele>661.6666666666667</ele><time>2026-04-08T17:01:54.927Z</time></trkpt><trkpt lat="42.3608048" lon="13.3315651"><ele>659.3333333333334</ele><time>2026-04-08T17:01:55.925Z</time></trkpt><trkpt lat="42.3608412" lon="13.3318323"><ele>657.0</ele><time>2026-04-08T17:01:56.928Z</time></trkpt><trkpt lat="42.360853" lon="13.3321009"><ele>657.3333333333334</ele><time>2026-04-08T17:01:57.932Z</time></trkpt><trkpt lat="42.3608507" lon="13.3323726"><ele>657.6666666666667</ele><time>2026-04-08T17:01:58.924Z</time></trkpt><trkpt lat="42.3608484" lon="13.3326388"><ele>658.0</ele><time>2026-04-08T17:01:59.923Z</time></trkpt><trkpt lat="42.3607958" lon="13.3328963"><ele>658.6666666666667</ele><time>2026-04-08T17:02:00.927Z</time></trkpt><trkpt lat="42.3607338" lon="13.3331294"><ele>659.3333333333334</ele><time>2026-04-08T17:02:01.927Z</time></trkpt><trkpt lat="42.3606668" lon="13.3333654"><ele>660.0</ele><time>2026-04-08T17:02:02.925Z</time></trkpt><trkpt lat="42.3605468" lon="13.3335698"><ele>656.0</ele><time>2026-04-08T17:02:03.924Z</time></trkpt><trkpt lat="42.3603797" lon="13.333731"><ele>652.0</ele><time>2026-04-08T17:02:04.923Z</time></trkpt><trkpt lat="42.3602228" lon="13.3338987"><ele>648.0</ele><time>2026-04-08T17:02:05.926Z</time></trkpt><trkpt lat="42.3600555" lon="13.3340481"><ele>648.0</ele><time>2026-04-08T17:02:06.923Z</time></trkpt><trkpt lat="42.3598738" lon="13.3341872"><ele>648.0</ele><time>2026-04-08T17:02:07.925Z</time></trkpt><trkpt lat="42.3596916" lon="13.3342972"><ele>648.0</ele><time>2026-04-08T17:02:08.927Z</time></trkpt><trkpt lat="42.3594965" lon="13.334374"><ele>647.0</ele><time>2026-04-08T17:02:09.925Z</time></trkpt><trkpt lat="42.3592947" lon="13.3344475"><ele>646.0</ele><time>2026-04-08T17:02:10.925Z</time></trkpt><trkpt lat="42.3590853" lon="13.3345185"><ele>645.0</ele><time>2026-04-08T17:02:11.923Z</time></trkpt><trkpt lat="42.3588748" lon="13.3345952"><ele>645.6666666666666</ele><time>2026-04-08T17:02:12.925Z</time></trkpt><trkpt lat="42.3586617" lon="13.3346786"><ele>646.3333333333333</ele><time>2026-04-08T17:02:13.927Z</time></trkpt><trkpt lat="42.3584519" lon="13.3347828"><ele>647.0</ele><time>2026-04-08T17:02:14.923Z</time></trkpt><trkpt lat="42.3582451" lon="13.3349071"><ele>647.0</ele><time>2026-04-08T17:02:15.924Z</time></trkpt><trkpt lat="42.3580477" lon="13.3350592"><ele>647.0</ele><time>2026-04-08T17:02:16.925Z</time></trkpt><trkpt lat="42.357869" lon="13.3352301"><ele>647.0</ele><time>2026-04-08T17:02:17.924Z</time></trkpt><trkpt lat="42.3577112" lon="13.3354175"><ele>646.6666666666666</ele><time>2026-04-08T17:02:18.926Z</time></trkpt><trkpt lat="42.3575697" lon="13.3356167"><ele>646.3333333333334</ele><time>2026-04-08T17:02:19.924Z</time></trkpt><trkpt lat="42.3574354" lon="13.3358307"><ele>646.0</ele><time>2026-04-08T17:02:20.924Z</time></trkpt><trkpt lat="42.3573162" lon="13.3360691"><ele>646.0</ele><time>2026-04-08T17:02:21.924Z</time></trkpt><trkpt lat="42.3572107" lon="13.3363245"><ele>646.0</ele><time>2026-04-08T17:02:22.933Z</time></trkpt><trkpt lat="42.3571188" lon="13.3366029"><ele>646.0</ele><time>2026-04-08T17:02:23.925Z</time></trkpt><trkpt lat="42.3570403" lon="13.3368965"><ele>644.0</ele><time>2026-04-08T17:02:24.93Z</time></trkpt><trkpt lat="42.356971" lon="13.3371911"><ele>642.0</ele><time>2026-04-08T17:02:25.923Z</time></trkpt><trkpt lat="42.3569074" lon="13.3374906"><ele>642.0</ele><time>2026-04-08T17:02:26.925Z</time></trkpt><trkpt lat="42.3568449" lon="13.3377897"><ele>642.0</ele><time>2026-04-08T17:02:27.934Z</time></trkpt><trkpt lat="42.3567806" lon="13.3380839"><ele>642.3333333333334</ele><time>2026-04-08T17:02:28.924Z</time></trkpt><trkpt lat="42.3567208" lon="13.3383762"><ele>642.6666666666667</ele><time>2026-04-08T17:02:29.925Z</time></trkpt><trkpt lat="42.3566627" lon="13.338664"><ele>643.0</ele><time>2026-04-08T17:02:30.927Z</time></trkpt><trkpt lat="42.3566086" lon="13.3389466"><ele>643.0</ele><time>2026-04-08T17:02:31.926Z</time></trkpt><trkpt lat="42.3565548" lon="13.3392214"><ele>643.0</ele><time>2026-04-08T17:02:32.925Z</time></trkpt><trkpt lat="42.3565014" lon="13.3394903"><ele>643.0</ele><time>2026-04-08T17:02:33.926Z</time></trkpt><trkpt lat="42.356448" lon="13.3397576"><ele>643.3333333333334</ele><time>2026-04-08T17:02:34.927Z</time></trkpt><trkpt lat="42.3563935" lon="13.3400185"><ele>643.6666666666666</ele><time>2026-04-08T17:02:35.929Z</time></trkpt><trkpt lat="42.3563429" lon="13.3402725"><ele>644.0</ele><time>2026-04-08T17:02:36.924Z</time></trkpt><trkpt lat="42.3562922" lon="13.3405272"><ele>642.3333333333333</ele><time>2026-04-08T17:02:37.924Z</time></trkpt><trkpt lat="42.3562429" lon="13.3407815"><ele>640.6666666666666</ele><time>2026-04-08T17:02:38.924Z</time></trkpt><trkpt lat="42.3561926" lon="13.3410315"><ele>639.0</ele><time>2026-04-08T17:02:39.924Z</time></trkpt><trkpt lat="42.3561422" lon="13.3412765"><ele>639.0</ele><time>2026-04-08T17:02:40.925Z</time></trkpt><trkpt lat="42.3560945" lon="13.3415211"><ele>639.0</ele><time>2026-04-08T17:02:41.928Z</time></trkpt><trkpt lat="42.3560491" lon="13.3417587"><ele>639.0</ele><time>2026-04-08T17:02:42.925Z</time></trkpt><trkpt lat="42.3560041" lon="13.3419965"><ele>638.3333333333334</ele><time>2026-04-08T17:02:43.924Z</time></trkpt><trkpt lat="42.3559585" lon="13.3422308"><ele>637.6666666666667</ele><time>2026-04-08T17:02:44.926Z</time></trkpt><trkpt lat="42.3559136" lon="13.342466"><ele>637.0</ele><time>2026-04-08T17:02:45.924Z</time></trkpt><trkpt lat="42.355868" lon="13.3427008"><ele>637.0</ele><time>2026-04-08T17:02:46.925Z</time></trkpt><trkpt lat="42.3558214" lon="13.3429416"><ele>637.0</ele><time>2026-04-08T17:02:47.926Z</time></trkpt><trkpt lat="42.3557795" lon="13.343188"><ele>637.0</ele><time>2026-04-08T17:02:48.923Z</time></trkpt><trkpt lat="42.3557465" lon="13.3434351"><ele>637.3333333333334</ele><time>2026-04-08T17:02:49.925Z</time></trkpt><trkpt lat="42.3557444" lon="13.3436961"><ele>637.6666666666666</ele><time>2026-04-08T17:02:50.924Z</time></trkpt><trkpt lat="42.3557582" lon="13.3439588"><ele>638.0</ele><time>2026-04-08T17:02:51.924Z</time></trkpt><trkpt lat="42.3558003" lon="13.3442133"><ele>637.0</ele><time>2026-04-08T17:02:52.924Z</time></trkpt><trkpt lat="42.3558574" lon="13.3444591"><ele>636.0</ele><time>2026-04-08T17:02:53.926Z</time></trkpt><trkpt lat="42.3559183" lon="13.3447115"><ele>635.0</ele><time>2026-04-08T17:02:54.924Z</time></trkpt><trkpt lat="42.3559808" lon="13.3449672"><ele>634.0</ele><time>2026-04-08T17:02:55.926Z</time></trkpt><trkpt lat="42.3560407" lon="13.3452203"><ele>633.0</ele><time>2026-04-08T17:02:56.925Z</time></trkpt><trkpt lat="42.3561011" lon="13.3454742"><ele>632.0</ele><time>2026-04-08T17:02:57.924Z</time></trkpt><trkpt lat="42.3561621" lon="13.3457299"><ele>632.0</ele><time>2026-04-08T17:02:58.925Z</time></trkpt><trkpt lat="42.3562213" lon="13.3459899"><ele>632.0</ele><time>2026-04-08T17:02:59.926Z</time></trkpt><trkpt lat="42.356282" lon="13.3462509"><ele>632.0</ele><time>2026-04-08T17:03:00.926Z</time></trkpt><trkpt lat="42.3563416" lon="13.3465047"><ele>634.6666666666666</ele><time>2026-04-08T17:03:01.923Z</time></trkpt><trkpt lat="42.3564027" lon="13.3467587"><ele>637.3333333333334</ele><time>2026-04-08T17:03:02.926Z</time></trkpt><trkpt lat="42.3564504" lon="13.3469838"><ele>640.0</ele><time>2026-04-08T17:03:03.922Z</time></trkpt><trkpt lat="42.3565025" lon="13.347207"><ele>639.0</ele><time>2026-04-08T17:03:04.922Z</time></trkpt><trkpt lat="42.3565537" lon="13.3474255"><ele>638.0</ele><time>2026-04-08T17:03:05.923Z</time></trkpt><trkpt lat="42.3566001" lon="13.3476393"><ele>637.0</ele><time>2026-04-08T17:03:06.922Z</time></trkpt><trkpt lat="42.3566502" lon="13.3478427"><ele>634.0</ele><time>2026-04-08T17:03:07.927Z</time></trkpt><trkpt lat="42.3568644" lon="13.3486308"><ele>634.0</ele><time>2026-04-08T17:03:11.921Z</time></trkpt><trkpt lat="42.3569091" lon="13.3488147"><ele>634.0</ele><time>2026-04-08T17:03:12.921Z</time></trkpt><trkpt lat="42.3569461" lon="13.3489829"><ele>634.0</ele><time>2026-04-08T17:03:13.921Z</time></trkpt><trkpt lat="42.3569689" lon="13.3491319"><ele>634.0</ele><time>2026-04-08T17:03:14.922Z</time></trkpt><trkpt lat="42.3569885" lon="13.349261"><ele>633.8</ele><time>2026-04-08T17:03:15.921Z</time></trkpt><trkpt lat="42.3569952" lon="13.3493664"><ele>633.5999999999999</ele><time>2026-04-08T17:03:16.921Z</time></trkpt><trkpt lat="42.3569777" lon="13.3494775"><ele>633.4</ele><time>2026-04-08T17:03:17.921Z</time></trkpt><trkpt lat="42.3569484" lon="13.3496148"><ele>633.1999999999999</ele><time>2026-04-08T17:03:18.921Z</time></trkpt><trkpt lat="42.3569269" lon="13.3497503"><ele>633.0</ele><time>2026-04-08T17:03:19.922Z</time></trkpt><trkpt lat="42.3569236" lon="13.3498844"><ele>633.1999999999999</ele><time>2026-04-08T17:03:20.921Z</time></trkpt><trkpt lat="42.3569444" lon="13.3500167"><ele>633.4</ele><time>2026-04-08T17:03:21.921Z</time></trkpt><trkpt lat="42.3569909" lon="13.3501236"><ele>633.5999999999999</ele><time>2026-04-08T17:03:22.921Z</time></trkpt><trkpt lat="42.3570425" lon="13.3502029"><ele>633.8</ele><time>2026-04-08T17:03:23.921Z</time></trkpt><trkpt lat="42.3571267" lon="13.3502504"><ele>634.0</ele><time>2026-04-08T17:03:24.921Z</time></trkpt><trkpt lat="42.3572153" lon="13.3502685"><ele>634.0</ele><time>2026-04-08T17:03:25.921Z</time></trkpt><trkpt lat="42.3573052" lon="13.3502831"><ele>634.0</ele><time>2026-04-08T17:03:26.921Z</time></trkpt><trkpt lat="42.3573952" lon="13.3503004"><ele>634.0</ele><time>2026-04-08T17:03:27.921Z</time></trkpt><trkpt lat="42.3574833" lon="13.3503282"><ele>634.0</ele><time>2026-04-08T17:03:28.921Z</time></trkpt><trkpt lat="42.3575693" lon="13.350371"><ele>634.0</ele><time>2026-04-08T17:03:29.921Z</time></trkpt><trkpt lat="42.3576594" lon="13.3504302"><ele>634.0</ele><time>2026-04-08T17:03:30.921Z</time></trkpt><trkpt lat="42.3577565" lon="13.3505092"><ele>634.0</ele><time>2026-04-08T17:03:31.921Z</time></trkpt><trkpt lat="42.3578625" lon="13.3506211"><ele>634.0</ele><time>2026-04-08T17:03:32.921Z</time></trkpt><trkpt lat="42.3579679" lon="13.3507476"><ele>634.0</ele><time>2026-04-08T17:03:33.922Z</time></trkpt><trkpt lat="42.3580609" lon="13.3508796"><ele>632.75</ele><time>2026-04-08T17:03:34.921Z</time></trkpt><trkpt lat="42.3581511" lon="13.3510199"><ele>631.5</ele><time>2026-04-08T17:03:35.921Z</time></trkpt><trkpt lat="42.3582351" lon="13.3511668"><ele>630.25</ele><time>2026-04-08T17:03:36.922Z</time></trkpt><trkpt lat="42.358312" lon="13.3513139"><ele>629.0</ele><time>2026-04-08T17:03:37.921Z</time></trkpt><trkpt lat="42.3583812" lon="13.3514519"><ele>628.8</ele><time>2026-04-08T17:03:38.921Z</time></trkpt><trkpt lat="42.3584441" lon="13.3515758"><ele>628.5999999999999</ele><time>2026-04-08T17:03:39.921Z</time></trkpt><trkpt lat="42.3584975" lon="13.3516896"><ele>628.4</ele><time>2026-04-08T17:03:40.921Z</time></trkpt><trkpt lat="42.3585453" lon="13.3517881"><ele>628.1999999999999</ele><time>2026-04-08T17:03:41.921Z</time></trkpt><trkpt lat="42.3585893" lon="13.3518822"><ele>628.0</ele><time>2026-04-08T17:03:42.922Z</time></trkpt><trkpt lat="42.3586309" lon="13.3519708"><ele>628.0</ele><time>2026-04-08T17:03:43.921Z</time></trkpt><trkpt lat="42.3586671" lon="13.3520676"><ele>628.0</ele><time>2026-04-08T17:03:44.921Z</time></trkpt><trkpt lat="42.3586938" lon="13.3521793"><ele>628.0</ele><time>2026-04-08T17:03:45.921Z</time></trkpt><trkpt lat="42.3586978" lon="13.352294"><ele>628.0</ele><time>2026-04-08T17:03:46.921Z</time></trkpt><trkpt lat="42.3586992" lon="13.3524077"><ele>628.0</ele><time>2026-04-08T17:03:47.921Z</time></trkpt><trkpt lat="42.358726" lon="13.3525223"><ele>628.0</ele><time>2026-04-08T17:03:48.922Z</time></trkpt><trkpt lat="42.3587717" lon="13.3526418"><ele>628.0</ele><time>2026-04-08T17:03:49.921Z</time></trkpt><trkpt lat="42.3588354" lon="13.3527733"><ele>628.0</ele><time>2026-04-08T17:03:50.921Z</time></trkpt><trkpt lat="42.3588974" lon="13.3529223"><ele>628.0</ele><time>2026-04-08T17:03:51.921Z</time></trkpt><trkpt lat="42.3589611" lon="13.3531051"><ele>628.0</ele><time>2026-04-08T17:03:52.921Z</time></trkpt><trkpt lat="42.3590262" lon="13.3533078"><ele>628.0</ele><time>2026-04-08T17:03:53.921Z</time></trkpt><trkpt lat="42.3590896" lon="13.353508"><ele>628.0</ele><time>2026-04-08T17:03:54.921Z</time></trkpt><trkpt lat="42.3591466" lon="13.3537343"><ele>628.0</ele><time>2026-04-08T17:03:55.921Z</time></trkpt><trkpt lat="42.3592052" lon="13.3539712"><ele>628.0</ele><time>2026-04-08T17:03:56.921Z</time></trkpt><trkpt lat="42.3592679" lon="13.354209"><ele>628.0</ele><time>2026-04-08T17:03:57.921Z</time></trkpt><trkpt lat="42.359332" lon="13.3544486"><ele>628.0</ele><time>2026-04-08T17:03:58.921Z</time></trkpt><trkpt lat="42.3593982" lon="13.3546939"><ele>628.0</ele><time>2026-04-08T17:03:59.921Z</time></trkpt><trkpt lat="42.3594656" lon="13.3549416"><ele>628.0</ele><time>2026-04-08T17:04:00.921Z</time></trkpt><trkpt lat="42.3595322" lon="13.3551914"><ele>628.0</ele><time>2026-04-08T17:04:01.921Z</time></trkpt><trkpt lat="42.359601" lon="13.3554407"><ele>627.3333333333334</ele><time>2026-04-08T17:04:02.921Z</time></trkpt><trkpt lat="42.3596705" lon="13.3556847"><ele>626.6666666666666</ele><time>2026-04-08T17:04:03.921Z</time></trkpt><trkpt lat="42.3597373" lon="13.355926"><ele>626.0</ele><time>2026-04-08T17:04:04.921Z</time></trkpt><trkpt lat="42.3598048" lon="13.3561704"><ele>626.0</ele><time>2026-04-08T17:04:05.921Z</time></trkpt><trkpt lat="42.3598679" lon="13.356407"><ele>626.0</ele><time>2026-04-08T17:04:06.921Z</time></trkpt><trkpt lat="42.3599223" lon="13.3566428"><ele>626.0</ele><time>2026-04-08T17:04:07.922Z</time></trkpt><trkpt lat="42.3599664" lon="13.3568841"><ele>626.0</ele><time>2026-04-08T17:04:08.921Z</time></trkpt><trkpt lat="42.3600003" lon="13.3571305"><ele>626.0</ele><time>2026-04-08T17:04:09.921Z</time></trkpt><trkpt lat="42.3600217" lon="13.3573786"><ele>626.0</ele><time>2026-04-08T17:04:10.921Z</time></trkpt><trkpt lat="42.3600251" lon="13.3576297"><ele>626.0</ele><time>2026-04-08T17:04:11.921Z</time></trkpt><trkpt lat="42.3600205" lon="13.3578802"><ele>626.0</ele><time>2026-04-08T17:04:12.921Z</time></trkpt><trkpt lat="42.3600045" lon="13.3581241"><ele>626.0</ele><time>2026-04-08T17:04:13.921Z</time></trkpt><trkpt lat="42.3599742" lon="13.3583692"><ele>626.0</ele><time>2026-04-08T17:04:14.921Z</time></trkpt><trkpt lat="42.3599333" lon="13.3586018"><ele>626.0</ele><time>2026-04-08T17:04:15.921Z</time></trkpt><trkpt lat="42.3598824" lon="13.3588107"><ele>626.0</ele><time>2026-04-08T17:04:16.921Z</time></trkpt><trkpt lat="42.3598279" lon="13.3590017"><ele>626.25</ele><time>2026-04-08T17:04:17.922Z</time></trkpt><trkpt lat="42.3597728" lon="13.3591832"><ele>626.5</ele><time>2026-04-08T17:04:18.921Z</time></trkpt><trkpt lat="42.3597151" lon="13.3593609"><ele>626.75</ele><time>2026-04-08T17:04:19.922Z</time></trkpt><trkpt lat="42.359659" lon="13.3595349"><ele>627.0</ele><time>2026-04-08T17:04:20.921Z</time></trkpt><trkpt lat="42.3596022" lon="13.3597169"><ele>627.0</ele><time>2026-04-08T17:04:21.921Z</time></trkpt><trkpt lat="42.3595478" lon="13.3598979"><ele>627.0</ele><time>2026-04-08T17:04:22.921Z</time></trkpt><trkpt lat="42.3594923" lon="13.3600934"><ele>627.0</ele><time>2026-04-08T17:04:23.921Z</time></trkpt><trkpt lat="42.3594415" lon="13.360277"><ele>627.0</ele><time>2026-04-08T17:04:24.921Z</time></trkpt><trkpt lat="42.3593967" lon="13.3604432"><ele>627.2</ele><time>2026-04-08T17:04:25.921Z</time></trkpt><trkpt lat="42.359359" lon="13.3605898"><ele>627.4000000000001</ele><time>2026-04-08T17:04:26.922Z</time></trkpt><trkpt lat="42.3593239" lon="13.3607321"><ele>627.5999999999999</ele><time>2026-04-08T17:04:27.921Z</time></trkpt><trkpt lat="42.3592862" lon="13.360866"><ele>627.8</ele><time>2026-04-08T17:04:28.922Z</time></trkpt><trkpt lat="42.3592472" lon="13.3610048"><ele>628.0</ele><time>2026-04-08T17:04:29.921Z</time></trkpt><trkpt lat="42.3592086" lon="13.361144"><ele>628.0</ele><time>2026-04-08T17:04:30.921Z</time></trkpt><trkpt lat="42.3591709" lon="13.3612803"><ele>628.0</ele><time>2026-04-08T17:04:31.921Z</time></trkpt><trkpt lat="42.3591365" lon="13.3614049"><ele>628.0</ele><time>2026-04-08T17:04:32.921Z</time></trkpt><trkpt lat="42.3591019" lon="13.361529"><ele>628.0</ele><time>2026-04-08T17:04:33.922Z</time></trkpt><trkpt lat="42.3590641" lon="13.3616599"><ele>628.0</ele><time>2026-04-08T17:04:34.921Z</time></trkpt><trkpt lat="42.3590273" lon="13.3617864"><ele>627.6</ele><time>2026-04-08T17:04:35.921Z</time></trkpt><trkpt lat="42.3589907" lon="13.3619033"><ele>627.1999999999999</ele><time>2026-04-08T17:04:36.921Z</time></trkpt><trkpt lat="42.3589539" lon="13.3620224"><ele>626.8</ele><time>2026-04-08T17:04:37.921Z</time></trkpt><trkpt lat="42.358918" lon="13.3621395"><ele>626.4</ele><time>2026-04-08T17:04:38.921Z</time></trkpt><trkpt lat="42.358873" lon="13.3622771"><ele>626.0</ele><time>2026-04-08T17:04:39.922Z</time></trkpt><trkpt lat="42.358837" lon="13.3624151"><ele>626.0</ele><time>2026-04-08T17:04:40.921Z</time></trkpt><trkpt lat="42.3587952" lon="13.3625524"><ele>626.0</ele><time>2026-04-08T17:04:41.921Z</time></trkpt><trkpt lat="42.3587568" lon="13.3626903"><ele>626.0</ele><time>2026-04-08T17:04:42.922Z</time></trkpt><trkpt lat="42.3587112" lon="13.3628345"><ele>626.0</ele><time>2026-04-08T17:04:43.922Z</time></trkpt><trkpt lat="42.358668" lon="13.3629873"><ele>626.5</ele><time>2026-04-08T17:04:44.921Z</time></trkpt><trkpt lat="42.3586167" lon="13.3631543"><ele>627.0</ele><time>2026-04-08T17:04:45.921Z</time></trkpt><trkpt lat="42.3585586" lon="13.3633245"><ele>627.5</ele><time>2026-04-08T17:04:46.922Z</time></trkpt><trkpt lat="42.3585032" lon="13.3634949"><ele>628.0</ele><time>2026-04-08T17:04:47.921Z</time></trkpt><trkpt lat="42.3584518" lon="13.3636665"><ele>628.0</ele><time>2026-04-08T17:04:48.921Z</time></trkpt><trkpt lat="42.3584076" lon="13.363836"><ele>628.0</ele><time>2026-04-08T17:04:49.921Z</time></trkpt><trkpt lat="42.3583631" lon="13.3640012"><ele>628.0</ele><time>2026-04-08T17:04:50.921Z</time></trkpt><trkpt lat="42.3583279" lon="13.3641622"><ele>628.0</ele><time>2026-04-08T17:04:51.922Z</time></trkpt><trkpt lat="42.3582946" lon="13.364321"><ele>628.1999999999999</ele><time>2026-04-08T17:04:52.921Z</time></trkpt><trkpt lat="42.3582663" lon="13.3644697"><ele>628.4</ele><time>2026-04-08T17:04:53.921Z</time></trkpt><trkpt lat="42.3582454" lon="13.3646149"><ele>628.5999999999999</ele><time>2026-04-08T17:04:54.921Z</time></trkpt><trkpt lat="42.3582296" lon="13.3647537"><ele>628.8</ele><time>2026-04-08T17:04:55.921Z</time></trkpt><trkpt lat="42.3582143" lon="13.3648928"><ele>629.0</ele><time>2026-04-08T17:04:56.921Z</time></trkpt><trkpt lat="42.3582016" lon="13.3650354"><ele>629.0</ele><time>2026-04-08T17:04:57.921Z</time></trkpt><trkpt lat="42.3581888" lon="13.3651784"><ele>629.0</ele><time>2026-04-08T17:04:58.921Z</time></trkpt><trkpt lat="42.3581852" lon="13.3652841"><ele>629.0</ele><time>2026-04-08T17:04:59.922Z</time></trkpt><trkpt lat="42.3581846" lon="13.365395"><ele>629.0</ele><time>2026-04-08T17:05:00.921Z</time></trkpt><trkpt lat="42.3581875" lon="13.3655053"><ele>629.0</ele><time>2026-04-08T17:05:01.921Z</time></trkpt><trkpt lat="42.3582014" lon="13.3656317"><ele>629.0</ele><time>2026-04-08T17:05:02.921Z</time></trkpt><trkpt lat="42.3582191" lon="13.3657624"><ele>628.8</ele><time>2026-04-08T17:05:03.921Z</time></trkpt><trkpt lat="42.3582404" lon="13.3658918"><ele>628.5999999999999</ele><time>2026-04-08T17:05:04.921Z</time></trkpt><trkpt lat="42.3582691" lon="13.3660141"><ele>628.4</ele><time>2026-04-08T17:05:05.921Z</time></trkpt><trkpt lat="42.3583003" lon="13.3661254"><ele>628.1999999999999</ele><time>2026-04-08T17:05:06.921Z</time></trkpt><trkpt lat="42.3583404" lon="13.3662447"><ele>628.0</ele><time>2026-04-08T17:05:07.922Z</time></trkpt><trkpt lat="42.35839" lon="13.3663664"><ele>628.0</ele><time>2026-04-08T17:05:08.921Z</time></trkpt><trkpt lat="42.3584387" lon="13.3664848"><ele>628.0</ele><time>2026-04-08T17:05:09.921Z</time></trkpt><trkpt lat="42.3584916" lon="13.3666028"><ele>628.0</ele><time>2026-04-08T17:05:10.921Z</time></trkpt><trkpt lat="42.3585498" lon="13.3667188"><ele>628.0</ele><time>2026-04-08T17:05:11.921Z</time></trkpt><trkpt lat="42.3586124" lon="13.3668436"><ele>628.0</ele><time>2026-04-08T17:05:12.921Z</time></trkpt><trkpt lat="42.3586708" lon="13.3669715"><ele>628.0</ele><time>2026-04-08T17:05:13.921Z</time></trkpt><trkpt lat="42.3587203" lon="13.3670953"><ele>628.0</ele><time>2026-04-08T17:05:14.921Z</time></trkpt><trkpt lat="42.3587693" lon="13.3672218"><ele>628.0</ele><time>2026-04-08T17:05:15.921Z</time></trkpt><trkpt lat="42.3588229" lon="13.367346"><ele>628.0</ele><time>2026-04-08T17:05:16.921Z</time></trkpt><trkpt lat="42.3588747" lon="13.3674694"><ele>628.0</ele><time>2026-04-08T17:05:17.922Z</time></trkpt><trkpt lat="42.3589153" lon="13.3675964"><ele>628.1999999999999</ele><time>2026-04-08T17:05:18.922Z</time></trkpt><trkpt lat="42.3589496" lon="13.3676964"><ele>628.4</ele><time>2026-04-08T17:05:19.922Z</time></trkpt><trkpt lat="42.3589863" lon="13.3678247"><ele>628.5999999999999</ele><time>2026-04-08T17:05:21.922Z</time></trkpt><trkpt lat="42.3590011" lon="13.3679416"><ele>628.8</ele><time>2026-04-08T17:05:24.921Z</time></trkpt><trkpt lat="42.3590202" lon="13.3681178"><ele>629.0</ele><time>2026-04-08T17:05:26.921Z</time></trkpt><trkpt lat="42.3590469" lon="13.3682193"><ele>629.0</ele><time>2026-04-08T17:05:27.921Z</time></trkpt><trkpt lat="42.3590781" lon="13.3683321"><ele>629.0</ele><time>2026-04-08T17:05:28.921Z</time></trkpt><trkpt lat="42.359099" lon="13.36846"><ele>629.0</ele><time>2026-04-08T17:05:29.922Z</time></trkpt><trkpt lat="42.3591198" lon="13.3685987"><ele>629.0</ele><time>2026-04-08T17:05:30.921Z</time></trkpt><trkpt lat="42.3591407" lon="13.3687518"><ele>629.0</ele><time>2026-04-08T17:05:31.921Z</time></trkpt><trkpt lat="42.3591671" lon="13.3689108"><ele>629.2</ele><time>2026-04-08T17:05:32.921Z</time></trkpt><trkpt lat="42.3591921" lon="13.3690695"><ele>629.4</ele><time>2026-04-08T17:05:33.921Z</time></trkpt><trkpt lat="42.3592178" lon="13.3692124"><ele>629.6</ele><time>2026-04-08T17:05:34.921Z</time></trkpt><trkpt lat="42.3592406" lon="13.3693417"><ele>629.8</ele><time>2026-04-08T17:05:35.921Z</time></trkpt><trkpt lat="42.35926" lon="13.3694602"><ele>630.0</ele><time>2026-04-08T17:05:36.921Z</time></trkpt><trkpt lat="42.359275" lon="13.3695675"><ele>630.0</ele><time>2026-04-08T17:05:37.921Z</time></trkpt><trkpt lat="42.3592914" lon="13.3696783"><ele>630.0</ele><time>2026-04-08T17:05:38.921Z</time></trkpt><trkpt lat="42.35931" lon="13.3697868"><ele>630.0</ele><time>2026-04-08T17:05:39.922Z</time></trkpt><trkpt lat="42.3593278" lon="13.3698956"><ele>630.0</ele><time>2026-04-08T17:05:40.922Z</time></trkpt><trkpt lat="42.3593429" lon="13.3699987"><ele>630.0</ele><time>2026-04-08T17:05:41.922Z</time></trkpt><trkpt lat="42.3593601" lon="13.3701005"><ele>630.0</ele><time>2026-04-08T17:05:42.921Z</time></trkpt><trkpt lat="42.3593752" lon="13.3702014"><ele>630.3333333333334</ele><time>2026-04-08T17:05:43.921Z</time></trkpt><trkpt lat="42.3593904" lon="13.3702998"><ele>630.6666666666666</ele><time>2026-04-08T17:05:44.921Z</time></trkpt><trkpt lat="42.3594029" lon="13.3704021"><ele>631.0</ele><time>2026-04-08T17:05:45.921Z</time></trkpt><trkpt lat="42.3594186" lon="13.3705058"><ele>631.3333333333333</ele><time>2026-04-08T17:05:46.921Z</time></trkpt><trkpt lat="42.3594361" lon="13.3706157"><ele>631.6666666666666</ele><time>2026-04-08T17:05:47.922Z</time></trkpt><trkpt lat="42.3594533" lon="13.3707246"><ele>632.0</ele><time>2026-04-08T17:05:48.922Z</time></trkpt><trkpt lat="42.3594675" lon="13.3708288"><ele>632.8333333333333</ele><time>2026-04-08T17:05:49.921Z</time></trkpt><trkpt lat="42.3594798" lon="13.3709331"><ele>633.6666666666666</ele><time>2026-04-08T17:05:50.921Z</time></trkpt><trkpt lat="42.3594929" lon="13.371042"><ele>634.5</ele><time>2026-04-08T17:05:51.921Z</time></trkpt><trkpt lat="42.3595104" lon="13.3711518"><ele>635.3333333333334</ele><time>2026-04-08T17:05:52.921Z</time></trkpt><trkpt lat="42.3595291" lon="13.3712668"><ele>636.1666666666667</ele><time>2026-04-08T17:05:53.921Z</time></trkpt><trkpt lat="42.359552" lon="13.3713784"><ele>637.0</ele><time>2026-04-08T17:05:54.921Z</time></trkpt><trkpt lat="42.3595679" lon="13.3714971"><ele>637.2</ele><time>2026-04-08T17:05:55.921Z</time></trkpt><trkpt lat="42.3595834" lon="13.3716171"><ele>637.4000000000001</ele><time>2026-04-08T17:05:56.922Z</time></trkpt><trkpt lat="42.3596016" lon="13.3717536"><ele>637.5999999999999</ele><time>2026-04-08T17:05:57.921Z</time></trkpt><trkpt lat="42.3596247" lon="13.371898"><ele>637.8</ele><time>2026-04-08T17:05:58.922Z</time></trkpt><trkpt lat="42.3596489" lon="13.3720357"><ele>638.0</ele><time>2026-04-08T17:05:59.922Z</time></trkpt><trkpt lat="42.3596706" lon="13.3721848"><ele>638.4</ele><time>2026-04-08T17:06:00.921Z</time></trkpt><trkpt lat="42.3596912" lon="13.3723267"><ele>638.8</ele><time>2026-04-08T17:06:01.921Z</time></trkpt><trkpt lat="42.3597135" lon="13.3724667"><ele>639.2</ele><time>2026-04-08T17:06:02.921Z</time></trkpt><trkpt lat="42.3597356" lon="13.3726"><ele>639.6</ele><time>2026-04-08T17:06:03.921Z</time></trkpt><trkpt lat="42.3597551" lon="13.3727161"><ele>640.0</ele><time>2026-04-08T17:06:04.921Z</time></trkpt><trkpt lat="42.3597758" lon="13.3728282"><ele>640.2</ele><time>2026-04-08T17:06:05.922Z</time></trkpt><trkpt lat="42.3598006" lon="13.3729526"><ele>640.4</ele><time>2026-04-08T17:06:06.922Z</time></trkpt><trkpt lat="42.3598269" lon="13.3730905"><ele>640.5999999999999</ele><time>2026-04-08T17:06:07.921Z</time></trkpt><trkpt lat="42.3598532" lon="13.373247"><ele>640.8</ele><time>2026-04-08T17:06:08.922Z</time></trkpt><trkpt lat="42.3598764" lon="13.3734013"><ele>641.0</ele><time>2026-04-08T17:06:09.922Z</time></trkpt><trkpt lat="42.3599004" lon="13.3735397"><ele>641.75</ele><time>2026-04-08T17:06:10.921Z</time></trkpt><trkpt lat="42.3599242" lon="13.373682"><ele>642.5</ele><time>2026-04-08T17:06:11.922Z</time></trkpt><trkpt lat="42.3599467" lon="13.3738293"><ele>643.25</ele><time>2026-04-08T17:06:12.921Z</time></trkpt><trkpt lat="42.359974" lon="13.373991"><ele>644.0</ele><time>2026-04-08T17:06:13.922Z</time></trkpt><trkpt lat="42.3599973" lon="13.3741712"><ele>644.25</ele><time>2026-04-08T17:06:14.921Z</time></trkpt><trkpt lat="42.3600186" lon="13.3743622"><ele>644.5</ele><time>2026-04-08T17:06:15.921Z</time></trkpt><trkpt lat="42.3600394" lon="13.3745615"><ele>644.75</ele><time>2026-04-08T17:06:16.921Z</time></trkpt><trkpt lat="42.3600657" lon="13.374754"><ele>645.0</ele><time>2026-04-08T17:06:17.922Z</time></trkpt><trkpt lat="42.3600915" lon="13.3749339"><ele>645.2</ele><time>2026-04-08T17:06:18.921Z</time></trkpt><trkpt lat="42.3601163" lon="13.3750985"><ele>645.4</ele><time>2026-04-08T17:06:19.921Z</time></trkpt><trkpt lat="42.3601365" lon="13.375242"><ele>645.5999999999999</ele><time>2026-04-08T17:06:20.922Z</time></trkpt><trkpt lat="42.3601513" lon="13.3753667"><ele>645.8</ele><time>2026-04-08T17:06:21.921Z</time></trkpt><trkpt lat="42.3601662" lon="13.3754799"><ele>646.0</ele><time>2026-04-08T17:06:22.921Z</time></trkpt><trkpt lat="42.360178" lon="13.3755796"><ele>646.3333333333334</ele><time>2026-04-08T17:06:23.921Z</time></trkpt><trkpt lat="42.3601844" lon="13.3756711"><ele>646.6666666666667</ele><time>2026-04-08T17:06:24.921Z</time></trkpt><trkpt lat="42.3601937" lon="13.3757644"><ele>647.0</ele><time>2026-04-08T17:06:25.921Z</time></trkpt><trkpt lat="42.3602107" lon="13.3759209"><ele>647.3333333333334</ele><time>2026-04-08T17:06:27.921Z</time></trkpt><trkpt lat="42.3602258" lon="13.3760431"><ele>647.6666666666666</ele><time>2026-04-08T17:06:29.922Z</time></trkpt><trkpt lat="42.3602391" lon="13.3761636"><ele>648.0</ele><time>2026-04-08T17:06:31.921Z</time></trkpt><trkpt lat="42.3602513" lon="13.3762553"><ele>648.0</ele><time>2026-04-08T17:06:34.921Z</time></trkpt><trkpt lat="42.3602656" lon="13.3763417"><ele>648.0</ele><time>2026-04-08T17:06:37.921Z</time></trkpt><trkpt lat="42.3602669" lon="13.3764517"><ele>648.0</ele><time>2026-04-08T17:06:41.921Z</time></trkpt><trkpt lat="42.360257" lon="13.3765545"><ele>648.0</ele><time>2026-04-08T17:06:44.921Z</time></trkpt><trkpt lat="42.360271" lon="13.3766883"><ele>648.0</ele><time>2026-04-08T17:06:46.922Z</time></trkpt><trkpt lat="42.3602911" lon="13.3767704"><ele>648.0</ele><time>2026-04-08T17:06:48.921Z</time></trkpt><trkpt lat="42.360312" lon="13.3768808"><ele>648.3333333333334</ele><time>2026-04-08T17:06:52.922Z</time></trkpt><trkpt lat="42.3603188" lon="13.376984"><ele>648.6666666666666</ele><time>2026-04-08T17:06:55.921Z</time></trkpt><trkpt lat="42.3603298" lon="13.3771189"><ele>649.0</ele><time>2026-04-08T17:06:57.921Z</time></trkpt><trkpt lat="42.3603408" lon="13.3772031"><ele>649.3333333333333</ele><time>2026-04-08T17:06:58.921Z</time></trkpt><trkpt lat="42.3603564" lon="13.377374"><ele>649.6666666666666</ele><time>2026-04-08T17:07:00.921Z</time></trkpt><trkpt lat="42.3603634" lon="13.3774687"><ele>650.0</ele><time>2026-04-08T17:07:01.921Z</time></trkpt><trkpt lat="42.3603698" lon="13.3775621"><ele>650.0</ele><time>2026-04-08T17:07:02.921Z</time></trkpt><trkpt lat="42.3603714" lon="13.3776634"><ele>650.0</ele><time>2026-04-08T17:07:03.921Z</time></trkpt><trkpt lat="42.360369" lon="13.377764"><ele>650.0</ele><time>2026-04-08T17:07:04.921Z</time></trkpt><trkpt lat="42.3603635" lon="13.3778679"><ele>650.0</ele><time>2026-04-08T17:07:05.921Z</time></trkpt><trkpt lat="42.3603593" lon="13.3779719"><ele>650.0</ele><time>2026-04-08T17:07:06.921Z</time></trkpt><trkpt lat="42.3603515" lon="13.3780896"><ele>650.0</ele><time>2026-04-08T17:07:07.921Z</time></trkpt><trkpt lat="42.3603385" lon="13.3782081"><ele>650.2</ele><time>2026-04-08T17:07:08.921Z</time></trkpt><trkpt lat="42.3603232" lon="13.3783231"><ele>650.4</ele><time>2026-04-08T17:07:09.922Z</time></trkpt><trkpt lat="42.36031" lon="13.3784529"><ele>650.5999999999999</ele><time>2026-04-08T17:07:10.921Z</time></trkpt><trkpt lat="42.3602936" lon="13.3785971"><ele>650.8</ele><time>2026-04-08T17:07:11.922Z</time></trkpt><trkpt lat="42.3602771" lon="13.3787316"><ele>651.0</ele><time>2026-04-08T17:07:12.922Z</time></trkpt><trkpt lat="42.3602428" lon="13.3788855"><ele>651.1999999999999</ele><time>2026-04-08T17:07:13.921Z</time></trkpt><trkpt lat="42.3601963" lon="13.3790437"><ele>651.4</ele><time>2026-04-08T17:07:14.922Z</time></trkpt><trkpt lat="42.3601397" lon="13.3791817"><ele>651.6</ele><time>2026-04-08T17:07:15.921Z</time></trkpt><trkpt lat="42.3600952" lon="13.3792813"><ele>651.8</ele><time>2026-04-08T17:07:16.922Z</time></trkpt><trkpt lat="42.3600567" lon="13.379361"><ele>652.0</ele><time>2026-04-08T17:07:17.921Z</time></trkpt><trkpt lat="42.3600069" lon="13.3794503"><ele>652.0</ele><time>2026-04-08T17:07:19.921Z</time></trkpt><trkpt lat="42.3599438" lon="13.3795267"><ele>652.0</ele><time>2026-04-08T17:07:21.921Z</time></trkpt><trkpt lat="42.3598659" lon="13.379623"><ele>652.0</ele><time>2026-04-08T17:07:23.921Z</time></trkpt><trkpt lat="42.3598287" lon="13.3797196"><ele>652.0</ele><time>2026-04-08T17:07:24.921Z</time></trkpt><trkpt lat="42.3598181" lon="13.3798223"><ele>652.0</ele><time>2026-04-08T17:07:25.921Z</time></trkpt><trkpt lat="42.3598335" lon="13.37994"><ele>652.0</ele><time>2026-04-08T17:07:26.921Z</time></trkpt><trkpt lat="42.3598309" lon="13.380071"><ele>651.75</ele><time>2026-04-08T17:07:27.922Z</time></trkpt><trkpt lat="42.3598037" lon="13.3802009"><ele>651.5</ele><time>2026-04-08T17:07:28.921Z</time></trkpt><trkpt lat="42.3597537" lon="13.3803267"><ele>651.25</ele><time>2026-04-08T17:07:29.922Z</time></trkpt><trkpt lat="42.3596924" lon="13.3804669"><ele>651.0</ele><time>2026-04-08T17:07:30.921Z</time></trkpt><trkpt lat="42.3596261" lon="13.380625"><ele>650.75</ele><time>2026-04-08T17:07:31.921Z</time></trkpt><trkpt lat="42.3595571" lon="13.3807927"><ele>650.5</ele><time>2026-04-08T17:07:32.921Z</time></trkpt><trkpt lat="42.3594855" lon="13.3809551"><ele>650.25</ele><time>2026-04-08T17:07:33.922Z</time></trkpt><trkpt lat="42.3594148" lon="13.381113"><ele>650.0</ele><time>2026-04-08T17:07:34.921Z</time></trkpt><trkpt lat="42.3593462" lon="13.3812623"><ele>649.75</ele><time>2026-04-08T17:07:35.921Z</time></trkpt><trkpt lat="42.3592839" lon="13.3814055"><ele>649.5</ele><time>2026-04-08T17:07:36.922Z</time></trkpt><trkpt lat="42.3592176" lon="13.3815383"><ele>649.25</ele><time>2026-04-08T17:07:37.921Z</time></trkpt><trkpt lat="42.3591524" lon="13.381671"><ele>649.0</ele><time>2026-04-08T17:07:38.921Z</time></trkpt><trkpt lat="42.3590825" lon="13.3818098"><ele>649.0</ele><time>2026-04-08T17:07:39.921Z</time></trkpt><trkpt lat="42.3590232" lon="13.3819499"><ele>649.0</ele><time>2026-04-08T17:07:40.921Z</time></trkpt><trkpt lat="42.3589618" lon="13.3820858"><ele>649.0</ele><time>2026-04-08T17:07:41.921Z</time></trkpt><trkpt lat="42.3588953" lon="13.38222"><ele>649.0</ele><time>2026-04-08T17:07:42.922Z</time></trkpt><trkpt lat="42.3588357" lon="13.3823539"><ele>649.5</ele><time>2026-04-08T17:07:43.921Z</time></trkpt><trkpt lat="42.3587775" lon="13.3824869"><ele>650.0</ele><time>2026-04-08T17:07:44.921Z</time></trkpt><trkpt lat="42.3587101" lon="13.3826299"><ele>650.5</ele><time>2026-04-08T17:07:45.922Z</time></trkpt><trkpt lat="42.358637" lon="13.3827921"><ele>651.0</ele><time>2026-04-08T17:07:46.921Z</time></trkpt><trkpt lat="42.3585613" lon="13.3829596"><ele>650.3333333333334</ele><time>2026-04-08T17:07:47.921Z</time></trkpt><trkpt lat="42.3584878" lon="13.3831281"><ele>649.6666666666667</ele><time>2026-04-08T17:07:48.921Z</time></trkpt><trkpt lat="42.3584105" lon="13.3833049"><ele>649.0</ele><time>2026-04-08T17:07:49.921Z</time></trkpt><trkpt lat="42.3583254" lon="13.3834849"><ele>649.0</ele><time>2026-04-08T17:07:50.921Z</time></trkpt><trkpt lat="42.3582374" lon="13.3836798"><ele>649.0</ele><time>2026-04-08T17:07:51.921Z</time></trkpt><trkpt lat="42.3581395" lon="13.3838739"><ele>649.0</ele><time>2026-04-08T17:07:52.921Z</time></trkpt><trkpt lat="42.3580519" lon="13.3840699"><ele>649.0</ele><time>2026-04-08T17:07:53.921Z</time></trkpt><trkpt lat="42.3579766" lon="13.384253"><ele>649.0</ele><time>2026-04-08T17:07:54.921Z</time></trkpt><trkpt lat="42.3579149" lon="13.3844172"><ele>649.0</ele><time>2026-04-08T17:07:55.921Z</time></trkpt><trkpt lat="42.3578679" lon="13.3845668"><ele>649.0</ele><time>2026-04-08T17:07:56.921Z</time></trkpt><trkpt lat="42.3578318" lon="13.3847027"><ele>649.0</ele><time>2026-04-08T17:07:57.921Z</time></trkpt><trkpt lat="42.3578038" lon="13.3848123"><ele>649.0</ele><time>2026-04-08T17:07:58.921Z</time></trkpt><trkpt lat="42.3577766" lon="13.3849117"><ele>649.0</ele><time>2026-04-08T17:07:59.921Z</time></trkpt><trkpt lat="42.3577509" lon="13.3849898"><ele>649.0</ele><time>2026-04-08T17:08:00.921Z</time></trkpt><trkpt lat="42.3577038" lon="13.3851235"><ele>649.0</ele><time>2026-04-08T17:08:02.922Z</time></trkpt><trkpt lat="42.3576545" lon="13.3852282"><ele>649.0</ele><time>2026-04-08T17:08:04.921Z</time></trkpt><trkpt lat="42.3575677" lon="13.3853306"><ele>649.0</ele><time>2026-04-08T17:08:06.922Z</time></trkpt><trkpt lat="42.3574916" lon="13.3854532"><ele>649.0</ele><time>2026-04-08T17:08:08.921Z</time></trkpt><trkpt lat="42.3574534" lon="13.3855308"><ele>649.0</ele><time>2026-04-08T17:08:09.921Z</time></trkpt><trkpt lat="42.3574148" lon="13.3856026"><ele>649.0</ele><time>2026-04-08T17:08:10.921Z</time></trkpt><trkpt lat="42.357369" lon="13.3856746"><ele>649.0</ele><time>2026-04-08T17:08:11.921Z</time></trkpt><trkpt lat="42.3573214" lon="13.3857527"><ele>649.0</ele><time>2026-04-08T17:08:12.922Z</time></trkpt><trkpt lat="42.3572615" lon="13.3858327"><ele>648.4000000000001</ele><time>2026-04-08T17:08:13.922Z</time></trkpt><trkpt lat="42.3571994" lon="13.3859187"><ele>647.8</ele><time>2026-04-08T17:08:14.921Z</time></trkpt><trkpt lat="42.3571323" lon="13.3860002"><ele>647.2</ele><time>2026-04-08T17:08:15.921Z</time></trkpt><trkpt lat="42.357065" lon="13.3860826"><ele>646.5999999999999</ele><time>2026-04-08T17:08:16.921Z</time></trkpt><trkpt lat="42.3569942" lon="13.3861672"><ele>646.0</ele><time>2026-04-08T17:08:17.921Z</time></trkpt><trkpt lat="42.3569256" lon="13.3862621"><ele>646.4</ele><time>2026-04-08T17:08:18.921Z</time></trkpt><trkpt lat="42.3568589" lon="13.3863667"><ele>646.8</ele><time>2026-04-08T17:08:19.921Z</time></trkpt><trkpt lat="42.3567886" lon="13.3864811"><ele>647.1999999999999</ele><time>2026-04-08T17:08:20.921Z</time></trkpt><trkpt lat="42.3567192" lon="13.3865994"><ele>647.5999999999999</ele><time>2026-04-08T17:08:21.921Z</time></trkpt><trkpt lat="42.3566495" lon="13.3867106"><ele>648.0</ele><time>2026-04-08T17:08:22.921Z</time></trkpt><trkpt lat="42.3565709" lon="13.3868445"><ele>648.0</ele><time>2026-04-08T17:08:23.921Z</time></trkpt><trkpt lat="42.3564842" lon="13.3869816"><ele>648.0</ele><time>2026-04-08T17:08:24.922Z</time></trkpt><trkpt lat="42.356404" lon="13.387126"><ele>648.0</ele><time>2026-04-08T17:08:25.921Z</time></trkpt><trkpt lat="42.3563209" lon="13.3872702"><ele>648.0</ele><time>2026-04-08T17:08:26.921Z</time></trkpt><trkpt lat="42.3562392" lon="13.3874189"><ele>647.5</ele><time>2026-04-08T17:08:27.921Z</time></trkpt><trkpt lat="42.356159" lon="13.3875592"><ele>647.0</ele><time>2026-04-08T17:08:28.921Z</time></trkpt><trkpt lat="42.3560841" lon="13.387697"><ele>646.5</ele><time>2026-04-08T17:08:29.921Z</time></trkpt><trkpt lat="42.3560065" lon="13.3878278"><ele>646.0</ele><time>2026-04-08T17:08:30.922Z</time></trkpt><trkpt lat="42.355936" lon="13.387952"><ele>647.0</ele><time>2026-04-08T17:08:31.921Z</time></trkpt><trkpt lat="42.355879" lon="13.3880454"><ele>648.0</ele><time>2026-04-08T17:08:32.921Z</time></trkpt><trkpt lat="42.3558273" lon="13.3881056"><ele>649.0</ele><time>2026-04-08T17:08:33.921Z</time></trkpt><trkpt lat="42.3557467" lon="13.3881873"><ele>650.0</ele><time>2026-04-08T17:08:35.921Z</time></trkpt><trkpt lat="42.3556869" lon="13.3882272"><ele>651.0</ele><time>2026-04-08T17:08:36.921Z</time></trkpt><trkpt lat="42.3556162" lon="13.3882463"><ele>652.0</ele><time>2026-04-08T17:08:37.922Z</time></trkpt><trkpt lat="42.3555478" lon="13.3882737"><ele>652.0</ele><time>2026-04-08T17:08:38.921Z</time></trkpt><trkpt lat="42.3555037" lon="13.3883348"><ele>652.0</ele><time>2026-04-08T17:08:39.921Z</time></trkpt><trkpt lat="42.3554824" lon="13.3884206"><ele>652.0</ele><time>2026-04-08T17:08:40.921Z</time></trkpt><trkpt lat="42.3554891" lon="13.3885137"><ele>652.0</ele><time>2026-04-08T17:08:41.921Z</time></trkpt><trkpt lat="42.3555301" lon="13.3885904"><ele>652.0</ele><time>2026-04-08T17:08:42.921Z</time></trkpt><trkpt lat="42.3555857" lon="13.388667"><ele>652.0</ele><time>2026-04-08T17:08:43.921Z</time></trkpt><trkpt lat="42.3556495" lon="13.3887411"><ele>652.0</ele><time>2026-04-08T17:08:44.922Z</time></trkpt><trkpt lat="42.355712" lon="13.3888238"><ele>652.8333333333334</ele><time>2026-04-08T17:08:45.922Z</time></trkpt><trkpt lat="42.3557719" lon="13.3889112"><ele>653.6666666666667</ele><time>2026-04-08T17:08:46.921Z</time></trkpt><trkpt lat="42.355836" lon="13.3890021"><ele>654.5</ele><time>2026-04-08T17:08:47.922Z</time></trkpt><trkpt lat="42.3558831" lon="13.3891019"><ele>655.3333333333334</ele><time>2026-04-08T17:08:48.921Z</time></trkpt><trkpt lat="42.3559215" lon="13.3891862"><ele>656.1666666666666</ele><time>2026-04-08T17:08:49.921Z</time></trkpt><trkpt lat="42.3559834" lon="13.3892877"><ele>657.0</ele><time>2026-04-08T17:08:50.921Z</time></trkpt><trkpt lat="42.3560306" lon="13.3893793"><ele>657.0</ele><time>2026-04-08T17:08:51.922Z</time></trkpt><trkpt lat="42.3560751" lon="13.3894699"><ele>657.0</ele><time>2026-04-08T17:08:52.921Z</time></trkpt><trkpt lat="42.3561205" lon="13.3895575"><ele>657.0</ele><time>2026-04-08T17:08:53.921Z</time></trkpt><trkpt lat="42.3561617" lon="13.3896397"><ele>657.0</ele><time>2026-04-08T17:08:54.921Z</time></trkpt><trkpt lat="42.3562026" lon="13.389715"><ele>657.0</ele><time>2026-04-08T17:08:55.921Z</time></trkpt><trkpt lat="42.3562591" lon="13.3898373"><ele>657.0</ele><time>2026-04-08T17:08:57.922Z</time></trkpt><trkpt lat="42.3563086" lon="13.3899347"><ele>656.2</ele><time>2026-04-08T17:08:59.921Z</time></trkpt><trkpt lat="42.356387" lon="13.3900554"><ele>655.4000000000001</ele><time>2026-04-08T17:09:01.922Z</time></trkpt><trkpt lat="42.3564629" lon="13.3901714"><ele>654.5999999999999</ele><time>2026-04-08T17:09:03.921Z</time></trkpt><trkpt lat="42.3565538" lon="13.390269"><ele>653.8</ele><time>2026-04-08T17:09:05.922Z</time></trkpt><trkpt lat="42.3566222" lon="13.3903561"><ele>653.0</ele><time>2026-04-08T17:09:07.922Z</time></trkpt><trkpt lat="42.3566835" lon="13.3904406"><ele>653.1666666666666</ele><time>2026-04-08T17:09:09.921Z</time></trkpt><trkpt lat="42.3567362" lon="13.3905522"><ele>653.3333333333333</ele><time>2026-04-08T17:09:11.921Z</time></trkpt><trkpt lat="42.3567681" lon="13.3906569"><ele>653.5</ele><time>2026-04-08T17:09:13.921Z</time></trkpt><trkpt lat="42.3567779" lon="13.3907456"><ele>653.6666666666666</ele><time>2026-04-08T17:09:15.921Z</time></trkpt><trkpt lat="42.3567649" lon="13.3908683"><ele>653.8333333333334</ele><time>2026-04-08T17:09:18.921Z</time></trkpt><trkpt lat="42.3567401" lon="13.3909849"><ele>654.0</ele><time>2026-04-08T17:09:20.921Z</time></trkpt><trkpt lat="42.3567069" lon="13.391126"><ele>654.0</ele><time>2026-04-08T17:09:22.921Z</time></trkpt><trkpt lat="42.3566911" lon="13.3912229"><ele>654.0</ele><time>2026-04-08T17:09:24.921Z</time></trkpt><trkpt lat="42.356691" lon="13.3913115"><ele>654.0</ele><time>2026-04-08T17:09:27.921Z</time></trkpt><trkpt lat="42.3567614" lon="13.3913027"><ele>654.0</ele><time>2026-04-08T17:09:29.921Z</time></trkpt><trkpt lat="42.3568104" lon="13.3911933"><ele>654.0</ele><time>2026-04-08T17:09:31.921Z</time></trkpt><trkpt lat="42.3568773" lon="13.3911015"><ele>654.0</ele><time>2026-04-08T17:09:33.921Z</time></trkpt><trkpt lat="42.3569521" lon="13.3910743"><ele>654.0</ele><time>2026-04-08T17:09:35.922Z</time></trkpt><trkpt lat="42.3570449" lon="13.3911688"><ele>654.0</ele><time>2026-04-08T17:09:38.921Z</time></trkpt><trkpt lat="42.3570994" lon="13.3912714"><ele>654.0</ele><time>2026-04-08T17:09:39.921Z</time></trkpt><trkpt lat="42.3571547" lon="13.3913641"><ele>654.0</ele><time>2026-04-08T17:09:40.921Z</time></trkpt><trkpt lat="42.3572218" lon="13.3914671"><ele>654.0</ele><time>2026-04-08T17:09:41.921Z</time></trkpt><trkpt lat="42.3572979" lon="13.3915794"><ele>657.25</ele><time>2026-04-08T17:09:42.921Z</time></trkpt><trkpt lat="42.357377" lon="13.3917292"><ele>660.5</ele><time>2026-04-08T17:09:43.921Z</time></trkpt><trkpt lat="42.357464" lon="13.3919141"><ele>663.75</ele><time>2026-04-08T17:09:44.921Z</time></trkpt><trkpt lat="42.3575569" lon="13.392069"><ele>667.0</ele><time>2026-04-08T17:09:45.921Z</time></trkpt><trkpt lat="42.35765" lon="13.3922299"><ele>676.0</ele><time>2026-04-08T17:09:46.921Z</time></trkpt><trkpt lat="42.357744" lon="13.3923995"><ele>676.0</ele><time>2026-04-08T17:09:47.921Z</time></trkpt><trkpt lat="42.3578501" lon="13.3925672"><ele>676.0</ele><time>2026-04-08T17:09:48.922Z</time></trkpt></trkseg></trk></gpx>